<?xml version="1.0" encoding="UTF-8" standalone="no" ?>
<gpx xmlns="http://www.topografix.com/GPX/1/1" xmlns:xsi="http://www.w3.org/2001/XMLSchema-instance" xsi:schemaLocation="http://www.topografix.com/GPX/1/1 http://www.topografix.com/GPX/1/1/gpx.xsd" version="1.1" creator="VisuGPX - https://www.visugpx.com">
  <metadata>
    <name>VTT Accompagnement Téléthon EDF</name>
    <desc><![CDATA[Beau parcours long avec un beau dénivelé]]></desc>
  </metadata>
  <trk>
    <name><![CDATA[VTT Accompagnement Téléthon EDF]]></name>
    <trkseg>
      <trkpt lat="44.96852" lon="3.64492">
        <ele>600.5</ele>
        <time>2019-12-07T07:43:35Z</time>
      </trkpt>
      <trkpt lat="44.96852" lon="3.64492">
        <ele>600.5</ele>
        <time>2019-12-07T07:43:36Z</time>
      </trkpt>
      <trkpt lat="44.96852" lon="3.64492">
        <ele>600.5</ele>
        <time>2019-12-07T07:43:37Z</time>
      </trkpt>
      <trkpt lat="44.96853" lon="3.64492">
        <ele>600.5</ele>
        <time>2019-12-07T07:43:41Z</time>
      </trkpt>
      <trkpt lat="44.96853" lon="3.64492">
        <ele>600.5</ele>
        <time>2019-12-07T07:43:54Z</time>
      </trkpt>
      <trkpt lat="44.96853" lon="3.64492">
        <ele>600.5</ele>
        <time>2019-12-07T07:43:57Z</time>
      </trkpt>
      <trkpt lat="44.96853" lon="3.64491">
        <ele>600.5</ele>
        <time>2019-12-07T07:43:59Z</time>
      </trkpt>
      <trkpt lat="44.96854" lon="3.64488">
        <ele>600.5</ele>
        <time>2019-12-07T07:44:01Z</time>
      </trkpt>
      <trkpt lat="44.96855" lon="3.64486">
        <ele>600.5</ele>
        <time>2019-12-07T07:44:02Z</time>
      </trkpt>
      <trkpt lat="44.96856" lon="3.64483">
        <ele>600.5</ele>
        <time>2019-12-07T07:44:04Z</time>
      </trkpt>
      <trkpt lat="44.96862" lon="3.64483">
        <ele>600.5</ele>
        <time>2019-12-07T07:44:24Z</time>
      </trkpt>
      <trkpt lat="44.9686" lon="3.64482">
        <ele>600.5</ele>
        <time>2019-12-07T07:44:41Z</time>
      </trkpt>
      <trkpt lat="44.96864" lon="3.64487">
        <ele>600.6</ele>
        <time>2019-12-07T07:44:46Z</time>
      </trkpt>
      <trkpt lat="44.96865" lon="3.64489">
        <ele>600.6</ele>
        <time>2019-12-07T07:44:47Z</time>
      </trkpt>
      <trkpt lat="44.96865" lon="3.6449">
        <ele>600.6</ele>
        <time>2019-12-07T07:44:48Z</time>
      </trkpt>
      <trkpt lat="44.96869" lon="3.64494">
        <ele>600.6</ele>
        <time>2019-12-07T07:44:52Z</time>
      </trkpt>
      <trkpt lat="44.96894" lon="3.64517">
        <ele>602.4</ele>
        <time>2019-12-07T07:45:13Z</time>
      </trkpt>
      <trkpt lat="44.96908" lon="3.64531">
        <ele>604.9</ele>
        <time>2019-12-07T07:45:21Z</time>
      </trkpt>
      <trkpt lat="44.96916" lon="3.64552">
        <ele>612.4</ele>
        <time>2019-12-07T07:45:27Z</time>
      </trkpt>
      <trkpt lat="44.96916" lon="3.64557">
        <ele>612.6</ele>
        <time>2019-12-07T07:45:28Z</time>
      </trkpt>
      <trkpt lat="44.96915" lon="3.64561">
        <ele>612.8</ele>
        <time>2019-12-07T07:45:29Z</time>
      </trkpt>
      <trkpt lat="44.96914" lon="3.64564">
        <ele>612.9</ele>
        <time>2019-12-07T07:45:30Z</time>
      </trkpt>
      <trkpt lat="44.96913" lon="3.64568">
        <ele>613.1</ele>
        <time>2019-12-07T07:45:31Z</time>
      </trkpt>
      <trkpt lat="44.96912" lon="3.64572">
        <ele>613.2</ele>
        <time>2019-12-07T07:45:32Z</time>
      </trkpt>
      <trkpt lat="44.96906" lon="3.64587">
        <ele>613.7</ele>
        <time>2019-12-07T07:45:36Z</time>
      </trkpt>
      <trkpt lat="44.96901" lon="3.64601">
        <ele>613.9</ele>
        <time>2019-12-07T07:45:40Z</time>
      </trkpt>
      <trkpt lat="44.96895" lon="3.64615">
        <ele>613.9</ele>
        <time>2019-12-07T07:45:44Z</time>
      </trkpt>
      <trkpt lat="44.96885" lon="3.64637">
        <ele>613.7</ele>
        <time>2019-12-07T07:45:51Z</time>
      </trkpt>
      <trkpt lat="44.96879" lon="3.64651">
        <ele>613.5</ele>
        <time>2019-12-07T07:45:55Z</time>
      </trkpt>
      <trkpt lat="44.96862" lon="3.64685">
        <ele>612.7</ele>
        <time>2019-12-07T07:46:06Z</time>
      </trkpt>
      <trkpt lat="44.96854" lon="3.64699">
        <ele>612.1</ele>
        <time>2019-12-07T07:46:11Z</time>
      </trkpt>
      <trkpt lat="44.96841" lon="3.64721">
        <ele>611.3</ele>
        <time>2019-12-07T07:46:19Z</time>
      </trkpt>
      <trkpt lat="44.96827" lon="3.64749">
        <ele>612.6</ele>
        <time>2019-12-07T07:46:28Z</time>
      </trkpt>
      <trkpt lat="44.96821" lon="3.64763">
        <ele>614.4</ele>
        <time>2019-12-07T07:46:33Z</time>
      </trkpt>
      <trkpt lat="44.96821" lon="3.64766">
        <ele>614.8</ele>
        <time>2019-12-07T07:46:34Z</time>
      </trkpt>
      <trkpt lat="44.96822" lon="3.6478">
        <ele>616.2</ele>
        <time>2019-12-07T07:46:39Z</time>
      </trkpt>
      <trkpt lat="44.96829" lon="3.64787">
        <ele>617.5</ele>
        <time>2019-12-07T07:46:44Z</time>
      </trkpt>
      <trkpt lat="44.96831" lon="3.64788">
        <ele>617.8</ele>
        <time>2019-12-07T07:46:45Z</time>
      </trkpt>
      <trkpt lat="44.96833" lon="3.64788">
        <ele>618.1</ele>
        <time>2019-12-07T07:46:46Z</time>
      </trkpt>
      <trkpt lat="44.96834" lon="3.64789">
        <ele>618.4</ele>
        <time>2019-12-07T07:46:47Z</time>
      </trkpt>
      <trkpt lat="44.96836" lon="3.6479">
        <ele>618.7</ele>
        <time>2019-12-07T07:46:48Z</time>
      </trkpt>
      <trkpt lat="44.96847" lon="3.64789">
        <ele>620.3</ele>
        <time>2019-12-07T07:46:54Z</time>
      </trkpt>
      <trkpt lat="44.9687" lon="3.64782">
        <ele>624</ele>
        <time>2019-12-07T07:47:07Z</time>
      </trkpt>
      <trkpt lat="44.96892" lon="3.64772">
        <ele>627.2</ele>
        <time>2019-12-07T07:47:20Z</time>
      </trkpt>
      <trkpt lat="44.96913" lon="3.64761">
        <ele>631</ele>
        <time>2019-12-07T07:47:33Z</time>
      </trkpt>
      <trkpt lat="44.96939" lon="3.64763">
        <ele>635.2</ele>
        <time>2019-12-07T07:47:48Z</time>
      </trkpt>
      <trkpt lat="44.96946" lon="3.64767">
        <ele>636.6</ele>
        <time>2019-12-07T07:47:52Z</time>
      </trkpt>
      <trkpt lat="44.96949" lon="3.64769">
        <ele>637.3</ele>
        <time>2019-12-07T07:47:54Z</time>
      </trkpt>
      <trkpt lat="44.96977" lon="3.648">
        <ele>642.8</ele>
        <time>2019-12-07T07:48:13Z</time>
      </trkpt>
      <trkpt lat="44.96986" lon="3.64813">
        <ele>645</ele>
        <time>2019-12-07T07:48:20Z</time>
      </trkpt>
      <trkpt lat="44.96988" lon="3.64815">
        <ele>645.4</ele>
        <time>2019-12-07T07:48:21Z</time>
      </trkpt>
      <trkpt lat="44.96989" lon="3.64816">
        <ele>645.7</ele>
        <time>2019-12-07T07:48:22Z</time>
      </trkpt>
      <trkpt lat="44.96991" lon="3.64818">
        <ele>645.9</ele>
        <time>2019-12-07T07:48:23Z</time>
      </trkpt>
      <trkpt lat="44.96992" lon="3.6482">
        <ele>646.2</ele>
        <time>2019-12-07T07:48:24Z</time>
      </trkpt>
      <trkpt lat="44.9702" lon="3.64853">
        <ele>650.7</ele>
        <time>2019-12-07T07:48:42Z</time>
      </trkpt>
      <trkpt lat="44.97024" lon="3.6486">
        <ele>651.2</ele>
        <time>2019-12-07T07:48:45Z</time>
      </trkpt>
      <trkpt lat="44.97041" lon="3.64905">
        <ele>654.3</ele>
        <time>2019-12-07T07:49:04Z</time>
      </trkpt>
      <trkpt lat="44.97045" lon="3.64926">
        <ele>655.5</ele>
        <time>2019-12-07T07:49:11Z</time>
      </trkpt>
      <trkpt lat="44.9706" lon="3.6498">
        <ele>658.5</ele>
        <time>2019-12-07T07:49:30Z</time>
      </trkpt>
      <trkpt lat="44.97063" lon="3.65017">
        <ele>660.4</ele>
        <time>2019-12-07T07:49:42Z</time>
      </trkpt>
      <trkpt lat="44.97062" lon="3.65035">
        <ele>661.3</ele>
        <time>2019-12-07T07:49:49Z</time>
      </trkpt>
      <trkpt lat="44.97063" lon="3.65043">
        <ele>661.7</ele>
        <time>2019-12-07T07:49:52Z</time>
      </trkpt>
      <trkpt lat="44.97063" lon="3.6505">
        <ele>662.1</ele>
        <time>2019-12-07T07:49:55Z</time>
      </trkpt>
      <trkpt lat="44.97063" lon="3.65086">
        <ele>664.1</ele>
        <time>2019-12-07T07:50:09Z</time>
      </trkpt>
      <trkpt lat="44.97065" lon="3.65095">
        <ele>664.6</ele>
        <time>2019-12-07T07:50:12Z</time>
      </trkpt>
      <trkpt lat="44.97065" lon="3.65125">
        <ele>666.2</ele>
        <time>2019-12-07T07:50:23Z</time>
      </trkpt>
      <trkpt lat="44.97067" lon="3.65151">
        <ele>667.5</ele>
        <time>2019-12-07T07:50:31Z</time>
      </trkpt>
      <trkpt lat="44.97068" lon="3.65161">
        <ele>667.9</ele>
        <time>2019-12-07T07:50:34Z</time>
      </trkpt>
      <trkpt lat="44.9707" lon="3.65208">
        <ele>670.3</ele>
        <time>2019-12-07T07:50:49Z</time>
      </trkpt>
      <trkpt lat="44.97073" lon="3.65253">
        <ele>672.7</ele>
        <time>2019-12-07T07:51:05Z</time>
      </trkpt>
      <trkpt lat="44.97074" lon="3.65295">
        <ele>674.9</ele>
        <time>2019-12-07T07:51:21Z</time>
      </trkpt>
      <trkpt lat="44.97075" lon="3.6534">
        <ele>677.2</ele>
        <time>2019-12-07T07:51:37Z</time>
      </trkpt>
      <trkpt lat="44.97076" lon="3.65384">
        <ele>679.5</ele>
        <time>2019-12-07T07:51:53Z</time>
      </trkpt>
      <trkpt lat="44.97076" lon="3.65426">
        <ele>681.8</ele>
        <time>2019-12-07T07:52:08Z</time>
      </trkpt>
      <trkpt lat="44.97076" lon="3.65472">
        <ele>685.5</ele>
        <time>2019-12-07T07:52:24Z</time>
      </trkpt>
      <trkpt lat="44.97076" lon="3.65519">
        <ele>689.1</ele>
        <time>2019-12-07T07:52:41Z</time>
      </trkpt>
      <trkpt lat="44.97075" lon="3.65571">
        <ele>694.5</ele>
        <time>2019-12-07T07:52:59Z</time>
      </trkpt>
      <trkpt lat="44.97071" lon="3.65609">
        <ele>698.2</ele>
        <time>2019-12-07T07:53:13Z</time>
      </trkpt>
      <trkpt lat="44.97079" lon="3.65637">
        <ele>700.4</ele>
        <time>2019-12-07T07:53:27Z</time>
      </trkpt>
      <trkpt lat="44.9708" lon="3.65634">
        <ele>700.6</ele>
        <time>2019-12-07T07:53:28Z</time>
      </trkpt>
      <trkpt lat="44.97087" lon="3.6561">
        <ele>701.6</ele>
        <time>2019-12-07T07:53:37Z</time>
      </trkpt>
      <trkpt lat="44.97101" lon="3.65557">
        <ele>704.8</ele>
        <time>2019-12-07T07:53:53Z</time>
      </trkpt>
      <trkpt lat="44.97114" lon="3.65508">
        <ele>707.5</ele>
        <time>2019-12-07T07:54:10Z</time>
      </trkpt>
      <trkpt lat="44.97128" lon="3.65461">
        <ele>711.5</ele>
        <time>2019-12-07T07:54:26Z</time>
      </trkpt>
      <trkpt lat="44.97141" lon="3.65411">
        <ele>716.2</ele>
        <time>2019-12-07T07:54:42Z</time>
      </trkpt>
      <trkpt lat="44.9715" lon="3.65364">
        <ele>721</ele>
        <time>2019-12-07T07:54:57Z</time>
      </trkpt>
      <trkpt lat="44.97153" lon="3.65349">
        <ele>722.2</ele>
        <time>2019-12-07T07:55:02Z</time>
      </trkpt>
      <trkpt lat="44.97155" lon="3.65337">
        <ele>723.5</ele>
        <time>2019-12-07T07:55:06Z</time>
      </trkpt>
      <trkpt lat="44.97159" lon="3.65316">
        <ele>724.8</ele>
        <time>2019-12-07T07:55:13Z</time>
      </trkpt>
      <trkpt lat="44.97165" lon="3.65275">
        <ele>727.1</ele>
        <time>2019-12-07T07:55:29Z</time>
      </trkpt>
      <trkpt lat="44.97167" lon="3.65274">
        <ele>727.2</ele>
        <time>2019-12-07T07:55:30Z</time>
      </trkpt>
      <trkpt lat="44.97168" lon="3.65274">
        <ele>727.3</ele>
        <time>2019-12-07T07:55:31Z</time>
      </trkpt>
      <trkpt lat="44.9717" lon="3.65276">
        <ele>727.4</ele>
        <time>2019-12-07T07:55:32Z</time>
      </trkpt>
      <trkpt lat="44.9717" lon="3.65278">
        <ele>727.5</ele>
        <time>2019-12-07T07:55:33Z</time>
      </trkpt>
      <trkpt lat="44.97171" lon="3.65286">
        <ele>728</ele>
        <time>2019-12-07T07:55:43Z</time>
      </trkpt>
      <trkpt lat="44.97171" lon="3.65287">
        <ele>728.1</ele>
        <time>2019-12-07T07:55:47Z</time>
      </trkpt>
      <trkpt lat="44.97171" lon="3.65292">
        <ele>728.4</ele>
        <time>2019-12-07T07:55:50Z</time>
      </trkpt>
      <trkpt lat="44.97171" lon="3.65294">
        <ele>728.6</ele>
        <time>2019-12-07T07:55:51Z</time>
      </trkpt>
      <trkpt lat="44.97172" lon="3.65304">
        <ele>729.2</ele>
        <time>2019-12-07T07:55:56Z</time>
      </trkpt>
      <trkpt lat="44.97173" lon="3.65315">
        <ele>729.8</ele>
        <time>2019-12-07T07:56:02Z</time>
      </trkpt>
      <trkpt lat="44.97173" lon="3.65319">
        <ele>730</ele>
        <time>2019-12-07T07:56:04Z</time>
      </trkpt>
      <trkpt lat="44.97174" lon="3.65321">
        <ele>730.1</ele>
        <time>2019-12-07T07:56:05Z</time>
      </trkpt>
      <trkpt lat="44.97174" lon="3.65322">
        <ele>730.2</ele>
        <time>2019-12-07T07:56:06Z</time>
      </trkpt>
      <trkpt lat="44.97174" lon="3.65323">
        <ele>730.3</ele>
        <time>2019-12-07T07:56:07Z</time>
      </trkpt>
      <trkpt lat="44.97174" lon="3.65327">
        <ele>730.5</ele>
        <time>2019-12-07T07:56:11Z</time>
      </trkpt>
      <trkpt lat="44.97175" lon="3.65328">
        <ele>730.6</ele>
        <time>2019-12-07T07:56:12Z</time>
      </trkpt>
      <trkpt lat="44.97175" lon="3.6533">
        <ele>730.7</ele>
        <time>2019-12-07T07:56:13Z</time>
      </trkpt>
      <trkpt lat="44.97175" lon="3.65331">
        <ele>730.8</ele>
        <time>2019-12-07T07:56:17Z</time>
      </trkpt>
      <trkpt lat="44.97175" lon="3.65332">
        <ele>730.8</ele>
        <time>2019-12-07T07:56:18Z</time>
      </trkpt>
      <trkpt lat="44.97176" lon="3.6535">
        <ele>731.8</ele>
        <time>2019-12-07T07:56:34Z</time>
      </trkpt>
      <trkpt lat="44.97176" lon="3.65351">
        <ele>731.9</ele>
        <time>2019-12-07T07:56:35Z</time>
      </trkpt>
      <trkpt lat="44.97176" lon="3.65352">
        <ele>732</ele>
        <time>2019-12-07T07:56:36Z</time>
      </trkpt>
      <trkpt lat="44.97176" lon="3.65354">
        <ele>732.1</ele>
        <time>2019-12-07T07:56:37Z</time>
      </trkpt>
      <trkpt lat="44.97177" lon="3.65356">
        <ele>732.2</ele>
        <time>2019-12-07T07:56:39Z</time>
      </trkpt>
      <trkpt lat="44.97177" lon="3.65358">
        <ele>732.4</ele>
        <time>2019-12-07T07:56:40Z</time>
      </trkpt>
      <trkpt lat="44.97177" lon="3.65359">
        <ele>732.5</ele>
        <time>2019-12-07T07:56:41Z</time>
      </trkpt>
      <trkpt lat="44.97179" lon="3.65367">
        <ele>733.1</ele>
        <time>2019-12-07T07:56:47Z</time>
      </trkpt>
      <trkpt lat="44.9718" lon="3.6537">
        <ele>733.3</ele>
        <time>2019-12-07T07:56:49Z</time>
      </trkpt>
      <trkpt lat="44.9718" lon="3.65371">
        <ele>733.4</ele>
        <time>2019-12-07T07:56:51Z</time>
      </trkpt>
      <trkpt lat="44.9718" lon="3.65371">
        <ele>733.4</ele>
        <time>2019-12-07T07:56:54Z</time>
      </trkpt>
      <trkpt lat="44.97182" lon="3.65379">
        <ele>733.9</ele>
        <time>2019-12-07T07:57:04Z</time>
      </trkpt>
      <trkpt lat="44.97185" lon="3.65391">
        <ele>735</ele>
        <time>2019-12-07T07:57:11Z</time>
      </trkpt>
      <trkpt lat="44.97187" lon="3.654">
        <ele>736</ele>
        <time>2019-12-07T07:57:15Z</time>
      </trkpt>
      <trkpt lat="44.97191" lon="3.65419">
        <ele>738</ele>
        <time>2019-12-07T07:57:25Z</time>
      </trkpt>
      <trkpt lat="44.97192" lon="3.65419">
        <ele>738.1</ele>
        <time>2019-12-07T07:57:27Z</time>
      </trkpt>
      <trkpt lat="44.97193" lon="3.65418">
        <ele>738.3</ele>
        <time>2019-12-07T07:57:28Z</time>
      </trkpt>
      <trkpt lat="44.97199" lon="3.65413">
        <ele>739</ele>
        <time>2019-12-07T07:57:40Z</time>
      </trkpt>
      <trkpt lat="44.97199" lon="3.65409">
        <ele>739.3</ele>
        <time>2019-12-07T07:57:44Z</time>
      </trkpt>
      <trkpt lat="44.97199" lon="3.65408">
        <ele>739.4</ele>
        <time>2019-12-07T07:57:45Z</time>
      </trkpt>
      <trkpt lat="44.972" lon="3.654">
        <ele>739.9</ele>
        <time>2019-12-07T07:57:50Z</time>
      </trkpt>
      <trkpt lat="44.972" lon="3.65399">
        <ele>740.1</ele>
        <time>2019-12-07T07:57:51Z</time>
      </trkpt>
      <trkpt lat="44.972" lon="3.65394">
        <ele>740.5</ele>
        <time>2019-12-07T07:57:54Z</time>
      </trkpt>
      <trkpt lat="44.97201" lon="3.65393">
        <ele>740.7</ele>
        <time>2019-12-07T07:57:55Z</time>
      </trkpt>
      <trkpt lat="44.97202" lon="3.6539">
        <ele>741</ele>
        <time>2019-12-07T07:57:57Z</time>
      </trkpt>
      <trkpt lat="44.97204" lon="3.65388">
        <ele>741.4</ele>
        <time>2019-12-07T07:58:00Z</time>
      </trkpt>
      <trkpt lat="44.97206" lon="3.65389">
        <ele>741.6</ele>
        <time>2019-12-07T07:58:03Z</time>
      </trkpt>
      <trkpt lat="44.97206" lon="3.65394">
        <ele>742.1</ele>
        <time>2019-12-07T07:58:09Z</time>
      </trkpt>
      <trkpt lat="44.97207" lon="3.65397">
        <ele>742.3</ele>
        <time>2019-12-07T07:58:12Z</time>
      </trkpt>
      <trkpt lat="44.97213" lon="3.65417">
        <ele>743.9</ele>
        <time>2019-12-07T07:58:31Z</time>
      </trkpt>
      <trkpt lat="44.97213" lon="3.65423">
        <ele>744.2</ele>
        <time>2019-12-07T07:58:35Z</time>
      </trkpt>
      <trkpt lat="44.97213" lon="3.65427">
        <ele>744.4</ele>
        <time>2019-12-07T07:58:38Z</time>
      </trkpt>
      <trkpt lat="44.97214" lon="3.6543">
        <ele>744.6</ele>
        <time>2019-12-07T07:58:40Z</time>
      </trkpt>
      <trkpt lat="44.97214" lon="3.65431">
        <ele>744.7</ele>
        <time>2019-12-07T07:58:41Z</time>
      </trkpt>
      <trkpt lat="44.97216" lon="3.65443">
        <ele>745.4</ele>
        <time>2019-12-07T07:58:49Z</time>
      </trkpt>
      <trkpt lat="44.97217" lon="3.65449">
        <ele>745.7</ele>
        <time>2019-12-07T07:58:54Z</time>
      </trkpt>
      <trkpt lat="44.97216" lon="3.65452">
        <ele>745.8</ele>
        <time>2019-12-07T07:58:56Z</time>
      </trkpt>
      <trkpt lat="44.97218" lon="3.6546">
        <ele>746.6</ele>
        <time>2019-12-07T07:59:03Z</time>
      </trkpt>
      <trkpt lat="44.9722" lon="3.65465">
        <ele>747</ele>
        <time>2019-12-07T07:59:08Z</time>
      </trkpt>
      <trkpt lat="44.9722" lon="3.65469">
        <ele>747.3</ele>
        <time>2019-12-07T07:59:11Z</time>
      </trkpt>
      <trkpt lat="44.97221" lon="3.65471">
        <ele>747.5</ele>
        <time>2019-12-07T07:59:13Z</time>
      </trkpt>
      <trkpt lat="44.97229" lon="3.65493">
        <ele>749.7</ele>
        <time>2019-12-07T07:59:32Z</time>
      </trkpt>
      <trkpt lat="44.9723" lon="3.65497">
        <ele>750.1</ele>
        <time>2019-12-07T07:59:36Z</time>
      </trkpt>
      <trkpt lat="44.97232" lon="3.65503">
        <ele>750.7</ele>
        <time>2019-12-07T07:59:43Z</time>
      </trkpt>
      <trkpt lat="44.97234" lon="3.65508">
        <ele>751.3</ele>
        <time>2019-12-07T07:59:47Z</time>
      </trkpt>
      <trkpt lat="44.97234" lon="3.6551">
        <ele>751.5</ele>
        <time>2019-12-07T07:59:49Z</time>
      </trkpt>
      <trkpt lat="44.97234" lon="3.65514">
        <ele>751.7</ele>
        <time>2019-12-07T07:59:52Z</time>
      </trkpt>
      <trkpt lat="44.97234" lon="3.65516">
        <ele>751.9</ele>
        <time>2019-12-07T07:59:54Z</time>
      </trkpt>
      <trkpt lat="44.97235" lon="3.65519">
        <ele>752.1</ele>
        <time>2019-12-07T07:59:56Z</time>
      </trkpt>
      <trkpt lat="44.97236" lon="3.65525">
        <ele>752.5</ele>
        <time>2019-12-07T08:00:00Z</time>
      </trkpt>
      <trkpt lat="44.97236" lon="3.65528">
        <ele>752.8</ele>
        <time>2019-12-07T08:00:02Z</time>
      </trkpt>
      <trkpt lat="44.97237" lon="3.65535">
        <ele>753.3</ele>
        <time>2019-12-07T08:00:07Z</time>
      </trkpt>
      <trkpt lat="44.97238" lon="3.65538">
        <ele>753.5</ele>
        <time>2019-12-07T08:00:09Z</time>
      </trkpt>
      <trkpt lat="44.97239" lon="3.6554">
        <ele>753.7</ele>
        <time>2019-12-07T08:00:11Z</time>
      </trkpt>
      <trkpt lat="44.97238" lon="3.65543">
        <ele>753.9</ele>
        <time>2019-12-07T08:00:13Z</time>
      </trkpt>
      <trkpt lat="44.97238" lon="3.65544">
        <ele>754</ele>
        <time>2019-12-07T08:00:14Z</time>
      </trkpt>
      <trkpt lat="44.97239" lon="3.65546">
        <ele>754.1</ele>
        <time>2019-12-07T08:00:15Z</time>
      </trkpt>
      <trkpt lat="44.97239" lon="3.65547">
        <ele>754.2</ele>
        <time>2019-12-07T08:00:16Z</time>
      </trkpt>
      <trkpt lat="44.97239" lon="3.65549">
        <ele>754.3</ele>
        <time>2019-12-07T08:00:17Z</time>
      </trkpt>
      <trkpt lat="44.97239" lon="3.6555">
        <ele>754.4</ele>
        <time>2019-12-07T08:00:18Z</time>
      </trkpt>
      <trkpt lat="44.9724" lon="3.65551">
        <ele>754.5</ele>
        <time>2019-12-07T08:00:19Z</time>
      </trkpt>
      <trkpt lat="44.9724" lon="3.65553">
        <ele>754.6</ele>
        <time>2019-12-07T08:00:20Z</time>
      </trkpt>
      <trkpt lat="44.97241" lon="3.65557">
        <ele>754.9</ele>
        <time>2019-12-07T08:00:23Z</time>
      </trkpt>
      <trkpt lat="44.97241" lon="3.65556">
        <ele>754.9</ele>
        <time>2019-12-07T08:00:26Z</time>
      </trkpt>
      <trkpt lat="44.97242" lon="3.65558">
        <ele>755</ele>
        <time>2019-12-07T08:00:29Z</time>
      </trkpt>
      <trkpt lat="44.97243" lon="3.65563">
        <ele>755.5</ele>
        <time>2019-12-07T08:00:32Z</time>
      </trkpt>
      <trkpt lat="44.97251" lon="3.65599">
        <ele>757.1</ele>
        <time>2019-12-07T08:00:50Z</time>
      </trkpt>
      <trkpt lat="44.97254" lon="3.65605">
        <ele>757.3</ele>
        <time>2019-12-07T08:00:53Z</time>
      </trkpt>
      <trkpt lat="44.97258" lon="3.65612">
        <ele>757.4</ele>
        <time>2019-12-07T08:00:56Z</time>
      </trkpt>
      <trkpt lat="44.97264" lon="3.65622">
        <ele>757.5</ele>
        <time>2019-12-07T08:01:02Z</time>
      </trkpt>
      <trkpt lat="44.97267" lon="3.65624">
        <ele>757.5</ele>
        <time>2019-12-07T08:01:04Z</time>
      </trkpt>
      <trkpt lat="44.97267" lon="3.65624">
        <ele>757.6</ele>
        <time>2019-12-07T08:01:07Z</time>
      </trkpt>
      <trkpt lat="44.97268" lon="3.65624">
        <ele>757.6</ele>
        <time>2019-12-07T08:01:09Z</time>
      </trkpt>
      <trkpt lat="44.97268" lon="3.65629">
        <ele>757.7</ele>
        <time>2019-12-07T08:01:31Z</time>
      </trkpt>
      <trkpt lat="44.97267" lon="3.65631">
        <ele>757.8</ele>
        <time>2019-12-07T08:01:32Z</time>
      </trkpt>
      <trkpt lat="44.97267" lon="3.65633">
        <ele>757.9</ele>
        <time>2019-12-07T08:01:33Z</time>
      </trkpt>
      <trkpt lat="44.97267" lon="3.65636">
        <ele>758</ele>
        <time>2019-12-07T08:01:34Z</time>
      </trkpt>
      <trkpt lat="44.97268" lon="3.65639">
        <ele>758</ele>
        <time>2019-12-07T08:01:35Z</time>
      </trkpt>
      <trkpt lat="44.97268" lon="3.65642">
        <ele>758.1</ele>
        <time>2019-12-07T08:01:36Z</time>
      </trkpt>
      <trkpt lat="44.9727" lon="3.65645">
        <ele>758.1</ele>
        <time>2019-12-07T08:01:37Z</time>
      </trkpt>
      <trkpt lat="44.97275" lon="3.65659">
        <ele>758.3</ele>
        <time>2019-12-07T08:01:41Z</time>
      </trkpt>
      <trkpt lat="44.97277" lon="3.65667">
        <ele>758.4</ele>
        <time>2019-12-07T08:01:43Z</time>
      </trkpt>
      <trkpt lat="44.97292" lon="3.65709">
        <ele>759</ele>
        <time>2019-12-07T08:01:54Z</time>
      </trkpt>
      <trkpt lat="44.97299" lon="3.65727">
        <ele>759.3</ele>
        <time>2019-12-07T08:01:58Z</time>
      </trkpt>
      <trkpt lat="44.97309" lon="3.65746">
        <ele>759.3</ele>
        <time>2019-12-07T08:02:02Z</time>
      </trkpt>
      <trkpt lat="44.97313" lon="3.6575">
        <ele>759.3</ele>
        <time>2019-12-07T08:02:03Z</time>
      </trkpt>
      <trkpt lat="44.97316" lon="3.65754">
        <ele>759.2</ele>
        <time>2019-12-07T08:02:04Z</time>
      </trkpt>
      <trkpt lat="44.97328" lon="3.65765">
        <ele>759.1</ele>
        <time>2019-12-07T08:02:07Z</time>
      </trkpt>
      <trkpt lat="44.9737" lon="3.6582">
        <ele>758.8</ele>
        <time>2019-12-07T08:02:17Z</time>
      </trkpt>
      <trkpt lat="44.97378" lon="3.65833">
        <ele>758.5</ele>
        <time>2019-12-07T08:02:19Z</time>
      </trkpt>
      <trkpt lat="44.97399" lon="3.65873">
        <ele>758.1</ele>
        <time>2019-12-07T08:02:25Z</time>
      </trkpt>
      <trkpt lat="44.97409" lon="3.65894">
        <ele>757.4</ele>
        <time>2019-12-07T08:02:28Z</time>
      </trkpt>
      <trkpt lat="44.97441" lon="3.65965">
        <ele>752.9</ele>
        <time>2019-12-07T08:02:38Z</time>
      </trkpt>
      <trkpt lat="44.97468" lon="3.66026">
        <ele>750.1</ele>
        <time>2019-12-07T08:02:45Z</time>
      </trkpt>
      <trkpt lat="44.97494" lon="3.66079">
        <ele>748.2</ele>
        <time>2019-12-07T08:02:50Z</time>
      </trkpt>
      <trkpt lat="44.97509" lon="3.66112">
        <ele>748</ele>
        <time>2019-12-07T08:02:53Z</time>
      </trkpt>
      <trkpt lat="44.97513" lon="3.66123">
        <ele>748.1</ele>
        <time>2019-12-07T08:02:54Z</time>
      </trkpt>
      <trkpt lat="44.97516" lon="3.66135">
        <ele>748.2</ele>
        <time>2019-12-07T08:02:55Z</time>
      </trkpt>
      <trkpt lat="44.97514" lon="3.66147">
        <ele>748.3</ele>
        <time>2019-12-07T08:02:56Z</time>
      </trkpt>
      <trkpt lat="44.97511" lon="3.66156">
        <ele>748.6</ele>
        <time>2019-12-07T08:02:57Z</time>
      </trkpt>
      <trkpt lat="44.97507" lon="3.66163">
        <ele>749.1</ele>
        <time>2019-12-07T08:02:58Z</time>
      </trkpt>
      <trkpt lat="44.97502" lon="3.66168">
        <ele>749.5</ele>
        <time>2019-12-07T08:02:59Z</time>
      </trkpt>
      <trkpt lat="44.97497" lon="3.6617">
        <ele>749.5</ele>
        <time>2019-12-07T08:03:00Z</time>
      </trkpt>
      <trkpt lat="44.97491" lon="3.66171">
        <ele>749.5</ele>
        <time>2019-12-07T08:03:01Z</time>
      </trkpt>
      <trkpt lat="44.97486" lon="3.66172">
        <ele>750</ele>
        <time>2019-12-07T08:03:02Z</time>
      </trkpt>
      <trkpt lat="44.97455" lon="3.66185">
        <ele>752.5</ele>
        <time>2019-12-07T08:03:11Z</time>
      </trkpt>
      <trkpt lat="44.97436" lon="3.66191">
        <ele>753.1</ele>
        <time>2019-12-07T08:03:19Z</time>
      </trkpt>
      <trkpt lat="44.97428" lon="3.66195">
        <ele>753.4</ele>
        <time>2019-12-07T08:03:24Z</time>
      </trkpt>
      <trkpt lat="44.9742" lon="3.66202">
        <ele>754.2</ele>
        <time>2019-12-07T08:03:29Z</time>
      </trkpt>
      <trkpt lat="44.97415" lon="3.66211">
        <ele>755.2</ele>
        <time>2019-12-07T08:03:33Z</time>
      </trkpt>
      <trkpt lat="44.97395" lon="3.66228">
        <ele>757.6</ele>
        <time>2019-12-07T08:03:47Z</time>
      </trkpt>
      <trkpt lat="44.9738" lon="3.66236">
        <ele>758.3</ele>
        <time>2019-12-07T08:03:56Z</time>
      </trkpt>
      <trkpt lat="44.97375" lon="3.66238">
        <ele>758</ele>
        <time>2019-12-07T08:03:59Z</time>
      </trkpt>
      <trkpt lat="44.97366" lon="3.66239">
        <ele>757.5</ele>
        <time>2019-12-07T08:04:06Z</time>
      </trkpt>
      <trkpt lat="44.97365" lon="3.6624">
        <ele>758</ele>
        <time>2019-12-07T08:04:07Z</time>
      </trkpt>
      <trkpt lat="44.97364" lon="3.66242">
        <ele>758</ele>
        <time>2019-12-07T08:04:08Z</time>
      </trkpt>
      <trkpt lat="44.97363" lon="3.66243">
        <ele>757.8</ele>
        <time>2019-12-07T08:04:09Z</time>
      </trkpt>
      <trkpt lat="44.97362" lon="3.66245">
        <ele>758.4</ele>
        <time>2019-12-07T08:04:10Z</time>
      </trkpt>
      <trkpt lat="44.97352" lon="3.66252">
        <ele>758.3</ele>
        <time>2019-12-07T08:04:18Z</time>
      </trkpt>
      <trkpt lat="44.97339" lon="3.66271">
        <ele>759.7</ele>
        <time>2019-12-07T08:04:32Z</time>
      </trkpt>
      <trkpt lat="44.97336" lon="3.66288">
        <ele>760.4</ele>
        <time>2019-12-07T08:04:41Z</time>
      </trkpt>
      <trkpt lat="44.97335" lon="3.66293">
        <ele>760.4</ele>
        <time>2019-12-07T08:04:44Z</time>
      </trkpt>
      <trkpt lat="44.97332" lon="3.66308">
        <ele>759.6</ele>
        <time>2019-12-07T08:04:53Z</time>
      </trkpt>
      <trkpt lat="44.97331" lon="3.66309">
        <ele>759.4</ele>
        <time>2019-12-07T08:04:55Z</time>
      </trkpt>
      <trkpt lat="44.97331" lon="3.66309">
        <ele>759.4</ele>
        <time>2019-12-07T08:04:58Z</time>
      </trkpt>
      <trkpt lat="44.97331" lon="3.66309">
        <ele>759.4</ele>
        <time>2019-12-07T08:05:00Z</time>
      </trkpt>
      <trkpt lat="44.97331" lon="3.66318">
        <ele>758.9</ele>
        <time>2019-12-07T08:06:59Z</time>
      </trkpt>
      <trkpt lat="44.97331" lon="3.66324">
        <ele>758.6</ele>
        <time>2019-12-07T08:07:00Z</time>
      </trkpt>
      <trkpt lat="44.97332" lon="3.66331">
        <ele>758</ele>
        <time>2019-12-07T08:07:01Z</time>
      </trkpt>
      <trkpt lat="44.97334" lon="3.66337">
        <ele>758.4</ele>
        <time>2019-12-07T08:07:02Z</time>
      </trkpt>
      <trkpt lat="44.97336" lon="3.66344">
        <ele>758.5</ele>
        <time>2019-12-07T08:07:03Z</time>
      </trkpt>
      <trkpt lat="44.97344" lon="3.66362">
        <ele>758.6</ele>
        <time>2019-12-07T08:07:06Z</time>
      </trkpt>
      <trkpt lat="44.97346" lon="3.6637">
        <ele>758.6</ele>
        <time>2019-12-07T08:07:07Z</time>
      </trkpt>
      <trkpt lat="44.97351" lon="3.66386">
        <ele>758</ele>
        <time>2019-12-07T08:07:09Z</time>
      </trkpt>
      <trkpt lat="44.97352" lon="3.66394">
        <ele>758.3</ele>
        <time>2019-12-07T08:07:10Z</time>
      </trkpt>
      <trkpt lat="44.97359" lon="3.6644">
        <ele>754.7</ele>
        <time>2019-12-07T08:07:15Z</time>
      </trkpt>
      <trkpt lat="44.97362" lon="3.66449">
        <ele>754.4</ele>
        <time>2019-12-07T08:07:16Z</time>
      </trkpt>
      <trkpt lat="44.97366" lon="3.66458">
        <ele>754.3</ele>
        <time>2019-12-07T08:07:17Z</time>
      </trkpt>
      <trkpt lat="44.97383" lon="3.66499">
        <ele>756.9</ele>
        <time>2019-12-07T08:07:22Z</time>
      </trkpt>
      <trkpt lat="44.97386" lon="3.66507">
        <ele>757.6</ele>
        <time>2019-12-07T08:07:23Z</time>
      </trkpt>
      <trkpt lat="44.97388" lon="3.66517">
        <ele>758.4</ele>
        <time>2019-12-07T08:07:24Z</time>
      </trkpt>
      <trkpt lat="44.97389" lon="3.66526">
        <ele>757.7</ele>
        <time>2019-12-07T08:07:25Z</time>
      </trkpt>
      <trkpt lat="44.97391" lon="3.66535">
        <ele>758.4</ele>
        <time>2019-12-07T08:07:26Z</time>
      </trkpt>
      <trkpt lat="44.97394" lon="3.66545">
        <ele>757.1</ele>
        <time>2019-12-07T08:07:27Z</time>
      </trkpt>
      <trkpt lat="44.97397" lon="3.66555">
        <ele>759.5</ele>
        <time>2019-12-07T08:07:28Z</time>
      </trkpt>
      <trkpt lat="44.97402" lon="3.66575">
        <ele>759.7</ele>
        <time>2019-12-07T08:07:30Z</time>
      </trkpt>
      <trkpt lat="44.97405" lon="3.66596">
        <ele>760.2</ele>
        <time>2019-12-07T08:07:32Z</time>
      </trkpt>
      <trkpt lat="44.97406" lon="3.66607">
        <ele>759.9</ele>
        <time>2019-12-07T08:07:33Z</time>
      </trkpt>
      <trkpt lat="44.97405" lon="3.66617">
        <ele>759.6</ele>
        <time>2019-12-07T08:07:34Z</time>
      </trkpt>
      <trkpt lat="44.97404" lon="3.66628">
        <ele>759</ele>
        <time>2019-12-07T08:07:35Z</time>
      </trkpt>
      <trkpt lat="44.97403" lon="3.6664">
        <ele>758.5</ele>
        <time>2019-12-07T08:07:36Z</time>
      </trkpt>
      <trkpt lat="44.97401" lon="3.66662">
        <ele>755.9</ele>
        <time>2019-12-07T08:07:38Z</time>
      </trkpt>
      <trkpt lat="44.974" lon="3.66673">
        <ele>753.8</ele>
        <time>2019-12-07T08:07:39Z</time>
      </trkpt>
      <trkpt lat="44.97397" lon="3.66703">
        <ele>751</ele>
        <time>2019-12-07T08:07:42Z</time>
      </trkpt>
      <trkpt lat="44.97396" lon="3.66718">
        <ele>750.9</ele>
        <time>2019-12-07T08:07:44Z</time>
      </trkpt>
      <trkpt lat="44.97396" lon="3.66733">
        <ele>750.9</ele>
        <time>2019-12-07T08:07:46Z</time>
      </trkpt>
      <trkpt lat="44.97397" lon="3.66747">
        <ele>751.2</ele>
        <time>2019-12-07T08:07:48Z</time>
      </trkpt>
      <trkpt lat="44.97398" lon="3.66754">
        <ele>753.1</ele>
        <time>2019-12-07T08:07:49Z</time>
      </trkpt>
      <trkpt lat="44.97398" lon="3.66761">
        <ele>753.4</ele>
        <time>2019-12-07T08:07:50Z</time>
      </trkpt>
      <trkpt lat="44.97398" lon="3.66768">
        <ele>753.6</ele>
        <time>2019-12-07T08:07:51Z</time>
      </trkpt>
      <trkpt lat="44.97398" lon="3.66775">
        <ele>753.8</ele>
        <time>2019-12-07T08:07:52Z</time>
      </trkpt>
      <trkpt lat="44.97384" lon="3.66826">
        <ele>747.5</ele>
        <time>2019-12-07T08:08:02Z</time>
      </trkpt>
      <trkpt lat="44.97381" lon="3.66832">
        <ele>746.1</ele>
        <time>2019-12-07T08:08:03Z</time>
      </trkpt>
      <trkpt lat="44.97379" lon="3.66837">
        <ele>746.6</ele>
        <time>2019-12-07T08:08:04Z</time>
      </trkpt>
      <trkpt lat="44.97378" lon="3.66843">
        <ele>745.3</ele>
        <time>2019-12-07T08:08:05Z</time>
      </trkpt>
      <trkpt lat="44.97377" lon="3.66849">
        <ele>745.9</ele>
        <time>2019-12-07T08:08:06Z</time>
      </trkpt>
      <trkpt lat="44.97375" lon="3.66856">
        <ele>744.7</ele>
        <time>2019-12-07T08:08:07Z</time>
      </trkpt>
      <trkpt lat="44.97372" lon="3.66862">
        <ele>743.5</ele>
        <time>2019-12-07T08:08:08Z</time>
      </trkpt>
      <trkpt lat="44.97369" lon="3.66868">
        <ele>742.6</ele>
        <time>2019-12-07T08:08:09Z</time>
      </trkpt>
      <trkpt lat="44.97366" lon="3.66875">
        <ele>741.4</ele>
        <time>2019-12-07T08:08:10Z</time>
      </trkpt>
      <trkpt lat="44.97357" lon="3.66892">
        <ele>740</ele>
        <time>2019-12-07T08:08:13Z</time>
      </trkpt>
      <trkpt lat="44.97343" lon="3.66918">
        <ele>737</ele>
        <time>2019-12-07T08:08:17Z</time>
      </trkpt>
      <trkpt lat="44.97325" lon="3.66948">
        <ele>733.1</ele>
        <time>2019-12-07T08:08:21Z</time>
      </trkpt>
      <trkpt lat="44.97321" lon="3.66954">
        <ele>731.4</ele>
        <time>2019-12-07T08:08:22Z</time>
      </trkpt>
      <trkpt lat="44.97315" lon="3.66959">
        <ele>730.8</ele>
        <time>2019-12-07T08:08:23Z</time>
      </trkpt>
      <trkpt lat="44.9731" lon="3.66964">
        <ele>729.3</ele>
        <time>2019-12-07T08:08:24Z</time>
      </trkpt>
      <trkpt lat="44.97305" lon="3.6697">
        <ele>727.9</ele>
        <time>2019-12-07T08:08:25Z</time>
      </trkpt>
      <trkpt lat="44.97301" lon="3.66978">
        <ele>727.3</ele>
        <time>2019-12-07T08:08:26Z</time>
      </trkpt>
      <trkpt lat="44.97298" lon="3.66986">
        <ele>727.1</ele>
        <time>2019-12-07T08:08:27Z</time>
      </trkpt>
      <trkpt lat="44.97292" lon="3.67003">
        <ele>726.7</ele>
        <time>2019-12-07T08:08:29Z</time>
      </trkpt>
      <trkpt lat="44.9729" lon="3.67011">
        <ele>726.4</ele>
        <time>2019-12-07T08:08:30Z</time>
      </trkpt>
      <trkpt lat="44.97289" lon="3.67018">
        <ele>726.7</ele>
        <time>2019-12-07T08:08:31Z</time>
      </trkpt>
      <trkpt lat="44.9729" lon="3.67024">
        <ele>726.9</ele>
        <time>2019-12-07T08:08:32Z</time>
      </trkpt>
      <trkpt lat="44.9729" lon="3.67031">
        <ele>727.1</ele>
        <time>2019-12-07T08:08:33Z</time>
      </trkpt>
      <trkpt lat="44.97291" lon="3.67062">
        <ele>727.8</ele>
        <time>2019-12-07T08:08:37Z</time>
      </trkpt>
      <trkpt lat="44.97291" lon="3.67078">
        <ele>727.3</ele>
        <time>2019-12-07T08:08:39Z</time>
      </trkpt>
      <trkpt lat="44.97293" lon="3.67084">
        <ele>727.1</ele>
        <time>2019-12-07T08:08:40Z</time>
      </trkpt>
      <trkpt lat="44.97297" lon="3.67092">
        <ele>728</ele>
        <time>2019-12-07T08:08:51Z</time>
      </trkpt>
      <trkpt lat="44.97293" lon="3.67085">
        <ele>726.9</ele>
        <time>2019-12-07T08:08:55Z</time>
      </trkpt>
      <trkpt lat="44.97292" lon="3.67083">
        <ele>727.1</ele>
        <time>2019-12-07T08:08:56Z</time>
      </trkpt>
      <trkpt lat="44.97292" lon="3.6708">
        <ele>727.3</ele>
        <time>2019-12-07T08:08:57Z</time>
      </trkpt>
      <trkpt lat="44.97291" lon="3.67078">
        <ele>727.3</ele>
        <time>2019-12-07T08:08:58Z</time>
      </trkpt>
      <trkpt lat="44.9729" lon="3.67076">
        <ele>726.8</ele>
        <time>2019-12-07T08:08:59Z</time>
      </trkpt>
      <trkpt lat="44.9729" lon="3.67073">
        <ele>726.8</ele>
        <time>2019-12-07T08:09:00Z</time>
      </trkpt>
      <trkpt lat="44.97291" lon="3.67071">
        <ele>727.6</ele>
        <time>2019-12-07T08:09:01Z</time>
      </trkpt>
      <trkpt lat="44.97292" lon="3.67069">
        <ele>727.6</ele>
        <time>2019-12-07T08:09:02Z</time>
      </trkpt>
      <trkpt lat="44.97295" lon="3.67074">
        <ele>728.1</ele>
        <time>2019-12-07T08:09:10Z</time>
      </trkpt>
      <trkpt lat="44.97297" lon="3.67077">
        <ele>728.6</ele>
        <time>2019-12-07T08:09:14Z</time>
      </trkpt>
      <trkpt lat="44.973" lon="3.67083">
        <ele>729.2</ele>
        <time>2019-12-07T08:09:21Z</time>
      </trkpt>
      <trkpt lat="44.97306" lon="3.67088">
        <ele>730.6</ele>
        <time>2019-12-07T08:09:28Z</time>
      </trkpt>
      <trkpt lat="44.97313" lon="3.67091">
        <ele>731.9</ele>
        <time>2019-12-07T08:09:35Z</time>
      </trkpt>
      <trkpt lat="44.97314" lon="3.67092">
        <ele>731.9</ele>
        <time>2019-12-07T08:09:36Z</time>
      </trkpt>
      <trkpt lat="44.97317" lon="3.67093">
        <ele>732.6</ele>
        <time>2019-12-07T08:09:39Z</time>
      </trkpt>
      <trkpt lat="44.97327" lon="3.67098">
        <ele>734.4</ele>
        <time>2019-12-07T08:09:52Z</time>
      </trkpt>
      <trkpt lat="44.97328" lon="3.67098">
        <ele>735.2</ele>
        <time>2019-12-07T08:09:53Z</time>
      </trkpt>
      <trkpt lat="44.97333" lon="3.67098">
        <ele>735.6</ele>
        <time>2019-12-07T08:10:00Z</time>
      </trkpt>
      <trkpt lat="44.97334" lon="3.67098">
        <ele>736.8</ele>
        <time>2019-12-07T08:10:02Z</time>
      </trkpt>
      <trkpt lat="44.97339" lon="3.67099">
        <ele>737</ele>
        <time>2019-12-07T08:10:10Z</time>
      </trkpt>
      <trkpt lat="44.9734" lon="3.67099">
        <ele>737.7</ele>
        <time>2019-12-07T08:10:11Z</time>
      </trkpt>
      <trkpt lat="44.97341" lon="3.67099">
        <ele>737.7</ele>
        <time>2019-12-07T08:10:13Z</time>
      </trkpt>
      <trkpt lat="44.97342" lon="3.67098">
        <ele>737.7</ele>
        <time>2019-12-07T08:10:14Z</time>
      </trkpt>
      <trkpt lat="44.97343" lon="3.67096">
        <ele>738.9</ele>
        <time>2019-12-07T08:10:19Z</time>
      </trkpt>
      <trkpt lat="44.97336" lon="3.67061">
        <ele>739.7</ele>
        <time>2019-12-07T08:11:10Z</time>
      </trkpt>
      <trkpt lat="44.97336" lon="3.6706">
        <ele>739.7</ele>
        <time>2019-12-07T08:11:11Z</time>
      </trkpt>
      <trkpt lat="44.97335" lon="3.67059">
        <ele>739.9</ele>
        <time>2019-12-07T08:11:12Z</time>
      </trkpt>
      <trkpt lat="44.97335" lon="3.67057">
        <ele>739.9</ele>
        <time>2019-12-07T08:11:13Z</time>
      </trkpt>
      <trkpt lat="44.97331" lon="3.67039">
        <ele>739.4</ele>
        <time>2019-12-07T08:11:28Z</time>
      </trkpt>
      <trkpt lat="44.97331" lon="3.67035">
        <ele>739.5</ele>
        <time>2019-12-07T08:11:30Z</time>
      </trkpt>
      <trkpt lat="44.97331" lon="3.67033">
        <ele>739.5</ele>
        <time>2019-12-07T08:11:31Z</time>
      </trkpt>
      <trkpt lat="44.97332" lon="3.67032">
        <ele>739.5</ele>
        <time>2019-12-07T08:11:32Z</time>
      </trkpt>
      <trkpt lat="44.97334" lon="3.67031">
        <ele>740.6</ele>
        <time>2019-12-07T08:11:33Z</time>
      </trkpt>
      <trkpt lat="44.97335" lon="3.67032">
        <ele>740.6</ele>
        <time>2019-12-07T08:11:34Z</time>
      </trkpt>
      <trkpt lat="44.97337" lon="3.67033">
        <ele>741.7</ele>
        <time>2019-12-07T08:11:37Z</time>
      </trkpt>
      <trkpt lat="44.97341" lon="3.67037">
        <ele>742.7</ele>
        <time>2019-12-07T08:11:43Z</time>
      </trkpt>
      <trkpt lat="44.97342" lon="3.67037">
        <ele>742.7</ele>
        <time>2019-12-07T08:11:44Z</time>
      </trkpt>
      <trkpt lat="44.97343" lon="3.67038">
        <ele>743.7</ele>
        <time>2019-12-07T08:11:45Z</time>
      </trkpt>
      <trkpt lat="44.97344" lon="3.67038">
        <ele>743.5</ele>
        <time>2019-12-07T08:11:46Z</time>
      </trkpt>
      <trkpt lat="44.97345" lon="3.67039">
        <ele>743.5</ele>
        <time>2019-12-07T08:11:47Z</time>
      </trkpt>
      <trkpt lat="44.97359" lon="3.67047">
        <ele>747.8</ele>
        <time>2019-12-07T08:12:02Z</time>
      </trkpt>
      <trkpt lat="44.97362" lon="3.67048">
        <ele>748.7</ele>
        <time>2019-12-07T08:12:05Z</time>
      </trkpt>
      <trkpt lat="44.97363" lon="3.67048">
        <ele>748.7</ele>
        <time>2019-12-07T08:12:06Z</time>
      </trkpt>
      <trkpt lat="44.97368" lon="3.67048">
        <ele>750.4</ele>
        <time>2019-12-07T08:12:14Z</time>
      </trkpt>
      <trkpt lat="44.9741" lon="3.67033">
        <ele>762.8</ele>
        <time>2019-12-07T08:13:22Z</time>
      </trkpt>
      <trkpt lat="44.97412" lon="3.67033">
        <ele>762.8</ele>
        <time>2019-12-07T08:13:23Z</time>
      </trkpt>
      <trkpt lat="44.97413" lon="3.67032">
        <ele>763.5</ele>
        <time>2019-12-07T08:13:24Z</time>
      </trkpt>
      <trkpt lat="44.97419" lon="3.67028">
        <ele>765.6</ele>
        <time>2019-12-07T08:13:29Z</time>
      </trkpt>
      <trkpt lat="44.97433" lon="3.67022">
        <ele>768.6</ele>
        <time>2019-12-07T08:13:41Z</time>
      </trkpt>
      <trkpt lat="44.97459" lon="3.67019">
        <ele>774.4</ele>
        <time>2019-12-07T08:13:58Z</time>
      </trkpt>
      <trkpt lat="44.97461" lon="3.67018">
        <ele>774.9</ele>
        <time>2019-12-07T08:14:00Z</time>
      </trkpt>
      <trkpt lat="44.97465" lon="3.67017">
        <ele>775.3</ele>
        <time>2019-12-07T08:14:03Z</time>
      </trkpt>
      <trkpt lat="44.97466" lon="3.67017">
        <ele>775.3</ele>
        <time>2019-12-07T08:14:04Z</time>
      </trkpt>
      <trkpt lat="44.97469" lon="3.67016">
        <ele>776.4</ele>
        <time>2019-12-07T08:14:06Z</time>
      </trkpt>
      <trkpt lat="44.97483" lon="3.67013">
        <ele>778.9</ele>
        <time>2019-12-07T08:14:18Z</time>
      </trkpt>
      <trkpt lat="44.97507" lon="3.67009">
        <ele>783.1</ele>
        <time>2019-12-07T08:14:34Z</time>
      </trkpt>
      <trkpt lat="44.97512" lon="3.67008">
        <ele>783.5</ele>
        <time>2019-12-07T08:14:38Z</time>
      </trkpt>
      <trkpt lat="44.97514" lon="3.67008">
        <ele>783.9</ele>
        <time>2019-12-07T08:14:40Z</time>
      </trkpt>
      <trkpt lat="44.97532" lon="3.67011">
        <ele>786.3</ele>
        <time>2019-12-07T08:14:53Z</time>
      </trkpt>
      <trkpt lat="44.97535" lon="3.67012">
        <ele>786.7</ele>
        <time>2019-12-07T08:14:55Z</time>
      </trkpt>
      <trkpt lat="44.97538" lon="3.67012">
        <ele>786.5</ele>
        <time>2019-12-07T08:14:57Z</time>
      </trkpt>
      <trkpt lat="44.9754" lon="3.67013">
        <ele>786.9</ele>
        <time>2019-12-07T08:14:59Z</time>
      </trkpt>
      <trkpt lat="44.97551" lon="3.67014">
        <ele>788.1</ele>
        <time>2019-12-07T08:15:13Z</time>
      </trkpt>
      <trkpt lat="44.97556" lon="3.67014">
        <ele>789</ele>
        <time>2019-12-07T08:15:18Z</time>
      </trkpt>
      <trkpt lat="44.97558" lon="3.67014">
        <ele>789.4</ele>
        <time>2019-12-07T08:15:20Z</time>
      </trkpt>
      <trkpt lat="44.97561" lon="3.67014">
        <ele>789.4</ele>
        <time>2019-12-07T08:15:22Z</time>
      </trkpt>
      <trkpt lat="44.97565" lon="3.67013">
        <ele>790.2</ele>
        <time>2019-12-07T08:15:31Z</time>
      </trkpt>
      <trkpt lat="44.97572" lon="3.67011">
        <ele>791.2</ele>
        <time>2019-12-07T08:15:40Z</time>
      </trkpt>
      <trkpt lat="44.97574" lon="3.67011">
        <ele>791.5</ele>
        <time>2019-12-07T08:15:41Z</time>
      </trkpt>
      <trkpt lat="44.97575" lon="3.67011">
        <ele>791.5</ele>
        <time>2019-12-07T08:15:42Z</time>
      </trkpt>
      <trkpt lat="44.97576" lon="3.67011">
        <ele>791.7</ele>
        <time>2019-12-07T08:15:43Z</time>
      </trkpt>
      <trkpt lat="44.97582" lon="3.67009">
        <ele>792</ele>
        <time>2019-12-07T08:15:47Z</time>
      </trkpt>
      <trkpt lat="44.97584" lon="3.67008">
        <ele>792.3</ele>
        <time>2019-12-07T08:15:49Z</time>
      </trkpt>
      <trkpt lat="44.97585" lon="3.67007">
        <ele>792.6</ele>
        <time>2019-12-07T08:15:50Z</time>
      </trkpt>
      <trkpt lat="44.97586" lon="3.67007">
        <ele>792.9</ele>
        <time>2019-12-07T08:15:51Z</time>
      </trkpt>
      <trkpt lat="44.97587" lon="3.67006">
        <ele>792.9</ele>
        <time>2019-12-07T08:15:52Z</time>
      </trkpt>
      <trkpt lat="44.97588" lon="3.67005">
        <ele>793.2</ele>
        <time>2019-12-07T08:15:53Z</time>
      </trkpt>
      <trkpt lat="44.97606" lon="3.66998">
        <ele>795.2</ele>
        <time>2019-12-07T08:16:08Z</time>
      </trkpt>
      <trkpt lat="44.97611" lon="3.66994">
        <ele>795.8</ele>
        <time>2019-12-07T08:16:14Z</time>
      </trkpt>
      <trkpt lat="44.97612" lon="3.66993">
        <ele>795.8</ele>
        <time>2019-12-07T08:16:15Z</time>
      </trkpt>
      <trkpt lat="44.97618" lon="3.66987">
        <ele>796.7</ele>
        <time>2019-12-07T08:16:22Z</time>
      </trkpt>
      <trkpt lat="44.9762" lon="3.66983">
        <ele>797.4</ele>
        <time>2019-12-07T08:16:25Z</time>
      </trkpt>
      <trkpt lat="44.97621" lon="3.66982">
        <ele>797.4</ele>
        <time>2019-12-07T08:16:26Z</time>
      </trkpt>
      <trkpt lat="44.97622" lon="3.66981">
        <ele>798</ele>
        <time>2019-12-07T08:16:27Z</time>
      </trkpt>
      <trkpt lat="44.97622" lon="3.6698">
        <ele>798</ele>
        <time>2019-12-07T08:16:28Z</time>
      </trkpt>
      <trkpt lat="44.97623" lon="3.66979">
        <ele>798</ele>
        <time>2019-12-07T08:16:29Z</time>
      </trkpt>
      <trkpt lat="44.97624" lon="3.66978">
        <ele>798</ele>
        <time>2019-12-07T08:16:30Z</time>
      </trkpt>
      <trkpt lat="44.97625" lon="3.66977">
        <ele>798.7</ele>
        <time>2019-12-07T08:16:31Z</time>
      </trkpt>
      <trkpt lat="44.97625" lon="3.66977">
        <ele>798.7</ele>
        <time>2019-12-07T08:16:32Z</time>
      </trkpt>
      <trkpt lat="44.97626" lon="3.66975">
        <ele>798.7</ele>
        <time>2019-12-07T08:16:33Z</time>
      </trkpt>
      <trkpt lat="44.97629" lon="3.66966">
        <ele>799.7</ele>
        <time>2019-12-07T08:16:44Z</time>
      </trkpt>
      <trkpt lat="44.97643" lon="3.66933">
        <ele>804.3</ele>
        <time>2019-12-07T08:19:10Z</time>
      </trkpt>
      <trkpt lat="44.97644" lon="3.66932">
        <ele>804.3</ele>
        <time>2019-12-07T08:19:11Z</time>
      </trkpt>
      <trkpt lat="44.97646" lon="3.66931">
        <ele>804.7</ele>
        <time>2019-12-07T08:19:12Z</time>
      </trkpt>
      <trkpt lat="44.97651" lon="3.66927">
        <ele>805.3</ele>
        <time>2019-12-07T08:19:16Z</time>
      </trkpt>
      <trkpt lat="44.97656" lon="3.66924">
        <ele>806.1</ele>
        <time>2019-12-07T08:19:20Z</time>
      </trkpt>
      <trkpt lat="44.97657" lon="3.66924">
        <ele>806.1</ele>
        <time>2019-12-07T08:19:21Z</time>
      </trkpt>
      <trkpt lat="44.97683" lon="3.66911">
        <ele>808.3</ele>
        <time>2019-12-07T08:19:39Z</time>
      </trkpt>
      <trkpt lat="44.97693" lon="3.66906">
        <ele>809.1</ele>
        <time>2019-12-07T08:19:46Z</time>
      </trkpt>
      <trkpt lat="44.97702" lon="3.66899">
        <ele>809.9</ele>
        <time>2019-12-07T08:19:53Z</time>
      </trkpt>
      <trkpt lat="44.9772" lon="3.66889">
        <ele>810.7</ele>
        <time>2019-12-07T08:20:06Z</time>
      </trkpt>
      <trkpt lat="44.97735" lon="3.66876">
        <ele>812.1</ele>
        <time>2019-12-07T08:20:17Z</time>
      </trkpt>
      <trkpt lat="44.97767" lon="3.66855">
        <ele>816</ele>
        <time>2019-12-07T08:20:39Z</time>
      </trkpt>
      <trkpt lat="44.97791" lon="3.66849">
        <ele>819</ele>
        <time>2019-12-07T08:20:53Z</time>
      </trkpt>
      <trkpt lat="44.97816" lon="3.66839">
        <ele>823.6</ele>
        <time>2019-12-07T08:21:12Z</time>
      </trkpt>
      <trkpt lat="44.97857" lon="3.66828">
        <ele>831.7</ele>
        <time>2019-12-07T08:21:41Z</time>
      </trkpt>
      <trkpt lat="44.9788" lon="3.66813">
        <ele>837.4</ele>
        <time>2019-12-07T08:22:01Z</time>
      </trkpt>
      <trkpt lat="44.97896" lon="3.668">
        <ele>842</ele>
        <time>2019-12-07T08:22:16Z</time>
      </trkpt>
      <trkpt lat="44.97912" lon="3.66788">
        <ele>846.1</ele>
        <time>2019-12-07T08:22:31Z</time>
      </trkpt>
      <trkpt lat="44.97931" lon="3.66777">
        <ele>851</ele>
        <time>2019-12-07T08:22:48Z</time>
      </trkpt>
      <trkpt lat="44.97941" lon="3.66772">
        <ele>853.8</ele>
        <time>2019-12-07T08:22:57Z</time>
      </trkpt>
      <trkpt lat="44.97942" lon="3.66772">
        <ele>854.1</ele>
        <time>2019-12-07T08:22:58Z</time>
      </trkpt>
      <trkpt lat="44.97943" lon="3.66772">
        <ele>854.3</ele>
        <time>2019-12-07T08:22:59Z</time>
      </trkpt>
      <trkpt lat="44.97945" lon="3.66771">
        <ele>854.6</ele>
        <time>2019-12-07T08:23:00Z</time>
      </trkpt>
      <trkpt lat="44.97946" lon="3.66771">
        <ele>854.9</ele>
        <time>2019-12-07T08:23:01Z</time>
      </trkpt>
      <trkpt lat="44.97966" lon="3.66764">
        <ele>860.2</ele>
        <time>2019-12-07T08:23:19Z</time>
      </trkpt>
      <trkpt lat="44.97967" lon="3.66764">
        <ele>860.4</ele>
        <time>2019-12-07T08:23:20Z</time>
      </trkpt>
      <trkpt lat="44.97969" lon="3.66765">
        <ele>860.6</ele>
        <time>2019-12-07T08:23:21Z</time>
      </trkpt>
      <trkpt lat="44.9797" lon="3.66766">
        <ele>861</ele>
        <time>2019-12-07T08:23:22Z</time>
      </trkpt>
      <trkpt lat="44.97971" lon="3.66767">
        <ele>861.4</ele>
        <time>2019-12-07T08:23:23Z</time>
      </trkpt>
      <trkpt lat="44.97973" lon="3.66767">
        <ele>861.7</ele>
        <time>2019-12-07T08:23:24Z</time>
      </trkpt>
      <trkpt lat="44.97974" lon="3.66768">
        <ele>862</ele>
        <time>2019-12-07T08:23:25Z</time>
      </trkpt>
      <trkpt lat="44.97975" lon="3.66768">
        <ele>862.4</ele>
        <time>2019-12-07T08:23:26Z</time>
      </trkpt>
      <trkpt lat="44.97976" lon="3.66769">
        <ele>862.7</ele>
        <time>2019-12-07T08:23:27Z</time>
      </trkpt>
      <trkpt lat="44.97978" lon="3.6677">
        <ele>863</ele>
        <time>2019-12-07T08:23:28Z</time>
      </trkpt>
      <trkpt lat="44.97979" lon="3.6677">
        <ele>863.2</ele>
        <time>2019-12-07T08:23:29Z</time>
      </trkpt>
      <trkpt lat="44.97982" lon="3.66771">
        <ele>863.8</ele>
        <time>2019-12-07T08:23:32Z</time>
      </trkpt>
      <trkpt lat="44.97984" lon="3.66771">
        <ele>864.1</ele>
        <time>2019-12-07T08:23:33Z</time>
      </trkpt>
      <trkpt lat="44.98008" lon="3.66776">
        <ele>868.9</ele>
        <time>2019-12-07T08:23:50Z</time>
      </trkpt>
      <trkpt lat="44.98036" lon="3.66784">
        <ele>873.4</ele>
        <time>2019-12-07T08:24:07Z</time>
      </trkpt>
      <trkpt lat="44.9807" lon="3.66781">
        <ele>875.1</ele>
        <time>2019-12-07T08:24:26Z</time>
      </trkpt>
      <trkpt lat="44.98103" lon="3.66784">
        <ele>876.7</ele>
        <time>2019-12-07T08:24:43Z</time>
      </trkpt>
      <trkpt lat="44.98133" lon="3.66786">
        <ele>878.3</ele>
        <time>2019-12-07T08:24:58Z</time>
      </trkpt>
      <trkpt lat="44.98157" lon="3.66788">
        <ele>879.6</ele>
        <time>2019-12-07T08:25:11Z</time>
      </trkpt>
      <trkpt lat="44.98193" lon="3.66802">
        <ele>880.2</ele>
        <time>2019-12-07T08:25:28Z</time>
      </trkpt>
      <trkpt lat="44.98231" lon="3.66813">
        <ele>881.1</ele>
        <time>2019-12-07T08:25:45Z</time>
      </trkpt>
      <trkpt lat="44.98271" lon="3.66822">
        <ele>882.1</ele>
        <time>2019-12-07T08:26:02Z</time>
      </trkpt>
      <trkpt lat="44.9831" lon="3.66836">
        <ele>882</ele>
        <time>2019-12-07T08:26:18Z</time>
      </trkpt>
      <trkpt lat="44.98354" lon="3.66848">
        <ele>880.4</ele>
        <time>2019-12-07T08:26:37Z</time>
      </trkpt>
      <trkpt lat="44.98399" lon="3.66852">
        <ele>878.9</ele>
        <time>2019-12-07T08:26:53Z</time>
      </trkpt>
      <trkpt lat="44.98457" lon="3.66858">
        <ele>877.5</ele>
        <time>2019-12-07T08:27:05Z</time>
      </trkpt>
      <trkpt lat="44.98517" lon="3.66869">
        <ele>876.3</ele>
        <time>2019-12-07T08:27:15Z</time>
      </trkpt>
      <trkpt lat="44.98554" lon="3.66882">
        <ele>875.2</ele>
        <time>2019-12-07T08:27:21Z</time>
      </trkpt>
      <trkpt lat="44.98599" lon="3.6691">
        <ele>874.5</ele>
        <time>2019-12-07T08:27:29Z</time>
      </trkpt>
      <trkpt lat="44.98655" lon="3.6694">
        <ele>874.3</ele>
        <time>2019-12-07T08:27:39Z</time>
      </trkpt>
      <trkpt lat="44.98719" lon="3.66956">
        <ele>874.5</ele>
        <time>2019-12-07T08:27:49Z</time>
      </trkpt>
      <trkpt lat="44.98779" lon="3.66973">
        <ele>874.8</ele>
        <time>2019-12-07T08:27:57Z</time>
      </trkpt>
      <trkpt lat="44.98818" lon="3.6699">
        <ele>875.3</ele>
        <time>2019-12-07T08:28:02Z</time>
      </trkpt>
      <trkpt lat="44.98873" lon="3.67029">
        <ele>875.1</ele>
        <time>2019-12-07T08:28:10Z</time>
      </trkpt>
      <trkpt lat="44.98894" lon="3.67038">
        <ele>874.2</ele>
        <time>2019-12-07T08:28:13Z</time>
      </trkpt>
      <trkpt lat="44.98902" lon="3.67038">
        <ele>873.7</ele>
        <time>2019-12-07T08:28:14Z</time>
      </trkpt>
      <trkpt lat="44.98909" lon="3.67036">
        <ele>873.2</ele>
        <time>2019-12-07T08:28:15Z</time>
      </trkpt>
      <trkpt lat="44.98916" lon="3.67034">
        <ele>872.8</ele>
        <time>2019-12-07T08:28:16Z</time>
      </trkpt>
      <trkpt lat="44.98924" lon="3.67029">
        <ele>872.3</ele>
        <time>2019-12-07T08:28:17Z</time>
      </trkpt>
      <trkpt lat="44.98932" lon="3.67024">
        <ele>872</ele>
        <time>2019-12-07T08:28:18Z</time>
      </trkpt>
      <trkpt lat="44.98969" lon="3.67007">
        <ele>871.3</ele>
        <time>2019-12-07T08:28:23Z</time>
      </trkpt>
      <trkpt lat="44.98976" lon="3.6701">
        <ele>871.2</ele>
        <time>2019-12-07T08:28:24Z</time>
      </trkpt>
      <trkpt lat="44.98981" lon="3.67016">
        <ele>871.1</ele>
        <time>2019-12-07T08:28:25Z</time>
      </trkpt>
      <trkpt lat="44.98984" lon="3.67024">
        <ele>871</ele>
        <time>2019-12-07T08:28:26Z</time>
      </trkpt>
      <trkpt lat="44.98985" lon="3.67032">
        <ele>871</ele>
        <time>2019-12-07T08:28:27Z</time>
      </trkpt>
      <trkpt lat="44.98986" lon="3.6704">
        <ele>871</ele>
        <time>2019-12-07T08:28:28Z</time>
      </trkpt>
      <trkpt lat="44.98985" lon="3.67048">
        <ele>871.1</ele>
        <time>2019-12-07T08:28:29Z</time>
      </trkpt>
      <trkpt lat="44.98985" lon="3.67073">
        <ele>871.7</ele>
        <time>2019-12-07T08:28:33Z</time>
      </trkpt>
      <trkpt lat="44.98986" lon="3.67079">
        <ele>871.9</ele>
        <time>2019-12-07T08:28:34Z</time>
      </trkpt>
      <trkpt lat="44.98987" lon="3.67084">
        <ele>872.2</ele>
        <time>2019-12-07T08:28:35Z</time>
      </trkpt>
      <trkpt lat="44.98989" lon="3.67089">
        <ele>872.4</ele>
        <time>2019-12-07T08:28:36Z</time>
      </trkpt>
      <trkpt lat="44.98991" lon="3.67093">
        <ele>872.6</ele>
        <time>2019-12-07T08:28:37Z</time>
      </trkpt>
      <trkpt lat="44.98994" lon="3.67096">
        <ele>872.8</ele>
        <time>2019-12-07T08:28:38Z</time>
      </trkpt>
      <trkpt lat="44.98997" lon="3.67099">
        <ele>873.1</ele>
        <time>2019-12-07T08:28:39Z</time>
      </trkpt>
      <trkpt lat="44.99008" lon="3.67137">
        <ele>874.7</ele>
        <time>2019-12-07T08:28:48Z</time>
      </trkpt>
      <trkpt lat="44.98976" lon="3.6715">
        <ele>875.4</ele>
        <time>2019-12-07T08:29:00Z</time>
      </trkpt>
      <trkpt lat="44.98957" lon="3.6716">
        <ele>876.7</ele>
        <time>2019-12-07T08:29:08Z</time>
      </trkpt>
      <trkpt lat="44.9893" lon="3.6719">
        <ele>879.8</ele>
        <time>2019-12-07T08:29:22Z</time>
      </trkpt>
      <trkpt lat="44.98903" lon="3.67232">
        <ele>881.5</ele>
        <time>2019-12-07T08:29:39Z</time>
      </trkpt>
      <trkpt lat="44.98886" lon="3.6728">
        <ele>883.7</ele>
        <time>2019-12-07T08:29:55Z</time>
      </trkpt>
      <trkpt lat="44.98887" lon="3.67352">
        <ele>885.7</ele>
        <time>2019-12-07T08:30:17Z</time>
      </trkpt>
      <trkpt lat="44.98889" lon="3.67369">
        <ele>884.5</ele>
        <time>2019-12-07T08:30:23Z</time>
      </trkpt>
      <trkpt lat="44.98889" lon="3.67369">
        <ele>884.4</ele>
        <time>2019-12-07T08:30:29Z</time>
      </trkpt>
      <trkpt lat="44.98893" lon="3.67376">
        <ele>883.7</ele>
        <time>2019-12-07T08:31:58Z</time>
      </trkpt>
      <trkpt lat="44.98894" lon="3.6738">
        <ele>883.4</ele>
        <time>2019-12-07T08:31:59Z</time>
      </trkpt>
      <trkpt lat="44.98901" lon="3.67402">
        <ele>881.4</ele>
        <time>2019-12-07T08:32:04Z</time>
      </trkpt>
      <trkpt lat="44.98922" lon="3.67437">
        <ele>880.4</ele>
        <time>2019-12-07T08:32:10Z</time>
      </trkpt>
      <trkpt lat="44.9894" lon="3.67468">
        <ele>879.9</ele>
        <time>2019-12-07T08:32:14Z</time>
      </trkpt>
      <trkpt lat="44.98959" lon="3.67514">
        <ele>879.7</ele>
        <time>2019-12-07T08:32:19Z</time>
      </trkpt>
      <trkpt lat="44.98962" lon="3.67524">
        <ele>879.7</ele>
        <time>2019-12-07T08:32:20Z</time>
      </trkpt>
      <trkpt lat="44.98963" lon="3.67533">
        <ele>879.7</ele>
        <time>2019-12-07T08:32:21Z</time>
      </trkpt>
      <trkpt lat="44.98966" lon="3.67553">
        <ele>879.8</ele>
        <time>2019-12-07T08:32:23Z</time>
      </trkpt>
      <trkpt lat="44.98969" lon="3.67572">
        <ele>879.9</ele>
        <time>2019-12-07T08:32:25Z</time>
      </trkpt>
      <trkpt lat="44.98971" lon="3.67591">
        <ele>880</ele>
        <time>2019-12-07T08:32:27Z</time>
      </trkpt>
      <trkpt lat="44.98974" lon="3.6762">
        <ele>880.1</ele>
        <time>2019-12-07T08:32:30Z</time>
      </trkpt>
      <trkpt lat="44.98975" lon="3.67629">
        <ele>880.1</ele>
        <time>2019-12-07T08:32:31Z</time>
      </trkpt>
      <trkpt lat="44.98977" lon="3.67648">
        <ele>880.1</ele>
        <time>2019-12-07T08:32:33Z</time>
      </trkpt>
      <trkpt lat="44.98978" lon="3.67658">
        <ele>880</ele>
        <time>2019-12-07T08:32:34Z</time>
      </trkpt>
      <trkpt lat="44.98985" lon="3.67743">
        <ele>878.3</ele>
        <time>2019-12-07T08:32:43Z</time>
      </trkpt>
      <trkpt lat="44.98989" lon="3.6777">
        <ele>877.8</ele>
        <time>2019-12-07T08:32:47Z</time>
      </trkpt>
      <trkpt lat="44.98989" lon="3.67776">
        <ele>877.8</ele>
        <time>2019-12-07T08:32:48Z</time>
      </trkpt>
      <trkpt lat="44.98989" lon="3.67783">
        <ele>877.7</ele>
        <time>2019-12-07T08:32:49Z</time>
      </trkpt>
      <trkpt lat="44.9899" lon="3.67789">
        <ele>877.9</ele>
        <time>2019-12-07T08:32:50Z</time>
      </trkpt>
      <trkpt lat="44.98991" lon="3.67795">
        <ele>878.1</ele>
        <time>2019-12-07T08:32:51Z</time>
      </trkpt>
      <trkpt lat="44.98992" lon="3.67801">
        <ele>878.4</ele>
        <time>2019-12-07T08:32:52Z</time>
      </trkpt>
      <trkpt lat="44.99005" lon="3.67845">
        <ele>880.8</ele>
        <time>2019-12-07T08:32:59Z</time>
      </trkpt>
      <trkpt lat="44.99005" lon="3.67852">
        <ele>881.4</ele>
        <time>2019-12-07T08:33:00Z</time>
      </trkpt>
      <trkpt lat="44.99004" lon="3.6786">
        <ele>881</ele>
        <time>2019-12-07T08:33:01Z</time>
      </trkpt>
      <trkpt lat="44.99001" lon="3.67866">
        <ele>880.5</ele>
        <time>2019-12-07T08:33:02Z</time>
      </trkpt>
      <trkpt lat="44.98998" lon="3.67872">
        <ele>880.1</ele>
        <time>2019-12-07T08:33:03Z</time>
      </trkpt>
      <trkpt lat="44.98995" lon="3.67877">
        <ele>879.7</ele>
        <time>2019-12-07T08:33:04Z</time>
      </trkpt>
      <trkpt lat="44.98992" lon="3.67881">
        <ele>879.3</ele>
        <time>2019-12-07T08:33:05Z</time>
      </trkpt>
      <trkpt lat="44.9898" lon="3.67895">
        <ele>877.8</ele>
        <time>2019-12-07T08:33:09Z</time>
      </trkpt>
      <trkpt lat="44.9897" lon="3.679">
        <ele>876.5</ele>
        <time>2019-12-07T08:33:12Z</time>
      </trkpt>
      <trkpt lat="44.98964" lon="3.67905">
        <ele>875.7</ele>
        <time>2019-12-07T08:33:15Z</time>
      </trkpt>
      <trkpt lat="44.98959" lon="3.67911">
        <ele>875.7</ele>
        <time>2019-12-07T08:33:18Z</time>
      </trkpt>
      <trkpt lat="44.98953" lon="3.6792">
        <ele>874.6</ele>
        <time>2019-12-07T08:33:21Z</time>
      </trkpt>
      <trkpt lat="44.98948" lon="3.67932">
        <ele>873.3</ele>
        <time>2019-12-07T08:33:25Z</time>
      </trkpt>
      <trkpt lat="44.98944" lon="3.67942">
        <ele>872.3</ele>
        <time>2019-12-07T08:33:28Z</time>
      </trkpt>
      <trkpt lat="44.98942" lon="3.67956">
        <ele>871.6</ele>
        <time>2019-12-07T08:33:32Z</time>
      </trkpt>
      <trkpt lat="44.98949" lon="3.67974">
        <ele>873.4</ele>
        <time>2019-12-07T08:33:37Z</time>
      </trkpt>
      <trkpt lat="44.98975" lon="3.6801">
        <ele>878.6</ele>
        <time>2019-12-07T08:33:50Z</time>
      </trkpt>
      <trkpt lat="44.99019" lon="3.68065">
        <ele>884.3</ele>
        <time>2019-12-07T08:34:10Z</time>
      </trkpt>
      <trkpt lat="44.99042" lon="3.68099">
        <ele>888.8</ele>
        <time>2019-12-07T08:34:21Z</time>
      </trkpt>
      <trkpt lat="44.99075" lon="3.68158">
        <ele>886.1</ele>
        <time>2019-12-07T08:34:30Z</time>
      </trkpt>
      <trkpt lat="44.9908" lon="3.68164">
        <ele>886.2</ele>
        <time>2019-12-07T08:34:31Z</time>
      </trkpt>
      <trkpt lat="44.99086" lon="3.68169">
        <ele>886.3</ele>
        <time>2019-12-07T08:34:32Z</time>
      </trkpt>
      <trkpt lat="44.99093" lon="3.68173">
        <ele>886.5</ele>
        <time>2019-12-07T08:34:33Z</time>
      </trkpt>
      <trkpt lat="44.99099" lon="3.68177">
        <ele>886.7</ele>
        <time>2019-12-07T08:34:34Z</time>
      </trkpt>
      <trkpt lat="44.99106" lon="3.68181">
        <ele>886.8</ele>
        <time>2019-12-07T08:34:35Z</time>
      </trkpt>
      <trkpt lat="44.9913" lon="3.68198">
        <ele>887.4</ele>
        <time>2019-12-07T08:34:39Z</time>
      </trkpt>
      <trkpt lat="44.99158" lon="3.68218">
        <ele>888.1</ele>
        <time>2019-12-07T08:34:44Z</time>
      </trkpt>
      <trkpt lat="44.99179" lon="3.68235">
        <ele>888.5</ele>
        <time>2019-12-07T08:34:48Z</time>
      </trkpt>
      <trkpt lat="44.99195" lon="3.68249">
        <ele>888.6</ele>
        <time>2019-12-07T08:34:51Z</time>
      </trkpt>
      <trkpt lat="44.9922" lon="3.68266">
        <ele>888.8</ele>
        <time>2019-12-07T08:34:55Z</time>
      </trkpt>
      <trkpt lat="44.99231" lon="3.68271">
        <ele>888.8</ele>
        <time>2019-12-07T08:34:57Z</time>
      </trkpt>
      <trkpt lat="44.99236" lon="3.68271">
        <ele>888.8</ele>
        <time>2019-12-07T08:34:58Z</time>
      </trkpt>
      <trkpt lat="44.99241" lon="3.6827">
        <ele>888.8</ele>
        <time>2019-12-07T08:34:59Z</time>
      </trkpt>
      <trkpt lat="44.99247" lon="3.68269">
        <ele>888.8</ele>
        <time>2019-12-07T08:35:00Z</time>
      </trkpt>
      <trkpt lat="44.99253" lon="3.68269">
        <ele>888.8</ele>
        <time>2019-12-07T08:35:01Z</time>
      </trkpt>
      <trkpt lat="44.99259" lon="3.68271">
        <ele>889</ele>
        <time>2019-12-07T08:35:02Z</time>
      </trkpt>
      <trkpt lat="44.99263" lon="3.68275">
        <ele>889.3</ele>
        <time>2019-12-07T08:35:03Z</time>
      </trkpt>
      <trkpt lat="44.99268" lon="3.6828">
        <ele>889.7</ele>
        <time>2019-12-07T08:35:04Z</time>
      </trkpt>
      <trkpt lat="44.99271" lon="3.68285">
        <ele>890.2</ele>
        <time>2019-12-07T08:35:05Z</time>
      </trkpt>
      <trkpt lat="44.99274" lon="3.68288">
        <ele>890.5</ele>
        <time>2019-12-07T08:35:06Z</time>
      </trkpt>
      <trkpt lat="44.9928" lon="3.683">
        <ele>892.7</ele>
        <time>2019-12-07T08:35:10Z</time>
      </trkpt>
      <trkpt lat="44.9928" lon="3.68301">
        <ele>892.8</ele>
        <time>2019-12-07T08:35:14Z</time>
      </trkpt>
      <trkpt lat="44.99281" lon="3.68301">
        <ele>893</ele>
        <time>2019-12-07T08:35:15Z</time>
      </trkpt>
      <trkpt lat="44.99283" lon="3.68304">
        <ele>893.6</ele>
        <time>2019-12-07T08:35:19Z</time>
      </trkpt>
      <trkpt lat="44.99284" lon="3.68306">
        <ele>894</ele>
        <time>2019-12-07T08:35:25Z</time>
      </trkpt>
      <trkpt lat="44.99293" lon="3.68325">
        <ele>897.2</ele>
        <time>2019-12-07T08:35:50Z</time>
      </trkpt>
      <trkpt lat="44.99294" lon="3.68327">
        <ele>897.4</ele>
        <time>2019-12-07T08:35:51Z</time>
      </trkpt>
      <trkpt lat="44.99294" lon="3.68328">
        <ele>897.6</ele>
        <time>2019-12-07T08:35:52Z</time>
      </trkpt>
      <trkpt lat="44.99298" lon="3.68339">
        <ele>898.8</ele>
        <time>2019-12-07T08:35:57Z</time>
      </trkpt>
      <trkpt lat="44.99299" lon="3.68364">
        <ele>899.7</ele>
        <time>2019-12-07T08:36:08Z</time>
      </trkpt>
      <trkpt lat="44.99294" lon="3.68369">
        <ele>899.7</ele>
        <time>2019-12-07T08:36:16Z</time>
      </trkpt>
      <trkpt lat="44.99292" lon="3.68368">
        <ele>899.7</ele>
        <time>2019-12-07T08:36:21Z</time>
      </trkpt>
      <trkpt lat="44.9925" lon="3.68359">
        <ele>907</ele>
        <time>2019-12-07T08:37:20Z</time>
      </trkpt>
      <trkpt lat="44.99249" lon="3.68359">
        <ele>907.3</ele>
        <time>2019-12-07T08:37:21Z</time>
      </trkpt>
      <trkpt lat="44.99248" lon="3.68359">
        <ele>907.4</ele>
        <time>2019-12-07T08:37:22Z</time>
      </trkpt>
      <trkpt lat="44.99247" lon="3.68359">
        <ele>907.8</ele>
        <time>2019-12-07T08:37:24Z</time>
      </trkpt>
      <trkpt lat="44.99246" lon="3.68359">
        <ele>908</ele>
        <time>2019-12-07T08:37:25Z</time>
      </trkpt>
      <trkpt lat="44.99235" lon="3.68365">
        <ele>911.1</ele>
        <time>2019-12-07T08:37:44Z</time>
      </trkpt>
      <trkpt lat="44.99235" lon="3.68366">
        <ele>911.3</ele>
        <time>2019-12-07T08:37:45Z</time>
      </trkpt>
      <trkpt lat="44.99233" lon="3.68402">
        <ele>919.7</ele>
        <time>2019-12-07T08:39:03Z</time>
      </trkpt>
      <trkpt lat="44.99231" lon="3.68401">
        <ele>920.3</ele>
        <time>2019-12-07T08:39:04Z</time>
      </trkpt>
      <trkpt lat="44.9923" lon="3.68401">
        <ele>920.8</ele>
        <time>2019-12-07T08:39:05Z</time>
      </trkpt>
      <trkpt lat="44.99229" lon="3.68401">
        <ele>921.1</ele>
        <time>2019-12-07T08:39:06Z</time>
      </trkpt>
      <trkpt lat="44.99228" lon="3.68401">
        <ele>921.3</ele>
        <time>2019-12-07T08:39:07Z</time>
      </trkpt>
      <trkpt lat="44.99227" lon="3.68411">
        <ele>923.3</ele>
        <time>2019-12-07T08:39:17Z</time>
      </trkpt>
      <trkpt lat="44.99226" lon="3.68413">
        <ele>923.6</ele>
        <time>2019-12-07T08:39:19Z</time>
      </trkpt>
      <trkpt lat="44.99233" lon="3.6843">
        <ele>927.2</ele>
        <time>2019-12-07T08:39:39Z</time>
      </trkpt>
      <trkpt lat="44.99236" lon="3.68436">
        <ele>928.4</ele>
        <time>2019-12-07T08:39:48Z</time>
      </trkpt>
      <trkpt lat="44.99236" lon="3.68437">
        <ele>928.5</ele>
        <time>2019-12-07T08:39:49Z</time>
      </trkpt>
      <trkpt lat="44.99236" lon="3.68437">
        <ele>928.6</ele>
        <time>2019-12-07T08:39:50Z</time>
      </trkpt>
      <trkpt lat="44.99234" lon="3.68438">
        <ele>929</ele>
        <time>2019-12-07T08:39:53Z</time>
      </trkpt>
      <trkpt lat="44.99234" lon="3.68439">
        <ele>929.2</ele>
        <time>2019-12-07T08:39:55Z</time>
      </trkpt>
      <trkpt lat="44.99233" lon="3.68439">
        <ele>929.4</ele>
        <time>2019-12-07T08:39:57Z</time>
      </trkpt>
      <trkpt lat="44.9923" lon="3.68443">
        <ele>930.3</ele>
        <time>2019-12-07T08:40:06Z</time>
      </trkpt>
      <trkpt lat="44.99208" lon="3.68531">
        <ele>937.5</ele>
        <time>2019-12-07T08:41:36Z</time>
      </trkpt>
      <trkpt lat="44.99208" lon="3.68531">
        <ele>937.6</ele>
        <time>2019-12-07T08:41:37Z</time>
      </trkpt>
      <trkpt lat="44.99208" lon="3.68532">
        <ele>937.6</ele>
        <time>2019-12-07T08:41:38Z</time>
      </trkpt>
      <trkpt lat="44.99205" lon="3.68538">
        <ele>938.1</ele>
        <time>2019-12-07T08:41:44Z</time>
      </trkpt>
      <trkpt lat="44.99205" lon="3.68539">
        <ele>938.2</ele>
        <time>2019-12-07T08:41:45Z</time>
      </trkpt>
      <trkpt lat="44.99204" lon="3.68544">
        <ele>938.6</ele>
        <time>2019-12-07T08:41:50Z</time>
      </trkpt>
      <trkpt lat="44.99203" lon="3.68544">
        <ele>938.6</ele>
        <time>2019-12-07T08:41:51Z</time>
      </trkpt>
      <trkpt lat="44.99203" lon="3.68545">
        <ele>938.7</ele>
        <time>2019-12-07T08:41:52Z</time>
      </trkpt>
      <trkpt lat="44.99201" lon="3.68549">
        <ele>939.1</ele>
        <time>2019-12-07T08:41:57Z</time>
      </trkpt>
      <trkpt lat="44.99196" lon="3.68559">
        <ele>940.1</ele>
        <time>2019-12-07T08:42:12Z</time>
      </trkpt>
      <trkpt lat="44.99195" lon="3.68562">
        <ele>940.4</ele>
        <time>2019-12-07T08:42:16Z</time>
      </trkpt>
      <trkpt lat="44.99194" lon="3.68563">
        <ele>940.5</ele>
        <time>2019-12-07T08:42:19Z</time>
      </trkpt>
      <trkpt lat="44.99157" lon="3.68585">
        <ele>945.3</ele>
        <time>2019-12-07T08:43:17Z</time>
      </trkpt>
      <trkpt lat="44.99156" lon="3.68585">
        <ele>945.3</ele>
        <time>2019-12-07T08:43:18Z</time>
      </trkpt>
      <trkpt lat="44.99156" lon="3.68585">
        <ele>945.3</ele>
        <time>2019-12-07T08:43:19Z</time>
      </trkpt>
      <trkpt lat="44.99155" lon="3.68586">
        <ele>945.4</ele>
        <time>2019-12-07T08:43:21Z</time>
      </trkpt>
      <trkpt lat="44.99151" lon="3.68587">
        <ele>945.5</ele>
        <time>2019-12-07T08:43:25Z</time>
      </trkpt>
      <trkpt lat="44.99151" lon="3.68587">
        <ele>945.6</ele>
        <time>2019-12-07T08:43:26Z</time>
      </trkpt>
      <trkpt lat="44.99149" lon="3.68587">
        <ele>945.6</ele>
        <time>2019-12-07T08:43:28Z</time>
      </trkpt>
      <trkpt lat="44.99149" lon="3.68587">
        <ele>945.6</ele>
        <time>2019-12-07T08:43:32Z</time>
      </trkpt>
      <trkpt lat="44.99139" lon="3.68585">
        <ele>946</ele>
        <time>2019-12-07T08:44:42Z</time>
      </trkpt>
      <trkpt lat="44.99138" lon="3.68584">
        <ele>946</ele>
        <time>2019-12-07T08:44:43Z</time>
      </trkpt>
      <trkpt lat="44.99137" lon="3.68583">
        <ele>946.1</ele>
        <time>2019-12-07T08:44:44Z</time>
      </trkpt>
      <trkpt lat="44.99121" lon="3.6857">
        <ele>946.6</ele>
        <time>2019-12-07T08:44:54Z</time>
      </trkpt>
      <trkpt lat="44.99111" lon="3.68564">
        <ele>947.1</ele>
        <time>2019-12-07T08:45:00Z</time>
      </trkpt>
      <trkpt lat="44.99103" lon="3.68558">
        <ele>947.6</ele>
        <time>2019-12-07T08:45:05Z</time>
      </trkpt>
      <trkpt lat="44.99091" lon="3.6855">
        <ele>948.2</ele>
        <time>2019-12-07T08:45:12Z</time>
      </trkpt>
      <trkpt lat="44.99074" lon="3.68535">
        <ele>948.7</ele>
        <time>2019-12-07T08:45:21Z</time>
      </trkpt>
      <trkpt lat="44.99066" lon="3.68527">
        <ele>949</ele>
        <time>2019-12-07T08:45:26Z</time>
      </trkpt>
      <trkpt lat="44.99046" lon="3.68508">
        <ele>950.1</ele>
        <time>2019-12-07T08:45:38Z</time>
      </trkpt>
      <trkpt lat="44.99031" lon="3.68488">
        <ele>951.1</ele>
        <time>2019-12-07T08:45:49Z</time>
      </trkpt>
      <trkpt lat="44.99016" lon="3.68488">
        <ele>952.1</ele>
        <time>2019-12-07T08:45:59Z</time>
      </trkpt>
      <trkpt lat="44.98999" lon="3.685">
        <ele>954.4</ele>
        <time>2019-12-07T08:46:13Z</time>
      </trkpt>
      <trkpt lat="44.98985" lon="3.68509">
        <ele>957</ele>
        <time>2019-12-07T08:46:24Z</time>
      </trkpt>
      <trkpt lat="44.98982" lon="3.68511">
        <ele>957.5</ele>
        <time>2019-12-07T08:46:27Z</time>
      </trkpt>
      <trkpt lat="44.98968" lon="3.6852">
        <ele>960.1</ele>
        <time>2019-12-07T08:46:40Z</time>
      </trkpt>
      <trkpt lat="44.98954" lon="3.68531">
        <ele>963</ele>
        <time>2019-12-07T08:46:55Z</time>
      </trkpt>
      <trkpt lat="44.9895" lon="3.68531">
        <ele>963.5</ele>
        <time>2019-12-07T08:46:59Z</time>
      </trkpt>
      <trkpt lat="44.98949" lon="3.68531">
        <ele>963.6</ele>
        <time>2019-12-07T08:47:00Z</time>
      </trkpt>
      <trkpt lat="44.98948" lon="3.68531">
        <ele>963.8</ele>
        <time>2019-12-07T08:47:01Z</time>
      </trkpt>
      <trkpt lat="44.98947" lon="3.6853">
        <ele>963.9</ele>
        <time>2019-12-07T08:47:02Z</time>
      </trkpt>
      <trkpt lat="44.98946" lon="3.6853">
        <ele>964.1</ele>
        <time>2019-12-07T08:47:03Z</time>
      </trkpt>
      <trkpt lat="44.98942" lon="3.68527">
        <ele>964.8</ele>
        <time>2019-12-07T08:47:08Z</time>
      </trkpt>
      <trkpt lat="44.98941" lon="3.68526">
        <ele>964.9</ele>
        <time>2019-12-07T08:47:09Z</time>
      </trkpt>
      <trkpt lat="44.9894" lon="3.68526">
        <ele>965</ele>
        <time>2019-12-07T08:47:10Z</time>
      </trkpt>
      <trkpt lat="44.98934" lon="3.68523">
        <ele>965.8</ele>
        <time>2019-12-07T08:47:17Z</time>
      </trkpt>
      <trkpt lat="44.98933" lon="3.68523">
        <ele>966</ele>
        <time>2019-12-07T08:47:18Z</time>
      </trkpt>
      <trkpt lat="44.98932" lon="3.68523">
        <ele>966.1</ele>
        <time>2019-12-07T08:47:19Z</time>
      </trkpt>
      <trkpt lat="44.98931" lon="3.68523">
        <ele>966.2</ele>
        <time>2019-12-07T08:47:20Z</time>
      </trkpt>
      <trkpt lat="44.9893" lon="3.68523">
        <ele>966.3</ele>
        <time>2019-12-07T08:47:21Z</time>
      </trkpt>
      <trkpt lat="44.98911" lon="3.68531">
        <ele>968.8</ele>
        <time>2019-12-07T08:47:38Z</time>
      </trkpt>
      <trkpt lat="44.98899" lon="3.68544">
        <ele>971.6</ele>
        <time>2019-12-07T08:47:52Z</time>
      </trkpt>
      <trkpt lat="44.98896" lon="3.68547">
        <ele>972.1</ele>
        <time>2019-12-07T08:47:55Z</time>
      </trkpt>
      <trkpt lat="44.98896" lon="3.68548">
        <ele>972.3</ele>
        <time>2019-12-07T08:47:56Z</time>
      </trkpt>
      <trkpt lat="44.98886" lon="3.6856">
        <ele>975</ele>
        <time>2019-12-07T08:48:09Z</time>
      </trkpt>
      <trkpt lat="44.98885" lon="3.68561">
        <ele>975.3</ele>
        <time>2019-12-07T08:48:10Z</time>
      </trkpt>
      <trkpt lat="44.98884" lon="3.68561">
        <ele>975.5</ele>
        <time>2019-12-07T08:48:11Z</time>
      </trkpt>
      <trkpt lat="44.98883" lon="3.68562">
        <ele>975.7</ele>
        <time>2019-12-07T08:48:12Z</time>
      </trkpt>
      <trkpt lat="44.98883" lon="3.68563">
        <ele>975.9</ele>
        <time>2019-12-07T08:48:13Z</time>
      </trkpt>
      <trkpt lat="44.98878" lon="3.68567">
        <ele>976.9</ele>
        <time>2019-12-07T08:48:18Z</time>
      </trkpt>
      <trkpt lat="44.98878" lon="3.68568">
        <ele>977.1</ele>
        <time>2019-12-07T08:48:19Z</time>
      </trkpt>
      <trkpt lat="44.98877" lon="3.68569">
        <ele>977.3</ele>
        <time>2019-12-07T08:48:20Z</time>
      </trkpt>
      <trkpt lat="44.98876" lon="3.6857">
        <ele>977.5</ele>
        <time>2019-12-07T08:48:21Z</time>
      </trkpt>
      <trkpt lat="44.98875" lon="3.68571">
        <ele>977.7</ele>
        <time>2019-12-07T08:48:22Z</time>
      </trkpt>
      <trkpt lat="44.98874" lon="3.68572">
        <ele>978</ele>
        <time>2019-12-07T08:48:23Z</time>
      </trkpt>
      <trkpt lat="44.98863" lon="3.68583">
        <ele>981.1</ele>
        <time>2019-12-07T08:48:36Z</time>
      </trkpt>
      <trkpt lat="44.9886" lon="3.68585">
        <ele>981.7</ele>
        <time>2019-12-07T08:48:39Z</time>
      </trkpt>
      <trkpt lat="44.9886" lon="3.68585">
        <ele>981.9</ele>
        <time>2019-12-07T08:48:40Z</time>
      </trkpt>
      <trkpt lat="44.98844" lon="3.68598">
        <ele>985.8</ele>
        <time>2019-12-07T08:48:57Z</time>
      </trkpt>
      <trkpt lat="44.98829" lon="3.68609">
        <ele>989.2</ele>
        <time>2019-12-07T08:49:13Z</time>
      </trkpt>
      <trkpt lat="44.98811" lon="3.68624">
        <ele>992.5</ele>
        <time>2019-12-07T08:49:30Z</time>
      </trkpt>
      <trkpt lat="44.98795" lon="3.68648">
        <ele>996.1</ele>
        <time>2019-12-07T08:49:47Z</time>
      </trkpt>
      <trkpt lat="44.9878" lon="3.6868">
        <ele>998.9</ele>
        <time>2019-12-07T08:50:07Z</time>
      </trkpt>
      <trkpt lat="44.98759" lon="3.68706">
        <ele>1001.5</ele>
        <time>2019-12-07T08:50:25Z</time>
      </trkpt>
      <trkpt lat="44.9874" lon="3.68733">
        <ele>1005.3</ele>
        <time>2019-12-07T08:50:43Z</time>
      </trkpt>
      <trkpt lat="44.98731" lon="3.68762">
        <ele>1007.9</ele>
        <time>2019-12-07T08:50:57Z</time>
      </trkpt>
      <trkpt lat="44.98734" lon="3.68836">
        <ele>1013.1</ele>
        <time>2019-12-07T08:51:25Z</time>
      </trkpt>
      <trkpt lat="44.98734" lon="3.68873">
        <ele>1015.3</ele>
        <time>2019-12-07T08:51:38Z</time>
      </trkpt>
      <trkpt lat="44.98732" lon="3.68935">
        <ele>1018.5</ele>
        <time>2019-12-07T08:52:00Z</time>
      </trkpt>
      <trkpt lat="44.98733" lon="3.69005">
        <ele>1021.8</ele>
        <time>2019-12-07T08:52:23Z</time>
      </trkpt>
      <trkpt lat="44.9873" lon="3.69085">
        <ele>1025.1</ele>
        <time>2019-12-07T08:52:44Z</time>
      </trkpt>
      <trkpt lat="44.98728" lon="3.69134">
        <ele>1026</ele>
        <time>2019-12-07T08:52:57Z</time>
      </trkpt>
      <trkpt lat="44.98721" lon="3.69186">
        <ele>1025.7</ele>
        <time>2019-12-07T08:53:08Z</time>
      </trkpt>
      <trkpt lat="44.98725" lon="3.69255">
        <ele>1027</ele>
        <time>2019-12-07T08:53:24Z</time>
      </trkpt>
      <trkpt lat="44.98737" lon="3.69332">
        <ele>1028.6</ele>
        <time>2019-12-07T08:53:44Z</time>
      </trkpt>
      <trkpt lat="44.98752" lon="3.69408">
        <ele>1031.6</ele>
        <time>2019-12-07T08:54:06Z</time>
      </trkpt>
      <trkpt lat="44.98767" lon="3.6946">
        <ele>1035.3</ele>
        <time>2019-12-07T08:54:23Z</time>
      </trkpt>
      <trkpt lat="44.98777" lon="3.69491">
        <ele>1036.9</ele>
        <time>2019-12-07T08:54:32Z</time>
      </trkpt>
      <trkpt lat="44.98786" lon="3.69545">
        <ele>1038.6</ele>
        <time>2019-12-07T08:54:47Z</time>
      </trkpt>
      <trkpt lat="44.98785" lon="3.69608">
        <ele>1041.2</ele>
        <time>2019-12-07T08:55:04Z</time>
      </trkpt>
      <trkpt lat="44.98783" lon="3.69667">
        <ele>1043.6</ele>
        <time>2019-12-07T08:55:19Z</time>
      </trkpt>
      <trkpt lat="44.98781" lon="3.6972">
        <ele>1046.4</ele>
        <time>2019-12-07T08:55:34Z</time>
      </trkpt>
      <trkpt lat="44.98779" lon="3.6977">
        <ele>1050.2</ele>
        <time>2019-12-07T08:55:49Z</time>
      </trkpt>
      <trkpt lat="44.9878" lon="3.69807">
        <ele>1054.7</ele>
        <time>2019-12-07T08:56:02Z</time>
      </trkpt>
      <trkpt lat="44.9878" lon="3.69809">
        <ele>1054.8</ele>
        <time>2019-12-07T08:56:03Z</time>
      </trkpt>
      <trkpt lat="44.9878" lon="3.6981">
        <ele>1054.9</ele>
        <time>2019-12-07T08:56:04Z</time>
      </trkpt>
      <trkpt lat="44.98781" lon="3.69811">
        <ele>1054.9</ele>
        <time>2019-12-07T08:56:05Z</time>
      </trkpt>
      <trkpt lat="44.98781" lon="3.69812">
        <ele>1055</ele>
        <time>2019-12-07T08:56:06Z</time>
      </trkpt>
      <trkpt lat="44.98782" lon="3.69813">
        <ele>1055.1</ele>
        <time>2019-12-07T08:56:07Z</time>
      </trkpt>
      <trkpt lat="44.98783" lon="3.69814">
        <ele>1055.2</ele>
        <time>2019-12-07T08:56:08Z</time>
      </trkpt>
      <trkpt lat="44.98784" lon="3.69815">
        <ele>1055.2</ele>
        <time>2019-12-07T08:56:09Z</time>
      </trkpt>
      <trkpt lat="44.98787" lon="3.69817">
        <ele>1055.5</ele>
        <time>2019-12-07T08:56:17Z</time>
      </trkpt>
      <trkpt lat="44.98793" lon="3.69805">
        <ele>1055.9</ele>
        <time>2019-12-07T08:59:07Z</time>
      </trkpt>
      <trkpt lat="44.98793" lon="3.69804">
        <ele>1056</ele>
        <time>2019-12-07T08:59:08Z</time>
      </trkpt>
      <trkpt lat="44.98793" lon="3.69805">
        <ele>1056</ele>
        <time>2019-12-07T08:59:13Z</time>
      </trkpt>
      <trkpt lat="44.98794" lon="3.6982">
        <ele>1057.3</ele>
        <time>2019-12-07T09:01:46Z</time>
      </trkpt>
      <trkpt lat="44.98795" lon="3.69822">
        <ele>1057.4</ele>
        <time>2019-12-07T09:01:47Z</time>
      </trkpt>
      <trkpt lat="44.98796" lon="3.69824">
        <ele>1057.6</ele>
        <time>2019-12-07T09:01:48Z</time>
      </trkpt>
      <trkpt lat="44.98796" lon="3.69826">
        <ele>1057.8</ele>
        <time>2019-12-07T09:01:49Z</time>
      </trkpt>
      <trkpt lat="44.98798" lon="3.69828">
        <ele>1058</ele>
        <time>2019-12-07T09:01:50Z</time>
      </trkpt>
      <trkpt lat="44.98799" lon="3.69829">
        <ele>1058.1</ele>
        <time>2019-12-07T09:01:51Z</time>
      </trkpt>
      <trkpt lat="44.98801" lon="3.69831">
        <ele>1058.3</ele>
        <time>2019-12-07T09:01:52Z</time>
      </trkpt>
      <trkpt lat="44.98812" lon="3.69839">
        <ele>1059.2</ele>
        <time>2019-12-07T09:01:58Z</time>
      </trkpt>
      <trkpt lat="44.98827" lon="3.69851">
        <ele>1060.2</ele>
        <time>2019-12-07T09:02:06Z</time>
      </trkpt>
      <trkpt lat="44.98838" lon="3.69861">
        <ele>1061.2</ele>
        <time>2019-12-07T09:02:12Z</time>
      </trkpt>
      <trkpt lat="44.98846" lon="3.69869">
        <ele>1062.2</ele>
        <time>2019-12-07T09:02:17Z</time>
      </trkpt>
      <trkpt lat="44.98851" lon="3.69874">
        <ele>1062.8</ele>
        <time>2019-12-07T09:02:20Z</time>
      </trkpt>
      <trkpt lat="44.98859" lon="3.69883">
        <ele>1064</ele>
        <time>2019-12-07T09:02:25Z</time>
      </trkpt>
      <trkpt lat="44.98865" lon="3.6989">
        <ele>1064.8</ele>
        <time>2019-12-07T09:02:29Z</time>
      </trkpt>
      <trkpt lat="44.98875" lon="3.69901">
        <ele>1066.6</ele>
        <time>2019-12-07T09:02:36Z</time>
      </trkpt>
      <trkpt lat="44.98877" lon="3.69903">
        <ele>1066.9</ele>
        <time>2019-12-07T09:02:37Z</time>
      </trkpt>
      <trkpt lat="44.9888" lon="3.69906">
        <ele>1067.3</ele>
        <time>2019-12-07T09:02:39Z</time>
      </trkpt>
      <trkpt lat="44.98887" lon="3.69918">
        <ele>1068.3</ele>
        <time>2019-12-07T09:02:45Z</time>
      </trkpt>
      <trkpt lat="44.98905" lon="3.69953">
        <ele>1070.3</ele>
        <time>2019-12-07T09:03:01Z</time>
      </trkpt>
      <trkpt lat="44.98928" lon="3.69987">
        <ele>1072.5</ele>
        <time>2019-12-07T09:03:18Z</time>
      </trkpt>
      <trkpt lat="44.98954" lon="3.70042">
        <ele>1075.8</ele>
        <time>2019-12-07T09:03:41Z</time>
      </trkpt>
      <trkpt lat="44.98956" lon="3.70047">
        <ele>1076</ele>
        <time>2019-12-07T09:03:43Z</time>
      </trkpt>
      <trkpt lat="44.98958" lon="3.70052">
        <ele>1076.3</ele>
        <time>2019-12-07T09:03:45Z</time>
      </trkpt>
      <trkpt lat="44.98961" lon="3.70059">
        <ele>1076.8</ele>
        <time>2019-12-07T09:03:48Z</time>
      </trkpt>
      <trkpt lat="44.98981" lon="3.70098">
        <ele>1079</ele>
        <time>2019-12-07T09:04:05Z</time>
      </trkpt>
      <trkpt lat="44.98988" lon="3.70114">
        <ele>1079.9</ele>
        <time>2019-12-07T09:04:12Z</time>
      </trkpt>
      <trkpt lat="44.9901" lon="3.70163">
        <ele>1083.3</ele>
        <time>2019-12-07T09:04:33Z</time>
      </trkpt>
      <trkpt lat="44.99031" lon="3.70209">
        <ele>1087.2</ele>
        <time>2019-12-07T09:04:52Z</time>
      </trkpt>
      <trkpt lat="44.9905" lon="3.70245">
        <ele>1090.6</ele>
        <time>2019-12-07T09:05:09Z</time>
      </trkpt>
      <trkpt lat="44.99054" lon="3.70279">
        <ele>1092.9</ele>
        <time>2019-12-07T09:05:23Z</time>
      </trkpt>
      <trkpt lat="44.99043" lon="3.70324">
        <ele>1096</ele>
        <time>2019-12-07T09:05:43Z</time>
      </trkpt>
      <trkpt lat="44.99041" lon="3.70335">
        <ele>1096.8</ele>
        <time>2019-12-07T09:05:47Z</time>
      </trkpt>
      <trkpt lat="44.99048" lon="3.7038">
        <ele>1099.9</ele>
        <time>2019-12-07T09:06:06Z</time>
      </trkpt>
      <trkpt lat="44.99052" lon="3.70391">
        <ele>1100.8</ele>
        <time>2019-12-07T09:06:11Z</time>
      </trkpt>
      <trkpt lat="44.99063" lon="3.70424">
        <ele>1104</ele>
        <time>2019-12-07T09:06:27Z</time>
      </trkpt>
      <trkpt lat="44.99067" lon="3.70439">
        <ele>1105</ele>
        <time>2019-12-07T09:06:34Z</time>
      </trkpt>
      <trkpt lat="44.9907" lon="3.70451">
        <ele>1105.6</ele>
        <time>2019-12-07T09:06:39Z</time>
      </trkpt>
      <trkpt lat="44.99074" lon="3.70481">
        <ele>1107.8</ele>
        <time>2019-12-07T09:06:52Z</time>
      </trkpt>
      <trkpt lat="44.99077" lon="3.7051">
        <ele>1110.7</ele>
        <time>2019-12-07T09:07:06Z</time>
      </trkpt>
      <trkpt lat="44.99077" lon="3.7052">
        <ele>1111.8</ele>
        <time>2019-12-07T09:07:11Z</time>
      </trkpt>
      <trkpt lat="44.9908" lon="3.70551">
        <ele>1115</ele>
        <time>2019-12-07T09:07:28Z</time>
      </trkpt>
      <trkpt lat="44.99084" lon="3.7058">
        <ele>1117.8</ele>
        <time>2019-12-07T09:07:44Z</time>
      </trkpt>
      <trkpt lat="44.99091" lon="3.70612">
        <ele>1121.6</ele>
        <time>2019-12-07T09:08:00Z</time>
      </trkpt>
      <trkpt lat="44.99098" lon="3.70636">
        <ele>1124.7</ele>
        <time>2019-12-07T09:08:13Z</time>
      </trkpt>
      <trkpt lat="44.99104" lon="3.7065">
        <ele>1126.1</ele>
        <time>2019-12-07T09:08:21Z</time>
      </trkpt>
      <trkpt lat="44.99107" lon="3.70656">
        <ele>1126.1</ele>
        <time>2019-12-07T09:08:25Z</time>
      </trkpt>
      <trkpt lat="44.99133" lon="3.70692">
        <ele>1128</ele>
        <time>2019-12-07T09:08:48Z</time>
      </trkpt>
      <trkpt lat="44.99141" lon="3.70698">
        <ele>1129</ele>
        <time>2019-12-07T09:08:53Z</time>
      </trkpt>
      <trkpt lat="44.99148" lon="3.70705">
        <ele>1129.9</ele>
        <time>2019-12-07T09:08:58Z</time>
      </trkpt>
      <trkpt lat="44.99152" lon="3.70708">
        <ele>1130.5</ele>
        <time>2019-12-07T09:09:01Z</time>
      </trkpt>
      <trkpt lat="44.99155" lon="3.70711">
        <ele>1131</ele>
        <time>2019-12-07T09:09:03Z</time>
      </trkpt>
      <trkpt lat="44.99167" lon="3.7072">
        <ele>1133.4</ele>
        <time>2019-12-07T09:09:11Z</time>
      </trkpt>
      <trkpt lat="44.9918" lon="3.70732">
        <ele>1135.8</ele>
        <time>2019-12-07T09:09:20Z</time>
      </trkpt>
      <trkpt lat="44.99187" lon="3.70739">
        <ele>1137.3</ele>
        <time>2019-12-07T09:09:25Z</time>
      </trkpt>
      <trkpt lat="44.99212" lon="3.70762">
        <ele>1140</ele>
        <time>2019-12-07T09:09:42Z</time>
      </trkpt>
      <trkpt lat="44.99219" lon="3.7077">
        <ele>1140.8</ele>
        <time>2019-12-07T09:09:47Z</time>
      </trkpt>
      <trkpt lat="44.99224" lon="3.70776">
        <ele>1141.5</ele>
        <time>2019-12-07T09:09:51Z</time>
      </trkpt>
      <trkpt lat="44.99238" lon="3.70795">
        <ele>1142.7</ele>
        <time>2019-12-07T09:10:02Z</time>
      </trkpt>
      <trkpt lat="44.9925" lon="3.70812">
        <ele>1143.9</ele>
        <time>2019-12-07T09:10:12Z</time>
      </trkpt>
      <trkpt lat="44.99252" lon="3.70816">
        <ele>1144.1</ele>
        <time>2019-12-07T09:10:14Z</time>
      </trkpt>
      <trkpt lat="44.99259" lon="3.70825">
        <ele>1144.7</ele>
        <time>2019-12-07T09:10:19Z</time>
      </trkpt>
      <trkpt lat="44.99296" lon="3.70874">
        <ele>1145.6</ele>
        <time>2019-12-07T09:10:42Z</time>
      </trkpt>
      <trkpt lat="44.99306" lon="3.70889">
        <ele>1145.6</ele>
        <time>2019-12-07T09:10:48Z</time>
      </trkpt>
      <trkpt lat="44.9931" lon="3.70898">
        <ele>1145.6</ele>
        <time>2019-12-07T09:10:51Z</time>
      </trkpt>
      <trkpt lat="44.99328" lon="3.70937">
        <ele>1147</ele>
        <time>2019-12-07T09:11:05Z</time>
      </trkpt>
      <trkpt lat="44.99333" lon="3.70948">
        <ele>1147.7</ele>
        <time>2019-12-07T09:11:09Z</time>
      </trkpt>
      <trkpt lat="44.99356" lon="3.7099">
        <ele>1150.1</ele>
        <time>2019-12-07T09:11:24Z</time>
      </trkpt>
      <trkpt lat="44.99368" lon="3.71011">
        <ele>1151.3</ele>
        <time>2019-12-07T09:11:32Z</time>
      </trkpt>
      <trkpt lat="44.99372" lon="3.71019">
        <ele>1151.7</ele>
        <time>2019-12-07T09:11:35Z</time>
      </trkpt>
      <trkpt lat="44.99386" lon="3.7104">
        <ele>1153.5</ele>
        <time>2019-12-07T09:11:44Z</time>
      </trkpt>
      <trkpt lat="44.99391" lon="3.71047">
        <ele>1154.4</ele>
        <time>2019-12-07T09:11:47Z</time>
      </trkpt>
      <trkpt lat="44.99407" lon="3.71073">
        <ele>1157</ele>
        <time>2019-12-07T09:11:59Z</time>
      </trkpt>
      <trkpt lat="44.99411" lon="3.71079">
        <ele>1157.5</ele>
        <time>2019-12-07T09:12:02Z</time>
      </trkpt>
      <trkpt lat="44.99425" lon="3.71099">
        <ele>1159.1</ele>
        <time>2019-12-07T09:12:12Z</time>
      </trkpt>
      <trkpt lat="44.99427" lon="3.71103">
        <ele>1159.3</ele>
        <time>2019-12-07T09:12:14Z</time>
      </trkpt>
      <trkpt lat="44.99442" lon="3.71144">
        <ele>1161.9</ele>
        <time>2019-12-07T09:12:32Z</time>
      </trkpt>
      <trkpt lat="44.99444" lon="3.71151">
        <ele>1162</ele>
        <time>2019-12-07T09:12:35Z</time>
      </trkpt>
      <trkpt lat="44.99445" lon="3.71155">
        <ele>1162.2</ele>
        <time>2019-12-07T09:12:37Z</time>
      </trkpt>
      <trkpt lat="44.99445" lon="3.71158">
        <ele>1162.2</ele>
        <time>2019-12-07T09:12:38Z</time>
      </trkpt>
      <trkpt lat="44.99446" lon="3.7116">
        <ele>1162.3</ele>
        <time>2019-12-07T09:12:39Z</time>
      </trkpt>
      <trkpt lat="44.99447" lon="3.71162">
        <ele>1162.3</ele>
        <time>2019-12-07T09:12:40Z</time>
      </trkpt>
      <trkpt lat="44.99447" lon="3.71164">
        <ele>1162.4</ele>
        <time>2019-12-07T09:12:41Z</time>
      </trkpt>
      <trkpt lat="44.99456" lon="3.71195">
        <ele>1164.3</ele>
        <time>2019-12-07T09:12:55Z</time>
      </trkpt>
      <trkpt lat="44.99456" lon="3.71197">
        <ele>1164.4</ele>
        <time>2019-12-07T09:12:56Z</time>
      </trkpt>
      <trkpt lat="44.99457" lon="3.71199">
        <ele>1164.6</ele>
        <time>2019-12-07T09:12:57Z</time>
      </trkpt>
      <trkpt lat="44.99462" lon="3.7121">
        <ele>1166.1</ele>
        <time>2019-12-07T09:13:03Z</time>
      </trkpt>
      <trkpt lat="44.99466" lon="3.71217">
        <ele>1167.2</ele>
        <time>2019-12-07T09:13:07Z</time>
      </trkpt>
      <trkpt lat="44.99472" lon="3.71236">
        <ele>1170.5</ele>
        <time>2019-12-07T09:13:17Z</time>
      </trkpt>
      <trkpt lat="44.99474" lon="3.7124">
        <ele>1171.2</ele>
        <time>2019-12-07T09:13:19Z</time>
      </trkpt>
      <trkpt lat="44.9948" lon="3.71269">
        <ele>1176.2</ele>
        <time>2019-12-07T09:13:35Z</time>
      </trkpt>
      <trkpt lat="44.99481" lon="3.71271">
        <ele>1176.5</ele>
        <time>2019-12-07T09:13:36Z</time>
      </trkpt>
      <trkpt lat="44.99481" lon="3.71272">
        <ele>1176.8</ele>
        <time>2019-12-07T09:13:37Z</time>
      </trkpt>
      <trkpt lat="44.99481" lon="3.71274">
        <ele>1177</ele>
        <time>2019-12-07T09:13:38Z</time>
      </trkpt>
      <trkpt lat="44.99482" lon="3.71277">
        <ele>1177.6</ele>
        <time>2019-12-07T09:13:40Z</time>
      </trkpt>
      <trkpt lat="44.99485" lon="3.7129">
        <ele>1178.9</ele>
        <time>2019-12-07T09:13:48Z</time>
      </trkpt>
      <trkpt lat="44.99487" lon="3.71297">
        <ele>1179.5</ele>
        <time>2019-12-07T09:13:52Z</time>
      </trkpt>
      <trkpt lat="44.9949" lon="3.71316">
        <ele>1180.7</ele>
        <time>2019-12-07T09:14:03Z</time>
      </trkpt>
      <trkpt lat="44.99491" lon="3.71319">
        <ele>1180.9</ele>
        <time>2019-12-07T09:14:05Z</time>
      </trkpt>
      <trkpt lat="44.99491" lon="3.71323">
        <ele>1181</ele>
        <time>2019-12-07T09:14:07Z</time>
      </trkpt>
      <trkpt lat="44.99492" lon="3.71336">
        <ele>1181.4</ele>
        <time>2019-12-07T09:14:14Z</time>
      </trkpt>
      <trkpt lat="44.99491" lon="3.71341">
        <ele>1181.6</ele>
        <time>2019-12-07T09:14:17Z</time>
      </trkpt>
      <trkpt lat="44.99491" lon="3.71357">
        <ele>1182</ele>
        <time>2019-12-07T09:14:26Z</time>
      </trkpt>
      <trkpt lat="44.99492" lon="3.71361">
        <ele>1182.2</ele>
        <time>2019-12-07T09:14:28Z</time>
      </trkpt>
      <trkpt lat="44.99493" lon="3.71363">
        <ele>1182.3</ele>
        <time>2019-12-07T09:14:29Z</time>
      </trkpt>
      <trkpt lat="44.99493" lon="3.71364">
        <ele>1182.3</ele>
        <time>2019-12-07T09:14:30Z</time>
      </trkpt>
      <trkpt lat="44.99494" lon="3.71366">
        <ele>1182.4</ele>
        <time>2019-12-07T09:14:31Z</time>
      </trkpt>
      <trkpt lat="44.99495" lon="3.71367">
        <ele>1182.5</ele>
        <time>2019-12-07T09:14:32Z</time>
      </trkpt>
      <trkpt lat="44.99499" lon="3.7138">
        <ele>1183.4</ele>
        <time>2019-12-07T09:14:40Z</time>
      </trkpt>
      <trkpt lat="44.99501" lon="3.71383">
        <ele>1183.7</ele>
        <time>2019-12-07T09:14:42Z</time>
      </trkpt>
      <trkpt lat="44.99504" lon="3.71392">
        <ele>1184.5</ele>
        <time>2019-12-07T09:14:47Z</time>
      </trkpt>
      <trkpt lat="44.99507" lon="3.71407">
        <ele>1186.1</ele>
        <time>2019-12-07T09:14:56Z</time>
      </trkpt>
      <trkpt lat="44.99507" lon="3.71409">
        <ele>1186.2</ele>
        <time>2019-12-07T09:14:57Z</time>
      </trkpt>
      <trkpt lat="44.99507" lon="3.7141">
        <ele>1186.4</ele>
        <time>2019-12-07T09:14:58Z</time>
      </trkpt>
      <trkpt lat="44.99507" lon="3.71412">
        <ele>1186.6</ele>
        <time>2019-12-07T09:14:59Z</time>
      </trkpt>
      <trkpt lat="44.99508" lon="3.71413">
        <ele>1186.8</ele>
        <time>2019-12-07T09:15:00Z</time>
      </trkpt>
      <trkpt lat="44.99511" lon="3.71419">
        <ele>1187.6</ele>
        <time>2019-12-07T09:15:05Z</time>
      </trkpt>
      <trkpt lat="44.99516" lon="3.71431">
        <ele>1189.2</ele>
        <time>2019-12-07T09:15:13Z</time>
      </trkpt>
      <trkpt lat="44.99518" lon="3.71436">
        <ele>1189.8</ele>
        <time>2019-12-07T09:15:16Z</time>
      </trkpt>
      <trkpt lat="44.99519" lon="3.71438">
        <ele>1190</ele>
        <time>2019-12-07T09:15:17Z</time>
      </trkpt>
      <trkpt lat="44.99522" lon="3.71451">
        <ele>1191.3</ele>
        <time>2019-12-07T09:15:25Z</time>
      </trkpt>
      <trkpt lat="44.99523" lon="3.71455">
        <ele>1191.6</ele>
        <time>2019-12-07T09:15:27Z</time>
      </trkpt>
      <trkpt lat="44.99525" lon="3.71459">
        <ele>1192</ele>
        <time>2019-12-07T09:15:29Z</time>
      </trkpt>
      <trkpt lat="44.99525" lon="3.71461">
        <ele>1192.2</ele>
        <time>2019-12-07T09:15:30Z</time>
      </trkpt>
      <trkpt lat="44.99532" lon="3.71482">
        <ele>1193.7</ele>
        <time>2019-12-07T09:15:39Z</time>
      </trkpt>
      <trkpt lat="44.99536" lon="3.71492">
        <ele>1194.5</ele>
        <time>2019-12-07T09:15:43Z</time>
      </trkpt>
      <trkpt lat="44.9954" lon="3.71517">
        <ele>1196.9</ele>
        <time>2019-12-07T09:15:51Z</time>
      </trkpt>
      <trkpt lat="44.99548" lon="3.71545">
        <ele>1200.1</ele>
        <time>2019-12-07T09:15:59Z</time>
      </trkpt>
      <trkpt lat="44.99553" lon="3.71556">
        <ele>1201</ele>
        <time>2019-12-07T09:16:03Z</time>
      </trkpt>
      <trkpt lat="44.99561" lon="3.71573">
        <ele>1201.8</ele>
        <time>2019-12-07T09:16:09Z</time>
      </trkpt>
      <trkpt lat="44.99565" lon="3.71581">
        <ele>1202.3</ele>
        <time>2019-12-07T09:16:12Z</time>
      </trkpt>
      <trkpt lat="44.99568" lon="3.71587">
        <ele>1202.6</ele>
        <time>2019-12-07T09:16:15Z</time>
      </trkpt>
      <trkpt lat="44.99575" lon="3.71601">
        <ele>1203.4</ele>
        <time>2019-12-07T09:16:22Z</time>
      </trkpt>
      <trkpt lat="44.99581" lon="3.71612">
        <ele>1204.2</ele>
        <time>2019-12-07T09:16:28Z</time>
      </trkpt>
      <trkpt lat="44.99582" lon="3.71614">
        <ele>1204.2</ele>
        <time>2019-12-07T09:16:29Z</time>
      </trkpt>
      <trkpt lat="44.99583" lon="3.71616">
        <ele>1204.3</ele>
        <time>2019-12-07T09:16:30Z</time>
      </trkpt>
      <trkpt lat="44.99587" lon="3.71624">
        <ele>1204.6</ele>
        <time>2019-12-07T09:16:35Z</time>
      </trkpt>
      <trkpt lat="44.99589" lon="3.71625">
        <ele>1204.7</ele>
        <time>2019-12-07T09:16:36Z</time>
      </trkpt>
      <trkpt lat="44.9959" lon="3.71626">
        <ele>1204.7</ele>
        <time>2019-12-07T09:16:37Z</time>
      </trkpt>
      <trkpt lat="44.9959" lon="3.71628">
        <ele>1204.8</ele>
        <time>2019-12-07T09:16:38Z</time>
      </trkpt>
      <trkpt lat="44.99591" lon="3.7163">
        <ele>1204.8</ele>
        <time>2019-12-07T09:16:39Z</time>
      </trkpt>
      <trkpt lat="44.99592" lon="3.71631">
        <ele>1205</ele>
        <time>2019-12-07T09:16:40Z</time>
      </trkpt>
      <trkpt lat="44.99593" lon="3.71631">
        <ele>1205.1</ele>
        <time>2019-12-07T09:16:41Z</time>
      </trkpt>
      <trkpt lat="44.99594" lon="3.71631">
        <ele>1205.2</ele>
        <time>2019-12-07T09:16:46Z</time>
      </trkpt>
      <trkpt lat="44.99594" lon="3.71632">
        <ele>1205.2</ele>
        <time>2019-12-07T09:16:48Z</time>
      </trkpt>
      <trkpt lat="44.99597" lon="3.7163">
        <ele>1205.6</ele>
        <time>2019-12-07T09:18:39Z</time>
      </trkpt>
      <trkpt lat="44.99597" lon="3.71629">
        <ele>1205.7</ele>
        <time>2019-12-07T09:18:40Z</time>
      </trkpt>
      <trkpt lat="44.99601" lon="3.7163">
        <ele>1206.1</ele>
        <time>2019-12-07T09:18:45Z</time>
      </trkpt>
      <trkpt lat="44.99602" lon="3.7163">
        <ele>1206.1</ele>
        <time>2019-12-07T09:18:46Z</time>
      </trkpt>
      <trkpt lat="44.99603" lon="3.7163">
        <ele>1206.3</ele>
        <time>2019-12-07T09:18:52Z</time>
      </trkpt>
      <trkpt lat="44.99601" lon="3.71631">
        <ele>1206.5</ele>
        <time>2019-12-07T09:20:14Z</time>
      </trkpt>
      <trkpt lat="44.99603" lon="3.71631">
        <ele>1206.6</ele>
        <time>2019-12-07T09:20:15Z</time>
      </trkpt>
      <trkpt lat="44.99613" lon="3.71634">
        <ele>1207.4</ele>
        <time>2019-12-07T09:20:20Z</time>
      </trkpt>
      <trkpt lat="44.99632" lon="3.7164">
        <ele>1209.4</ele>
        <time>2019-12-07T09:20:28Z</time>
      </trkpt>
      <trkpt lat="44.99666" lon="3.71659">
        <ele>1212.1</ele>
        <time>2019-12-07T09:20:45Z</time>
      </trkpt>
      <trkpt lat="44.9968" lon="3.71664">
        <ele>1213.2</ele>
        <time>2019-12-07T09:20:51Z</time>
      </trkpt>
      <trkpt lat="44.99694" lon="3.7167">
        <ele>1214.3</ele>
        <time>2019-12-07T09:20:57Z</time>
      </trkpt>
      <trkpt lat="44.99721" lon="3.71683">
        <ele>1215</ele>
        <time>2019-12-07T09:21:08Z</time>
      </trkpt>
      <trkpt lat="44.99723" lon="3.71685">
        <ele>1215</ele>
        <time>2019-12-07T09:21:09Z</time>
      </trkpt>
      <trkpt lat="44.99724" lon="3.71687">
        <ele>1215</ele>
        <time>2019-12-07T09:21:10Z</time>
      </trkpt>
      <trkpt lat="44.99743" lon="3.71762">
        <ele>1214.2</ele>
        <time>2019-12-07T09:21:30Z</time>
      </trkpt>
      <trkpt lat="44.9975" lon="3.71811">
        <ele>1213.7</ele>
        <time>2019-12-07T09:21:42Z</time>
      </trkpt>
      <trkpt lat="44.99761" lon="3.71852">
        <ele>1212.6</ele>
        <time>2019-12-07T09:21:53Z</time>
      </trkpt>
      <trkpt lat="44.99763" lon="3.71858">
        <ele>1212.3</ele>
        <time>2019-12-07T09:21:55Z</time>
      </trkpt>
      <trkpt lat="44.99765" lon="3.71862">
        <ele>1212.2</ele>
        <time>2019-12-07T09:21:56Z</time>
      </trkpt>
      <trkpt lat="44.99766" lon="3.71866">
        <ele>1212.1</ele>
        <time>2019-12-07T09:21:57Z</time>
      </trkpt>
      <trkpt lat="44.99768" lon="3.7187">
        <ele>1212</ele>
        <time>2019-12-07T09:21:58Z</time>
      </trkpt>
      <trkpt lat="44.99769" lon="3.71873">
        <ele>1211.9</ele>
        <time>2019-12-07T09:21:59Z</time>
      </trkpt>
      <trkpt lat="44.99809" lon="3.71937">
        <ele>1211.3</ele>
        <time>2019-12-07T09:22:17Z</time>
      </trkpt>
      <trkpt lat="44.99826" lon="3.71956">
        <ele>1211.5</ele>
        <time>2019-12-07T09:22:23Z</time>
      </trkpt>
      <trkpt lat="44.99837" lon="3.71997">
        <ele>1211.3</ele>
        <time>2019-12-07T09:22:33Z</time>
      </trkpt>
      <trkpt lat="44.99807" lon="3.72055">
        <ele>1211.3</ele>
        <time>2019-12-07T09:22:49Z</time>
      </trkpt>
      <trkpt lat="44.99789" lon="3.72097">
        <ele>1210.9</ele>
        <time>2019-12-07T09:22:58Z</time>
      </trkpt>
      <trkpt lat="44.99781" lon="3.72127">
        <ele>1211</ele>
        <time>2019-12-07T09:23:04Z</time>
      </trkpt>
      <trkpt lat="44.99779" lon="3.72133">
        <ele>1211</ele>
        <time>2019-12-07T09:23:05Z</time>
      </trkpt>
      <trkpt lat="44.99772" lon="3.72196">
        <ele>1212.3</ele>
        <time>2019-12-07T09:23:16Z</time>
      </trkpt>
      <trkpt lat="44.99788" lon="3.72278">
        <ele>1211.2</ele>
        <time>2019-12-07T09:23:33Z</time>
      </trkpt>
      <trkpt lat="44.998" lon="3.72324">
        <ele>1210.7</ele>
        <time>2019-12-07T09:23:43Z</time>
      </trkpt>
      <trkpt lat="44.99798" lon="3.72374">
        <ele>1209.9</ele>
        <time>2019-12-07T09:23:53Z</time>
      </trkpt>
      <trkpt lat="44.99797" lon="3.72381">
        <ele>1209.9</ele>
        <time>2019-12-07T09:23:54Z</time>
      </trkpt>
      <trkpt lat="44.99795" lon="3.72428">
        <ele>1209.8</ele>
        <time>2019-12-07T09:24:00Z</time>
      </trkpt>
      <trkpt lat="44.99793" lon="3.72437">
        <ele>1209.8</ele>
        <time>2019-12-07T09:24:01Z</time>
      </trkpt>
      <trkpt lat="44.9979" lon="3.72447">
        <ele>1209.8</ele>
        <time>2019-12-07T09:24:02Z</time>
      </trkpt>
      <trkpt lat="44.99787" lon="3.72467">
        <ele>1209.2</ele>
        <time>2019-12-07T09:24:04Z</time>
      </trkpt>
      <trkpt lat="44.99786" lon="3.72476">
        <ele>1208.9</ele>
        <time>2019-12-07T09:24:05Z</time>
      </trkpt>
      <trkpt lat="44.99786" lon="3.72486">
        <ele>1208.6</ele>
        <time>2019-12-07T09:24:06Z</time>
      </trkpt>
      <trkpt lat="44.99786" lon="3.72494">
        <ele>1208.3</ele>
        <time>2019-12-07T09:24:07Z</time>
      </trkpt>
      <trkpt lat="44.99786" lon="3.72501">
        <ele>1208.1</ele>
        <time>2019-12-07T09:24:08Z</time>
      </trkpt>
      <trkpt lat="44.99786" lon="3.72514">
        <ele>1207.6</ele>
        <time>2019-12-07T09:24:10Z</time>
      </trkpt>
      <trkpt lat="44.99785" lon="3.72545">
        <ele>1205.9</ele>
        <time>2019-12-07T09:24:14Z</time>
      </trkpt>
      <trkpt lat="44.99785" lon="3.72553">
        <ele>1205.5</ele>
        <time>2019-12-07T09:24:15Z</time>
      </trkpt>
      <trkpt lat="44.99788" lon="3.7257">
        <ele>1204.7</ele>
        <time>2019-12-07T09:24:17Z</time>
      </trkpt>
      <trkpt lat="44.9979" lon="3.7259">
        <ele>1203.8</ele>
        <time>2019-12-07T09:24:19Z</time>
      </trkpt>
      <trkpt lat="44.99796" lon="3.72651">
        <ele>1200.1</ele>
        <time>2019-12-07T09:24:25Z</time>
      </trkpt>
      <trkpt lat="44.99799" lon="3.72695">
        <ele>1197.3</ele>
        <time>2019-12-07T09:24:29Z</time>
      </trkpt>
      <trkpt lat="44.99801" lon="3.72707">
        <ele>1196.6</ele>
        <time>2019-12-07T09:24:30Z</time>
      </trkpt>
      <trkpt lat="44.99802" lon="3.72719">
        <ele>1196</ele>
        <time>2019-12-07T09:24:31Z</time>
      </trkpt>
      <trkpt lat="44.99803" lon="3.72765">
        <ele>1192.4</ele>
        <time>2019-12-07T09:24:35Z</time>
      </trkpt>
      <trkpt lat="44.99801" lon="3.72776">
        <ele>1191.2</ele>
        <time>2019-12-07T09:24:36Z</time>
      </trkpt>
      <trkpt lat="44.99796" lon="3.72812">
        <ele>1188.2</ele>
        <time>2019-12-07T09:24:39Z</time>
      </trkpt>
      <trkpt lat="44.99795" lon="3.72824">
        <ele>1187.3</ele>
        <time>2019-12-07T09:24:40Z</time>
      </trkpt>
      <trkpt lat="44.99793" lon="3.72874">
        <ele>1185</ele>
        <time>2019-12-07T09:24:44Z</time>
      </trkpt>
      <trkpt lat="44.99792" lon="3.72944">
        <ele>1182.3</ele>
        <time>2019-12-07T09:24:50Z</time>
      </trkpt>
      <trkpt lat="44.99792" lon="3.72966">
        <ele>1181.2</ele>
        <time>2019-12-07T09:24:52Z</time>
      </trkpt>
      <trkpt lat="44.99792" lon="3.72977">
        <ele>1180.5</ele>
        <time>2019-12-07T09:24:53Z</time>
      </trkpt>
      <trkpt lat="44.9979" lon="3.73">
        <ele>1179.3</ele>
        <time>2019-12-07T09:24:55Z</time>
      </trkpt>
      <trkpt lat="44.99786" lon="3.73019">
        <ele>1178.2</ele>
        <time>2019-12-07T09:24:57Z</time>
      </trkpt>
      <trkpt lat="44.99779" lon="3.73047">
        <ele>1176.4</ele>
        <time>2019-12-07T09:25:00Z</time>
      </trkpt>
      <trkpt lat="44.99777" lon="3.73057">
        <ele>1175.7</ele>
        <time>2019-12-07T09:25:01Z</time>
      </trkpt>
      <trkpt lat="44.99773" lon="3.73077">
        <ele>1174.1</ele>
        <time>2019-12-07T09:25:03Z</time>
      </trkpt>
      <trkpt lat="44.99759" lon="3.73118">
        <ele>1170.6</ele>
        <time>2019-12-07T09:25:07Z</time>
      </trkpt>
      <trkpt lat="44.99757" lon="3.7313">
        <ele>1169.6</ele>
        <time>2019-12-07T09:25:08Z</time>
      </trkpt>
      <trkpt lat="44.99756" lon="3.73141">
        <ele>1168.9</ele>
        <time>2019-12-07T09:25:09Z</time>
      </trkpt>
      <trkpt lat="44.99756" lon="3.73151">
        <ele>1168.3</ele>
        <time>2019-12-07T09:25:10Z</time>
      </trkpt>
      <trkpt lat="44.99758" lon="3.73159">
        <ele>1167.9</ele>
        <time>2019-12-07T09:25:11Z</time>
      </trkpt>
      <trkpt lat="44.99761" lon="3.73165">
        <ele>1167.7</ele>
        <time>2019-12-07T09:25:12Z</time>
      </trkpt>
      <trkpt lat="44.99768" lon="3.73167">
        <ele>1167.5</ele>
        <time>2019-12-07T09:25:13Z</time>
      </trkpt>
      <trkpt lat="44.99774" lon="3.73169">
        <ele>1167.4</ele>
        <time>2019-12-07T09:25:14Z</time>
      </trkpt>
      <trkpt lat="44.9978" lon="3.73169">
        <ele>1167.3</ele>
        <time>2019-12-07T09:25:15Z</time>
      </trkpt>
      <trkpt lat="44.99786" lon="3.7317">
        <ele>1167.3</ele>
        <time>2019-12-07T09:25:16Z</time>
      </trkpt>
      <trkpt lat="44.99791" lon="3.73172">
        <ele>1167.3</ele>
        <time>2019-12-07T09:25:17Z</time>
      </trkpt>
      <trkpt lat="44.99797" lon="3.73174">
        <ele>1167.4</ele>
        <time>2019-12-07T09:25:18Z</time>
      </trkpt>
      <trkpt lat="44.99803" lon="3.73174">
        <ele>1167.4</ele>
        <time>2019-12-07T09:25:19Z</time>
      </trkpt>
      <trkpt lat="44.99808" lon="3.73175">
        <ele>1167.5</ele>
        <time>2019-12-07T09:25:20Z</time>
      </trkpt>
      <trkpt lat="44.99868" lon="3.73178">
        <ele>1166</ele>
        <time>2019-12-07T09:25:36Z</time>
      </trkpt>
      <trkpt lat="44.99908" lon="3.73171">
        <ele>1164</ele>
        <time>2019-12-07T09:25:44Z</time>
      </trkpt>
      <trkpt lat="44.99914" lon="3.73171">
        <ele>1163.6</ele>
        <time>2019-12-07T09:25:45Z</time>
      </trkpt>
      <trkpt lat="44.9992" lon="3.7317">
        <ele>1163.2</ele>
        <time>2019-12-07T09:25:46Z</time>
      </trkpt>
      <trkpt lat="44.99925" lon="3.73168">
        <ele>1162.9</ele>
        <time>2019-12-07T09:25:47Z</time>
      </trkpt>
      <trkpt lat="44.9993" lon="3.73166">
        <ele>1162.6</ele>
        <time>2019-12-07T09:25:48Z</time>
      </trkpt>
      <trkpt lat="44.99936" lon="3.73165">
        <ele>1162.2</ele>
        <time>2019-12-07T09:25:49Z</time>
      </trkpt>
      <trkpt lat="44.99941" lon="3.73164">
        <ele>1161.9</ele>
        <time>2019-12-07T09:25:50Z</time>
      </trkpt>
      <trkpt lat="44.99946" lon="3.73162">
        <ele>1161.6</ele>
        <time>2019-12-07T09:25:51Z</time>
      </trkpt>
      <trkpt lat="44.99966" lon="3.7316">
        <ele>1160.7</ele>
        <time>2019-12-07T09:25:55Z</time>
      </trkpt>
      <trkpt lat="44.99975" lon="3.7316">
        <ele>1160.4</ele>
        <time>2019-12-07T09:25:57Z</time>
      </trkpt>
      <trkpt lat="44.9998" lon="3.73159">
        <ele>1160.2</ele>
        <time>2019-12-07T09:25:58Z</time>
      </trkpt>
      <trkpt lat="44.99985" lon="3.7316">
        <ele>1160.1</ele>
        <time>2019-12-07T09:25:59Z</time>
      </trkpt>
      <trkpt lat="44.99989" lon="3.7316">
        <ele>1160</ele>
        <time>2019-12-07T09:26:00Z</time>
      </trkpt>
      <trkpt lat="44.99993" lon="3.73161">
        <ele>1159.9</ele>
        <time>2019-12-07T09:26:01Z</time>
      </trkpt>
      <trkpt lat="44.99997" lon="3.7316">
        <ele>1159.7</ele>
        <time>2019-12-07T09:26:02Z</time>
      </trkpt>
      <trkpt lat="45.00002" lon="3.7316">
        <ele>1159.5</ele>
        <time>2019-12-07T09:26:03Z</time>
      </trkpt>
      <trkpt lat="45.00006" lon="3.73159">
        <ele>1159.4</ele>
        <time>2019-12-07T09:26:04Z</time>
      </trkpt>
      <trkpt lat="45.00026" lon="3.7316">
        <ele>1158.6</ele>
        <time>2019-12-07T09:26:08Z</time>
      </trkpt>
      <trkpt lat="45.00031" lon="3.7316">
        <ele>1158.4</ele>
        <time>2019-12-07T09:26:09Z</time>
      </trkpt>
      <trkpt lat="45.00036" lon="3.73161">
        <ele>1158.1</ele>
        <time>2019-12-07T09:26:10Z</time>
      </trkpt>
      <trkpt lat="45.00043" lon="3.73163">
        <ele>1157.7</ele>
        <time>2019-12-07T09:26:11Z</time>
      </trkpt>
      <trkpt lat="45.00049" lon="3.73165">
        <ele>1157.2</ele>
        <time>2019-12-07T09:26:12Z</time>
      </trkpt>
      <trkpt lat="45.00057" lon="3.73166">
        <ele>1156.6</ele>
        <time>2019-12-07T09:26:13Z</time>
      </trkpt>
      <trkpt lat="45.00086" lon="3.73166">
        <ele>1154.4</ele>
        <time>2019-12-07T09:26:17Z</time>
      </trkpt>
      <trkpt lat="45.00125" lon="3.73167">
        <ele>1151.7</ele>
        <time>2019-12-07T09:26:22Z</time>
      </trkpt>
      <trkpt lat="45.00133" lon="3.73167">
        <ele>1151</ele>
        <time>2019-12-07T09:26:23Z</time>
      </trkpt>
      <trkpt lat="45.00143" lon="3.73167">
        <ele>1150</ele>
        <time>2019-12-07T09:26:24Z</time>
      </trkpt>
      <trkpt lat="45.00187" lon="3.73162">
        <ele>1146.3</ele>
        <time>2019-12-07T09:26:29Z</time>
      </trkpt>
      <trkpt lat="45.00204" lon="3.7316">
        <ele>1144.8</ele>
        <time>2019-12-07T09:26:31Z</time>
      </trkpt>
      <trkpt lat="45.00212" lon="3.73158">
        <ele>1143.9</ele>
        <time>2019-12-07T09:26:32Z</time>
      </trkpt>
      <trkpt lat="45.00245" lon="3.73149">
        <ele>1140.4</ele>
        <time>2019-12-07T09:26:36Z</time>
      </trkpt>
      <trkpt lat="45.00277" lon="3.73138">
        <ele>1137.5</ele>
        <time>2019-12-07T09:26:40Z</time>
      </trkpt>
      <trkpt lat="45.00323" lon="3.73125">
        <ele>1134.2</ele>
        <time>2019-12-07T09:26:46Z</time>
      </trkpt>
      <trkpt lat="45.00337" lon="3.73126">
        <ele>1132.8</ele>
        <time>2019-12-07T09:26:48Z</time>
      </trkpt>
      <trkpt lat="45.00345" lon="3.73129">
        <ele>1131.9</ele>
        <time>2019-12-07T09:26:49Z</time>
      </trkpt>
      <trkpt lat="45.00369" lon="3.73142">
        <ele>1128.1</ele>
        <time>2019-12-07T09:26:53Z</time>
      </trkpt>
      <trkpt lat="45.00371" lon="3.73144">
        <ele>1127.8</ele>
        <time>2019-12-07T09:26:54Z</time>
      </trkpt>
      <trkpt lat="45.00373" lon="3.73146">
        <ele>1127.4</ele>
        <time>2019-12-07T09:26:55Z</time>
      </trkpt>
      <trkpt lat="45.00374" lon="3.73149">
        <ele>1126.9</ele>
        <time>2019-12-07T09:26:56Z</time>
      </trkpt>
      <trkpt lat="45.00376" lon="3.73156">
        <ele>1126</ele>
        <time>2019-12-07T09:27:00Z</time>
      </trkpt>
      <trkpt lat="45.00376" lon="3.73156">
        <ele>1126</ele>
        <time>2019-12-07T09:27:05Z</time>
      </trkpt>
      <trkpt lat="45.00378" lon="3.73164">
        <ele>1125.1</ele>
        <time>2019-12-07T09:27:10Z</time>
      </trkpt>
      <trkpt lat="45.00382" lon="3.73226">
        <ele>1118.9</ele>
        <time>2019-12-07T09:27:19Z</time>
      </trkpt>
      <trkpt lat="45.00384" lon="3.73267">
        <ele>1116.5</ele>
        <time>2019-12-07T09:27:23Z</time>
      </trkpt>
      <trkpt lat="45.00385" lon="3.73278">
        <ele>1116</ele>
        <time>2019-12-07T09:27:24Z</time>
      </trkpt>
      <trkpt lat="45.00387" lon="3.73311">
        <ele>1114.2</ele>
        <time>2019-12-07T09:27:27Z</time>
      </trkpt>
      <trkpt lat="45.00394" lon="3.73398">
        <ele>1108.5</ele>
        <time>2019-12-07T09:27:34Z</time>
      </trkpt>
      <trkpt lat="45.00396" lon="3.73412">
        <ele>1107.3</ele>
        <time>2019-12-07T09:27:35Z</time>
      </trkpt>
      <trkpt lat="45.0041" lon="3.73482">
        <ele>1103.4</ele>
        <time>2019-12-07T09:27:40Z</time>
      </trkpt>
      <trkpt lat="45.00418" lon="3.73509">
        <ele>1101.4</ele>
        <time>2019-12-07T09:27:42Z</time>
      </trkpt>
      <trkpt lat="45.00424" lon="3.73522">
        <ele>1100.4</ele>
        <time>2019-12-07T09:27:43Z</time>
      </trkpt>
      <trkpt lat="45.00431" lon="3.73534">
        <ele>1099.1</ele>
        <time>2019-12-07T09:27:44Z</time>
      </trkpt>
      <trkpt lat="45.00439" lon="3.73545">
        <ele>1097.7</ele>
        <time>2019-12-07T09:27:45Z</time>
      </trkpt>
      <trkpt lat="45.00448" lon="3.73557">
        <ele>1096.6</ele>
        <time>2019-12-07T09:27:46Z</time>
      </trkpt>
      <trkpt lat="45.00456" lon="3.73569">
        <ele>1095.5</ele>
        <time>2019-12-07T09:27:47Z</time>
      </trkpt>
      <trkpt lat="45.00463" lon="3.73583">
        <ele>1094.4</ele>
        <time>2019-12-07T09:27:48Z</time>
      </trkpt>
      <trkpt lat="45.00468" lon="3.73598">
        <ele>1093.4</ele>
        <time>2019-12-07T09:27:49Z</time>
      </trkpt>
      <trkpt lat="45.00486" lon="3.73641">
        <ele>1091.5</ele>
        <time>2019-12-07T09:27:52Z</time>
      </trkpt>
      <trkpt lat="45.00506" lon="3.7368">
        <ele>1090.4</ele>
        <time>2019-12-07T09:27:55Z</time>
      </trkpt>
      <trkpt lat="45.00522" lon="3.73721">
        <ele>1089.9</ele>
        <time>2019-12-07T09:27:58Z</time>
      </trkpt>
      <trkpt lat="45.00535" lon="3.73762">
        <ele>1089</ele>
        <time>2019-12-07T09:28:01Z</time>
      </trkpt>
      <trkpt lat="45.00556" lon="3.73841">
        <ele>1087.6</ele>
        <time>2019-12-07T09:28:07Z</time>
      </trkpt>
      <trkpt lat="45.00578" lon="3.73924">
        <ele>1086.1</ele>
        <time>2019-12-07T09:28:14Z</time>
      </trkpt>
      <trkpt lat="45.00595" lon="3.74002">
        <ele>1083.9</ele>
        <time>2019-12-07T09:28:21Z</time>
      </trkpt>
      <trkpt lat="45.00618" lon="3.74065">
        <ele>1082.6</ele>
        <time>2019-12-07T09:28:27Z</time>
      </trkpt>
      <trkpt lat="45.0062" lon="3.74076">
        <ele>1082.5</ele>
        <time>2019-12-07T09:28:28Z</time>
      </trkpt>
      <trkpt lat="45.0062" lon="3.74087">
        <ele>1082.7</ele>
        <time>2019-12-07T09:28:29Z</time>
      </trkpt>
      <trkpt lat="45.00619" lon="3.74097">
        <ele>1082.9</ele>
        <time>2019-12-07T09:28:30Z</time>
      </trkpt>
      <trkpt lat="45.00618" lon="3.74106">
        <ele>1083.2</ele>
        <time>2019-12-07T09:28:31Z</time>
      </trkpt>
      <trkpt lat="45.00617" lon="3.74115">
        <ele>1083.5</ele>
        <time>2019-12-07T09:28:32Z</time>
      </trkpt>
      <trkpt lat="45.00617" lon="3.74124">
        <ele>1083.7</ele>
        <time>2019-12-07T09:28:33Z</time>
      </trkpt>
      <trkpt lat="45.00618" lon="3.74131">
        <ele>1084.1</ele>
        <time>2019-12-07T09:28:34Z</time>
      </trkpt>
      <trkpt lat="45.00619" lon="3.74138">
        <ele>1084.4</ele>
        <time>2019-12-07T09:28:35Z</time>
      </trkpt>
      <trkpt lat="45.00621" lon="3.74144">
        <ele>1084.6</ele>
        <time>2019-12-07T09:28:36Z</time>
      </trkpt>
      <trkpt lat="45.00623" lon="3.74151">
        <ele>1084.7</ele>
        <time>2019-12-07T09:28:37Z</time>
      </trkpt>
      <trkpt lat="45.00625" lon="3.74157">
        <ele>1084.8</ele>
        <time>2019-12-07T09:28:38Z</time>
      </trkpt>
      <trkpt lat="45.0063" lon="3.74174">
        <ele>1085</ele>
        <time>2019-12-07T09:28:41Z</time>
      </trkpt>
      <trkpt lat="45.00633" lon="3.74179">
        <ele>1085</ele>
        <time>2019-12-07T09:28:42Z</time>
      </trkpt>
      <trkpt lat="45.00635" lon="3.74183">
        <ele>1084.9</ele>
        <time>2019-12-07T09:28:43Z</time>
      </trkpt>
      <trkpt lat="45.00648" lon="3.74199">
        <ele>1084.5</ele>
        <time>2019-12-07T09:28:47Z</time>
      </trkpt>
      <trkpt lat="45.00651" lon="3.74202">
        <ele>1084.4</ele>
        <time>2019-12-07T09:28:48Z</time>
      </trkpt>
      <trkpt lat="45.00659" lon="3.74207">
        <ele>1084.2</ele>
        <time>2019-12-07T09:28:50Z</time>
      </trkpt>
      <trkpt lat="45.00668" lon="3.74213">
        <ele>1084.1</ele>
        <time>2019-12-07T09:28:52Z</time>
      </trkpt>
      <trkpt lat="45.00672" lon="3.74217">
        <ele>1084.1</ele>
        <time>2019-12-07T09:28:53Z</time>
      </trkpt>
      <trkpt lat="45.00676" lon="3.74221">
        <ele>1084.1</ele>
        <time>2019-12-07T09:28:54Z</time>
      </trkpt>
      <trkpt lat="45.00679" lon="3.74226">
        <ele>1084.1</ele>
        <time>2019-12-07T09:28:55Z</time>
      </trkpt>
      <trkpt lat="45.00681" lon="3.74231">
        <ele>1084.1</ele>
        <time>2019-12-07T09:28:56Z</time>
      </trkpt>
      <trkpt lat="45.00683" lon="3.74236">
        <ele>1084.2</ele>
        <time>2019-12-07T09:28:57Z</time>
      </trkpt>
      <trkpt lat="45.00685" lon="3.74242">
        <ele>1084.3</ele>
        <time>2019-12-07T09:28:58Z</time>
      </trkpt>
      <trkpt lat="45.00686" lon="3.74246">
        <ele>1084.5</ele>
        <time>2019-12-07T09:28:59Z</time>
      </trkpt>
      <trkpt lat="45.00693" lon="3.74313">
        <ele>1084.9</ele>
        <time>2019-12-07T09:29:10Z</time>
      </trkpt>
      <trkpt lat="45.00693" lon="3.7432">
        <ele>1085</ele>
        <time>2019-12-07T09:29:11Z</time>
      </trkpt>
      <trkpt lat="45.0069" lon="3.74327">
        <ele>1085.1</ele>
        <time>2019-12-07T09:29:12Z</time>
      </trkpt>
      <trkpt lat="45.00687" lon="3.74332">
        <ele>1085.2</ele>
        <time>2019-12-07T09:29:13Z</time>
      </trkpt>
      <trkpt lat="45.00682" lon="3.74336">
        <ele>1085.4</ele>
        <time>2019-12-07T09:29:14Z</time>
      </trkpt>
      <trkpt lat="45.00677" lon="3.74338">
        <ele>1085.6</ele>
        <time>2019-12-07T09:29:15Z</time>
      </trkpt>
      <trkpt lat="45.00673" lon="3.74339">
        <ele>1085.8</ele>
        <time>2019-12-07T09:29:16Z</time>
      </trkpt>
      <trkpt lat="45.00668" lon="3.7434">
        <ele>1085.9</ele>
        <time>2019-12-07T09:29:17Z</time>
      </trkpt>
      <trkpt lat="45.0066" lon="3.74341">
        <ele>1086.5</ele>
        <time>2019-12-07T09:29:19Z</time>
      </trkpt>
      <trkpt lat="45.00655" lon="3.74343">
        <ele>1086.8</ele>
        <time>2019-12-07T09:29:20Z</time>
      </trkpt>
      <trkpt lat="45.0065" lon="3.74346">
        <ele>1087.2</ele>
        <time>2019-12-07T09:29:21Z</time>
      </trkpt>
      <trkpt lat="45.00646" lon="3.74349">
        <ele>1087.6</ele>
        <time>2019-12-07T09:29:22Z</time>
      </trkpt>
      <trkpt lat="45.00642" lon="3.74354">
        <ele>1087.9</ele>
        <time>2019-12-07T09:29:23Z</time>
      </trkpt>
      <trkpt lat="45.00638" lon="3.74359">
        <ele>1088.2</ele>
        <time>2019-12-07T09:29:24Z</time>
      </trkpt>
      <trkpt lat="45.00635" lon="3.74364">
        <ele>1088.5</ele>
        <time>2019-12-07T09:29:25Z</time>
      </trkpt>
      <trkpt lat="45.00632" lon="3.7437">
        <ele>1088.7</ele>
        <time>2019-12-07T09:29:26Z</time>
      </trkpt>
      <trkpt lat="45.00618" lon="3.74394">
        <ele>1089.7</ele>
        <time>2019-12-07T09:29:30Z</time>
      </trkpt>
      <trkpt lat="45.00607" lon="3.74414">
        <ele>1090.1</ele>
        <time>2019-12-07T09:29:34Z</time>
      </trkpt>
      <trkpt lat="45.00592" lon="3.7444">
        <ele>1090.2</ele>
        <time>2019-12-07T09:29:40Z</time>
      </trkpt>
      <trkpt lat="45.00584" lon="3.74489">
        <ele>1089.5</ele>
        <time>2019-12-07T09:29:49Z</time>
      </trkpt>
      <trkpt lat="45.00576" lon="3.74537">
        <ele>1088.3</ele>
        <time>2019-12-07T09:29:56Z</time>
      </trkpt>
      <trkpt lat="45.0056" lon="3.74601">
        <ele>1085.9</ele>
        <time>2019-12-07T09:30:04Z</time>
      </trkpt>
      <trkpt lat="45.0056" lon="3.74611">
        <ele>1085.5</ele>
        <time>2019-12-07T09:30:05Z</time>
      </trkpt>
      <trkpt lat="45.00564" lon="3.74702">
        <ele>1081.4</ele>
        <time>2019-12-07T09:30:14Z</time>
      </trkpt>
      <trkpt lat="45.00562" lon="3.74762">
        <ele>1079.4</ele>
        <time>2019-12-07T09:30:19Z</time>
      </trkpt>
      <trkpt lat="45.00562" lon="3.74796">
        <ele>1078.4</ele>
        <time>2019-12-07T09:30:22Z</time>
      </trkpt>
      <trkpt lat="45.00561" lon="3.74829">
        <ele>1077.7</ele>
        <time>2019-12-07T09:30:25Z</time>
      </trkpt>
      <trkpt lat="45.00559" lon="3.74863">
        <ele>1076.9</ele>
        <time>2019-12-07T09:30:28Z</time>
      </trkpt>
      <trkpt lat="45.00556" lon="3.74894">
        <ele>1076.1</ele>
        <time>2019-12-07T09:30:31Z</time>
      </trkpt>
      <trkpt lat="45.00552" lon="3.74925">
        <ele>1075.2</ele>
        <time>2019-12-07T09:30:34Z</time>
      </trkpt>
      <trkpt lat="45.00549" lon="3.74946">
        <ele>1074.4</ele>
        <time>2019-12-07T09:30:36Z</time>
      </trkpt>
      <trkpt lat="45.00548" lon="3.74956">
        <ele>1073.9</ele>
        <time>2019-12-07T09:30:37Z</time>
      </trkpt>
      <trkpt lat="45.00542" lon="3.7504">
        <ele>1070.9</ele>
        <time>2019-12-07T09:30:44Z</time>
      </trkpt>
      <trkpt lat="45.00535" lon="3.75064">
        <ele>1069.9</ele>
        <time>2019-12-07T09:30:46Z</time>
      </trkpt>
      <trkpt lat="45.0053" lon="3.75076">
        <ele>1069.2</ele>
        <time>2019-12-07T09:30:47Z</time>
      </trkpt>
      <trkpt lat="45.00521" lon="3.751">
        <ele>1067.8</ele>
        <time>2019-12-07T09:30:49Z</time>
      </trkpt>
      <trkpt lat="45.00513" lon="3.75126">
        <ele>1066.5</ele>
        <time>2019-12-07T09:30:51Z</time>
      </trkpt>
      <trkpt lat="45.00498" lon="3.75202">
        <ele>1062.7</ele>
        <time>2019-12-07T09:30:56Z</time>
      </trkpt>
      <trkpt lat="45.0049" lon="3.75283">
        <ele>1059.4</ele>
        <time>2019-12-07T09:31:01Z</time>
      </trkpt>
      <trkpt lat="45.00487" lon="3.75367">
        <ele>1055.4</ele>
        <time>2019-12-07T09:31:06Z</time>
      </trkpt>
      <trkpt lat="45.00488" lon="3.75436">
        <ele>1052.1</ele>
        <time>2019-12-07T09:31:10Z</time>
      </trkpt>
      <trkpt lat="45.00496" lon="3.75504">
        <ele>1049.2</ele>
        <time>2019-12-07T09:31:14Z</time>
      </trkpt>
      <trkpt lat="45.00503" lon="3.75555">
        <ele>1046.3</ele>
        <time>2019-12-07T09:31:17Z</time>
      </trkpt>
      <trkpt lat="45.00508" lon="3.75604">
        <ele>1044.6</ele>
        <time>2019-12-07T09:31:20Z</time>
      </trkpt>
      <trkpt lat="45.00508" lon="3.75616">
        <ele>1044.3</ele>
        <time>2019-12-07T09:31:21Z</time>
      </trkpt>
      <trkpt lat="45.00506" lon="3.75625">
        <ele>1044.2</ele>
        <time>2019-12-07T09:31:22Z</time>
      </trkpt>
      <trkpt lat="45.00505" lon="3.75635">
        <ele>1044</ele>
        <time>2019-12-07T09:31:23Z</time>
      </trkpt>
      <trkpt lat="45.00502" lon="3.75644">
        <ele>1043.9</ele>
        <time>2019-12-07T09:31:24Z</time>
      </trkpt>
      <trkpt lat="45.00499" lon="3.75653">
        <ele>1043.8</ele>
        <time>2019-12-07T09:31:25Z</time>
      </trkpt>
      <trkpt lat="45.00463" lon="3.75719">
        <ele>1042.8</ele>
        <time>2019-12-07T09:31:37Z</time>
      </trkpt>
      <trkpt lat="45.00432" lon="3.75769">
        <ele>1042</ele>
        <time>2019-12-07T09:31:45Z</time>
      </trkpt>
      <trkpt lat="45.00413" lon="3.75798">
        <ele>1041.3</ele>
        <time>2019-12-07T09:31:50Z</time>
      </trkpt>
      <trkpt lat="45.00409" lon="3.75804">
        <ele>1041.2</ele>
        <time>2019-12-07T09:31:51Z</time>
      </trkpt>
      <trkpt lat="45.00394" lon="3.75831">
        <ele>1040.6</ele>
        <time>2019-12-07T09:31:56Z</time>
      </trkpt>
      <trkpt lat="45.00392" lon="3.75838">
        <ele>1040.4</ele>
        <time>2019-12-07T09:31:57Z</time>
      </trkpt>
      <trkpt lat="45.00368" lon="3.75906">
        <ele>1038.5</ele>
        <time>2019-12-07T09:32:08Z</time>
      </trkpt>
      <trkpt lat="45.00366" lon="3.75911">
        <ele>1038.3</ele>
        <time>2019-12-07T09:32:09Z</time>
      </trkpt>
      <trkpt lat="45.00366" lon="3.75912">
        <ele>1038.2</ele>
        <time>2019-12-07T09:32:18Z</time>
      </trkpt>
      <trkpt lat="45.00366" lon="3.75919">
        <ele>1037.7</ele>
        <time>2019-12-07T09:32:32Z</time>
      </trkpt>
      <trkpt lat="45.00367" lon="3.75923">
        <ele>1037.6</ele>
        <time>2019-12-07T09:32:33Z</time>
      </trkpt>
      <trkpt lat="45.00368" lon="3.75928">
        <ele>1037.5</ele>
        <time>2019-12-07T09:32:34Z</time>
      </trkpt>
      <trkpt lat="45.0037" lon="3.75933">
        <ele>1037.4</ele>
        <time>2019-12-07T09:32:35Z</time>
      </trkpt>
      <trkpt lat="45.00373" lon="3.75937">
        <ele>1037.2</ele>
        <time>2019-12-07T09:32:36Z</time>
      </trkpt>
      <trkpt lat="45.00376" lon="3.75942">
        <ele>1037.1</ele>
        <time>2019-12-07T09:32:37Z</time>
      </trkpt>
      <trkpt lat="45.00384" lon="3.75952">
        <ele>1036.7</ele>
        <time>2019-12-07T09:32:39Z</time>
      </trkpt>
      <trkpt lat="45.00388" lon="3.75958">
        <ele>1036.5</ele>
        <time>2019-12-07T09:32:40Z</time>
      </trkpt>
      <trkpt lat="45.00426" lon="3.76028">
        <ele>1033.9</ele>
        <time>2019-12-07T09:32:49Z</time>
      </trkpt>
      <trkpt lat="45.0045" lon="3.76105">
        <ele>1030.4</ele>
        <time>2019-12-07T09:32:57Z</time>
      </trkpt>
      <trkpt lat="45.00464" lon="3.76169">
        <ele>1025.9</ele>
        <time>2019-12-07T09:33:03Z</time>
      </trkpt>
      <trkpt lat="45.00484" lon="3.76254">
        <ele>1027.7</ele>
        <time>2019-12-07T09:33:11Z</time>
      </trkpt>
      <trkpt lat="45.00504" lon="3.76342">
        <ele>1027.8</ele>
        <time>2019-12-07T09:33:19Z</time>
      </trkpt>
      <trkpt lat="45.00516" lon="3.76435">
        <ele>1025.8</ele>
        <time>2019-12-07T09:33:26Z</time>
      </trkpt>
      <trkpt lat="45.00525" lon="3.76525">
        <ele>1023.9</ele>
        <time>2019-12-07T09:33:32Z</time>
      </trkpt>
      <trkpt lat="45.00534" lon="3.7662">
        <ele>1020.1</ele>
        <time>2019-12-07T09:33:38Z</time>
      </trkpt>
      <trkpt lat="45.00548" lon="3.76695">
        <ele>1017.7</ele>
        <time>2019-12-07T09:33:43Z</time>
      </trkpt>
      <trkpt lat="45.00569" lon="3.76751">
        <ele>1018</ele>
        <time>2019-12-07T09:33:47Z</time>
      </trkpt>
      <trkpt lat="45.00586" lon="3.76792">
        <ele>1017</ele>
        <time>2019-12-07T09:33:50Z</time>
      </trkpt>
      <trkpt lat="45.00603" lon="3.76832">
        <ele>1013.9</ele>
        <time>2019-12-07T09:33:53Z</time>
      </trkpt>
      <trkpt lat="45.00624" lon="3.76884">
        <ele>1009</ele>
        <time>2019-12-07T09:33:57Z</time>
      </trkpt>
      <trkpt lat="45.00655" lon="3.76962">
        <ele>1006</ele>
        <time>2019-12-07T09:34:03Z</time>
      </trkpt>
      <trkpt lat="45.00675" lon="3.77012">
        <ele>1005</ele>
        <time>2019-12-07T09:34:07Z</time>
      </trkpt>
      <trkpt lat="45.00681" lon="3.77022">
        <ele>1004.5</ele>
        <time>2019-12-07T09:34:08Z</time>
      </trkpt>
      <trkpt lat="45.00689" lon="3.7703">
        <ele>1004.1</ele>
        <time>2019-12-07T09:34:09Z</time>
      </trkpt>
      <trkpt lat="45.00698" lon="3.77035">
        <ele>1003.8</ele>
        <time>2019-12-07T09:34:10Z</time>
      </trkpt>
      <trkpt lat="45.00707" lon="3.7704">
        <ele>1003.5</ele>
        <time>2019-12-07T09:34:11Z</time>
      </trkpt>
      <trkpt lat="45.00715" lon="3.77046">
        <ele>1003.3</ele>
        <time>2019-12-07T09:34:12Z</time>
      </trkpt>
      <trkpt lat="45.00732" lon="3.77055">
        <ele>1002.9</ele>
        <time>2019-12-07T09:34:14Z</time>
      </trkpt>
      <trkpt lat="45.00741" lon="3.77058">
        <ele>1002.8</ele>
        <time>2019-12-07T09:34:15Z</time>
      </trkpt>
      <trkpt lat="45.0075" lon="3.7706">
        <ele>1002.6</ele>
        <time>2019-12-07T09:34:16Z</time>
      </trkpt>
      <trkpt lat="45.00784" lon="3.77063">
        <ele>1001.1</ele>
        <time>2019-12-07T09:34:20Z</time>
      </trkpt>
      <trkpt lat="45.00792" lon="3.77066">
        <ele>1000.8</ele>
        <time>2019-12-07T09:34:21Z</time>
      </trkpt>
      <trkpt lat="45.00799" lon="3.77072">
        <ele>1000.8</ele>
        <time>2019-12-07T09:34:22Z</time>
      </trkpt>
      <trkpt lat="45.00805" lon="3.7708">
        <ele>1000.8</ele>
        <time>2019-12-07T09:34:23Z</time>
      </trkpt>
      <trkpt lat="45.0081" lon="3.77089">
        <ele>1000.7</ele>
        <time>2019-12-07T09:34:24Z</time>
      </trkpt>
      <trkpt lat="45.00813" lon="3.77099">
        <ele>1000.6</ele>
        <time>2019-12-07T09:34:25Z</time>
      </trkpt>
      <trkpt lat="45.00817" lon="3.7711">
        <ele>1000.5</ele>
        <time>2019-12-07T09:34:26Z</time>
      </trkpt>
      <trkpt lat="45.00845" lon="3.77183">
        <ele>998.7</ele>
        <time>2019-12-07T09:34:33Z</time>
      </trkpt>
      <trkpt lat="45.00883" lon="3.77259">
        <ele>996.3</ele>
        <time>2019-12-07T09:34:40Z</time>
      </trkpt>
      <trkpt lat="45.00899" lon="3.77305">
        <ele>993.1</ele>
        <time>2019-12-07T09:34:44Z</time>
      </trkpt>
      <trkpt lat="45.00909" lon="3.77328">
        <ele>991.4</ele>
        <time>2019-12-07T09:34:47Z</time>
      </trkpt>
      <trkpt lat="45.00913" lon="3.77335">
        <ele>991.1</ele>
        <time>2019-12-07T09:34:48Z</time>
      </trkpt>
      <trkpt lat="45.00919" lon="3.77342">
        <ele>990.6</ele>
        <time>2019-12-07T09:34:49Z</time>
      </trkpt>
      <trkpt lat="45.0095" lon="3.77369">
        <ele>987.3</ele>
        <time>2019-12-07T09:34:53Z</time>
      </trkpt>
      <trkpt lat="45.0096" lon="3.77374">
        <ele>986.4</ele>
        <time>2019-12-07T09:34:54Z</time>
      </trkpt>
      <trkpt lat="45.00998" lon="3.77388">
        <ele>983.9</ele>
        <time>2019-12-07T09:34:58Z</time>
      </trkpt>
      <trkpt lat="45.01018" lon="3.77396">
        <ele>982.8</ele>
        <time>2019-12-07T09:35:01Z</time>
      </trkpt>
      <trkpt lat="45.01032" lon="3.77407">
        <ele>981.6</ele>
        <time>2019-12-07T09:35:05Z</time>
      </trkpt>
      <trkpt lat="45.01034" lon="3.77417">
        <ele>981.3</ele>
        <time>2019-12-07T09:35:07Z</time>
      </trkpt>
      <trkpt lat="45.01034" lon="3.77423">
        <ele>981</ele>
        <time>2019-12-07T09:35:08Z</time>
      </trkpt>
      <trkpt lat="45.01033" lon="3.77429">
        <ele>980.8</ele>
        <time>2019-12-07T09:35:09Z</time>
      </trkpt>
      <trkpt lat="45.01032" lon="3.77436">
        <ele>980.5</ele>
        <time>2019-12-07T09:35:10Z</time>
      </trkpt>
      <trkpt lat="45.0103" lon="3.77443">
        <ele>980.2</ele>
        <time>2019-12-07T09:35:11Z</time>
      </trkpt>
      <trkpt lat="45.01021" lon="3.77492">
        <ele>979.2</ele>
        <time>2019-12-07T09:35:17Z</time>
      </trkpt>
      <trkpt lat="45.01015" lon="3.77507">
        <ele>979</ele>
        <time>2019-12-07T09:35:19Z</time>
      </trkpt>
      <trkpt lat="45.01013" lon="3.77516">
        <ele>978.8</ele>
        <time>2019-12-07T09:35:20Z</time>
      </trkpt>
      <trkpt lat="45.0101" lon="3.77525">
        <ele>978.6</ele>
        <time>2019-12-07T09:35:21Z</time>
      </trkpt>
      <trkpt lat="45.01006" lon="3.77532">
        <ele>978.4</ele>
        <time>2019-12-07T09:35:22Z</time>
      </trkpt>
      <trkpt lat="45.01" lon="3.77537">
        <ele>978.5</ele>
        <time>2019-12-07T09:35:23Z</time>
      </trkpt>
      <trkpt lat="45.00995" lon="3.77543">
        <ele>978.6</ele>
        <time>2019-12-07T09:35:24Z</time>
      </trkpt>
      <trkpt lat="45.0099" lon="3.7755">
        <ele>978.6</ele>
        <time>2019-12-07T09:35:25Z</time>
      </trkpt>
      <trkpt lat="45.00985" lon="3.77558">
        <ele>978.6</ele>
        <time>2019-12-07T09:35:26Z</time>
      </trkpt>
      <trkpt lat="45.00981" lon="3.77566">
        <ele>978.7</ele>
        <time>2019-12-07T09:35:27Z</time>
      </trkpt>
      <trkpt lat="45.00977" lon="3.77573">
        <ele>978.7</ele>
        <time>2019-12-07T09:35:28Z</time>
      </trkpt>
      <trkpt lat="45.00971" lon="3.77578">
        <ele>978.6</ele>
        <time>2019-12-07T09:35:29Z</time>
      </trkpt>
      <trkpt lat="45.00967" lon="3.77581">
        <ele>978.6</ele>
        <time>2019-12-07T09:35:30Z</time>
      </trkpt>
      <trkpt lat="45.00965" lon="3.77584">
        <ele>978.6</ele>
        <time>2019-12-07T09:35:31Z</time>
      </trkpt>
      <trkpt lat="45.00963" lon="3.77587">
        <ele>978.6</ele>
        <time>2019-12-07T09:35:32Z</time>
      </trkpt>
      <trkpt lat="45.00961" lon="3.77588">
        <ele>978.6</ele>
        <time>2019-12-07T09:35:39Z</time>
      </trkpt>
      <trkpt lat="45.00961" lon="3.77585">
        <ele>978.6</ele>
        <time>2019-12-07T09:35:57Z</time>
      </trkpt>
      <trkpt lat="45.0096" lon="3.77588">
        <ele>978.6</ele>
        <time>2019-12-07T09:35:59Z</time>
      </trkpt>
      <trkpt lat="45.0096" lon="3.77588">
        <ele>978.6</ele>
        <time>2019-12-07T09:36:00Z</time>
      </trkpt>
      <trkpt lat="45.00959" lon="3.77588">
        <ele>978.6</ele>
        <time>2019-12-07T09:36:02Z</time>
      </trkpt>
      <trkpt lat="45.00959" lon="3.77588">
        <ele>978.6</ele>
        <time>2019-12-07T09:36:04Z</time>
      </trkpt>
      <trkpt lat="45.00964" lon="3.77577">
        <ele>978.6</ele>
        <time>2019-12-07T09:41:52Z</time>
      </trkpt>
      <trkpt lat="45.00965" lon="3.77577">
        <ele>978.6</ele>
        <time>2019-12-07T09:41:53Z</time>
      </trkpt>
      <trkpt lat="45.00967" lon="3.77577">
        <ele>978.6</ele>
        <time>2019-12-07T09:41:54Z</time>
      </trkpt>
      <trkpt lat="45.00969" lon="3.77577">
        <ele>978.7</ele>
        <time>2019-12-07T09:41:55Z</time>
      </trkpt>
      <trkpt lat="45.0097" lon="3.77577">
        <ele>978.7</ele>
        <time>2019-12-07T09:41:56Z</time>
      </trkpt>
      <trkpt lat="45.00972" lon="3.77578">
        <ele>978.7</ele>
        <time>2019-12-07T09:41:57Z</time>
      </trkpt>
      <trkpt lat="45.00973" lon="3.77578">
        <ele>978.7</ele>
        <time>2019-12-07T09:41:58Z</time>
      </trkpt>
      <trkpt lat="45.00975" lon="3.77577">
        <ele>978.7</ele>
        <time>2019-12-07T09:41:59Z</time>
      </trkpt>
      <trkpt lat="45.00976" lon="3.77577">
        <ele>978.7</ele>
        <time>2019-12-07T09:42:00Z</time>
      </trkpt>
      <trkpt lat="45.00978" lon="3.77577">
        <ele>978.7</ele>
        <time>2019-12-07T09:42:01Z</time>
      </trkpt>
      <trkpt lat="45.00979" lon="3.77578">
        <ele>978.7</ele>
        <time>2019-12-07T09:42:02Z</time>
      </trkpt>
      <trkpt lat="45.00978" lon="3.77579">
        <ele>978.7</ele>
        <time>2019-12-07T09:42:08Z</time>
      </trkpt>
      <trkpt lat="45.00972" lon="3.77588">
        <ele>978.6</ele>
        <time>2019-12-07T09:42:55Z</time>
      </trkpt>
      <trkpt lat="45.00971" lon="3.7759">
        <ele>978.6</ele>
        <time>2019-12-07T09:42:56Z</time>
      </trkpt>
      <trkpt lat="45.00969" lon="3.77591">
        <ele>978.6</ele>
        <time>2019-12-07T09:42:57Z</time>
      </trkpt>
      <trkpt lat="45.00962" lon="3.77596">
        <ele>977.9</ele>
        <time>2019-12-07T09:43:02Z</time>
      </trkpt>
      <trkpt lat="45.00961" lon="3.77598">
        <ele>977.8</ele>
        <time>2019-12-07T09:43:03Z</time>
      </trkpt>
      <trkpt lat="45.0096" lon="3.77601">
        <ele>977.7</ele>
        <time>2019-12-07T09:43:04Z</time>
      </trkpt>
      <trkpt lat="45.00944" lon="3.77642">
        <ele>975.9</ele>
        <time>2019-12-07T09:43:15Z</time>
      </trkpt>
      <trkpt lat="45.00936" lon="3.77656">
        <ele>975.4</ele>
        <time>2019-12-07T09:43:19Z</time>
      </trkpt>
      <trkpt lat="45.00934" lon="3.77684">
        <ele>974.6</ele>
        <time>2019-12-07T09:43:25Z</time>
      </trkpt>
      <trkpt lat="45.00935" lon="3.77689">
        <ele>974.3</ele>
        <time>2019-12-07T09:43:26Z</time>
      </trkpt>
      <trkpt lat="45.00951" lon="3.77759">
        <ele>970.5</ele>
        <time>2019-12-07T09:43:38Z</time>
      </trkpt>
      <trkpt lat="45.00952" lon="3.77766">
        <ele>970.2</ele>
        <time>2019-12-07T09:43:39Z</time>
      </trkpt>
      <trkpt lat="45.00971" lon="3.77855">
        <ele>966.8</ele>
        <time>2019-12-07T09:43:49Z</time>
      </trkpt>
      <trkpt lat="45.00984" lon="3.77936">
        <ele>965.2</ele>
        <time>2019-12-07T09:43:57Z</time>
      </trkpt>
      <trkpt lat="45.01001" lon="3.78024">
        <ele>962.3</ele>
        <time>2019-12-07T09:44:05Z</time>
      </trkpt>
      <trkpt lat="45.01016" lon="3.78113">
        <ele>959.6</ele>
        <time>2019-12-07T09:44:13Z</time>
      </trkpt>
      <trkpt lat="45.01023" lon="3.78197">
        <ele>958</ele>
        <time>2019-12-07T09:44:21Z</time>
      </trkpt>
      <trkpt lat="45.01026" lon="3.78249">
        <ele>957.4</ele>
        <time>2019-12-07T09:44:26Z</time>
      </trkpt>
      <trkpt lat="45.01031" lon="3.78314">
        <ele>955.9</ele>
        <time>2019-12-07T09:44:32Z</time>
      </trkpt>
      <trkpt lat="45.01037" lon="3.78401">
        <ele>953.1</ele>
        <time>2019-12-07T09:44:40Z</time>
      </trkpt>
      <trkpt lat="45.01045" lon="3.78469">
        <ele>950.9</ele>
        <time>2019-12-07T09:44:48Z</time>
      </trkpt>
      <trkpt lat="45.01045" lon="3.78476">
        <ele>950.6</ele>
        <time>2019-12-07T09:44:49Z</time>
      </trkpt>
      <trkpt lat="45.0105" lon="3.78517">
        <ele>949.3</ele>
        <time>2019-12-07T09:44:54Z</time>
      </trkpt>
      <trkpt lat="45.01053" lon="3.78527">
        <ele>948.7</ele>
        <time>2019-12-07T09:44:55Z</time>
      </trkpt>
      <trkpt lat="45.01056" lon="3.78535">
        <ele>948.4</ele>
        <time>2019-12-07T09:44:56Z</time>
      </trkpt>
      <trkpt lat="45.01061" lon="3.78543">
        <ele>948.1</ele>
        <time>2019-12-07T09:44:57Z</time>
      </trkpt>
      <trkpt lat="45.011" lon="3.78598">
        <ele>945.8</ele>
        <time>2019-12-07T09:45:04Z</time>
      </trkpt>
      <trkpt lat="45.01121" lon="3.78631">
        <ele>944.6</ele>
        <time>2019-12-07T09:45:08Z</time>
      </trkpt>
      <trkpt lat="45.01133" lon="3.7866">
        <ele>943.9</ele>
        <time>2019-12-07T09:45:11Z</time>
      </trkpt>
      <trkpt lat="45.01136" lon="3.78671">
        <ele>943.7</ele>
        <time>2019-12-07T09:45:12Z</time>
      </trkpt>
      <trkpt lat="45.01138" lon="3.78682">
        <ele>943.5</ele>
        <time>2019-12-07T09:45:13Z</time>
      </trkpt>
      <trkpt lat="45.01148" lon="3.78739">
        <ele>942.6</ele>
        <time>2019-12-07T09:45:18Z</time>
      </trkpt>
      <trkpt lat="45.01149" lon="3.78759">
        <ele>942</ele>
        <time>2019-12-07T09:45:20Z</time>
      </trkpt>
      <trkpt lat="45.01149" lon="3.78768">
        <ele>941.7</ele>
        <time>2019-12-07T09:45:21Z</time>
      </trkpt>
      <trkpt lat="45.01148" lon="3.78775">
        <ele>941.7</ele>
        <time>2019-12-07T09:45:22Z</time>
      </trkpt>
      <trkpt lat="45.01145" lon="3.7879">
        <ele>941.6</ele>
        <time>2019-12-07T09:45:24Z</time>
      </trkpt>
      <trkpt lat="45.01146" lon="3.78798">
        <ele>941.5</ele>
        <time>2019-12-07T09:45:25Z</time>
      </trkpt>
      <trkpt lat="45.01146" lon="3.78806">
        <ele>941.4</ele>
        <time>2019-12-07T09:45:26Z</time>
      </trkpt>
      <trkpt lat="45.01148" lon="3.78814">
        <ele>941.2</ele>
        <time>2019-12-07T09:45:27Z</time>
      </trkpt>
      <trkpt lat="45.01149" lon="3.78823">
        <ele>941.1</ele>
        <time>2019-12-07T09:45:28Z</time>
      </trkpt>
      <trkpt lat="45.0115" lon="3.78831">
        <ele>941</ele>
        <time>2019-12-07T09:45:29Z</time>
      </trkpt>
      <trkpt lat="45.01151" lon="3.7884">
        <ele>940.9</ele>
        <time>2019-12-07T09:45:30Z</time>
      </trkpt>
      <trkpt lat="45.01151" lon="3.78903">
        <ele>940</ele>
        <time>2019-12-07T09:45:37Z</time>
      </trkpt>
      <trkpt lat="45.01153" lon="3.78945">
        <ele>939.6</ele>
        <time>2019-12-07T09:45:41Z</time>
      </trkpt>
      <trkpt lat="45.01155" lon="3.7899">
        <ele>938.8</ele>
        <time>2019-12-07T09:45:45Z</time>
      </trkpt>
      <trkpt lat="45.01158" lon="3.79027">
        <ele>937.9</ele>
        <time>2019-12-07T09:45:48Z</time>
      </trkpt>
      <trkpt lat="45.0116" lon="3.79038">
        <ele>937.3</ele>
        <time>2019-12-07T09:45:49Z</time>
      </trkpt>
      <trkpt lat="45.01164" lon="3.79048">
        <ele>937.1</ele>
        <time>2019-12-07T09:45:50Z</time>
      </trkpt>
      <trkpt lat="45.01171" lon="3.79067">
        <ele>936.7</ele>
        <time>2019-12-07T09:45:52Z</time>
      </trkpt>
      <trkpt lat="45.01194" lon="3.79112">
        <ele>936.1</ele>
        <time>2019-12-07T09:45:57Z</time>
      </trkpt>
      <trkpt lat="45.01216" lon="3.79172">
        <ele>933.7</ele>
        <time>2019-12-07T09:46:03Z</time>
      </trkpt>
      <trkpt lat="45.01236" lon="3.79231">
        <ele>930.5</ele>
        <time>2019-12-07T09:46:09Z</time>
      </trkpt>
      <trkpt lat="45.01263" lon="3.79276">
        <ele>928.2</ele>
        <time>2019-12-07T09:46:14Z</time>
      </trkpt>
      <trkpt lat="45.01287" lon="3.79316">
        <ele>924.6</ele>
        <time>2019-12-07T09:46:18Z</time>
      </trkpt>
      <trkpt lat="45.01322" lon="3.7936">
        <ele>921</ele>
        <time>2019-12-07T09:46:23Z</time>
      </trkpt>
      <trkpt lat="45.01355" lon="3.79405">
        <ele>918.4</ele>
        <time>2019-12-07T09:46:28Z</time>
      </trkpt>
      <trkpt lat="45.01393" lon="3.79472">
        <ele>915.6</ele>
        <time>2019-12-07T09:46:35Z</time>
      </trkpt>
      <trkpt lat="45.01397" lon="3.79482">
        <ele>915.2</ele>
        <time>2019-12-07T09:46:36Z</time>
      </trkpt>
      <trkpt lat="45.014" lon="3.79492">
        <ele>914.6</ele>
        <time>2019-12-07T09:46:37Z</time>
      </trkpt>
      <trkpt lat="45.01402" lon="3.79503">
        <ele>914.1</ele>
        <time>2019-12-07T09:46:38Z</time>
      </trkpt>
      <trkpt lat="45.0141" lon="3.79591">
        <ele>911.5</ele>
        <time>2019-12-07T09:46:46Z</time>
      </trkpt>
      <trkpt lat="45.01409" lon="3.79602">
        <ele>911.3</ele>
        <time>2019-12-07T09:46:47Z</time>
      </trkpt>
      <trkpt lat="45.01407" lon="3.79612">
        <ele>910.9</ele>
        <time>2019-12-07T09:46:48Z</time>
      </trkpt>
      <trkpt lat="45.014" lon="3.79665">
        <ele>909.5</ele>
        <time>2019-12-07T09:46:53Z</time>
      </trkpt>
      <trkpt lat="45.01401" lon="3.79675">
        <ele>908.9</ele>
        <time>2019-12-07T09:46:54Z</time>
      </trkpt>
      <trkpt lat="45.01402" lon="3.79685">
        <ele>908.6</ele>
        <time>2019-12-07T09:46:55Z</time>
      </trkpt>
      <trkpt lat="45.01404" lon="3.79695">
        <ele>908.2</ele>
        <time>2019-12-07T09:46:56Z</time>
      </trkpt>
      <trkpt lat="45.01406" lon="3.79705">
        <ele>908</ele>
        <time>2019-12-07T09:46:57Z</time>
      </trkpt>
      <trkpt lat="45.01409" lon="3.79714">
        <ele>907.8</ele>
        <time>2019-12-07T09:46:58Z</time>
      </trkpt>
      <trkpt lat="45.01418" lon="3.79743">
        <ele>906.6</ele>
        <time>2019-12-07T09:47:01Z</time>
      </trkpt>
      <trkpt lat="45.01423" lon="3.79831">
        <ele>903.6</ele>
        <time>2019-12-07T09:47:10Z</time>
      </trkpt>
      <trkpt lat="45.01423" lon="3.79838">
        <ele>903.2</ele>
        <time>2019-12-07T09:47:11Z</time>
      </trkpt>
      <trkpt lat="45.01424" lon="3.79845">
        <ele>903.1</ele>
        <time>2019-12-07T09:47:12Z</time>
      </trkpt>
      <trkpt lat="45.01424" lon="3.79851">
        <ele>903.1</ele>
        <time>2019-12-07T09:47:13Z</time>
      </trkpt>
      <trkpt lat="45.01425" lon="3.79866">
        <ele>902.9</ele>
        <time>2019-12-07T09:47:15Z</time>
      </trkpt>
      <trkpt lat="45.01425" lon="3.79875">
        <ele>902.3</ele>
        <time>2019-12-07T09:47:16Z</time>
      </trkpt>
      <trkpt lat="45.01426" lon="3.79884">
        <ele>901.9</ele>
        <time>2019-12-07T09:47:17Z</time>
      </trkpt>
      <trkpt lat="45.01427" lon="3.79892">
        <ele>901.1</ele>
        <time>2019-12-07T09:47:18Z</time>
      </trkpt>
      <trkpt lat="45.01428" lon="3.79909">
        <ele>900.1</ele>
        <time>2019-12-07T09:47:20Z</time>
      </trkpt>
      <trkpt lat="45.01427" lon="3.79916">
        <ele>899.8</ele>
        <time>2019-12-07T09:47:21Z</time>
      </trkpt>
      <trkpt lat="45.01426" lon="3.79923">
        <ele>899.7</ele>
        <time>2019-12-07T09:47:22Z</time>
      </trkpt>
      <trkpt lat="45.01427" lon="3.79929">
        <ele>899.6</ele>
        <time>2019-12-07T09:47:23Z</time>
      </trkpt>
      <trkpt lat="45.01429" lon="3.79935">
        <ele>899.3</ele>
        <time>2019-12-07T09:47:24Z</time>
      </trkpt>
      <trkpt lat="45.01432" lon="3.7994">
        <ele>899.2</ele>
        <time>2019-12-07T09:47:25Z</time>
      </trkpt>
      <trkpt lat="45.01436" lon="3.79944">
        <ele>899.2</ele>
        <time>2019-12-07T09:47:26Z</time>
      </trkpt>
      <trkpt lat="45.0144" lon="3.79948">
        <ele>899.1</ele>
        <time>2019-12-07T09:47:27Z</time>
      </trkpt>
      <trkpt lat="45.01444" lon="3.79951">
        <ele>899</ele>
        <time>2019-12-07T09:47:28Z</time>
      </trkpt>
      <trkpt lat="45.01449" lon="3.79955">
        <ele>898.9</ele>
        <time>2019-12-07T09:47:29Z</time>
      </trkpt>
      <trkpt lat="45.01458" lon="3.79964">
        <ele>898.6</ele>
        <time>2019-12-07T09:47:31Z</time>
      </trkpt>
      <trkpt lat="45.01463" lon="3.7997">
        <ele>898.5</ele>
        <time>2019-12-07T09:47:32Z</time>
      </trkpt>
      <trkpt lat="45.01475" lon="3.79989">
        <ele>897.9</ele>
        <time>2019-12-07T09:47:35Z</time>
      </trkpt>
      <trkpt lat="45.01487" lon="3.8001">
        <ele>897.3</ele>
        <time>2019-12-07T09:47:38Z</time>
      </trkpt>
      <trkpt lat="45.01516" lon="3.80069">
        <ele>895.8</ele>
        <time>2019-12-07T09:47:46Z</time>
      </trkpt>
      <trkpt lat="45.01521" lon="3.80075">
        <ele>895.7</ele>
        <time>2019-12-07T09:47:47Z</time>
      </trkpt>
      <trkpt lat="45.01551" lon="3.80112">
        <ele>895.1</ele>
        <time>2019-12-07T09:47:54Z</time>
      </trkpt>
      <trkpt lat="45.01555" lon="3.80116">
        <ele>895</ele>
        <time>2019-12-07T09:47:55Z</time>
      </trkpt>
      <trkpt lat="45.01599" lon="3.80176">
        <ele>894.9</ele>
        <time>2019-12-07T09:48:06Z</time>
      </trkpt>
      <trkpt lat="45.01611" lon="3.80195">
        <ele>894.8</ele>
        <time>2019-12-07T09:48:09Z</time>
      </trkpt>
      <trkpt lat="45.01623" lon="3.80212">
        <ele>894.6</ele>
        <time>2019-12-07T09:48:12Z</time>
      </trkpt>
      <trkpt lat="45.01645" lon="3.80242">
        <ele>894.2</ele>
        <time>2019-12-07T09:48:17Z</time>
      </trkpt>
      <trkpt lat="45.01663" lon="3.80264">
        <ele>894</ele>
        <time>2019-12-07T09:48:21Z</time>
      </trkpt>
      <trkpt lat="45.01678" lon="3.80277">
        <ele>893.6</ele>
        <time>2019-12-07T09:48:24Z</time>
      </trkpt>
      <trkpt lat="45.01682" lon="3.80282">
        <ele>893.5</ele>
        <time>2019-12-07T09:48:25Z</time>
      </trkpt>
      <trkpt lat="45.01686" lon="3.80289">
        <ele>893.3</ele>
        <time>2019-12-07T09:48:26Z</time>
      </trkpt>
      <trkpt lat="45.0169" lon="3.80295">
        <ele>893.1</ele>
        <time>2019-12-07T09:48:27Z</time>
      </trkpt>
      <trkpt lat="45.01693" lon="3.80302">
        <ele>892.9</ele>
        <time>2019-12-07T09:48:28Z</time>
      </trkpt>
      <trkpt lat="45.01712" lon="3.80341">
        <ele>891.6</ele>
        <time>2019-12-07T09:48:34Z</time>
      </trkpt>
      <trkpt lat="45.01733" lon="3.80383">
        <ele>890.4</ele>
        <time>2019-12-07T09:48:40Z</time>
      </trkpt>
      <trkpt lat="45.01736" lon="3.8039">
        <ele>890.1</ele>
        <time>2019-12-07T09:48:41Z</time>
      </trkpt>
      <trkpt lat="45.01739" lon="3.80397">
        <ele>889.9</ele>
        <time>2019-12-07T09:48:42Z</time>
      </trkpt>
      <trkpt lat="45.01747" lon="3.8041">
        <ele>889.4</ele>
        <time>2019-12-07T09:48:44Z</time>
      </trkpt>
      <trkpt lat="45.01782" lon="3.80465">
        <ele>888.2</ele>
        <time>2019-12-07T09:48:53Z</time>
      </trkpt>
      <trkpt lat="45.01787" lon="3.8047">
        <ele>888.1</ele>
        <time>2019-12-07T09:48:54Z</time>
      </trkpt>
      <trkpt lat="45.01823" lon="3.80501">
        <ele>886.1</ele>
        <time>2019-12-07T09:49:01Z</time>
      </trkpt>
      <trkpt lat="45.01834" lon="3.8051">
        <ele>885.2</ele>
        <time>2019-12-07T09:49:03Z</time>
      </trkpt>
      <trkpt lat="45.01879" lon="3.80543">
        <ele>882.7</ele>
        <time>2019-12-07T09:49:11Z</time>
      </trkpt>
      <trkpt lat="45.01884" lon="3.80547">
        <ele>882.5</ele>
        <time>2019-12-07T09:49:12Z</time>
      </trkpt>
      <trkpt lat="45.01899" lon="3.80559">
        <ele>881.7</ele>
        <time>2019-12-07T09:49:15Z</time>
      </trkpt>
      <trkpt lat="45.01917" lon="3.80574">
        <ele>880.6</ele>
        <time>2019-12-07T09:49:19Z</time>
      </trkpt>
      <trkpt lat="45.01936" lon="3.80592">
        <ele>879.4</ele>
        <time>2019-12-07T09:49:23Z</time>
      </trkpt>
      <trkpt lat="45.01943" lon="3.80597">
        <ele>878.8</ele>
        <time>2019-12-07T09:49:25Z</time>
      </trkpt>
      <trkpt lat="45.01953" lon="3.80604">
        <ele>878.6</ele>
        <time>2019-12-07T09:49:29Z</time>
      </trkpt>
      <trkpt lat="45.01956" lon="3.80606">
        <ele>878.6</ele>
        <time>2019-12-07T09:49:31Z</time>
      </trkpt>
      <trkpt lat="45.01958" lon="3.80607">
        <ele>878.6</ele>
        <time>2019-12-07T09:49:32Z</time>
      </trkpt>
      <trkpt lat="45.01963" lon="3.80615">
        <ele>878.4</ele>
        <time>2019-12-07T09:49:35Z</time>
      </trkpt>
      <trkpt lat="45.01968" lon="3.8065">
        <ele>877.8</ele>
        <time>2019-12-07T09:49:43Z</time>
      </trkpt>
      <trkpt lat="45.01965" lon="3.80666">
        <ele>877.6</ele>
        <time>2019-12-07T09:49:54Z</time>
      </trkpt>
      <trkpt lat="45.01973" lon="3.80708">
        <ele>878.1</ele>
        <time>2019-12-07T09:50:25Z</time>
      </trkpt>
      <trkpt lat="45.01973" lon="3.8071">
        <ele>878.2</ele>
        <time>2019-12-07T09:50:26Z</time>
      </trkpt>
      <trkpt lat="45.01973" lon="3.80711">
        <ele>878.2</ele>
        <time>2019-12-07T09:50:27Z</time>
      </trkpt>
      <trkpt lat="45.01973" lon="3.80712">
        <ele>878.2</ele>
        <time>2019-12-07T09:50:32Z</time>
      </trkpt>
      <trkpt lat="45.01973" lon="3.80717">
        <ele>878.4</ele>
        <time>2019-12-07T09:50:36Z</time>
      </trkpt>
      <trkpt lat="45.01973" lon="3.80719">
        <ele>878.5</ele>
        <time>2019-12-07T09:50:37Z</time>
      </trkpt>
      <trkpt lat="45.01973" lon="3.80721">
        <ele>878.5</ele>
        <time>2019-12-07T09:50:38Z</time>
      </trkpt>
      <trkpt lat="45.01974" lon="3.80723">
        <ele>878.6</ele>
        <time>2019-12-07T09:50:39Z</time>
      </trkpt>
      <trkpt lat="45.01976" lon="3.80725">
        <ele>878.7</ele>
        <time>2019-12-07T09:50:40Z</time>
      </trkpt>
      <trkpt lat="45.01976" lon="3.80728">
        <ele>878.8</ele>
        <time>2019-12-07T09:50:41Z</time>
      </trkpt>
      <trkpt lat="45.01977" lon="3.80731">
        <ele>879</ele>
        <time>2019-12-07T09:50:42Z</time>
      </trkpt>
      <trkpt lat="45.01977" lon="3.80735">
        <ele>879.2</ele>
        <time>2019-12-07T09:50:43Z</time>
      </trkpt>
      <trkpt lat="45.01976" lon="3.80746">
        <ele>879.7</ele>
        <time>2019-12-07T09:50:46Z</time>
      </trkpt>
      <trkpt lat="45.01973" lon="3.80759">
        <ele>880.2</ele>
        <time>2019-12-07T09:50:50Z</time>
      </trkpt>
      <trkpt lat="45.0197" lon="3.80773">
        <ele>880.6</ele>
        <time>2019-12-07T09:50:54Z</time>
      </trkpt>
      <trkpt lat="45.01966" lon="3.80788">
        <ele>881</ele>
        <time>2019-12-07T09:50:58Z</time>
      </trkpt>
      <trkpt lat="45.01965" lon="3.80791">
        <ele>881.1</ele>
        <time>2019-12-07T09:50:59Z</time>
      </trkpt>
      <trkpt lat="45.01965" lon="3.80795">
        <ele>881.2</ele>
        <time>2019-12-07T09:51:00Z</time>
      </trkpt>
      <trkpt lat="45.01964" lon="3.80803">
        <ele>881.3</ele>
        <time>2019-12-07T09:51:02Z</time>
      </trkpt>
      <trkpt lat="45.01954" lon="3.80848">
        <ele>881.9</ele>
        <time>2019-12-07T09:51:16Z</time>
      </trkpt>
      <trkpt lat="45.01949" lon="3.80851">
        <ele>882</ele>
        <time>2019-12-07T09:51:18Z</time>
      </trkpt>
      <trkpt lat="45.01914" lon="3.80909">
        <ele>881.9</ele>
        <time>2019-12-07T09:51:40Z</time>
      </trkpt>
      <trkpt lat="45.01912" lon="3.80923">
        <ele>881.7</ele>
        <time>2019-12-07T09:51:44Z</time>
      </trkpt>
      <trkpt lat="45.01907" lon="3.80952">
        <ele>881.3</ele>
        <time>2019-12-07T09:51:55Z</time>
      </trkpt>
      <trkpt lat="45.01906" lon="3.80955">
        <ele>881.3</ele>
        <time>2019-12-07T09:51:57Z</time>
      </trkpt>
      <trkpt lat="45.019" lon="3.8102">
        <ele>881.1</ele>
        <time>2019-12-07T09:52:20Z</time>
      </trkpt>
      <trkpt lat="45.019" lon="3.81026">
        <ele>881.1</ele>
        <time>2019-12-07T09:52:22Z</time>
      </trkpt>
      <trkpt lat="45.01906" lon="3.81088">
        <ele>881.2</ele>
        <time>2019-12-07T09:52:51Z</time>
      </trkpt>
      <trkpt lat="45.01909" lon="3.81097">
        <ele>881.2</ele>
        <time>2019-12-07T09:52:54Z</time>
      </trkpt>
      <trkpt lat="45.01912" lon="3.81106">
        <ele>881.2</ele>
        <time>2019-12-07T09:52:57Z</time>
      </trkpt>
      <trkpt lat="45.01918" lon="3.81137">
        <ele>881.2</ele>
        <time>2019-12-07T09:53:05Z</time>
      </trkpt>
      <trkpt lat="45.01922" lon="3.81159">
        <ele>881.2</ele>
        <time>2019-12-07T09:53:12Z</time>
      </trkpt>
      <trkpt lat="45.01922" lon="3.81166">
        <ele>881.2</ele>
        <time>2019-12-07T09:53:14Z</time>
      </trkpt>
      <trkpt lat="45.01923" lon="3.81189">
        <ele>881.3</ele>
        <time>2019-12-07T09:53:20Z</time>
      </trkpt>
      <trkpt lat="45.01929" lon="3.81217">
        <ele>881.2</ele>
        <time>2019-12-07T09:53:27Z</time>
      </trkpt>
      <trkpt lat="45.01938" lon="3.81251">
        <ele>880.8</ele>
        <time>2019-12-07T09:53:35Z</time>
      </trkpt>
      <trkpt lat="45.0195" lon="3.81313">
        <ele>879.1</ele>
        <time>2019-12-07T09:53:48Z</time>
      </trkpt>
      <trkpt lat="45.01955" lon="3.81348">
        <ele>878.1</ele>
        <time>2019-12-07T09:53:54Z</time>
      </trkpt>
      <trkpt lat="45.01964" lon="3.81403">
        <ele>877.2</ele>
        <time>2019-12-07T09:54:03Z</time>
      </trkpt>
      <trkpt lat="45.01965" lon="3.81409">
        <ele>877.2</ele>
        <time>2019-12-07T09:54:04Z</time>
      </trkpt>
      <trkpt lat="45.01967" lon="3.81428">
        <ele>877.1</ele>
        <time>2019-12-07T09:54:07Z</time>
      </trkpt>
      <trkpt lat="45.01975" lon="3.81509">
        <ele>876.1</ele>
        <time>2019-12-07T09:54:19Z</time>
      </trkpt>
      <trkpt lat="45.01977" lon="3.81522">
        <ele>876</ele>
        <time>2019-12-07T09:54:21Z</time>
      </trkpt>
      <trkpt lat="45.01976" lon="3.81528">
        <ele>875.9</ele>
        <time>2019-12-07T09:54:22Z</time>
      </trkpt>
      <trkpt lat="45.01975" lon="3.81534">
        <ele>875.9</ele>
        <time>2019-12-07T09:54:23Z</time>
      </trkpt>
      <trkpt lat="45.01972" lon="3.81538">
        <ele>875.8</ele>
        <time>2019-12-07T09:54:24Z</time>
      </trkpt>
      <trkpt lat="45.0197" lon="3.81542">
        <ele>875.8</ele>
        <time>2019-12-07T09:54:25Z</time>
      </trkpt>
      <trkpt lat="45.01967" lon="3.81545">
        <ele>875.8</ele>
        <time>2019-12-07T09:54:26Z</time>
      </trkpt>
      <trkpt lat="45.01963" lon="3.81548">
        <ele>875.8</ele>
        <time>2019-12-07T09:54:27Z</time>
      </trkpt>
      <trkpt lat="45.01946" lon="3.81617">
        <ele>874.8</ele>
        <time>2019-12-07T09:54:44Z</time>
      </trkpt>
      <trkpt lat="45.01947" lon="3.8162">
        <ele>874.8</ele>
        <time>2019-12-07T09:54:48Z</time>
      </trkpt>
      <trkpt lat="45.01949" lon="3.81621">
        <ele>874.8</ele>
        <time>2019-12-07T09:54:49Z</time>
      </trkpt>
      <trkpt lat="45.0195" lon="3.81621">
        <ele>874.8</ele>
        <time>2019-12-07T09:54:50Z</time>
      </trkpt>
      <trkpt lat="45.01952" lon="3.81622">
        <ele>874.9</ele>
        <time>2019-12-07T09:54:51Z</time>
      </trkpt>
      <trkpt lat="45.01955" lon="3.81624">
        <ele>874.9</ele>
        <time>2019-12-07T09:54:53Z</time>
      </trkpt>
      <trkpt lat="45.01958" lon="3.81627">
        <ele>874.8</ele>
        <time>2019-12-07T09:54:55Z</time>
      </trkpt>
      <trkpt lat="45.01962" lon="3.81629">
        <ele>874.8</ele>
        <time>2019-12-07T09:54:57Z</time>
      </trkpt>
      <trkpt lat="45.01972" lon="3.8164">
        <ele>874.6</ele>
        <time>2019-12-07T09:55:02Z</time>
      </trkpt>
      <trkpt lat="45.01977" lon="3.81648">
        <ele>874.5</ele>
        <time>2019-12-07T09:55:05Z</time>
      </trkpt>
      <trkpt lat="45.02007" lon="3.81688">
        <ele>873.5</ele>
        <time>2019-12-07T09:55:17Z</time>
      </trkpt>
      <trkpt lat="45.02007" lon="3.81691">
        <ele>873.6</ele>
        <time>2019-12-07T09:55:18Z</time>
      </trkpt>
      <trkpt lat="45.02005" lon="3.81693">
        <ele>873.7</ele>
        <time>2019-12-07T09:55:19Z</time>
      </trkpt>
      <trkpt lat="45.02004" lon="3.81695">
        <ele>873.7</ele>
        <time>2019-12-07T09:55:20Z</time>
      </trkpt>
      <trkpt lat="45.02002" lon="3.81697">
        <ele>873.8</ele>
        <time>2019-12-07T09:55:21Z</time>
      </trkpt>
      <trkpt lat="45.01984" lon="3.81709">
        <ele>874.1</ele>
        <time>2019-12-07T09:55:28Z</time>
      </trkpt>
      <trkpt lat="45.01944" lon="3.81741">
        <ele>874.7</ele>
        <time>2019-12-07T09:55:45Z</time>
      </trkpt>
      <trkpt lat="45.01909" lon="3.81766">
        <ele>874.8</ele>
        <time>2019-12-07T09:55:58Z</time>
      </trkpt>
      <trkpt lat="45.019" lon="3.8177">
        <ele>874.8</ele>
        <time>2019-12-07T09:56:00Z</time>
      </trkpt>
      <trkpt lat="45.01895" lon="3.8177">
        <ele>874.8</ele>
        <time>2019-12-07T09:56:01Z</time>
      </trkpt>
      <trkpt lat="45.01889" lon="3.8177">
        <ele>874.8</ele>
        <time>2019-12-07T09:56:02Z</time>
      </trkpt>
      <trkpt lat="45.01878" lon="3.81769">
        <ele>874.7</ele>
        <time>2019-12-07T09:56:04Z</time>
      </trkpt>
      <trkpt lat="45.01871" lon="3.81767">
        <ele>874.6</ele>
        <time>2019-12-07T09:56:05Z</time>
      </trkpt>
      <trkpt lat="45.01865" lon="3.81765">
        <ele>874.5</ele>
        <time>2019-12-07T09:56:06Z</time>
      </trkpt>
      <trkpt lat="45.01832" lon="3.81753">
        <ele>873.8</ele>
        <time>2019-12-07T09:56:11Z</time>
      </trkpt>
      <trkpt lat="45.01826" lon="3.81753">
        <ele>873.7</ele>
        <time>2019-12-07T09:56:12Z</time>
      </trkpt>
      <trkpt lat="45.01821" lon="3.81756">
        <ele>873.5</ele>
        <time>2019-12-07T09:56:13Z</time>
      </trkpt>
      <trkpt lat="45.01817" lon="3.81762">
        <ele>873.1</ele>
        <time>2019-12-07T09:56:14Z</time>
      </trkpt>
      <trkpt lat="45.01815" lon="3.8177">
        <ele>872.9</ele>
        <time>2019-12-07T09:56:15Z</time>
      </trkpt>
      <trkpt lat="45.01814" lon="3.81778">
        <ele>872.8</ele>
        <time>2019-12-07T09:56:16Z</time>
      </trkpt>
      <trkpt lat="45.01815" lon="3.81787">
        <ele>872.7</ele>
        <time>2019-12-07T09:56:17Z</time>
      </trkpt>
      <trkpt lat="45.01816" lon="3.81796">
        <ele>872.6</ele>
        <time>2019-12-07T09:56:18Z</time>
      </trkpt>
      <trkpt lat="45.01818" lon="3.81805">
        <ele>872.5</ele>
        <time>2019-12-07T09:56:19Z</time>
      </trkpt>
      <trkpt lat="45.01824" lon="3.81839">
        <ele>872.4</ele>
        <time>2019-12-07T09:56:23Z</time>
      </trkpt>
      <trkpt lat="45.01826" lon="3.81847">
        <ele>872.4</ele>
        <time>2019-12-07T09:56:24Z</time>
      </trkpt>
      <trkpt lat="45.01829" lon="3.81853">
        <ele>872.4</ele>
        <time>2019-12-07T09:56:25Z</time>
      </trkpt>
      <trkpt lat="45.01832" lon="3.81858">
        <ele>872.5</ele>
        <time>2019-12-07T09:56:26Z</time>
      </trkpt>
      <trkpt lat="45.01835" lon="3.81862">
        <ele>872.6</ele>
        <time>2019-12-07T09:56:27Z</time>
      </trkpt>
      <trkpt lat="45.01859" lon="3.81901">
        <ele>873.2</ele>
        <time>2019-12-07T09:56:35Z</time>
      </trkpt>
      <trkpt lat="45.01891" lon="3.81945">
        <ele>872.9</ele>
        <time>2019-12-07T09:56:44Z</time>
      </trkpt>
      <trkpt lat="45.01919" lon="3.81977">
        <ele>872.7</ele>
        <time>2019-12-07T09:56:51Z</time>
      </trkpt>
      <trkpt lat="45.01923" lon="3.8198">
        <ele>872.7</ele>
        <time>2019-12-07T09:56:52Z</time>
      </trkpt>
      <trkpt lat="45.01928" lon="3.81984">
        <ele>872.7</ele>
        <time>2019-12-07T09:56:53Z</time>
      </trkpt>
      <trkpt lat="45.01936" lon="3.81991">
        <ele>872.9</ele>
        <time>2019-12-07T09:56:55Z</time>
      </trkpt>
      <trkpt lat="45.01943" lon="3.82">
        <ele>873</ele>
        <time>2019-12-07T09:56:57Z</time>
      </trkpt>
      <trkpt lat="45.01946" lon="3.82005">
        <ele>873.1</ele>
        <time>2019-12-07T09:56:58Z</time>
      </trkpt>
      <trkpt lat="45.01948" lon="3.8201">
        <ele>873.2</ele>
        <time>2019-12-07T09:56:59Z</time>
      </trkpt>
      <trkpt lat="45.01949" lon="3.82016">
        <ele>873.2</ele>
        <time>2019-12-07T09:57:00Z</time>
      </trkpt>
      <trkpt lat="45.0195" lon="3.82022">
        <ele>873.4</ele>
        <time>2019-12-07T09:57:01Z</time>
      </trkpt>
      <trkpt lat="45.01959" lon="3.82091">
        <ele>874.5</ele>
        <time>2019-12-07T09:57:13Z</time>
      </trkpt>
      <trkpt lat="45.01963" lon="3.82132">
        <ele>874.4</ele>
        <time>2019-12-07T09:57:20Z</time>
      </trkpt>
      <trkpt lat="45.01965" lon="3.82144">
        <ele>874.4</ele>
        <time>2019-12-07T09:57:22Z</time>
      </trkpt>
      <trkpt lat="45.01966" lon="3.82149">
        <ele>874.3</ele>
        <time>2019-12-07T09:57:23Z</time>
      </trkpt>
      <trkpt lat="45.01979" lon="3.82184">
        <ele>874.1</ele>
        <time>2019-12-07T09:57:30Z</time>
      </trkpt>
      <trkpt lat="45.01982" lon="3.82193">
        <ele>874</ele>
        <time>2019-12-07T09:57:32Z</time>
      </trkpt>
      <trkpt lat="45.02012" lon="3.82267">
        <ele>873.1</ele>
        <time>2019-12-07T09:57:45Z</time>
      </trkpt>
      <trkpt lat="45.02018" lon="3.82286">
        <ele>873</ele>
        <time>2019-12-07T09:57:48Z</time>
      </trkpt>
      <trkpt lat="45.02046" lon="3.82342">
        <ele>872.7</ele>
        <time>2019-12-07T09:57:58Z</time>
      </trkpt>
      <trkpt lat="45.02057" lon="3.82354">
        <ele>872.7</ele>
        <time>2019-12-07T09:58:01Z</time>
      </trkpt>
      <trkpt lat="45.02059" lon="3.82359">
        <ele>872.7</ele>
        <time>2019-12-07T09:58:02Z</time>
      </trkpt>
      <trkpt lat="45.02061" lon="3.82363">
        <ele>872.8</ele>
        <time>2019-12-07T09:58:03Z</time>
      </trkpt>
      <trkpt lat="45.02088" lon="3.82433">
        <ele>873.6</ele>
        <time>2019-12-07T09:58:17Z</time>
      </trkpt>
      <trkpt lat="45.02103" lon="3.82467">
        <ele>873.9</ele>
        <time>2019-12-07T09:58:24Z</time>
      </trkpt>
      <trkpt lat="45.02109" lon="3.82482">
        <ele>874</ele>
        <time>2019-12-07T09:58:27Z</time>
      </trkpt>
      <trkpt lat="45.02118" lon="3.82509">
        <ele>874.1</ele>
        <time>2019-12-07T09:58:32Z</time>
      </trkpt>
      <trkpt lat="45.02125" lon="3.82593">
        <ele>873.4</ele>
        <time>2019-12-07T09:58:46Z</time>
      </trkpt>
      <trkpt lat="45.02124" lon="3.82635">
        <ele>872.7</ele>
        <time>2019-12-07T09:58:53Z</time>
      </trkpt>
      <trkpt lat="45.02125" lon="3.82652">
        <ele>872.4</ele>
        <time>2019-12-07T09:58:57Z</time>
      </trkpt>
      <trkpt lat="45.02125" lon="3.82662">
        <ele>872.1</ele>
        <time>2019-12-07T09:59:00Z</time>
      </trkpt>
      <trkpt lat="45.02149" lon="3.82688">
        <ele>871.5</ele>
        <time>2019-12-07T09:59:13Z</time>
      </trkpt>
      <trkpt lat="45.02165" lon="3.82696">
        <ele>871.1</ele>
        <time>2019-12-07T09:59:19Z</time>
      </trkpt>
      <trkpt lat="45.02187" lon="3.82709">
        <ele>870.6</ele>
        <time>2019-12-07T09:59:27Z</time>
      </trkpt>
      <trkpt lat="45.02192" lon="3.82713">
        <ele>870.5</ele>
        <time>2019-12-07T09:59:29Z</time>
      </trkpt>
      <trkpt lat="45.02199" lon="3.82721">
        <ele>870.3</ele>
        <time>2019-12-07T09:59:32Z</time>
      </trkpt>
      <trkpt lat="45.02204" lon="3.82725">
        <ele>870.2</ele>
        <time>2019-12-07T09:59:34Z</time>
      </trkpt>
      <trkpt lat="45.02208" lon="3.8273">
        <ele>870.1</ele>
        <time>2019-12-07T09:59:36Z</time>
      </trkpt>
      <trkpt lat="45.02216" lon="3.82737">
        <ele>870</ele>
        <time>2019-12-07T09:59:39Z</time>
      </trkpt>
      <trkpt lat="45.02225" lon="3.82746">
        <ele>869.8</ele>
        <time>2019-12-07T09:59:43Z</time>
      </trkpt>
      <trkpt lat="45.0224" lon="3.82757">
        <ele>869.7</ele>
        <time>2019-12-07T09:59:49Z</time>
      </trkpt>
      <trkpt lat="45.0225" lon="3.82763">
        <ele>869.5</ele>
        <time>2019-12-07T09:59:53Z</time>
      </trkpt>
      <trkpt lat="45.02258" lon="3.82768">
        <ele>869.3</ele>
        <time>2019-12-07T09:59:56Z</time>
      </trkpt>
      <trkpt lat="45.02291" lon="3.82826">
        <ele>868.8</ele>
        <time>2019-12-07T10:00:15Z</time>
      </trkpt>
      <trkpt lat="45.02295" lon="3.82896">
        <ele>867.5</ele>
        <time>2019-12-07T10:00:30Z</time>
      </trkpt>
      <trkpt lat="45.02315" lon="3.82969">
        <ele>866.3</ele>
        <time>2019-12-07T10:00:49Z</time>
      </trkpt>
      <trkpt lat="45.02336" lon="3.82996">
        <ele>866</ele>
        <time>2019-12-07T10:00:58Z</time>
      </trkpt>
      <trkpt lat="45.02344" lon="3.83008">
        <ele>866.1</ele>
        <time>2019-12-07T10:01:02Z</time>
      </trkpt>
      <trkpt lat="45.02363" lon="3.83038">
        <ele>866.1</ele>
        <time>2019-12-07T10:01:12Z</time>
      </trkpt>
      <trkpt lat="45.02382" lon="3.83082">
        <ele>866</ele>
        <time>2019-12-07T10:01:26Z</time>
      </trkpt>
      <trkpt lat="45.02394" lon="3.83109">
        <ele>865.8</ele>
        <time>2019-12-07T10:01:34Z</time>
      </trkpt>
      <trkpt lat="45.02417" lon="3.83173">
        <ele>864.2</ele>
        <time>2019-12-07T10:01:52Z</time>
      </trkpt>
      <trkpt lat="45.02412" lon="3.83251">
        <ele>862.3</ele>
        <time>2019-12-07T10:02:10Z</time>
      </trkpt>
      <trkpt lat="45.02407" lon="3.83301">
        <ele>861.5</ele>
        <time>2019-12-07T10:02:22Z</time>
      </trkpt>
      <trkpt lat="45.02429" lon="3.83376">
        <ele>860</ele>
        <time>2019-12-07T10:02:41Z</time>
      </trkpt>
      <trkpt lat="45.02437" lon="3.83405">
        <ele>859.4</ele>
        <time>2019-12-07T10:02:49Z</time>
      </trkpt>
      <trkpt lat="45.02439" lon="3.83425">
        <ele>859.3</ele>
        <time>2019-12-07T10:02:58Z</time>
      </trkpt>
      <trkpt lat="45.02438" lon="3.83425">
        <ele>859.3</ele>
        <time>2019-12-07T10:03:03Z</time>
      </trkpt>
      <trkpt lat="45.0244" lon="3.83431">
        <ele>859.2</ele>
        <time>2019-12-07T10:04:01Z</time>
      </trkpt>
      <trkpt lat="45.0244" lon="3.83433">
        <ele>859.2</ele>
        <time>2019-12-07T10:04:02Z</time>
      </trkpt>
      <trkpt lat="45.02441" lon="3.83436">
        <ele>859.1</ele>
        <time>2019-12-07T10:04:03Z</time>
      </trkpt>
      <trkpt lat="45.02443" lon="3.83438">
        <ele>859.1</ele>
        <time>2019-12-07T10:04:04Z</time>
      </trkpt>
      <trkpt lat="45.02446" lon="3.8344">
        <ele>859</ele>
        <time>2019-12-07T10:04:05Z</time>
      </trkpt>
      <trkpt lat="45.02466" lon="3.8346">
        <ele>858.3</ele>
        <time>2019-12-07T10:04:13Z</time>
      </trkpt>
      <trkpt lat="45.02474" lon="3.83471">
        <ele>858.1</ele>
        <time>2019-12-07T10:04:17Z</time>
      </trkpt>
      <trkpt lat="45.02529" lon="3.83502">
        <ele>856.5</ele>
        <time>2019-12-07T10:04:34Z</time>
      </trkpt>
      <trkpt lat="45.02569" lon="3.83516">
        <ele>855.4</ele>
        <time>2019-12-07T10:04:44Z</time>
      </trkpt>
      <trkpt lat="45.02623" lon="3.83541">
        <ele>853.6</ele>
        <time>2019-12-07T10:04:59Z</time>
      </trkpt>
      <trkpt lat="45.02654" lon="3.83584">
        <ele>852.4</ele>
        <time>2019-12-07T10:05:13Z</time>
      </trkpt>
      <trkpt lat="45.0267" lon="3.83601">
        <ele>852</ele>
        <time>2019-12-07T10:05:19Z</time>
      </trkpt>
      <trkpt lat="45.02721" lon="3.83636">
        <ele>850.5</ele>
        <time>2019-12-07T10:05:37Z</time>
      </trkpt>
      <trkpt lat="45.02742" lon="3.83648">
        <ele>850.1</ele>
        <time>2019-12-07T10:05:44Z</time>
      </trkpt>
      <trkpt lat="45.02781" lon="3.8368">
        <ele>849.1</ele>
        <time>2019-12-07T10:06:00Z</time>
      </trkpt>
      <trkpt lat="45.0279" lon="3.83687">
        <ele>848.9</ele>
        <time>2019-12-07T10:06:04Z</time>
      </trkpt>
      <trkpt lat="45.02805" lon="3.83701">
        <ele>848.4</ele>
        <time>2019-12-07T10:06:11Z</time>
      </trkpt>
      <trkpt lat="45.02821" lon="3.8372">
        <ele>848</ele>
        <time>2019-12-07T10:06:19Z</time>
      </trkpt>
      <trkpt lat="45.02871" lon="3.83759">
        <ele>846.6</ele>
        <time>2019-12-07T10:06:37Z</time>
      </trkpt>
      <trkpt lat="45.0289" lon="3.83776">
        <ele>846.1</ele>
        <time>2019-12-07T10:06:44Z</time>
      </trkpt>
      <trkpt lat="45.02922" lon="3.83798">
        <ele>845.3</ele>
        <time>2019-12-07T10:06:56Z</time>
      </trkpt>
      <trkpt lat="45.02936" lon="3.83805">
        <ele>845.1</ele>
        <time>2019-12-07T10:07:01Z</time>
      </trkpt>
      <trkpt lat="45.02987" lon="3.83841">
        <ele>843.6</ele>
        <time>2019-12-07T10:07:20Z</time>
      </trkpt>
      <trkpt lat="45.03035" lon="3.83885">
        <ele>842.4</ele>
        <time>2019-12-07T10:07:38Z</time>
      </trkpt>
      <trkpt lat="45.03071" lon="3.83916">
        <ele>841.9</ele>
        <time>2019-12-07T10:07:51Z</time>
      </trkpt>
      <trkpt lat="45.03102" lon="3.83948">
        <ele>840.8</ele>
        <time>2019-12-07T10:08:03Z</time>
      </trkpt>
      <trkpt lat="45.03153" lon="3.8398">
        <ele>839.3</ele>
        <time>2019-12-07T10:08:21Z</time>
      </trkpt>
      <trkpt lat="45.03197" lon="3.84028">
        <ele>837.4</ele>
        <time>2019-12-07T10:08:39Z</time>
      </trkpt>
      <trkpt lat="45.03229" lon="3.84041">
        <ele>835.4</ele>
        <time>2019-12-07T10:08:50Z</time>
      </trkpt>
      <trkpt lat="45.03233" lon="3.84043">
        <ele>835.1</ele>
        <time>2019-12-07T10:08:51Z</time>
      </trkpt>
      <trkpt lat="45.03236" lon="3.84046">
        <ele>834.8</ele>
        <time>2019-12-07T10:08:52Z</time>
      </trkpt>
      <trkpt lat="45.03239" lon="3.84048">
        <ele>834.5</ele>
        <time>2019-12-07T10:08:53Z</time>
      </trkpt>
      <trkpt lat="45.03241" lon="3.8405">
        <ele>834.3</ele>
        <time>2019-12-07T10:08:54Z</time>
      </trkpt>
      <trkpt lat="45.03243" lon="3.84053">
        <ele>834.1</ele>
        <time>2019-12-07T10:08:55Z</time>
      </trkpt>
      <trkpt lat="45.03287" lon="3.84107">
        <ele>829.1</ele>
        <time>2019-12-07T10:09:10Z</time>
      </trkpt>
      <trkpt lat="45.03302" lon="3.84128">
        <ele>827.2</ele>
        <time>2019-12-07T10:09:13Z</time>
      </trkpt>
      <trkpt lat="45.03315" lon="3.84144">
        <ele>825.5</ele>
        <time>2019-12-07T10:09:15Z</time>
      </trkpt>
      <trkpt lat="45.03327" lon="3.84161">
        <ele>823.4</ele>
        <time>2019-12-07T10:09:17Z</time>
      </trkpt>
      <trkpt lat="45.03334" lon="3.84168">
        <ele>822.4</ele>
        <time>2019-12-07T10:09:18Z</time>
      </trkpt>
      <trkpt lat="45.03342" lon="3.84174">
        <ele>821.4</ele>
        <time>2019-12-07T10:09:19Z</time>
      </trkpt>
      <trkpt lat="45.0336" lon="3.84188">
        <ele>819.2</ele>
        <time>2019-12-07T10:09:21Z</time>
      </trkpt>
      <trkpt lat="45.03387" lon="3.84212">
        <ele>815.5</ele>
        <time>2019-12-07T10:09:24Z</time>
      </trkpt>
      <trkpt lat="45.03419" lon="3.84235">
        <ele>812.4</ele>
        <time>2019-12-07T10:09:27Z</time>
      </trkpt>
      <trkpt lat="45.0348" lon="3.84283">
        <ele>808.6</ele>
        <time>2019-12-07T10:09:33Z</time>
      </trkpt>
      <trkpt lat="45.03487" lon="3.84292">
        <ele>807.9</ele>
        <time>2019-12-07T10:09:34Z</time>
      </trkpt>
      <trkpt lat="45.03501" lon="3.84308">
        <ele>806.4</ele>
        <time>2019-12-07T10:09:36Z</time>
      </trkpt>
      <trkpt lat="45.0351" lon="3.84313">
        <ele>805.7</ele>
        <time>2019-12-07T10:09:37Z</time>
      </trkpt>
      <trkpt lat="45.03557" lon="3.84334">
        <ele>802.1</ele>
        <time>2019-12-07T10:09:42Z</time>
      </trkpt>
      <trkpt lat="45.03576" lon="3.84348">
        <ele>800.4</ele>
        <time>2019-12-07T10:09:44Z</time>
      </trkpt>
      <trkpt lat="45.03585" lon="3.84353">
        <ele>799.6</ele>
        <time>2019-12-07T10:09:45Z</time>
      </trkpt>
      <trkpt lat="45.03623" lon="3.84374">
        <ele>797</ele>
        <time>2019-12-07T10:09:49Z</time>
      </trkpt>
      <trkpt lat="45.03649" lon="3.84391">
        <ele>795.8</ele>
        <time>2019-12-07T10:09:52Z</time>
      </trkpt>
      <trkpt lat="45.03665" lon="3.84401">
        <ele>795.2</ele>
        <time>2019-12-07T10:09:54Z</time>
      </trkpt>
      <trkpt lat="45.0368" lon="3.84408">
        <ele>794.4</ele>
        <time>2019-12-07T10:09:57Z</time>
      </trkpt>
      <trkpt lat="45.03684" lon="3.84411">
        <ele>794.1</ele>
        <time>2019-12-07T10:09:58Z</time>
      </trkpt>
      <trkpt lat="45.03686" lon="3.84413">
        <ele>793.9</ele>
        <time>2019-12-07T10:09:59Z</time>
      </trkpt>
      <trkpt lat="45.03688" lon="3.84416">
        <ele>793.7</ele>
        <time>2019-12-07T10:10:00Z</time>
      </trkpt>
      <trkpt lat="45.03689" lon="3.84417">
        <ele>793.6</ele>
        <time>2019-12-07T10:10:01Z</time>
      </trkpt>
      <trkpt lat="45.0369" lon="3.84419">
        <ele>793.4</ele>
        <time>2019-12-07T10:10:02Z</time>
      </trkpt>
      <trkpt lat="45.03691" lon="3.84421">
        <ele>793.3</ele>
        <time>2019-12-07T10:10:03Z</time>
      </trkpt>
      <trkpt lat="45.03694" lon="3.84425">
        <ele>793.1</ele>
        <time>2019-12-07T10:10:07Z</time>
      </trkpt>
      <trkpt lat="45.03695" lon="3.84426">
        <ele>793.1</ele>
        <time>2019-12-07T10:10:13Z</time>
      </trkpt>
      <trkpt lat="45.03694" lon="3.84431">
        <ele>792.8</ele>
        <time>2019-12-07T10:11:54Z</time>
      </trkpt>
      <trkpt lat="45.03695" lon="3.84433">
        <ele>792.7</ele>
        <time>2019-12-07T10:11:55Z</time>
      </trkpt>
      <trkpt lat="45.03697" lon="3.84435">
        <ele>792.5</ele>
        <time>2019-12-07T10:11:56Z</time>
      </trkpt>
      <trkpt lat="45.03747" lon="3.84481">
        <ele>787.9</ele>
        <time>2019-12-07T10:12:11Z</time>
      </trkpt>
      <trkpt lat="45.03757" lon="3.84492">
        <ele>787.1</ele>
        <time>2019-12-07T10:12:14Z</time>
      </trkpt>
      <trkpt lat="45.03791" lon="3.84525">
        <ele>784.2</ele>
        <time>2019-12-07T10:12:26Z</time>
      </trkpt>
      <trkpt lat="45.03829" lon="3.84563">
        <ele>782.1</ele>
        <time>2019-12-07T10:12:39Z</time>
      </trkpt>
      <trkpt lat="45.03832" lon="3.84567">
        <ele>781.9</ele>
        <time>2019-12-07T10:12:40Z</time>
      </trkpt>
      <trkpt lat="45.03834" lon="3.84573">
        <ele>781.6</ele>
        <time>2019-12-07T10:12:41Z</time>
      </trkpt>
      <trkpt lat="45.03846" lon="3.84607">
        <ele>779.9</ele>
        <time>2019-12-07T10:12:47Z</time>
      </trkpt>
      <trkpt lat="45.0385" lon="3.84613">
        <ele>779.6</ele>
        <time>2019-12-07T10:12:48Z</time>
      </trkpt>
      <trkpt lat="45.03854" lon="3.84618">
        <ele>779.2</ele>
        <time>2019-12-07T10:12:49Z</time>
      </trkpt>
      <trkpt lat="45.03869" lon="3.84636">
        <ele>777.7</ele>
        <time>2019-12-07T10:12:52Z</time>
      </trkpt>
      <trkpt lat="45.03881" lon="3.84649">
        <ele>776.6</ele>
        <time>2019-12-07T10:12:54Z</time>
      </trkpt>
      <trkpt lat="45.03888" lon="3.84655">
        <ele>775.9</ele>
        <time>2019-12-07T10:12:55Z</time>
      </trkpt>
      <trkpt lat="45.03896" lon="3.84661">
        <ele>775.1</ele>
        <time>2019-12-07T10:12:56Z</time>
      </trkpt>
      <trkpt lat="45.03904" lon="3.84668">
        <ele>774.3</ele>
        <time>2019-12-07T10:12:57Z</time>
      </trkpt>
      <trkpt lat="45.03912" lon="3.84676">
        <ele>773.7</ele>
        <time>2019-12-07T10:12:58Z</time>
      </trkpt>
      <trkpt lat="45.03919" lon="3.84685">
        <ele>773.1</ele>
        <time>2019-12-07T10:12:59Z</time>
      </trkpt>
      <trkpt lat="45.03925" lon="3.84697">
        <ele>772.6</ele>
        <time>2019-12-07T10:13:00Z</time>
      </trkpt>
      <trkpt lat="45.03931" lon="3.84708">
        <ele>772</ele>
        <time>2019-12-07T10:13:01Z</time>
      </trkpt>
      <trkpt lat="45.03943" lon="3.84733">
        <ele>770.9</ele>
        <time>2019-12-07T10:13:03Z</time>
      </trkpt>
      <trkpt lat="45.03957" lon="3.84757">
        <ele>770</ele>
        <time>2019-12-07T10:13:05Z</time>
      </trkpt>
      <trkpt lat="45.03979" lon="3.84793">
        <ele>769.4</ele>
        <time>2019-12-07T10:13:08Z</time>
      </trkpt>
      <trkpt lat="45.03994" lon="3.84818">
        <ele>769.8</ele>
        <time>2019-12-07T10:13:10Z</time>
      </trkpt>
      <trkpt lat="45.04012" lon="3.84854">
        <ele>770.9</ele>
        <time>2019-12-07T10:13:13Z</time>
      </trkpt>
      <trkpt lat="45.04019" lon="3.84865">
        <ele>771.2</ele>
        <time>2019-12-07T10:13:14Z</time>
      </trkpt>
      <trkpt lat="45.04038" lon="3.84892">
        <ele>772</ele>
        <time>2019-12-07T10:13:17Z</time>
      </trkpt>
      <trkpt lat="45.04043" lon="3.84901">
        <ele>772.2</ele>
        <time>2019-12-07T10:13:18Z</time>
      </trkpt>
      <trkpt lat="45.04054" lon="3.84929">
        <ele>772.6</ele>
        <time>2019-12-07T10:13:21Z</time>
      </trkpt>
      <trkpt lat="45.04063" lon="3.84955">
        <ele>772.7</ele>
        <time>2019-12-07T10:13:25Z</time>
      </trkpt>
      <trkpt lat="45.04078" lon="3.84994">
        <ele>772.5</ele>
        <time>2019-12-07T10:13:34Z</time>
      </trkpt>
      <trkpt lat="45.0408" lon="3.84999">
        <ele>772.5</ele>
        <time>2019-12-07T10:13:35Z</time>
      </trkpt>
      <trkpt lat="45.04083" lon="3.85004">
        <ele>772.4</ele>
        <time>2019-12-07T10:13:36Z</time>
      </trkpt>
      <trkpt lat="45.04085" lon="3.85009">
        <ele>772.4</ele>
        <time>2019-12-07T10:13:37Z</time>
      </trkpt>
      <trkpt lat="45.04087" lon="3.85014">
        <ele>772.3</ele>
        <time>2019-12-07T10:13:38Z</time>
      </trkpt>
      <trkpt lat="45.04094" lon="3.8503">
        <ele>772</ele>
        <time>2019-12-07T10:13:42Z</time>
      </trkpt>
      <trkpt lat="45.04134" lon="3.8509">
        <ele>770.5</ele>
        <time>2019-12-07T10:13:59Z</time>
      </trkpt>
      <trkpt lat="45.04139" lon="3.85123">
        <ele>769.9</ele>
        <time>2019-12-07T10:14:06Z</time>
      </trkpt>
      <trkpt lat="45.0414" lon="3.85128">
        <ele>769.8</ele>
        <time>2019-12-07T10:14:07Z</time>
      </trkpt>
      <trkpt lat="45.04141" lon="3.85132">
        <ele>769.7</ele>
        <time>2019-12-07T10:14:08Z</time>
      </trkpt>
      <trkpt lat="45.04141" lon="3.85137">
        <ele>769.6</ele>
        <time>2019-12-07T10:14:09Z</time>
      </trkpt>
      <trkpt lat="45.04143" lon="3.85145">
        <ele>769.4</ele>
        <time>2019-12-07T10:14:11Z</time>
      </trkpt>
      <trkpt lat="45.04144" lon="3.85149">
        <ele>769.4</ele>
        <time>2019-12-07T10:14:12Z</time>
      </trkpt>
      <trkpt lat="45.04147" lon="3.85156">
        <ele>769.2</ele>
        <time>2019-12-07T10:14:14Z</time>
      </trkpt>
      <trkpt lat="45.0415" lon="3.85159">
        <ele>769.1</ele>
        <time>2019-12-07T10:14:15Z</time>
      </trkpt>
      <trkpt lat="45.04157" lon="3.85165">
        <ele>768.8</ele>
        <time>2019-12-07T10:14:17Z</time>
      </trkpt>
      <trkpt lat="45.04164" lon="3.8517">
        <ele>768.5</ele>
        <time>2019-12-07T10:14:19Z</time>
      </trkpt>
      <trkpt lat="45.04173" lon="3.85174">
        <ele>768.2</ele>
        <time>2019-12-07T10:14:21Z</time>
      </trkpt>
      <trkpt lat="45.04177" lon="3.85176">
        <ele>768.1</ele>
        <time>2019-12-07T10:14:22Z</time>
      </trkpt>
      <trkpt lat="45.04201" lon="3.85181">
        <ele>767.4</ele>
        <time>2019-12-07T10:14:27Z</time>
      </trkpt>
      <trkpt lat="45.04217" lon="3.85187">
        <ele>767</ele>
        <time>2019-12-07T10:14:31Z</time>
      </trkpt>
      <trkpt lat="45.04263" lon="3.85209">
        <ele>766.7</ele>
        <time>2019-12-07T10:14:42Z</time>
      </trkpt>
      <trkpt lat="45.04317" lon="3.85246">
        <ele>765.1</ele>
        <time>2019-12-07T10:14:56Z</time>
      </trkpt>
      <trkpt lat="45.04332" lon="3.85258">
        <ele>763.9</ele>
        <time>2019-12-07T10:15:09Z</time>
      </trkpt>
      <trkpt lat="45.04326" lon="3.85264">
        <ele>763.5</ele>
        <time>2019-12-07T10:17:18Z</time>
      </trkpt>
      <trkpt lat="45.04324" lon="3.85267">
        <ele>763.4</ele>
        <time>2019-12-07T10:17:19Z</time>
      </trkpt>
      <trkpt lat="45.04321" lon="3.85271">
        <ele>763.2</ele>
        <time>2019-12-07T10:17:20Z</time>
      </trkpt>
      <trkpt lat="45.04318" lon="3.85275">
        <ele>763.1</ele>
        <time>2019-12-07T10:17:21Z</time>
      </trkpt>
      <trkpt lat="45.04314" lon="3.85279">
        <ele>762.8</ele>
        <time>2019-12-07T10:17:22Z</time>
      </trkpt>
      <trkpt lat="45.04309" lon="3.85284">
        <ele>762.5</ele>
        <time>2019-12-07T10:17:23Z</time>
      </trkpt>
      <trkpt lat="45.0429" lon="3.85308">
        <ele>761.8</ele>
        <time>2019-12-07T10:17:27Z</time>
      </trkpt>
      <trkpt lat="45.04284" lon="3.85315">
        <ele>761.7</ele>
        <time>2019-12-07T10:17:28Z</time>
      </trkpt>
      <trkpt lat="45.0428" lon="3.85324">
        <ele>761.6</ele>
        <time>2019-12-07T10:17:29Z</time>
      </trkpt>
      <trkpt lat="45.04276" lon="3.85334">
        <ele>761.4</ele>
        <time>2019-12-07T10:17:30Z</time>
      </trkpt>
      <trkpt lat="45.04273" lon="3.85344">
        <ele>761.3</ele>
        <time>2019-12-07T10:17:31Z</time>
      </trkpt>
      <trkpt lat="45.04271" lon="3.85355">
        <ele>761.1</ele>
        <time>2019-12-07T10:17:32Z</time>
      </trkpt>
      <trkpt lat="45.04269" lon="3.85365">
        <ele>760.9</ele>
        <time>2019-12-07T10:17:33Z</time>
      </trkpt>
      <trkpt lat="45.04266" lon="3.85375">
        <ele>760.6</ele>
        <time>2019-12-07T10:17:34Z</time>
      </trkpt>
      <trkpt lat="45.04262" lon="3.85382">
        <ele>760.3</ele>
        <time>2019-12-07T10:17:35Z</time>
      </trkpt>
      <trkpt lat="45.04256" lon="3.85387">
        <ele>759.9</ele>
        <time>2019-12-07T10:17:36Z</time>
      </trkpt>
      <trkpt lat="45.04249" lon="3.85389">
        <ele>759.2</ele>
        <time>2019-12-07T10:17:37Z</time>
      </trkpt>
      <trkpt lat="45.04242" lon="3.8539">
        <ele>758.2</ele>
        <time>2019-12-07T10:17:38Z</time>
      </trkpt>
      <trkpt lat="45.04235" lon="3.85391">
        <ele>757.1</ele>
        <time>2019-12-07T10:17:39Z</time>
      </trkpt>
      <trkpt lat="45.04222" lon="3.85395">
        <ele>754.7</ele>
        <time>2019-12-07T10:17:41Z</time>
      </trkpt>
      <trkpt lat="45.04216" lon="3.85399">
        <ele>753.8</ele>
        <time>2019-12-07T10:17:42Z</time>
      </trkpt>
      <trkpt lat="45.04212" lon="3.85405">
        <ele>752.9</ele>
        <time>2019-12-07T10:17:43Z</time>
      </trkpt>
      <trkpt lat="45.0421" lon="3.85412">
        <ele>752</ele>
        <time>2019-12-07T10:17:44Z</time>
      </trkpt>
      <trkpt lat="45.04208" lon="3.8542">
        <ele>751.1</ele>
        <time>2019-12-07T10:17:45Z</time>
      </trkpt>
      <trkpt lat="45.04208" lon="3.85428">
        <ele>750.2</ele>
        <time>2019-12-07T10:17:46Z</time>
      </trkpt>
      <trkpt lat="45.04213" lon="3.85437">
        <ele>749.1</ele>
        <time>2019-12-07T10:17:47Z</time>
      </trkpt>
      <trkpt lat="45.04219" lon="3.85446">
        <ele>747.5</ele>
        <time>2019-12-07T10:17:48Z</time>
      </trkpt>
      <trkpt lat="45.04226" lon="3.85457">
        <ele>745.7</ele>
        <time>2019-12-07T10:17:49Z</time>
      </trkpt>
      <trkpt lat="45.04239" lon="3.85483">
        <ele>742.5</ele>
        <time>2019-12-07T10:17:51Z</time>
      </trkpt>
      <trkpt lat="45.0425" lon="3.85506">
        <ele>738.9</ele>
        <time>2019-12-07T10:17:53Z</time>
      </trkpt>
      <trkpt lat="45.0426" lon="3.85524">
        <ele>735.5</ele>
        <time>2019-12-07T10:17:55Z</time>
      </trkpt>
      <trkpt lat="45.04269" lon="3.85535">
        <ele>732.8</ele>
        <time>2019-12-07T10:17:57Z</time>
      </trkpt>
      <trkpt lat="45.04274" lon="3.85536">
        <ele>731.8</ele>
        <time>2019-12-07T10:17:58Z</time>
      </trkpt>
      <trkpt lat="45.0428" lon="3.85536">
        <ele>730.4</ele>
        <time>2019-12-07T10:17:59Z</time>
      </trkpt>
      <trkpt lat="45.04289" lon="3.85538">
        <ele>728.5</ele>
        <time>2019-12-07T10:18:00Z</time>
      </trkpt>
      <trkpt lat="45.04298" lon="3.8554">
        <ele>726.7</ele>
        <time>2019-12-07T10:18:01Z</time>
      </trkpt>
      <trkpt lat="45.04317" lon="3.85542">
        <ele>723.7</ele>
        <time>2019-12-07T10:18:03Z</time>
      </trkpt>
      <trkpt lat="45.04327" lon="3.85539">
        <ele>722.1</ele>
        <time>2019-12-07T10:18:04Z</time>
      </trkpt>
      <trkpt lat="45.04338" lon="3.85533">
        <ele>720.5</ele>
        <time>2019-12-07T10:18:05Z</time>
      </trkpt>
      <trkpt lat="45.0436" lon="3.8552">
        <ele>717.8</ele>
        <time>2019-12-07T10:18:07Z</time>
      </trkpt>
      <trkpt lat="45.04394" lon="3.85496">
        <ele>715.4</ele>
        <time>2019-12-07T10:18:10Z</time>
      </trkpt>
      <trkpt lat="45.04427" lon="3.85472">
        <ele>713.9</ele>
        <time>2019-12-07T10:18:13Z</time>
      </trkpt>
      <trkpt lat="45.04447" lon="3.85456">
        <ele>712.5</ele>
        <time>2019-12-07T10:18:15Z</time>
      </trkpt>
      <trkpt lat="45.04464" lon="3.85439">
        <ele>711.1</ele>
        <time>2019-12-07T10:18:17Z</time>
      </trkpt>
      <trkpt lat="45.04478" lon="3.85421">
        <ele>709.3</ele>
        <time>2019-12-07T10:18:19Z</time>
      </trkpt>
      <trkpt lat="45.04486" lon="3.85412">
        <ele>708.3</ele>
        <time>2019-12-07T10:18:20Z</time>
      </trkpt>
      <trkpt lat="45.04494" lon="3.85405">
        <ele>707.4</ele>
        <time>2019-12-07T10:18:21Z</time>
      </trkpt>
      <trkpt lat="45.04503" lon="3.854">
        <ele>706.8</ele>
        <time>2019-12-07T10:18:22Z</time>
      </trkpt>
      <trkpt lat="45.04511" lon="3.85397">
        <ele>706.5</ele>
        <time>2019-12-07T10:18:23Z</time>
      </trkpt>
      <trkpt lat="45.04518" lon="3.85395">
        <ele>706.2</ele>
        <time>2019-12-07T10:18:24Z</time>
      </trkpt>
      <trkpt lat="45.04534" lon="3.8539">
        <ele>705.7</ele>
        <time>2019-12-07T10:18:27Z</time>
      </trkpt>
      <trkpt lat="45.04539" lon="3.85389">
        <ele>705.4</ele>
        <time>2019-12-07T10:18:29Z</time>
      </trkpt>
      <trkpt lat="45.0454" lon="3.85389">
        <ele>705.3</ele>
        <time>2019-12-07T10:18:30Z</time>
      </trkpt>
      <trkpt lat="45.0454" lon="3.85388">
        <ele>705.3</ele>
        <time>2019-12-07T10:18:33Z</time>
      </trkpt>
      <trkpt lat="45.0454" lon="3.85389">
        <ele>705.2</ele>
        <time>2019-12-07T10:18:40Z</time>
      </trkpt>
      <trkpt lat="45.04543" lon="3.85399">
        <ele>703.7</ele>
        <time>2019-12-07T10:19:45Z</time>
      </trkpt>
      <trkpt lat="45.04544" lon="3.85405">
        <ele>703.2</ele>
        <time>2019-12-07T10:19:46Z</time>
      </trkpt>
      <trkpt lat="45.04544" lon="3.85412">
        <ele>702.4</ele>
        <time>2019-12-07T10:19:47Z</time>
      </trkpt>
      <trkpt lat="45.04542" lon="3.8546">
        <ele>696.1</ele>
        <time>2019-12-07T10:19:52Z</time>
      </trkpt>
      <trkpt lat="45.0454" lon="3.85497">
        <ele>691.7</ele>
        <time>2019-12-07T10:19:55Z</time>
      </trkpt>
      <trkpt lat="45.0454" lon="3.85518">
        <ele>689</ele>
        <time>2019-12-07T10:19:57Z</time>
      </trkpt>
      <trkpt lat="45.04541" lon="3.85526">
        <ele>688.2</ele>
        <time>2019-12-07T10:19:58Z</time>
      </trkpt>
      <trkpt lat="45.04542" lon="3.85534">
        <ele>687.6</ele>
        <time>2019-12-07T10:19:59Z</time>
      </trkpt>
      <trkpt lat="45.04543" lon="3.85541">
        <ele>687.2</ele>
        <time>2019-12-07T10:20:00Z</time>
      </trkpt>
      <trkpt lat="45.04543" lon="3.85547">
        <ele>686.8</ele>
        <time>2019-12-07T10:20:01Z</time>
      </trkpt>
      <trkpt lat="45.04544" lon="3.85565">
        <ele>685.1</ele>
        <time>2019-12-07T10:20:05Z</time>
      </trkpt>
      <trkpt lat="45.04553" lon="3.85642">
        <ele>677.5</ele>
        <time>2019-12-07T10:20:23Z</time>
      </trkpt>
      <trkpt lat="45.04563" lon="3.85675">
        <ele>674.3</ele>
        <time>2019-12-07T10:20:31Z</time>
      </trkpt>
      <trkpt lat="45.04576" lon="3.85701">
        <ele>672</ele>
        <time>2019-12-07T10:20:38Z</time>
      </trkpt>
      <trkpt lat="45.04592" lon="3.85733">
        <ele>669.5</ele>
        <time>2019-12-07T10:20:47Z</time>
      </trkpt>
      <trkpt lat="45.04603" lon="3.85776">
        <ele>666.4</ele>
        <time>2019-12-07T10:20:57Z</time>
      </trkpt>
      <trkpt lat="45.046" lon="3.85797">
        <ele>665</ele>
        <time>2019-12-07T10:21:02Z</time>
      </trkpt>
      <trkpt lat="45.04598" lon="3.85817">
        <ele>663.8</ele>
        <time>2019-12-07T10:21:07Z</time>
      </trkpt>
      <trkpt lat="45.04596" lon="3.85844">
        <ele>661.8</ele>
        <time>2019-12-07T10:21:14Z</time>
      </trkpt>
      <trkpt lat="45.04595" lon="3.85858">
        <ele>660.8</ele>
        <time>2019-12-07T10:21:24Z</time>
      </trkpt>
      <trkpt lat="45.04595" lon="3.8586">
        <ele>660.6</ele>
        <time>2019-12-07T10:21:25Z</time>
      </trkpt>
      <trkpt lat="45.04597" lon="3.85862">
        <ele>660.3</ele>
        <time>2019-12-07T10:21:26Z</time>
      </trkpt>
      <trkpt lat="45.04598" lon="3.85864">
        <ele>660</ele>
        <time>2019-12-07T10:21:27Z</time>
      </trkpt>
      <trkpt lat="45.046" lon="3.85867">
        <ele>659.6</ele>
        <time>2019-12-07T10:21:28Z</time>
      </trkpt>
      <trkpt lat="45.04602" lon="3.85871">
        <ele>659.2</ele>
        <time>2019-12-07T10:21:29Z</time>
      </trkpt>
      <trkpt lat="45.04604" lon="3.85875">
        <ele>658.7</ele>
        <time>2019-12-07T10:21:30Z</time>
      </trkpt>
      <trkpt lat="45.04606" lon="3.85879">
        <ele>658.2</ele>
        <time>2019-12-07T10:21:31Z</time>
      </trkpt>
      <trkpt lat="45.04609" lon="3.85883">
        <ele>657.7</ele>
        <time>2019-12-07T10:21:32Z</time>
      </trkpt>
      <trkpt lat="45.04611" lon="3.85886">
        <ele>657.2</ele>
        <time>2019-12-07T10:21:33Z</time>
      </trkpt>
      <trkpt lat="45.04614" lon="3.85889">
        <ele>656.6</ele>
        <time>2019-12-07T10:21:34Z</time>
      </trkpt>
      <trkpt lat="45.04629" lon="3.85917">
        <ele>653.5</ele>
        <time>2019-12-07T10:21:41Z</time>
      </trkpt>
      <trkpt lat="45.04648" lon="3.85943">
        <ele>651.2</ele>
        <time>2019-12-07T10:21:50Z</time>
      </trkpt>
      <trkpt lat="45.04654" lon="3.85952">
        <ele>650.6</ele>
        <time>2019-12-07T10:21:54Z</time>
      </trkpt>
      <trkpt lat="45.04654" lon="3.85956">
        <ele>650.4</ele>
        <time>2019-12-07T10:21:55Z</time>
      </trkpt>
      <trkpt lat="45.04647" lon="3.85982">
        <ele>649.2</ele>
        <time>2019-12-07T10:22:01Z</time>
      </trkpt>
      <trkpt lat="45.04636" lon="3.86059">
        <ele>646.1</ele>
        <time>2019-12-07T10:22:19Z</time>
      </trkpt>
      <trkpt lat="45.04636" lon="3.86064">
        <ele>645.8</ele>
        <time>2019-12-07T10:22:23Z</time>
      </trkpt>
      <trkpt lat="45.04637" lon="3.86067">
        <ele>645.8</ele>
        <time>2019-12-07T10:22:24Z</time>
      </trkpt>
      <trkpt lat="45.04638" lon="3.86069">
        <ele>645.9</ele>
        <time>2019-12-07T10:22:25Z</time>
      </trkpt>
      <trkpt lat="45.0464" lon="3.86072">
        <ele>645.9</ele>
        <time>2019-12-07T10:22:26Z</time>
      </trkpt>
      <trkpt lat="45.04642" lon="3.86074">
        <ele>645.9</ele>
        <time>2019-12-07T10:22:27Z</time>
      </trkpt>
      <trkpt lat="45.04645" lon="3.86075">
        <ele>646</ele>
        <time>2019-12-07T10:22:28Z</time>
      </trkpt>
      <trkpt lat="45.04647" lon="3.86076">
        <ele>645.9</ele>
        <time>2019-12-07T10:22:29Z</time>
      </trkpt>
      <trkpt lat="45.0465" lon="3.86077">
        <ele>645.9</ele>
        <time>2019-12-07T10:22:30Z</time>
      </trkpt>
      <trkpt lat="45.04652" lon="3.86078">
        <ele>645.9</ele>
        <time>2019-12-07T10:22:31Z</time>
      </trkpt>
      <trkpt lat="45.04671" lon="3.86121">
        <ele>645.7</ele>
        <time>2019-12-07T10:22:43Z</time>
      </trkpt>
      <trkpt lat="45.04672" lon="3.86131">
        <ele>645.7</ele>
        <time>2019-12-07T10:22:46Z</time>
      </trkpt>
      <trkpt lat="45.04674" lon="3.86138">
        <ele>645.6</ele>
        <time>2019-12-07T10:22:48Z</time>
      </trkpt>
      <trkpt lat="45.04676" lon="3.86147">
        <ele>645.7</ele>
        <time>2019-12-07T10:22:51Z</time>
      </trkpt>
      <trkpt lat="45.04676" lon="3.86149">
        <ele>645.8</ele>
        <time>2019-12-07T10:22:52Z</time>
      </trkpt>
      <trkpt lat="45.04677" lon="3.86152">
        <ele>645.8</ele>
        <time>2019-12-07T10:22:53Z</time>
      </trkpt>
      <trkpt lat="45.0468" lon="3.86152">
        <ele>645.9</ele>
        <time>2019-12-07T10:22:54Z</time>
      </trkpt>
      <trkpt lat="45.04684" lon="3.86152">
        <ele>646</ele>
        <time>2019-12-07T10:22:55Z</time>
      </trkpt>
      <trkpt lat="45.04688" lon="3.86152">
        <ele>646.2</ele>
        <time>2019-12-07T10:22:56Z</time>
      </trkpt>
      <trkpt lat="45.04692" lon="3.86153">
        <ele>646.3</ele>
        <time>2019-12-07T10:22:57Z</time>
      </trkpt>
      <trkpt lat="45.04696" lon="3.86156">
        <ele>646.1</ele>
        <time>2019-12-07T10:22:58Z</time>
      </trkpt>
      <trkpt lat="45.047" lon="3.86159">
        <ele>646</ele>
        <time>2019-12-07T10:22:59Z</time>
      </trkpt>
      <trkpt lat="45.04703" lon="3.86164">
        <ele>645.8</ele>
        <time>2019-12-07T10:23:00Z</time>
      </trkpt>
      <trkpt lat="45.04706" lon="3.86168">
        <ele>645.7</ele>
        <time>2019-12-07T10:23:01Z</time>
      </trkpt>
      <trkpt lat="45.0472" lon="3.86194">
        <ele>644.7</ele>
        <time>2019-12-07T10:23:06Z</time>
      </trkpt>
      <trkpt lat="45.04721" lon="3.86201">
        <ele>644.3</ele>
        <time>2019-12-07T10:23:07Z</time>
      </trkpt>
      <trkpt lat="45.04724" lon="3.86214">
        <ele>643.4</ele>
        <time>2019-12-07T10:23:09Z</time>
      </trkpt>
      <trkpt lat="45.04726" lon="3.86221">
        <ele>642.9</ele>
        <time>2019-12-07T10:23:10Z</time>
      </trkpt>
      <trkpt lat="45.04728" lon="3.86227">
        <ele>642.5</ele>
        <time>2019-12-07T10:23:11Z</time>
      </trkpt>
      <trkpt lat="45.0473" lon="3.8624">
        <ele>641.7</ele>
        <time>2019-12-07T10:23:13Z</time>
      </trkpt>
      <trkpt lat="45.04738" lon="3.86274">
        <ele>639.8</ele>
        <time>2019-12-07T10:23:20Z</time>
      </trkpt>
      <trkpt lat="45.04758" lon="3.86328">
        <ele>638.3</ele>
        <time>2019-12-07T10:23:35Z</time>
      </trkpt>
      <trkpt lat="45.04759" lon="3.86345">
        <ele>638.2</ele>
        <time>2019-12-07T10:23:39Z</time>
      </trkpt>
      <trkpt lat="45.04759" lon="3.86388">
        <ele>638</ele>
        <time>2019-12-07T10:23:50Z</time>
      </trkpt>
      <trkpt lat="45.0476" lon="3.86391">
        <ele>638</ele>
        <time>2019-12-07T10:23:51Z</time>
      </trkpt>
      <trkpt lat="45.04761" lon="3.86394">
        <ele>637.7</ele>
        <time>2019-12-07T10:23:52Z</time>
      </trkpt>
      <trkpt lat="45.04763" lon="3.86396">
        <ele>637.6</ele>
        <time>2019-12-07T10:23:53Z</time>
      </trkpt>
      <trkpt lat="45.04765" lon="3.86398">
        <ele>637.5</ele>
        <time>2019-12-07T10:23:54Z</time>
      </trkpt>
      <trkpt lat="45.04767" lon="3.864">
        <ele>637.4</ele>
        <time>2019-12-07T10:23:55Z</time>
      </trkpt>
      <trkpt lat="45.04781" lon="3.8641">
        <ele>636.5</ele>
        <time>2019-12-07T10:24:00Z</time>
      </trkpt>
      <trkpt lat="45.04799" lon="3.86415">
        <ele>634.9</ele>
        <time>2019-12-07T10:24:06Z</time>
      </trkpt>
      <trkpt lat="45.04822" lon="3.8642">
        <ele>632.9</ele>
        <time>2019-12-07T10:24:14Z</time>
      </trkpt>
      <trkpt lat="45.04848" lon="3.86444">
        <ele>632.5</ele>
        <time>2019-12-07T10:24:28Z</time>
      </trkpt>
      <trkpt lat="45.04863" lon="3.86475">
        <ele>632.2</ele>
        <time>2019-12-07T10:24:38Z</time>
      </trkpt>
      <trkpt lat="45.04865" lon="3.86491">
        <ele>631.9</ele>
        <time>2019-12-07T10:24:41Z</time>
      </trkpt>
      <trkpt lat="45.04866" lon="3.86495">
        <ele>631.8</ele>
        <time>2019-12-07T10:24:42Z</time>
      </trkpt>
      <trkpt lat="45.04866" lon="3.865">
        <ele>631.8</ele>
        <time>2019-12-07T10:24:43Z</time>
      </trkpt>
      <trkpt lat="45.04867" lon="3.86505">
        <ele>631.7</ele>
        <time>2019-12-07T10:24:44Z</time>
      </trkpt>
      <trkpt lat="45.04866" lon="3.86511">
        <ele>631.6</ele>
        <time>2019-12-07T10:24:45Z</time>
      </trkpt>
      <trkpt lat="45.04867" lon="3.86516">
        <ele>631.6</ele>
        <time>2019-12-07T10:24:46Z</time>
      </trkpt>
      <trkpt lat="45.04869" lon="3.86519">
        <ele>631.6</ele>
        <time>2019-12-07T10:24:47Z</time>
      </trkpt>
      <trkpt lat="45.0487" lon="3.86524">
        <ele>631.5</ele>
        <time>2019-12-07T10:24:48Z</time>
      </trkpt>
      <trkpt lat="45.0487" lon="3.86529">
        <ele>631.5</ele>
        <time>2019-12-07T10:24:49Z</time>
      </trkpt>
      <trkpt lat="45.04869" lon="3.86534">
        <ele>631.5</ele>
        <time>2019-12-07T10:24:50Z</time>
      </trkpt>
      <trkpt lat="45.04869" lon="3.8654">
        <ele>631.5</ele>
        <time>2019-12-07T10:24:51Z</time>
      </trkpt>
      <trkpt lat="45.04868" lon="3.86545">
        <ele>631.5</ele>
        <time>2019-12-07T10:24:52Z</time>
      </trkpt>
      <trkpt lat="45.04867" lon="3.8655">
        <ele>631.4</ele>
        <time>2019-12-07T10:24:53Z</time>
      </trkpt>
      <trkpt lat="45.04866" lon="3.86554">
        <ele>631.4</ele>
        <time>2019-12-07T10:24:54Z</time>
      </trkpt>
      <trkpt lat="45.04866" lon="3.86557">
        <ele>631.4</ele>
        <time>2019-12-07T10:24:55Z</time>
      </trkpt>
      <trkpt lat="45.04865" lon="3.86561">
        <ele>631.4</ele>
        <time>2019-12-07T10:24:56Z</time>
      </trkpt>
      <trkpt lat="45.04865" lon="3.86563">
        <ele>631.4</ele>
        <time>2019-12-07T10:24:57Z</time>
      </trkpt>
      <trkpt lat="45.04863" lon="3.86566">
        <ele>631.4</ele>
        <time>2019-12-07T10:25:05Z</time>
      </trkpt>
      <trkpt lat="45.04861" lon="3.86576">
        <ele>631.4</ele>
        <time>2019-12-07T10:25:13Z</time>
      </trkpt>
      <trkpt lat="45.0486" lon="3.86579">
        <ele>631.4</ele>
        <time>2019-12-07T10:25:15Z</time>
      </trkpt>
      <trkpt lat="45.04862" lon="3.86585">
        <ele>631.4</ele>
        <time>2019-12-07T10:25:21Z</time>
      </trkpt>
      <trkpt lat="45.04862" lon="3.86586">
        <ele>631.4</ele>
        <time>2019-12-07T10:25:22Z</time>
      </trkpt>
      <trkpt lat="45.04862" lon="3.86588">
        <ele>631.4</ele>
        <time>2019-12-07T10:25:23Z</time>
      </trkpt>
      <trkpt lat="45.04862" lon="3.86589">
        <ele>631.4</ele>
        <time>2019-12-07T10:25:24Z</time>
      </trkpt>
      <trkpt lat="45.04862" lon="3.86594">
        <ele>631.4</ele>
        <time>2019-12-07T10:25:27Z</time>
      </trkpt>
      <trkpt lat="45.04863" lon="3.86601">
        <ele>631.4</ele>
        <time>2019-12-07T10:25:31Z</time>
      </trkpt>
      <trkpt lat="45.04864" lon="3.86609">
        <ele>631.4</ele>
        <time>2019-12-07T10:25:36Z</time>
      </trkpt>
      <trkpt lat="45.04864" lon="3.8661">
        <ele>631.4</ele>
        <time>2019-12-07T10:25:37Z</time>
      </trkpt>
      <trkpt lat="45.04864" lon="3.86614">
        <ele>629.5</ele>
        <time>2019-12-07T10:25:40Z</time>
      </trkpt>
      <trkpt lat="45.04863" lon="3.86619">
        <ele>629.5</ele>
        <time>2019-12-07T10:25:44Z</time>
      </trkpt>
      <trkpt lat="45.04863" lon="3.86621">
        <ele>629.5</ele>
        <time>2019-12-07T10:25:46Z</time>
      </trkpt>
      <trkpt lat="45.04855" lon="3.86623">
        <ele>629.6</ele>
        <time>2019-12-07T10:25:50Z</time>
      </trkpt>
      <trkpt lat="45.04852" lon="3.86619">
        <ele>629.6</ele>
        <time>2019-12-07T10:25:51Z</time>
      </trkpt>
      <trkpt lat="45.04851" lon="3.86617">
        <ele>629.7</ele>
        <time>2019-12-07T10:25:52Z</time>
      </trkpt>
      <trkpt lat="45.04839" lon="3.86619">
        <ele>629.8</ele>
        <time>2019-12-07T10:26:00Z</time>
      </trkpt>
      <trkpt lat="45.04841" lon="3.86623">
        <ele>629.8</ele>
        <time>2019-12-07T10:26:07Z</time>
      </trkpt>
      <trkpt lat="45.04847" lon="3.86635">
        <ele>629.1</ele>
        <time>2019-12-07T10:26:13Z</time>
      </trkpt>
      <trkpt lat="45.04841" lon="3.86657">
        <ele>628.3</ele>
        <time>2019-12-07T10:26:17Z</time>
      </trkpt>
      <trkpt lat="45.04836" lon="3.86693">
        <ele>626.9</ele>
        <time>2019-12-07T10:26:22Z</time>
      </trkpt>
      <trkpt lat="45.04835" lon="3.867">
        <ele>626.9</ele>
        <time>2019-12-07T10:26:23Z</time>
      </trkpt>
      <trkpt lat="45.04834" lon="3.86707">
        <ele>626.9</ele>
        <time>2019-12-07T10:26:24Z</time>
      </trkpt>
      <trkpt lat="45.04826" lon="3.86726">
        <ele>627.1</ele>
        <time>2019-12-07T10:26:28Z</time>
      </trkpt>
      <trkpt lat="45.04822" lon="3.86727">
        <ele>627.2</ele>
        <time>2019-12-07T10:26:29Z</time>
      </trkpt>
      <trkpt lat="45.04817" lon="3.86727">
        <ele>627.3</ele>
        <time>2019-12-07T10:26:30Z</time>
      </trkpt>
      <trkpt lat="45.04813" lon="3.86726">
        <ele>627.4</ele>
        <time>2019-12-07T10:26:31Z</time>
      </trkpt>
      <trkpt lat="45.04809" lon="3.86725">
        <ele>627.5</ele>
        <time>2019-12-07T10:26:32Z</time>
      </trkpt>
      <trkpt lat="45.04799" lon="3.86721">
        <ele>627.8</ele>
        <time>2019-12-07T10:26:34Z</time>
      </trkpt>
      <trkpt lat="45.04761" lon="3.86715">
        <ele>630</ele>
        <time>2019-12-07T10:26:44Z</time>
      </trkpt>
      <trkpt lat="45.0476" lon="3.8672">
        <ele>629.9</ele>
        <time>2019-12-07T10:26:45Z</time>
      </trkpt>
      <trkpt lat="45.04758" lon="3.86725">
        <ele>629.8</ele>
        <time>2019-12-07T10:26:46Z</time>
      </trkpt>
      <trkpt lat="45.04757" lon="3.86731">
        <ele>629.7</ele>
        <time>2019-12-07T10:26:47Z</time>
      </trkpt>
      <trkpt lat="45.04755" lon="3.86736">
        <ele>629.6</ele>
        <time>2019-12-07T10:26:48Z</time>
      </trkpt>
      <trkpt lat="45.04739" lon="3.86813">
        <ele>628.4</ele>
        <time>2019-12-07T10:27:03Z</time>
      </trkpt>
      <trkpt lat="45.04738" lon="3.86833">
        <ele>628.2</ele>
        <time>2019-12-07T10:27:07Z</time>
      </trkpt>
      <trkpt lat="45.04736" lon="3.86852">
        <ele>628</ele>
        <time>2019-12-07T10:27:11Z</time>
      </trkpt>
      <trkpt lat="45.04736" lon="3.86856">
        <ele>627.9</ele>
        <time>2019-12-07T10:27:12Z</time>
      </trkpt>
      <trkpt lat="45.04734" lon="3.86869">
        <ele>627.7</ele>
        <time>2019-12-07T10:27:15Z</time>
      </trkpt>
      <trkpt lat="45.04731" lon="3.86886">
        <ele>627.5</ele>
        <time>2019-12-07T10:27:19Z</time>
      </trkpt>
      <trkpt lat="45.04727" lon="3.86902">
        <ele>627.5</ele>
        <time>2019-12-07T10:27:23Z</time>
      </trkpt>
      <trkpt lat="45.04723" lon="3.86918">
        <ele>627.5</ele>
        <time>2019-12-07T10:27:27Z</time>
      </trkpt>
      <trkpt lat="45.04714" lon="3.86944">
        <ele>627.5</ele>
        <time>2019-12-07T10:27:34Z</time>
      </trkpt>
      <trkpt lat="45.04711" lon="3.86962">
        <ele>627.5</ele>
        <time>2019-12-07T10:27:39Z</time>
      </trkpt>
      <trkpt lat="45.04697" lon="3.87002">
        <ele>627.6</ele>
        <time>2019-12-07T10:27:53Z</time>
      </trkpt>
      <trkpt lat="45.04672" lon="3.87052">
        <ele>627.3</ele>
        <time>2019-12-07T10:28:14Z</time>
      </trkpt>
      <trkpt lat="45.04664" lon="3.87069">
        <ele>626.5</ele>
        <time>2019-12-07T10:28:21Z</time>
      </trkpt>
      <trkpt lat="45.04659" lon="3.87086">
        <ele>625.2</ele>
        <time>2019-12-07T10:28:27Z</time>
      </trkpt>
      <trkpt lat="45.04659" lon="3.87089">
        <ele>624.2</ele>
        <time>2019-12-07T10:28:28Z</time>
      </trkpt>
      <trkpt lat="45.0466" lon="3.87091">
        <ele>624.1</ele>
        <time>2019-12-07T10:28:29Z</time>
      </trkpt>
      <trkpt lat="45.04661" lon="3.87092">
        <ele>624</ele>
        <time>2019-12-07T10:28:30Z</time>
      </trkpt>
      <trkpt lat="45.04663" lon="3.87093">
        <ele>624</ele>
        <time>2019-12-07T10:28:31Z</time>
      </trkpt>
      <trkpt lat="45.04664" lon="3.87093">
        <ele>623.9</ele>
        <time>2019-12-07T10:28:32Z</time>
      </trkpt>
      <trkpt lat="45.04665" lon="3.87094">
        <ele>623.8</ele>
        <time>2019-12-07T10:28:33Z</time>
      </trkpt>
      <trkpt lat="45.04666" lon="3.87094">
        <ele>623.8</ele>
        <time>2019-12-07T10:28:34Z</time>
      </trkpt>
      <trkpt lat="45.04668" lon="3.87093">
        <ele>623.7</ele>
        <time>2019-12-07T10:28:38Z</time>
      </trkpt>
      <trkpt lat="45.04668" lon="3.87093">
        <ele>623.7</ele>
        <time>2019-12-07T10:28:41Z</time>
      </trkpt>
      <trkpt lat="45.0468" lon="3.87098">
        <ele>622.9</ele>
        <time>2019-12-07T10:29:23Z</time>
      </trkpt>
      <trkpt lat="45.04682" lon="3.87099">
        <ele>622.8</ele>
        <time>2019-12-07T10:29:24Z</time>
      </trkpt>
      <trkpt lat="45.04685" lon="3.871">
        <ele>622.6</ele>
        <time>2019-12-07T10:29:25Z</time>
      </trkpt>
      <trkpt lat="45.04688" lon="3.87101">
        <ele>622.3</ele>
        <time>2019-12-07T10:29:26Z</time>
      </trkpt>
      <trkpt lat="45.04692" lon="3.87103">
        <ele>622.1</ele>
        <time>2019-12-07T10:29:27Z</time>
      </trkpt>
      <trkpt lat="45.04696" lon="3.87105">
        <ele>621.8</ele>
        <time>2019-12-07T10:29:28Z</time>
      </trkpt>
      <trkpt lat="45.047" lon="3.87106">
        <ele>621.6</ele>
        <time>2019-12-07T10:29:29Z</time>
      </trkpt>
      <trkpt lat="45.04719" lon="3.87114">
        <ele>620.6</ele>
        <time>2019-12-07T10:29:33Z</time>
      </trkpt>
      <trkpt lat="45.04724" lon="3.87118">
        <ele>620.4</ele>
        <time>2019-12-07T10:29:34Z</time>
      </trkpt>
      <trkpt lat="45.04728" lon="3.87123">
        <ele>620.4</ele>
        <time>2019-12-07T10:29:35Z</time>
      </trkpt>
      <trkpt lat="45.04733" lon="3.87127">
        <ele>620.3</ele>
        <time>2019-12-07T10:29:36Z</time>
      </trkpt>
      <trkpt lat="45.04738" lon="3.8713">
        <ele>620.4</ele>
        <time>2019-12-07T10:29:37Z</time>
      </trkpt>
      <trkpt lat="45.04743" lon="3.87132">
        <ele>620.4</ele>
        <time>2019-12-07T10:29:38Z</time>
      </trkpt>
      <trkpt lat="45.04746" lon="3.87133">
        <ele>620.4</ele>
        <time>2019-12-07T10:29:39Z</time>
      </trkpt>
      <trkpt lat="45.04749" lon="3.87136">
        <ele>620.5</ele>
        <time>2019-12-07T10:29:40Z</time>
      </trkpt>
      <trkpt lat="45.04751" lon="3.8714">
        <ele>620.5</ele>
        <time>2019-12-07T10:29:41Z</time>
      </trkpt>
      <trkpt lat="45.04753" lon="3.87146">
        <ele>620.6</ele>
        <time>2019-12-07T10:29:42Z</time>
      </trkpt>
      <trkpt lat="45.04754" lon="3.87151">
        <ele>620.6</ele>
        <time>2019-12-07T10:29:43Z</time>
      </trkpt>
      <trkpt lat="45.04754" lon="3.87157">
        <ele>620.7</ele>
        <time>2019-12-07T10:29:44Z</time>
      </trkpt>
      <trkpt lat="45.04754" lon="3.87163">
        <ele>620.7</ele>
        <time>2019-12-07T10:29:45Z</time>
      </trkpt>
      <trkpt lat="45.04754" lon="3.87168">
        <ele>620.7</ele>
        <time>2019-12-07T10:29:46Z</time>
      </trkpt>
      <trkpt lat="45.04754" lon="3.87175">
        <ele>620.7</ele>
        <time>2019-12-07T10:29:47Z</time>
      </trkpt>
      <trkpt lat="45.04755" lon="3.87181">
        <ele>620.7</ele>
        <time>2019-12-07T10:29:48Z</time>
      </trkpt>
      <trkpt lat="45.04754" lon="3.87199">
        <ele>620.4</ele>
        <time>2019-12-07T10:29:51Z</time>
      </trkpt>
      <trkpt lat="45.04753" lon="3.87223">
        <ele>619.7</ele>
        <time>2019-12-07T10:29:55Z</time>
      </trkpt>
      <trkpt lat="45.04755" lon="3.87258">
        <ele>618.8</ele>
        <time>2019-12-07T10:30:01Z</time>
      </trkpt>
      <trkpt lat="45.04756" lon="3.87265">
        <ele>618.7</ele>
        <time>2019-12-07T10:30:02Z</time>
      </trkpt>
      <trkpt lat="45.04756" lon="3.87271">
        <ele>618.7</ele>
        <time>2019-12-07T10:30:03Z</time>
      </trkpt>
      <trkpt lat="45.04759" lon="3.8736">
        <ele>618.6</ele>
        <time>2019-12-07T10:30:17Z</time>
      </trkpt>
      <trkpt lat="45.04757" lon="3.8741">
        <ele>618.7</ele>
        <time>2019-12-07T10:30:25Z</time>
      </trkpt>
      <trkpt lat="45.04756" lon="3.87442">
        <ele>618.7</ele>
        <time>2019-12-07T10:30:30Z</time>
      </trkpt>
      <trkpt lat="45.04754" lon="3.87458">
        <ele>618.7</ele>
        <time>2019-12-07T10:30:33Z</time>
      </trkpt>
      <trkpt lat="45.04752" lon="3.87471">
        <ele>618.8</ele>
        <time>2019-12-07T10:30:36Z</time>
      </trkpt>
      <trkpt lat="45.04753" lon="3.87487">
        <ele>618.9</ele>
        <time>2019-12-07T10:30:40Z</time>
      </trkpt>
      <trkpt lat="45.04754" lon="3.87504">
        <ele>618.9</ele>
        <time>2019-12-07T10:30:44Z</time>
      </trkpt>
      <trkpt lat="45.04775" lon="3.87578">
        <ele>618.9</ele>
        <time>2019-12-07T10:31:02Z</time>
      </trkpt>
      <trkpt lat="45.04774" lon="3.87599">
        <ele>618.6</ele>
        <time>2019-12-07T10:31:08Z</time>
      </trkpt>
      <trkpt lat="45.04779" lon="3.87612">
        <ele>618.3</ele>
        <time>2019-12-07T10:31:19Z</time>
      </trkpt>
      <trkpt lat="45.04781" lon="3.87612">
        <ele>618.3</ele>
        <time>2019-12-07T10:31:20Z</time>
      </trkpt>
      <trkpt lat="45.04782" lon="3.87612">
        <ele>618.2</ele>
        <time>2019-12-07T10:31:21Z</time>
      </trkpt>
      <trkpt lat="45.04785" lon="3.87614">
        <ele>618.2</ele>
        <time>2019-12-07T10:31:22Z</time>
      </trkpt>
      <trkpt lat="45.04787" lon="3.87617">
        <ele>618.1</ele>
        <time>2019-12-07T10:31:23Z</time>
      </trkpt>
      <trkpt lat="45.0479" lon="3.8762">
        <ele>618.1</ele>
        <time>2019-12-07T10:31:24Z</time>
      </trkpt>
      <trkpt lat="45.04803" lon="3.87641">
        <ele>618</ele>
        <time>2019-12-07T10:31:30Z</time>
      </trkpt>
      <trkpt lat="45.04839" lon="3.87709">
        <ele>618.9</ele>
        <time>2019-12-07T10:31:50Z</time>
      </trkpt>
      <trkpt lat="45.04841" lon="3.87714">
        <ele>619</ele>
        <time>2019-12-07T10:31:51Z</time>
      </trkpt>
      <trkpt lat="45.0486" lon="3.87776">
        <ele>619.9</ele>
        <time>2019-12-07T10:32:06Z</time>
      </trkpt>
      <trkpt lat="45.04858" lon="3.8778">
        <ele>620</ele>
        <time>2019-12-07T10:32:07Z</time>
      </trkpt>
      <trkpt lat="45.04857" lon="3.87783">
        <ele>620.1</ele>
        <time>2019-12-07T10:32:08Z</time>
      </trkpt>
      <trkpt lat="45.04855" lon="3.87786">
        <ele>620.2</ele>
        <time>2019-12-07T10:32:09Z</time>
      </trkpt>
      <trkpt lat="45.04854" lon="3.87789">
        <ele>620.1</ele>
        <time>2019-12-07T10:32:10Z</time>
      </trkpt>
      <trkpt lat="45.04853" lon="3.87794">
        <ele>620</ele>
        <time>2019-12-07T10:32:11Z</time>
      </trkpt>
      <trkpt lat="45.04851" lon="3.878">
        <ele>619.5</ele>
        <time>2019-12-07T10:32:12Z</time>
      </trkpt>
      <trkpt lat="45.04851" lon="3.87807">
        <ele>619.3</ele>
        <time>2019-12-07T10:32:13Z</time>
      </trkpt>
      <trkpt lat="45.04852" lon="3.87814">
        <ele>619.2</ele>
        <time>2019-12-07T10:32:14Z</time>
      </trkpt>
      <trkpt lat="45.04853" lon="3.8782">
        <ele>619</ele>
        <time>2019-12-07T10:32:15Z</time>
      </trkpt>
      <trkpt lat="45.04856" lon="3.87826">
        <ele>618.7</ele>
        <time>2019-12-07T10:32:16Z</time>
      </trkpt>
      <trkpt lat="45.04859" lon="3.87829">
        <ele>618.5</ele>
        <time>2019-12-07T10:32:17Z</time>
      </trkpt>
      <trkpt lat="45.04861" lon="3.87831">
        <ele>618.4</ele>
        <time>2019-12-07T10:32:18Z</time>
      </trkpt>
      <trkpt lat="45.04863" lon="3.87832">
        <ele>618.3</ele>
        <time>2019-12-07T10:32:19Z</time>
      </trkpt>
      <trkpt lat="45.04865" lon="3.87833">
        <ele>618.3</ele>
        <time>2019-12-07T10:32:20Z</time>
      </trkpt>
      <trkpt lat="45.04893" lon="3.8787">
        <ele>617.4</ele>
        <time>2019-12-07T10:32:35Z</time>
      </trkpt>
      <trkpt lat="45.0489" lon="3.87907">
        <ele>617.3</ele>
        <time>2019-12-07T10:32:44Z</time>
      </trkpt>
      <trkpt lat="45.04892" lon="3.87909">
        <ele>617.3</ele>
        <time>2019-12-07T10:32:45Z</time>
      </trkpt>
      <trkpt lat="45.04895" lon="3.8791">
        <ele>617.3</ele>
        <time>2019-12-07T10:32:46Z</time>
      </trkpt>
      <trkpt lat="45.04898" lon="3.87909">
        <ele>617.3</ele>
        <time>2019-12-07T10:32:47Z</time>
      </trkpt>
      <trkpt lat="45.04901" lon="3.87909">
        <ele>617.3</ele>
        <time>2019-12-07T10:32:48Z</time>
      </trkpt>
      <trkpt lat="45.04909" lon="3.87904">
        <ele>617.3</ele>
        <time>2019-12-07T10:32:51Z</time>
      </trkpt>
      <trkpt lat="45.04912" lon="3.87904">
        <ele>617.3</ele>
        <time>2019-12-07T10:32:52Z</time>
      </trkpt>
      <trkpt lat="45.04915" lon="3.87905">
        <ele>617.3</ele>
        <time>2019-12-07T10:32:53Z</time>
      </trkpt>
      <trkpt lat="45.04917" lon="3.87908">
        <ele>617.3</ele>
        <time>2019-12-07T10:32:54Z</time>
      </trkpt>
      <trkpt lat="45.04918" lon="3.8791">
        <ele>617.4</ele>
        <time>2019-12-07T10:32:55Z</time>
      </trkpt>
      <trkpt lat="45.04919" lon="3.87914">
        <ele>617.4</ele>
        <time>2019-12-07T10:32:56Z</time>
      </trkpt>
      <trkpt lat="45.0492" lon="3.87917">
        <ele>617.4</ele>
        <time>2019-12-07T10:32:57Z</time>
      </trkpt>
      <trkpt lat="45.04921" lon="3.8792">
        <ele>617.5</ele>
        <time>2019-12-07T10:32:58Z</time>
      </trkpt>
      <trkpt lat="45.04958" lon="3.87984">
        <ele>618.4</ele>
        <time>2019-12-07T10:33:18Z</time>
      </trkpt>
      <trkpt lat="45.04961" lon="3.87987">
        <ele>618.5</ele>
        <time>2019-12-07T10:33:24Z</time>
      </trkpt>
      <trkpt lat="45.04963" lon="3.87987">
        <ele>618.5</ele>
        <time>2019-12-07T10:33:25Z</time>
      </trkpt>
      <trkpt lat="45.04965" lon="3.87987">
        <ele>618.6</ele>
        <time>2019-12-07T10:33:26Z</time>
      </trkpt>
      <trkpt lat="45.04974" lon="3.87987">
        <ele>618.7</ele>
        <time>2019-12-07T10:33:30Z</time>
      </trkpt>
      <trkpt lat="45.04976" lon="3.87989">
        <ele>618.7</ele>
        <time>2019-12-07T10:33:31Z</time>
      </trkpt>
      <trkpt lat="45.04979" lon="3.87996">
        <ele>618.7</ele>
        <time>2019-12-07T10:33:34Z</time>
      </trkpt>
      <trkpt lat="45.04992" lon="3.88021">
        <ele>618.1</ele>
        <time>2019-12-07T10:33:44Z</time>
      </trkpt>
      <trkpt lat="45.04992" lon="3.88054">
        <ele>617.5</ele>
        <time>2019-12-07T10:33:58Z</time>
      </trkpt>
      <trkpt lat="45.04994" lon="3.88066">
        <ele>617.4</ele>
        <time>2019-12-07T10:34:10Z</time>
      </trkpt>
      <trkpt lat="45.04997" lon="3.88088">
        <ele>617</ele>
        <time>2019-12-07T10:46:26Z</time>
      </trkpt>
      <trkpt lat="45.04998" lon="3.8809">
        <ele>616.9</ele>
        <time>2019-12-07T10:46:27Z</time>
      </trkpt>
      <trkpt lat="45.04999" lon="3.88092">
        <ele>616.9</ele>
        <time>2019-12-07T10:46:28Z</time>
      </trkpt>
      <trkpt lat="45.05013" lon="3.88117">
        <ele>616.6</ele>
        <time>2019-12-07T10:46:38Z</time>
      </trkpt>
      <trkpt lat="45.05015" lon="3.88118">
        <ele>616.6</ele>
        <time>2019-12-07T10:46:39Z</time>
      </trkpt>
      <trkpt lat="45.05039" lon="3.88145">
        <ele>617</ele>
        <time>2019-12-07T10:46:52Z</time>
      </trkpt>
      <trkpt lat="45.05042" lon="3.88147">
        <ele>617</ele>
        <time>2019-12-07T10:46:53Z</time>
      </trkpt>
      <trkpt lat="45.05058" lon="3.88159">
        <ele>616.9</ele>
        <time>2019-12-07T10:46:58Z</time>
      </trkpt>
      <trkpt lat="45.05075" lon="3.88178">
        <ele>616.7</ele>
        <time>2019-12-07T10:47:05Z</time>
      </trkpt>
      <trkpt lat="45.05092" lon="3.88251">
        <ele>616.9</ele>
        <time>2019-12-07T10:47:28Z</time>
      </trkpt>
      <trkpt lat="45.05095" lon="3.88292">
        <ele>616.4</ele>
        <time>2019-12-07T10:47:39Z</time>
      </trkpt>
      <trkpt lat="45.05095" lon="3.88376">
        <ele>614.5</ele>
        <time>2019-12-07T10:47:59Z</time>
      </trkpt>
      <trkpt lat="45.05078" lon="3.88457">
        <ele>613.2</ele>
        <time>2019-12-07T10:48:19Z</time>
      </trkpt>
      <trkpt lat="45.05073" lon="3.88472">
        <ele>613.3</ele>
        <time>2019-12-07T10:48:23Z</time>
      </trkpt>
      <trkpt lat="45.05063" lon="3.88503">
        <ele>613.3</ele>
        <time>2019-12-07T10:48:31Z</time>
      </trkpt>
      <trkpt lat="45.05048" lon="3.88549">
        <ele>612.7</ele>
        <time>2019-12-07T10:48:44Z</time>
      </trkpt>
      <trkpt lat="45.05049" lon="3.88578">
        <ele>612.5</ele>
        <time>2019-12-07T10:48:51Z</time>
      </trkpt>
      <trkpt lat="45.0505" lon="3.88583">
        <ele>612.6</ele>
        <time>2019-12-07T10:48:52Z</time>
      </trkpt>
      <trkpt lat="45.05044" lon="3.88605">
        <ele>612.9</ele>
        <time>2019-12-07T10:48:57Z</time>
      </trkpt>
      <trkpt lat="45.05035" lon="3.88638">
        <ele>613.6</ele>
        <time>2019-12-07T10:49:05Z</time>
      </trkpt>
      <trkpt lat="45.05027" lon="3.88666">
        <ele>614.2</ele>
        <time>2019-12-07T10:49:12Z</time>
      </trkpt>
      <trkpt lat="45.05003" lon="3.88737">
        <ele>615</ele>
        <time>2019-12-07T10:49:31Z</time>
      </trkpt>
      <trkpt lat="45.04998" lon="3.88758">
        <ele>615.7</ele>
        <time>2019-12-07T10:49:36Z</time>
      </trkpt>
      <trkpt lat="45.04988" lon="3.88812">
        <ele>616.9</ele>
        <time>2019-12-07T10:49:49Z</time>
      </trkpt>
      <trkpt lat="45.04985" lon="3.88835">
        <ele>616.9</ele>
        <time>2019-12-07T10:49:55Z</time>
      </trkpt>
      <trkpt lat="45.04988" lon="3.88917">
        <ele>613.6</ele>
        <time>2019-12-07T10:50:17Z</time>
      </trkpt>
      <trkpt lat="45.04994" lon="3.89">
        <ele>613.1</ele>
        <time>2019-12-07T10:50:36Z</time>
      </trkpt>
      <trkpt lat="45.04993" lon="3.89031">
        <ele>613</ele>
        <time>2019-12-07T10:50:43Z</time>
      </trkpt>
      <trkpt lat="45.04989" lon="3.89109">
        <ele>613.1</ele>
        <time>2019-12-07T10:51:02Z</time>
      </trkpt>
      <trkpt lat="45.04984" lon="3.89193">
        <ele>609.9</ele>
        <time>2019-12-07T10:51:23Z</time>
      </trkpt>
      <trkpt lat="45.05019" lon="3.89256">
        <ele>609.2</ele>
        <time>2019-12-07T10:51:42Z</time>
      </trkpt>
      <trkpt lat="45.05041" lon="3.8928">
        <ele>608.7</ele>
        <time>2019-12-07T10:51:51Z</time>
      </trkpt>
      <trkpt lat="45.05053" lon="3.8933">
        <ele>608.6</ele>
        <time>2019-12-07T10:52:04Z</time>
      </trkpt>
      <trkpt lat="45.0505" lon="3.89372">
        <ele>608.3</ele>
        <time>2019-12-07T10:52:15Z</time>
      </trkpt>
      <trkpt lat="45.05051" lon="3.89398">
        <ele>608.2</ele>
        <time>2019-12-07T10:52:22Z</time>
      </trkpt>
      <trkpt lat="45.05053" lon="3.894">
        <ele>608.5</ele>
        <time>2019-12-07T10:52:23Z</time>
      </trkpt>
      <trkpt lat="45.05056" lon="3.89402">
        <ele>608.5</ele>
        <time>2019-12-07T10:52:24Z</time>
      </trkpt>
      <trkpt lat="45.05059" lon="3.89403">
        <ele>608.6</ele>
        <time>2019-12-07T10:52:25Z</time>
      </trkpt>
      <trkpt lat="45.05062" lon="3.89403">
        <ele>608.6</ele>
        <time>2019-12-07T10:52:26Z</time>
      </trkpt>
      <trkpt lat="45.05065" lon="3.89402">
        <ele>609.1</ele>
        <time>2019-12-07T10:52:27Z</time>
      </trkpt>
      <trkpt lat="45.05069" lon="3.89401">
        <ele>609.2</ele>
        <time>2019-12-07T10:52:28Z</time>
      </trkpt>
      <trkpt lat="45.05072" lon="3.89402">
        <ele>609.3</ele>
        <time>2019-12-07T10:52:29Z</time>
      </trkpt>
      <trkpt lat="45.05075" lon="3.89404">
        <ele>609.5</ele>
        <time>2019-12-07T10:52:30Z</time>
      </trkpt>
      <trkpt lat="45.05076" lon="3.89408">
        <ele>609.6</ele>
        <time>2019-12-07T10:52:31Z</time>
      </trkpt>
      <trkpt lat="45.05077" lon="3.89412">
        <ele>609.7</ele>
        <time>2019-12-07T10:52:32Z</time>
      </trkpt>
      <trkpt lat="45.05078" lon="3.89416">
        <ele>609.8</ele>
        <time>2019-12-07T10:52:33Z</time>
      </trkpt>
      <trkpt lat="45.05079" lon="3.8942">
        <ele>609.9</ele>
        <time>2019-12-07T10:52:34Z</time>
      </trkpt>
      <trkpt lat="45.0508" lon="3.89442">
        <ele>610.3</ele>
        <time>2019-12-07T10:52:40Z</time>
      </trkpt>
      <trkpt lat="45.05081" lon="3.89467">
        <ele>610.6</ele>
        <time>2019-12-07T10:52:47Z</time>
      </trkpt>
      <trkpt lat="45.05083" lon="3.89483">
        <ele>610.7</ele>
        <time>2019-12-07T10:52:51Z</time>
      </trkpt>
      <trkpt lat="45.05083" lon="3.89496">
        <ele>610.8</ele>
        <time>2019-12-07T10:52:54Z</time>
      </trkpt>
      <trkpt lat="45.05083" lon="3.89514">
        <ele>610.9</ele>
        <time>2019-12-07T10:52:58Z</time>
      </trkpt>
      <trkpt lat="45.05078" lon="3.89571">
        <ele>610.4</ele>
        <time>2019-12-07T10:53:12Z</time>
      </trkpt>
      <trkpt lat="45.0507" lon="3.89601">
        <ele>609.9</ele>
        <time>2019-12-07T10:53:19Z</time>
      </trkpt>
      <trkpt lat="45.05063" lon="3.89619">
        <ele>609.6</ele>
        <time>2019-12-07T10:53:24Z</time>
      </trkpt>
      <trkpt lat="45.05058" lon="3.89659">
        <ele>609.3</ele>
        <time>2019-12-07T10:53:35Z</time>
      </trkpt>
      <trkpt lat="45.0506" lon="3.89675">
        <ele>609.3</ele>
        <time>2019-12-07T10:53:39Z</time>
      </trkpt>
      <trkpt lat="45.0507" lon="3.89743">
        <ele>609.4</ele>
        <time>2019-12-07T10:53:57Z</time>
      </trkpt>
      <trkpt lat="45.05094" lon="3.89802">
        <ele>608.3</ele>
        <time>2019-12-07T10:54:12Z</time>
      </trkpt>
      <trkpt lat="45.05108" lon="3.89837">
        <ele>607.9</ele>
        <time>2019-12-07T10:54:20Z</time>
      </trkpt>
      <trkpt lat="45.05137" lon="3.89887">
        <ele>607.9</ele>
        <time>2019-12-07T10:54:33Z</time>
      </trkpt>
      <trkpt lat="45.05182" lon="3.89939">
        <ele>607.8</ele>
        <time>2019-12-07T10:54:50Z</time>
      </trkpt>
      <trkpt lat="45.05198" lon="3.89955">
        <ele>607.8</ele>
        <time>2019-12-07T10:54:56Z</time>
      </trkpt>
      <trkpt lat="45.0521" lon="3.89967">
        <ele>607.8</ele>
        <time>2019-12-07T10:55:01Z</time>
      </trkpt>
      <trkpt lat="45.05214" lon="3.89976">
        <ele>607.8</ele>
        <time>2019-12-07T10:55:04Z</time>
      </trkpt>
      <trkpt lat="45.05213" lon="3.8998">
        <ele>607.7</ele>
        <time>2019-12-07T10:55:05Z</time>
      </trkpt>
      <trkpt lat="45.05211" lon="3.89985">
        <ele>607.6</ele>
        <time>2019-12-07T10:55:06Z</time>
      </trkpt>
      <trkpt lat="45.05207" lon="3.89997">
        <ele>607.3</ele>
        <time>2019-12-07T10:55:09Z</time>
      </trkpt>
      <trkpt lat="45.0521" lon="3.90015">
        <ele>606.6</ele>
        <time>2019-12-07T10:55:13Z</time>
      </trkpt>
      <trkpt lat="45.05224" lon="3.90028">
        <ele>606.2</ele>
        <time>2019-12-07T10:55:18Z</time>
      </trkpt>
      <trkpt lat="45.05278" lon="3.90051">
        <ele>606.4</ele>
        <time>2019-12-07T10:55:35Z</time>
      </trkpt>
      <trkpt lat="45.05333" lon="3.90041">
        <ele>605.5</ele>
        <time>2019-12-07T10:55:53Z</time>
      </trkpt>
      <trkpt lat="45.0537" lon="3.9003">
        <ele>605.8</ele>
        <time>2019-12-07T10:56:05Z</time>
      </trkpt>
      <trkpt lat="45.0538" lon="3.90031">
        <ele>606</ele>
        <time>2019-12-07T10:56:08Z</time>
      </trkpt>
      <trkpt lat="45.05436" lon="3.90036">
        <ele>606.3</ele>
        <time>2019-12-07T10:56:25Z</time>
      </trkpt>
      <trkpt lat="45.05457" lon="3.90037">
        <ele>606.5</ele>
        <time>2019-12-07T10:56:32Z</time>
      </trkpt>
      <trkpt lat="45.05484" lon="3.90058">
        <ele>607.2</ele>
        <time>2019-12-07T10:56:41Z</time>
      </trkpt>
      <trkpt lat="45.05533" lon="3.90101">
        <ele>606.8</ele>
        <time>2019-12-07T10:56:59Z</time>
      </trkpt>
      <trkpt lat="45.05569" lon="3.90161">
        <ele>605</ele>
        <time>2019-12-07T10:57:18Z</time>
      </trkpt>
      <trkpt lat="45.05571" lon="3.90194">
        <ele>604</ele>
        <time>2019-12-07T10:57:25Z</time>
      </trkpt>
      <trkpt lat="45.05574" lon="3.90205">
        <ele>604.1</ele>
        <time>2019-12-07T10:57:28Z</time>
      </trkpt>
      <trkpt lat="45.05579" lon="3.90209">
        <ele>604.1</ele>
        <time>2019-12-07T10:57:30Z</time>
      </trkpt>
      <trkpt lat="45.05582" lon="3.90209">
        <ele>604.3</ele>
        <time>2019-12-07T10:57:31Z</time>
      </trkpt>
      <trkpt lat="45.05584" lon="3.90208">
        <ele>604.3</ele>
        <time>2019-12-07T10:57:32Z</time>
      </trkpt>
      <trkpt lat="45.05586" lon="3.90205">
        <ele>604.4</ele>
        <time>2019-12-07T10:57:33Z</time>
      </trkpt>
      <trkpt lat="45.05588" lon="3.90202">
        <ele>604.4</ele>
        <time>2019-12-07T10:57:34Z</time>
      </trkpt>
      <trkpt lat="45.05589" lon="3.90198">
        <ele>604.5</ele>
        <time>2019-12-07T10:57:35Z</time>
      </trkpt>
      <trkpt lat="45.05594" lon="3.90189">
        <ele>604.7</ele>
        <time>2019-12-07T10:57:38Z</time>
      </trkpt>
      <trkpt lat="45.05602" lon="3.90179">
        <ele>605</ele>
        <time>2019-12-07T10:57:42Z</time>
      </trkpt>
      <trkpt lat="45.05613" lon="3.90165">
        <ele>605.1</ele>
        <time>2019-12-07T10:57:48Z</time>
      </trkpt>
      <trkpt lat="45.05645" lon="3.90163">
        <ele>605.1</ele>
        <time>2019-12-07T10:57:59Z</time>
      </trkpt>
      <trkpt lat="45.05673" lon="3.90181">
        <ele>605.1</ele>
        <time>2019-12-07T10:58:09Z</time>
      </trkpt>
      <trkpt lat="45.057" lon="3.90215">
        <ele>604.8</ele>
        <time>2019-12-07T10:58:22Z</time>
      </trkpt>
      <trkpt lat="45.05712" lon="3.90233">
        <ele>604.5</ele>
        <time>2019-12-07T10:58:28Z</time>
      </trkpt>
      <trkpt lat="45.05722" lon="3.90255">
        <ele>604.2</ele>
        <time>2019-12-07T10:58:34Z</time>
      </trkpt>
      <trkpt lat="45.05729" lon="3.9027">
        <ele>604.1</ele>
        <time>2019-12-07T10:58:38Z</time>
      </trkpt>
      <trkpt lat="45.05743" lon="3.90296">
        <ele>603.8</ele>
        <time>2019-12-07T10:58:45Z</time>
      </trkpt>
      <trkpt lat="45.05749" lon="3.90373">
        <ele>603.2</ele>
        <time>2019-12-07T10:59:03Z</time>
      </trkpt>
      <trkpt lat="45.05708" lon="3.9043">
        <ele>603</ele>
        <time>2019-12-07T10:59:21Z</time>
      </trkpt>
      <trkpt lat="45.05677" lon="3.90502">
        <ele>601</ele>
        <time>2019-12-07T10:59:40Z</time>
      </trkpt>
      <trkpt lat="45.05671" lon="3.90513">
        <ele>600.9</ele>
        <time>2019-12-07T10:59:43Z</time>
      </trkpt>
      <trkpt lat="45.05662" lon="3.90532">
        <ele>601</ele>
        <time>2019-12-07T10:59:48Z</time>
      </trkpt>
      <trkpt lat="45.05658" lon="3.90542">
        <ele>601.2</ele>
        <time>2019-12-07T10:59:51Z</time>
      </trkpt>
      <trkpt lat="45.05655" lon="3.90549">
        <ele>601.4</ele>
        <time>2019-12-07T10:59:53Z</time>
      </trkpt>
      <trkpt lat="45.05651" lon="3.9056">
        <ele>601.7</ele>
        <time>2019-12-07T10:59:56Z</time>
      </trkpt>
      <trkpt lat="45.05648" lon="3.90573">
        <ele>602.2</ele>
        <time>2019-12-07T10:59:59Z</time>
      </trkpt>
      <trkpt lat="45.05639" lon="3.9061">
        <ele>603.5</ele>
        <time>2019-12-07T11:00:09Z</time>
      </trkpt>
      <trkpt lat="45.05636" lon="3.90624">
        <ele>603.8</ele>
        <time>2019-12-07T11:00:13Z</time>
      </trkpt>
      <trkpt lat="45.05632" lon="3.90643">
        <ele>604.1</ele>
        <time>2019-12-07T11:00:18Z</time>
      </trkpt>
      <trkpt lat="45.05629" lon="3.90654">
        <ele>604.1</ele>
        <time>2019-12-07T11:00:21Z</time>
      </trkpt>
      <trkpt lat="45.05625" lon="3.90671">
        <ele>604.2</ele>
        <time>2019-12-07T11:00:25Z</time>
      </trkpt>
      <trkpt lat="45.05621" lon="3.90692">
        <ele>604.2</ele>
        <time>2019-12-07T11:00:30Z</time>
      </trkpt>
      <trkpt lat="45.05594" lon="3.90761">
        <ele>604.3</ele>
        <time>2019-12-07T11:00:49Z</time>
      </trkpt>
      <trkpt lat="45.05574" lon="3.90808">
        <ele>605.4</ele>
        <time>2019-12-07T11:01:02Z</time>
      </trkpt>
      <trkpt lat="45.05545" lon="3.90875">
        <ele>607.1</ele>
        <time>2019-12-07T11:01:22Z</time>
      </trkpt>
      <trkpt lat="45.05539" lon="3.90901">
        <ele>606.7</ele>
        <time>2019-12-07T11:01:29Z</time>
      </trkpt>
      <trkpt lat="45.05544" lon="3.90938">
        <ele>606.1</ele>
        <time>2019-12-07T11:01:38Z</time>
      </trkpt>
      <trkpt lat="45.05547" lon="3.9095">
        <ele>605.8</ele>
        <time>2019-12-07T11:01:41Z</time>
      </trkpt>
      <trkpt lat="45.05549" lon="3.90957">
        <ele>605.6</ele>
        <time>2019-12-07T11:01:43Z</time>
      </trkpt>
      <trkpt lat="45.05555" lon="3.90978">
        <ele>605</ele>
        <time>2019-12-07T11:01:48Z</time>
      </trkpt>
      <trkpt lat="45.05562" lon="3.91001">
        <ele>604.3</ele>
        <time>2019-12-07T11:01:53Z</time>
      </trkpt>
      <trkpt lat="45.05574" lon="3.91048">
        <ele>602.4</ele>
        <time>2019-12-07T11:02:04Z</time>
      </trkpt>
      <trkpt lat="45.05578" lon="3.91061">
        <ele>601.9</ele>
        <time>2019-12-07T11:02:07Z</time>
      </trkpt>
      <trkpt lat="45.05591" lon="3.91089">
        <ele>601</ele>
        <time>2019-12-07T11:02:14Z</time>
      </trkpt>
      <trkpt lat="45.05606" lon="3.91119">
        <ele>600.4</ele>
        <time>2019-12-07T11:02:22Z</time>
      </trkpt>
      <trkpt lat="45.0562" lon="3.91174">
        <ele>600.2</ele>
        <time>2019-12-07T11:02:36Z</time>
      </trkpt>
      <trkpt lat="45.05629" lon="3.91257">
        <ele>600.2</ele>
        <time>2019-12-07T11:02:55Z</time>
      </trkpt>
      <trkpt lat="45.05624" lon="3.91321">
        <ele>600</ele>
        <time>2019-12-07T11:03:12Z</time>
      </trkpt>
      <trkpt lat="45.05605" lon="3.91334">
        <ele>599.7</ele>
        <time>2019-12-07T11:03:19Z</time>
      </trkpt>
      <trkpt lat="45.05584" lon="3.91333">
        <ele>600</ele>
        <time>2019-12-07T11:03:25Z</time>
      </trkpt>
      <trkpt lat="45.05561" lon="3.91354">
        <ele>600.2</ele>
        <time>2019-12-07T11:03:33Z</time>
      </trkpt>
      <trkpt lat="45.05533" lon="3.91376">
        <ele>600.3</ele>
        <time>2019-12-07T11:03:43Z</time>
      </trkpt>
      <trkpt lat="45.05483" lon="3.91413">
        <ele>600.3</ele>
        <time>2019-12-07T11:04:02Z</time>
      </trkpt>
      <trkpt lat="45.05432" lon="3.91455">
        <ele>600.3</ele>
        <time>2019-12-07T11:04:21Z</time>
      </trkpt>
      <trkpt lat="45.05383" lon="3.915">
        <ele>600.3</ele>
        <time>2019-12-07T11:04:39Z</time>
      </trkpt>
      <trkpt lat="45.05336" lon="3.9155">
        <ele>600.5</ele>
        <time>2019-12-07T11:04:58Z</time>
      </trkpt>
      <trkpt lat="45.0532" lon="3.91567">
        <ele>600.8</ele>
        <time>2019-12-07T11:05:05Z</time>
      </trkpt>
      <trkpt lat="45.05308" lon="3.9158">
        <ele>601.1</ele>
        <time>2019-12-07T11:05:11Z</time>
      </trkpt>
      <trkpt lat="45.053" lon="3.91584">
        <ele>601.2</ele>
        <time>2019-12-07T11:05:15Z</time>
      </trkpt>
      <trkpt lat="45.05295" lon="3.91587">
        <ele>600.6</ele>
        <time>2019-12-07T11:05:18Z</time>
      </trkpt>
      <trkpt lat="45.05295" lon="3.9159">
        <ele>600.3</ele>
        <time>2019-12-07T11:05:21Z</time>
      </trkpt>
      <trkpt lat="45.05295" lon="3.91591">
        <ele>600.2</ele>
        <time>2019-12-07T11:05:22Z</time>
      </trkpt>
      <trkpt lat="45.05295" lon="3.91592">
        <ele>600.1</ele>
        <time>2019-12-07T11:05:23Z</time>
      </trkpt>
      <trkpt lat="45.05295" lon="3.91595">
        <ele>599.8</ele>
        <time>2019-12-07T11:05:26Z</time>
      </trkpt>
      <trkpt lat="45.05294" lon="3.91596">
        <ele>599.7</ele>
        <time>2019-12-07T11:05:28Z</time>
      </trkpt>
      <trkpt lat="45.05294" lon="3.91603">
        <ele>599.1</ele>
        <time>2019-12-07T11:05:32Z</time>
      </trkpt>
      <trkpt lat="45.05293" lon="3.91605">
        <ele>598.9</ele>
        <time>2019-12-07T11:05:33Z</time>
      </trkpt>
      <trkpt lat="45.05292" lon="3.91607">
        <ele>598.6</ele>
        <time>2019-12-07T11:05:34Z</time>
      </trkpt>
      <trkpt lat="45.05292" lon="3.9161">
        <ele>598.4</ele>
        <time>2019-12-07T11:05:35Z</time>
      </trkpt>
      <trkpt lat="45.05293" lon="3.91613">
        <ele>598.2</ele>
        <time>2019-12-07T11:05:36Z</time>
      </trkpt>
      <trkpt lat="45.05294" lon="3.91617">
        <ele>598.3</ele>
        <time>2019-12-07T11:05:37Z</time>
      </trkpt>
      <trkpt lat="45.05295" lon="3.9162">
        <ele>598.5</ele>
        <time>2019-12-07T11:05:38Z</time>
      </trkpt>
      <trkpt lat="45.05298" lon="3.91631">
        <ele>598.9</ele>
        <time>2019-12-07T11:05:41Z</time>
      </trkpt>
      <trkpt lat="45.053" lon="3.91641">
        <ele>599.4</ele>
        <time>2019-12-07T11:05:44Z</time>
      </trkpt>
      <trkpt lat="45.05303" lon="3.91651">
        <ele>599.7</ele>
        <time>2019-12-07T11:05:47Z</time>
      </trkpt>
      <trkpt lat="45.05305" lon="3.91657">
        <ele>599.8</ele>
        <time>2019-12-07T11:05:49Z</time>
      </trkpt>
      <trkpt lat="45.05311" lon="3.91675">
        <ele>599.8</ele>
        <time>2019-12-07T11:05:54Z</time>
      </trkpt>
      <trkpt lat="45.05325" lon="3.9172">
        <ele>598.6</ele>
        <time>2019-12-07T11:06:01Z</time>
      </trkpt>
      <trkpt lat="45.05327" lon="3.91726">
        <ele>598.3</ele>
        <time>2019-12-07T11:06:02Z</time>
      </trkpt>
      <trkpt lat="45.05329" lon="3.91731">
        <ele>598</ele>
        <time>2019-12-07T11:06:03Z</time>
      </trkpt>
      <trkpt lat="45.05331" lon="3.91736">
        <ele>597.7</ele>
        <time>2019-12-07T11:06:04Z</time>
      </trkpt>
      <trkpt lat="45.05341" lon="3.91758">
        <ele>597.9</ele>
        <time>2019-12-07T11:06:09Z</time>
      </trkpt>
      <trkpt lat="45.05374" lon="3.9181">
        <ele>600.8</ele>
        <time>2019-12-07T11:06:25Z</time>
      </trkpt>
      <trkpt lat="45.05385" lon="3.91825">
        <ele>601.8</ele>
        <time>2019-12-07T11:06:35Z</time>
      </trkpt>
      <trkpt lat="45.05385" lon="3.91825">
        <ele>601.8</ele>
        <time>2019-12-07T11:06:37Z</time>
      </trkpt>
      <trkpt lat="45.05385" lon="3.91825">
        <ele>601.8</ele>
        <time>2019-12-07T11:06:38Z</time>
      </trkpt>
      <trkpt lat="45.05385" lon="3.91825">
        <ele>601.8</ele>
        <time>2019-12-07T11:06:40Z</time>
      </trkpt>
      <trkpt lat="45.05387" lon="3.9183">
        <ele>602</ele>
        <time>2019-12-07T11:06:44Z</time>
      </trkpt>
      <trkpt lat="45.05387" lon="3.91832">
        <ele>602</ele>
        <time>2019-12-07T11:06:45Z</time>
      </trkpt>
      <trkpt lat="45.05388" lon="3.91835">
        <ele>602.1</ele>
        <time>2019-12-07T11:06:46Z</time>
      </trkpt>
      <trkpt lat="45.05389" lon="3.91837">
        <ele>602.2</ele>
        <time>2019-12-07T11:06:47Z</time>
      </trkpt>
      <trkpt lat="45.05392" lon="3.91839">
        <ele>602.3</ele>
        <time>2019-12-07T11:06:48Z</time>
      </trkpt>
      <trkpt lat="45.05394" lon="3.91841">
        <ele>602.4</ele>
        <time>2019-12-07T11:06:49Z</time>
      </trkpt>
      <trkpt lat="45.05398" lon="3.91843">
        <ele>602.5</ele>
        <time>2019-12-07T11:06:50Z</time>
      </trkpt>
      <trkpt lat="45.05401" lon="3.91844">
        <ele>602.6</ele>
        <time>2019-12-07T11:06:51Z</time>
      </trkpt>
      <trkpt lat="45.05404" lon="3.91845">
        <ele>602.7</ele>
        <time>2019-12-07T11:06:52Z</time>
      </trkpt>
      <trkpt lat="45.05407" lon="3.91846">
        <ele>602.9</ele>
        <time>2019-12-07T11:06:53Z</time>
      </trkpt>
      <trkpt lat="45.05447" lon="3.91896">
        <ele>604.6</ele>
        <time>2019-12-07T11:07:11Z</time>
      </trkpt>
      <trkpt lat="45.05463" lon="3.91935">
        <ele>605.8</ele>
        <time>2019-12-07T11:07:21Z</time>
      </trkpt>
      <trkpt lat="45.05475" lon="3.91969">
        <ele>607.1</ele>
        <time>2019-12-07T11:07:31Z</time>
      </trkpt>
      <trkpt lat="45.05482" lon="3.91988">
        <ele>608.3</ele>
        <time>2019-12-07T11:07:38Z</time>
      </trkpt>
      <trkpt lat="45.05485" lon="3.92003">
        <ele>609.6</ele>
        <time>2019-12-07T11:07:43Z</time>
      </trkpt>
      <trkpt lat="45.05487" lon="3.92018">
        <ele>610.7</ele>
        <time>2019-12-07T11:07:48Z</time>
      </trkpt>
      <trkpt lat="45.05487" lon="3.92038">
        <ele>611.9</ele>
        <time>2019-12-07T11:07:55Z</time>
      </trkpt>
      <trkpt lat="45.05484" lon="3.92055">
        <ele>612.8</ele>
        <time>2019-12-07T11:08:01Z</time>
      </trkpt>
      <trkpt lat="45.05481" lon="3.92067">
        <ele>613.2</ele>
        <time>2019-12-07T11:08:06Z</time>
      </trkpt>
      <trkpt lat="45.05476" lon="3.92084">
        <ele>614</ele>
        <time>2019-12-07T11:08:13Z</time>
      </trkpt>
      <trkpt lat="45.05476" lon="3.92086">
        <ele>614.2</ele>
        <time>2019-12-07T11:08:14Z</time>
      </trkpt>
      <trkpt lat="45.05475" lon="3.92092">
        <ele>614.5</ele>
        <time>2019-12-07T11:08:16Z</time>
      </trkpt>
      <trkpt lat="45.05471" lon="3.92125">
        <ele>616.6</ele>
        <time>2019-12-07T11:08:30Z</time>
      </trkpt>
      <trkpt lat="45.05489" lon="3.92178">
        <ele>619.3</ele>
        <time>2019-12-07T11:08:45Z</time>
      </trkpt>
      <trkpt lat="45.05492" lon="3.92189">
        <ele>619.9</ele>
        <time>2019-12-07T11:08:48Z</time>
      </trkpt>
      <trkpt lat="45.05498" lon="3.92265">
        <ele>624.9</ele>
        <time>2019-12-07T11:09:09Z</time>
      </trkpt>
      <trkpt lat="45.05497" lon="3.92284">
        <ele>626.1</ele>
        <time>2019-12-07T11:09:14Z</time>
      </trkpt>
      <trkpt lat="45.05502" lon="3.92309">
        <ele>627.6</ele>
        <time>2019-12-07T11:09:22Z</time>
      </trkpt>
      <trkpt lat="45.05504" lon="3.92311">
        <ele>627.8</ele>
        <time>2019-12-07T11:09:23Z</time>
      </trkpt>
      <trkpt lat="45.05506" lon="3.92312">
        <ele>628</ele>
        <time>2019-12-07T11:09:24Z</time>
      </trkpt>
      <trkpt lat="45.05508" lon="3.92313">
        <ele>628.2</ele>
        <time>2019-12-07T11:09:25Z</time>
      </trkpt>
      <trkpt lat="45.05511" lon="3.92314">
        <ele>628.4</ele>
        <time>2019-12-07T11:09:26Z</time>
      </trkpt>
      <trkpt lat="45.05513" lon="3.92315">
        <ele>628.6</ele>
        <time>2019-12-07T11:09:27Z</time>
      </trkpt>
      <trkpt lat="45.05515" lon="3.92316">
        <ele>628.8</ele>
        <time>2019-12-07T11:09:28Z</time>
      </trkpt>
      <trkpt lat="45.05517" lon="3.92317">
        <ele>628.9</ele>
        <time>2019-12-07T11:09:29Z</time>
      </trkpt>
      <trkpt lat="45.0552" lon="3.92317">
        <ele>629</ele>
        <time>2019-12-07T11:09:30Z</time>
      </trkpt>
      <trkpt lat="45.05522" lon="3.92318">
        <ele>629.1</ele>
        <time>2019-12-07T11:09:31Z</time>
      </trkpt>
      <trkpt lat="45.05524" lon="3.92319">
        <ele>629.2</ele>
        <time>2019-12-07T11:09:32Z</time>
      </trkpt>
      <trkpt lat="45.05556" lon="3.92329">
        <ele>632.7</ele>
        <time>2019-12-07T11:09:47Z</time>
      </trkpt>
      <trkpt lat="45.05569" lon="3.92333">
        <ele>634.5</ele>
        <time>2019-12-07T11:09:53Z</time>
      </trkpt>
      <trkpt lat="45.05576" lon="3.92354">
        <ele>635.8</ele>
        <time>2019-12-07T11:10:02Z</time>
      </trkpt>
      <trkpt lat="45.05572" lon="3.9238">
        <ele>636.2</ele>
        <time>2019-12-07T11:10:11Z</time>
      </trkpt>
      <trkpt lat="45.05568" lon="3.92416">
        <ele>636.6</ele>
        <time>2019-12-07T11:10:22Z</time>
      </trkpt>
      <trkpt lat="45.05564" lon="3.92454">
        <ele>636.3</ele>
        <time>2019-12-07T11:10:32Z</time>
      </trkpt>
      <trkpt lat="45.05561" lon="3.92498">
        <ele>638.1</ele>
        <time>2019-12-07T11:10:44Z</time>
      </trkpt>
      <trkpt lat="45.05563" lon="3.9253">
        <ele>640.8</ele>
        <time>2019-12-07T11:10:54Z</time>
      </trkpt>
      <trkpt lat="45.05555" lon="3.92572">
        <ele>644.2</ele>
        <time>2019-12-07T11:11:09Z</time>
      </trkpt>
      <trkpt lat="45.05557" lon="3.92591">
        <ele>645.5</ele>
        <time>2019-12-07T11:11:16Z</time>
      </trkpt>
      <trkpt lat="45.05562" lon="3.92609">
        <ele>646.4</ele>
        <time>2019-12-07T11:11:24Z</time>
      </trkpt>
      <trkpt lat="45.05566" lon="3.92633">
        <ele>647.2</ele>
        <time>2019-12-07T11:11:33Z</time>
      </trkpt>
      <trkpt lat="45.05568" lon="3.92647">
        <ele>647.5</ele>
        <time>2019-12-07T11:11:38Z</time>
      </trkpt>
      <trkpt lat="45.05575" lon="3.9268">
        <ele>648.3</ele>
        <time>2019-12-07T11:11:49Z</time>
      </trkpt>
      <trkpt lat="45.05577" lon="3.92698">
        <ele>649.2</ele>
        <time>2019-12-07T11:11:55Z</time>
      </trkpt>
      <trkpt lat="45.05581" lon="3.92707">
        <ele>650</ele>
        <time>2019-12-07T11:11:59Z</time>
      </trkpt>
      <trkpt lat="45.05585" lon="3.92713">
        <ele>650.7</ele>
        <time>2019-12-07T11:12:02Z</time>
      </trkpt>
      <trkpt lat="45.05591" lon="3.92718">
        <ele>651.4</ele>
        <time>2019-12-07T11:12:05Z</time>
      </trkpt>
      <trkpt lat="45.05593" lon="3.92719">
        <ele>651.6</ele>
        <time>2019-12-07T11:12:06Z</time>
      </trkpt>
      <trkpt lat="45.05595" lon="3.92721">
        <ele>651.9</ele>
        <time>2019-12-07T11:12:07Z</time>
      </trkpt>
      <trkpt lat="45.05597" lon="3.92722">
        <ele>652.1</ele>
        <time>2019-12-07T11:12:08Z</time>
      </trkpt>
      <trkpt lat="45.05598" lon="3.92723">
        <ele>652.3</ele>
        <time>2019-12-07T11:12:09Z</time>
      </trkpt>
      <trkpt lat="45.05599" lon="3.92725">
        <ele>652.6</ele>
        <time>2019-12-07T11:12:10Z</time>
      </trkpt>
      <trkpt lat="45.056" lon="3.92727">
        <ele>652.9</ele>
        <time>2019-12-07T11:12:11Z</time>
      </trkpt>
      <trkpt lat="45.05602" lon="3.92729">
        <ele>653.1</ele>
        <time>2019-12-07T11:12:12Z</time>
      </trkpt>
      <trkpt lat="45.05602" lon="3.92731">
        <ele>653.4</ele>
        <time>2019-12-07T11:12:13Z</time>
      </trkpt>
      <trkpt lat="45.05606" lon="3.9274">
        <ele>654.3</ele>
        <time>2019-12-07T11:12:17Z</time>
      </trkpt>
      <trkpt lat="45.05614" lon="3.92763">
        <ele>656.7</ele>
        <time>2019-12-07T11:12:30Z</time>
      </trkpt>
      <trkpt lat="45.05617" lon="3.92767">
        <ele>657.1</ele>
        <time>2019-12-07T11:12:33Z</time>
      </trkpt>
      <trkpt lat="45.05619" lon="3.9277">
        <ele>657.5</ele>
        <time>2019-12-07T11:12:35Z</time>
      </trkpt>
      <trkpt lat="45.0562" lon="3.92772">
        <ele>657.6</ele>
        <time>2019-12-07T11:12:36Z</time>
      </trkpt>
      <trkpt lat="45.0562" lon="3.92773">
        <ele>657.8</ele>
        <time>2019-12-07T11:12:37Z</time>
      </trkpt>
      <trkpt lat="45.0563" lon="3.92796">
        <ele>660.1</ele>
        <time>2019-12-07T11:12:50Z</time>
      </trkpt>
      <trkpt lat="45.05645" lon="3.92829">
        <ele>662.6</ele>
        <time>2019-12-07T11:13:08Z</time>
      </trkpt>
      <trkpt lat="45.05647" lon="3.92834">
        <ele>662.8</ele>
        <time>2019-12-07T11:13:11Z</time>
      </trkpt>
      <trkpt lat="45.0565" lon="3.92839">
        <ele>663.1</ele>
        <time>2019-12-07T11:13:14Z</time>
      </trkpt>
      <trkpt lat="45.05653" lon="3.92845">
        <ele>663.5</ele>
        <time>2019-12-07T11:13:17Z</time>
      </trkpt>
      <trkpt lat="45.05666" lon="3.92874">
        <ele>666.7</ele>
        <time>2019-12-07T11:13:32Z</time>
      </trkpt>
      <trkpt lat="45.05672" lon="3.92889">
        <ele>668.8</ele>
        <time>2019-12-07T11:13:39Z</time>
      </trkpt>
      <trkpt lat="45.05674" lon="3.92893">
        <ele>669.2</ele>
        <time>2019-12-07T11:13:41Z</time>
      </trkpt>
      <trkpt lat="45.05685" lon="3.9292">
        <ele>671.5</ele>
        <time>2019-12-07T11:13:54Z</time>
      </trkpt>
      <trkpt lat="45.05686" lon="3.92922">
        <ele>671.7</ele>
        <time>2019-12-07T11:13:55Z</time>
      </trkpt>
      <trkpt lat="45.05688" lon="3.92927">
        <ele>672.1</ele>
        <time>2019-12-07T11:13:57Z</time>
      </trkpt>
      <trkpt lat="45.05703" lon="3.92961">
        <ele>675</ele>
        <time>2019-12-07T11:14:12Z</time>
      </trkpt>
      <trkpt lat="45.05721" lon="3.92997">
        <ele>678</ele>
        <time>2019-12-07T11:14:29Z</time>
      </trkpt>
      <trkpt lat="45.05724" lon="3.93002">
        <ele>678.3</ele>
        <time>2019-12-07T11:14:31Z</time>
      </trkpt>
      <trkpt lat="45.0575" lon="3.93054">
        <ele>681.5</ele>
        <time>2019-12-07T11:14:51Z</time>
      </trkpt>
      <trkpt lat="45.05755" lon="3.93063">
        <ele>681.9</ele>
        <time>2019-12-07T11:14:54Z</time>
      </trkpt>
      <trkpt lat="45.05778" lon="3.93108">
        <ele>683.6</ele>
        <time>2019-12-07T11:15:10Z</time>
      </trkpt>
      <trkpt lat="45.05809" lon="3.93172">
        <ele>685</ele>
        <time>2019-12-07T11:15:31Z</time>
      </trkpt>
      <trkpt lat="45.0582" lon="3.93198">
        <ele>686.2</ele>
        <time>2019-12-07T11:15:40Z</time>
      </trkpt>
      <trkpt lat="45.05826" lon="3.93209">
        <ele>687.1</ele>
        <time>2019-12-07T11:15:44Z</time>
      </trkpt>
      <trkpt lat="45.0583" lon="3.93225">
        <ele>688.6</ele>
        <time>2019-12-07T11:15:49Z</time>
      </trkpt>
      <trkpt lat="45.05833" lon="3.93233">
        <ele>689.4</ele>
        <time>2019-12-07T11:15:52Z</time>
      </trkpt>
      <trkpt lat="45.05841" lon="3.93265">
        <ele>691.3</ele>
        <time>2019-12-07T11:16:05Z</time>
      </trkpt>
      <trkpt lat="45.05841" lon="3.9327">
        <ele>691.4</ele>
        <time>2019-12-07T11:16:07Z</time>
      </trkpt>
      <trkpt lat="45.05841" lon="3.93272">
        <ele>691.4</ele>
        <time>2019-12-07T11:16:08Z</time>
      </trkpt>
      <trkpt lat="45.05841" lon="3.93279">
        <ele>691.5</ele>
        <time>2019-12-07T11:16:11Z</time>
      </trkpt>
      <trkpt lat="45.05855" lon="3.9332">
        <ele>693.1</ele>
        <time>2019-12-07T11:16:31Z</time>
      </trkpt>
      <trkpt lat="45.05857" lon="3.93327">
        <ele>693.5</ele>
        <time>2019-12-07T11:16:35Z</time>
      </trkpt>
      <trkpt lat="45.05857" lon="3.93329">
        <ele>693.6</ele>
        <time>2019-12-07T11:16:36Z</time>
      </trkpt>
      <trkpt lat="45.05857" lon="3.93333">
        <ele>693.9</ele>
        <time>2019-12-07T11:16:38Z</time>
      </trkpt>
      <trkpt lat="45.05862" lon="3.93371">
        <ele>697.2</ele>
        <time>2019-12-07T11:16:54Z</time>
      </trkpt>
      <trkpt lat="45.05862" lon="3.93378">
        <ele>697.7</ele>
        <time>2019-12-07T11:16:57Z</time>
      </trkpt>
      <trkpt lat="45.05864" lon="3.93397">
        <ele>698.9</ele>
        <time>2019-12-07T11:17:05Z</time>
      </trkpt>
      <trkpt lat="45.05864" lon="3.93403">
        <ele>699.1</ele>
        <time>2019-12-07T11:17:08Z</time>
      </trkpt>
      <trkpt lat="45.05869" lon="3.93449">
        <ele>698.5</ele>
        <time>2019-12-07T11:17:24Z</time>
      </trkpt>
      <trkpt lat="45.05872" lon="3.9353">
        <ele>695.9</ele>
        <time>2019-12-07T11:17:41Z</time>
      </trkpt>
      <trkpt lat="45.05871" lon="3.93538">
        <ele>695.6</ele>
        <time>2019-12-07T11:17:43Z</time>
      </trkpt>
      <trkpt lat="45.05869" lon="3.93555">
        <ele>694.9</ele>
        <time>2019-12-07T11:17:47Z</time>
      </trkpt>
      <trkpt lat="45.05869" lon="3.93565">
        <ele>694.5</ele>
        <time>2019-12-07T11:17:49Z</time>
      </trkpt>
      <trkpt lat="45.0587" lon="3.9363">
        <ele>691.6</ele>
        <time>2019-12-07T11:18:03Z</time>
      </trkpt>
      <trkpt lat="45.05869" lon="3.93658">
        <ele>690.9</ele>
        <time>2019-12-07T11:18:09Z</time>
      </trkpt>
      <trkpt lat="45.05868" lon="3.93671">
        <ele>690.7</ele>
        <time>2019-12-07T11:18:12Z</time>
      </trkpt>
      <trkpt lat="45.05866" lon="3.93682">
        <ele>690.5</ele>
        <time>2019-12-07T11:18:15Z</time>
      </trkpt>
      <trkpt lat="45.05865" lon="3.93685">
        <ele>690.5</ele>
        <time>2019-12-07T11:18:16Z</time>
      </trkpt>
      <trkpt lat="45.05866" lon="3.93686">
        <ele>690.5</ele>
        <time>2019-12-07T11:18:17Z</time>
      </trkpt>
      <trkpt lat="45.05866" lon="3.93688">
        <ele>690.5</ele>
        <time>2019-12-07T11:18:18Z</time>
      </trkpt>
      <trkpt lat="45.05868" lon="3.93688">
        <ele>690.4</ele>
        <time>2019-12-07T11:18:19Z</time>
      </trkpt>
      <trkpt lat="45.05869" lon="3.9369">
        <ele>690.4</ele>
        <time>2019-12-07T11:18:20Z</time>
      </trkpt>
      <trkpt lat="45.0587" lon="3.93692">
        <ele>690.4</ele>
        <time>2019-12-07T11:18:21Z</time>
      </trkpt>
      <trkpt lat="45.0587" lon="3.93695">
        <ele>690.4</ele>
        <time>2019-12-07T11:18:22Z</time>
      </trkpt>
      <trkpt lat="45.0587" lon="3.93697">
        <ele>690.4</ele>
        <time>2019-12-07T11:18:23Z</time>
      </trkpt>
      <trkpt lat="45.0587" lon="3.93698">
        <ele>690.3</ele>
        <time>2019-12-07T11:18:26Z</time>
      </trkpt>
      <trkpt lat="45.05869" lon="3.93699">
        <ele>690.3</ele>
        <time>2019-12-07T11:18:29Z</time>
      </trkpt>
      <trkpt lat="45.05867" lon="3.93709">
        <ele>690.2</ele>
        <time>2019-12-07T11:18:40Z</time>
      </trkpt>
      <trkpt lat="45.05866" lon="3.93713">
        <ele>690.2</ele>
        <time>2019-12-07T11:18:41Z</time>
      </trkpt>
      <trkpt lat="45.05863" lon="3.93728">
        <ele>690</ele>
        <time>2019-12-07T11:18:45Z</time>
      </trkpt>
      <trkpt lat="45.05864" lon="3.9373">
        <ele>690</ele>
        <time>2019-12-07T11:18:46Z</time>
      </trkpt>
      <trkpt lat="45.05864" lon="3.93732">
        <ele>690</ele>
        <time>2019-12-07T11:18:47Z</time>
      </trkpt>
      <trkpt lat="45.05865" lon="3.93733">
        <ele>690</ele>
        <time>2019-12-07T11:18:48Z</time>
      </trkpt>
      <trkpt lat="45.05868" lon="3.9374">
        <ele>689.5</ele>
        <time>2019-12-07T11:18:54Z</time>
      </trkpt>
      <trkpt lat="45.05868" lon="3.93743">
        <ele>689.5</ele>
        <time>2019-12-07T11:18:55Z</time>
      </trkpt>
      <trkpt lat="45.05868" lon="3.93746">
        <ele>689.4</ele>
        <time>2019-12-07T11:18:56Z</time>
      </trkpt>
      <trkpt lat="45.05869" lon="3.93749">
        <ele>689.3</ele>
        <time>2019-12-07T11:18:57Z</time>
      </trkpt>
      <trkpt lat="45.0587" lon="3.93752">
        <ele>689.2</ele>
        <time>2019-12-07T11:18:58Z</time>
      </trkpt>
      <trkpt lat="45.05891" lon="3.93756">
        <ele>687.9</ele>
        <time>2019-12-07T11:19:00Z</time>
      </trkpt>
      <trkpt lat="45.05909" lon="3.93762">
        <ele>687.1</ele>
        <time>2019-12-07T11:19:05Z</time>
      </trkpt>
      <trkpt lat="45.05909" lon="3.93764">
        <ele>687</ele>
        <time>2019-12-07T11:19:06Z</time>
      </trkpt>
      <trkpt lat="45.05908" lon="3.93766">
        <ele>687</ele>
        <time>2019-12-07T11:19:07Z</time>
      </trkpt>
      <trkpt lat="45.05906" lon="3.93765">
        <ele>686.9</ele>
        <time>2019-12-07T11:19:08Z</time>
      </trkpt>
      <trkpt lat="45.05904" lon="3.93764">
        <ele>687</ele>
        <time>2019-12-07T11:19:09Z</time>
      </trkpt>
      <trkpt lat="45.05902" lon="3.93762">
        <ele>687.1</ele>
        <time>2019-12-07T11:19:10Z</time>
      </trkpt>
      <trkpt lat="45.05899" lon="3.93761">
        <ele>687.2</ele>
        <time>2019-12-07T11:19:11Z</time>
      </trkpt>
      <trkpt lat="45.05896" lon="3.93761">
        <ele>687.3</ele>
        <time>2019-12-07T11:19:12Z</time>
      </trkpt>
      <trkpt lat="45.05894" lon="3.93761">
        <ele>687.3</ele>
        <time>2019-12-07T11:19:13Z</time>
      </trkpt>
      <trkpt lat="45.05891" lon="3.93761">
        <ele>687.4</ele>
        <time>2019-12-07T11:19:14Z</time>
      </trkpt>
      <trkpt lat="45.05889" lon="3.93762">
        <ele>687.4</ele>
        <time>2019-12-07T11:19:15Z</time>
      </trkpt>
      <trkpt lat="45.05888" lon="3.93763">
        <ele>687.4</ele>
        <time>2019-12-07T11:19:16Z</time>
      </trkpt>
      <trkpt lat="45.05887" lon="3.93764">
        <ele>687.5</ele>
        <time>2019-12-07T11:19:17Z</time>
      </trkpt>
      <trkpt lat="45.05886" lon="3.93766">
        <ele>687.5</ele>
        <time>2019-12-07T11:19:18Z</time>
      </trkpt>
      <trkpt lat="45.05885" lon="3.93768">
        <ele>687.5</ele>
        <time>2019-12-07T11:19:19Z</time>
      </trkpt>
      <trkpt lat="45.05884" lon="3.93771">
        <ele>687.6</ele>
        <time>2019-12-07T11:19:20Z</time>
      </trkpt>
      <trkpt lat="45.05881" lon="3.93789">
        <ele>687.7</ele>
        <time>2019-12-07T11:19:33Z</time>
      </trkpt>
      <trkpt lat="45.05881" lon="3.93789">
        <ele>687.7</ele>
        <time>2019-12-07T11:19:35Z</time>
      </trkpt>
      <trkpt lat="45.05878" lon="3.93797">
        <ele>687.8</ele>
        <time>2019-12-07T11:21:23Z</time>
      </trkpt>
      <trkpt lat="45.05877" lon="3.93799">
        <ele>687.8</ele>
        <time>2019-12-07T11:21:24Z</time>
      </trkpt>
      <trkpt lat="45.05876" lon="3.93802">
        <ele>687.8</ele>
        <time>2019-12-07T11:21:25Z</time>
      </trkpt>
      <trkpt lat="45.05862" lon="3.93835">
        <ele>687.9</ele>
        <time>2019-12-07T11:21:33Z</time>
      </trkpt>
      <trkpt lat="45.05849" lon="3.93865">
        <ele>688</ele>
        <time>2019-12-07T11:21:39Z</time>
      </trkpt>
      <trkpt lat="45.05843" lon="3.93881">
        <ele>688</ele>
        <time>2019-12-07T11:21:42Z</time>
      </trkpt>
      <trkpt lat="45.05833" lon="3.93912">
        <ele>687.7</ele>
        <time>2019-12-07T11:21:47Z</time>
      </trkpt>
      <trkpt lat="45.05829" lon="3.93935">
        <ele>687.4</ele>
        <time>2019-12-07T11:21:50Z</time>
      </trkpt>
      <trkpt lat="45.05825" lon="3.93975">
        <ele>686.8</ele>
        <time>2019-12-07T11:21:55Z</time>
      </trkpt>
      <trkpt lat="45.05824" lon="3.94055">
        <ele>685.9</ele>
        <time>2019-12-07T11:22:06Z</time>
      </trkpt>
      <trkpt lat="45.05825" lon="3.94062">
        <ele>685.9</ele>
        <time>2019-12-07T11:22:07Z</time>
      </trkpt>
      <trkpt lat="45.05833" lon="3.94109">
        <ele>686</ele>
        <time>2019-12-07T11:22:14Z</time>
      </trkpt>
      <trkpt lat="45.05832" lon="3.94116">
        <ele>686</ele>
        <time>2019-12-07T11:22:15Z</time>
      </trkpt>
      <trkpt lat="45.05831" lon="3.94122">
        <ele>686.1</ele>
        <time>2019-12-07T11:22:16Z</time>
      </trkpt>
      <trkpt lat="45.05829" lon="3.94128">
        <ele>686.3</ele>
        <time>2019-12-07T11:22:17Z</time>
      </trkpt>
      <trkpt lat="45.05826" lon="3.94133">
        <ele>686.4</ele>
        <time>2019-12-07T11:22:18Z</time>
      </trkpt>
      <trkpt lat="45.05822" lon="3.94138">
        <ele>686.6</ele>
        <time>2019-12-07T11:22:19Z</time>
      </trkpt>
      <trkpt lat="45.05819" lon="3.94143">
        <ele>686.7</ele>
        <time>2019-12-07T11:22:20Z</time>
      </trkpt>
      <trkpt lat="45.05815" lon="3.94147">
        <ele>686.8</ele>
        <time>2019-12-07T11:22:21Z</time>
      </trkpt>
      <trkpt lat="45.05812" lon="3.94151">
        <ele>686.9</ele>
        <time>2019-12-07T11:22:22Z</time>
      </trkpt>
      <trkpt lat="45.05808" lon="3.94153">
        <ele>686.9</ele>
        <time>2019-12-07T11:22:23Z</time>
      </trkpt>
      <trkpt lat="45.05801" lon="3.94158">
        <ele>687.1</ele>
        <time>2019-12-07T11:22:25Z</time>
      </trkpt>
      <trkpt lat="45.05783" lon="3.94173">
        <ele>687.6</ele>
        <time>2019-12-07T11:22:30Z</time>
      </trkpt>
      <trkpt lat="45.05764" lon="3.94191">
        <ele>687.7</ele>
        <time>2019-12-07T11:22:35Z</time>
      </trkpt>
      <trkpt lat="45.05752" lon="3.94201">
        <ele>687.8</ele>
        <time>2019-12-07T11:22:38Z</time>
      </trkpt>
      <trkpt lat="45.05736" lon="3.94214">
        <ele>687.7</ele>
        <time>2019-12-07T11:22:42Z</time>
      </trkpt>
      <trkpt lat="45.05719" lon="3.94224">
        <ele>687.8</ele>
        <time>2019-12-07T11:22:46Z</time>
      </trkpt>
      <trkpt lat="45.05667" lon="3.94258">
        <ele>689.5</ele>
        <time>2019-12-07T11:23:02Z</time>
      </trkpt>
      <trkpt lat="45.05632" lon="3.94321">
        <ele>690.9</ele>
        <time>2019-12-07T11:23:19Z</time>
      </trkpt>
      <trkpt lat="45.05621" lon="3.94357">
        <ele>691.1</ele>
        <time>2019-12-07T11:23:27Z</time>
      </trkpt>
      <trkpt lat="45.05616" lon="3.94382">
        <ele>691.2</ele>
        <time>2019-12-07T11:23:33Z</time>
      </trkpt>
      <trkpt lat="45.05618" lon="3.94386">
        <ele>691.2</ele>
        <time>2019-12-07T11:23:34Z</time>
      </trkpt>
      <trkpt lat="45.0562" lon="3.94388">
        <ele>691.3</ele>
        <time>2019-12-07T11:23:35Z</time>
      </trkpt>
      <trkpt lat="45.05623" lon="3.9439">
        <ele>691.3</ele>
        <time>2019-12-07T11:23:36Z</time>
      </trkpt>
      <trkpt lat="45.05627" lon="3.94392">
        <ele>691.3</ele>
        <time>2019-12-07T11:23:37Z</time>
      </trkpt>
      <trkpt lat="45.05641" lon="3.944">
        <ele>691.6</ele>
        <time>2019-12-07T11:23:41Z</time>
      </trkpt>
      <trkpt lat="45.05646" lon="3.94406">
        <ele>691.8</ele>
        <time>2019-12-07T11:23:43Z</time>
      </trkpt>
      <trkpt lat="45.05657" lon="3.94459">
        <ele>694.5</ele>
        <time>2019-12-07T11:24:00Z</time>
      </trkpt>
      <trkpt lat="45.05665" lon="3.94494">
        <ele>698</ele>
        <time>2019-12-07T11:24:13Z</time>
      </trkpt>
      <trkpt lat="45.05668" lon="3.94505">
        <ele>699.2</ele>
        <time>2019-12-07T11:24:18Z</time>
      </trkpt>
      <trkpt lat="45.05673" lon="3.94516">
        <ele>700.6</ele>
        <time>2019-12-07T11:24:25Z</time>
      </trkpt>
      <trkpt lat="45.05679" lon="3.94526">
        <ele>701.7</ele>
        <time>2019-12-07T11:24:31Z</time>
      </trkpt>
      <trkpt lat="45.05683" lon="3.94532">
        <ele>702.3</ele>
        <time>2019-12-07T11:24:35Z</time>
      </trkpt>
      <trkpt lat="45.05694" lon="3.94537">
        <ele>703.1</ele>
        <time>2019-12-07T11:24:41Z</time>
      </trkpt>
      <trkpt lat="45.05724" lon="3.94544">
        <ele>705.5</ele>
        <time>2019-12-07T11:24:56Z</time>
      </trkpt>
      <trkpt lat="45.05753" lon="3.94539">
        <ele>707.9</ele>
        <time>2019-12-07T11:25:10Z</time>
      </trkpt>
      <trkpt lat="45.05763" lon="3.94541">
        <ele>708.3</ele>
        <time>2019-12-07T11:25:15Z</time>
      </trkpt>
      <trkpt lat="45.05765" lon="3.94543">
        <ele>708.4</ele>
        <time>2019-12-07T11:25:16Z</time>
      </trkpt>
      <trkpt lat="45.05766" lon="3.94545">
        <ele>708.4</ele>
        <time>2019-12-07T11:25:17Z</time>
      </trkpt>
      <trkpt lat="45.05781" lon="3.94567">
        <ele>708.9</ele>
        <time>2019-12-07T11:25:26Z</time>
      </trkpt>
      <trkpt lat="45.05801" lon="3.94581">
        <ele>708.5</ele>
        <time>2019-12-07T11:25:35Z</time>
      </trkpt>
      <trkpt lat="45.05807" lon="3.94581">
        <ele>708.2</ele>
        <time>2019-12-07T11:25:37Z</time>
      </trkpt>
      <trkpt lat="45.05837" lon="3.94577">
        <ele>705.7</ele>
        <time>2019-12-07T11:25:47Z</time>
      </trkpt>
      <trkpt lat="45.0584" lon="3.9458">
        <ele>705.4</ele>
        <time>2019-12-07T11:25:48Z</time>
      </trkpt>
      <trkpt lat="45.05842" lon="3.94584">
        <ele>705.7</ele>
        <time>2019-12-07T11:25:49Z</time>
      </trkpt>
      <trkpt lat="45.05843" lon="3.9459">
        <ele>706</ele>
        <time>2019-12-07T11:25:50Z</time>
      </trkpt>
      <trkpt lat="45.05843" lon="3.94594">
        <ele>706.3</ele>
        <time>2019-12-07T11:25:51Z</time>
      </trkpt>
      <trkpt lat="45.05842" lon="3.94599">
        <ele>706.5</ele>
        <time>2019-12-07T11:25:52Z</time>
      </trkpt>
      <trkpt lat="45.05841" lon="3.94603">
        <ele>706.8</ele>
        <time>2019-12-07T11:25:53Z</time>
      </trkpt>
      <trkpt lat="45.05839" lon="3.94615">
        <ele>707.4</ele>
        <time>2019-12-07T11:25:56Z</time>
      </trkpt>
      <trkpt lat="45.05838" lon="3.94623">
        <ele>707.9</ele>
        <time>2019-12-07T11:25:58Z</time>
      </trkpt>
      <trkpt lat="45.05829" lon="3.94695">
        <ele>709.5</ele>
        <time>2019-12-07T11:26:16Z</time>
      </trkpt>
      <trkpt lat="45.05828" lon="3.94702">
        <ele>709.7</ele>
        <time>2019-12-07T11:26:18Z</time>
      </trkpt>
      <trkpt lat="45.05827" lon="3.9471">
        <ele>709.9</ele>
        <time>2019-12-07T11:26:20Z</time>
      </trkpt>
      <trkpt lat="45.05825" lon="3.94722">
        <ele>710.1</ele>
        <time>2019-12-07T11:26:23Z</time>
      </trkpt>
      <trkpt lat="45.05824" lon="3.94731">
        <ele>710.2</ele>
        <time>2019-12-07T11:26:25Z</time>
      </trkpt>
      <trkpt lat="45.05822" lon="3.94745">
        <ele>710</ele>
        <time>2019-12-07T11:26:28Z</time>
      </trkpt>
      <trkpt lat="45.05816" lon="3.94784">
        <ele>708</ele>
        <time>2019-12-07T11:26:37Z</time>
      </trkpt>
      <trkpt lat="45.05815" lon="3.94793">
        <ele>707.2</ele>
        <time>2019-12-07T11:26:39Z</time>
      </trkpt>
      <trkpt lat="45.05813" lon="3.94843">
        <ele>704.8</ele>
        <time>2019-12-07T11:26:51Z</time>
      </trkpt>
      <trkpt lat="45.05816" lon="3.94861">
        <ele>704.7</ele>
        <time>2019-12-07T11:26:55Z</time>
      </trkpt>
      <trkpt lat="45.05818" lon="3.94878">
        <ele>704.7</ele>
        <time>2019-12-07T11:26:59Z</time>
      </trkpt>
      <trkpt lat="45.05821" lon="3.94911">
        <ele>704.6</ele>
        <time>2019-12-07T11:27:06Z</time>
      </trkpt>
      <trkpt lat="45.0582" lon="3.94991">
        <ele>706.5</ele>
        <time>2019-12-07T11:27:24Z</time>
      </trkpt>
      <trkpt lat="45.05817" lon="3.95071">
        <ele>704.1</ele>
        <time>2019-12-07T11:27:43Z</time>
      </trkpt>
      <trkpt lat="45.05814" lon="3.9513">
        <ele>704.5</ele>
        <time>2019-12-07T11:27:56Z</time>
      </trkpt>
      <trkpt lat="45.05805" lon="3.95174">
        <ele>704.4</ele>
        <time>2019-12-07T11:28:07Z</time>
      </trkpt>
      <trkpt lat="45.05796" lon="3.95212">
        <ele>703.3</ele>
        <time>2019-12-07T11:28:16Z</time>
      </trkpt>
      <trkpt lat="45.05793" lon="3.95225">
        <ele>703.3</ele>
        <time>2019-12-07T11:28:19Z</time>
      </trkpt>
      <trkpt lat="45.05775" lon="3.95284">
        <ele>700.7</ele>
        <time>2019-12-07T11:28:34Z</time>
      </trkpt>
      <trkpt lat="45.05753" lon="3.95358">
        <ele>699.1</ele>
        <time>2019-12-07T11:28:52Z</time>
      </trkpt>
      <trkpt lat="45.05746" lon="3.95382">
        <ele>698.4</ele>
        <time>2019-12-07T11:28:58Z</time>
      </trkpt>
      <trkpt lat="45.05717" lon="3.95437">
        <ele>696.9</ele>
        <time>2019-12-07T11:29:12Z</time>
      </trkpt>
      <trkpt lat="45.05695" lon="3.95466">
        <ele>692.1</ele>
        <time>2019-12-07T11:29:21Z</time>
      </trkpt>
      <trkpt lat="45.05683" lon="3.95483">
        <ele>688.3</ele>
        <time>2019-12-07T11:29:31Z</time>
      </trkpt>
      <trkpt lat="45.05684" lon="3.9548">
        <ele>688.1</ele>
        <time>2019-12-07T11:29:39Z</time>
      </trkpt>
      <trkpt lat="45.05679" lon="3.95485">
        <ele>687.3</ele>
        <time>2019-12-07T11:31:36Z</time>
      </trkpt>
      <trkpt lat="45.05678" lon="3.95486">
        <ele>687.1</ele>
        <time>2019-12-07T11:31:37Z</time>
      </trkpt>
      <trkpt lat="45.05675" lon="3.95491">
        <ele>686.6</ele>
        <time>2019-12-07T11:31:40Z</time>
      </trkpt>
      <trkpt lat="45.05672" lon="3.95494">
        <ele>686.1</ele>
        <time>2019-12-07T11:31:42Z</time>
      </trkpt>
      <trkpt lat="45.05668" lon="3.955">
        <ele>685.2</ele>
        <time>2019-12-07T11:31:46Z</time>
      </trkpt>
      <trkpt lat="45.05646" lon="3.95527">
        <ele>681.4</ele>
        <time>2019-12-07T11:31:56Z</time>
      </trkpt>
      <trkpt lat="45.05629" lon="3.95547">
        <ele>678.6</ele>
        <time>2019-12-07T11:32:03Z</time>
      </trkpt>
      <trkpt lat="45.05609" lon="3.9557">
        <ele>675.6</ele>
        <time>2019-12-07T11:32:11Z</time>
      </trkpt>
      <trkpt lat="45.05585" lon="3.95595">
        <ele>673.3</ele>
        <time>2019-12-07T11:32:20Z</time>
      </trkpt>
      <trkpt lat="45.05552" lon="3.95624">
        <ele>671.3</ele>
        <time>2019-12-07T11:32:32Z</time>
      </trkpt>
      <trkpt lat="45.05506" lon="3.95674">
        <ele>668.6</ele>
        <time>2019-12-07T11:32:51Z</time>
      </trkpt>
      <trkpt lat="45.05493" lon="3.95692">
        <ele>667.5</ele>
        <time>2019-12-07T11:32:57Z</time>
      </trkpt>
      <trkpt lat="45.05485" lon="3.95731">
        <ele>664</ele>
        <time>2019-12-07T11:33:08Z</time>
      </trkpt>
      <trkpt lat="45.05514" lon="3.95754">
        <ele>662.2</ele>
        <time>2019-12-07T11:33:18Z</time>
      </trkpt>
      <trkpt lat="45.0554" lon="3.95805">
        <ele>660.5</ele>
        <time>2019-12-07T11:33:37Z</time>
      </trkpt>
      <trkpt lat="45.05532" lon="3.9584">
        <ele>660.3</ele>
        <time>2019-12-07T11:33:45Z</time>
      </trkpt>
      <trkpt lat="45.05556" lon="3.95884">
        <ele>659.6</ele>
        <time>2019-12-07T11:33:59Z</time>
      </trkpt>
      <trkpt lat="45.05557" lon="3.95901">
        <ele>659.3</ele>
        <time>2019-12-07T11:34:04Z</time>
      </trkpt>
      <trkpt lat="45.05557" lon="3.95914">
        <ele>659.2</ele>
        <time>2019-12-07T11:34:08Z</time>
      </trkpt>
      <trkpt lat="45.05564" lon="3.9593">
        <ele>659.7</ele>
        <time>2019-12-07T11:34:13Z</time>
      </trkpt>
      <trkpt lat="45.05603" lon="3.95992">
        <ele>660.8</ele>
        <time>2019-12-07T11:34:32Z</time>
      </trkpt>
      <trkpt lat="45.05606" lon="3.96008">
        <ele>661.4</ele>
        <time>2019-12-07T11:34:36Z</time>
      </trkpt>
      <trkpt lat="45.05608" lon="3.96011">
        <ele>661.6</ele>
        <time>2019-12-07T11:34:37Z</time>
      </trkpt>
      <trkpt lat="45.05611" lon="3.96013">
        <ele>661.7</ele>
        <time>2019-12-07T11:34:38Z</time>
      </trkpt>
      <trkpt lat="45.05613" lon="3.96016">
        <ele>661.8</ele>
        <time>2019-12-07T11:34:39Z</time>
      </trkpt>
      <trkpt lat="45.05615" lon="3.96018">
        <ele>661.9</ele>
        <time>2019-12-07T11:34:40Z</time>
      </trkpt>
      <trkpt lat="45.05617" lon="3.96022">
        <ele>662</ele>
        <time>2019-12-07T11:34:41Z</time>
      </trkpt>
      <trkpt lat="45.05628" lon="3.96039">
        <ele>662.4</ele>
        <time>2019-12-07T11:34:47Z</time>
      </trkpt>
      <trkpt lat="45.0565" lon="3.9608">
        <ele>662.7</ele>
        <time>2019-12-07T11:35:03Z</time>
      </trkpt>
      <trkpt lat="45.0568" lon="3.96117">
        <ele>662.6</ele>
        <time>2019-12-07T11:35:16Z</time>
      </trkpt>
      <trkpt lat="45.0569" lon="3.96132">
        <ele>662.1</ele>
        <time>2019-12-07T11:35:20Z</time>
      </trkpt>
      <trkpt lat="45.05702" lon="3.96151">
        <ele>661.8</ele>
        <time>2019-12-07T11:35:26Z</time>
      </trkpt>
      <trkpt lat="45.05711" lon="3.96165">
        <ele>661.8</ele>
        <time>2019-12-07T11:35:31Z</time>
      </trkpt>
      <trkpt lat="45.0575" lon="3.96224">
        <ele>661.9</ele>
        <time>2019-12-07T11:35:51Z</time>
      </trkpt>
      <trkpt lat="45.05791" lon="3.96282">
        <ele>662.1</ele>
        <time>2019-12-07T11:36:11Z</time>
      </trkpt>
      <trkpt lat="45.05805" lon="3.96303">
        <ele>662.5</ele>
        <time>2019-12-07T11:36:17Z</time>
      </trkpt>
      <trkpt lat="45.05831" lon="3.96296">
        <ele>662.9</ele>
        <time>2019-12-07T11:36:27Z</time>
      </trkpt>
      <trkpt lat="45.05832" lon="3.9629">
        <ele>662.8</ele>
        <time>2019-12-07T11:36:28Z</time>
      </trkpt>
      <trkpt lat="45.05833" lon="3.96285">
        <ele>662.6</ele>
        <time>2019-12-07T11:36:29Z</time>
      </trkpt>
      <trkpt lat="45.05848" lon="3.96233">
        <ele>662</ele>
        <time>2019-12-07T11:36:39Z</time>
      </trkpt>
      <trkpt lat="45.05863" lon="3.96179">
        <ele>661.8</ele>
        <time>2019-12-07T11:36:53Z</time>
      </trkpt>
      <trkpt lat="45.05876" lon="3.96119">
        <ele>661.3</ele>
        <time>2019-12-07T11:37:07Z</time>
      </trkpt>
      <trkpt lat="45.05855" lon="3.96051">
        <ele>659.1</ele>
        <time>2019-12-07T11:37:26Z</time>
      </trkpt>
      <trkpt lat="45.05869" lon="3.95994">
        <ele>658.9</ele>
        <time>2019-12-07T11:37:41Z</time>
      </trkpt>
      <trkpt lat="45.05871" lon="3.9599">
        <ele>658.9</ele>
        <time>2019-12-07T11:37:42Z</time>
      </trkpt>
      <trkpt lat="45.05872" lon="3.95988">
        <ele>658.9</ele>
        <time>2019-12-07T11:37:43Z</time>
      </trkpt>
      <trkpt lat="45.05873" lon="3.95984">
        <ele>658.9</ele>
        <time>2019-12-07T11:37:44Z</time>
      </trkpt>
      <trkpt lat="45.05875" lon="3.95981">
        <ele>658.9</ele>
        <time>2019-12-07T11:37:45Z</time>
      </trkpt>
      <trkpt lat="45.05876" lon="3.95978">
        <ele>658.9</ele>
        <time>2019-12-07T11:37:46Z</time>
      </trkpt>
      <trkpt lat="45.05877" lon="3.95976">
        <ele>658.9</ele>
        <time>2019-12-07T11:37:47Z</time>
      </trkpt>
      <trkpt lat="45.05879" lon="3.95974">
        <ele>658.9</ele>
        <time>2019-12-07T11:37:48Z</time>
      </trkpt>
      <trkpt lat="45.0588" lon="3.95972">
        <ele>658.9</ele>
        <time>2019-12-07T11:37:49Z</time>
      </trkpt>
      <trkpt lat="45.059" lon="3.95927">
        <ele>658.9</ele>
        <time>2019-12-07T11:38:04Z</time>
      </trkpt>
      <trkpt lat="45.05931" lon="3.95856">
        <ele>658.7</ele>
        <time>2019-12-07T11:38:26Z</time>
      </trkpt>
      <trkpt lat="45.05964" lon="3.95818">
        <ele>658</ele>
        <time>2019-12-07T11:38:41Z</time>
      </trkpt>
      <trkpt lat="45.06021" lon="3.95822">
        <ele>659.3</ele>
        <time>2019-12-07T11:39:01Z</time>
      </trkpt>
      <trkpt lat="45.06033" lon="3.95815">
        <ele>659.8</ele>
        <time>2019-12-07T11:39:05Z</time>
      </trkpt>
      <trkpt lat="45.06048" lon="3.95804">
        <ele>660.2</ele>
        <time>2019-12-07T11:39:11Z</time>
      </trkpt>
      <trkpt lat="45.06058" lon="3.95803">
        <ele>660.9</ele>
        <time>2019-12-07T11:39:15Z</time>
      </trkpt>
      <trkpt lat="45.06065" lon="3.95805">
        <ele>661.4</ele>
        <time>2019-12-07T11:39:18Z</time>
      </trkpt>
      <trkpt lat="45.06075" lon="3.95808">
        <ele>662.1</ele>
        <time>2019-12-07T11:39:22Z</time>
      </trkpt>
      <trkpt lat="45.06087" lon="3.95813">
        <ele>662.8</ele>
        <time>2019-12-07T11:39:27Z</time>
      </trkpt>
      <trkpt lat="45.06111" lon="3.95821">
        <ele>664.1</ele>
        <time>2019-12-07T11:39:37Z</time>
      </trkpt>
      <trkpt lat="45.06124" lon="3.95827">
        <ele>664.6</ele>
        <time>2019-12-07T11:39:43Z</time>
      </trkpt>
      <trkpt lat="45.06132" lon="3.95834">
        <ele>664.7</ele>
        <time>2019-12-07T11:39:47Z</time>
      </trkpt>
      <trkpt lat="45.06142" lon="3.95839">
        <ele>664.7</ele>
        <time>2019-12-07T11:39:52Z</time>
      </trkpt>
      <trkpt lat="45.06155" lon="3.95851">
        <ele>664.7</ele>
        <time>2019-12-07T11:40:01Z</time>
      </trkpt>
      <trkpt lat="45.06209" lon="3.95873">
        <ele>665.9</ele>
        <time>2019-12-07T11:40:30Z</time>
      </trkpt>
      <trkpt lat="45.06229" lon="3.9588">
        <ele>666.8</ele>
        <time>2019-12-07T11:40:40Z</time>
      </trkpt>
      <trkpt lat="45.06241" lon="3.95888">
        <ele>667.4</ele>
        <time>2019-12-07T11:40:46Z</time>
      </trkpt>
      <trkpt lat="45.06251" lon="3.95892">
        <ele>667.8</ele>
        <time>2019-12-07T11:40:51Z</time>
      </trkpt>
      <trkpt lat="45.06257" lon="3.95894">
        <ele>668.1</ele>
        <time>2019-12-07T11:40:54Z</time>
      </trkpt>
      <trkpt lat="45.06275" lon="3.95903">
        <ele>668.8</ele>
        <time>2019-12-07T11:41:04Z</time>
      </trkpt>
      <trkpt lat="45.06333" lon="3.95918">
        <ele>670.4</ele>
        <time>2019-12-07T11:41:32Z</time>
      </trkpt>
      <trkpt lat="45.06343" lon="3.95919">
        <ele>670.7</ele>
        <time>2019-12-07T11:41:37Z</time>
      </trkpt>
      <trkpt lat="45.06352" lon="3.9592">
        <ele>670.9</ele>
        <time>2019-12-07T11:41:41Z</time>
      </trkpt>
      <trkpt lat="45.0637" lon="3.95922">
        <ele>671.4</ele>
        <time>2019-12-07T11:41:50Z</time>
      </trkpt>
      <trkpt lat="45.06411" lon="3.95941">
        <ele>672.3</ele>
        <time>2019-12-07T11:42:10Z</time>
      </trkpt>
      <trkpt lat="45.06426" lon="3.95952">
        <ele>672.9</ele>
        <time>2019-12-07T11:42:18Z</time>
      </trkpt>
      <trkpt lat="45.06444" lon="3.95966">
        <ele>673.6</ele>
        <time>2019-12-07T11:42:27Z</time>
      </trkpt>
      <trkpt lat="45.06491" lon="3.96008">
        <ele>676.5</ele>
        <time>2019-12-07T11:42:55Z</time>
      </trkpt>
      <trkpt lat="45.06507" lon="3.96006">
        <ele>677.3</ele>
        <time>2019-12-07T11:43:03Z</time>
      </trkpt>
      <trkpt lat="45.06531" lon="3.96005">
        <ele>678</ele>
        <time>2019-12-07T11:43:15Z</time>
      </trkpt>
      <trkpt lat="45.06583" lon="3.95997">
        <ele>680</ele>
        <time>2019-12-07T11:43:38Z</time>
      </trkpt>
      <trkpt lat="45.06606" lon="3.95974">
        <ele>681.3</ele>
        <time>2019-12-07T11:43:49Z</time>
      </trkpt>
      <trkpt lat="45.06647" lon="3.95917">
        <ele>683</ele>
        <time>2019-12-07T11:44:10Z</time>
      </trkpt>
      <trkpt lat="45.06687" lon="3.95861">
        <ele>684.3</ele>
        <time>2019-12-07T11:44:31Z</time>
      </trkpt>
      <trkpt lat="45.06729" lon="3.95808">
        <ele>687.6</ele>
        <time>2019-12-07T11:44:53Z</time>
      </trkpt>
      <trkpt lat="45.06744" lon="3.95731">
        <ele>692.2</ele>
        <time>2019-12-07T11:45:16Z</time>
      </trkpt>
      <trkpt lat="45.06749" lon="3.9572">
        <ele>692.8</ele>
        <time>2019-12-07T11:45:20Z</time>
      </trkpt>
      <trkpt lat="45.06751" lon="3.95718">
        <ele>693</ele>
        <time>2019-12-07T11:45:22Z</time>
      </trkpt>
      <trkpt lat="45.06777" lon="3.95726">
        <ele>695.3</ele>
        <time>2019-12-07T11:45:36Z</time>
      </trkpt>
      <trkpt lat="45.06785" lon="3.95725">
        <ele>696.1</ele>
        <time>2019-12-07T11:45:41Z</time>
      </trkpt>
      <trkpt lat="45.06794" lon="3.95724">
        <ele>696.9</ele>
        <time>2019-12-07T11:45:46Z</time>
      </trkpt>
      <trkpt lat="45.06804" lon="3.95718">
        <ele>698</ele>
        <time>2019-12-07T11:45:53Z</time>
      </trkpt>
      <trkpt lat="45.06806" lon="3.95712">
        <ele>698.5</ele>
        <time>2019-12-07T11:45:57Z</time>
      </trkpt>
      <trkpt lat="45.06805" lon="3.9571">
        <ele>698.7</ele>
        <time>2019-12-07T11:45:58Z</time>
      </trkpt>
      <trkpt lat="45.06804" lon="3.95709">
        <ele>698.8</ele>
        <time>2019-12-07T11:45:59Z</time>
      </trkpt>
      <trkpt lat="45.06803" lon="3.95707">
        <ele>699</ele>
        <time>2019-12-07T11:46:00Z</time>
      </trkpt>
      <trkpt lat="45.06802" lon="3.95707">
        <ele>699.2</ele>
        <time>2019-12-07T11:46:01Z</time>
      </trkpt>
      <trkpt lat="45.068" lon="3.95707">
        <ele>699.3</ele>
        <time>2019-12-07T11:46:02Z</time>
      </trkpt>
      <trkpt lat="45.06799" lon="3.95707">
        <ele>699.5</ele>
        <time>2019-12-07T11:46:03Z</time>
      </trkpt>
      <trkpt lat="45.06789" lon="3.95705">
        <ele>700.7</ele>
        <time>2019-12-07T11:46:09Z</time>
      </trkpt>
      <trkpt lat="45.06771" lon="3.95688">
        <ele>703.6</ele>
        <time>2019-12-07T11:46:23Z</time>
      </trkpt>
      <trkpt lat="45.0677" lon="3.95684">
        <ele>704</ele>
        <time>2019-12-07T11:46:25Z</time>
      </trkpt>
      <trkpt lat="45.06769" lon="3.95683">
        <ele>704.2</ele>
        <time>2019-12-07T11:46:26Z</time>
      </trkpt>
      <trkpt lat="45.06768" lon="3.95681">
        <ele>704.4</ele>
        <time>2019-12-07T11:46:27Z</time>
      </trkpt>
      <trkpt lat="45.06768" lon="3.9568">
        <ele>704.5</ele>
        <time>2019-12-07T11:46:28Z</time>
      </trkpt>
      <trkpt lat="45.06761" lon="3.95663">
        <ele>705.9</ele>
        <time>2019-12-07T11:46:39Z</time>
      </trkpt>
      <trkpt lat="45.06762" lon="3.95656">
        <ele>706.8</ele>
        <time>2019-12-07T11:46:43Z</time>
      </trkpt>
      <trkpt lat="45.06762" lon="3.95654">
        <ele>707</ele>
        <time>2019-12-07T11:46:44Z</time>
      </trkpt>
      <trkpt lat="45.06763" lon="3.95653">
        <ele>707.3</ele>
        <time>2019-12-07T11:46:45Z</time>
      </trkpt>
      <trkpt lat="45.06764" lon="3.95651">
        <ele>707.6</ele>
        <time>2019-12-07T11:46:46Z</time>
      </trkpt>
      <trkpt lat="45.06766" lon="3.9565">
        <ele>707.9</ele>
        <time>2019-12-07T11:46:47Z</time>
      </trkpt>
      <trkpt lat="45.06767" lon="3.95649">
        <ele>708.2</ele>
        <time>2019-12-07T11:46:48Z</time>
      </trkpt>
      <trkpt lat="45.06768" lon="3.95648">
        <ele>708.5</ele>
        <time>2019-12-07T11:46:49Z</time>
      </trkpt>
      <trkpt lat="45.0677" lon="3.95647">
        <ele>708.7</ele>
        <time>2019-12-07T11:46:50Z</time>
      </trkpt>
      <trkpt lat="45.0677" lon="3.95647">
        <ele>708.9</ele>
        <time>2019-12-07T11:46:51Z</time>
      </trkpt>
      <trkpt lat="45.06771" lon="3.95646">
        <ele>709.1</ele>
        <time>2019-12-07T11:46:52Z</time>
      </trkpt>
      <trkpt lat="45.06776" lon="3.95643">
        <ele>710.3</ele>
        <time>2019-12-07T11:46:58Z</time>
      </trkpt>
      <trkpt lat="45.06783" lon="3.95641">
        <ele>711.5</ele>
        <time>2019-12-07T11:47:05Z</time>
      </trkpt>
      <trkpt lat="45.06795" lon="3.95636">
        <ele>713.6</ele>
        <time>2019-12-07T11:47:15Z</time>
      </trkpt>
      <trkpt lat="45.06796" lon="3.95636">
        <ele>713.7</ele>
        <time>2019-12-07T11:47:16Z</time>
      </trkpt>
      <trkpt lat="45.06797" lon="3.95636">
        <ele>714.1</ele>
        <time>2019-12-07T11:47:18Z</time>
      </trkpt>
      <trkpt lat="45.06799" lon="3.95635">
        <ele>714.3</ele>
        <time>2019-12-07T11:47:19Z</time>
      </trkpt>
      <trkpt lat="45.068" lon="3.95635">
        <ele>714.4</ele>
        <time>2019-12-07T11:47:20Z</time>
      </trkpt>
      <trkpt lat="45.068" lon="3.95635">
        <ele>714.6</ele>
        <time>2019-12-07T11:47:21Z</time>
      </trkpt>
      <trkpt lat="45.06802" lon="3.95634">
        <ele>714.7</ele>
        <time>2019-12-07T11:47:22Z</time>
      </trkpt>
      <trkpt lat="45.06805" lon="3.95634">
        <ele>715.3</ele>
        <time>2019-12-07T11:47:26Z</time>
      </trkpt>
      <trkpt lat="45.06806" lon="3.95633">
        <ele>715.4</ele>
        <time>2019-12-07T11:47:27Z</time>
      </trkpt>
      <trkpt lat="45.06807" lon="3.95633">
        <ele>715.6</ele>
        <time>2019-12-07T11:47:28Z</time>
      </trkpt>
      <trkpt lat="45.06809" lon="3.95632">
        <ele>715.8</ele>
        <time>2019-12-07T11:47:30Z</time>
      </trkpt>
      <trkpt lat="45.0681" lon="3.95631">
        <ele>716</ele>
        <time>2019-12-07T11:47:31Z</time>
      </trkpt>
      <trkpt lat="45.06812" lon="3.95623">
        <ele>716.8</ele>
        <time>2019-12-07T11:47:38Z</time>
      </trkpt>
      <trkpt lat="45.06812" lon="3.95622">
        <ele>717</ele>
        <time>2019-12-07T11:47:39Z</time>
      </trkpt>
      <trkpt lat="45.06811" lon="3.95618">
        <ele>717.5</ele>
        <time>2019-12-07T11:47:43Z</time>
      </trkpt>
      <trkpt lat="45.0681" lon="3.95617">
        <ele>717.7</ele>
        <time>2019-12-07T11:47:44Z</time>
      </trkpt>
      <trkpt lat="45.06809" lon="3.95616">
        <ele>717.9</ele>
        <time>2019-12-07T11:47:45Z</time>
      </trkpt>
      <trkpt lat="45.06806" lon="3.95612">
        <ele>718.8</ele>
        <time>2019-12-07T11:47:49Z</time>
      </trkpt>
      <trkpt lat="45.06806" lon="3.9561">
        <ele>719</ele>
        <time>2019-12-07T11:47:50Z</time>
      </trkpt>
      <trkpt lat="45.06805" lon="3.95609">
        <ele>719.1</ele>
        <time>2019-12-07T11:47:51Z</time>
      </trkpt>
      <trkpt lat="45.06804" lon="3.95598">
        <ele>720.7</ele>
        <time>2019-12-07T11:48:00Z</time>
      </trkpt>
      <trkpt lat="45.06805" lon="3.95597">
        <ele>720.9</ele>
        <time>2019-12-07T11:48:01Z</time>
      </trkpt>
      <trkpt lat="45.06806" lon="3.95596">
        <ele>721</ele>
        <time>2019-12-07T11:48:02Z</time>
      </trkpt>
      <trkpt lat="45.0681" lon="3.95596">
        <ele>721.7</ele>
        <time>2019-12-07T11:48:06Z</time>
      </trkpt>
      <trkpt lat="45.06811" lon="3.95596">
        <ele>722.1</ele>
        <time>2019-12-07T11:48:08Z</time>
      </trkpt>
      <trkpt lat="45.06817" lon="3.95597">
        <ele>722.8</ele>
        <time>2019-12-07T11:48:16Z</time>
      </trkpt>
      <trkpt lat="45.06842" lon="3.956">
        <ele>723.7</ele>
        <time>2019-12-07T11:48:37Z</time>
      </trkpt>
      <trkpt lat="45.06854" lon="3.95604">
        <ele>723.6</ele>
        <time>2019-12-07T11:48:44Z</time>
      </trkpt>
      <trkpt lat="45.06903" lon="3.95605">
        <ele>727.4</ele>
        <time>2019-12-07T11:49:02Z</time>
      </trkpt>
      <trkpt lat="45.06905" lon="3.95606">
        <ele>727.6</ele>
        <time>2019-12-07T11:49:03Z</time>
      </trkpt>
      <trkpt lat="45.06906" lon="3.95606">
        <ele>727.6</ele>
        <time>2019-12-07T11:49:04Z</time>
      </trkpt>
      <trkpt lat="45.06906" lon="3.95606">
        <ele>727.7</ele>
        <time>2019-12-07T11:49:05Z</time>
      </trkpt>
      <trkpt lat="45.06907" lon="3.95606">
        <ele>727.9</ele>
        <time>2019-12-07T11:49:06Z</time>
      </trkpt>
      <trkpt lat="45.06909" lon="3.95606">
        <ele>728</ele>
        <time>2019-12-07T11:49:07Z</time>
      </trkpt>
      <trkpt lat="45.06911" lon="3.95606">
        <ele>728.2</ele>
        <time>2019-12-07T11:49:08Z</time>
      </trkpt>
      <trkpt lat="45.06913" lon="3.95607">
        <ele>727.1</ele>
        <time>2019-12-07T11:49:09Z</time>
      </trkpt>
      <trkpt lat="45.06916" lon="3.95607">
        <ele>727.2</ele>
        <time>2019-12-07T11:49:10Z</time>
      </trkpt>
      <trkpt lat="45.06918" lon="3.95608">
        <ele>727.5</ele>
        <time>2019-12-07T11:49:11Z</time>
      </trkpt>
      <trkpt lat="45.06949" lon="3.95609">
        <ele>729.3</ele>
        <time>2019-12-07T11:49:29Z</time>
      </trkpt>
      <trkpt lat="45.06988" lon="3.95612">
        <ele>731.2</ele>
        <time>2019-12-07T11:49:52Z</time>
      </trkpt>
      <trkpt lat="45.07019" lon="3.95628">
        <ele>730.4</ele>
        <time>2019-12-07T11:50:06Z</time>
      </trkpt>
      <trkpt lat="45.07021" lon="3.95628">
        <ele>730.4</ele>
        <time>2019-12-07T11:50:07Z</time>
      </trkpt>
      <trkpt lat="45.07022" lon="3.95627">
        <ele>730.5</ele>
        <time>2019-12-07T11:50:08Z</time>
      </trkpt>
      <trkpt lat="45.07023" lon="3.95626">
        <ele>731</ele>
        <time>2019-12-07T11:50:09Z</time>
      </trkpt>
      <trkpt lat="45.07024" lon="3.95626">
        <ele>731</ele>
        <time>2019-12-07T11:50:10Z</time>
      </trkpt>
      <trkpt lat="45.07023" lon="3.95626">
        <ele>731.1</ele>
        <time>2019-12-07T11:50:17Z</time>
      </trkpt>
      <trkpt lat="45.07029" lon="3.95622">
        <ele>733.7</ele>
        <time>2019-12-07T11:50:35Z</time>
      </trkpt>
      <trkpt lat="45.0703" lon="3.95623">
        <ele>733.7</ele>
        <time>2019-12-07T11:50:36Z</time>
      </trkpt>
      <trkpt lat="45.07032" lon="3.95622">
        <ele>734.3</ele>
        <time>2019-12-07T11:50:37Z</time>
      </trkpt>
      <trkpt lat="45.07042" lon="3.95619">
        <ele>737.5</ele>
        <time>2019-12-07T11:50:44Z</time>
      </trkpt>
      <trkpt lat="45.07044" lon="3.95619">
        <ele>736.5</ele>
        <time>2019-12-07T11:50:45Z</time>
      </trkpt>
      <trkpt lat="45.07046" lon="3.9562">
        <ele>736.5</ele>
        <time>2019-12-07T11:50:46Z</time>
      </trkpt>
      <trkpt lat="45.07048" lon="3.95621">
        <ele>737.1</ele>
        <time>2019-12-07T11:50:47Z</time>
      </trkpt>
      <trkpt lat="45.0705" lon="3.95621">
        <ele>737.7</ele>
        <time>2019-12-07T11:50:48Z</time>
      </trkpt>
      <trkpt lat="45.07051" lon="3.95621">
        <ele>737.8</ele>
        <time>2019-12-07T11:50:49Z</time>
      </trkpt>
      <trkpt lat="45.07053" lon="3.9562">
        <ele>738.4</ele>
        <time>2019-12-07T11:50:50Z</time>
      </trkpt>
      <trkpt lat="45.07055" lon="3.95619">
        <ele>740.6</ele>
        <time>2019-12-07T11:50:51Z</time>
      </trkpt>
      <trkpt lat="45.07076" lon="3.9562">
        <ele>742.4</ele>
        <time>2019-12-07T11:51:03Z</time>
      </trkpt>
      <trkpt lat="45.07078" lon="3.95619">
        <ele>744.6</ele>
        <time>2019-12-07T11:51:04Z</time>
      </trkpt>
      <trkpt lat="45.0708" lon="3.9562">
        <ele>743.7</ele>
        <time>2019-12-07T11:51:06Z</time>
      </trkpt>
      <trkpt lat="45.07081" lon="3.9562">
        <ele>743.8</ele>
        <time>2019-12-07T11:51:07Z</time>
      </trkpt>
      <trkpt lat="45.07082" lon="3.9562">
        <ele>743.8</ele>
        <time>2019-12-07T11:51:08Z</time>
      </trkpt>
      <trkpt lat="45.07086" lon="3.95619">
        <ele>746.7</ele>
        <time>2019-12-07T11:51:12Z</time>
      </trkpt>
      <trkpt lat="45.07096" lon="3.95613">
        <ele>750.2</ele>
        <time>2019-12-07T11:51:21Z</time>
      </trkpt>
      <trkpt lat="45.07109" lon="3.95611">
        <ele>754.3</ele>
        <time>2019-12-07T11:51:29Z</time>
      </trkpt>
      <trkpt lat="45.07116" lon="3.95608">
        <ele>756</ele>
        <time>2019-12-07T11:51:34Z</time>
      </trkpt>
      <trkpt lat="45.07122" lon="3.95605">
        <ele>758.4</ele>
        <time>2019-12-07T11:51:38Z</time>
      </trkpt>
      <trkpt lat="45.07134" lon="3.956">
        <ele>760.9</ele>
        <time>2019-12-07T11:51:48Z</time>
      </trkpt>
      <trkpt lat="45.07146" lon="3.9559">
        <ele>763.3</ele>
        <time>2019-12-07T11:51:58Z</time>
      </trkpt>
      <trkpt lat="45.07147" lon="3.9559">
        <ele>763.2</ele>
        <time>2019-12-07T11:51:59Z</time>
      </trkpt>
      <trkpt lat="45.07147" lon="3.95589">
        <ele>764.1</ele>
        <time>2019-12-07T11:52:00Z</time>
      </trkpt>
      <trkpt lat="45.07149" lon="3.95589">
        <ele>764.2</ele>
        <time>2019-12-07T11:52:01Z</time>
      </trkpt>
      <trkpt lat="45.0715" lon="3.95589">
        <ele>763.2</ele>
        <time>2019-12-07T11:52:02Z</time>
      </trkpt>
      <trkpt lat="45.07151" lon="3.9559">
        <ele>763.2</ele>
        <time>2019-12-07T11:52:03Z</time>
      </trkpt>
      <trkpt lat="45.07154" lon="3.9559">
        <ele>763.1</ele>
        <time>2019-12-07T11:52:05Z</time>
      </trkpt>
      <trkpt lat="45.07164" lon="3.9559">
        <ele>762.4</ele>
        <time>2019-12-07T11:52:14Z</time>
      </trkpt>
      <trkpt lat="45.07169" lon="3.95588">
        <ele>762.5</ele>
        <time>2019-12-07T11:52:18Z</time>
      </trkpt>
      <trkpt lat="45.07184" lon="3.95571">
        <ele>762.7</ele>
        <time>2019-12-07T11:52:36Z</time>
      </trkpt>
      <trkpt lat="45.07185" lon="3.95571">
        <ele>762.7</ele>
        <time>2019-12-07T11:52:37Z</time>
      </trkpt>
      <trkpt lat="45.07186" lon="3.9557">
        <ele>762.4</ele>
        <time>2019-12-07T11:52:38Z</time>
      </trkpt>
      <trkpt lat="45.07187" lon="3.95569">
        <ele>762.4</ele>
        <time>2019-12-07T11:52:39Z</time>
      </trkpt>
      <trkpt lat="45.07188" lon="3.95568">
        <ele>762.5</ele>
        <time>2019-12-07T11:52:40Z</time>
      </trkpt>
      <trkpt lat="45.07189" lon="3.95567">
        <ele>762.5</ele>
        <time>2019-12-07T11:52:41Z</time>
      </trkpt>
      <trkpt lat="45.0719" lon="3.95566">
        <ele>762.6</ele>
        <time>2019-12-07T11:52:42Z</time>
      </trkpt>
      <trkpt lat="45.07191" lon="3.95566">
        <ele>762.6</ele>
        <time>2019-12-07T11:52:43Z</time>
      </trkpt>
      <trkpt lat="45.07193" lon="3.95564">
        <ele>762.2</ele>
        <time>2019-12-07T11:52:44Z</time>
      </trkpt>
      <trkpt lat="45.07196" lon="3.95563">
        <ele>762.2</ele>
        <time>2019-12-07T11:52:47Z</time>
      </trkpt>
      <trkpt lat="45.07197" lon="3.95562">
        <ele>762.3</ele>
        <time>2019-12-07T11:52:48Z</time>
      </trkpt>
      <trkpt lat="45.07222" lon="3.95554">
        <ele>760.4</ele>
        <time>2019-12-07T11:53:08Z</time>
      </trkpt>
      <trkpt lat="45.07226" lon="3.95552">
        <ele>760.2</ele>
        <time>2019-12-07T11:53:15Z</time>
      </trkpt>
      <trkpt lat="45.07246" lon="3.9552">
        <ele>764.6</ele>
        <time>2019-12-07T11:53:58Z</time>
      </trkpt>
      <trkpt lat="45.07246" lon="3.95519">
        <ele>764.6</ele>
        <time>2019-12-07T11:53:59Z</time>
      </trkpt>
      <trkpt lat="45.07246" lon="3.95517">
        <ele>764.7</ele>
        <time>2019-12-07T11:54:00Z</time>
      </trkpt>
      <trkpt lat="45.07249" lon="3.95507">
        <ele>767.5</ele>
        <time>2019-12-07T11:54:07Z</time>
      </trkpt>
      <trkpt lat="45.0725" lon="3.95506">
        <ele>767.6</ele>
        <time>2019-12-07T11:54:08Z</time>
      </trkpt>
      <trkpt lat="45.07278" lon="3.95491">
        <ele>771.2</ele>
        <time>2019-12-07T11:54:25Z</time>
      </trkpt>
      <trkpt lat="45.07279" lon="3.95492">
        <ele>771.2</ele>
        <time>2019-12-07T11:54:26Z</time>
      </trkpt>
      <trkpt lat="45.07281" lon="3.95493">
        <ele>771.5</ele>
        <time>2019-12-07T11:54:27Z</time>
      </trkpt>
      <trkpt lat="45.07292" lon="3.95501">
        <ele>771.1</ele>
        <time>2019-12-07T11:54:36Z</time>
      </trkpt>
      <trkpt lat="45.07293" lon="3.95502">
        <ele>771.1</ele>
        <time>2019-12-07T11:54:37Z</time>
      </trkpt>
      <trkpt lat="45.07294" lon="3.95503">
        <ele>771.2</ele>
        <time>2019-12-07T11:54:38Z</time>
      </trkpt>
      <trkpt lat="45.07295" lon="3.95504">
        <ele>770.7</ele>
        <time>2019-12-07T11:54:39Z</time>
      </trkpt>
      <trkpt lat="45.07296" lon="3.95505">
        <ele>770.7</ele>
        <time>2019-12-07T11:54:40Z</time>
      </trkpt>
      <trkpt lat="45.07297" lon="3.95506">
        <ele>770.8</ele>
        <time>2019-12-07T11:54:41Z</time>
      </trkpt>
      <trkpt lat="45.07298" lon="3.95506">
        <ele>771.1</ele>
        <time>2019-12-07T11:54:42Z</time>
      </trkpt>
      <trkpt lat="45.07299" lon="3.95506">
        <ele>771.2</ele>
        <time>2019-12-07T11:54:43Z</time>
      </trkpt>
      <trkpt lat="45.07304" lon="3.95506">
        <ele>771.9</ele>
        <time>2019-12-07T11:54:47Z</time>
      </trkpt>
      <trkpt lat="45.07319" lon="3.95502">
        <ele>774.8</ele>
        <time>2019-12-07T11:55:01Z</time>
      </trkpt>
      <trkpt lat="45.07321" lon="3.95502">
        <ele>774.8</ele>
        <time>2019-12-07T11:55:02Z</time>
      </trkpt>
      <trkpt lat="45.07322" lon="3.95503">
        <ele>774.9</ele>
        <time>2019-12-07T11:55:03Z</time>
      </trkpt>
      <trkpt lat="45.07323" lon="3.95503">
        <ele>775.4</ele>
        <time>2019-12-07T11:55:04Z</time>
      </trkpt>
      <trkpt lat="45.07324" lon="3.95504">
        <ele>774.5</ele>
        <time>2019-12-07T11:55:05Z</time>
      </trkpt>
      <trkpt lat="45.07325" lon="3.95505">
        <ele>775</ele>
        <time>2019-12-07T11:55:06Z</time>
      </trkpt>
      <trkpt lat="45.07326" lon="3.95507">
        <ele>775.1</ele>
        <time>2019-12-07T11:55:07Z</time>
      </trkpt>
      <trkpt lat="45.07327" lon="3.95509">
        <ele>773.6</ele>
        <time>2019-12-07T11:55:08Z</time>
      </trkpt>
      <trkpt lat="45.07327" lon="3.95511">
        <ele>773.7</ele>
        <time>2019-12-07T11:55:09Z</time>
      </trkpt>
      <trkpt lat="45.07328" lon="3.95512">
        <ele>772.8</ele>
        <time>2019-12-07T11:55:10Z</time>
      </trkpt>
      <trkpt lat="45.07332" lon="3.95517">
        <ele>772.7</ele>
        <time>2019-12-07T11:55:14Z</time>
      </trkpt>
      <trkpt lat="45.07333" lon="3.95519">
        <ele>772.8</ele>
        <time>2019-12-07T11:55:15Z</time>
      </trkpt>
      <trkpt lat="45.07333" lon="3.95522">
        <ele>771.8</ele>
        <time>2019-12-07T11:55:16Z</time>
      </trkpt>
      <trkpt lat="45.07334" lon="3.95524">
        <ele>771.8</ele>
        <time>2019-12-07T11:55:17Z</time>
      </trkpt>
      <trkpt lat="45.07334" lon="3.95527">
        <ele>770.8</ele>
        <time>2019-12-07T11:55:18Z</time>
      </trkpt>
      <trkpt lat="45.07334" lon="3.95533">
        <ele>770.3</ele>
        <time>2019-12-07T11:55:21Z</time>
      </trkpt>
      <trkpt lat="45.07335" lon="3.95534">
        <ele>769.3</ele>
        <time>2019-12-07T11:55:22Z</time>
      </trkpt>
      <trkpt lat="45.07349" lon="3.95549">
        <ele>768</ele>
        <time>2019-12-07T11:55:32Z</time>
      </trkpt>
      <trkpt lat="45.07355" lon="3.95553">
        <ele>768.2</ele>
        <time>2019-12-07T11:55:36Z</time>
      </trkpt>
      <trkpt lat="45.07356" lon="3.95554">
        <ele>768.8</ele>
        <time>2019-12-07T11:55:37Z</time>
      </trkpt>
      <trkpt lat="45.07357" lon="3.95555">
        <ele>767.7</ele>
        <time>2019-12-07T11:55:38Z</time>
      </trkpt>
      <trkpt lat="45.07358" lon="3.95556">
        <ele>767.7</ele>
        <time>2019-12-07T11:55:39Z</time>
      </trkpt>
      <trkpt lat="45.07359" lon="3.95557">
        <ele>768.4</ele>
        <time>2019-12-07T11:55:40Z</time>
      </trkpt>
      <trkpt lat="45.0736" lon="3.95559">
        <ele>768.4</ele>
        <time>2019-12-07T11:55:41Z</time>
      </trkpt>
      <trkpt lat="45.07372" lon="3.95566">
        <ele>768.2</ele>
        <time>2019-12-07T11:55:51Z</time>
      </trkpt>
      <trkpt lat="45.07381" lon="3.95568">
        <ele>769.7</ele>
        <time>2019-12-07T11:55:58Z</time>
      </trkpt>
      <trkpt lat="45.0739" lon="3.95567">
        <ele>771.3</ele>
        <time>2019-12-07T11:56:04Z</time>
      </trkpt>
      <trkpt lat="45.07391" lon="3.95566">
        <ele>771.4</ele>
        <time>2019-12-07T11:56:05Z</time>
      </trkpt>
      <trkpt lat="45.07392" lon="3.95565">
        <ele>771.9</ele>
        <time>2019-12-07T11:56:06Z</time>
      </trkpt>
      <trkpt lat="45.07393" lon="3.95564">
        <ele>771.9</ele>
        <time>2019-12-07T11:56:07Z</time>
      </trkpt>
      <trkpt lat="45.07394" lon="3.95562">
        <ele>773.3</ele>
        <time>2019-12-07T11:56:08Z</time>
      </trkpt>
      <trkpt lat="45.07394" lon="3.95561">
        <ele>773.4</ele>
        <time>2019-12-07T11:56:09Z</time>
      </trkpt>
      <trkpt lat="45.07395" lon="3.9556">
        <ele>773.9</ele>
        <time>2019-12-07T11:56:10Z</time>
      </trkpt>
      <trkpt lat="45.07396" lon="3.95554">
        <ele>776.6</ele>
        <time>2019-12-07T11:56:19Z</time>
      </trkpt>
      <trkpt lat="45.0739" lon="3.95528">
        <ele>783.3</ele>
        <time>2019-12-07T11:57:10Z</time>
      </trkpt>
      <trkpt lat="45.0739" lon="3.95527">
        <ele>783.3</ele>
        <time>2019-12-07T11:57:11Z</time>
      </trkpt>
      <trkpt lat="45.0739" lon="3.95527">
        <ele>783.4</ele>
        <time>2019-12-07T11:57:12Z</time>
      </trkpt>
      <trkpt lat="45.07392" lon="3.95524">
        <ele>785.2</ele>
        <time>2019-12-07T11:57:17Z</time>
      </trkpt>
      <trkpt lat="45.07393" lon="3.95523">
        <ele>785.2</ele>
        <time>2019-12-07T11:57:21Z</time>
      </trkpt>
      <trkpt lat="45.07438" lon="3.95492">
        <ele>793.4</ele>
        <time>2019-12-07T11:58:39Z</time>
      </trkpt>
      <trkpt lat="45.0744" lon="3.95491">
        <ele>793.4</ele>
        <time>2019-12-07T11:58:40Z</time>
      </trkpt>
      <trkpt lat="45.07442" lon="3.9549">
        <ele>793.8</ele>
        <time>2019-12-07T11:58:41Z</time>
      </trkpt>
      <trkpt lat="45.07459" lon="3.9548">
        <ele>792.9</ele>
        <time>2019-12-07T11:58:53Z</time>
      </trkpt>
      <trkpt lat="45.0747" lon="3.9548">
        <ele>792.1</ele>
        <time>2019-12-07T11:59:00Z</time>
      </trkpt>
      <trkpt lat="45.07472" lon="3.95481">
        <ele>791.9</ele>
        <time>2019-12-07T11:59:01Z</time>
      </trkpt>
      <trkpt lat="45.07474" lon="3.95482">
        <ele>791.8</ele>
        <time>2019-12-07T11:59:02Z</time>
      </trkpt>
      <trkpt lat="45.07485" lon="3.95485">
        <ele>790.8</ele>
        <time>2019-12-07T11:59:07Z</time>
      </trkpt>
      <trkpt lat="45.07491" lon="3.95485">
        <ele>790.8</ele>
        <time>2019-12-07T11:59:10Z</time>
      </trkpt>
      <trkpt lat="45.07501" lon="3.95483">
        <ele>790.8</ele>
        <time>2019-12-07T11:59:15Z</time>
      </trkpt>
      <trkpt lat="45.07502" lon="3.95482">
        <ele>791.5</ele>
        <time>2019-12-07T11:59:16Z</time>
      </trkpt>
      <trkpt lat="45.07504" lon="3.95481">
        <ele>791.5</ele>
        <time>2019-12-07T11:59:17Z</time>
      </trkpt>
      <trkpt lat="45.07506" lon="3.9548">
        <ele>791.6</ele>
        <time>2019-12-07T11:59:18Z</time>
      </trkpt>
      <trkpt lat="45.07508" lon="3.9548">
        <ele>791.7</ele>
        <time>2019-12-07T11:59:19Z</time>
      </trkpt>
      <trkpt lat="45.07509" lon="3.9548">
        <ele>791.7</ele>
        <time>2019-12-07T11:59:20Z</time>
      </trkpt>
      <trkpt lat="45.07511" lon="3.9548">
        <ele>791.8</ele>
        <time>2019-12-07T11:59:22Z</time>
      </trkpt>
      <trkpt lat="45.07513" lon="3.9548">
        <ele>791.9</ele>
        <time>2019-12-07T11:59:23Z</time>
      </trkpt>
      <trkpt lat="45.07514" lon="3.95479">
        <ele>792</ele>
        <time>2019-12-07T11:59:24Z</time>
      </trkpt>
      <trkpt lat="45.07537" lon="3.95475">
        <ele>793</ele>
        <time>2019-12-07T11:59:42Z</time>
      </trkpt>
      <trkpt lat="45.07551" lon="3.95471">
        <ele>794</ele>
        <time>2019-12-07T11:59:53Z</time>
      </trkpt>
      <trkpt lat="45.07552" lon="3.9547">
        <ele>794.1</ele>
        <time>2019-12-07T11:59:54Z</time>
      </trkpt>
      <trkpt lat="45.07555" lon="3.9547">
        <ele>794.2</ele>
        <time>2019-12-07T11:59:57Z</time>
      </trkpt>
      <trkpt lat="45.07584" lon="3.95457">
        <ele>797.3</ele>
        <time>2019-12-07T12:00:20Z</time>
      </trkpt>
      <trkpt lat="45.076" lon="3.95452">
        <ele>799.5</ele>
        <time>2019-12-07T12:00:31Z</time>
      </trkpt>
      <trkpt lat="45.07608" lon="3.95447">
        <ele>801.1</ele>
        <time>2019-12-07T12:00:37Z</time>
      </trkpt>
      <trkpt lat="45.07618" lon="3.9544">
        <ele>802.6</ele>
        <time>2019-12-07T12:00:56Z</time>
      </trkpt>
      <trkpt lat="45.07634" lon="3.95414">
        <ele>806.2</ele>
        <time>2019-12-07T12:01:28Z</time>
      </trkpt>
      <trkpt lat="45.07634" lon="3.95413">
        <ele>806.6</ele>
        <time>2019-12-07T12:01:29Z</time>
      </trkpt>
      <trkpt lat="45.07635" lon="3.95412">
        <ele>806.6</ele>
        <time>2019-12-07T12:01:30Z</time>
      </trkpt>
      <trkpt lat="45.07636" lon="3.9541">
        <ele>806.7</ele>
        <time>2019-12-07T12:01:31Z</time>
      </trkpt>
      <trkpt lat="45.0764" lon="3.95405">
        <ele>807.3</ele>
        <time>2019-12-07T12:01:37Z</time>
      </trkpt>
      <trkpt lat="45.07641" lon="3.95405">
        <ele>807.4</ele>
        <time>2019-12-07T12:01:38Z</time>
      </trkpt>
      <trkpt lat="45.07641" lon="3.95405">
        <ele>807.4</ele>
        <time>2019-12-07T12:01:42Z</time>
      </trkpt>
      <trkpt lat="45.07646" lon="3.95404">
        <ele>808.1</ele>
        <time>2019-12-07T12:01:46Z</time>
      </trkpt>
      <trkpt lat="45.07648" lon="3.95404">
        <ele>808.5</ele>
        <time>2019-12-07T12:01:48Z</time>
      </trkpt>
      <trkpt lat="45.07669" lon="3.95402">
        <ele>811.7</ele>
        <time>2019-12-07T12:02:00Z</time>
      </trkpt>
      <trkpt lat="45.07681" lon="3.95402">
        <ele>813.2</ele>
        <time>2019-12-07T12:02:07Z</time>
      </trkpt>
      <trkpt lat="45.07705" lon="3.95397">
        <ele>814.2</ele>
        <time>2019-12-07T12:02:22Z</time>
      </trkpt>
      <trkpt lat="45.07712" lon="3.95396">
        <ele>814.5</ele>
        <time>2019-12-07T12:02:25Z</time>
      </trkpt>
      <trkpt lat="45.0772" lon="3.95393">
        <ele>815.1</ele>
        <time>2019-12-07T12:02:29Z</time>
      </trkpt>
      <trkpt lat="45.07745" lon="3.95388">
        <ele>817</ele>
        <time>2019-12-07T12:02:41Z</time>
      </trkpt>
      <trkpt lat="45.07756" lon="3.95388">
        <ele>817.6</ele>
        <time>2019-12-07T12:02:46Z</time>
      </trkpt>
      <trkpt lat="45.07765" lon="3.95388">
        <ele>818</ele>
        <time>2019-12-07T12:02:50Z</time>
      </trkpt>
      <trkpt lat="45.07771" lon="3.95389">
        <ele>818.4</ele>
        <time>2019-12-07T12:02:53Z</time>
      </trkpt>
      <trkpt lat="45.0779" lon="3.95392">
        <ele>820.2</ele>
        <time>2019-12-07T12:03:02Z</time>
      </trkpt>
      <trkpt lat="45.07833" lon="3.95385">
        <ele>822.7</ele>
        <time>2019-12-07T12:03:21Z</time>
      </trkpt>
      <trkpt lat="45.07883" lon="3.95384">
        <ele>822.6</ele>
        <time>2019-12-07T12:03:39Z</time>
      </trkpt>
      <trkpt lat="45.07889" lon="3.95385">
        <ele>822.6</ele>
        <time>2019-12-07T12:03:41Z</time>
      </trkpt>
      <trkpt lat="45.07944" lon="3.95397">
        <ele>819.8</ele>
        <time>2019-12-07T12:03:58Z</time>
      </trkpt>
      <trkpt lat="45.07964" lon="3.95409">
        <ele>819.5</ele>
        <time>2019-12-07T12:04:02Z</time>
      </trkpt>
      <trkpt lat="45.0797" lon="3.9541">
        <ele>819.5</ele>
        <time>2019-12-07T12:04:03Z</time>
      </trkpt>
      <trkpt lat="45.07975" lon="3.95409">
        <ele>819.6</ele>
        <time>2019-12-07T12:04:04Z</time>
      </trkpt>
      <trkpt lat="45.0798" lon="3.95406">
        <ele>819.7</ele>
        <time>2019-12-07T12:04:05Z</time>
      </trkpt>
      <trkpt lat="45.07984" lon="3.95402">
        <ele>819.8</ele>
        <time>2019-12-07T12:04:06Z</time>
      </trkpt>
      <trkpt lat="45.07989" lon="3.95397">
        <ele>820</ele>
        <time>2019-12-07T12:04:07Z</time>
      </trkpt>
      <trkpt lat="45.08001" lon="3.95383">
        <ele>820.7</ele>
        <time>2019-12-07T12:04:10Z</time>
      </trkpt>
      <trkpt lat="45.08025" lon="3.95354">
        <ele>823.7</ele>
        <time>2019-12-07T12:04:18Z</time>
      </trkpt>
      <trkpt lat="45.08043" lon="3.95333">
        <ele>827.3</ele>
        <time>2019-12-07T12:04:30Z</time>
      </trkpt>
      <trkpt lat="45.08046" lon="3.9533">
        <ele>828</ele>
        <time>2019-12-07T12:04:32Z</time>
      </trkpt>
      <trkpt lat="45.08049" lon="3.95327">
        <ele>828.7</ele>
        <time>2019-12-07T12:04:34Z</time>
      </trkpt>
      <trkpt lat="45.08053" lon="3.95323">
        <ele>829.5</ele>
        <time>2019-12-07T12:04:37Z</time>
      </trkpt>
      <trkpt lat="45.08057" lon="3.9532">
        <ele>830.2</ele>
        <time>2019-12-07T12:04:41Z</time>
      </trkpt>
      <trkpt lat="45.08059" lon="3.95318">
        <ele>830.5</ele>
        <time>2019-12-07T12:04:43Z</time>
      </trkpt>
      <trkpt lat="45.08065" lon="3.9531">
        <ele>831.6</ele>
        <time>2019-12-07T12:04:50Z</time>
      </trkpt>
      <trkpt lat="45.08066" lon="3.95309">
        <ele>831.7</ele>
        <time>2019-12-07T12:04:51Z</time>
      </trkpt>
      <trkpt lat="45.08081" lon="3.95292">
        <ele>834.5</ele>
        <time>2019-12-07T12:05:08Z</time>
      </trkpt>
      <trkpt lat="45.08102" lon="3.95273">
        <ele>837.5</ele>
        <time>2019-12-07T12:05:29Z</time>
      </trkpt>
      <trkpt lat="45.08131" lon="3.95266">
        <ele>840.2</ele>
        <time>2019-12-07T12:05:50Z</time>
      </trkpt>
      <trkpt lat="45.08168" lon="3.9525">
        <ele>843.4</ele>
        <time>2019-12-07T12:06:13Z</time>
      </trkpt>
      <trkpt lat="45.08181" lon="3.95248">
        <ele>844</ele>
        <time>2019-12-07T12:06:19Z</time>
      </trkpt>
      <trkpt lat="45.08185" lon="3.95248">
        <ele>844.2</ele>
        <time>2019-12-07T12:06:21Z</time>
      </trkpt>
      <trkpt lat="45.08206" lon="3.95246">
        <ele>845</ele>
        <time>2019-12-07T12:06:30Z</time>
      </trkpt>
      <trkpt lat="45.08233" lon="3.95246">
        <ele>845.9</ele>
        <time>2019-12-07T12:06:42Z</time>
      </trkpt>
      <trkpt lat="45.08288" lon="3.95257">
        <ele>850</ele>
        <time>2019-12-07T12:07:04Z</time>
      </trkpt>
      <trkpt lat="45.08334" lon="3.95266">
        <ele>853.8</ele>
        <time>2019-12-07T12:07:23Z</time>
      </trkpt>
      <trkpt lat="45.08353" lon="3.95273">
        <ele>854.5</ele>
        <time>2019-12-07T12:07:41Z</time>
      </trkpt>
      <trkpt lat="45.08359" lon="3.95274">
        <ele>854.5</ele>
        <time>2019-12-07T12:09:32Z</time>
      </trkpt>
      <trkpt lat="45.08361" lon="3.95276">
        <ele>854.4</ele>
        <time>2019-12-07T12:09:33Z</time>
      </trkpt>
      <trkpt lat="45.08364" lon="3.95278">
        <ele>854.3</ele>
        <time>2019-12-07T12:09:34Z</time>
      </trkpt>
      <trkpt lat="45.08415" lon="3.95312">
        <ele>851.1</ele>
        <time>2019-12-07T12:09:44Z</time>
      </trkpt>
      <trkpt lat="45.0842" lon="3.95319">
        <ele>850.4</ele>
        <time>2019-12-07T12:09:45Z</time>
      </trkpt>
      <trkpt lat="45.08426" lon="3.95326">
        <ele>849.9</ele>
        <time>2019-12-07T12:09:46Z</time>
      </trkpt>
      <trkpt lat="45.08436" lon="3.95344">
        <ele>848.8</ele>
        <time>2019-12-07T12:09:48Z</time>
      </trkpt>
      <trkpt lat="45.0844" lon="3.95355">
        <ele>848.1</ele>
        <time>2019-12-07T12:09:49Z</time>
      </trkpt>
      <trkpt lat="45.08446" lon="3.95374">
        <ele>847.1</ele>
        <time>2019-12-07T12:09:51Z</time>
      </trkpt>
      <trkpt lat="45.0845" lon="3.95383">
        <ele>846.7</ele>
        <time>2019-12-07T12:09:52Z</time>
      </trkpt>
      <trkpt lat="45.08454" lon="3.9539">
        <ele>846.4</ele>
        <time>2019-12-07T12:09:53Z</time>
      </trkpt>
      <trkpt lat="45.08461" lon="3.95394">
        <ele>845.9</ele>
        <time>2019-12-07T12:09:54Z</time>
      </trkpt>
      <trkpt lat="45.08468" lon="3.95395">
        <ele>845.5</ele>
        <time>2019-12-07T12:09:55Z</time>
      </trkpt>
      <trkpt lat="45.08475" lon="3.95393">
        <ele>845.3</ele>
        <time>2019-12-07T12:09:56Z</time>
      </trkpt>
      <trkpt lat="45.08481" lon="3.95389">
        <ele>845</ele>
        <time>2019-12-07T12:09:57Z</time>
      </trkpt>
      <trkpt lat="45.08487" lon="3.95383">
        <ele>844.8</ele>
        <time>2019-12-07T12:09:58Z</time>
      </trkpt>
      <trkpt lat="45.08491" lon="3.95377">
        <ele>844.6</ele>
        <time>2019-12-07T12:09:59Z</time>
      </trkpt>
      <trkpt lat="45.08495" lon="3.95371">
        <ele>844.2</ele>
        <time>2019-12-07T12:10:00Z</time>
      </trkpt>
      <trkpt lat="45.08499" lon="3.95365">
        <ele>843.9</ele>
        <time>2019-12-07T12:10:01Z</time>
      </trkpt>
      <trkpt lat="45.08503" lon="3.95361">
        <ele>843.6</ele>
        <time>2019-12-07T12:10:02Z</time>
      </trkpt>
      <trkpt lat="45.08507" lon="3.95358">
        <ele>843.5</ele>
        <time>2019-12-07T12:10:03Z</time>
      </trkpt>
      <trkpt lat="45.08511" lon="3.95355">
        <ele>843.3</ele>
        <time>2019-12-07T12:10:04Z</time>
      </trkpt>
      <trkpt lat="45.08514" lon="3.95353">
        <ele>843.2</ele>
        <time>2019-12-07T12:10:05Z</time>
      </trkpt>
      <trkpt lat="45.08516" lon="3.95353">
        <ele>843.1</ele>
        <time>2019-12-07T12:10:06Z</time>
      </trkpt>
      <trkpt lat="45.08519" lon="3.95353">
        <ele>843</ele>
        <time>2019-12-07T12:10:07Z</time>
      </trkpt>
      <trkpt lat="45.08521" lon="3.95353">
        <ele>843</ele>
        <time>2019-12-07T12:10:08Z</time>
      </trkpt>
      <trkpt lat="45.08524" lon="3.95353">
        <ele>842.9</ele>
        <time>2019-12-07T12:10:09Z</time>
      </trkpt>
      <trkpt lat="45.08526" lon="3.95354">
        <ele>842.9</ele>
        <time>2019-12-07T12:10:10Z</time>
      </trkpt>
      <trkpt lat="45.08532" lon="3.95355">
        <ele>842.7</ele>
        <time>2019-12-07T12:10:13Z</time>
      </trkpt>
      <trkpt lat="45.0854" lon="3.95358">
        <ele>842.6</ele>
        <time>2019-12-07T12:10:17Z</time>
      </trkpt>
      <trkpt lat="45.08545" lon="3.95366">
        <ele>843.1</ele>
        <time>2019-12-07T12:10:20Z</time>
      </trkpt>
      <trkpt lat="45.08547" lon="3.95369">
        <ele>843.3</ele>
        <time>2019-12-07T12:10:24Z</time>
      </trkpt>
      <trkpt lat="45.08549" lon="3.95373">
        <ele>843</ele>
        <time>2019-12-07T12:10:29Z</time>
      </trkpt>
      <trkpt lat="45.08551" lon="3.95376">
        <ele>843.1</ele>
        <time>2019-12-07T12:10:47Z</time>
      </trkpt>
      <trkpt lat="45.08553" lon="3.9538">
        <ele>843.3</ele>
        <time>2019-12-07T12:10:48Z</time>
      </trkpt>
      <trkpt lat="45.08554" lon="3.95384">
        <ele>842.9</ele>
        <time>2019-12-07T12:10:49Z</time>
      </trkpt>
      <trkpt lat="45.08557" lon="3.9539">
        <ele>842.9</ele>
        <time>2019-12-07T12:10:50Z</time>
      </trkpt>
      <trkpt lat="45.08558" lon="3.95398">
        <ele>842.5</ele>
        <time>2019-12-07T12:10:51Z</time>
      </trkpt>
      <trkpt lat="45.08558" lon="3.95405">
        <ele>841.5</ele>
        <time>2019-12-07T12:10:52Z</time>
      </trkpt>
      <trkpt lat="45.08558" lon="3.95412">
        <ele>840.5</ele>
        <time>2019-12-07T12:10:53Z</time>
      </trkpt>
      <trkpt lat="45.08556" lon="3.95418">
        <ele>839.3</ele>
        <time>2019-12-07T12:10:54Z</time>
      </trkpt>
      <trkpt lat="45.08555" lon="3.95424">
        <ele>838.1</ele>
        <time>2019-12-07T12:10:55Z</time>
      </trkpt>
      <trkpt lat="45.08554" lon="3.9543">
        <ele>837.5</ele>
        <time>2019-12-07T12:10:56Z</time>
      </trkpt>
      <trkpt lat="45.08554" lon="3.95437">
        <ele>836.2</ele>
        <time>2019-12-07T12:10:57Z</time>
      </trkpt>
      <trkpt lat="45.08553" lon="3.95443">
        <ele>835.6</ele>
        <time>2019-12-07T12:10:58Z</time>
      </trkpt>
      <trkpt lat="45.08553" lon="3.95451">
        <ele>834.3</ele>
        <time>2019-12-07T12:10:59Z</time>
      </trkpt>
      <trkpt lat="45.08553" lon="3.95477">
        <ele>830.2</ele>
        <time>2019-12-07T12:11:02Z</time>
      </trkpt>
      <trkpt lat="45.08554" lon="3.95487">
        <ele>828.1</ele>
        <time>2019-12-07T12:11:03Z</time>
      </trkpt>
      <trkpt lat="45.08555" lon="3.95496">
        <ele>827</ele>
        <time>2019-12-07T12:11:04Z</time>
      </trkpt>
      <trkpt lat="45.08559" lon="3.95523">
        <ele>824.6</ele>
        <time>2019-12-07T12:11:07Z</time>
      </trkpt>
      <trkpt lat="45.08566" lon="3.95552">
        <ele>822.7</ele>
        <time>2019-12-07T12:11:10Z</time>
      </trkpt>
      <trkpt lat="45.08567" lon="3.9556">
        <ele>822</ele>
        <time>2019-12-07T12:11:11Z</time>
      </trkpt>
      <trkpt lat="45.08567" lon="3.95567">
        <ele>821.6</ele>
        <time>2019-12-07T12:11:12Z</time>
      </trkpt>
      <trkpt lat="45.08566" lon="3.95572">
        <ele>821.3</ele>
        <time>2019-12-07T12:11:13Z</time>
      </trkpt>
      <trkpt lat="45.08566" lon="3.95575">
        <ele>821.1</ele>
        <time>2019-12-07T12:11:14Z</time>
      </trkpt>
      <trkpt lat="45.08566" lon="3.95577">
        <ele>820.9</ele>
        <time>2019-12-07T12:11:15Z</time>
      </trkpt>
      <trkpt lat="45.08566" lon="3.95578">
        <ele>820.9</ele>
        <time>2019-12-07T12:11:16Z</time>
      </trkpt>
      <trkpt lat="45.08566" lon="3.95579">
        <ele>820.9</ele>
        <time>2019-12-07T12:11:17Z</time>
      </trkpt>
      <trkpt lat="45.08565" lon="3.95583">
        <ele>820.8</ele>
        <time>2019-12-07T12:11:20Z</time>
      </trkpt>
      <trkpt lat="45.08564" lon="3.95585">
        <ele>820.1</ele>
        <time>2019-12-07T12:11:21Z</time>
      </trkpt>
      <trkpt lat="45.08563" lon="3.95587">
        <ele>820.2</ele>
        <time>2019-12-07T12:11:22Z</time>
      </trkpt>
      <trkpt lat="45.08561" lon="3.95592">
        <ele>819.6</ele>
        <time>2019-12-07T12:11:24Z</time>
      </trkpt>
      <trkpt lat="45.08558" lon="3.956">
        <ele>818.9</ele>
        <time>2019-12-07T12:11:27Z</time>
      </trkpt>
      <trkpt lat="45.08558" lon="3.95612">
        <ele>819.1</ele>
        <time>2019-12-07T12:11:30Z</time>
      </trkpt>
      <trkpt lat="45.08561" lon="3.95654">
        <ele>820.9</ele>
        <time>2019-12-07T12:11:40Z</time>
      </trkpt>
      <trkpt lat="45.08562" lon="3.95657">
        <ele>821</ele>
        <time>2019-12-07T12:11:41Z</time>
      </trkpt>
      <trkpt lat="45.08562" lon="3.95659">
        <ele>820.9</ele>
        <time>2019-12-07T12:11:42Z</time>
      </trkpt>
      <trkpt lat="45.08586" lon="3.9572">
        <ele>820.5</ele>
        <time>2019-12-07T12:12:03Z</time>
      </trkpt>
      <trkpt lat="45.08588" lon="3.95721">
        <ele>820.6</ele>
        <time>2019-12-07T12:12:04Z</time>
      </trkpt>
      <trkpt lat="45.08594" lon="3.95721">
        <ele>821</ele>
        <time>2019-12-07T12:12:07Z</time>
      </trkpt>
      <trkpt lat="45.08599" lon="3.95723">
        <ele>821.3</ele>
        <time>2019-12-07T12:12:10Z</time>
      </trkpt>
      <trkpt lat="45.08603" lon="3.95726">
        <ele>821.5</ele>
        <time>2019-12-07T12:12:13Z</time>
      </trkpt>
      <trkpt lat="45.08611" lon="3.95735">
        <ele>821.8</ele>
        <time>2019-12-07T12:12:18Z</time>
      </trkpt>
      <trkpt lat="45.08622" lon="3.9574">
        <ele>821.6</ele>
        <time>2019-12-07T12:12:24Z</time>
      </trkpt>
      <trkpt lat="45.08625" lon="3.95743">
        <ele>821.6</ele>
        <time>2019-12-07T12:12:26Z</time>
      </trkpt>
      <trkpt lat="45.08627" lon="3.95744">
        <ele>821.3</ele>
        <time>2019-12-07T12:12:27Z</time>
      </trkpt>
      <trkpt lat="45.08628" lon="3.95745">
        <ele>821.2</ele>
        <time>2019-12-07T12:12:28Z</time>
      </trkpt>
      <trkpt lat="45.08632" lon="3.95748">
        <ele>821</ele>
        <time>2019-12-07T12:12:30Z</time>
      </trkpt>
      <trkpt lat="45.0864" lon="3.95757">
        <ele>819.3</ele>
        <time>2019-12-07T12:12:36Z</time>
      </trkpt>
      <trkpt lat="45.08641" lon="3.95759">
        <ele>819.3</ele>
        <time>2019-12-07T12:12:37Z</time>
      </trkpt>
      <trkpt lat="45.08642" lon="3.95761">
        <ele>819.1</ele>
        <time>2019-12-07T12:12:38Z</time>
      </trkpt>
      <trkpt lat="45.08643" lon="3.95763">
        <ele>818.7</ele>
        <time>2019-12-07T12:12:39Z</time>
      </trkpt>
      <trkpt lat="45.08644" lon="3.95765">
        <ele>818.7</ele>
        <time>2019-12-07T12:12:40Z</time>
      </trkpt>
      <trkpt lat="45.08645" lon="3.95774">
        <ele>817.9</ele>
        <time>2019-12-07T12:12:44Z</time>
      </trkpt>
      <trkpt lat="45.08646" lon="3.95776">
        <ele>817.4</ele>
        <time>2019-12-07T12:12:45Z</time>
      </trkpt>
      <trkpt lat="45.08647" lon="3.95778">
        <ele>817.4</ele>
        <time>2019-12-07T12:12:46Z</time>
      </trkpt>
      <trkpt lat="45.08651" lon="3.95792">
        <ele>815.3</ele>
        <time>2019-12-07T12:12:53Z</time>
      </trkpt>
      <trkpt lat="45.08653" lon="3.95804">
        <ele>813.7</ele>
        <time>2019-12-07T12:12:58Z</time>
      </trkpt>
      <trkpt lat="45.08654" lon="3.95806">
        <ele>813.3</ele>
        <time>2019-12-07T12:12:59Z</time>
      </trkpt>
      <trkpt lat="45.08656" lon="3.95816">
        <ele>811.6</ele>
        <time>2019-12-07T12:13:04Z</time>
      </trkpt>
      <trkpt lat="45.08656" lon="3.95818">
        <ele>811.2</ele>
        <time>2019-12-07T12:13:05Z</time>
      </trkpt>
      <trkpt lat="45.08657" lon="3.9582">
        <ele>811.3</ele>
        <time>2019-12-07T12:13:06Z</time>
      </trkpt>
      <trkpt lat="45.08656" lon="3.95821">
        <ele>810.9</ele>
        <time>2019-12-07T12:13:12Z</time>
      </trkpt>
      <trkpt lat="45.08654" lon="3.95833">
        <ele>810.9</ele>
        <time>2019-12-07T12:13:24Z</time>
      </trkpt>
      <trkpt lat="45.08655" lon="3.95834">
        <ele>810.4</ele>
        <time>2019-12-07T12:13:25Z</time>
      </trkpt>
      <trkpt lat="45.08655" lon="3.95837">
        <ele>810.5</ele>
        <time>2019-12-07T12:13:26Z</time>
      </trkpt>
      <trkpt lat="45.08655" lon="3.95839">
        <ele>810</ele>
        <time>2019-12-07T12:13:27Z</time>
      </trkpt>
      <trkpt lat="45.08655" lon="3.95841">
        <ele>810.1</ele>
        <time>2019-12-07T12:13:28Z</time>
      </trkpt>
      <trkpt lat="45.08655" lon="3.95847">
        <ele>808.4</ele>
        <time>2019-12-07T12:13:30Z</time>
      </trkpt>
      <trkpt lat="45.08659" lon="3.95859">
        <ele>806.7</ele>
        <time>2019-12-07T12:13:36Z</time>
      </trkpt>
      <trkpt lat="45.08661" lon="3.95859">
        <ele>806.8</ele>
        <time>2019-12-07T12:13:37Z</time>
      </trkpt>
      <trkpt lat="45.08662" lon="3.95858">
        <ele>805.9</ele>
        <time>2019-12-07T12:13:38Z</time>
      </trkpt>
      <trkpt lat="45.08664" lon="3.95858">
        <ele>804.9</ele>
        <time>2019-12-07T12:13:39Z</time>
      </trkpt>
      <trkpt lat="45.08667" lon="3.95857">
        <ele>804.9</ele>
        <time>2019-12-07T12:13:41Z</time>
      </trkpt>
      <trkpt lat="45.0867" lon="3.95855">
        <ele>804.3</ele>
        <time>2019-12-07T12:13:47Z</time>
      </trkpt>
      <trkpt lat="45.08672" lon="3.95852">
        <ele>803.3</ele>
        <time>2019-12-07T12:13:49Z</time>
      </trkpt>
      <trkpt lat="45.08674" lon="3.95851">
        <ele>802.6</ele>
        <time>2019-12-07T12:13:50Z</time>
      </trkpt>
      <trkpt lat="45.08675" lon="3.9585">
        <ele>802.6</ele>
        <time>2019-12-07T12:13:51Z</time>
      </trkpt>
      <trkpt lat="45.08679" lon="3.95847">
        <ele>800.6</ele>
        <time>2019-12-07T12:13:59Z</time>
      </trkpt>
      <trkpt lat="45.0869" lon="3.95878">
        <ele>795.1</ele>
        <time>2019-12-07T12:14:38Z</time>
      </trkpt>
      <trkpt lat="45.0869" lon="3.9588">
        <ele>795.1</ele>
        <time>2019-12-07T12:14:39Z</time>
      </trkpt>
      <trkpt lat="45.08691" lon="3.95881">
        <ele>795.2</ele>
        <time>2019-12-07T12:14:40Z</time>
      </trkpt>
      <trkpt lat="45.08693" lon="3.95891">
        <ele>793</ele>
        <time>2019-12-07T12:14:48Z</time>
      </trkpt>
      <trkpt lat="45.08693" lon="3.95897">
        <ele>792.6</ele>
        <time>2019-12-07T12:14:53Z</time>
      </trkpt>
      <trkpt lat="45.08693" lon="3.95899">
        <ele>792.3</ele>
        <time>2019-12-07T12:14:54Z</time>
      </trkpt>
      <trkpt lat="45.08693" lon="3.959">
        <ele>792.3</ele>
        <time>2019-12-07T12:14:55Z</time>
      </trkpt>
      <trkpt lat="45.08696" lon="3.95903">
        <ele>790.8</ele>
        <time>2019-12-07T12:15:02Z</time>
      </trkpt>
      <trkpt lat="45.08699" lon="3.95911">
        <ele>789.3</ele>
        <time>2019-12-07T12:15:08Z</time>
      </trkpt>
      <trkpt lat="45.087" lon="3.95912">
        <ele>788.8</ele>
        <time>2019-12-07T12:15:09Z</time>
      </trkpt>
      <trkpt lat="45.08699" lon="3.95914">
        <ele>788.9</ele>
        <time>2019-12-07T12:15:10Z</time>
      </trkpt>
      <trkpt lat="45.08701" lon="3.95921">
        <ele>786.7</ele>
        <time>2019-12-07T12:15:16Z</time>
      </trkpt>
      <trkpt lat="45.08701" lon="3.95922">
        <ele>786.7</ele>
        <time>2019-12-07T12:15:17Z</time>
      </trkpt>
      <trkpt lat="45.08701" lon="3.95924">
        <ele>786.7</ele>
        <time>2019-12-07T12:15:19Z</time>
      </trkpt>
      <trkpt lat="45.08699" lon="3.95927">
        <ele>787.2</ele>
        <time>2019-12-07T12:15:25Z</time>
      </trkpt>
      <trkpt lat="45.08701" lon="3.95935">
        <ele>785</ele>
        <time>2019-12-07T12:15:31Z</time>
      </trkpt>
      <trkpt lat="45.08701" lon="3.95937">
        <ele>784.4</ele>
        <time>2019-12-07T12:15:33Z</time>
      </trkpt>
      <trkpt lat="45.08703" lon="3.95943">
        <ele>783.9</ele>
        <time>2019-12-07T12:15:37Z</time>
      </trkpt>
      <trkpt lat="45.08707" lon="3.9595">
        <ele>781.4</ele>
        <time>2019-12-07T12:15:45Z</time>
      </trkpt>
      <trkpt lat="45.08707" lon="3.9595">
        <ele>782.3</ele>
        <time>2019-12-07T12:15:47Z</time>
      </trkpt>
      <trkpt lat="45.08704" lon="3.9597">
        <ele>779.9</ele>
        <time>2019-12-07T12:16:13Z</time>
      </trkpt>
      <trkpt lat="45.08704" lon="3.95973">
        <ele>778.1</ele>
        <time>2019-12-07T12:16:14Z</time>
      </trkpt>
      <trkpt lat="45.08705" lon="3.95978">
        <ele>777.3</ele>
        <time>2019-12-07T12:16:15Z</time>
      </trkpt>
      <trkpt lat="45.08705" lon="3.95982">
        <ele>776.6</ele>
        <time>2019-12-07T12:16:16Z</time>
      </trkpt>
      <trkpt lat="45.08705" lon="3.95986">
        <ele>775.9</ele>
        <time>2019-12-07T12:16:17Z</time>
      </trkpt>
      <trkpt lat="45.08705" lon="3.9599">
        <ele>775.1</ele>
        <time>2019-12-07T12:16:18Z</time>
      </trkpt>
      <trkpt lat="45.08706" lon="3.96004">
        <ele>772.8</ele>
        <time>2019-12-07T12:16:23Z</time>
      </trkpt>
      <trkpt lat="45.08707" lon="3.96005">
        <ele>772.1</ele>
        <time>2019-12-07T12:16:24Z</time>
      </trkpt>
      <trkpt lat="45.08709" lon="3.96006">
        <ele>772.2</ele>
        <time>2019-12-07T12:16:25Z</time>
      </trkpt>
      <trkpt lat="45.08717" lon="3.96006">
        <ele>769.6</ele>
        <time>2019-12-07T12:16:28Z</time>
      </trkpt>
      <trkpt lat="45.08721" lon="3.96006">
        <ele>769.8</ele>
        <time>2019-12-07T12:16:30Z</time>
      </trkpt>
      <trkpt lat="45.08735" lon="3.96007">
        <ele>766.5</ele>
        <time>2019-12-07T12:16:36Z</time>
      </trkpt>
      <trkpt lat="45.08755" lon="3.96011">
        <ele>763</ele>
        <time>2019-12-07T12:16:42Z</time>
      </trkpt>
      <trkpt lat="45.08766" lon="3.96011">
        <ele>761.3</ele>
        <time>2019-12-07T12:16:45Z</time>
      </trkpt>
      <trkpt lat="45.08778" lon="3.96008">
        <ele>760.3</ele>
        <time>2019-12-07T12:16:48Z</time>
      </trkpt>
      <trkpt lat="45.08782" lon="3.96006">
        <ele>760</ele>
        <time>2019-12-07T12:16:49Z</time>
      </trkpt>
      <trkpt lat="45.08785" lon="3.96003">
        <ele>760.2</ele>
        <time>2019-12-07T12:16:50Z</time>
      </trkpt>
      <trkpt lat="45.08788" lon="3.95999">
        <ele>760.3</ele>
        <time>2019-12-07T12:16:51Z</time>
      </trkpt>
      <trkpt lat="45.08792" lon="3.95994">
        <ele>760.3</ele>
        <time>2019-12-07T12:16:52Z</time>
      </trkpt>
      <trkpt lat="45.08795" lon="3.95989">
        <ele>760.5</ele>
        <time>2019-12-07T12:16:53Z</time>
      </trkpt>
      <trkpt lat="45.08798" lon="3.95984">
        <ele>760.8</ele>
        <time>2019-12-07T12:16:54Z</time>
      </trkpt>
      <trkpt lat="45.08808" lon="3.95974">
        <ele>761.7</ele>
        <time>2019-12-07T12:16:57Z</time>
      </trkpt>
      <trkpt lat="45.08813" lon="3.95976">
        <ele>760.8</ele>
        <time>2019-12-07T12:16:58Z</time>
      </trkpt>
      <trkpt lat="45.08818" lon="3.95979">
        <ele>760.8</ele>
        <time>2019-12-07T12:16:59Z</time>
      </trkpt>
      <trkpt lat="45.08824" lon="3.95983">
        <ele>760</ele>
        <time>2019-12-07T12:17:00Z</time>
      </trkpt>
      <trkpt lat="45.08829" lon="3.95988">
        <ele>759.3</ele>
        <time>2019-12-07T12:17:01Z</time>
      </trkpt>
      <trkpt lat="45.08836" lon="3.95993">
        <ele>758.2</ele>
        <time>2019-12-07T12:17:02Z</time>
      </trkpt>
      <trkpt lat="45.08861" lon="3.96016">
        <ele>754.6</ele>
        <time>2019-12-07T12:17:06Z</time>
      </trkpt>
      <trkpt lat="45.08882" lon="3.96034">
        <ele>750.4</ele>
        <time>2019-12-07T12:17:09Z</time>
      </trkpt>
      <trkpt lat="45.08889" lon="3.96042">
        <ele>748.5</ele>
        <time>2019-12-07T12:17:10Z</time>
      </trkpt>
      <trkpt lat="45.08895" lon="3.96051">
        <ele>746.7</ele>
        <time>2019-12-07T12:17:11Z</time>
      </trkpt>
      <trkpt lat="45.089" lon="3.9606">
        <ele>745.2</ele>
        <time>2019-12-07T12:17:12Z</time>
      </trkpt>
      <trkpt lat="45.08912" lon="3.96085">
        <ele>741.2</ele>
        <time>2019-12-07T12:17:15Z</time>
      </trkpt>
      <trkpt lat="45.08917" lon="3.96098">
        <ele>739.6</ele>
        <time>2019-12-07T12:17:17Z</time>
      </trkpt>
      <trkpt lat="45.08921" lon="3.96112">
        <ele>738.2</ele>
        <time>2019-12-07T12:17:21Z</time>
      </trkpt>
      <trkpt lat="45.08922" lon="3.96114">
        <ele>737.9</ele>
        <time>2019-12-07T12:17:22Z</time>
      </trkpt>
      <trkpt lat="45.08922" lon="3.96115">
        <ele>737.6</ele>
        <time>2019-12-07T12:17:23Z</time>
      </trkpt>
      <trkpt lat="45.08923" lon="3.96117">
        <ele>737.7</ele>
        <time>2019-12-07T12:17:24Z</time>
      </trkpt>
      <trkpt lat="45.08924" lon="3.96118">
        <ele>737.4</ele>
        <time>2019-12-07T12:17:25Z</time>
      </trkpt>
      <trkpt lat="45.08925" lon="3.9612">
        <ele>737</ele>
        <time>2019-12-07T12:17:26Z</time>
      </trkpt>
      <trkpt lat="45.08926" lon="3.96122">
        <ele>737.1</ele>
        <time>2019-12-07T12:17:27Z</time>
      </trkpt>
      <trkpt lat="45.08927" lon="3.96123">
        <ele>736.7</ele>
        <time>2019-12-07T12:17:28Z</time>
      </trkpt>
      <trkpt lat="45.08931" lon="3.96126">
        <ele>736</ele>
        <time>2019-12-07T12:17:36Z</time>
      </trkpt>
      <trkpt lat="45.08932" lon="3.96127">
        <ele>735.6</ele>
        <time>2019-12-07T12:17:37Z</time>
      </trkpt>
      <trkpt lat="45.08933" lon="3.96128">
        <ele>735.6</ele>
        <time>2019-12-07T12:17:38Z</time>
      </trkpt>
      <trkpt lat="45.08939" lon="3.96134">
        <ele>734.2</ele>
        <time>2019-12-07T12:17:44Z</time>
      </trkpt>
      <trkpt lat="45.08952" lon="3.96152">
        <ele>730.1</ele>
        <time>2019-12-07T12:17:53Z</time>
      </trkpt>
      <trkpt lat="45.08962" lon="3.96165">
        <ele>727.3</ele>
        <time>2019-12-07T12:18:07Z</time>
      </trkpt>
      <trkpt lat="45.08969" lon="3.96173">
        <ele>726.1</ele>
        <time>2019-12-07T12:18:23Z</time>
      </trkpt>
      <trkpt lat="45.08973" lon="3.9618">
        <ele>725</ele>
        <time>2019-12-07T12:18:29Z</time>
      </trkpt>
      <trkpt lat="45.08976" lon="3.96184">
        <ele>724.3</ele>
        <time>2019-12-07T12:18:39Z</time>
      </trkpt>
      <trkpt lat="45.08977" lon="3.96185">
        <ele>723.9</ele>
        <time>2019-12-07T12:18:40Z</time>
      </trkpt>
      <trkpt lat="45.0898" lon="3.96189">
        <ele>723.2</ele>
        <time>2019-12-07T12:18:43Z</time>
      </trkpt>
      <trkpt lat="45.08981" lon="3.9619">
        <ele>723.2</ele>
        <time>2019-12-07T12:18:44Z</time>
      </trkpt>
      <trkpt lat="45.08983" lon="3.96192">
        <ele>722.6</ele>
        <time>2019-12-07T12:18:45Z</time>
      </trkpt>
      <trkpt lat="45.08993" lon="3.96205">
        <ele>720.5</ele>
        <time>2019-12-07T12:18:51Z</time>
      </trkpt>
      <trkpt lat="45.08994" lon="3.96206">
        <ele>720.6</ele>
        <time>2019-12-07T12:18:52Z</time>
      </trkpt>
      <trkpt lat="45.08995" lon="3.96207">
        <ele>720.2</ele>
        <time>2019-12-07T12:18:53Z</time>
      </trkpt>
      <trkpt lat="45.08996" lon="3.96208">
        <ele>719.9</ele>
        <time>2019-12-07T12:18:54Z</time>
      </trkpt>
      <trkpt lat="45.08998" lon="3.96209">
        <ele>719.6</ele>
        <time>2019-12-07T12:18:55Z</time>
      </trkpt>
      <trkpt lat="45.08999" lon="3.9621">
        <ele>719.6</ele>
        <time>2019-12-07T12:18:56Z</time>
      </trkpt>
      <trkpt lat="45.09" lon="3.96212">
        <ele>719.2</ele>
        <time>2019-12-07T12:18:57Z</time>
      </trkpt>
      <trkpt lat="45.09002" lon="3.96214">
        <ele>718.9</ele>
        <time>2019-12-07T12:18:58Z</time>
      </trkpt>
      <trkpt lat="45.0901" lon="3.96225">
        <ele>717.1</ele>
        <time>2019-12-07T12:19:04Z</time>
      </trkpt>
      <trkpt lat="45.0901" lon="3.96227">
        <ele>716.9</ele>
        <time>2019-12-07T12:19:05Z</time>
      </trkpt>
      <trkpt lat="45.0901" lon="3.96228">
        <ele>716.9</ele>
        <time>2019-12-07T12:19:06Z</time>
      </trkpt>
      <trkpt lat="45.09011" lon="3.9623">
        <ele>716.5</ele>
        <time>2019-12-07T12:19:07Z</time>
      </trkpt>
      <trkpt lat="45.09012" lon="3.96233">
        <ele>716.6</ele>
        <time>2019-12-07T12:19:08Z</time>
      </trkpt>
      <trkpt lat="45.09012" lon="3.96235">
        <ele>716.2</ele>
        <time>2019-12-07T12:19:09Z</time>
      </trkpt>
      <trkpt lat="45.09016" lon="3.96246">
        <ele>714.8</ele>
        <time>2019-12-07T12:19:14Z</time>
      </trkpt>
      <trkpt lat="45.0902" lon="3.96259">
        <ele>713.3</ele>
        <time>2019-12-07T12:19:19Z</time>
      </trkpt>
      <trkpt lat="45.09029" lon="3.9628">
        <ele>711</ele>
        <time>2019-12-07T12:19:26Z</time>
      </trkpt>
      <trkpt lat="45.09048" lon="3.96315">
        <ele>706.6</ele>
        <time>2019-12-07T12:19:40Z</time>
      </trkpt>
      <trkpt lat="45.09054" lon="3.96324">
        <ele>705</ele>
        <time>2019-12-07T12:19:44Z</time>
      </trkpt>
      <trkpt lat="45.09075" lon="3.96346">
        <ele>702.2</ele>
        <time>2019-12-07T12:19:52Z</time>
      </trkpt>
      <trkpt lat="45.09081" lon="3.96354">
        <ele>701.7</ele>
        <time>2019-12-07T12:19:55Z</time>
      </trkpt>
      <trkpt lat="45.09096" lon="3.96373">
        <ele>700.5</ele>
        <time>2019-12-07T12:20:01Z</time>
      </trkpt>
      <trkpt lat="45.09112" lon="3.96387">
        <ele>699.4</ele>
        <time>2019-12-07T12:20:05Z</time>
      </trkpt>
      <trkpt lat="45.09116" lon="3.96392">
        <ele>699.1</ele>
        <time>2019-12-07T12:20:06Z</time>
      </trkpt>
      <trkpt lat="45.09119" lon="3.96397">
        <ele>698.7</ele>
        <time>2019-12-07T12:20:07Z</time>
      </trkpt>
      <trkpt lat="45.0914" lon="3.96425">
        <ele>696.5</ele>
        <time>2019-12-07T12:20:12Z</time>
      </trkpt>
      <trkpt lat="45.09148" lon="3.96437">
        <ele>695.5</ele>
        <time>2019-12-07T12:20:14Z</time>
      </trkpt>
      <trkpt lat="45.09155" lon="3.96447">
        <ele>694.7</ele>
        <time>2019-12-07T12:20:16Z</time>
      </trkpt>
      <trkpt lat="45.09159" lon="3.96453">
        <ele>694.1</ele>
        <time>2019-12-07T12:20:18Z</time>
      </trkpt>
      <trkpt lat="45.0916" lon="3.96455">
        <ele>694.1</ele>
        <time>2019-12-07T12:20:19Z</time>
      </trkpt>
      <trkpt lat="45.09161" lon="3.96458">
        <ele>693.9</ele>
        <time>2019-12-07T12:20:21Z</time>
      </trkpt>
      <trkpt lat="45.09161" lon="3.9646">
        <ele>693.9</ele>
        <time>2019-12-07T12:20:22Z</time>
      </trkpt>
      <trkpt lat="45.09161" lon="3.96462">
        <ele>693.7</ele>
        <time>2019-12-07T12:20:23Z</time>
      </trkpt>
      <trkpt lat="45.09161" lon="3.96463">
        <ele>693.7</ele>
        <time>2019-12-07T12:20:24Z</time>
      </trkpt>
      <trkpt lat="45.09161" lon="3.96465">
        <ele>693.6</ele>
        <time>2019-12-07T12:20:25Z</time>
      </trkpt>
      <trkpt lat="45.09161" lon="3.96468">
        <ele>693.6</ele>
        <time>2019-12-07T12:20:26Z</time>
      </trkpt>
      <trkpt lat="45.09161" lon="3.96471">
        <ele>693.4</ele>
        <time>2019-12-07T12:20:27Z</time>
      </trkpt>
      <trkpt lat="45.0916" lon="3.96473">
        <ele>693.5</ele>
        <time>2019-12-07T12:20:28Z</time>
      </trkpt>
      <trkpt lat="45.09159" lon="3.96476">
        <ele>693.3</ele>
        <time>2019-12-07T12:20:29Z</time>
      </trkpt>
      <trkpt lat="45.09159" lon="3.96478">
        <ele>693.2</ele>
        <time>2019-12-07T12:20:30Z</time>
      </trkpt>
      <trkpt lat="45.09158" lon="3.96481">
        <ele>693.3</ele>
        <time>2019-12-07T12:20:31Z</time>
      </trkpt>
      <trkpt lat="45.09156" lon="3.96483">
        <ele>693.2</ele>
        <time>2019-12-07T12:20:32Z</time>
      </trkpt>
      <trkpt lat="45.09155" lon="3.96485">
        <ele>693.3</ele>
        <time>2019-12-07T12:20:33Z</time>
      </trkpt>
      <trkpt lat="45.09151" lon="3.9649">
        <ele>693.3</ele>
        <time>2019-12-07T12:20:36Z</time>
      </trkpt>
      <trkpt lat="45.09153" lon="3.96491">
        <ele>693.2</ele>
        <time>2019-12-07T12:20:47Z</time>
      </trkpt>
      <trkpt lat="45.09153" lon="3.96492">
        <ele>693.2</ele>
        <time>2019-12-07T12:20:48Z</time>
      </trkpt>
      <trkpt lat="45.09153" lon="3.96493">
        <ele>693.2</ele>
        <time>2019-12-07T12:20:49Z</time>
      </trkpt>
      <trkpt lat="45.09152" lon="3.96495">
        <ele>693.3</ele>
        <time>2019-12-07T12:20:50Z</time>
      </trkpt>
      <trkpt lat="45.09151" lon="3.96495">
        <ele>693.3</ele>
        <time>2019-12-07T12:20:51Z</time>
      </trkpt>
      <trkpt lat="45.0915" lon="3.96496">
        <ele>693.3</ele>
        <time>2019-12-07T12:20:55Z</time>
      </trkpt>
      <trkpt lat="45.0915" lon="3.96495">
        <ele>693.4</ele>
        <time>2019-12-07T12:20:57Z</time>
      </trkpt>
      <trkpt lat="45.09153" lon="3.96485">
        <ele>693.7</ele>
        <time>2019-12-07T12:35:59Z</time>
      </trkpt>
      <trkpt lat="45.09153" lon="3.96484">
        <ele>693.7</ele>
        <time>2019-12-07T12:36:00Z</time>
      </trkpt>
      <trkpt lat="45.09153" lon="3.96483">
        <ele>693.8</ele>
        <time>2019-12-07T12:36:01Z</time>
      </trkpt>
      <trkpt lat="45.0915" lon="3.9648">
        <ele>694.1</ele>
        <time>2019-12-07T12:36:04Z</time>
      </trkpt>
      <trkpt lat="45.09147" lon="3.96478">
        <ele>694.2</ele>
        <time>2019-12-07T12:36:06Z</time>
      </trkpt>
      <trkpt lat="45.0914" lon="3.96479">
        <ele>694.4</ele>
        <time>2019-12-07T12:36:17Z</time>
      </trkpt>
      <trkpt lat="45.0914" lon="3.96479">
        <ele>694.6</ele>
        <time>2019-12-07T12:36:18Z</time>
      </trkpt>
      <trkpt lat="45.09151" lon="3.96475">
        <ele>694.4</ele>
        <time>2019-12-07T12:37:36Z</time>
      </trkpt>
      <trkpt lat="45.09152" lon="3.96476">
        <ele>694.5</ele>
        <time>2019-12-07T12:37:37Z</time>
      </trkpt>
      <trkpt lat="45.09153" lon="3.96477">
        <ele>694.4</ele>
        <time>2019-12-07T12:37:38Z</time>
      </trkpt>
      <trkpt lat="45.09155" lon="3.96481">
        <ele>694.3</ele>
        <time>2019-12-07T12:37:42Z</time>
      </trkpt>
      <trkpt lat="45.09154" lon="3.96494">
        <ele>693.9</ele>
        <time>2019-12-07T12:37:51Z</time>
      </trkpt>
      <trkpt lat="45.09152" lon="3.96495">
        <ele>693.9</ele>
        <time>2019-12-07T12:37:52Z</time>
      </trkpt>
      <trkpt lat="45.09151" lon="3.96496">
        <ele>693.9</ele>
        <time>2019-12-07T12:37:54Z</time>
      </trkpt>
      <trkpt lat="45.09151" lon="3.96495">
        <ele>694</ele>
        <time>2019-12-07T12:37:57Z</time>
      </trkpt>
      <trkpt lat="45.09151" lon="3.96495">
        <ele>694</ele>
        <time>2019-12-07T12:37:59Z</time>
      </trkpt>
      <trkpt lat="45.09156" lon="3.96493">
        <ele>694</ele>
        <time>2019-12-07T12:38:42Z</time>
      </trkpt>
      <trkpt lat="45.09156" lon="3.96494">
        <ele>694.1</ele>
        <time>2019-12-07T12:38:43Z</time>
      </trkpt>
      <trkpt lat="45.09155" lon="3.96494">
        <ele>694.2</ele>
        <time>2019-12-07T12:38:44Z</time>
      </trkpt>
      <trkpt lat="45.09154" lon="3.96494">
        <ele>694.2</ele>
        <time>2019-12-07T12:38:46Z</time>
      </trkpt>
      <trkpt lat="45.09154" lon="3.96494">
        <ele>694.3</ele>
        <time>2019-12-07T12:38:48Z</time>
      </trkpt>
      <trkpt lat="45.09155" lon="3.96495">
        <ele>694.3</ele>
        <time>2019-12-07T12:41:15Z</time>
      </trkpt>
      <trkpt lat="45.09154" lon="3.96497">
        <ele>694.3</ele>
        <time>2019-12-07T12:41:16Z</time>
      </trkpt>
      <trkpt lat="45.09154" lon="3.965">
        <ele>694.2</ele>
        <time>2019-12-07T12:41:17Z</time>
      </trkpt>
      <trkpt lat="45.09153" lon="3.96503">
        <ele>694.3</ele>
        <time>2019-12-07T12:41:18Z</time>
      </trkpt>
      <trkpt lat="45.09152" lon="3.96506">
        <ele>694.3</ele>
        <time>2019-12-07T12:41:19Z</time>
      </trkpt>
      <trkpt lat="45.09151" lon="3.96509">
        <ele>694.3</ele>
        <time>2019-12-07T12:41:20Z</time>
      </trkpt>
      <trkpt lat="45.09147" lon="3.9653">
        <ele>694.3</ele>
        <time>2019-12-07T12:41:25Z</time>
      </trkpt>
      <trkpt lat="45.09141" lon="3.9655">
        <ele>694.5</ele>
        <time>2019-12-07T12:41:29Z</time>
      </trkpt>
      <trkpt lat="45.09126" lon="3.9658">
        <ele>694.2</ele>
        <time>2019-12-07T12:41:36Z</time>
      </trkpt>
      <trkpt lat="45.09115" lon="3.96604">
        <ele>693.6</ele>
        <time>2019-12-07T12:41:42Z</time>
      </trkpt>
      <trkpt lat="45.09115" lon="3.96608">
        <ele>693.5</ele>
        <time>2019-12-07T12:41:43Z</time>
      </trkpt>
      <trkpt lat="45.09116" lon="3.96612">
        <ele>693.7</ele>
        <time>2019-12-07T12:41:44Z</time>
      </trkpt>
      <trkpt lat="45.09124" lon="3.96635">
        <ele>693.3</ele>
        <time>2019-12-07T12:41:49Z</time>
      </trkpt>
      <trkpt lat="45.0913" lon="3.96648">
        <ele>692.8</ele>
        <time>2019-12-07T12:41:52Z</time>
      </trkpt>
      <trkpt lat="45.09137" lon="3.96665">
        <ele>692.3</ele>
        <time>2019-12-07T12:41:56Z</time>
      </trkpt>
      <trkpt lat="45.09147" lon="3.9669">
        <ele>691.3</ele>
        <time>2019-12-07T12:42:00Z</time>
      </trkpt>
      <trkpt lat="45.09151" lon="3.96698">
        <ele>691</ele>
        <time>2019-12-07T12:42:01Z</time>
      </trkpt>
      <trkpt lat="45.09154" lon="3.96707">
        <ele>690.6</ele>
        <time>2019-12-07T12:42:02Z</time>
      </trkpt>
      <trkpt lat="45.09167" lon="3.9674">
        <ele>688</ele>
        <time>2019-12-07T12:42:05Z</time>
      </trkpt>
      <trkpt lat="45.09177" lon="3.96773">
        <ele>685.8</ele>
        <time>2019-12-07T12:42:08Z</time>
      </trkpt>
      <trkpt lat="45.0918" lon="3.96784">
        <ele>684.5</ele>
        <time>2019-12-07T12:42:09Z</time>
      </trkpt>
      <trkpt lat="45.09185" lon="3.96802">
        <ele>682.7</ele>
        <time>2019-12-07T12:42:11Z</time>
      </trkpt>
      <trkpt lat="45.09187" lon="3.96807">
        <ele>682.4</ele>
        <time>2019-12-07T12:42:12Z</time>
      </trkpt>
      <trkpt lat="45.0919" lon="3.96812">
        <ele>682</ele>
        <time>2019-12-07T12:42:13Z</time>
      </trkpt>
      <trkpt lat="45.09195" lon="3.96821">
        <ele>681.2</ele>
        <time>2019-12-07T12:42:15Z</time>
      </trkpt>
      <trkpt lat="45.09197" lon="3.96827">
        <ele>680.2</ele>
        <time>2019-12-07T12:42:16Z</time>
      </trkpt>
      <trkpt lat="45.09204" lon="3.96849">
        <ele>678.3</ele>
        <time>2019-12-07T12:42:20Z</time>
      </trkpt>
      <trkpt lat="45.09208" lon="3.96862">
        <ele>677.2</ele>
        <time>2019-12-07T12:42:22Z</time>
      </trkpt>
      <trkpt lat="45.09212" lon="3.96878">
        <ele>675.8</ele>
        <time>2019-12-07T12:42:25Z</time>
      </trkpt>
      <trkpt lat="45.09212" lon="3.96887">
        <ele>675.1</ele>
        <time>2019-12-07T12:42:27Z</time>
      </trkpt>
      <trkpt lat="45.09211" lon="3.9689">
        <ele>674.9</ele>
        <time>2019-12-07T12:42:28Z</time>
      </trkpt>
      <trkpt lat="45.0921" lon="3.96899">
        <ele>674.3</ele>
        <time>2019-12-07T12:42:31Z</time>
      </trkpt>
      <trkpt lat="45.09216" lon="3.96931">
        <ele>671.3</ele>
        <time>2019-12-07T12:42:40Z</time>
      </trkpt>
      <trkpt lat="45.09225" lon="3.96939">
        <ele>670.2</ele>
        <time>2019-12-07T12:42:43Z</time>
      </trkpt>
      <trkpt lat="45.09233" lon="3.96945">
        <ele>669.5</ele>
        <time>2019-12-07T12:42:45Z</time>
      </trkpt>
      <trkpt lat="45.0924" lon="3.96952">
        <ele>668.1</ele>
        <time>2019-12-07T12:42:47Z</time>
      </trkpt>
      <trkpt lat="45.09256" lon="3.96967">
        <ele>666.1</ele>
        <time>2019-12-07T12:42:51Z</time>
      </trkpt>
      <trkpt lat="45.0926" lon="3.97024">
        <ele>662</ele>
        <time>2019-12-07T12:43:05Z</time>
      </trkpt>
      <trkpt lat="45.0926" lon="3.97026">
        <ele>662.1</ele>
        <time>2019-12-07T12:43:06Z</time>
      </trkpt>
      <trkpt lat="45.09261" lon="3.97029">
        <ele>661.9</ele>
        <time>2019-12-07T12:43:07Z</time>
      </trkpt>
      <trkpt lat="45.09262" lon="3.9703">
        <ele>661.9</ele>
        <time>2019-12-07T12:43:08Z</time>
      </trkpt>
      <trkpt lat="45.09263" lon="3.97031">
        <ele>662</ele>
        <time>2019-12-07T12:43:09Z</time>
      </trkpt>
      <trkpt lat="45.09268" lon="3.97035">
        <ele>661.7</ele>
        <time>2019-12-07T12:43:16Z</time>
      </trkpt>
      <trkpt lat="45.09277" lon="3.9704">
        <ele>661.4</ele>
        <time>2019-12-07T12:43:21Z</time>
      </trkpt>
      <trkpt lat="45.09285" lon="3.97045">
        <ele>661.1</ele>
        <time>2019-12-07T12:43:26Z</time>
      </trkpt>
      <trkpt lat="45.09299" lon="3.97054">
        <ele>660.7</ele>
        <time>2019-12-07T12:43:32Z</time>
      </trkpt>
      <trkpt lat="45.09318" lon="3.97094">
        <ele>659.5</ele>
        <time>2019-12-07T12:43:45Z</time>
      </trkpt>
      <trkpt lat="45.09325" lon="3.97138">
        <ele>658.9</ele>
        <time>2019-12-07T12:43:56Z</time>
      </trkpt>
      <trkpt lat="45.09326" lon="3.97141">
        <ele>658.9</ele>
        <time>2019-12-07T12:43:57Z</time>
      </trkpt>
      <trkpt lat="45.09328" lon="3.97143">
        <ele>658.9</ele>
        <time>2019-12-07T12:43:58Z</time>
      </trkpt>
      <trkpt lat="45.0933" lon="3.97143">
        <ele>658.9</ele>
        <time>2019-12-07T12:43:59Z</time>
      </trkpt>
      <trkpt lat="45.09332" lon="3.97144">
        <ele>658.9</ele>
        <time>2019-12-07T12:44:00Z</time>
      </trkpt>
      <trkpt lat="45.09334" lon="3.97145">
        <ele>658.9</ele>
        <time>2019-12-07T12:44:01Z</time>
      </trkpt>
      <trkpt lat="45.09378" lon="3.97152">
        <ele>658.6</ele>
        <time>2019-12-07T12:44:19Z</time>
      </trkpt>
      <trkpt lat="45.09389" lon="3.97154">
        <ele>658.7</ele>
        <time>2019-12-07T12:44:24Z</time>
      </trkpt>
      <trkpt lat="45.0939" lon="3.97182">
        <ele>659.3</ele>
        <time>2019-12-07T12:44:32Z</time>
      </trkpt>
      <trkpt lat="45.09376" lon="3.97252">
        <ele>659.9</ele>
        <time>2019-12-07T12:44:49Z</time>
      </trkpt>
      <trkpt lat="45.09375" lon="3.97334">
        <ele>661.2</ele>
        <time>2019-12-07T12:45:08Z</time>
      </trkpt>
      <trkpt lat="45.09392" lon="3.97406">
        <ele>662</ele>
        <time>2019-12-07T12:45:25Z</time>
      </trkpt>
      <trkpt lat="45.09401" lon="3.97452">
        <ele>663.2</ele>
        <time>2019-12-07T12:45:35Z</time>
      </trkpt>
      <trkpt lat="45.09396" lon="3.97515">
        <ele>665.4</ele>
        <time>2019-12-07T12:45:49Z</time>
      </trkpt>
      <trkpt lat="45.09379" lon="3.97595">
        <ele>666.9</ele>
        <time>2019-12-07T12:46:06Z</time>
      </trkpt>
      <trkpt lat="45.09368" lon="3.97649">
        <ele>667</ele>
        <time>2019-12-07T12:46:17Z</time>
      </trkpt>
      <trkpt lat="45.09367" lon="3.9766">
        <ele>667.1</ele>
        <time>2019-12-07T12:46:19Z</time>
      </trkpt>
      <trkpt lat="45.09343" lon="3.97728">
        <ele>668.4</ele>
        <time>2019-12-07T12:46:34Z</time>
      </trkpt>
      <trkpt lat="45.09335" lon="3.97756">
        <ele>668.9</ele>
        <time>2019-12-07T12:46:40Z</time>
      </trkpt>
      <trkpt lat="45.09334" lon="3.97765">
        <ele>668.9</ele>
        <time>2019-12-07T12:46:42Z</time>
      </trkpt>
      <trkpt lat="45.09327" lon="3.9783">
        <ele>669.3</ele>
        <time>2019-12-07T12:46:56Z</time>
      </trkpt>
      <trkpt lat="45.09321" lon="3.97876">
        <ele>670</ele>
        <time>2019-12-07T12:47:06Z</time>
      </trkpt>
      <trkpt lat="45.09314" lon="3.97921">
        <ele>670.9</ele>
        <time>2019-12-07T12:47:16Z</time>
      </trkpt>
      <trkpt lat="45.09312" lon="3.97937">
        <ele>671</ele>
        <time>2019-12-07T12:47:20Z</time>
      </trkpt>
      <trkpt lat="45.09311" lon="3.97947">
        <ele>671</ele>
        <time>2019-12-07T12:47:23Z</time>
      </trkpt>
      <trkpt lat="45.09316" lon="3.98008">
        <ele>671.5</ele>
        <time>2019-12-07T12:47:45Z</time>
      </trkpt>
      <trkpt lat="45.09326" lon="3.98042">
        <ele>672.7</ele>
        <time>2019-12-07T12:48:01Z</time>
      </trkpt>
      <trkpt lat="45.09326" lon="3.98045">
        <ele>672.7</ele>
        <time>2019-12-07T12:48:02Z</time>
      </trkpt>
      <trkpt lat="45.09326" lon="3.98047">
        <ele>672.7</ele>
        <time>2019-12-07T12:48:03Z</time>
      </trkpt>
      <trkpt lat="45.09326" lon="3.98049">
        <ele>672.8</ele>
        <time>2019-12-07T12:48:04Z</time>
      </trkpt>
      <trkpt lat="45.09328" lon="3.98063">
        <ele>673</ele>
        <time>2019-12-07T12:48:09Z</time>
      </trkpt>
      <trkpt lat="45.09329" lon="3.98075">
        <ele>673.6</ele>
        <time>2019-12-07T12:48:13Z</time>
      </trkpt>
      <trkpt lat="45.09331" lon="3.98108">
        <ele>674.8</ele>
        <time>2019-12-07T12:48:24Z</time>
      </trkpt>
      <trkpt lat="45.0933" lon="3.98111">
        <ele>675</ele>
        <time>2019-12-07T12:48:25Z</time>
      </trkpt>
      <trkpt lat="45.09331" lon="3.98117">
        <ele>675.1</ele>
        <time>2019-12-07T12:48:27Z</time>
      </trkpt>
      <trkpt lat="45.09334" lon="3.98145">
        <ele>676.6</ele>
        <time>2019-12-07T12:48:36Z</time>
      </trkpt>
      <trkpt lat="45.0933" lon="3.98199">
        <ele>677.3</ele>
        <time>2019-12-07T12:48:56Z</time>
      </trkpt>
      <trkpt lat="45.09328" lon="3.98231">
        <ele>677.6</ele>
        <time>2019-12-07T12:49:08Z</time>
      </trkpt>
      <trkpt lat="45.09326" lon="3.98255">
        <ele>677.5</ele>
        <time>2019-12-07T12:49:19Z</time>
      </trkpt>
      <trkpt lat="45.09324" lon="3.98267">
        <ele>677.4</ele>
        <time>2019-12-07T12:49:24Z</time>
      </trkpt>
      <trkpt lat="45.09323" lon="3.9827">
        <ele>677.4</ele>
        <time>2019-12-07T12:49:25Z</time>
      </trkpt>
      <trkpt lat="45.09318" lon="3.983">
        <ele>677.2</ele>
        <time>2019-12-07T12:49:38Z</time>
      </trkpt>
      <trkpt lat="45.09314" lon="3.98321">
        <ele>677.2</ele>
        <time>2019-12-07T12:49:47Z</time>
      </trkpt>
      <trkpt lat="45.09311" lon="3.98349">
        <ele>677.2</ele>
        <time>2019-12-07T12:49:58Z</time>
      </trkpt>
      <trkpt lat="45.0931" lon="3.98366">
        <ele>677.5</ele>
        <time>2019-12-07T12:50:06Z</time>
      </trkpt>
      <trkpt lat="45.09307" lon="3.98416">
        <ele>679</ele>
        <time>2019-12-07T12:50:27Z</time>
      </trkpt>
      <trkpt lat="45.09306" lon="3.98427">
        <ele>679.3</ele>
        <time>2019-12-07T12:50:31Z</time>
      </trkpt>
      <trkpt lat="45.09306" lon="3.98432">
        <ele>679.5</ele>
        <time>2019-12-07T12:50:33Z</time>
      </trkpt>
      <trkpt lat="45.09306" lon="3.98452">
        <ele>680.3</ele>
        <time>2019-12-07T12:50:41Z</time>
      </trkpt>
      <trkpt lat="45.09306" lon="3.98462">
        <ele>680.6</ele>
        <time>2019-12-07T12:50:45Z</time>
      </trkpt>
      <trkpt lat="45.09304" lon="3.98476">
        <ele>680.9</ele>
        <time>2019-12-07T12:50:51Z</time>
      </trkpt>
      <trkpt lat="45.09304" lon="3.98487">
        <ele>681.2</ele>
        <time>2019-12-07T12:50:56Z</time>
      </trkpt>
      <trkpt lat="45.09304" lon="3.98489">
        <ele>681.2</ele>
        <time>2019-12-07T12:50:57Z</time>
      </trkpt>
      <trkpt lat="45.09304" lon="3.98518">
        <ele>681.8</ele>
        <time>2019-12-07T12:51:11Z</time>
      </trkpt>
      <trkpt lat="45.09304" lon="3.98523">
        <ele>682</ele>
        <time>2019-12-07T12:51:14Z</time>
      </trkpt>
      <trkpt lat="45.09304" lon="3.98525">
        <ele>682.1</ele>
        <time>2019-12-07T12:51:15Z</time>
      </trkpt>
      <trkpt lat="45.09303" lon="3.98527">
        <ele>682.1</ele>
        <time>2019-12-07T12:51:16Z</time>
      </trkpt>
      <trkpt lat="45.09303" lon="3.9854">
        <ele>682.6</ele>
        <time>2019-12-07T12:51:28Z</time>
      </trkpt>
      <trkpt lat="45.09304" lon="3.98542">
        <ele>682.8</ele>
        <time>2019-12-07T12:51:33Z</time>
      </trkpt>
      <trkpt lat="45.09303" lon="3.98552">
        <ele>683.1</ele>
        <time>2019-12-07T12:51:46Z</time>
      </trkpt>
      <trkpt lat="45.09303" lon="3.98554">
        <ele>683.1</ele>
        <time>2019-12-07T12:51:47Z</time>
      </trkpt>
      <trkpt lat="45.09303" lon="3.98557">
        <ele>683.3</ele>
        <time>2019-12-07T12:51:50Z</time>
      </trkpt>
      <trkpt lat="45.093" lon="3.98576">
        <ele>684.1</ele>
        <time>2019-12-07T12:52:02Z</time>
      </trkpt>
      <trkpt lat="45.093" lon="3.98578">
        <ele>684.3</ele>
        <time>2019-12-07T12:52:03Z</time>
      </trkpt>
      <trkpt lat="45.093" lon="3.98579">
        <ele>684.3</ele>
        <time>2019-12-07T12:52:04Z</time>
      </trkpt>
      <trkpt lat="45.093" lon="3.98581">
        <ele>684.4</ele>
        <time>2019-12-07T12:52:05Z</time>
      </trkpt>
      <trkpt lat="45.093" lon="3.98582">
        <ele>684.4</ele>
        <time>2019-12-07T12:52:06Z</time>
      </trkpt>
      <trkpt lat="45.093" lon="3.98584">
        <ele>684.4</ele>
        <time>2019-12-07T12:52:07Z</time>
      </trkpt>
      <trkpt lat="45.09299" lon="3.98585">
        <ele>684.4</ele>
        <time>2019-12-07T12:52:08Z</time>
      </trkpt>
      <trkpt lat="45.09299" lon="3.98586">
        <ele>684.6</ele>
        <time>2019-12-07T12:52:09Z</time>
      </trkpt>
      <trkpt lat="45.093" lon="3.98588">
        <ele>684.6</ele>
        <time>2019-12-07T12:52:10Z</time>
      </trkpt>
      <trkpt lat="45.093" lon="3.98589">
        <ele>684.8</ele>
        <time>2019-12-07T12:52:11Z</time>
      </trkpt>
      <trkpt lat="45.093" lon="3.98593">
        <ele>684.8</ele>
        <time>2019-12-07T12:52:13Z</time>
      </trkpt>
      <trkpt lat="45.09299" lon="3.98598">
        <ele>685.1</ele>
        <time>2019-12-07T12:52:16Z</time>
      </trkpt>
      <trkpt lat="45.09299" lon="3.98601">
        <ele>685</ele>
        <time>2019-12-07T12:52:17Z</time>
      </trkpt>
      <trkpt lat="45.09299" lon="3.98607">
        <ele>685.3</ele>
        <time>2019-12-07T12:52:20Z</time>
      </trkpt>
      <trkpt lat="45.09299" lon="3.98612">
        <ele>685.3</ele>
        <time>2019-12-07T12:52:22Z</time>
      </trkpt>
      <trkpt lat="45.09298" lon="3.98617">
        <ele>685.4</ele>
        <time>2019-12-07T12:52:24Z</time>
      </trkpt>
      <trkpt lat="45.09296" lon="3.98627">
        <ele>685.5</ele>
        <time>2019-12-07T12:52:28Z</time>
      </trkpt>
      <trkpt lat="45.09296" lon="3.98631">
        <ele>685.6</ele>
        <time>2019-12-07T12:52:30Z</time>
      </trkpt>
      <trkpt lat="45.09295" lon="3.98642">
        <ele>685.6</ele>
        <time>2019-12-07T12:52:34Z</time>
      </trkpt>
      <trkpt lat="45.09296" lon="3.98647">
        <ele>685.5</ele>
        <time>2019-12-07T12:52:36Z</time>
      </trkpt>
      <trkpt lat="45.09294" lon="3.9867">
        <ele>685.5</ele>
        <time>2019-12-07T12:52:44Z</time>
      </trkpt>
      <trkpt lat="45.09294" lon="3.98675">
        <ele>685.4</ele>
        <time>2019-12-07T12:52:46Z</time>
      </trkpt>
      <trkpt lat="45.09294" lon="3.98682">
        <ele>685.1</ele>
        <time>2019-12-07T12:52:49Z</time>
      </trkpt>
      <trkpt lat="45.09301" lon="3.98716">
        <ele>684</ele>
        <time>2019-12-07T12:52:59Z</time>
      </trkpt>
      <trkpt lat="45.09306" lon="3.98726">
        <ele>683.4</ele>
        <time>2019-12-07T12:53:01Z</time>
      </trkpt>
      <trkpt lat="45.09308" lon="3.98731">
        <ele>683.2</ele>
        <time>2019-12-07T12:53:02Z</time>
      </trkpt>
      <trkpt lat="45.09312" lon="3.98735">
        <ele>683.1</ele>
        <time>2019-12-07T12:53:03Z</time>
      </trkpt>
      <trkpt lat="45.09325" lon="3.98747">
        <ele>682.5</ele>
        <time>2019-12-07T12:53:06Z</time>
      </trkpt>
      <trkpt lat="45.09331" lon="3.9875">
        <ele>682.2</ele>
        <time>2019-12-07T12:53:07Z</time>
      </trkpt>
      <trkpt lat="45.09352" lon="3.98766">
        <ele>681.5</ele>
        <time>2019-12-07T12:53:11Z</time>
      </trkpt>
      <trkpt lat="45.09373" lon="3.9878">
        <ele>680.7</ele>
        <time>2019-12-07T12:53:15Z</time>
      </trkpt>
      <trkpt lat="45.09394" lon="3.98795">
        <ele>680.2</ele>
        <time>2019-12-07T12:53:19Z</time>
      </trkpt>
      <trkpt lat="45.0945" lon="3.98839">
        <ele>678.8</ele>
        <time>2019-12-07T12:53:29Z</time>
      </trkpt>
      <trkpt lat="45.09468" lon="3.98869">
        <ele>677.6</ele>
        <time>2019-12-07T12:53:33Z</time>
      </trkpt>
      <trkpt lat="45.09471" lon="3.98878">
        <ele>677.4</ele>
        <time>2019-12-07T12:53:34Z</time>
      </trkpt>
      <trkpt lat="45.09474" lon="3.98887">
        <ele>677.3</ele>
        <time>2019-12-07T12:53:35Z</time>
      </trkpt>
      <trkpt lat="45.09481" lon="3.98904">
        <ele>677</ele>
        <time>2019-12-07T12:53:37Z</time>
      </trkpt>
      <trkpt lat="45.09487" lon="3.98922">
        <ele>676.8</ele>
        <time>2019-12-07T12:53:39Z</time>
      </trkpt>
      <trkpt lat="45.09497" lon="3.98949">
        <ele>676.7</ele>
        <time>2019-12-07T12:53:42Z</time>
      </trkpt>
      <trkpt lat="45.095" lon="3.98957">
        <ele>676.7</ele>
        <time>2019-12-07T12:53:43Z</time>
      </trkpt>
      <trkpt lat="45.09504" lon="3.98964">
        <ele>676.6</ele>
        <time>2019-12-07T12:53:44Z</time>
      </trkpt>
      <trkpt lat="45.09509" lon="3.98972">
        <ele>676.5</ele>
        <time>2019-12-07T12:53:45Z</time>
      </trkpt>
      <trkpt lat="45.09526" lon="3.99012">
        <ele>675.2</ele>
        <time>2019-12-07T12:53:50Z</time>
      </trkpt>
      <trkpt lat="45.09546" lon="3.99053">
        <ele>673.4</ele>
        <time>2019-12-07T12:53:55Z</time>
      </trkpt>
      <trkpt lat="45.09573" lon="3.99104">
        <ele>670.1</ele>
        <time>2019-12-07T12:54:01Z</time>
      </trkpt>
      <trkpt lat="45.09593" lon="3.9915">
        <ele>668.5</ele>
        <time>2019-12-07T12:54:06Z</time>
      </trkpt>
      <trkpt lat="45.09608" lon="3.99179">
        <ele>668.1</ele>
        <time>2019-12-07T12:54:11Z</time>
      </trkpt>
      <trkpt lat="45.09625" lon="3.99209">
        <ele>668.1</ele>
        <time>2019-12-07T12:54:19Z</time>
      </trkpt>
      <trkpt lat="45.09681" lon="3.99216">
        <ele>668.7</ele>
        <time>2019-12-07T12:54:35Z</time>
      </trkpt>
      <trkpt lat="45.09694" lon="3.99215">
        <ele>668.6</ele>
        <time>2019-12-07T12:54:38Z</time>
      </trkpt>
      <trkpt lat="45.09698" lon="3.99216">
        <ele>668.5</ele>
        <time>2019-12-07T12:54:39Z</time>
      </trkpt>
      <trkpt lat="45.09701" lon="3.99219">
        <ele>668.5</ele>
        <time>2019-12-07T12:54:40Z</time>
      </trkpt>
      <trkpt lat="45.09704" lon="3.99222">
        <ele>668.7</ele>
        <time>2019-12-07T12:54:41Z</time>
      </trkpt>
      <trkpt lat="45.09707" lon="3.99225">
        <ele>668.8</ele>
        <time>2019-12-07T12:54:42Z</time>
      </trkpt>
      <trkpt lat="45.09712" lon="3.99229">
        <ele>669</ele>
        <time>2019-12-07T12:54:44Z</time>
      </trkpt>
      <trkpt lat="45.09716" lon="3.99233">
        <ele>669.2</ele>
        <time>2019-12-07T12:54:46Z</time>
      </trkpt>
      <trkpt lat="45.09718" lon="3.99235">
        <ele>669.2</ele>
        <time>2019-12-07T12:54:47Z</time>
      </trkpt>
      <trkpt lat="45.09719" lon="3.99237">
        <ele>669.3</ele>
        <time>2019-12-07T12:54:48Z</time>
      </trkpt>
      <trkpt lat="45.09723" lon="3.99241">
        <ele>669.6</ele>
        <time>2019-12-07T12:54:50Z</time>
      </trkpt>
      <trkpt lat="45.09726" lon="3.99246">
        <ele>669.9</ele>
        <time>2019-12-07T12:54:53Z</time>
      </trkpt>
      <trkpt lat="45.0973" lon="3.99251">
        <ele>670.3</ele>
        <time>2019-12-07T12:54:56Z</time>
      </trkpt>
      <trkpt lat="45.09731" lon="3.99253">
        <ele>670.4</ele>
        <time>2019-12-07T12:54:57Z</time>
      </trkpt>
      <trkpt lat="45.09732" lon="3.99255">
        <ele>670.5</ele>
        <time>2019-12-07T12:54:58Z</time>
      </trkpt>
      <trkpt lat="45.09735" lon="3.99259">
        <ele>670.8</ele>
        <time>2019-12-07T12:55:01Z</time>
      </trkpt>
      <trkpt lat="45.09736" lon="3.99261">
        <ele>670.9</ele>
        <time>2019-12-07T12:55:02Z</time>
      </trkpt>
      <trkpt lat="45.09737" lon="3.99262">
        <ele>671.1</ele>
        <time>2019-12-07T12:55:03Z</time>
      </trkpt>
      <trkpt lat="45.09738" lon="3.99264">
        <ele>671.5</ele>
        <time>2019-12-07T12:55:04Z</time>
      </trkpt>
      <trkpt lat="45.09739" lon="3.99268">
        <ele>671.7</ele>
        <time>2019-12-07T12:55:06Z</time>
      </trkpt>
      <trkpt lat="45.09739" lon="3.99272">
        <ele>672.1</ele>
        <time>2019-12-07T12:55:08Z</time>
      </trkpt>
      <trkpt lat="45.09738" lon="3.99275">
        <ele>672.3</ele>
        <time>2019-12-07T12:55:09Z</time>
      </trkpt>
      <trkpt lat="45.09737" lon="3.99277">
        <ele>672.5</ele>
        <time>2019-12-07T12:55:10Z</time>
      </trkpt>
      <trkpt lat="45.09737" lon="3.99279">
        <ele>672.6</ele>
        <time>2019-12-07T12:55:11Z</time>
      </trkpt>
      <trkpt lat="45.09736" lon="3.99281">
        <ele>672.8</ele>
        <time>2019-12-07T12:55:12Z</time>
      </trkpt>
      <trkpt lat="45.09735" lon="3.99283">
        <ele>672.9</ele>
        <time>2019-12-07T12:55:13Z</time>
      </trkpt>
      <trkpt lat="45.09732" lon="3.99297">
        <ele>673.5</ele>
        <time>2019-12-07T12:55:20Z</time>
      </trkpt>
      <trkpt lat="45.09731" lon="3.99303">
        <ele>674.3</ele>
        <time>2019-12-07T12:55:24Z</time>
      </trkpt>
      <trkpt lat="45.09731" lon="3.99305">
        <ele>674.3</ele>
        <time>2019-12-07T12:55:25Z</time>
      </trkpt>
      <trkpt lat="45.09731" lon="3.99306">
        <ele>674.7</ele>
        <time>2019-12-07T12:55:26Z</time>
      </trkpt>
      <trkpt lat="45.0973" lon="3.99308">
        <ele>674.7</ele>
        <time>2019-12-07T12:55:27Z</time>
      </trkpt>
      <trkpt lat="45.09731" lon="3.99309">
        <ele>674.8</ele>
        <time>2019-12-07T12:55:28Z</time>
      </trkpt>
      <trkpt lat="45.09732" lon="3.9931">
        <ele>674.8</ele>
        <time>2019-12-07T12:55:29Z</time>
      </trkpt>
      <trkpt lat="45.09732" lon="3.99311">
        <ele>675.2</ele>
        <time>2019-12-07T12:55:30Z</time>
      </trkpt>
      <trkpt lat="45.09734" lon="3.99313">
        <ele>675.2</ele>
        <time>2019-12-07T12:55:31Z</time>
      </trkpt>
      <trkpt lat="45.09735" lon="3.99314">
        <ele>675.3</ele>
        <time>2019-12-07T12:55:32Z</time>
      </trkpt>
      <trkpt lat="45.09736" lon="3.99315">
        <ele>675.7</ele>
        <time>2019-12-07T12:55:33Z</time>
      </trkpt>
      <trkpt lat="45.09737" lon="3.99316">
        <ele>675.8</ele>
        <time>2019-12-07T12:55:34Z</time>
      </trkpt>
      <trkpt lat="45.09741" lon="3.99318">
        <ele>675.8</ele>
        <time>2019-12-07T12:55:39Z</time>
      </trkpt>
      <trkpt lat="45.09744" lon="3.99321">
        <ele>676.3</ele>
        <time>2019-12-07T12:55:43Z</time>
      </trkpt>
      <trkpt lat="45.09746" lon="3.99322">
        <ele>676.3</ele>
        <time>2019-12-07T12:55:45Z</time>
      </trkpt>
      <trkpt lat="45.09747" lon="3.99324">
        <ele>676.9</ele>
        <time>2019-12-07T12:55:47Z</time>
      </trkpt>
      <trkpt lat="45.09747" lon="3.99325">
        <ele>676.9</ele>
        <time>2019-12-07T12:55:48Z</time>
      </trkpt>
      <trkpt lat="45.09748" lon="3.99326">
        <ele>676.9</ele>
        <time>2019-12-07T12:55:49Z</time>
      </trkpt>
      <trkpt lat="45.09749" lon="3.99327">
        <ele>676.9</ele>
        <time>2019-12-07T12:55:50Z</time>
      </trkpt>
      <trkpt lat="45.0975" lon="3.99328">
        <ele>677.4</ele>
        <time>2019-12-07T12:55:51Z</time>
      </trkpt>
      <trkpt lat="45.09763" lon="3.99335">
        <ele>677.8</ele>
        <time>2019-12-07T12:56:05Z</time>
      </trkpt>
      <trkpt lat="45.09765" lon="3.99337">
        <ele>678.2</ele>
        <time>2019-12-07T12:56:07Z</time>
      </trkpt>
      <trkpt lat="45.09767" lon="3.9934">
        <ele>678</ele>
        <time>2019-12-07T12:56:09Z</time>
      </trkpt>
      <trkpt lat="45.09769" lon="3.99349">
        <ele>679.4</ele>
        <time>2019-12-07T12:56:16Z</time>
      </trkpt>
      <trkpt lat="45.09769" lon="3.99351">
        <ele>679.4</ele>
        <time>2019-12-07T12:56:17Z</time>
      </trkpt>
      <trkpt lat="45.09769" lon="3.99352">
        <ele>679.4</ele>
        <time>2019-12-07T12:56:18Z</time>
      </trkpt>
      <trkpt lat="45.09771" lon="3.99356">
        <ele>679.6</ele>
        <time>2019-12-07T12:56:21Z</time>
      </trkpt>
      <trkpt lat="45.09772" lon="3.9936">
        <ele>680</ele>
        <time>2019-12-07T12:56:24Z</time>
      </trkpt>
      <trkpt lat="45.09773" lon="3.99381">
        <ele>682</ele>
        <time>2019-12-07T12:56:38Z</time>
      </trkpt>
      <trkpt lat="45.09773" lon="3.9939">
        <ele>683</ele>
        <time>2019-12-07T12:56:45Z</time>
      </trkpt>
      <trkpt lat="45.09773" lon="3.99402">
        <ele>684.6</ele>
        <time>2019-12-07T12:56:55Z</time>
      </trkpt>
      <trkpt lat="45.09778" lon="3.99416">
        <ele>686.1</ele>
        <time>2019-12-07T12:57:06Z</time>
      </trkpt>
      <trkpt lat="45.0978" lon="3.99422">
        <ele>687.2</ele>
        <time>2019-12-07T12:57:11Z</time>
      </trkpt>
      <trkpt lat="45.09781" lon="3.99425">
        <ele>687.2</ele>
        <time>2019-12-07T12:57:13Z</time>
      </trkpt>
      <trkpt lat="45.09798" lon="3.99448">
        <ele>690.3</ele>
        <time>2019-12-07T12:57:35Z</time>
      </trkpt>
      <trkpt lat="45.098" lon="3.99451">
        <ele>690.3</ele>
        <time>2019-12-07T12:57:38Z</time>
      </trkpt>
      <trkpt lat="45.09801" lon="3.99453">
        <ele>690.9</ele>
        <time>2019-12-07T12:57:41Z</time>
      </trkpt>
      <trkpt lat="45.09802" lon="3.99453">
        <ele>690.9</ele>
        <time>2019-12-07T12:57:46Z</time>
      </trkpt>
      <trkpt lat="45.09861" lon="3.99525">
        <ele>705.9</ele>
        <time>2019-12-07T12:59:38Z</time>
      </trkpt>
      <trkpt lat="45.09861" lon="3.99526">
        <ele>706.2</ele>
        <time>2019-12-07T12:59:39Z</time>
      </trkpt>
      <trkpt lat="45.09862" lon="3.99527">
        <ele>706.2</ele>
        <time>2019-12-07T12:59:40Z</time>
      </trkpt>
      <trkpt lat="45.09864" lon="3.99532">
        <ele>706.9</ele>
        <time>2019-12-07T12:59:44Z</time>
      </trkpt>
      <trkpt lat="45.09872" lon="3.99545">
        <ele>709.3</ele>
        <time>2019-12-07T12:59:59Z</time>
      </trkpt>
      <trkpt lat="45.09872" lon="3.99546">
        <ele>709.3</ele>
        <time>2019-12-07T13:00:00Z</time>
      </trkpt>
      <trkpt lat="45.09873" lon="3.99548">
        <ele>710</ele>
        <time>2019-12-07T13:00:03Z</time>
      </trkpt>
      <trkpt lat="45.09874" lon="3.99549">
        <ele>710</ele>
        <time>2019-12-07T13:00:04Z</time>
      </trkpt>
      <trkpt lat="45.09874" lon="3.9955">
        <ele>710</ele>
        <time>2019-12-07T13:00:05Z</time>
      </trkpt>
      <trkpt lat="45.09875" lon="3.9955">
        <ele>710</ele>
        <time>2019-12-07T13:00:06Z</time>
      </trkpt>
      <trkpt lat="45.09876" lon="3.99553">
        <ele>710.6</ele>
        <time>2019-12-07T13:00:09Z</time>
      </trkpt>
      <trkpt lat="45.09877" lon="3.99555">
        <ele>711.3</ele>
        <time>2019-12-07T13:00:13Z</time>
      </trkpt>
      <trkpt lat="45.09877" lon="3.99556">
        <ele>711.3</ele>
        <time>2019-12-07T13:00:14Z</time>
      </trkpt>
      <trkpt lat="45.09877" lon="3.99557">
        <ele>711.3</ele>
        <time>2019-12-07T13:00:15Z</time>
      </trkpt>
      <trkpt lat="45.09912" lon="3.9958">
        <ele>717.4</ele>
        <time>2019-12-07T13:01:15Z</time>
      </trkpt>
      <trkpt lat="45.09913" lon="3.99581">
        <ele>718.2</ele>
        <time>2019-12-07T13:01:16Z</time>
      </trkpt>
      <trkpt lat="45.09913" lon="3.99581">
        <ele>718.2</ele>
        <time>2019-12-07T13:01:17Z</time>
      </trkpt>
      <trkpt lat="45.09916" lon="3.99582">
        <ele>718.4</ele>
        <time>2019-12-07T13:01:20Z</time>
      </trkpt>
      <trkpt lat="45.09918" lon="3.99583">
        <ele>718.4</ele>
        <time>2019-12-07T13:01:22Z</time>
      </trkpt>
      <trkpt lat="45.0992" lon="3.99583">
        <ele>718.6</ele>
        <time>2019-12-07T13:01:23Z</time>
      </trkpt>
      <trkpt lat="45.09922" lon="3.99583">
        <ele>718.9</ele>
        <time>2019-12-07T13:01:25Z</time>
      </trkpt>
      <trkpt lat="45.09927" lon="3.99583">
        <ele>719.1</ele>
        <time>2019-12-07T13:01:28Z</time>
      </trkpt>
      <trkpt lat="45.0993" lon="3.99584">
        <ele>719.3</ele>
        <time>2019-12-07T13:01:31Z</time>
      </trkpt>
      <trkpt lat="45.0993" lon="3.99585">
        <ele>719.3</ele>
        <time>2019-12-07T13:01:33Z</time>
      </trkpt>
      <trkpt lat="45.09931" lon="3.99586">
        <ele>720</ele>
        <time>2019-12-07T13:01:36Z</time>
      </trkpt>
      <trkpt lat="45.09932" lon="3.99587">
        <ele>720</ele>
        <time>2019-12-07T13:01:38Z</time>
      </trkpt>
      <trkpt lat="45.0995" lon="3.99593">
        <ele>721.8</ele>
        <time>2019-12-07T13:01:59Z</time>
      </trkpt>
      <trkpt lat="45.09951" lon="3.99594">
        <ele>722.3</ele>
        <time>2019-12-07T13:02:01Z</time>
      </trkpt>
      <trkpt lat="45.09951" lon="3.99594">
        <ele>722.3</ele>
        <time>2019-12-07T13:02:02Z</time>
      </trkpt>
      <trkpt lat="45.0996" lon="3.99595">
        <ele>723</ele>
        <time>2019-12-07T13:02:12Z</time>
      </trkpt>
      <trkpt lat="45.09963" lon="3.99594">
        <ele>723.2</ele>
        <time>2019-12-07T13:02:14Z</time>
      </trkpt>
      <trkpt lat="45.09967" lon="3.99592">
        <ele>723</ele>
        <time>2019-12-07T13:02:17Z</time>
      </trkpt>
      <trkpt lat="45.09975" lon="3.9959">
        <ele>723.8</ele>
        <time>2019-12-07T13:02:22Z</time>
      </trkpt>
      <trkpt lat="45.0998" lon="3.9959">
        <ele>724.2</ele>
        <time>2019-12-07T13:02:25Z</time>
      </trkpt>
      <trkpt lat="45.09996" lon="3.99595">
        <ele>725.4</ele>
        <time>2019-12-07T13:02:35Z</time>
      </trkpt>
      <trkpt lat="45.09997" lon="3.99596">
        <ele>725.5</ele>
        <time>2019-12-07T13:02:36Z</time>
      </trkpt>
      <trkpt lat="45.09998" lon="3.99598">
        <ele>725.9</ele>
        <time>2019-12-07T13:02:37Z</time>
      </trkpt>
      <trkpt lat="45.09999" lon="3.99599">
        <ele>725.9</ele>
        <time>2019-12-07T13:02:38Z</time>
      </trkpt>
      <trkpt lat="45.1" lon="3.99601">
        <ele>725.9</ele>
        <time>2019-12-07T13:02:39Z</time>
      </trkpt>
      <trkpt lat="45.10001" lon="3.99602">
        <ele>726</ele>
        <time>2019-12-07T13:02:40Z</time>
      </trkpt>
      <trkpt lat="45.10002" lon="3.99604">
        <ele>726.5</ele>
        <time>2019-12-07T13:02:41Z</time>
      </trkpt>
      <trkpt lat="45.10002" lon="3.99605">
        <ele>726.5</ele>
        <time>2019-12-07T13:02:42Z</time>
      </trkpt>
      <trkpt lat="45.10002" lon="3.99606">
        <ele>727.1</ele>
        <time>2019-12-07T13:02:43Z</time>
      </trkpt>
      <trkpt lat="45.10002" lon="3.99608">
        <ele>727.1</ele>
        <time>2019-12-07T13:02:44Z</time>
      </trkpt>
      <trkpt lat="45.10001" lon="3.9961">
        <ele>727.1</ele>
        <time>2019-12-07T13:02:45Z</time>
      </trkpt>
      <trkpt lat="45.10001" lon="3.99612">
        <ele>727.6</ele>
        <time>2019-12-07T13:02:46Z</time>
      </trkpt>
      <trkpt lat="45.10001" lon="3.99613">
        <ele>727.6</ele>
        <time>2019-12-07T13:02:47Z</time>
      </trkpt>
      <trkpt lat="45.10001" lon="3.99615">
        <ele>728.2</ele>
        <time>2019-12-07T13:02:48Z</time>
      </trkpt>
      <trkpt lat="45.1" lon="3.99617">
        <ele>728</ele>
        <time>2019-12-07T13:02:49Z</time>
      </trkpt>
      <trkpt lat="45.1" lon="3.99619">
        <ele>728</ele>
        <time>2019-12-07T13:02:50Z</time>
      </trkpt>
      <trkpt lat="45.09999" lon="3.9962">
        <ele>728.6</ele>
        <time>2019-12-07T13:02:51Z</time>
      </trkpt>
      <trkpt lat="45.09999" lon="3.99621">
        <ele>728.6</ele>
        <time>2019-12-07T13:02:52Z</time>
      </trkpt>
      <trkpt lat="45.09999" lon="3.99622">
        <ele>728.6</ele>
        <time>2019-12-07T13:02:53Z</time>
      </trkpt>
      <trkpt lat="45.09998" lon="3.99624">
        <ele>729</ele>
        <time>2019-12-07T13:02:54Z</time>
      </trkpt>
      <trkpt lat="45.09997" lon="3.99625">
        <ele>729</ele>
        <time>2019-12-07T13:02:55Z</time>
      </trkpt>
      <trkpt lat="45.09997" lon="3.99627">
        <ele>728.8</ele>
        <time>2019-12-07T13:02:56Z</time>
      </trkpt>
      <trkpt lat="45.09996" lon="3.99628">
        <ele>729.2</ele>
        <time>2019-12-07T13:02:57Z</time>
      </trkpt>
      <trkpt lat="45.09996" lon="3.9963">
        <ele>729.2</ele>
        <time>2019-12-07T13:02:58Z</time>
      </trkpt>
      <trkpt lat="45.09995" lon="3.99634">
        <ele>729.6</ele>
        <time>2019-12-07T13:03:01Z</time>
      </trkpt>
      <trkpt lat="45.09993" lon="3.99639">
        <ele>729.8</ele>
        <time>2019-12-07T13:03:05Z</time>
      </trkpt>
      <trkpt lat="45.09993" lon="3.99646">
        <ele>730.7</ele>
        <time>2019-12-07T13:03:09Z</time>
      </trkpt>
      <trkpt lat="45.09994" lon="3.9965">
        <ele>731.1</ele>
        <time>2019-12-07T13:03:13Z</time>
      </trkpt>
      <trkpt lat="45.09995" lon="3.99651">
        <ele>731.4</ele>
        <time>2019-12-07T13:03:14Z</time>
      </trkpt>
      <trkpt lat="45.09997" lon="3.99656">
        <ele>731.9</ele>
        <time>2019-12-07T13:03:17Z</time>
      </trkpt>
      <trkpt lat="45.09997" lon="3.99661">
        <ele>732.4</ele>
        <time>2019-12-07T13:03:20Z</time>
      </trkpt>
      <trkpt lat="45.09996" lon="3.99666">
        <ele>732.9</ele>
        <time>2019-12-07T13:03:23Z</time>
      </trkpt>
      <trkpt lat="45.09987" lon="3.99681">
        <ele>734.4</ele>
        <time>2019-12-07T13:03:35Z</time>
      </trkpt>
      <trkpt lat="45.09986" lon="3.99683">
        <ele>734.4</ele>
        <time>2019-12-07T13:03:37Z</time>
      </trkpt>
      <trkpt lat="45.09983" lon="3.99694">
        <ele>735.8</ele>
        <time>2019-12-07T13:03:45Z</time>
      </trkpt>
      <trkpt lat="45.09984" lon="3.99697">
        <ele>736.4</ele>
        <time>2019-12-07T13:03:48Z</time>
      </trkpt>
      <trkpt lat="45.09986" lon="3.99699">
        <ele>736.7</ele>
        <time>2019-12-07T13:03:50Z</time>
      </trkpt>
      <trkpt lat="45.09986" lon="3.997">
        <ele>736.7</ele>
        <time>2019-12-07T13:03:51Z</time>
      </trkpt>
      <trkpt lat="45.09987" lon="3.99701">
        <ele>737.3</ele>
        <time>2019-12-07T13:03:52Z</time>
      </trkpt>
      <trkpt lat="45.09988" lon="3.99702">
        <ele>737.5</ele>
        <time>2019-12-07T13:03:53Z</time>
      </trkpt>
      <trkpt lat="45.09989" lon="3.99703">
        <ele>737.5</ele>
        <time>2019-12-07T13:03:54Z</time>
      </trkpt>
      <trkpt lat="45.0999" lon="3.99703">
        <ele>737.5</ele>
        <time>2019-12-07T13:03:55Z</time>
      </trkpt>
      <trkpt lat="45.09993" lon="3.99706">
        <ele>738.4</ele>
        <time>2019-12-07T13:03:58Z</time>
      </trkpt>
      <trkpt lat="45.09994" lon="3.99707">
        <ele>738.4</ele>
        <time>2019-12-07T13:03:59Z</time>
      </trkpt>
      <trkpt lat="45.09996" lon="3.99707">
        <ele>738.7</ele>
        <time>2019-12-07T13:04:01Z</time>
      </trkpt>
      <trkpt lat="45.10002" lon="3.99709">
        <ele>739.7</ele>
        <time>2019-12-07T13:04:07Z</time>
      </trkpt>
      <trkpt lat="45.10004" lon="3.99711">
        <ele>739.9</ele>
        <time>2019-12-07T13:04:09Z</time>
      </trkpt>
      <trkpt lat="45.10011" lon="3.99711">
        <ele>740.3</ele>
        <time>2019-12-07T13:04:15Z</time>
      </trkpt>
      <trkpt lat="45.10019" lon="3.99714">
        <ele>740.7</ele>
        <time>2019-12-07T13:04:23Z</time>
      </trkpt>
      <trkpt lat="45.1002" lon="3.99713">
        <ele>740.7</ele>
        <time>2019-12-07T13:04:24Z</time>
      </trkpt>
      <trkpt lat="45.10027" lon="3.99718">
        <ele>741.5</ele>
        <time>2019-12-07T13:04:31Z</time>
      </trkpt>
      <trkpt lat="45.10036" lon="3.99722">
        <ele>742.9</ele>
        <time>2019-12-07T13:04:39Z</time>
      </trkpt>
      <trkpt lat="45.10043" lon="3.99727">
        <ele>743.9</ele>
        <time>2019-12-07T13:04:44Z</time>
      </trkpt>
      <trkpt lat="45.10045" lon="3.99728">
        <ele>743.9</ele>
        <time>2019-12-07T13:04:46Z</time>
      </trkpt>
      <trkpt lat="45.10065" lon="3.99743">
        <ele>746.5</ele>
        <time>2019-12-07T13:05:02Z</time>
      </trkpt>
      <trkpt lat="45.10069" lon="3.99743">
        <ele>746.5</ele>
        <time>2019-12-07T13:05:05Z</time>
      </trkpt>
      <trkpt lat="45.10073" lon="3.99743">
        <ele>746.4</ele>
        <time>2019-12-07T13:05:08Z</time>
      </trkpt>
      <trkpt lat="45.10074" lon="3.99743">
        <ele>746.4</ele>
        <time>2019-12-07T13:05:09Z</time>
      </trkpt>
      <trkpt lat="45.10076" lon="3.99743">
        <ele>746.4</ele>
        <time>2019-12-07T13:05:10Z</time>
      </trkpt>
      <trkpt lat="45.10077" lon="3.99744">
        <ele>746.3</ele>
        <time>2019-12-07T13:05:11Z</time>
      </trkpt>
      <trkpt lat="45.10092" lon="3.99742">
        <ele>745.6</ele>
        <time>2019-12-07T13:05:19Z</time>
      </trkpt>
      <trkpt lat="45.10096" lon="3.99743">
        <ele>745.5</ele>
        <time>2019-12-07T13:05:22Z</time>
      </trkpt>
      <trkpt lat="45.10105" lon="3.99746">
        <ele>746</ele>
        <time>2019-12-07T13:05:27Z</time>
      </trkpt>
      <trkpt lat="45.10106" lon="3.99748">
        <ele>746.7</ele>
        <time>2019-12-07T13:05:28Z</time>
      </trkpt>
      <trkpt lat="45.10107" lon="3.9975">
        <ele>746.7</ele>
        <time>2019-12-07T13:05:29Z</time>
      </trkpt>
      <trkpt lat="45.10108" lon="3.99752">
        <ele>746.7</ele>
        <time>2019-12-07T13:05:30Z</time>
      </trkpt>
      <trkpt lat="45.10109" lon="3.99754">
        <ele>747.4</ele>
        <time>2019-12-07T13:05:31Z</time>
      </trkpt>
      <trkpt lat="45.10111" lon="3.99756">
        <ele>747.4</ele>
        <time>2019-12-07T13:05:32Z</time>
      </trkpt>
      <trkpt lat="45.10113" lon="3.9976">
        <ele>748</ele>
        <time>2019-12-07T13:05:35Z</time>
      </trkpt>
      <trkpt lat="45.10115" lon="3.9976">
        <ele>748</ele>
        <time>2019-12-07T13:05:36Z</time>
      </trkpt>
      <trkpt lat="45.10117" lon="3.99761">
        <ele>748.5</ele>
        <time>2019-12-07T13:05:38Z</time>
      </trkpt>
      <trkpt lat="45.10119" lon="3.99761">
        <ele>748.5</ele>
        <time>2019-12-07T13:05:39Z</time>
      </trkpt>
      <trkpt lat="45.1012" lon="3.99762">
        <ele>748.5</ele>
        <time>2019-12-07T13:05:40Z</time>
      </trkpt>
      <trkpt lat="45.10121" lon="3.99763">
        <ele>748.5</ele>
        <time>2019-12-07T13:05:41Z</time>
      </trkpt>
      <trkpt lat="45.10122" lon="3.99764">
        <ele>748.5</ele>
        <time>2019-12-07T13:05:42Z</time>
      </trkpt>
      <trkpt lat="45.10124" lon="3.99765">
        <ele>748.5</ele>
        <time>2019-12-07T13:05:43Z</time>
      </trkpt>
      <trkpt lat="45.10125" lon="3.99765">
        <ele>748.9</ele>
        <time>2019-12-07T13:05:44Z</time>
      </trkpt>
      <trkpt lat="45.10127" lon="3.99766">
        <ele>748.9</ele>
        <time>2019-12-07T13:05:45Z</time>
      </trkpt>
      <trkpt lat="45.10128" lon="3.99767">
        <ele>748.8</ele>
        <time>2019-12-07T13:05:46Z</time>
      </trkpt>
      <trkpt lat="45.10129" lon="3.99768">
        <ele>748.8</ele>
        <time>2019-12-07T13:05:47Z</time>
      </trkpt>
      <trkpt lat="45.1013" lon="3.99768">
        <ele>748.8</ele>
        <time>2019-12-07T13:05:48Z</time>
      </trkpt>
      <trkpt lat="45.10132" lon="3.99769">
        <ele>748.7</ele>
        <time>2019-12-07T13:05:49Z</time>
      </trkpt>
      <trkpt lat="45.10133" lon="3.99771">
        <ele>749.1</ele>
        <time>2019-12-07T13:05:50Z</time>
      </trkpt>
      <trkpt lat="45.10135" lon="3.99772">
        <ele>749</ele>
        <time>2019-12-07T13:05:51Z</time>
      </trkpt>
      <trkpt lat="45.10136" lon="3.99773">
        <ele>749</ele>
        <time>2019-12-07T13:05:52Z</time>
      </trkpt>
      <trkpt lat="45.1014" lon="3.99776">
        <ele>748.9</ele>
        <time>2019-12-07T13:05:55Z</time>
      </trkpt>
      <trkpt lat="45.10156" lon="3.99809">
        <ele>751.3</ele>
        <time>2019-12-07T13:06:14Z</time>
      </trkpt>
      <trkpt lat="45.10162" lon="3.99819">
        <ele>751.7</ele>
        <time>2019-12-07T13:06:19Z</time>
      </trkpt>
      <trkpt lat="45.10164" lon="3.99822">
        <ele>751.9</ele>
        <time>2019-12-07T13:06:21Z</time>
      </trkpt>
      <trkpt lat="45.1017" lon="3.99831">
        <ele>752.5</ele>
        <time>2019-12-07T13:06:26Z</time>
      </trkpt>
      <trkpt lat="45.10172" lon="3.99835">
        <ele>752.6</ele>
        <time>2019-12-07T13:06:28Z</time>
      </trkpt>
      <trkpt lat="45.1018" lon="3.99847">
        <ele>752.8</ele>
        <time>2019-12-07T13:06:34Z</time>
      </trkpt>
      <trkpt lat="45.10181" lon="3.9985">
        <ele>752.8</ele>
        <time>2019-12-07T13:06:35Z</time>
      </trkpt>
      <trkpt lat="45.10183" lon="3.99852">
        <ele>752.8</ele>
        <time>2019-12-07T13:06:36Z</time>
      </trkpt>
      <trkpt lat="45.10183" lon="3.99854">
        <ele>752.8</ele>
        <time>2019-12-07T13:06:37Z</time>
      </trkpt>
      <trkpt lat="45.10184" lon="3.99856">
        <ele>753</ele>
        <time>2019-12-07T13:06:38Z</time>
      </trkpt>
      <trkpt lat="45.10186" lon="3.99861">
        <ele>752.9</ele>
        <time>2019-12-07T13:06:40Z</time>
      </trkpt>
      <trkpt lat="45.10189" lon="3.99869">
        <ele>753.1</ele>
        <time>2019-12-07T13:06:44Z</time>
      </trkpt>
      <trkpt lat="45.1019" lon="3.99874">
        <ele>753.4</ele>
        <time>2019-12-07T13:06:47Z</time>
      </trkpt>
      <trkpt lat="45.1019" lon="3.99876">
        <ele>753.4</ele>
        <time>2019-12-07T13:06:48Z</time>
      </trkpt>
      <trkpt lat="45.10191" lon="3.99878">
        <ele>753.7</ele>
        <time>2019-12-07T13:06:49Z</time>
      </trkpt>
      <trkpt lat="45.10192" lon="3.9988">
        <ele>753.4</ele>
        <time>2019-12-07T13:06:50Z</time>
      </trkpt>
      <trkpt lat="45.10193" lon="3.99882">
        <ele>753.7</ele>
        <time>2019-12-07T13:06:51Z</time>
      </trkpt>
      <trkpt lat="45.10194" lon="3.99885">
        <ele>753.9</ele>
        <time>2019-12-07T13:06:52Z</time>
      </trkpt>
      <trkpt lat="45.10195" lon="3.99888">
        <ele>753.6</ele>
        <time>2019-12-07T13:06:53Z</time>
      </trkpt>
      <trkpt lat="45.10196" lon="3.99891">
        <ele>753.9</ele>
        <time>2019-12-07T13:06:54Z</time>
      </trkpt>
      <trkpt lat="45.10196" lon="3.99894">
        <ele>754.2</ele>
        <time>2019-12-07T13:06:55Z</time>
      </trkpt>
      <trkpt lat="45.102" lon="3.99907">
        <ele>754.5</ele>
        <time>2019-12-07T13:06:59Z</time>
      </trkpt>
      <trkpt lat="45.10204" lon="3.99916">
        <ele>754.8</ele>
        <time>2019-12-07T13:07:02Z</time>
      </trkpt>
      <trkpt lat="45.10221" lon="3.99943">
        <ele>755</ele>
        <time>2019-12-07T13:07:14Z</time>
      </trkpt>
      <trkpt lat="45.10223" lon="3.99948">
        <ele>754.9</ele>
        <time>2019-12-07T13:07:17Z</time>
      </trkpt>
      <trkpt lat="45.10227" lon="3.99952">
        <ele>754.8</ele>
        <time>2019-12-07T13:07:20Z</time>
      </trkpt>
      <trkpt lat="45.10228" lon="3.99954">
        <ele>754.7</ele>
        <time>2019-12-07T13:07:21Z</time>
      </trkpt>
      <trkpt lat="45.10229" lon="3.99957">
        <ele>754.7</ele>
        <time>2019-12-07T13:07:22Z</time>
      </trkpt>
      <trkpt lat="45.10231" lon="3.99964">
        <ele>755</ele>
        <time>2019-12-07T13:07:25Z</time>
      </trkpt>
      <trkpt lat="45.10232" lon="3.99966">
        <ele>755</ele>
        <time>2019-12-07T13:07:26Z</time>
      </trkpt>
      <trkpt lat="45.10234" lon="3.99969">
        <ele>755.1</ele>
        <time>2019-12-07T13:07:27Z</time>
      </trkpt>
      <trkpt lat="45.10235" lon="3.99971">
        <ele>755.1</ele>
        <time>2019-12-07T13:07:28Z</time>
      </trkpt>
      <trkpt lat="45.10237" lon="3.99972">
        <ele>755.4</ele>
        <time>2019-12-07T13:07:29Z</time>
      </trkpt>
      <trkpt lat="45.10238" lon="3.99974">
        <ele>755.1</ele>
        <time>2019-12-07T13:07:30Z</time>
      </trkpt>
      <trkpt lat="45.1024" lon="3.99976">
        <ele>755.2</ele>
        <time>2019-12-07T13:07:31Z</time>
      </trkpt>
      <trkpt lat="45.10241" lon="3.99978">
        <ele>755.2</ele>
        <time>2019-12-07T13:07:32Z</time>
      </trkpt>
      <trkpt lat="45.10249" lon="4.00024">
        <ele>756.9</ele>
        <time>2019-12-07T13:07:52Z</time>
      </trkpt>
      <trkpt lat="45.10249" lon="4.00026">
        <ele>756.9</ele>
        <time>2019-12-07T13:07:53Z</time>
      </trkpt>
      <trkpt lat="45.10248" lon="4.00028">
        <ele>757.6</ele>
        <time>2019-12-07T13:07:54Z</time>
      </trkpt>
      <trkpt lat="45.10248" lon="4.00029">
        <ele>757.6</ele>
        <time>2019-12-07T13:07:55Z</time>
      </trkpt>
      <trkpt lat="45.10247" lon="4.00031">
        <ele>757.6</ele>
        <time>2019-12-07T13:07:56Z</time>
      </trkpt>
      <trkpt lat="45.10247" lon="4.00032">
        <ele>757.9</ele>
        <time>2019-12-07T13:07:57Z</time>
      </trkpt>
      <trkpt lat="45.10246" lon="4.00033">
        <ele>757.9</ele>
        <time>2019-12-07T13:07:58Z</time>
      </trkpt>
      <trkpt lat="45.10246" lon="4.00035">
        <ele>757.9</ele>
        <time>2019-12-07T13:07:59Z</time>
      </trkpt>
      <trkpt lat="45.10246" lon="4.00037">
        <ele>758.7</ele>
        <time>2019-12-07T13:08:00Z</time>
      </trkpt>
      <trkpt lat="45.10245" lon="4.00038">
        <ele>758.7</ele>
        <time>2019-12-07T13:08:01Z</time>
      </trkpt>
      <trkpt lat="45.10245" lon="4.00039">
        <ele>758.7</ele>
        <time>2019-12-07T13:08:02Z</time>
      </trkpt>
      <trkpt lat="45.10244" lon="4.00041">
        <ele>758.9</ele>
        <time>2019-12-07T13:08:03Z</time>
      </trkpt>
      <trkpt lat="45.10244" lon="4.00042">
        <ele>758.9</ele>
        <time>2019-12-07T13:08:04Z</time>
      </trkpt>
      <trkpt lat="45.10244" lon="4.00044">
        <ele>758.9</ele>
        <time>2019-12-07T13:08:05Z</time>
      </trkpt>
      <trkpt lat="45.10243" lon="4.00045">
        <ele>759.2</ele>
        <time>2019-12-07T13:08:06Z</time>
      </trkpt>
      <trkpt lat="45.10243" lon="4.00047">
        <ele>759.2</ele>
        <time>2019-12-07T13:08:07Z</time>
      </trkpt>
      <trkpt lat="45.10243" lon="4.00049">
        <ele>760</ele>
        <time>2019-12-07T13:08:08Z</time>
      </trkpt>
      <trkpt lat="45.10242" lon="4.0005">
        <ele>760</ele>
        <time>2019-12-07T13:08:09Z</time>
      </trkpt>
      <trkpt lat="45.10241" lon="4.00052">
        <ele>760</ele>
        <time>2019-12-07T13:08:10Z</time>
      </trkpt>
      <trkpt lat="45.10241" lon="4.00054">
        <ele>760.3</ele>
        <time>2019-12-07T13:08:11Z</time>
      </trkpt>
      <trkpt lat="45.10241" lon="4.00055">
        <ele>760.3</ele>
        <time>2019-12-07T13:08:12Z</time>
      </trkpt>
      <trkpt lat="45.10241" lon="4.00057">
        <ele>760.3</ele>
        <time>2019-12-07T13:08:13Z</time>
      </trkpt>
      <trkpt lat="45.1024" lon="4.00058">
        <ele>760.6</ele>
        <time>2019-12-07T13:08:14Z</time>
      </trkpt>
      <trkpt lat="45.1024" lon="4.00059">
        <ele>761</ele>
        <time>2019-12-07T13:08:15Z</time>
      </trkpt>
      <trkpt lat="45.10238" lon="4.00061">
        <ele>761</ele>
        <time>2019-12-07T13:08:16Z</time>
      </trkpt>
      <trkpt lat="45.10239" lon="4.00064">
        <ele>761.3</ele>
        <time>2019-12-07T13:08:18Z</time>
      </trkpt>
      <trkpt lat="45.10239" lon="4.00066">
        <ele>761.6</ele>
        <time>2019-12-07T13:08:19Z</time>
      </trkpt>
      <trkpt lat="45.10239" lon="4.00068">
        <ele>761.6</ele>
        <time>2019-12-07T13:08:20Z</time>
      </trkpt>
      <trkpt lat="45.10239" lon="4.00069">
        <ele>761.6</ele>
        <time>2019-12-07T13:08:21Z</time>
      </trkpt>
      <trkpt lat="45.10239" lon="4.00071">
        <ele>761.9</ele>
        <time>2019-12-07T13:08:22Z</time>
      </trkpt>
      <trkpt lat="45.10238" lon="4.00073">
        <ele>761.9</ele>
        <time>2019-12-07T13:08:23Z</time>
      </trkpt>
      <trkpt lat="45.10237" lon="4.00074">
        <ele>762.2</ele>
        <time>2019-12-07T13:08:24Z</time>
      </trkpt>
      <trkpt lat="45.10236" lon="4.00076">
        <ele>762.7</ele>
        <time>2019-12-07T13:08:25Z</time>
      </trkpt>
      <trkpt lat="45.10236" lon="4.00079">
        <ele>762.9</ele>
        <time>2019-12-07T13:08:27Z</time>
      </trkpt>
      <trkpt lat="45.10234" lon="4.00084">
        <ele>763.2</ele>
        <time>2019-12-07T13:08:31Z</time>
      </trkpt>
      <trkpt lat="45.10232" lon="4.00087">
        <ele>764.1</ele>
        <time>2019-12-07T13:08:34Z</time>
      </trkpt>
      <trkpt lat="45.10228" lon="4.00093">
        <ele>765</ele>
        <time>2019-12-07T13:08:39Z</time>
      </trkpt>
      <trkpt lat="45.10226" lon="4.00094">
        <ele>765.6</ele>
        <time>2019-12-07T13:08:41Z</time>
      </trkpt>
      <trkpt lat="45.10221" lon="4.001">
        <ele>767.4</ele>
        <time>2019-12-07T13:08:46Z</time>
      </trkpt>
      <trkpt lat="45.10219" lon="4.00104">
        <ele>767.7</ele>
        <time>2019-12-07T13:08:50Z</time>
      </trkpt>
      <trkpt lat="45.10217" lon="4.0011">
        <ele>769</ele>
        <time>2019-12-07T13:08:55Z</time>
      </trkpt>
      <trkpt lat="45.10216" lon="4.00113">
        <ele>769.3</ele>
        <time>2019-12-07T13:08:58Z</time>
      </trkpt>
      <trkpt lat="45.10214" lon="4.00115">
        <ele>770</ele>
        <time>2019-12-07T13:09:00Z</time>
      </trkpt>
      <trkpt lat="45.10211" lon="4.00119">
        <ele>770.9</ele>
        <time>2019-12-07T13:09:04Z</time>
      </trkpt>
      <trkpt lat="45.10208" lon="4.00126">
        <ele>772.1</ele>
        <time>2019-12-07T13:09:09Z</time>
      </trkpt>
      <trkpt lat="45.10207" lon="4.0013">
        <ele>772.4</ele>
        <time>2019-12-07T13:09:12Z</time>
      </trkpt>
      <trkpt lat="45.10202" lon="4.00145">
        <ele>775</ele>
        <time>2019-12-07T13:09:23Z</time>
      </trkpt>
      <trkpt lat="45.10202" lon="4.00147">
        <ele>775.4</ele>
        <time>2019-12-07T13:09:25Z</time>
      </trkpt>
      <trkpt lat="45.10189" lon="4.00168">
        <ele>780.5</ele>
        <time>2019-12-07T13:09:45Z</time>
      </trkpt>
      <trkpt lat="45.10188" lon="4.00171">
        <ele>781.8</ele>
        <time>2019-12-07T13:09:47Z</time>
      </trkpt>
      <trkpt lat="45.10186" lon="4.00178">
        <ele>782.2</ele>
        <time>2019-12-07T13:09:51Z</time>
      </trkpt>
      <trkpt lat="45.10182" lon="4.00207">
        <ele>785.1</ele>
        <time>2019-12-07T13:10:12Z</time>
      </trkpt>
      <trkpt lat="45.1018" lon="4.0021">
        <ele>786</ele>
        <time>2019-12-07T13:10:15Z</time>
      </trkpt>
      <trkpt lat="45.10176" lon="4.00215">
        <ele>787</ele>
        <time>2019-12-07T13:10:20Z</time>
      </trkpt>
      <trkpt lat="45.10175" lon="4.00217">
        <ele>788.1</ele>
        <time>2019-12-07T13:10:22Z</time>
      </trkpt>
      <trkpt lat="45.10172" lon="4.00224">
        <ele>789.1</ele>
        <time>2019-12-07T13:10:27Z</time>
      </trkpt>
      <trkpt lat="45.1017" lon="4.00229">
        <ele>789.5</ele>
        <time>2019-12-07T13:10:31Z</time>
      </trkpt>
      <trkpt lat="45.10166" lon="4.00237">
        <ele>791.5</ele>
        <time>2019-12-07T13:10:36Z</time>
      </trkpt>
      <trkpt lat="45.10164" lon="4.00242">
        <ele>792.7</ele>
        <time>2019-12-07T13:10:39Z</time>
      </trkpt>
      <trkpt lat="45.10158" lon="4.00262">
        <ele>793.9</ele>
        <time>2019-12-07T13:10:53Z</time>
      </trkpt>
      <trkpt lat="45.10157" lon="4.00268">
        <ele>794.2</ele>
        <time>2019-12-07T13:10:57Z</time>
      </trkpt>
      <trkpt lat="45.10155" lon="4.00275">
        <ele>794.6</ele>
        <time>2019-12-07T13:11:02Z</time>
      </trkpt>
      <trkpt lat="45.1015" lon="4.00304">
        <ele>796.5</ele>
        <time>2019-12-07T13:11:18Z</time>
      </trkpt>
      <trkpt lat="45.10149" lon="4.00311">
        <ele>797</ele>
        <time>2019-12-07T13:11:22Z</time>
      </trkpt>
      <trkpt lat="45.10143" lon="4.00341">
        <ele>798.8</ele>
        <time>2019-12-07T13:11:37Z</time>
      </trkpt>
      <trkpt lat="45.10141" lon="4.00347">
        <ele>799.1</ele>
        <time>2019-12-07T13:11:40Z</time>
      </trkpt>
      <trkpt lat="45.10141" lon="4.00358">
        <ele>799.4</ele>
        <time>2019-12-07T13:11:46Z</time>
      </trkpt>
      <trkpt lat="45.10141" lon="4.00365">
        <ele>799.5</ele>
        <time>2019-12-07T13:11:49Z</time>
      </trkpt>
      <trkpt lat="45.10142" lon="4.00367">
        <ele>799.6</ele>
        <time>2019-12-07T13:11:50Z</time>
      </trkpt>
      <trkpt lat="45.10142" lon="4.0037">
        <ele>799.6</ele>
        <time>2019-12-07T13:11:51Z</time>
      </trkpt>
      <trkpt lat="45.10144" lon="4.00379">
        <ele>799.6</ele>
        <time>2019-12-07T13:11:54Z</time>
      </trkpt>
      <trkpt lat="45.10149" lon="4.00394">
        <ele>799.4</ele>
        <time>2019-12-07T13:11:58Z</time>
      </trkpt>
      <trkpt lat="45.10152" lon="4.00412">
        <ele>799</ele>
        <time>2019-12-07T13:12:02Z</time>
      </trkpt>
      <trkpt lat="45.10154" lon="4.00429">
        <ele>798.4</ele>
        <time>2019-12-07T13:12:05Z</time>
      </trkpt>
      <trkpt lat="45.10153" lon="4.00435">
        <ele>798.2</ele>
        <time>2019-12-07T13:12:06Z</time>
      </trkpt>
      <trkpt lat="45.10153" lon="4.00452">
        <ele>797.8</ele>
        <time>2019-12-07T13:12:09Z</time>
      </trkpt>
      <trkpt lat="45.10152" lon="4.00467">
        <ele>797.5</ele>
        <time>2019-12-07T13:12:12Z</time>
      </trkpt>
      <trkpt lat="45.10152" lon="4.00481">
        <ele>797.4</ele>
        <time>2019-12-07T13:12:15Z</time>
      </trkpt>
      <trkpt lat="45.1015" lon="4.00491">
        <ele>797.4</ele>
        <time>2019-12-07T13:12:17Z</time>
      </trkpt>
      <trkpt lat="45.10149" lon="4.005">
        <ele>797.4</ele>
        <time>2019-12-07T13:12:19Z</time>
      </trkpt>
      <trkpt lat="45.10143" lon="4.0052">
        <ele>797.6</ele>
        <time>2019-12-07T13:12:24Z</time>
      </trkpt>
      <trkpt lat="45.10139" lon="4.00538">
        <ele>797.9</ele>
        <time>2019-12-07T13:12:29Z</time>
      </trkpt>
      <trkpt lat="45.10138" lon="4.00545">
        <ele>798.1</ele>
        <time>2019-12-07T13:12:31Z</time>
      </trkpt>
      <trkpt lat="45.10123" lon="4.00581">
        <ele>799.7</ele>
        <time>2019-12-07T13:12:43Z</time>
      </trkpt>
      <trkpt lat="45.10118" lon="4.0059">
        <ele>800.3</ele>
        <time>2019-12-07T13:12:48Z</time>
      </trkpt>
      <trkpt lat="45.10116" lon="4.00591">
        <ele>800.4</ele>
        <time>2019-12-07T13:12:49Z</time>
      </trkpt>
      <trkpt lat="45.10111" lon="4.00599">
        <ele>801</ele>
        <time>2019-12-07T13:12:53Z</time>
      </trkpt>
      <trkpt lat="45.10104" lon="4.00609">
        <ele>801.7</ele>
        <time>2019-12-07T13:12:58Z</time>
      </trkpt>
      <trkpt lat="45.10102" lon="4.00613">
        <ele>801.9</ele>
        <time>2019-12-07T13:13:00Z</time>
      </trkpt>
      <trkpt lat="45.101" lon="4.00617">
        <ele>802.1</ele>
        <time>2019-12-07T13:13:02Z</time>
      </trkpt>
      <trkpt lat="45.10098" lon="4.00622">
        <ele>802.4</ele>
        <time>2019-12-07T13:13:05Z</time>
      </trkpt>
      <trkpt lat="45.10096" lon="4.00628">
        <ele>802.6</ele>
        <time>2019-12-07T13:13:08Z</time>
      </trkpt>
      <trkpt lat="45.10091" lon="4.00641">
        <ele>803</ele>
        <time>2019-12-07T13:13:14Z</time>
      </trkpt>
      <trkpt lat="45.10087" lon="4.00652">
        <ele>803.5</ele>
        <time>2019-12-07T13:13:19Z</time>
      </trkpt>
      <trkpt lat="45.10085" lon="4.00662">
        <ele>804</ele>
        <time>2019-12-07T13:13:23Z</time>
      </trkpt>
      <trkpt lat="45.10084" lon="4.00676">
        <ele>804.6</ele>
        <time>2019-12-07T13:13:28Z</time>
      </trkpt>
      <trkpt lat="45.10079" lon="4.00695">
        <ele>805.7</ele>
        <time>2019-12-07T13:13:35Z</time>
      </trkpt>
      <trkpt lat="45.10078" lon="4.00697">
        <ele>805.9</ele>
        <time>2019-12-07T13:13:36Z</time>
      </trkpt>
      <trkpt lat="45.10076" lon="4.007">
        <ele>806.2</ele>
        <time>2019-12-07T13:13:38Z</time>
      </trkpt>
      <trkpt lat="45.10074" lon="4.00701">
        <ele>806.4</ele>
        <time>2019-12-07T13:13:39Z</time>
      </trkpt>
      <trkpt lat="45.10072" lon="4.00702">
        <ele>806.6</ele>
        <time>2019-12-07T13:13:40Z</time>
      </trkpt>
      <trkpt lat="45.10071" lon="4.00702">
        <ele>806.7</ele>
        <time>2019-12-07T13:13:41Z</time>
      </trkpt>
      <trkpt lat="45.1006" lon="4.0071">
        <ele>808.1</ele>
        <time>2019-12-07T13:13:50Z</time>
      </trkpt>
      <trkpt lat="45.10057" lon="4.00716">
        <ele>808.7</ele>
        <time>2019-12-07T13:13:54Z</time>
      </trkpt>
      <trkpt lat="45.10055" lon="4.0072">
        <ele>809.1</ele>
        <time>2019-12-07T13:13:57Z</time>
      </trkpt>
      <trkpt lat="45.10053" lon="4.00726">
        <ele>809.4</ele>
        <time>2019-12-07T13:14:01Z</time>
      </trkpt>
      <trkpt lat="45.10051" lon="4.00732">
        <ele>809.8</ele>
        <time>2019-12-07T13:14:04Z</time>
      </trkpt>
      <trkpt lat="45.1005" lon="4.00733">
        <ele>809.9</ele>
        <time>2019-12-07T13:14:05Z</time>
      </trkpt>
      <trkpt lat="45.1005" lon="4.00735">
        <ele>810</ele>
        <time>2019-12-07T13:14:06Z</time>
      </trkpt>
      <trkpt lat="45.1005" lon="4.0074">
        <ele>810.2</ele>
        <time>2019-12-07T13:14:08Z</time>
      </trkpt>
      <trkpt lat="45.1004" lon="4.00781">
        <ele>811.1</ele>
        <time>2019-12-07T13:14:24Z</time>
      </trkpt>
      <trkpt lat="45.10038" lon="4.0079">
        <ele>811.2</ele>
        <time>2019-12-07T13:14:27Z</time>
      </trkpt>
      <trkpt lat="45.10046" lon="4.00833">
        <ele>811.5</ele>
        <time>2019-12-07T13:14:39Z</time>
      </trkpt>
      <trkpt lat="45.10047" lon="4.0084">
        <ele>811.6</ele>
        <time>2019-12-07T13:14:41Z</time>
      </trkpt>
      <trkpt lat="45.10048" lon="4.00847">
        <ele>811.7</ele>
        <time>2019-12-07T13:14:43Z</time>
      </trkpt>
      <trkpt lat="45.10058" lon="4.0089">
        <ele>812.5</ele>
        <time>2019-12-07T13:14:57Z</time>
      </trkpt>
      <trkpt lat="45.10059" lon="4.00896">
        <ele>812.7</ele>
        <time>2019-12-07T13:14:59Z</time>
      </trkpt>
      <trkpt lat="45.10062" lon="4.00914">
        <ele>813.3</ele>
        <time>2019-12-07T13:15:05Z</time>
      </trkpt>
      <trkpt lat="45.10061" lon="4.00927">
        <ele>813.7</ele>
        <time>2019-12-07T13:15:09Z</time>
      </trkpt>
      <trkpt lat="45.1006" lon="4.00941">
        <ele>814.1</ele>
        <time>2019-12-07T13:15:14Z</time>
      </trkpt>
      <trkpt lat="45.1006" lon="4.00946">
        <ele>814.1</ele>
        <time>2019-12-07T13:15:16Z</time>
      </trkpt>
      <trkpt lat="45.10061" lon="4.00947">
        <ele>814</ele>
        <time>2019-12-07T13:15:17Z</time>
      </trkpt>
      <trkpt lat="45.10062" lon="4.00949">
        <ele>813.9</ele>
        <time>2019-12-07T13:15:18Z</time>
      </trkpt>
      <trkpt lat="45.10063" lon="4.00949">
        <ele>813.9</ele>
        <time>2019-12-07T13:15:19Z</time>
      </trkpt>
      <trkpt lat="45.10064" lon="4.0095">
        <ele>813.8</ele>
        <time>2019-12-07T13:15:20Z</time>
      </trkpt>
      <trkpt lat="45.10065" lon="4.0095">
        <ele>813.8</ele>
        <time>2019-12-07T13:15:21Z</time>
      </trkpt>
      <trkpt lat="45.10066" lon="4.0095">
        <ele>813.7</ele>
        <time>2019-12-07T13:15:22Z</time>
      </trkpt>
      <trkpt lat="45.10067" lon="4.0095">
        <ele>813.7</ele>
        <time>2019-12-07T13:15:23Z</time>
      </trkpt>
      <trkpt lat="45.10068" lon="4.00949">
        <ele>813.6</ele>
        <time>2019-12-07T13:15:24Z</time>
      </trkpt>
      <trkpt lat="45.1007" lon="4.00948">
        <ele>813.5</ele>
        <time>2019-12-07T13:15:28Z</time>
      </trkpt>
      <trkpt lat="45.1007" lon="4.00948">
        <ele>813.5</ele>
        <time>2019-12-07T13:15:30Z</time>
      </trkpt>
      <trkpt lat="45.10069" lon="4.00948">
        <ele>813.5</ele>
        <time>2019-12-07T13:15:31Z</time>
      </trkpt>
      <trkpt lat="45.10074" lon="4.00942">
        <ele>813.2</ele>
        <time>2019-12-07T13:19:36Z</time>
      </trkpt>
      <trkpt lat="45.10077" lon="4.00942">
        <ele>813</ele>
        <time>2019-12-07T13:19:37Z</time>
      </trkpt>
      <trkpt lat="45.1008" lon="4.00941">
        <ele>812.9</ele>
        <time>2019-12-07T13:19:38Z</time>
      </trkpt>
      <trkpt lat="45.10089" lon="4.00941">
        <ele>812.3</ele>
        <time>2019-12-07T13:19:41Z</time>
      </trkpt>
      <trkpt lat="45.10109" lon="4.00939">
        <ele>810.5</ele>
        <time>2019-12-07T13:19:48Z</time>
      </trkpt>
      <trkpt lat="45.10136" lon="4.00925">
        <ele>807.8</ele>
        <time>2019-12-07T13:19:56Z</time>
      </trkpt>
      <trkpt lat="45.10148" lon="4.00913">
        <ele>806.4</ele>
        <time>2019-12-07T13:19:59Z</time>
      </trkpt>
      <trkpt lat="45.10156" lon="4.00905">
        <ele>805.4</ele>
        <time>2019-12-07T13:20:01Z</time>
      </trkpt>
      <trkpt lat="45.10175" lon="4.00892">
        <ele>803.6</ele>
        <time>2019-12-07T13:20:05Z</time>
      </trkpt>
      <trkpt lat="45.10181" lon="4.00891">
        <ele>803.3</ele>
        <time>2019-12-07T13:20:06Z</time>
      </trkpt>
      <trkpt lat="45.10193" lon="4.00888">
        <ele>802.8</ele>
        <time>2019-12-07T13:20:08Z</time>
      </trkpt>
      <trkpt lat="45.10198" lon="4.00887">
        <ele>802.5</ele>
        <time>2019-12-07T13:20:09Z</time>
      </trkpt>
      <trkpt lat="45.10204" lon="4.00887">
        <ele>802.2</ele>
        <time>2019-12-07T13:20:10Z</time>
      </trkpt>
      <trkpt lat="45.10217" lon="4.00888">
        <ele>801.8</ele>
        <time>2019-12-07T13:20:13Z</time>
      </trkpt>
      <trkpt lat="45.10248" lon="4.00893">
        <ele>801.4</ele>
        <time>2019-12-07T13:20:22Z</time>
      </trkpt>
      <trkpt lat="45.10257" lon="4.00894">
        <ele>801.1</ele>
        <time>2019-12-07T13:20:26Z</time>
      </trkpt>
      <trkpt lat="45.10259" lon="4.00894">
        <ele>801.1</ele>
        <time>2019-12-07T13:20:27Z</time>
      </trkpt>
      <trkpt lat="45.1026" lon="4.00895">
        <ele>801</ele>
        <time>2019-12-07T13:20:28Z</time>
      </trkpt>
      <trkpt lat="45.10262" lon="4.00896">
        <ele>801</ele>
        <time>2019-12-07T13:20:29Z</time>
      </trkpt>
      <trkpt lat="45.10264" lon="4.00896">
        <ele>800.9</ele>
        <time>2019-12-07T13:20:30Z</time>
      </trkpt>
      <trkpt lat="45.10266" lon="4.00897">
        <ele>800.8</ele>
        <time>2019-12-07T13:20:31Z</time>
      </trkpt>
      <trkpt lat="45.10268" lon="4.00897">
        <ele>800.7</ele>
        <time>2019-12-07T13:20:32Z</time>
      </trkpt>
      <trkpt lat="45.1027" lon="4.00897">
        <ele>800.6</ele>
        <time>2019-12-07T13:20:33Z</time>
      </trkpt>
      <trkpt lat="45.10272" lon="4.00898">
        <ele>800.4</ele>
        <time>2019-12-07T13:20:34Z</time>
      </trkpt>
      <trkpt lat="45.10276" lon="4.00899">
        <ele>800.2</ele>
        <time>2019-12-07T13:20:35Z</time>
      </trkpt>
      <trkpt lat="45.10279" lon="4.009">
        <ele>800</ele>
        <time>2019-12-07T13:20:36Z</time>
      </trkpt>
      <trkpt lat="45.10323" lon="4.009">
        <ele>798.7</ele>
        <time>2019-12-07T13:20:47Z</time>
      </trkpt>
      <trkpt lat="45.10381" lon="4.00909">
        <ele>799.4</ele>
        <time>2019-12-07T13:21:07Z</time>
      </trkpt>
      <trkpt lat="45.10407" lon="4.00931">
        <ele>800.8</ele>
        <time>2019-12-07T13:21:19Z</time>
      </trkpt>
      <trkpt lat="45.10438" lon="4.00966">
        <ele>802.1</ele>
        <time>2019-12-07T13:21:36Z</time>
      </trkpt>
      <trkpt lat="45.10447" lon="4.00979">
        <ele>802.9</ele>
        <time>2019-12-07T13:21:41Z</time>
      </trkpt>
      <trkpt lat="45.10456" lon="4.00992">
        <ele>803.9</ele>
        <time>2019-12-07T13:21:47Z</time>
      </trkpt>
      <trkpt lat="45.10469" lon="4.01008">
        <ele>805.8</ele>
        <time>2019-12-07T13:21:56Z</time>
      </trkpt>
      <trkpt lat="45.10469" lon="4.0101">
        <ele>806</ele>
        <time>2019-12-07T13:21:57Z</time>
      </trkpt>
      <trkpt lat="45.10469" lon="4.01012">
        <ele>806.2</ele>
        <time>2019-12-07T13:21:58Z</time>
      </trkpt>
      <trkpt lat="45.10472" lon="4.01031">
        <ele>808.1</ele>
        <time>2019-12-07T13:22:07Z</time>
      </trkpt>
      <trkpt lat="45.10472" lon="4.01034">
        <ele>808.3</ele>
        <time>2019-12-07T13:22:08Z</time>
      </trkpt>
      <trkpt lat="45.10473" lon="4.01035">
        <ele>808.5</ele>
        <time>2019-12-07T13:22:09Z</time>
      </trkpt>
      <trkpt lat="45.10473" lon="4.01037">
        <ele>808.6</ele>
        <time>2019-12-07T13:22:10Z</time>
      </trkpt>
      <trkpt lat="45.10473" lon="4.01039">
        <ele>808.8</ele>
        <time>2019-12-07T13:22:11Z</time>
      </trkpt>
      <trkpt lat="45.10474" lon="4.0104">
        <ele>808.9</ele>
        <time>2019-12-07T13:22:12Z</time>
      </trkpt>
      <trkpt lat="45.10475" lon="4.01045">
        <ele>809.4</ele>
        <time>2019-12-07T13:22:15Z</time>
      </trkpt>
      <trkpt lat="45.10474" lon="4.01051">
        <ele>809.9</ele>
        <time>2019-12-07T13:22:19Z</time>
      </trkpt>
      <trkpt lat="45.10475" lon="4.01053">
        <ele>810</ele>
        <time>2019-12-07T13:22:20Z</time>
      </trkpt>
      <trkpt lat="45.10475" lon="4.01054">
        <ele>810.1</ele>
        <time>2019-12-07T13:22:21Z</time>
      </trkpt>
      <trkpt lat="45.10475" lon="4.01056">
        <ele>810.2</ele>
        <time>2019-12-07T13:22:22Z</time>
      </trkpt>
      <trkpt lat="45.10475" lon="4.01057">
        <ele>810.3</ele>
        <time>2019-12-07T13:22:23Z</time>
      </trkpt>
      <trkpt lat="45.10475" lon="4.01058">
        <ele>810.4</ele>
        <time>2019-12-07T13:22:24Z</time>
      </trkpt>
      <trkpt lat="45.10475" lon="4.0106">
        <ele>810.5</ele>
        <time>2019-12-07T13:22:25Z</time>
      </trkpt>
      <trkpt lat="45.10476" lon="4.01061">
        <ele>810.6</ele>
        <time>2019-12-07T13:22:26Z</time>
      </trkpt>
      <trkpt lat="45.10477" lon="4.01071">
        <ele>811.5</ele>
        <time>2019-12-07T13:22:34Z</time>
      </trkpt>
      <trkpt lat="45.10478" lon="4.01072">
        <ele>811.7</ele>
        <time>2019-12-07T13:22:35Z</time>
      </trkpt>
      <trkpt lat="45.10478" lon="4.01074">
        <ele>811.8</ele>
        <time>2019-12-07T13:22:36Z</time>
      </trkpt>
      <trkpt lat="45.10475" lon="4.01085">
        <ele>812.8</ele>
        <time>2019-12-07T13:22:44Z</time>
      </trkpt>
      <trkpt lat="45.10475" lon="4.01089">
        <ele>813.2</ele>
        <time>2019-12-07T13:22:47Z</time>
      </trkpt>
      <trkpt lat="45.10472" lon="4.01101">
        <ele>814</ele>
        <time>2019-12-07T13:22:56Z</time>
      </trkpt>
      <trkpt lat="45.10471" lon="4.01114">
        <ele>815.2</ele>
        <time>2019-12-07T13:23:08Z</time>
      </trkpt>
      <trkpt lat="45.10473" lon="4.01119">
        <ele>815.7</ele>
        <time>2019-12-07T13:23:11Z</time>
      </trkpt>
      <trkpt lat="45.10481" lon="4.01131">
        <ele>817</ele>
        <time>2019-12-07T13:23:21Z</time>
      </trkpt>
      <trkpt lat="45.10483" lon="4.01136">
        <ele>817.4</ele>
        <time>2019-12-07T13:23:25Z</time>
      </trkpt>
      <trkpt lat="45.10488" lon="4.01143">
        <ele>818.2</ele>
        <time>2019-12-07T13:23:31Z</time>
      </trkpt>
      <trkpt lat="45.10488" lon="4.01145">
        <ele>818.3</ele>
        <time>2019-12-07T13:23:32Z</time>
      </trkpt>
      <trkpt lat="45.10489" lon="4.01149">
        <ele>818.7</ele>
        <time>2019-12-07T13:23:35Z</time>
      </trkpt>
      <trkpt lat="45.10493" lon="4.01155">
        <ele>819.2</ele>
        <time>2019-12-07T13:23:40Z</time>
      </trkpt>
      <trkpt lat="45.10503" lon="4.01166">
        <ele>820.5</ele>
        <time>2019-12-07T13:23:51Z</time>
      </trkpt>
      <trkpt lat="45.10505" lon="4.01168">
        <ele>820.8</ele>
        <time>2019-12-07T13:23:53Z</time>
      </trkpt>
      <trkpt lat="45.10506" lon="4.01169">
        <ele>820.9</ele>
        <time>2019-12-07T13:23:54Z</time>
      </trkpt>
      <trkpt lat="45.10508" lon="4.0117">
        <ele>821.1</ele>
        <time>2019-12-07T13:23:55Z</time>
      </trkpt>
      <trkpt lat="45.10515" lon="4.01179">
        <ele>822.1</ele>
        <time>2019-12-07T13:24:03Z</time>
      </trkpt>
      <trkpt lat="45.10517" lon="4.01181">
        <ele>822.3</ele>
        <time>2019-12-07T13:24:05Z</time>
      </trkpt>
      <trkpt lat="45.10525" lon="4.0119">
        <ele>823.3</ele>
        <time>2019-12-07T13:24:11Z</time>
      </trkpt>
      <trkpt lat="45.10527" lon="4.01193">
        <ele>823.6</ele>
        <time>2019-12-07T13:24:13Z</time>
      </trkpt>
      <trkpt lat="45.1053" lon="4.01198">
        <ele>824</ele>
        <time>2019-12-07T13:24:16Z</time>
      </trkpt>
      <trkpt lat="45.10534" lon="4.01208">
        <ele>824.7</ele>
        <time>2019-12-07T13:24:21Z</time>
      </trkpt>
      <trkpt lat="45.10536" lon="4.01213">
        <ele>825.1</ele>
        <time>2019-12-07T13:24:24Z</time>
      </trkpt>
      <trkpt lat="45.10539" lon="4.01218">
        <ele>825.5</ele>
        <time>2019-12-07T13:24:27Z</time>
      </trkpt>
      <trkpt lat="45.10541" lon="4.01222">
        <ele>825.9</ele>
        <time>2019-12-07T13:24:30Z</time>
      </trkpt>
      <trkpt lat="45.10542" lon="4.01223">
        <ele>826</ele>
        <time>2019-12-07T13:24:31Z</time>
      </trkpt>
      <trkpt lat="45.10545" lon="4.01228">
        <ele>826.5</ele>
        <time>2019-12-07T13:24:35Z</time>
      </trkpt>
      <trkpt lat="45.10551" lon="4.01242">
        <ele>827.3</ele>
        <time>2019-12-07T13:24:42Z</time>
      </trkpt>
      <trkpt lat="45.10552" lon="4.01246">
        <ele>827.5</ele>
        <time>2019-12-07T13:24:44Z</time>
      </trkpt>
      <trkpt lat="45.10554" lon="4.01252">
        <ele>828</ele>
        <time>2019-12-07T13:24:47Z</time>
      </trkpt>
      <trkpt lat="45.10554" lon="4.01267">
        <ele>829</ele>
        <time>2019-12-07T13:24:54Z</time>
      </trkpt>
      <trkpt lat="45.10555" lon="4.01273">
        <ele>829.4</ele>
        <time>2019-12-07T13:24:57Z</time>
      </trkpt>
      <trkpt lat="45.10555" lon="4.01278">
        <ele>829.8</ele>
        <time>2019-12-07T13:25:00Z</time>
      </trkpt>
      <trkpt lat="45.10555" lon="4.0128">
        <ele>830</ele>
        <time>2019-12-07T13:25:01Z</time>
      </trkpt>
      <trkpt lat="45.10556" lon="4.01282">
        <ele>830.2</ele>
        <time>2019-12-07T13:25:02Z</time>
      </trkpt>
      <trkpt lat="45.10556" lon="4.01286">
        <ele>830.6</ele>
        <time>2019-12-07T13:25:04Z</time>
      </trkpt>
      <trkpt lat="45.10558" lon="4.0129">
        <ele>830.9</ele>
        <time>2019-12-07T13:25:07Z</time>
      </trkpt>
      <trkpt lat="45.1056" lon="4.01295">
        <ele>831.4</ele>
        <time>2019-12-07T13:25:11Z</time>
      </trkpt>
      <trkpt lat="45.10561" lon="4.01299">
        <ele>831.7</ele>
        <time>2019-12-07T13:25:14Z</time>
      </trkpt>
      <trkpt lat="45.10567" lon="4.01309">
        <ele>832.8</ele>
        <time>2019-12-07T13:25:22Z</time>
      </trkpt>
      <trkpt lat="45.1057" lon="4.01315">
        <ele>833.4</ele>
        <time>2019-12-07T13:25:26Z</time>
      </trkpt>
      <trkpt lat="45.10576" lon="4.0133">
        <ele>834.4</ele>
        <time>2019-12-07T13:25:34Z</time>
      </trkpt>
      <trkpt lat="45.10577" lon="4.01332">
        <ele>834.5</ele>
        <time>2019-12-07T13:25:35Z</time>
      </trkpt>
      <trkpt lat="45.10577" lon="4.01334">
        <ele>834.6</ele>
        <time>2019-12-07T13:25:36Z</time>
      </trkpt>
      <trkpt lat="45.10578" lon="4.01336">
        <ele>834.7</ele>
        <time>2019-12-07T13:25:37Z</time>
      </trkpt>
      <trkpt lat="45.10578" lon="4.01338">
        <ele>834.7</ele>
        <time>2019-12-07T13:25:38Z</time>
      </trkpt>
      <trkpt lat="45.10579" lon="4.0134">
        <ele>834.8</ele>
        <time>2019-12-07T13:25:39Z</time>
      </trkpt>
      <trkpt lat="45.10579" lon="4.01343">
        <ele>835</ele>
        <time>2019-12-07T13:25:41Z</time>
      </trkpt>
      <trkpt lat="45.10584" lon="4.01354">
        <ele>835.3</ele>
        <time>2019-12-07T13:25:46Z</time>
      </trkpt>
      <trkpt lat="45.10586" lon="4.0136">
        <ele>835.4</ele>
        <time>2019-12-07T13:25:49Z</time>
      </trkpt>
      <trkpt lat="45.10587" lon="4.01362">
        <ele>835.5</ele>
        <time>2019-12-07T13:25:50Z</time>
      </trkpt>
      <trkpt lat="45.10591" lon="4.0137">
        <ele>835.7</ele>
        <time>2019-12-07T13:25:54Z</time>
      </trkpt>
      <trkpt lat="45.10596" lon="4.01389">
        <ele>836</ele>
        <time>2019-12-07T13:26:01Z</time>
      </trkpt>
      <trkpt lat="45.10598" lon="4.01396">
        <ele>836.2</ele>
        <time>2019-12-07T13:26:04Z</time>
      </trkpt>
      <trkpt lat="45.10601" lon="4.01408">
        <ele>836.4</ele>
        <time>2019-12-07T13:26:08Z</time>
      </trkpt>
      <trkpt lat="45.10603" lon="4.01418">
        <ele>836.6</ele>
        <time>2019-12-07T13:26:12Z</time>
      </trkpt>
      <trkpt lat="45.10613" lon="4.0145">
        <ele>837.3</ele>
        <time>2019-12-07T13:26:23Z</time>
      </trkpt>
      <trkpt lat="45.1062" lon="4.01478">
        <ele>837.9</ele>
        <time>2019-12-07T13:26:32Z</time>
      </trkpt>
      <trkpt lat="45.1062" lon="4.01484">
        <ele>838.1</ele>
        <time>2019-12-07T13:26:34Z</time>
      </trkpt>
      <trkpt lat="45.10623" lon="4.01496">
        <ele>838.3</ele>
        <time>2019-12-07T13:26:38Z</time>
      </trkpt>
      <trkpt lat="45.10628" lon="4.01528">
        <ele>838.7</ele>
        <time>2019-12-07T13:26:49Z</time>
      </trkpt>
      <trkpt lat="45.10631" lon="4.01536">
        <ele>838.7</ele>
        <time>2019-12-07T13:26:52Z</time>
      </trkpt>
      <trkpt lat="45.1064" lon="4.01553">
        <ele>838.5</ele>
        <time>2019-12-07T13:26:58Z</time>
      </trkpt>
      <trkpt lat="45.10645" lon="4.01562">
        <ele>838.4</ele>
        <time>2019-12-07T13:27:01Z</time>
      </trkpt>
      <trkpt lat="45.10649" lon="4.01568">
        <ele>838.3</ele>
        <time>2019-12-07T13:27:03Z</time>
      </trkpt>
      <trkpt lat="45.10681" lon="4.01616">
        <ele>838.3</ele>
        <time>2019-12-07T13:27:18Z</time>
      </trkpt>
      <trkpt lat="45.10688" lon="4.01626">
        <ele>838.1</ele>
        <time>2019-12-07T13:27:21Z</time>
      </trkpt>
      <trkpt lat="45.10702" lon="4.01645">
        <ele>837.8</ele>
        <time>2019-12-07T13:27:26Z</time>
      </trkpt>
      <trkpt lat="45.10709" lon="4.01653">
        <ele>837.6</ele>
        <time>2019-12-07T13:27:28Z</time>
      </trkpt>
      <trkpt lat="45.10727" lon="4.01671">
        <ele>837.5</ele>
        <time>2019-12-07T13:27:33Z</time>
      </trkpt>
      <trkpt lat="45.10734" lon="4.01679">
        <ele>837.5</ele>
        <time>2019-12-07T13:27:35Z</time>
      </trkpt>
      <trkpt lat="45.10759" lon="4.01707">
        <ele>837.6</ele>
        <time>2019-12-07T13:27:44Z</time>
      </trkpt>
      <trkpt lat="45.1079" lon="4.01666">
        <ele>836.8</ele>
        <time>2019-12-07T13:28:03Z</time>
      </trkpt>
      <trkpt lat="45.10793" lon="4.01662">
        <ele>836.8</ele>
        <time>2019-12-07T13:28:04Z</time>
      </trkpt>
      <trkpt lat="45.10796" lon="4.0166">
        <ele>837.1</ele>
        <time>2019-12-07T13:28:05Z</time>
      </trkpt>
      <trkpt lat="45.10799" lon="4.01659">
        <ele>837.2</ele>
        <time>2019-12-07T13:28:06Z</time>
      </trkpt>
      <trkpt lat="45.10803" lon="4.0166">
        <ele>837.4</ele>
        <time>2019-12-07T13:28:07Z</time>
      </trkpt>
      <trkpt lat="45.10806" lon="4.01662">
        <ele>837.6</ele>
        <time>2019-12-07T13:28:08Z</time>
      </trkpt>
      <trkpt lat="45.1081" lon="4.01663">
        <ele>837.8</ele>
        <time>2019-12-07T13:28:09Z</time>
      </trkpt>
      <trkpt lat="45.10829" lon="4.01676">
        <ele>838.9</ele>
        <time>2019-12-07T13:28:15Z</time>
      </trkpt>
      <trkpt lat="45.10846" lon="4.01686">
        <ele>840.2</ele>
        <time>2019-12-07T13:28:21Z</time>
      </trkpt>
      <trkpt lat="45.10861" lon="4.01693">
        <ele>841.8</ele>
        <time>2019-12-07T13:28:26Z</time>
      </trkpt>
      <trkpt lat="45.10876" lon="4.01704">
        <ele>843.2</ele>
        <time>2019-12-07T13:28:33Z</time>
      </trkpt>
      <trkpt lat="45.10888" lon="4.01713">
        <ele>844.1</ele>
        <time>2019-12-07T13:28:39Z</time>
      </trkpt>
      <trkpt lat="45.10902" lon="4.01725">
        <ele>845.1</ele>
        <time>2019-12-07T13:28:46Z</time>
      </trkpt>
      <trkpt lat="45.10914" lon="4.01732">
        <ele>845.9</ele>
        <time>2019-12-07T13:28:51Z</time>
      </trkpt>
      <trkpt lat="45.10926" lon="4.01738">
        <ele>846.8</ele>
        <time>2019-12-07T13:28:56Z</time>
      </trkpt>
      <trkpt lat="45.10941" lon="4.01749">
        <ele>847.7</ele>
        <time>2019-12-07T13:29:03Z</time>
      </trkpt>
      <trkpt lat="45.10943" lon="4.0175">
        <ele>847.8</ele>
        <time>2019-12-07T13:29:04Z</time>
      </trkpt>
      <trkpt lat="45.10945" lon="4.01752">
        <ele>847.9</ele>
        <time>2019-12-07T13:29:05Z</time>
      </trkpt>
      <trkpt lat="45.10961" lon="4.01763">
        <ele>848.8</ele>
        <time>2019-12-07T13:29:12Z</time>
      </trkpt>
      <trkpt lat="45.11007" lon="4.0179">
        <ele>850</ele>
        <time>2019-12-07T13:29:32Z</time>
      </trkpt>
      <trkpt lat="45.11015" lon="4.01795">
        <ele>850.1</ele>
        <time>2019-12-07T13:29:35Z</time>
      </trkpt>
      <trkpt lat="45.11075" lon="4.01818">
        <ele>849.5</ele>
        <time>2019-12-07T13:29:52Z</time>
      </trkpt>
      <trkpt lat="45.1109" lon="4.01824">
        <ele>849.3</ele>
        <time>2019-12-07T13:29:55Z</time>
      </trkpt>
      <trkpt lat="45.11103" lon="4.01827">
        <ele>849.2</ele>
        <time>2019-12-07T13:29:58Z</time>
      </trkpt>
      <trkpt lat="45.11149" lon="4.01832">
        <ele>848.7</ele>
        <time>2019-12-07T13:30:07Z</time>
      </trkpt>
      <trkpt lat="45.11153" lon="4.01834">
        <ele>848.7</ele>
        <time>2019-12-07T13:30:08Z</time>
      </trkpt>
      <trkpt lat="45.11158" lon="4.01835">
        <ele>848.6</ele>
        <time>2019-12-07T13:30:09Z</time>
      </trkpt>
      <trkpt lat="45.11163" lon="4.01837">
        <ele>848.6</ele>
        <time>2019-12-07T13:30:10Z</time>
      </trkpt>
      <trkpt lat="45.11168" lon="4.0184">
        <ele>848.6</ele>
        <time>2019-12-07T13:30:11Z</time>
      </trkpt>
      <trkpt lat="45.11173" lon="4.01844">
        <ele>848.6</ele>
        <time>2019-12-07T13:30:12Z</time>
      </trkpt>
      <trkpt lat="45.11178" lon="4.01848">
        <ele>848.7</ele>
        <time>2019-12-07T13:30:13Z</time>
      </trkpt>
      <trkpt lat="45.1119" lon="4.01856">
        <ele>849</ele>
        <time>2019-12-07T13:30:15Z</time>
      </trkpt>
      <trkpt lat="45.11195" lon="4.01859">
        <ele>849.1</ele>
        <time>2019-12-07T13:30:16Z</time>
      </trkpt>
      <trkpt lat="45.11201" lon="4.0186">
        <ele>849.2</ele>
        <time>2019-12-07T13:30:17Z</time>
      </trkpt>
      <trkpt lat="45.11213" lon="4.01861">
        <ele>849.3</ele>
        <time>2019-12-07T13:30:19Z</time>
      </trkpt>
      <trkpt lat="45.11223" lon="4.01864">
        <ele>849.5</ele>
        <time>2019-12-07T13:30:21Z</time>
      </trkpt>
      <trkpt lat="45.11239" lon="4.01871">
        <ele>849.6</ele>
        <time>2019-12-07T13:30:24Z</time>
      </trkpt>
      <trkpt lat="45.11267" lon="4.01878">
        <ele>850.2</ele>
        <time>2019-12-07T13:30:29Z</time>
      </trkpt>
      <trkpt lat="45.11278" lon="4.0188">
        <ele>850.6</ele>
        <time>2019-12-07T13:30:31Z</time>
      </trkpt>
      <trkpt lat="45.11305" lon="4.01881">
        <ele>851.3</ele>
        <time>2019-12-07T13:30:36Z</time>
      </trkpt>
      <trkpt lat="45.11362" lon="4.01892">
        <ele>851.1</ele>
        <time>2019-12-07T13:30:52Z</time>
      </trkpt>
      <trkpt lat="45.11399" lon="4.01911">
        <ele>850.5</ele>
        <time>2019-12-07T13:31:02Z</time>
      </trkpt>
      <trkpt lat="45.11404" lon="4.01912">
        <ele>850.3</ele>
        <time>2019-12-07T13:31:03Z</time>
      </trkpt>
      <trkpt lat="45.1141" lon="4.01912">
        <ele>850.2</ele>
        <time>2019-12-07T13:31:04Z</time>
      </trkpt>
      <trkpt lat="45.11415" lon="4.01912">
        <ele>850.1</ele>
        <time>2019-12-07T13:31:05Z</time>
      </trkpt>
      <trkpt lat="45.11421" lon="4.01911">
        <ele>849.9</ele>
        <time>2019-12-07T13:31:06Z</time>
      </trkpt>
      <trkpt lat="45.11426" lon="4.0191">
        <ele>849.8</ele>
        <time>2019-12-07T13:31:07Z</time>
      </trkpt>
      <trkpt lat="45.11431" lon="4.01908">
        <ele>849.7</ele>
        <time>2019-12-07T13:31:08Z</time>
      </trkpt>
      <trkpt lat="45.11443" lon="4.01904">
        <ele>849.4</ele>
        <time>2019-12-07T13:31:10Z</time>
      </trkpt>
      <trkpt lat="45.11461" lon="4.01898">
        <ele>848.7</ele>
        <time>2019-12-07T13:31:13Z</time>
      </trkpt>
      <trkpt lat="45.1148" lon="4.01897">
        <ele>847.9</ele>
        <time>2019-12-07T13:31:16Z</time>
      </trkpt>
      <trkpt lat="45.11494" lon="4.01897">
        <ele>847.5</ele>
        <time>2019-12-07T13:31:18Z</time>
      </trkpt>
      <trkpt lat="45.11501" lon="4.01896">
        <ele>847.2</ele>
        <time>2019-12-07T13:31:19Z</time>
      </trkpt>
      <trkpt lat="45.11507" lon="4.01893">
        <ele>846.8</ele>
        <time>2019-12-07T13:31:20Z</time>
      </trkpt>
      <trkpt lat="45.11556" lon="4.01863">
        <ele>843.8</ele>
        <time>2019-12-07T13:31:27Z</time>
      </trkpt>
      <trkpt lat="45.11597" lon="4.01836">
        <ele>837.8</ele>
        <time>2019-12-07T13:31:32Z</time>
      </trkpt>
      <trkpt lat="45.11617" lon="4.01827">
        <ele>834.7</ele>
        <time>2019-12-07T13:31:34Z</time>
      </trkpt>
      <trkpt lat="45.11629" lon="4.01824">
        <ele>832.8</ele>
        <time>2019-12-07T13:31:35Z</time>
      </trkpt>
      <trkpt lat="45.11642" lon="4.01822">
        <ele>830</ele>
        <time>2019-12-07T13:31:36Z</time>
      </trkpt>
      <trkpt lat="45.11669" lon="4.01822">
        <ele>824.5</ele>
        <time>2019-12-07T13:31:38Z</time>
      </trkpt>
      <trkpt lat="45.11699" lon="4.01821">
        <ele>819.4</ele>
        <time>2019-12-07T13:31:40Z</time>
      </trkpt>
      <trkpt lat="45.11728" lon="4.01816">
        <ele>813.3</ele>
        <time>2019-12-07T13:31:42Z</time>
      </trkpt>
      <trkpt lat="45.11743" lon="4.01812">
        <ele>810.6</ele>
        <time>2019-12-07T13:31:43Z</time>
      </trkpt>
      <trkpt lat="45.11775" lon="4.01799">
        <ele>805.6</ele>
        <time>2019-12-07T13:31:45Z</time>
      </trkpt>
      <trkpt lat="45.1179" lon="4.0179">
        <ele>803.7</ele>
        <time>2019-12-07T13:31:46Z</time>
      </trkpt>
      <trkpt lat="45.11803" lon="4.0178">
        <ele>802.3</ele>
        <time>2019-12-07T13:31:47Z</time>
      </trkpt>
      <trkpt lat="45.11815" lon="4.01768">
        <ele>801.1</ele>
        <time>2019-12-07T13:31:48Z</time>
      </trkpt>
      <trkpt lat="45.1185" lon="4.0173">
        <ele>797.7</ele>
        <time>2019-12-07T13:31:51Z</time>
      </trkpt>
      <trkpt lat="45.11882" lon="4.01699">
        <ele>794.3</ele>
        <time>2019-12-07T13:31:54Z</time>
      </trkpt>
      <trkpt lat="45.11924" lon="4.01673">
        <ele>789.4</ele>
        <time>2019-12-07T13:31:58Z</time>
      </trkpt>
      <trkpt lat="45.1195" lon="4.01662">
        <ele>787.6</ele>
        <time>2019-12-07T13:32:01Z</time>
      </trkpt>
      <trkpt lat="45.11977" lon="4.01654">
        <ele>785.2</ele>
        <time>2019-12-07T13:32:05Z</time>
      </trkpt>
      <trkpt lat="45.11988" lon="4.01649">
        <ele>784.1</ele>
        <time>2019-12-07T13:32:08Z</time>
      </trkpt>
      <trkpt lat="45.11991" lon="4.01646">
        <ele>783.8</ele>
        <time>2019-12-07T13:32:09Z</time>
      </trkpt>
      <trkpt lat="45.11993" lon="4.01643">
        <ele>783.5</ele>
        <time>2019-12-07T13:32:10Z</time>
      </trkpt>
      <trkpt lat="45.12" lon="4.01631">
        <ele>782.6</ele>
        <time>2019-12-07T13:32:17Z</time>
      </trkpt>
      <trkpt lat="45.12001" lon="4.01629">
        <ele>782.5</ele>
        <time>2019-12-07T13:32:18Z</time>
      </trkpt>
      <trkpt lat="45.12001" lon="4.01627">
        <ele>782.3</ele>
        <time>2019-12-07T13:32:19Z</time>
      </trkpt>
      <trkpt lat="45.12002" lon="4.01624">
        <ele>782.2</ele>
        <time>2019-12-07T13:32:20Z</time>
      </trkpt>
      <trkpt lat="45.12003" lon="4.01622">
        <ele>781.3</ele>
        <time>2019-12-07T13:32:21Z</time>
      </trkpt>
      <trkpt lat="45.12003" lon="4.0162">
        <ele>781.2</ele>
        <time>2019-12-07T13:32:29Z</time>
      </trkpt>
      <trkpt lat="45.1201" lon="4.01617">
        <ele>780.7</ele>
        <time>2019-12-07T13:33:23Z</time>
      </trkpt>
      <trkpt lat="45.12013" lon="4.01618">
        <ele>780.4</ele>
        <time>2019-12-07T13:33:24Z</time>
      </trkpt>
      <trkpt lat="45.12017" lon="4.0162">
        <ele>780.1</ele>
        <time>2019-12-07T13:33:25Z</time>
      </trkpt>
      <trkpt lat="45.12036" lon="4.01635">
        <ele>778.9</ele>
        <time>2019-12-07T13:33:29Z</time>
      </trkpt>
      <trkpt lat="45.12045" lon="4.01642">
        <ele>778.8</ele>
        <time>2019-12-07T13:33:31Z</time>
      </trkpt>
      <trkpt lat="45.12049" lon="4.01644">
        <ele>778.2</ele>
        <time>2019-12-07T13:33:32Z</time>
      </trkpt>
      <trkpt lat="45.12053" lon="4.01645">
        <ele>777.6</ele>
        <time>2019-12-07T13:33:33Z</time>
      </trkpt>
      <trkpt lat="45.12057" lon="4.01644">
        <ele>776.4</ele>
        <time>2019-12-07T13:33:34Z</time>
      </trkpt>
      <trkpt lat="45.12061" lon="4.01643">
        <ele>775.8</ele>
        <time>2019-12-07T13:33:35Z</time>
      </trkpt>
      <trkpt lat="45.12066" lon="4.01642">
        <ele>775.3</ele>
        <time>2019-12-07T13:33:36Z</time>
      </trkpt>
      <trkpt lat="45.1207" lon="4.0164">
        <ele>773.8</ele>
        <time>2019-12-07T13:33:37Z</time>
      </trkpt>
      <trkpt lat="45.12075" lon="4.01638">
        <ele>773.2</ele>
        <time>2019-12-07T13:33:38Z</time>
      </trkpt>
      <trkpt lat="45.1208" lon="4.01636">
        <ele>771.6</ele>
        <time>2019-12-07T13:33:39Z</time>
      </trkpt>
      <trkpt lat="45.12085" lon="4.01635">
        <ele>770.5</ele>
        <time>2019-12-07T13:33:40Z</time>
      </trkpt>
      <trkpt lat="45.1209" lon="4.01634">
        <ele>769.9</ele>
        <time>2019-12-07T13:33:41Z</time>
      </trkpt>
      <trkpt lat="45.12095" lon="4.01634">
        <ele>768.8</ele>
        <time>2019-12-07T13:33:42Z</time>
      </trkpt>
      <trkpt lat="45.121" lon="4.01634">
        <ele>767.8</ele>
        <time>2019-12-07T13:33:43Z</time>
      </trkpt>
      <trkpt lat="45.12105" lon="4.01636">
        <ele>767.2</ele>
        <time>2019-12-07T13:33:44Z</time>
      </trkpt>
      <trkpt lat="45.1211" lon="4.01638">
        <ele>766.3</ele>
        <time>2019-12-07T13:33:45Z</time>
      </trkpt>
      <trkpt lat="45.12115" lon="4.01642">
        <ele>765.3</ele>
        <time>2019-12-07T13:33:46Z</time>
      </trkpt>
      <trkpt lat="45.12118" lon="4.01648">
        <ele>764.8</ele>
        <time>2019-12-07T13:33:47Z</time>
      </trkpt>
      <trkpt lat="45.12119" lon="4.01653">
        <ele>764.9</ele>
        <time>2019-12-07T13:33:48Z</time>
      </trkpt>
      <trkpt lat="45.1212" lon="4.01658">
        <ele>765.2</ele>
        <time>2019-12-07T13:33:49Z</time>
      </trkpt>
      <trkpt lat="45.12121" lon="4.01664">
        <ele>764.7</ele>
        <time>2019-12-07T13:33:50Z</time>
      </trkpt>
      <trkpt lat="45.12121" lon="4.01668">
        <ele>764.8</ele>
        <time>2019-12-07T13:33:51Z</time>
      </trkpt>
      <trkpt lat="45.12121" lon="4.01673">
        <ele>764.8</ele>
        <time>2019-12-07T13:33:52Z</time>
      </trkpt>
      <trkpt lat="45.12121" lon="4.01678">
        <ele>764.8</ele>
        <time>2019-12-07T13:33:53Z</time>
      </trkpt>
      <trkpt lat="45.12121" lon="4.01683">
        <ele>764.8</ele>
        <time>2019-12-07T13:33:54Z</time>
      </trkpt>
      <trkpt lat="45.12121" lon="4.01688">
        <ele>764.9</ele>
        <time>2019-12-07T13:33:55Z</time>
      </trkpt>
      <trkpt lat="45.12121" lon="4.01711">
        <ele>765.1</ele>
        <time>2019-12-07T13:33:59Z</time>
      </trkpt>
      <trkpt lat="45.12126" lon="4.01736">
        <ele>765</ele>
        <time>2019-12-07T13:34:04Z</time>
      </trkpt>
      <trkpt lat="45.12132" lon="4.01749">
        <ele>763.9</ele>
        <time>2019-12-07T13:34:08Z</time>
      </trkpt>
      <trkpt lat="45.1214" lon="4.01769">
        <ele>761.1</ele>
        <time>2019-12-07T13:34:14Z</time>
      </trkpt>
      <trkpt lat="45.1214" lon="4.01772">
        <ele>761</ele>
        <time>2019-12-07T13:34:15Z</time>
      </trkpt>
      <trkpt lat="45.1214" lon="4.01775">
        <ele>760.8</ele>
        <time>2019-12-07T13:34:16Z</time>
      </trkpt>
      <trkpt lat="45.1214" lon="4.01778">
        <ele>760.7</ele>
        <time>2019-12-07T13:34:17Z</time>
      </trkpt>
      <trkpt lat="45.12139" lon="4.01781">
        <ele>760.5</ele>
        <time>2019-12-07T13:34:18Z</time>
      </trkpt>
      <trkpt lat="45.12138" lon="4.01784">
        <ele>761.6</ele>
        <time>2019-12-07T13:34:19Z</time>
      </trkpt>
      <trkpt lat="45.12134" lon="4.01798">
        <ele>762.5</ele>
        <time>2019-12-07T13:34:23Z</time>
      </trkpt>
      <trkpt lat="45.12131" lon="4.01816">
        <ele>763</ele>
        <time>2019-12-07T13:34:28Z</time>
      </trkpt>
      <trkpt lat="45.12124" lon="4.0184">
        <ele>763.1</ele>
        <time>2019-12-07T13:34:33Z</time>
      </trkpt>
      <trkpt lat="45.12121" lon="4.01845">
        <ele>763.5</ele>
        <time>2019-12-07T13:34:34Z</time>
      </trkpt>
      <trkpt lat="45.12117" lon="4.01851">
        <ele>764.8</ele>
        <time>2019-12-07T13:34:35Z</time>
      </trkpt>
      <trkpt lat="45.12111" lon="4.01855">
        <ele>765.2</ele>
        <time>2019-12-07T13:34:36Z</time>
      </trkpt>
      <trkpt lat="45.12106" lon="4.01858">
        <ele>766.5</ele>
        <time>2019-12-07T13:34:37Z</time>
      </trkpt>
      <trkpt lat="45.12097" lon="4.01866">
        <ele>767.7</ele>
        <time>2019-12-07T13:34:39Z</time>
      </trkpt>
      <trkpt lat="45.12093" lon="4.01873">
        <ele>768.1</ele>
        <time>2019-12-07T13:34:40Z</time>
      </trkpt>
      <trkpt lat="45.12093" lon="4.01879">
        <ele>767.4</ele>
        <time>2019-12-07T13:34:41Z</time>
      </trkpt>
      <trkpt lat="45.12093" lon="4.01887">
        <ele>764.9</ele>
        <time>2019-12-07T13:34:42Z</time>
      </trkpt>
      <trkpt lat="45.12094" lon="4.01896">
        <ele>763.1</ele>
        <time>2019-12-07T13:34:43Z</time>
      </trkpt>
      <trkpt lat="45.12096" lon="4.01904">
        <ele>761.2</ele>
        <time>2019-12-07T13:34:44Z</time>
      </trkpt>
      <trkpt lat="45.12095" lon="4.01913">
        <ele>759.1</ele>
        <time>2019-12-07T13:34:45Z</time>
      </trkpt>
      <trkpt lat="45.12094" lon="4.01921">
        <ele>757.2</ele>
        <time>2019-12-07T13:34:46Z</time>
      </trkpt>
      <trkpt lat="45.12091" lon="4.01929">
        <ele>756.3</ele>
        <time>2019-12-07T13:34:47Z</time>
      </trkpt>
      <trkpt lat="45.12087" lon="4.01937">
        <ele>755.4</ele>
        <time>2019-12-07T13:34:48Z</time>
      </trkpt>
      <trkpt lat="45.12082" lon="4.01945">
        <ele>755.4</ele>
        <time>2019-12-07T13:34:49Z</time>
      </trkpt>
      <trkpt lat="45.12062" lon="4.01985">
        <ele>753.3</ele>
        <time>2019-12-07T13:34:53Z</time>
      </trkpt>
      <trkpt lat="45.1205" lon="4.02005">
        <ele>752.7</ele>
        <time>2019-12-07T13:34:55Z</time>
      </trkpt>
      <trkpt lat="45.12034" lon="4.02034">
        <ele>748.7</ele>
        <time>2019-12-07T13:34:58Z</time>
      </trkpt>
      <trkpt lat="45.12022" lon="4.02054">
        <ele>747.1</ele>
        <time>2019-12-07T13:35:00Z</time>
      </trkpt>
      <trkpt lat="45.12013" lon="4.02074">
        <ele>745</ele>
        <time>2019-12-07T13:35:02Z</time>
      </trkpt>
      <trkpt lat="45.12005" lon="4.02092">
        <ele>744.9</ele>
        <time>2019-12-07T13:35:04Z</time>
      </trkpt>
      <trkpt lat="45.12003" lon="4.02098">
        <ele>744.2</ele>
        <time>2019-12-07T13:35:05Z</time>
      </trkpt>
      <trkpt lat="45.12002" lon="4.02103">
        <ele>743.9</ele>
        <time>2019-12-07T13:35:06Z</time>
      </trkpt>
      <trkpt lat="45.12004" lon="4.02108">
        <ele>742.3</ele>
        <time>2019-12-07T13:35:07Z</time>
      </trkpt>
      <trkpt lat="45.12006" lon="4.02112">
        <ele>740.3</ele>
        <time>2019-12-07T13:35:08Z</time>
      </trkpt>
      <trkpt lat="45.12009" lon="4.02115">
        <ele>738.8</ele>
        <time>2019-12-07T13:35:09Z</time>
      </trkpt>
      <trkpt lat="45.12014" lon="4.02115">
        <ele>737.9</ele>
        <time>2019-12-07T13:35:10Z</time>
      </trkpt>
      <trkpt lat="45.12021" lon="4.02114">
        <ele>735.5</ele>
        <time>2019-12-07T13:35:11Z</time>
      </trkpt>
      <trkpt lat="45.12028" lon="4.02112">
        <ele>734.2</ele>
        <time>2019-12-07T13:35:12Z</time>
      </trkpt>
      <trkpt lat="45.12036" lon="4.02108">
        <ele>733.5</ele>
        <time>2019-12-07T13:35:13Z</time>
      </trkpt>
      <trkpt lat="45.12048" lon="4.02102">
        <ele>732.2</ele>
        <time>2019-12-07T13:35:14Z</time>
      </trkpt>
      <trkpt lat="45.1206" lon="4.02099">
        <ele>731.2</ele>
        <time>2019-12-07T13:35:15Z</time>
      </trkpt>
      <trkpt lat="45.12071" lon="4.02097">
        <ele>730</ele>
        <time>2019-12-07T13:35:16Z</time>
      </trkpt>
      <trkpt lat="45.12081" lon="4.02096">
        <ele>728.9</ele>
        <time>2019-12-07T13:35:17Z</time>
      </trkpt>
      <trkpt lat="45.12095" lon="4.02095">
        <ele>727.8</ele>
        <time>2019-12-07T13:35:18Z</time>
      </trkpt>
      <trkpt lat="45.12107" lon="4.02098">
        <ele>726.6</ele>
        <time>2019-12-07T13:35:19Z</time>
      </trkpt>
      <trkpt lat="45.12118" lon="4.02104">
        <ele>725.3</ele>
        <time>2019-12-07T13:35:20Z</time>
      </trkpt>
      <trkpt lat="45.12136" lon="4.02116">
        <ele>723.2</ele>
        <time>2019-12-07T13:35:22Z</time>
      </trkpt>
      <trkpt lat="45.12144" lon="4.0212">
        <ele>722.8</ele>
        <time>2019-12-07T13:35:23Z</time>
      </trkpt>
      <trkpt lat="45.12152" lon="4.02123">
        <ele>722.6</ele>
        <time>2019-12-07T13:35:24Z</time>
      </trkpt>
      <trkpt lat="45.1216" lon="4.0212">
        <ele>722.5</ele>
        <time>2019-12-07T13:35:25Z</time>
      </trkpt>
      <trkpt lat="45.12166" lon="4.02116">
        <ele>722.5</ele>
        <time>2019-12-07T13:35:26Z</time>
      </trkpt>
      <trkpt lat="45.12173" lon="4.02112">
        <ele>722.5</ele>
        <time>2019-12-07T13:35:27Z</time>
      </trkpt>
      <trkpt lat="45.12187" lon="4.021">
        <ele>722.6</ele>
        <time>2019-12-07T13:35:30Z</time>
      </trkpt>
      <trkpt lat="45.12199" lon="4.02089">
        <ele>722.6</ele>
        <time>2019-12-07T13:35:33Z</time>
      </trkpt>
      <trkpt lat="45.12203" lon="4.02085">
        <ele>722.5</ele>
        <time>2019-12-07T13:35:34Z</time>
      </trkpt>
      <trkpt lat="45.12212" lon="4.02076">
        <ele>722.2</ele>
        <time>2019-12-07T13:35:36Z</time>
      </trkpt>
      <trkpt lat="45.12223" lon="4.02065">
        <ele>721.7</ele>
        <time>2019-12-07T13:35:39Z</time>
      </trkpt>
      <trkpt lat="45.12238" lon="4.02047">
        <ele>721</ele>
        <time>2019-12-07T13:35:43Z</time>
      </trkpt>
      <trkpt lat="45.12244" lon="4.02035">
        <ele>720.5</ele>
        <time>2019-12-07T13:35:45Z</time>
      </trkpt>
      <trkpt lat="45.12254" lon="4.02016">
        <ele>719.5</ele>
        <time>2019-12-07T13:35:48Z</time>
      </trkpt>
      <trkpt lat="45.12273" lon="4.01967">
        <ele>717.6</ele>
        <time>2019-12-07T13:35:54Z</time>
      </trkpt>
      <trkpt lat="45.12284" lon="4.01943">
        <ele>717</ele>
        <time>2019-12-07T13:35:57Z</time>
      </trkpt>
      <trkpt lat="45.12302" lon="4.01891">
        <ele>716</ele>
        <time>2019-12-07T13:36:03Z</time>
      </trkpt>
      <trkpt lat="45.12303" lon="4.01882">
        <ele>715.9</ele>
        <time>2019-12-07T13:36:04Z</time>
      </trkpt>
      <trkpt lat="45.12309" lon="4.0183">
        <ele>715</ele>
        <time>2019-12-07T13:36:10Z</time>
      </trkpt>
      <trkpt lat="45.12309" lon="4.01821">
        <ele>714.9</ele>
        <time>2019-12-07T13:36:11Z</time>
      </trkpt>
      <trkpt lat="45.12311" lon="4.01793">
        <ele>714.3</ele>
        <time>2019-12-07T13:36:14Z</time>
      </trkpt>
      <trkpt lat="45.12314" lon="4.01744">
        <ele>712.5</ele>
        <time>2019-12-07T13:36:19Z</time>
      </trkpt>
      <trkpt lat="45.12313" lon="4.01734">
        <ele>712.1</ele>
        <time>2019-12-07T13:36:20Z</time>
      </trkpt>
      <trkpt lat="45.12312" lon="4.01724">
        <ele>711.9</ele>
        <time>2019-12-07T13:36:21Z</time>
      </trkpt>
      <trkpt lat="45.12313" lon="4.01715">
        <ele>711.7</ele>
        <time>2019-12-07T13:36:22Z</time>
      </trkpt>
      <trkpt lat="45.12314" lon="4.01706">
        <ele>711.6</ele>
        <time>2019-12-07T13:36:23Z</time>
      </trkpt>
      <trkpt lat="45.12315" lon="4.017">
        <ele>711.6</ele>
        <time>2019-12-07T13:36:24Z</time>
      </trkpt>
      <trkpt lat="45.12316" lon="4.01695">
        <ele>711.5</ele>
        <time>2019-12-07T13:36:25Z</time>
      </trkpt>
      <trkpt lat="45.12317" lon="4.01692">
        <ele>711.5</ele>
        <time>2019-12-07T13:36:26Z</time>
      </trkpt>
      <trkpt lat="45.12316" lon="4.01682">
        <ele>711.6</ele>
        <time>2019-12-07T13:36:36Z</time>
      </trkpt>
      <trkpt lat="45.12316" lon="4.01683">
        <ele>711.6</ele>
        <time>2019-12-07T13:36:38Z</time>
      </trkpt>
      <trkpt lat="45.12315" lon="4.0169">
        <ele>711.6</ele>
        <time>2019-12-07T13:36:41Z</time>
      </trkpt>
      <trkpt lat="45.12314" lon="4.01692">
        <ele>711.7</ele>
        <time>2019-12-07T13:36:42Z</time>
      </trkpt>
      <trkpt lat="45.12313" lon="4.01698">
        <ele>711.7</ele>
        <time>2019-12-07T13:36:44Z</time>
      </trkpt>
      <trkpt lat="45.12312" lon="4.01716">
        <ele>711.9</ele>
        <time>2019-12-07T13:36:49Z</time>
      </trkpt>
      <trkpt lat="45.12312" lon="4.01752">
        <ele>712.6</ele>
        <time>2019-12-07T13:37:03Z</time>
      </trkpt>
      <trkpt lat="45.12313" lon="4.01752">
        <ele>712.6</ele>
        <time>2019-12-07T13:37:04Z</time>
      </trkpt>
      <trkpt lat="45.12316" lon="4.0175">
        <ele>712.8</ele>
        <time>2019-12-07T13:37:09Z</time>
      </trkpt>
      <trkpt lat="45.12319" lon="4.01745">
        <ele>712.3</ele>
        <time>2019-12-07T13:37:13Z</time>
      </trkpt>
      <trkpt lat="45.12322" lon="4.01741">
        <ele>712</ele>
        <time>2019-12-07T13:37:16Z</time>
      </trkpt>
      <trkpt lat="45.12325" lon="4.01735">
        <ele>711.7</ele>
        <time>2019-12-07T13:37:20Z</time>
      </trkpt>
      <trkpt lat="45.12326" lon="4.01731">
        <ele>711.6</ele>
        <time>2019-12-07T13:37:23Z</time>
      </trkpt>
      <trkpt lat="45.12327" lon="4.0173">
        <ele>711.6</ele>
        <time>2019-12-07T13:37:24Z</time>
      </trkpt>
      <trkpt lat="45.12327" lon="4.01729">
        <ele>711.5</ele>
        <time>2019-12-07T13:37:25Z</time>
      </trkpt>
      <trkpt lat="45.12328" lon="4.01728">
        <ele>711.5</ele>
        <time>2019-12-07T13:37:26Z</time>
      </trkpt>
      <trkpt lat="45.1233" lon="4.01722">
        <ele>711.4</ele>
        <time>2019-12-07T13:37:30Z</time>
      </trkpt>
      <trkpt lat="45.12333" lon="4.01717">
        <ele>711.1</ele>
        <time>2019-12-07T13:37:34Z</time>
      </trkpt>
      <trkpt lat="45.12334" lon="4.01716">
        <ele>711</ele>
        <time>2019-12-07T13:37:35Z</time>
      </trkpt>
      <trkpt lat="45.12334" lon="4.01716">
        <ele>711</ele>
        <time>2019-12-07T13:37:36Z</time>
      </trkpt>
      <trkpt lat="45.12336" lon="4.01715">
        <ele>710.9</ele>
        <time>2019-12-07T13:37:41Z</time>
      </trkpt>
      <trkpt lat="45.12357" lon="4.01719">
        <ele>710.9</ele>
        <time>2019-12-07T13:38:29Z</time>
      </trkpt>
      <trkpt lat="45.12358" lon="4.01721">
        <ele>710.9</ele>
        <time>2019-12-07T13:38:30Z</time>
      </trkpt>
      <trkpt lat="45.12359" lon="4.01722">
        <ele>711.1</ele>
        <time>2019-12-07T13:38:31Z</time>
      </trkpt>
      <trkpt lat="45.12364" lon="4.01727">
        <ele>711.5</ele>
        <time>2019-12-07T13:38:35Z</time>
      </trkpt>
      <trkpt lat="45.12365" lon="4.01728">
        <ele>711.5</ele>
        <time>2019-12-07T13:38:36Z</time>
      </trkpt>
      <trkpt lat="45.12367" lon="4.0173">
        <ele>711.5</ele>
        <time>2019-12-07T13:38:37Z</time>
      </trkpt>
      <trkpt lat="45.12368" lon="4.01731">
        <ele>711.8</ele>
        <time>2019-12-07T13:38:38Z</time>
      </trkpt>
      <trkpt lat="45.1237" lon="4.01733">
        <ele>711.8</ele>
        <time>2019-12-07T13:38:39Z</time>
      </trkpt>
      <trkpt lat="45.12371" lon="4.01734">
        <ele>711.8</ele>
        <time>2019-12-07T13:38:40Z</time>
      </trkpt>
      <trkpt lat="45.12372" lon="4.01736">
        <ele>712.1</ele>
        <time>2019-12-07T13:38:41Z</time>
      </trkpt>
      <trkpt lat="45.12373" lon="4.01737">
        <ele>712.1</ele>
        <time>2019-12-07T13:38:42Z</time>
      </trkpt>
      <trkpt lat="45.12375" lon="4.01739">
        <ele>712.1</ele>
        <time>2019-12-07T13:38:43Z</time>
      </trkpt>
      <trkpt lat="45.12378" lon="4.01744">
        <ele>712.7</ele>
        <time>2019-12-07T13:38:48Z</time>
      </trkpt>
      <trkpt lat="45.12379" lon="4.01749">
        <ele>713</ele>
        <time>2019-12-07T13:38:52Z</time>
      </trkpt>
      <trkpt lat="45.1238" lon="4.01751">
        <ele>713</ele>
        <time>2019-12-07T13:38:53Z</time>
      </trkpt>
      <trkpt lat="45.12381" lon="4.01753">
        <ele>713.3</ele>
        <time>2019-12-07T13:38:54Z</time>
      </trkpt>
      <trkpt lat="45.12381" lon="4.01755">
        <ele>713.4</ele>
        <time>2019-12-07T13:38:55Z</time>
      </trkpt>
      <trkpt lat="45.12382" lon="4.01756">
        <ele>713.4</ele>
        <time>2019-12-07T13:38:56Z</time>
      </trkpt>
      <trkpt lat="45.12383" lon="4.01758">
        <ele>713.7</ele>
        <time>2019-12-07T13:38:57Z</time>
      </trkpt>
      <trkpt lat="45.12393" lon="4.01768">
        <ele>714.4</ele>
        <time>2019-12-07T13:39:05Z</time>
      </trkpt>
      <trkpt lat="45.12395" lon="4.01768">
        <ele>714.4</ele>
        <time>2019-12-07T13:39:06Z</time>
      </trkpt>
      <trkpt lat="45.12397" lon="4.01769">
        <ele>714.3</ele>
        <time>2019-12-07T13:39:07Z</time>
      </trkpt>
      <trkpt lat="45.12416" lon="4.01777">
        <ele>714.1</ele>
        <time>2019-12-07T13:39:11Z</time>
      </trkpt>
      <trkpt lat="45.12425" lon="4.01783">
        <ele>714.2</ele>
        <time>2019-12-07T13:39:13Z</time>
      </trkpt>
      <trkpt lat="45.12434" lon="4.0179">
        <ele>713.7</ele>
        <time>2019-12-07T13:39:15Z</time>
      </trkpt>
      <trkpt lat="45.12445" lon="4.01796">
        <ele>713.2</ele>
        <time>2019-12-07T13:39:17Z</time>
      </trkpt>
      <trkpt lat="45.1245" lon="4.018">
        <ele>713.4</ele>
        <time>2019-12-07T13:39:18Z</time>
      </trkpt>
      <trkpt lat="45.12464" lon="4.01811">
        <ele>713.9</ele>
        <time>2019-12-07T13:39:21Z</time>
      </trkpt>
      <trkpt lat="45.12467" lon="4.01813">
        <ele>714</ele>
        <time>2019-12-07T13:39:22Z</time>
      </trkpt>
      <trkpt lat="45.12471" lon="4.01815">
        <ele>714.1</ele>
        <time>2019-12-07T13:39:23Z</time>
      </trkpt>
      <trkpt lat="45.12473" lon="4.01818">
        <ele>714.2</ele>
        <time>2019-12-07T13:39:24Z</time>
      </trkpt>
      <trkpt lat="45.12479" lon="4.0182">
        <ele>714.3</ele>
        <time>2019-12-07T13:39:25Z</time>
      </trkpt>
      <trkpt lat="45.12483" lon="4.01822">
        <ele>714.5</ele>
        <time>2019-12-07T13:39:26Z</time>
      </trkpt>
      <trkpt lat="45.12486" lon="4.01827">
        <ele>714.6</ele>
        <time>2019-12-07T13:39:27Z</time>
      </trkpt>
      <trkpt lat="45.12488" lon="4.01832">
        <ele>714.7</ele>
        <time>2019-12-07T13:39:28Z</time>
      </trkpt>
      <trkpt lat="45.12489" lon="4.01836">
        <ele>714.7</ele>
        <time>2019-12-07T13:39:29Z</time>
      </trkpt>
      <trkpt lat="45.12493" lon="4.01853">
        <ele>715</ele>
        <time>2019-12-07T13:39:33Z</time>
      </trkpt>
      <trkpt lat="45.12501" lon="4.01861">
        <ele>715.3</ele>
        <time>2019-12-07T13:39:37Z</time>
      </trkpt>
      <trkpt lat="45.12504" lon="4.01862">
        <ele>715.3</ele>
        <time>2019-12-07T13:39:38Z</time>
      </trkpt>
      <trkpt lat="45.12506" lon="4.01863">
        <ele>715.4</ele>
        <time>2019-12-07T13:39:39Z</time>
      </trkpt>
      <trkpt lat="45.12508" lon="4.01864">
        <ele>715.6</ele>
        <time>2019-12-07T13:39:40Z</time>
      </trkpt>
      <trkpt lat="45.1251" lon="4.01865">
        <ele>715.6</ele>
        <time>2019-12-07T13:39:41Z</time>
      </trkpt>
      <trkpt lat="45.12513" lon="4.01865">
        <ele>715.6</ele>
        <time>2019-12-07T13:39:42Z</time>
      </trkpt>
      <trkpt lat="45.12526" lon="4.01871">
        <ele>715.9</ele>
        <time>2019-12-07T13:39:46Z</time>
      </trkpt>
      <trkpt lat="45.1253" lon="4.01873">
        <ele>716</ele>
        <time>2019-12-07T13:39:47Z</time>
      </trkpt>
      <trkpt lat="45.12533" lon="4.01875">
        <ele>716.2</ele>
        <time>2019-12-07T13:39:48Z</time>
      </trkpt>
      <trkpt lat="45.12537" lon="4.01877">
        <ele>716.4</ele>
        <time>2019-12-07T13:39:49Z</time>
      </trkpt>
      <trkpt lat="45.12557" lon="4.01878">
        <ele>717.3</ele>
        <time>2019-12-07T13:39:54Z</time>
      </trkpt>
      <trkpt lat="45.12562" lon="4.01875">
        <ele>717.6</ele>
        <time>2019-12-07T13:39:55Z</time>
      </trkpt>
      <trkpt lat="45.12571" lon="4.0187">
        <ele>717.9</ele>
        <time>2019-12-07T13:39:57Z</time>
      </trkpt>
      <trkpt lat="45.12576" lon="4.01866">
        <ele>718.2</ele>
        <time>2019-12-07T13:39:58Z</time>
      </trkpt>
      <trkpt lat="45.12597" lon="4.01841">
        <ele>720</ele>
        <time>2019-12-07T13:40:06Z</time>
      </trkpt>
      <trkpt lat="45.12616" lon="4.01816">
        <ele>721.6</ele>
        <time>2019-12-07T13:40:21Z</time>
      </trkpt>
      <trkpt lat="45.12621" lon="4.0181">
        <ele>722.1</ele>
        <time>2019-12-07T13:40:26Z</time>
      </trkpt>
      <trkpt lat="45.12625" lon="4.01806">
        <ele>722.4</ele>
        <time>2019-12-07T13:40:30Z</time>
      </trkpt>
      <trkpt lat="45.12626" lon="4.01806">
        <ele>722.5</ele>
        <time>2019-12-07T13:40:31Z</time>
      </trkpt>
      <trkpt lat="45.12627" lon="4.01805">
        <ele>722.6</ele>
        <time>2019-12-07T13:40:32Z</time>
      </trkpt>
      <trkpt lat="45.12628" lon="4.01804">
        <ele>722.7</ele>
        <time>2019-12-07T13:40:33Z</time>
      </trkpt>
      <trkpt lat="45.12632" lon="4.018">
        <ele>723.1</ele>
        <time>2019-12-07T13:40:37Z</time>
      </trkpt>
      <trkpt lat="45.12636" lon="4.01793">
        <ele>723.5</ele>
        <time>2019-12-07T13:40:43Z</time>
      </trkpt>
      <trkpt lat="45.12641" lon="4.01784">
        <ele>724.1</ele>
        <time>2019-12-07T13:40:51Z</time>
      </trkpt>
      <trkpt lat="45.12642" lon="4.01782">
        <ele>724.2</ele>
        <time>2019-12-07T13:40:52Z</time>
      </trkpt>
      <trkpt lat="45.12642" lon="4.01781">
        <ele>724.3</ele>
        <time>2019-12-07T13:40:53Z</time>
      </trkpt>
      <trkpt lat="45.12642" lon="4.01779">
        <ele>724.3</ele>
        <time>2019-12-07T13:40:54Z</time>
      </trkpt>
      <trkpt lat="45.12643" lon="4.01777">
        <ele>724.4</ele>
        <time>2019-12-07T13:40:55Z</time>
      </trkpt>
      <trkpt lat="45.12643" lon="4.01776">
        <ele>724.5</ele>
        <time>2019-12-07T13:40:56Z</time>
      </trkpt>
      <trkpt lat="45.12644" lon="4.01775">
        <ele>724.6</ele>
        <time>2019-12-07T13:40:57Z</time>
      </trkpt>
      <trkpt lat="45.12644" lon="4.01773">
        <ele>724.7</ele>
        <time>2019-12-07T13:40:58Z</time>
      </trkpt>
      <trkpt lat="45.12644" lon="4.01772">
        <ele>724.8</ele>
        <time>2019-12-07T13:40:59Z</time>
      </trkpt>
      <trkpt lat="45.12645" lon="4.01767">
        <ele>725.1</ele>
        <time>2019-12-07T13:41:02Z</time>
      </trkpt>
      <trkpt lat="45.12645" lon="4.01761">
        <ele>725.5</ele>
        <time>2019-12-07T13:41:05Z</time>
      </trkpt>
      <trkpt lat="45.12644" lon="4.01754">
        <ele>726</ele>
        <time>2019-12-07T13:41:10Z</time>
      </trkpt>
      <trkpt lat="45.12644" lon="4.01751">
        <ele>726.2</ele>
        <time>2019-12-07T13:41:12Z</time>
      </trkpt>
      <trkpt lat="45.12643" lon="4.01749">
        <ele>726.3</ele>
        <time>2019-12-07T13:41:13Z</time>
      </trkpt>
      <trkpt lat="45.12644" lon="4.01748">
        <ele>726.4</ele>
        <time>2019-12-07T13:41:14Z</time>
      </trkpt>
      <trkpt lat="45.12644" lon="4.01747">
        <ele>726.4</ele>
        <time>2019-12-07T13:41:15Z</time>
      </trkpt>
      <trkpt lat="45.12644" lon="4.01745">
        <ele>726.5</ele>
        <time>2019-12-07T13:41:16Z</time>
      </trkpt>
      <trkpt lat="45.12643" lon="4.01744">
        <ele>726.6</ele>
        <time>2019-12-07T13:41:17Z</time>
      </trkpt>
      <trkpt lat="45.12644" lon="4.01741">
        <ele>726.7</ele>
        <time>2019-12-07T13:41:18Z</time>
      </trkpt>
      <trkpt lat="45.12644" lon="4.01739">
        <ele>726.9</ele>
        <time>2019-12-07T13:41:19Z</time>
      </trkpt>
      <trkpt lat="45.12645" lon="4.01734">
        <ele>727.3</ele>
        <time>2019-12-07T13:41:22Z</time>
      </trkpt>
      <trkpt lat="45.12632" lon="4.01698">
        <ele>731</ele>
        <time>2019-12-07T13:41:42Z</time>
      </trkpt>
      <trkpt lat="45.1263" lon="4.01694">
        <ele>731.8</ele>
        <time>2019-12-07T13:41:45Z</time>
      </trkpt>
      <trkpt lat="45.12622" lon="4.01678">
        <ele>734.6</ele>
        <time>2019-12-07T13:41:55Z</time>
      </trkpt>
      <trkpt lat="45.12618" lon="4.01672">
        <ele>735.2</ele>
        <time>2019-12-07T13:41:59Z</time>
      </trkpt>
      <trkpt lat="45.12616" lon="4.01668">
        <ele>735.7</ele>
        <time>2019-12-07T13:42:02Z</time>
      </trkpt>
      <trkpt lat="45.12613" lon="4.01661">
        <ele>736.4</ele>
        <time>2019-12-07T13:42:06Z</time>
      </trkpt>
      <trkpt lat="45.12602" lon="4.01651">
        <ele>737.3</ele>
        <time>2019-12-07T13:42:18Z</time>
      </trkpt>
      <trkpt lat="45.12598" lon="4.01648">
        <ele>737.5</ele>
        <time>2019-12-07T13:42:23Z</time>
      </trkpt>
      <trkpt lat="45.12597" lon="4.01648">
        <ele>737.5</ele>
        <time>2019-12-07T13:42:24Z</time>
      </trkpt>
      <trkpt lat="45.12596" lon="4.01648">
        <ele>737.6</ele>
        <time>2019-12-07T13:42:25Z</time>
      </trkpt>
      <trkpt lat="45.12595" lon="4.01647">
        <ele>737.6</ele>
        <time>2019-12-07T13:42:26Z</time>
      </trkpt>
      <trkpt lat="45.12594" lon="4.01647">
        <ele>737.6</ele>
        <time>2019-12-07T13:42:27Z</time>
      </trkpt>
      <trkpt lat="45.12592" lon="4.01646">
        <ele>737.7</ele>
        <time>2019-12-07T13:42:29Z</time>
      </trkpt>
      <trkpt lat="45.12588" lon="4.01646">
        <ele>737.9</ele>
        <time>2019-12-07T13:42:34Z</time>
      </trkpt>
      <trkpt lat="45.12587" lon="4.01645">
        <ele>737.9</ele>
        <time>2019-12-07T13:42:35Z</time>
      </trkpt>
      <trkpt lat="45.12586" lon="4.01645">
        <ele>738</ele>
        <time>2019-12-07T13:42:36Z</time>
      </trkpt>
      <trkpt lat="45.12585" lon="4.01645">
        <ele>738</ele>
        <time>2019-12-07T13:42:37Z</time>
      </trkpt>
      <trkpt lat="45.12584" lon="4.01645">
        <ele>738.1</ele>
        <time>2019-12-07T13:42:38Z</time>
      </trkpt>
      <trkpt lat="45.12582" lon="4.01645">
        <ele>738.2</ele>
        <time>2019-12-07T13:42:39Z</time>
      </trkpt>
      <trkpt lat="45.12581" lon="4.01645">
        <ele>738.2</ele>
        <time>2019-12-07T13:42:40Z</time>
      </trkpt>
      <trkpt lat="45.12581" lon="4.01644">
        <ele>738.2</ele>
        <time>2019-12-07T13:42:41Z</time>
      </trkpt>
      <trkpt lat="45.12579" lon="4.01644">
        <ele>738.3</ele>
        <time>2019-12-07T13:42:43Z</time>
      </trkpt>
      <trkpt lat="45.12577" lon="4.01644">
        <ele>738.4</ele>
        <time>2019-12-07T13:42:45Z</time>
      </trkpt>
      <trkpt lat="45.12568" lon="4.01645">
        <ele>738.7</ele>
        <time>2019-12-07T13:42:53Z</time>
      </trkpt>
      <trkpt lat="45.12567" lon="4.01646">
        <ele>738.7</ele>
        <time>2019-12-07T13:42:54Z</time>
      </trkpt>
      <trkpt lat="45.12566" lon="4.01646">
        <ele>738.7</ele>
        <time>2019-12-07T13:42:55Z</time>
      </trkpt>
      <trkpt lat="45.12554" lon="4.01646">
        <ele>739.2</ele>
        <time>2019-12-07T13:43:07Z</time>
      </trkpt>
      <trkpt lat="45.12553" lon="4.01646">
        <ele>739.2</ele>
        <time>2019-12-07T13:43:08Z</time>
      </trkpt>
      <trkpt lat="45.12552" lon="4.01646">
        <ele>739.2</ele>
        <time>2019-12-07T13:43:09Z</time>
      </trkpt>
      <trkpt lat="45.12551" lon="4.01645">
        <ele>739.3</ele>
        <time>2019-12-07T13:43:10Z</time>
      </trkpt>
      <trkpt lat="45.1255" lon="4.01644">
        <ele>739.3</ele>
        <time>2019-12-07T13:43:11Z</time>
      </trkpt>
      <trkpt lat="45.12549" lon="4.01643">
        <ele>739.3</ele>
        <time>2019-12-07T13:43:12Z</time>
      </trkpt>
      <trkpt lat="45.12544" lon="4.0164">
        <ele>739.5</ele>
        <time>2019-12-07T13:43:17Z</time>
      </trkpt>
      <trkpt lat="45.1254" lon="4.01629">
        <ele>739.7</ele>
        <time>2019-12-07T13:43:25Z</time>
      </trkpt>
      <trkpt lat="45.1254" lon="4.01625">
        <ele>739.8</ele>
        <time>2019-12-07T13:43:28Z</time>
      </trkpt>
      <trkpt lat="45.12541" lon="4.01623">
        <ele>739.9</ele>
        <time>2019-12-07T13:43:29Z</time>
      </trkpt>
      <trkpt lat="45.12541" lon="4.0162">
        <ele>739.9</ele>
        <time>2019-12-07T13:43:31Z</time>
      </trkpt>
      <trkpt lat="45.12544" lon="4.01613">
        <ele>740.2</ele>
        <time>2019-12-07T13:43:35Z</time>
      </trkpt>
      <trkpt lat="45.12546" lon="4.0161">
        <ele>740.3</ele>
        <time>2019-12-07T13:43:37Z</time>
      </trkpt>
      <trkpt lat="45.12549" lon="4.01604">
        <ele>740.5</ele>
        <time>2019-12-07T13:43:40Z</time>
      </trkpt>
      <trkpt lat="45.12553" lon="4.01599">
        <ele>740.7</ele>
        <time>2019-12-07T13:43:43Z</time>
      </trkpt>
      <trkpt lat="45.12559" lon="4.01596">
        <ele>741.1</ele>
        <time>2019-12-07T13:43:47Z</time>
      </trkpt>
      <trkpt lat="45.12565" lon="4.01595">
        <ele>741.5</ele>
        <time>2019-12-07T13:43:50Z</time>
      </trkpt>
      <trkpt lat="45.12569" lon="4.01594">
        <ele>741.7</ele>
        <time>2019-12-07T13:43:52Z</time>
      </trkpt>
      <trkpt lat="45.12579" lon="4.01593">
        <ele>742.1</ele>
        <time>2019-12-07T13:43:56Z</time>
      </trkpt>
      <trkpt lat="45.12591" lon="4.01593">
        <ele>742.4</ele>
        <time>2019-12-07T13:44:00Z</time>
      </trkpt>
      <trkpt lat="45.12601" lon="4.01592">
        <ele>742.8</ele>
        <time>2019-12-07T13:44:03Z</time>
      </trkpt>
      <trkpt lat="45.12629" lon="4.01592">
        <ele>744.4</ele>
        <time>2019-12-07T13:44:13Z</time>
      </trkpt>
      <trkpt lat="45.12634" lon="4.01592">
        <ele>744.7</ele>
        <time>2019-12-07T13:44:15Z</time>
      </trkpt>
      <trkpt lat="45.12645" lon="4.01592">
        <ele>745.4</ele>
        <time>2019-12-07T13:44:19Z</time>
      </trkpt>
      <trkpt lat="45.12669" lon="4.01592">
        <ele>746.5</ele>
        <time>2019-12-07T13:44:28Z</time>
      </trkpt>
      <trkpt lat="45.12682" lon="4.01596">
        <ele>747</ele>
        <time>2019-12-07T13:44:33Z</time>
      </trkpt>
      <trkpt lat="45.12688" lon="4.01598">
        <ele>747.3</ele>
        <time>2019-12-07T13:44:35Z</time>
      </trkpt>
      <trkpt lat="45.12703" lon="4.01606">
        <ele>747.8</ele>
        <time>2019-12-07T13:44:40Z</time>
      </trkpt>
      <trkpt lat="45.12713" lon="4.01613">
        <ele>748.2</ele>
        <time>2019-12-07T13:44:43Z</time>
      </trkpt>
      <trkpt lat="45.12724" lon="4.01623">
        <ele>748.7</ele>
        <time>2019-12-07T13:44:47Z</time>
      </trkpt>
      <trkpt lat="45.12736" lon="4.01633">
        <ele>749.3</ele>
        <time>2019-12-07T13:44:51Z</time>
      </trkpt>
      <trkpt lat="45.1274" lon="4.01639">
        <ele>749.7</ele>
        <time>2019-12-07T13:44:53Z</time>
      </trkpt>
      <trkpt lat="45.12756" lon="4.01663">
        <ele>751</ele>
        <time>2019-12-07T13:45:00Z</time>
      </trkpt>
      <trkpt lat="45.12773" lon="4.01719">
        <ele>752.6</ele>
        <time>2019-12-07T13:45:13Z</time>
      </trkpt>
      <trkpt lat="45.1279" lon="4.01772">
        <ele>754.4</ele>
        <time>2019-12-07T13:45:26Z</time>
      </trkpt>
      <trkpt lat="45.12793" lon="4.01779">
        <ele>754.6</ele>
        <time>2019-12-07T13:45:28Z</time>
      </trkpt>
      <trkpt lat="45.12826" lon="4.01835">
        <ele>757.4</ele>
        <time>2019-12-07T13:45:44Z</time>
      </trkpt>
      <trkpt lat="45.12837" lon="4.01853">
        <ele>758.1</ele>
        <time>2019-12-07T13:45:49Z</time>
      </trkpt>
      <trkpt lat="45.12842" lon="4.01864">
        <ele>758.4</ele>
        <time>2019-12-07T13:45:52Z</time>
      </trkpt>
      <trkpt lat="45.12848" lon="4.01887">
        <ele>758.8</ele>
        <time>2019-12-07T13:45:57Z</time>
      </trkpt>
      <trkpt lat="45.12849" lon="4.01897">
        <ele>758.9</ele>
        <time>2019-12-07T13:45:59Z</time>
      </trkpt>
      <trkpt lat="45.12853" lon="4.01921">
        <ele>759</ele>
        <time>2019-12-07T13:46:04Z</time>
      </trkpt>
      <trkpt lat="45.12856" lon="4.01935">
        <ele>759.1</ele>
        <time>2019-12-07T13:46:07Z</time>
      </trkpt>
      <trkpt lat="45.12862" lon="4.0202">
        <ele>760.1</ele>
        <time>2019-12-07T13:46:23Z</time>
      </trkpt>
      <trkpt lat="45.12876" lon="4.02058">
        <ele>760.5</ele>
        <time>2019-12-07T13:46:30Z</time>
      </trkpt>
      <trkpt lat="45.12885" lon="4.02073">
        <ele>760.9</ele>
        <time>2019-12-07T13:46:33Z</time>
      </trkpt>
      <trkpt lat="45.12895" lon="4.02086">
        <ele>761.1</ele>
        <time>2019-12-07T13:46:36Z</time>
      </trkpt>
      <trkpt lat="45.12908" lon="4.02103">
        <ele>761.6</ele>
        <time>2019-12-07T13:46:40Z</time>
      </trkpt>
      <trkpt lat="45.12912" lon="4.02106">
        <ele>761.7</ele>
        <time>2019-12-07T13:46:41Z</time>
      </trkpt>
      <trkpt lat="45.12919" lon="4.02112">
        <ele>761.9</ele>
        <time>2019-12-07T13:46:43Z</time>
      </trkpt>
      <trkpt lat="45.12935" lon="4.02118">
        <ele>762.4</ele>
        <time>2019-12-07T13:46:47Z</time>
      </trkpt>
      <trkpt lat="45.12957" lon="4.02122">
        <ele>762.9</ele>
        <time>2019-12-07T13:46:52Z</time>
      </trkpt>
      <trkpt lat="45.12961" lon="4.02124">
        <ele>763</ele>
        <time>2019-12-07T13:46:53Z</time>
      </trkpt>
      <trkpt lat="45.13021" lon="4.02134">
        <ele>764.2</ele>
        <time>2019-12-07T13:47:08Z</time>
      </trkpt>
      <trkpt lat="45.13057" lon="4.02134">
        <ele>765.6</ele>
        <time>2019-12-07T13:47:18Z</time>
      </trkpt>
      <trkpt lat="45.13098" lon="4.02121">
        <ele>766.4</ele>
        <time>2019-12-07T13:47:30Z</time>
      </trkpt>
      <trkpt lat="45.13105" lon="4.0212">
        <ele>766.7</ele>
        <time>2019-12-07T13:47:32Z</time>
      </trkpt>
      <trkpt lat="45.13154" lon="4.0212">
        <ele>768.7</ele>
        <time>2019-12-07T13:47:45Z</time>
      </trkpt>
      <trkpt lat="45.13168" lon="4.02125">
        <ele>769.1</ele>
        <time>2019-12-07T13:47:49Z</time>
      </trkpt>
      <trkpt lat="45.13224" lon="4.02138">
        <ele>770.8</ele>
        <time>2019-12-07T13:48:06Z</time>
      </trkpt>
      <trkpt lat="45.13238" lon="4.02135">
        <ele>771.2</ele>
        <time>2019-12-07T13:48:10Z</time>
      </trkpt>
      <trkpt lat="45.13251" lon="4.0213">
        <ele>771.6</ele>
        <time>2019-12-07T13:48:14Z</time>
      </trkpt>
      <trkpt lat="45.13261" lon="4.02126">
        <ele>771.9</ele>
        <time>2019-12-07T13:48:17Z</time>
      </trkpt>
      <trkpt lat="45.13302" lon="4.02107">
        <ele>773.1</ele>
        <time>2019-12-07T13:48:29Z</time>
      </trkpt>
      <trkpt lat="45.13313" lon="4.02103">
        <ele>773.3</ele>
        <time>2019-12-07T13:48:32Z</time>
      </trkpt>
      <trkpt lat="45.13322" lon="4.02102">
        <ele>773.5</ele>
        <time>2019-12-07T13:48:35Z</time>
      </trkpt>
      <trkpt lat="45.13332" lon="4.02103">
        <ele>773.8</ele>
        <time>2019-12-07T13:48:38Z</time>
      </trkpt>
      <trkpt lat="45.13355" lon="4.02108">
        <ele>774.7</ele>
        <time>2019-12-07T13:48:44Z</time>
      </trkpt>
      <trkpt lat="45.13365" lon="4.02111">
        <ele>775.2</ele>
        <time>2019-12-07T13:48:47Z</time>
      </trkpt>
      <trkpt lat="45.1338" lon="4.02113">
        <ele>775.9</ele>
        <time>2019-12-07T13:48:51Z</time>
      </trkpt>
      <trkpt lat="45.13393" lon="4.02117">
        <ele>776.5</ele>
        <time>2019-12-07T13:48:55Z</time>
      </trkpt>
      <trkpt lat="45.13417" lon="4.02123">
        <ele>777.6</ele>
        <time>2019-12-07T13:49:03Z</time>
      </trkpt>
      <trkpt lat="45.13425" lon="4.02126">
        <ele>777.9</ele>
        <time>2019-12-07T13:49:06Z</time>
      </trkpt>
      <trkpt lat="45.13439" lon="4.02134">
        <ele>778.5</ele>
        <time>2019-12-07T13:49:11Z</time>
      </trkpt>
      <trkpt lat="45.13445" lon="4.02138">
        <ele>778.7</ele>
        <time>2019-12-07T13:49:13Z</time>
      </trkpt>
      <trkpt lat="45.13459" lon="4.02148">
        <ele>779.2</ele>
        <time>2019-12-07T13:49:18Z</time>
      </trkpt>
      <trkpt lat="45.13465" lon="4.02155">
        <ele>779.4</ele>
        <time>2019-12-07T13:49:20Z</time>
      </trkpt>
      <trkpt lat="45.13478" lon="4.0217">
        <ele>779.9</ele>
        <time>2019-12-07T13:49:25Z</time>
      </trkpt>
      <trkpt lat="45.13491" lon="4.02193">
        <ele>780.7</ele>
        <time>2019-12-07T13:49:31Z</time>
      </trkpt>
      <trkpt lat="45.13498" lon="4.02214">
        <ele>781.3</ele>
        <time>2019-12-07T13:49:36Z</time>
      </trkpt>
      <trkpt lat="45.13499" lon="4.02279">
        <ele>782.1</ele>
        <time>2019-12-07T13:49:50Z</time>
      </trkpt>
      <trkpt lat="45.13495" lon="4.02292">
        <ele>782</ele>
        <time>2019-12-07T13:49:53Z</time>
      </trkpt>
      <trkpt lat="45.13486" lon="4.02319">
        <ele>782</ele>
        <time>2019-12-07T13:49:59Z</time>
      </trkpt>
      <trkpt lat="45.13482" lon="4.02327">
        <ele>782</ele>
        <time>2019-12-07T13:50:01Z</time>
      </trkpt>
      <trkpt lat="45.13471" lon="4.02345">
        <ele>781.8</ele>
        <time>2019-12-07T13:50:06Z</time>
      </trkpt>
      <trkpt lat="45.13466" lon="4.0235">
        <ele>781.7</ele>
        <time>2019-12-07T13:50:08Z</time>
      </trkpt>
      <trkpt lat="45.13429" lon="4.02373">
        <ele>780.8</ele>
        <time>2019-12-07T13:50:22Z</time>
      </trkpt>
      <trkpt lat="45.13373" lon="4.02357">
        <ele>778.6</ele>
        <time>2019-12-07T13:50:41Z</time>
      </trkpt>
      <trkpt lat="45.1334" lon="4.02332">
        <ele>777</ele>
        <time>2019-12-07T13:50:54Z</time>
      </trkpt>
      <trkpt lat="45.133" lon="4.0232">
        <ele>774.9</ele>
        <time>2019-12-07T13:51:11Z</time>
      </trkpt>
      <trkpt lat="45.13299" lon="4.02321">
        <ele>774.9</ele>
        <time>2019-12-07T13:51:12Z</time>
      </trkpt>
      <trkpt lat="45.13298" lon="4.02324">
        <ele>774.8</ele>
        <time>2019-12-07T13:51:13Z</time>
      </trkpt>
      <trkpt lat="45.13298" lon="4.02326">
        <ele>772.7</ele>
        <time>2019-12-07T13:51:14Z</time>
      </trkpt>
      <trkpt lat="45.13298" lon="4.02328">
        <ele>772.6</ele>
        <time>2019-12-07T13:51:15Z</time>
      </trkpt>
      <trkpt lat="45.13299" lon="4.02329">
        <ele>772.6</ele>
        <time>2019-12-07T13:51:16Z</time>
      </trkpt>
      <trkpt lat="45.13299" lon="4.02331">
        <ele>772.5</ele>
        <time>2019-12-07T13:51:17Z</time>
      </trkpt>
      <trkpt lat="45.13301" lon="4.02332">
        <ele>772.4</ele>
        <time>2019-12-07T13:51:18Z</time>
      </trkpt>
      <trkpt lat="45.13302" lon="4.02333">
        <ele>772.3</ele>
        <time>2019-12-07T13:51:19Z</time>
      </trkpt>
      <trkpt lat="45.13303" lon="4.02334">
        <ele>772.2</ele>
        <time>2019-12-07T13:51:20Z</time>
      </trkpt>
      <trkpt lat="45.13303" lon="4.02335">
        <ele>772.1</ele>
        <time>2019-12-07T13:51:21Z</time>
      </trkpt>
      <trkpt lat="45.13304" lon="4.02336">
        <ele>772</ele>
        <time>2019-12-07T13:51:22Z</time>
      </trkpt>
      <trkpt lat="45.13309" lon="4.02344">
        <ele>771.5</ele>
        <time>2019-12-07T13:51:29Z</time>
      </trkpt>
      <trkpt lat="45.1331" lon="4.02345">
        <ele>771.4</ele>
        <time>2019-12-07T13:51:30Z</time>
      </trkpt>
      <trkpt lat="45.13316" lon="4.02351">
        <ele>771</ele>
        <time>2019-12-07T13:51:36Z</time>
      </trkpt>
      <trkpt lat="45.13319" lon="4.02355">
        <ele>770.7</ele>
        <time>2019-12-07T13:51:40Z</time>
      </trkpt>
      <trkpt lat="45.13319" lon="4.02356">
        <ele>770.6</ele>
        <time>2019-12-07T13:51:41Z</time>
      </trkpt>
      <trkpt lat="45.13335" lon="4.0238">
        <ele>769.3</ele>
        <time>2019-12-07T13:52:02Z</time>
      </trkpt>
      <trkpt lat="45.13337" lon="4.02382">
        <ele>769.2</ele>
        <time>2019-12-07T13:52:04Z</time>
      </trkpt>
      <trkpt lat="45.1334" lon="4.02387">
        <ele>768.9</ele>
        <time>2019-12-07T13:52:07Z</time>
      </trkpt>
      <trkpt lat="45.1334" lon="4.02388">
        <ele>768.9</ele>
        <time>2019-12-07T13:52:08Z</time>
      </trkpt>
      <trkpt lat="45.1334" lon="4.0239">
        <ele>768.8</ele>
        <time>2019-12-07T13:52:09Z</time>
      </trkpt>
      <trkpt lat="45.13341" lon="4.02391">
        <ele>768.7</ele>
        <time>2019-12-07T13:52:10Z</time>
      </trkpt>
      <trkpt lat="45.13342" lon="4.02393">
        <ele>768.7</ele>
        <time>2019-12-07T13:52:11Z</time>
      </trkpt>
      <trkpt lat="45.13342" lon="4.02394">
        <ele>768.6</ele>
        <time>2019-12-07T13:52:12Z</time>
      </trkpt>
      <trkpt lat="45.13343" lon="4.02396">
        <ele>768.5</ele>
        <time>2019-12-07T13:52:13Z</time>
      </trkpt>
      <trkpt lat="45.13344" lon="4.02397">
        <ele>768.4</ele>
        <time>2019-12-07T13:52:14Z</time>
      </trkpt>
      <trkpt lat="45.13345" lon="4.02399">
        <ele>768.4</ele>
        <time>2019-12-07T13:52:15Z</time>
      </trkpt>
      <trkpt lat="45.1335" lon="4.02405">
        <ele>768</ele>
        <time>2019-12-07T13:52:23Z</time>
      </trkpt>
      <trkpt lat="45.1335" lon="4.02405">
        <ele>768</ele>
        <time>2019-12-07T13:52:24Z</time>
      </trkpt>
      <trkpt lat="45.1335" lon="4.02405">
        <ele>768</ele>
        <time>2019-12-07T13:52:25Z</time>
      </trkpt>
      <trkpt lat="45.1335" lon="4.02405">
        <ele>767.9</ele>
        <time>2019-12-07T13:52:27Z</time>
      </trkpt>
      <trkpt lat="45.13349" lon="4.02406">
        <ele>767.9</ele>
        <time>2019-12-07T13:54:28Z</time>
      </trkpt>
      <trkpt lat="45.13351" lon="4.02408">
        <ele>767.7</ele>
        <time>2019-12-07T13:54:29Z</time>
      </trkpt>
      <trkpt lat="45.13352" lon="4.0241">
        <ele>767.6</ele>
        <time>2019-12-07T13:54:30Z</time>
      </trkpt>
      <trkpt lat="45.13379" lon="4.02428">
        <ele>765</ele>
        <time>2019-12-07T13:54:40Z</time>
      </trkpt>
      <trkpt lat="45.13397" lon="4.02433">
        <ele>764.2</ele>
        <time>2019-12-07T13:54:43Z</time>
      </trkpt>
      <trkpt lat="45.13403" lon="4.02438">
        <ele>764.2</ele>
        <time>2019-12-07T13:54:44Z</time>
      </trkpt>
      <trkpt lat="45.1341" lon="4.02444">
        <ele>764.4</ele>
        <time>2019-12-07T13:54:45Z</time>
      </trkpt>
      <trkpt lat="45.13414" lon="4.02454">
        <ele>764.8</ele>
        <time>2019-12-07T13:54:46Z</time>
      </trkpt>
      <trkpt lat="45.13416" lon="4.02465">
        <ele>765.2</ele>
        <time>2019-12-07T13:54:47Z</time>
      </trkpt>
      <trkpt lat="45.13417" lon="4.02475">
        <ele>765.7</ele>
        <time>2019-12-07T13:54:48Z</time>
      </trkpt>
      <trkpt lat="45.13419" lon="4.02485">
        <ele>766.2</ele>
        <time>2019-12-07T13:54:49Z</time>
      </trkpt>
      <trkpt lat="45.13424" lon="4.02502">
        <ele>767.2</ele>
        <time>2019-12-07T13:54:51Z</time>
      </trkpt>
      <trkpt lat="45.13427" lon="4.02508">
        <ele>767.8</ele>
        <time>2019-12-07T13:54:52Z</time>
      </trkpt>
      <trkpt lat="45.13431" lon="4.02513">
        <ele>768.4</ele>
        <time>2019-12-07T13:54:53Z</time>
      </trkpt>
      <trkpt lat="45.13435" lon="4.02517">
        <ele>768.9</ele>
        <time>2019-12-07T13:54:54Z</time>
      </trkpt>
      <trkpt lat="45.13439" lon="4.02518">
        <ele>769.4</ele>
        <time>2019-12-07T13:54:55Z</time>
      </trkpt>
      <trkpt lat="45.13443" lon="4.02519">
        <ele>769.9</ele>
        <time>2019-12-07T13:54:56Z</time>
      </trkpt>
      <trkpt lat="45.13447" lon="4.02518">
        <ele>770.4</ele>
        <time>2019-12-07T13:54:57Z</time>
      </trkpt>
      <trkpt lat="45.1345" lon="4.02516">
        <ele>770.9</ele>
        <time>2019-12-07T13:54:58Z</time>
      </trkpt>
      <trkpt lat="45.13453" lon="4.02515">
        <ele>771.3</ele>
        <time>2019-12-07T13:54:59Z</time>
      </trkpt>
      <trkpt lat="45.13456" lon="4.02514">
        <ele>771.7</ele>
        <time>2019-12-07T13:55:00Z</time>
      </trkpt>
      <trkpt lat="45.13467" lon="4.02511">
        <ele>773.2</ele>
        <time>2019-12-07T13:55:05Z</time>
      </trkpt>
      <trkpt lat="45.13479" lon="4.0251">
        <ele>774.7</ele>
        <time>2019-12-07T13:55:11Z</time>
      </trkpt>
      <trkpt lat="45.13492" lon="4.02513">
        <ele>776.3</ele>
        <time>2019-12-07T13:55:19Z</time>
      </trkpt>
      <trkpt lat="45.13503" lon="4.0252">
        <ele>778</ele>
        <time>2019-12-07T13:55:26Z</time>
      </trkpt>
      <trkpt lat="45.1351" lon="4.02525">
        <ele>779.1</ele>
        <time>2019-12-07T13:55:31Z</time>
      </trkpt>
      <trkpt lat="45.13518" lon="4.02531">
        <ele>780.3</ele>
        <time>2019-12-07T13:55:36Z</time>
      </trkpt>
      <trkpt lat="45.13525" lon="4.02536">
        <ele>781.4</ele>
        <time>2019-12-07T13:55:41Z</time>
      </trkpt>
      <trkpt lat="45.13529" lon="4.02545">
        <ele>782.4</ele>
        <time>2019-12-07T13:55:47Z</time>
      </trkpt>
      <trkpt lat="45.1353" lon="4.02547">
        <ele>782.5</ele>
        <time>2019-12-07T13:55:48Z</time>
      </trkpt>
      <trkpt lat="45.1353" lon="4.02549">
        <ele>782.7</ele>
        <time>2019-12-07T13:55:49Z</time>
      </trkpt>
      <trkpt lat="45.13533" lon="4.02557">
        <ele>783.2</ele>
        <time>2019-12-07T13:55:54Z</time>
      </trkpt>
      <trkpt lat="45.13534" lon="4.02583">
        <ele>784.1</ele>
        <time>2019-12-07T13:56:10Z</time>
      </trkpt>
      <trkpt lat="45.13534" lon="4.02585">
        <ele>784.1</ele>
        <time>2019-12-07T13:56:11Z</time>
      </trkpt>
      <trkpt lat="45.13534" lon="4.02586">
        <ele>784.1</ele>
        <time>2019-12-07T13:56:12Z</time>
      </trkpt>
      <trkpt lat="45.13537" lon="4.02594">
        <ele>784.1</ele>
        <time>2019-12-07T13:56:19Z</time>
      </trkpt>
      <trkpt lat="45.1354" lon="4.02597">
        <ele>784</ele>
        <time>2019-12-07T13:56:26Z</time>
      </trkpt>
      <trkpt lat="45.13541" lon="4.02597">
        <ele>784</ele>
        <time>2019-12-07T13:56:31Z</time>
      </trkpt>
      <trkpt lat="45.13548" lon="4.026">
        <ele>783.7</ele>
        <time>2019-12-07T13:57:27Z</time>
      </trkpt>
      <trkpt lat="45.1355" lon="4.026">
        <ele>783.6</ele>
        <time>2019-12-07T13:57:28Z</time>
      </trkpt>
      <trkpt lat="45.13552" lon="4.026">
        <ele>783.5</ele>
        <time>2019-12-07T13:57:29Z</time>
      </trkpt>
      <trkpt lat="45.13554" lon="4.026">
        <ele>783.4</ele>
        <time>2019-12-07T13:57:30Z</time>
      </trkpt>
      <trkpt lat="45.13561" lon="4.02601">
        <ele>783</ele>
        <time>2019-12-07T13:57:33Z</time>
      </trkpt>
      <trkpt lat="45.1357" lon="4.02604">
        <ele>782.6</ele>
        <time>2019-12-07T13:57:36Z</time>
      </trkpt>
      <trkpt lat="45.13577" lon="4.02606">
        <ele>782.2</ele>
        <time>2019-12-07T13:57:38Z</time>
      </trkpt>
      <trkpt lat="45.13583" lon="4.02609">
        <ele>782</ele>
        <time>2019-12-07T13:57:40Z</time>
      </trkpt>
      <trkpt lat="45.13592" lon="4.02611">
        <ele>781.6</ele>
        <time>2019-12-07T13:57:43Z</time>
      </trkpt>
      <trkpt lat="45.13605" lon="4.0261">
        <ele>781.4</ele>
        <time>2019-12-07T13:57:47Z</time>
      </trkpt>
      <trkpt lat="45.13624" lon="4.02598">
        <ele>781.5</ele>
        <time>2019-12-07T13:57:53Z</time>
      </trkpt>
      <trkpt lat="45.13673" lon="4.02553">
        <ele>782.2</ele>
        <time>2019-12-07T13:58:13Z</time>
      </trkpt>
      <trkpt lat="45.13679" lon="4.02523">
        <ele>782.4</ele>
        <time>2019-12-07T13:58:21Z</time>
      </trkpt>
      <trkpt lat="45.13681" lon="4.02508">
        <ele>782.6</ele>
        <time>2019-12-07T13:58:25Z</time>
      </trkpt>
      <trkpt lat="45.13682" lon="4.02495">
        <ele>782.8</ele>
        <time>2019-12-07T13:58:28Z</time>
      </trkpt>
      <trkpt lat="45.13696" lon="4.02458">
        <ele>784.1</ele>
        <time>2019-12-07T13:58:39Z</time>
      </trkpt>
      <trkpt lat="45.13717" lon="4.02444">
        <ele>785.3</ele>
        <time>2019-12-07T13:58:49Z</time>
      </trkpt>
      <trkpt lat="45.13739" lon="4.02431">
        <ele>786.4</ele>
        <time>2019-12-07T13:58:59Z</time>
      </trkpt>
      <trkpt lat="45.13754" lon="4.02424">
        <ele>787.1</ele>
        <time>2019-12-07T13:59:06Z</time>
      </trkpt>
      <trkpt lat="45.13773" lon="4.02416">
        <ele>787.9</ele>
        <time>2019-12-07T13:59:14Z</time>
      </trkpt>
      <trkpt lat="45.1381" lon="4.02409">
        <ele>790.2</ele>
        <time>2019-12-07T13:59:30Z</time>
      </trkpt>
      <trkpt lat="45.13843" lon="4.0241">
        <ele>793.1</ele>
        <time>2019-12-07T13:59:45Z</time>
      </trkpt>
      <trkpt lat="45.13859" lon="4.02409">
        <ele>795.1</ele>
        <time>2019-12-07T13:59:57Z</time>
      </trkpt>
      <trkpt lat="45.1386" lon="4.02409">
        <ele>795.2</ele>
        <time>2019-12-07T13:59:58Z</time>
      </trkpt>
      <trkpt lat="45.13881" lon="4.02406">
        <ele>797.8</ele>
        <time>2019-12-07T14:00:14Z</time>
      </trkpt>
      <trkpt lat="45.13884" lon="4.02406">
        <ele>798.2</ele>
        <time>2019-12-07T14:00:16Z</time>
      </trkpt>
      <trkpt lat="45.13897" lon="4.02403">
        <ele>799.7</ele>
        <time>2019-12-07T14:00:25Z</time>
      </trkpt>
      <trkpt lat="45.13902" lon="4.02401">
        <ele>800.4</ele>
        <time>2019-12-07T14:00:29Z</time>
      </trkpt>
      <trkpt lat="45.13917" lon="4.02396">
        <ele>801.7</ele>
        <time>2019-12-07T14:00:39Z</time>
      </trkpt>
      <trkpt lat="45.13927" lon="4.02392">
        <ele>802.6</ele>
        <time>2019-12-07T14:00:46Z</time>
      </trkpt>
      <trkpt lat="45.13928" lon="4.02394">
        <ele>802.7</ele>
        <time>2019-12-07T14:00:47Z</time>
      </trkpt>
      <trkpt lat="45.13928" lon="4.02395">
        <ele>802.8</ele>
        <time>2019-12-07T14:00:48Z</time>
      </trkpt>
      <trkpt lat="45.13928" lon="4.02398">
        <ele>802.9</ele>
        <time>2019-12-07T14:00:49Z</time>
      </trkpt>
      <trkpt lat="45.13927" lon="4.02399">
        <ele>803.1</ele>
        <time>2019-12-07T14:00:50Z</time>
      </trkpt>
      <trkpt lat="45.13926" lon="4.02401">
        <ele>803.2</ele>
        <time>2019-12-07T14:00:51Z</time>
      </trkpt>
      <trkpt lat="45.13924" lon="4.02402">
        <ele>803.3</ele>
        <time>2019-12-07T14:00:52Z</time>
      </trkpt>
      <trkpt lat="45.13923" lon="4.02403">
        <ele>803.4</ele>
        <time>2019-12-07T14:00:53Z</time>
      </trkpt>
      <trkpt lat="45.13921" lon="4.02404">
        <ele>803.6</ele>
        <time>2019-12-07T14:00:54Z</time>
      </trkpt>
      <trkpt lat="45.13919" lon="4.02404">
        <ele>803.7</ele>
        <time>2019-12-07T14:00:55Z</time>
      </trkpt>
      <trkpt lat="45.13917" lon="4.02405">
        <ele>803.8</ele>
        <time>2019-12-07T14:00:56Z</time>
      </trkpt>
      <trkpt lat="45.13915" lon="4.02406">
        <ele>803.9</ele>
        <time>2019-12-07T14:00:57Z</time>
      </trkpt>
      <trkpt lat="45.13913" lon="4.02407">
        <ele>804</ele>
        <time>2019-12-07T14:00:58Z</time>
      </trkpt>
      <trkpt lat="45.13911" lon="4.02408">
        <ele>804.1</ele>
        <time>2019-12-07T14:00:59Z</time>
      </trkpt>
      <trkpt lat="45.13893" lon="4.02432">
        <ele>806.5</ele>
        <time>2019-12-07T14:01:11Z</time>
      </trkpt>
      <trkpt lat="45.13895" lon="4.02471">
        <ele>810.5</ele>
        <time>2019-12-07T14:01:26Z</time>
      </trkpt>
      <trkpt lat="45.13895" lon="4.02482">
        <ele>811.8</ele>
        <time>2019-12-07T14:01:31Z</time>
      </trkpt>
      <trkpt lat="45.13897" lon="4.02494">
        <ele>812.6</ele>
        <time>2019-12-07T14:01:37Z</time>
      </trkpt>
      <trkpt lat="45.13905" lon="4.02511">
        <ele>814.6</ele>
        <time>2019-12-07T14:01:47Z</time>
      </trkpt>
      <trkpt lat="45.1391" lon="4.02519">
        <ele>815.6</ele>
        <time>2019-12-07T14:01:54Z</time>
      </trkpt>
      <trkpt lat="45.13913" lon="4.02523">
        <ele>816.2</ele>
        <time>2019-12-07T14:01:57Z</time>
      </trkpt>
      <trkpt lat="45.13918" lon="4.02532">
        <ele>817.3</ele>
        <time>2019-12-07T14:02:04Z</time>
      </trkpt>
      <trkpt lat="45.1392" lon="4.02534">
        <ele>817.9</ele>
        <time>2019-12-07T14:02:06Z</time>
      </trkpt>
      <trkpt lat="45.13929" lon="4.0255">
        <ele>819.5</ele>
        <time>2019-12-07T14:02:18Z</time>
      </trkpt>
      <trkpt lat="45.1393" lon="4.02551">
        <ele>820</ele>
        <time>2019-12-07T14:02:19Z</time>
      </trkpt>
      <trkpt lat="45.13933" lon="4.02556">
        <ele>820.4</ele>
        <time>2019-12-07T14:02:23Z</time>
      </trkpt>
      <trkpt lat="45.13935" lon="4.0256">
        <ele>820.8</ele>
        <time>2019-12-07T14:02:26Z</time>
      </trkpt>
      <trkpt lat="45.13937" lon="4.02563">
        <ele>820.9</ele>
        <time>2019-12-07T14:02:28Z</time>
      </trkpt>
      <trkpt lat="45.13939" lon="4.02569">
        <ele>821.7</ele>
        <time>2019-12-07T14:02:32Z</time>
      </trkpt>
      <trkpt lat="45.13943" lon="4.02575">
        <ele>822</ele>
        <time>2019-12-07T14:02:37Z</time>
      </trkpt>
      <trkpt lat="45.13944" lon="4.02576">
        <ele>822.3</ele>
        <time>2019-12-07T14:02:38Z</time>
      </trkpt>
      <trkpt lat="45.13945" lon="4.02577">
        <ele>822.3</ele>
        <time>2019-12-07T14:02:39Z</time>
      </trkpt>
      <trkpt lat="45.13946" lon="4.02578">
        <ele>822.2</ele>
        <time>2019-12-07T14:02:40Z</time>
      </trkpt>
      <trkpt lat="45.13953" lon="4.02585">
        <ele>822.8</ele>
        <time>2019-12-07T14:02:46Z</time>
      </trkpt>
      <trkpt lat="45.1396" lon="4.02594">
        <ele>823.4</ele>
        <time>2019-12-07T14:02:52Z</time>
      </trkpt>
      <trkpt lat="45.13971" lon="4.02624">
        <ele>825.5</ele>
        <time>2019-12-07T14:03:04Z</time>
      </trkpt>
      <trkpt lat="45.13973" lon="4.02632">
        <ele>826</ele>
        <time>2019-12-07T14:03:08Z</time>
      </trkpt>
      <trkpt lat="45.13975" lon="4.02638">
        <ele>826.4</ele>
        <time>2019-12-07T14:03:11Z</time>
      </trkpt>
      <trkpt lat="45.13979" lon="4.02662">
        <ele>828.6</ele>
        <time>2019-12-07T14:03:22Z</time>
      </trkpt>
      <trkpt lat="45.1398" lon="4.0267">
        <ele>828.7</ele>
        <time>2019-12-07T14:03:26Z</time>
      </trkpt>
      <trkpt lat="45.13982" lon="4.02679">
        <ele>829.8</ele>
        <time>2019-12-07T14:03:30Z</time>
      </trkpt>
      <trkpt lat="45.13985" lon="4.02689">
        <ele>831</ele>
        <time>2019-12-07T14:03:35Z</time>
      </trkpt>
      <trkpt lat="45.13989" lon="4.02696">
        <ele>830.9</ele>
        <time>2019-12-07T14:03:39Z</time>
      </trkpt>
      <trkpt lat="45.13991" lon="4.02699">
        <ele>831.6</ele>
        <time>2019-12-07T14:03:41Z</time>
      </trkpt>
      <trkpt lat="45.13995" lon="4.02707">
        <ele>831.9</ele>
        <time>2019-12-07T14:03:45Z</time>
      </trkpt>
      <trkpt lat="45.13999" lon="4.02714">
        <ele>832.6</ele>
        <time>2019-12-07T14:03:48Z</time>
      </trkpt>
      <trkpt lat="45.14005" lon="4.02724">
        <ele>832.6</ele>
        <time>2019-12-07T14:03:53Z</time>
      </trkpt>
      <trkpt lat="45.14007" lon="4.0273">
        <ele>832.6</ele>
        <time>2019-12-07T14:03:56Z</time>
      </trkpt>
      <trkpt lat="45.14046" lon="4.02756">
        <ele>830.2</ele>
        <time>2019-12-07T14:04:19Z</time>
      </trkpt>
      <trkpt lat="45.14069" lon="4.02785">
        <ele>831</ele>
        <time>2019-12-07T14:04:34Z</time>
      </trkpt>
      <trkpt lat="45.14073" lon="4.02792">
        <ele>832</ele>
        <time>2019-12-07T14:04:37Z</time>
      </trkpt>
      <trkpt lat="45.14075" lon="4.02797">
        <ele>832.3</ele>
        <time>2019-12-07T14:04:39Z</time>
      </trkpt>
      <trkpt lat="45.1408" lon="4.02813">
        <ele>834.5</ele>
        <time>2019-12-07T14:04:46Z</time>
      </trkpt>
      <trkpt lat="45.14081" lon="4.02818">
        <ele>835.2</ele>
        <time>2019-12-07T14:04:48Z</time>
      </trkpt>
      <trkpt lat="45.14083" lon="4.02823">
        <ele>835.4</ele>
        <time>2019-12-07T14:04:51Z</time>
      </trkpt>
      <trkpt lat="45.14084" lon="4.02825">
        <ele>836.1</ele>
        <time>2019-12-07T14:04:52Z</time>
      </trkpt>
      <trkpt lat="45.14085" lon="4.02827">
        <ele>836.2</ele>
        <time>2019-12-07T14:04:53Z</time>
      </trkpt>
      <trkpt lat="45.14086" lon="4.02829">
        <ele>835.6</ele>
        <time>2019-12-07T14:04:54Z</time>
      </trkpt>
      <trkpt lat="45.14087" lon="4.02831">
        <ele>836.4</ele>
        <time>2019-12-07T14:04:55Z</time>
      </trkpt>
      <trkpt lat="45.14088" lon="4.02832">
        <ele>836.5</ele>
        <time>2019-12-07T14:04:56Z</time>
      </trkpt>
      <trkpt lat="45.14099" lon="4.02857">
        <ele>838.9</ele>
        <time>2019-12-07T14:05:11Z</time>
      </trkpt>
      <trkpt lat="45.141" lon="4.02859">
        <ele>839.6</ele>
        <time>2019-12-07T14:05:12Z</time>
      </trkpt>
      <trkpt lat="45.14101" lon="4.02861">
        <ele>839.2</ele>
        <time>2019-12-07T14:05:13Z</time>
      </trkpt>
      <trkpt lat="45.14101" lon="4.02863">
        <ele>839.3</ele>
        <time>2019-12-07T14:05:14Z</time>
      </trkpt>
      <trkpt lat="45.14102" lon="4.02866">
        <ele>840</ele>
        <time>2019-12-07T14:05:15Z</time>
      </trkpt>
      <trkpt lat="45.14103" lon="4.02868">
        <ele>840</ele>
        <time>2019-12-07T14:05:16Z</time>
      </trkpt>
      <trkpt lat="45.14108" lon="4.02885">
        <ele>842.3</ele>
        <time>2019-12-07T14:05:26Z</time>
      </trkpt>
      <trkpt lat="45.14108" lon="4.02894">
        <ele>843</ele>
        <time>2019-12-07T14:05:30Z</time>
      </trkpt>
      <trkpt lat="45.1411" lon="4.02902">
        <ele>844.2</ele>
        <time>2019-12-07T14:05:34Z</time>
      </trkpt>
      <trkpt lat="45.14111" lon="4.02906">
        <ele>844.3</ele>
        <time>2019-12-07T14:05:37Z</time>
      </trkpt>
      <trkpt lat="45.14112" lon="4.02907">
        <ele>844.9</ele>
        <time>2019-12-07T14:05:38Z</time>
      </trkpt>
      <trkpt lat="45.14113" lon="4.02908">
        <ele>844.5</ele>
        <time>2019-12-07T14:05:39Z</time>
      </trkpt>
      <trkpt lat="45.14114" lon="4.0291">
        <ele>844.5</ele>
        <time>2019-12-07T14:05:40Z</time>
      </trkpt>
      <trkpt lat="45.14115" lon="4.02911">
        <ele>845.1</ele>
        <time>2019-12-07T14:05:41Z</time>
      </trkpt>
      <trkpt lat="45.14115" lon="4.02913">
        <ele>845.1</ele>
        <time>2019-12-07T14:05:42Z</time>
      </trkpt>
      <trkpt lat="45.14116" lon="4.02915">
        <ele>844.7</ele>
        <time>2019-12-07T14:05:43Z</time>
      </trkpt>
      <trkpt lat="45.14117" lon="4.02916">
        <ele>845.3</ele>
        <time>2019-12-07T14:05:44Z</time>
      </trkpt>
      <trkpt lat="45.14117" lon="4.02918">
        <ele>845.3</ele>
        <time>2019-12-07T14:05:45Z</time>
      </trkpt>
      <trkpt lat="45.14119" lon="4.02919">
        <ele>844.9</ele>
        <time>2019-12-07T14:05:46Z</time>
      </trkpt>
      <trkpt lat="45.1412" lon="4.0292">
        <ele>845.5</ele>
        <time>2019-12-07T14:05:47Z</time>
      </trkpt>
      <trkpt lat="45.14121" lon="4.02922">
        <ele>845.6</ele>
        <time>2019-12-07T14:05:48Z</time>
      </trkpt>
      <trkpt lat="45.14121" lon="4.02923">
        <ele>845.6</ele>
        <time>2019-12-07T14:05:49Z</time>
      </trkpt>
      <trkpt lat="45.14122" lon="4.02925">
        <ele>845.9</ele>
        <time>2019-12-07T14:05:50Z</time>
      </trkpt>
      <trkpt lat="45.14122" lon="4.02926">
        <ele>845.9</ele>
        <time>2019-12-07T14:05:51Z</time>
      </trkpt>
      <trkpt lat="45.14123" lon="4.02927">
        <ele>846</ele>
        <time>2019-12-07T14:05:52Z</time>
      </trkpt>
      <trkpt lat="45.14124" lon="4.02928">
        <ele>846.6</ele>
        <time>2019-12-07T14:05:53Z</time>
      </trkpt>
      <trkpt lat="45.14125" lon="4.0293">
        <ele>846.4</ele>
        <time>2019-12-07T14:05:54Z</time>
      </trkpt>
      <trkpt lat="45.14128" lon="4.02933">
        <ele>846.8</ele>
        <time>2019-12-07T14:05:56Z</time>
      </trkpt>
      <trkpt lat="45.14135" lon="4.0294">
        <ele>846.8</ele>
        <time>2019-12-07T14:06:01Z</time>
      </trkpt>
      <trkpt lat="45.14139" lon="4.02944">
        <ele>847.1</ele>
        <time>2019-12-07T14:06:04Z</time>
      </trkpt>
      <trkpt lat="45.1414" lon="4.02945">
        <ele>846.8</ele>
        <time>2019-12-07T14:06:05Z</time>
      </trkpt>
      <trkpt lat="45.14141" lon="4.02945">
        <ele>847.5</ele>
        <time>2019-12-07T14:06:06Z</time>
      </trkpt>
      <trkpt lat="45.14142" lon="4.02946">
        <ele>847.5</ele>
        <time>2019-12-07T14:06:07Z</time>
      </trkpt>
      <trkpt lat="45.14144" lon="4.02947">
        <ele>847.2</ele>
        <time>2019-12-07T14:06:08Z</time>
      </trkpt>
      <trkpt lat="45.14146" lon="4.02948">
        <ele>846.9</ele>
        <time>2019-12-07T14:06:09Z</time>
      </trkpt>
      <trkpt lat="45.14149" lon="4.02948">
        <ele>846.6</ele>
        <time>2019-12-07T14:06:10Z</time>
      </trkpt>
      <trkpt lat="45.14171" lon="4.02957">
        <ele>844.7</ele>
        <time>2019-12-07T14:06:24Z</time>
      </trkpt>
      <trkpt lat="45.14172" lon="4.02958">
        <ele>845.3</ele>
        <time>2019-12-07T14:06:25Z</time>
      </trkpt>
      <trkpt lat="45.14175" lon="4.0296">
        <ele>844.9</ele>
        <time>2019-12-07T14:06:27Z</time>
      </trkpt>
      <trkpt lat="45.14177" lon="4.02961">
        <ele>844.5</ele>
        <time>2019-12-07T14:06:28Z</time>
      </trkpt>
      <trkpt lat="45.14207" lon="4.02982">
        <ele>842.9</ele>
        <time>2019-12-07T14:06:39Z</time>
      </trkpt>
      <trkpt lat="45.14215" lon="4.02987">
        <ele>842.8</ele>
        <time>2019-12-07T14:06:41Z</time>
      </trkpt>
      <trkpt lat="45.14218" lon="4.0299">
        <ele>843.1</ele>
        <time>2019-12-07T14:06:42Z</time>
      </trkpt>
      <trkpt lat="45.14247" lon="4.0301">
        <ele>841.5</ele>
        <time>2019-12-07T14:06:56Z</time>
      </trkpt>
      <trkpt lat="45.14248" lon="4.03008">
        <ele>841.1</ele>
        <time>2019-12-07T14:06:58Z</time>
      </trkpt>
      <trkpt lat="45.14251" lon="4.03007">
        <ele>840.7</ele>
        <time>2019-12-07T14:07:06Z</time>
      </trkpt>
      <trkpt lat="45.14259" lon="4.03008">
        <ele>839.6</ele>
        <time>2019-12-07T14:07:17Z</time>
      </trkpt>
      <trkpt lat="45.14261" lon="4.03008">
        <ele>839.6</ele>
        <time>2019-12-07T14:07:18Z</time>
      </trkpt>
      <trkpt lat="45.14267" lon="4.03006">
        <ele>839</ele>
        <time>2019-12-07T14:07:24Z</time>
      </trkpt>
      <trkpt lat="45.14269" lon="4.03006">
        <ele>838.8</ele>
        <time>2019-12-07T14:07:26Z</time>
      </trkpt>
      <trkpt lat="45.14274" lon="4.03006">
        <ele>838.3</ele>
        <time>2019-12-07T14:07:29Z</time>
      </trkpt>
      <trkpt lat="45.14299" lon="4.03015">
        <ele>836.8</ele>
        <time>2019-12-07T14:07:39Z</time>
      </trkpt>
      <trkpt lat="45.1432" lon="4.03023">
        <ele>835.9</ele>
        <time>2019-12-07T14:07:45Z</time>
      </trkpt>
      <trkpt lat="45.14352" lon="4.03036">
        <ele>834.7</ele>
        <time>2019-12-07T14:07:54Z</time>
      </trkpt>
      <trkpt lat="45.14375" lon="4.03101">
        <ele>835.4</ele>
        <time>2019-12-07T14:08:15Z</time>
      </trkpt>
      <trkpt lat="45.14369" lon="4.03157">
        <ele>837.4</ele>
        <time>2019-12-07T14:08:30Z</time>
      </trkpt>
      <trkpt lat="45.14366" lon="4.0317">
        <ele>837.8</ele>
        <time>2019-12-07T14:08:34Z</time>
      </trkpt>
      <trkpt lat="45.14361" lon="4.03183">
        <ele>838.2</ele>
        <time>2019-12-07T14:08:38Z</time>
      </trkpt>
      <trkpt lat="45.14353" lon="4.03202">
        <ele>839.3</ele>
        <time>2019-12-07T14:08:45Z</time>
      </trkpt>
      <trkpt lat="45.14349" lon="4.03218">
        <ele>840.4</ele>
        <time>2019-12-07T14:08:51Z</time>
      </trkpt>
      <trkpt lat="45.14349" lon="4.0322">
        <ele>840.2</ele>
        <time>2019-12-07T14:08:52Z</time>
      </trkpt>
      <trkpt lat="45.14351" lon="4.03227">
        <ele>840.4</ele>
        <time>2019-12-07T14:08:55Z</time>
      </trkpt>
      <trkpt lat="45.14353" lon="4.03228">
        <ele>840.1</ele>
        <time>2019-12-07T14:08:56Z</time>
      </trkpt>
      <trkpt lat="45.14355" lon="4.0323">
        <ele>839.8</ele>
        <time>2019-12-07T14:08:57Z</time>
      </trkpt>
      <trkpt lat="45.14358" lon="4.03232">
        <ele>839.4</ele>
        <time>2019-12-07T14:08:58Z</time>
      </trkpt>
      <trkpt lat="45.14361" lon="4.03234">
        <ele>839</ele>
        <time>2019-12-07T14:08:59Z</time>
      </trkpt>
      <trkpt lat="45.14365" lon="4.03236">
        <ele>838.7</ele>
        <time>2019-12-07T14:09:00Z</time>
      </trkpt>
      <trkpt lat="45.14372" lon="4.0324">
        <ele>837.8</ele>
        <time>2019-12-07T14:09:02Z</time>
      </trkpt>
      <trkpt lat="45.14381" lon="4.03243">
        <ele>836.5</ele>
        <time>2019-12-07T14:09:04Z</time>
      </trkpt>
      <trkpt lat="45.14416" lon="4.03261">
        <ele>832.4</ele>
        <time>2019-12-07T14:09:10Z</time>
      </trkpt>
      <trkpt lat="45.14431" lon="4.03272">
        <ele>832.2</ele>
        <time>2019-12-07T14:09:13Z</time>
      </trkpt>
      <trkpt lat="45.14435" lon="4.03277">
        <ele>832.3</ele>
        <time>2019-12-07T14:09:14Z</time>
      </trkpt>
      <trkpt lat="45.14438" lon="4.03282">
        <ele>832.4</ele>
        <time>2019-12-07T14:09:15Z</time>
      </trkpt>
      <trkpt lat="45.1444" lon="4.03288">
        <ele>832.5</ele>
        <time>2019-12-07T14:09:16Z</time>
      </trkpt>
      <trkpt lat="45.14441" lon="4.03295">
        <ele>832.9</ele>
        <time>2019-12-07T14:09:17Z</time>
      </trkpt>
      <trkpt lat="45.1444" lon="4.033">
        <ele>833.1</ele>
        <time>2019-12-07T14:09:18Z</time>
      </trkpt>
      <trkpt lat="45.14439" lon="4.03305">
        <ele>833.3</ele>
        <time>2019-12-07T14:09:19Z</time>
      </trkpt>
      <trkpt lat="45.14438" lon="4.0331">
        <ele>833.6</ele>
        <time>2019-12-07T14:09:20Z</time>
      </trkpt>
      <trkpt lat="45.14432" lon="4.03344">
        <ele>834.4</ele>
        <time>2019-12-07T14:09:28Z</time>
      </trkpt>
      <trkpt lat="45.14434" lon="4.03351">
        <ele>834.6</ele>
        <time>2019-12-07T14:09:31Z</time>
      </trkpt>
      <trkpt lat="45.14435" lon="4.03353">
        <ele>834.8</ele>
        <time>2019-12-07T14:09:32Z</time>
      </trkpt>
      <trkpt lat="45.14436" lon="4.03354">
        <ele>834.8</ele>
        <time>2019-12-07T14:09:33Z</time>
      </trkpt>
      <trkpt lat="45.1444" lon="4.03356">
        <ele>834.9</ele>
        <time>2019-12-07T14:09:36Z</time>
      </trkpt>
      <trkpt lat="45.14454" lon="4.03357">
        <ele>835</ele>
        <time>2019-12-07T14:09:44Z</time>
      </trkpt>
      <trkpt lat="45.14489" lon="4.03318">
        <ele>834.4</ele>
        <time>2019-12-07T14:10:05Z</time>
      </trkpt>
      <trkpt lat="45.14502" lon="4.0331">
        <ele>834.7</ele>
        <time>2019-12-07T14:10:11Z</time>
      </trkpt>
      <trkpt lat="45.14522" lon="4.03298">
        <ele>835.6</ele>
        <time>2019-12-07T14:10:20Z</time>
      </trkpt>
      <trkpt lat="45.14574" lon="4.03263">
        <ele>838.4</ele>
        <time>2019-12-07T14:10:43Z</time>
      </trkpt>
      <trkpt lat="45.14579" lon="4.0326">
        <ele>838.9</ele>
        <time>2019-12-07T14:10:45Z</time>
      </trkpt>
      <trkpt lat="45.14584" lon="4.03256">
        <ele>839</ele>
        <time>2019-12-07T14:10:47Z</time>
      </trkpt>
      <trkpt lat="45.146" lon="4.0324">
        <ele>839.8</ele>
        <time>2019-12-07T14:10:54Z</time>
      </trkpt>
      <trkpt lat="45.14613" lon="4.03221">
        <ele>841.1</ele>
        <time>2019-12-07T14:11:02Z</time>
      </trkpt>
      <trkpt lat="45.14614" lon="4.03218">
        <ele>841.1</ele>
        <time>2019-12-07T14:11:03Z</time>
      </trkpt>
      <trkpt lat="45.14625" lon="4.03186">
        <ele>842.5</ele>
        <time>2019-12-07T14:11:19Z</time>
      </trkpt>
      <trkpt lat="45.14626" lon="4.03184">
        <ele>842.6</ele>
        <time>2019-12-07T14:11:20Z</time>
      </trkpt>
      <trkpt lat="45.14627" lon="4.03182">
        <ele>842.6</ele>
        <time>2019-12-07T14:11:22Z</time>
      </trkpt>
      <trkpt lat="45.14628" lon="4.03181">
        <ele>843.1</ele>
        <time>2019-12-07T14:11:23Z</time>
      </trkpt>
      <trkpt lat="45.14628" lon="4.0318">
        <ele>843.1</ele>
        <time>2019-12-07T14:11:24Z</time>
      </trkpt>
      <trkpt lat="45.14628" lon="4.03178">
        <ele>843.2</ele>
        <time>2019-12-07T14:11:25Z</time>
      </trkpt>
      <trkpt lat="45.14628" lon="4.03176">
        <ele>843.3</ele>
        <time>2019-12-07T14:11:26Z</time>
      </trkpt>
      <trkpt lat="45.14629" lon="4.03175">
        <ele>843.3</ele>
        <time>2019-12-07T14:11:27Z</time>
      </trkpt>
      <trkpt lat="45.14629" lon="4.03173">
        <ele>843.3</ele>
        <time>2019-12-07T14:11:28Z</time>
      </trkpt>
      <trkpt lat="45.1463" lon="4.03171">
        <ele>843.4</ele>
        <time>2019-12-07T14:11:29Z</time>
      </trkpt>
      <trkpt lat="45.1463" lon="4.0317">
        <ele>843.5</ele>
        <time>2019-12-07T14:11:30Z</time>
      </trkpt>
      <trkpt lat="45.14631" lon="4.03165">
        <ele>844</ele>
        <time>2019-12-07T14:11:33Z</time>
      </trkpt>
      <trkpt lat="45.14632" lon="4.0316">
        <ele>844.1</ele>
        <time>2019-12-07T14:11:35Z</time>
      </trkpt>
      <trkpt lat="45.14634" lon="4.03155">
        <ele>844.8</ele>
        <time>2019-12-07T14:11:38Z</time>
      </trkpt>
      <trkpt lat="45.14642" lon="4.03131">
        <ele>846.2</ele>
        <time>2019-12-07T14:11:51Z</time>
      </trkpt>
      <trkpt lat="45.14647" lon="4.03119">
        <ele>847.3</ele>
        <time>2019-12-07T14:11:58Z</time>
      </trkpt>
      <trkpt lat="45.14647" lon="4.03118">
        <ele>847.3</ele>
        <time>2019-12-07T14:11:59Z</time>
      </trkpt>
      <trkpt lat="45.14648" lon="4.03117">
        <ele>847.5</ele>
        <time>2019-12-07T14:12:00Z</time>
      </trkpt>
      <trkpt lat="45.14648" lon="4.03115">
        <ele>847.9</ele>
        <time>2019-12-07T14:12:01Z</time>
      </trkpt>
      <trkpt lat="45.14649" lon="4.03112">
        <ele>848.1</ele>
        <time>2019-12-07T14:12:02Z</time>
      </trkpt>
      <trkpt lat="45.14649" lon="4.03111">
        <ele>848.1</ele>
        <time>2019-12-07T14:12:03Z</time>
      </trkpt>
      <trkpt lat="45.1465" lon="4.03107">
        <ele>848.4</ele>
        <time>2019-12-07T14:12:05Z</time>
      </trkpt>
      <trkpt lat="45.14655" lon="4.03099">
        <ele>849.3</ele>
        <time>2019-12-07T14:12:11Z</time>
      </trkpt>
      <trkpt lat="45.1466" lon="4.03098">
        <ele>849.8</ele>
        <time>2019-12-07T14:12:15Z</time>
      </trkpt>
      <trkpt lat="45.14678" lon="4.03105">
        <ele>851.8</ele>
        <time>2019-12-07T14:12:29Z</time>
      </trkpt>
      <trkpt lat="45.14679" lon="4.03105">
        <ele>852</ele>
        <time>2019-12-07T14:12:30Z</time>
      </trkpt>
      <trkpt lat="45.1468" lon="4.03104">
        <ele>852.1</ele>
        <time>2019-12-07T14:12:31Z</time>
      </trkpt>
      <trkpt lat="45.14681" lon="4.03103">
        <ele>852.2</ele>
        <time>2019-12-07T14:12:32Z</time>
      </trkpt>
      <trkpt lat="45.14681" lon="4.03102">
        <ele>852.3</ele>
        <time>2019-12-07T14:12:33Z</time>
      </trkpt>
      <trkpt lat="45.14681" lon="4.03101">
        <ele>852.4</ele>
        <time>2019-12-07T14:12:34Z</time>
      </trkpt>
      <trkpt lat="45.14682" lon="4.03099">
        <ele>852.5</ele>
        <time>2019-12-07T14:12:35Z</time>
      </trkpt>
      <trkpt lat="45.14682" lon="4.03098">
        <ele>852.6</ele>
        <time>2019-12-07T14:12:36Z</time>
      </trkpt>
      <trkpt lat="45.14682" lon="4.03096">
        <ele>852.7</ele>
        <time>2019-12-07T14:12:37Z</time>
      </trkpt>
      <trkpt lat="45.14682" lon="4.03095">
        <ele>852.9</ele>
        <time>2019-12-07T14:12:38Z</time>
      </trkpt>
      <trkpt lat="45.14683" lon="4.03093">
        <ele>853</ele>
        <time>2019-12-07T14:12:39Z</time>
      </trkpt>
      <trkpt lat="45.14683" lon="4.03092">
        <ele>853.1</ele>
        <time>2019-12-07T14:12:40Z</time>
      </trkpt>
      <trkpt lat="45.14684" lon="4.0308">
        <ele>854.2</ele>
        <time>2019-12-07T14:12:47Z</time>
      </trkpt>
      <trkpt lat="45.14684" lon="4.03078">
        <ele>854.3</ele>
        <time>2019-12-07T14:12:48Z</time>
      </trkpt>
      <trkpt lat="45.14685" lon="4.03072">
        <ele>854.9</ele>
        <time>2019-12-07T14:12:52Z</time>
      </trkpt>
      <trkpt lat="45.14685" lon="4.0307">
        <ele>855</ele>
        <time>2019-12-07T14:12:53Z</time>
      </trkpt>
      <trkpt lat="45.1469" lon="4.03063">
        <ele>855.8</ele>
        <time>2019-12-07T14:13:01Z</time>
      </trkpt>
      <trkpt lat="45.14692" lon="4.03062">
        <ele>856</ele>
        <time>2019-12-07T14:13:02Z</time>
      </trkpt>
      <trkpt lat="45.14693" lon="4.03062">
        <ele>856.1</ele>
        <time>2019-12-07T14:13:03Z</time>
      </trkpt>
      <trkpt lat="45.14696" lon="4.03059">
        <ele>856.7</ele>
        <time>2019-12-07T14:13:07Z</time>
      </trkpt>
      <trkpt lat="45.14697" lon="4.03059">
        <ele>856.9</ele>
        <time>2019-12-07T14:13:08Z</time>
      </trkpt>
      <trkpt lat="45.14701" lon="4.03057">
        <ele>857.6</ele>
        <time>2019-12-07T14:13:11Z</time>
      </trkpt>
      <trkpt lat="45.14704" lon="4.03057">
        <ele>858.1</ele>
        <time>2019-12-07T14:13:13Z</time>
      </trkpt>
      <trkpt lat="45.14705" lon="4.03058">
        <ele>858.4</ele>
        <time>2019-12-07T14:13:14Z</time>
      </trkpt>
      <trkpt lat="45.14707" lon="4.03059">
        <ele>858.7</ele>
        <time>2019-12-07T14:13:15Z</time>
      </trkpt>
      <trkpt lat="45.14708" lon="4.03061">
        <ele>858.9</ele>
        <time>2019-12-07T14:13:16Z</time>
      </trkpt>
      <trkpt lat="45.14709" lon="4.03062">
        <ele>859</ele>
        <time>2019-12-07T14:13:17Z</time>
      </trkpt>
      <trkpt lat="45.14713" lon="4.03067">
        <ele>859</ele>
        <time>2019-12-07T14:13:20Z</time>
      </trkpt>
      <trkpt lat="45.14716" lon="4.0307">
        <ele>859.1</ele>
        <time>2019-12-07T14:13:22Z</time>
      </trkpt>
      <trkpt lat="45.14733" lon="4.03091">
        <ele>859.8</ele>
        <time>2019-12-07T14:13:32Z</time>
      </trkpt>
      <trkpt lat="45.14742" lon="4.03101">
        <ele>860.1</ele>
        <time>2019-12-07T14:13:36Z</time>
      </trkpt>
      <trkpt lat="45.14761" lon="4.03125">
        <ele>860.3</ele>
        <time>2019-12-07T14:13:44Z</time>
      </trkpt>
      <trkpt lat="45.1477" lon="4.03138">
        <ele>860.4</ele>
        <time>2019-12-07T14:13:48Z</time>
      </trkpt>
      <trkpt lat="45.14777" lon="4.0315">
        <ele>860.4</ele>
        <time>2019-12-07T14:13:51Z</time>
      </trkpt>
      <trkpt lat="45.14788" lon="4.03171">
        <ele>860.5</ele>
        <time>2019-12-07T14:13:56Z</time>
      </trkpt>
      <trkpt lat="45.14817" lon="4.03235">
        <ele>861.5</ele>
        <time>2019-12-07T14:14:10Z</time>
      </trkpt>
      <trkpt lat="45.14837" lon="4.03294">
        <ele>864</ele>
        <time>2019-12-07T14:14:23Z</time>
      </trkpt>
      <trkpt lat="45.1484" lon="4.033">
        <ele>864.5</ele>
        <time>2019-12-07T14:14:25Z</time>
      </trkpt>
      <trkpt lat="45.14869" lon="4.03329">
        <ele>867.6</ele>
        <time>2019-12-07T14:14:38Z</time>
      </trkpt>
      <trkpt lat="45.14888" lon="4.0335">
        <ele>868.3</ele>
        <time>2019-12-07T14:14:46Z</time>
      </trkpt>
      <trkpt lat="45.14893" lon="4.03355">
        <ele>868.5</ele>
        <time>2019-12-07T14:14:48Z</time>
      </trkpt>
      <trkpt lat="45.14898" lon="4.0336">
        <ele>868.7</ele>
        <time>2019-12-07T14:14:50Z</time>
      </trkpt>
      <trkpt lat="45.14912" lon="4.03377">
        <ele>869.1</ele>
        <time>2019-12-07T14:14:56Z</time>
      </trkpt>
      <trkpt lat="45.14917" lon="4.03383">
        <ele>869.1</ele>
        <time>2019-12-07T14:14:58Z</time>
      </trkpt>
      <trkpt lat="45.14946" lon="4.03422">
        <ele>869.2</ele>
        <time>2019-12-07T14:15:08Z</time>
      </trkpt>
      <trkpt lat="45.14949" lon="4.03427">
        <ele>869.2</ele>
        <time>2019-12-07T14:15:09Z</time>
      </trkpt>
      <trkpt lat="45.14951" lon="4.03431">
        <ele>869.2</ele>
        <time>2019-12-07T14:15:10Z</time>
      </trkpt>
      <trkpt lat="45.14954" lon="4.03436">
        <ele>869.2</ele>
        <time>2019-12-07T14:15:11Z</time>
      </trkpt>
      <trkpt lat="45.14956" lon="4.0344">
        <ele>869.3</ele>
        <time>2019-12-07T14:15:12Z</time>
      </trkpt>
      <trkpt lat="45.1496" lon="4.03448">
        <ele>869.3</ele>
        <time>2019-12-07T14:15:14Z</time>
      </trkpt>
      <trkpt lat="45.14984" lon="4.03504">
        <ele>870.3</ele>
        <time>2019-12-07T14:15:25Z</time>
      </trkpt>
      <trkpt lat="45.15012" lon="4.03575">
        <ele>872.2</ele>
        <time>2019-12-07T14:15:38Z</time>
      </trkpt>
      <trkpt lat="45.15018" lon="4.0359">
        <ele>872.8</ele>
        <time>2019-12-07T14:15:41Z</time>
      </trkpt>
      <trkpt lat="45.15038" lon="4.0365">
        <ele>875.8</ele>
        <time>2019-12-07T14:15:54Z</time>
      </trkpt>
      <trkpt lat="45.15039" lon="4.03654">
        <ele>876.1</ele>
        <time>2019-12-07T14:15:55Z</time>
      </trkpt>
      <trkpt lat="45.15051" lon="4.03693">
        <ele>877.2</ele>
        <time>2019-12-07T14:16:04Z</time>
      </trkpt>
      <trkpt lat="45.15059" lon="4.03719">
        <ele>877.3</ele>
        <time>2019-12-07T14:16:11Z</time>
      </trkpt>
      <trkpt lat="45.1506" lon="4.03723">
        <ele>877.3</ele>
        <time>2019-12-07T14:16:12Z</time>
      </trkpt>
      <trkpt lat="45.15082" lon="4.03774">
        <ele>876.1</ele>
        <time>2019-12-07T14:16:24Z</time>
      </trkpt>
      <trkpt lat="45.15113" lon="4.03846">
        <ele>872</ele>
        <time>2019-12-07T14:16:33Z</time>
      </trkpt>
      <trkpt lat="45.15129" lon="4.03876">
        <ele>870.4</ele>
        <time>2019-12-07T14:16:37Z</time>
      </trkpt>
      <trkpt lat="45.15131" lon="4.03881">
        <ele>870.2</ele>
        <time>2019-12-07T14:16:38Z</time>
      </trkpt>
      <trkpt lat="45.15136" lon="4.03888">
        <ele>869.9</ele>
        <time>2019-12-07T14:16:40Z</time>
      </trkpt>
      <trkpt lat="45.15149" lon="4.03906">
        <ele>869</ele>
        <time>2019-12-07T14:16:44Z</time>
      </trkpt>
      <trkpt lat="45.15151" lon="4.03913">
        <ele>868.6</ele>
        <time>2019-12-07T14:16:45Z</time>
      </trkpt>
      <trkpt lat="45.15153" lon="4.0392">
        <ele>868.6</ele>
        <time>2019-12-07T14:16:46Z</time>
      </trkpt>
      <trkpt lat="45.15155" lon="4.03928">
        <ele>868.8</ele>
        <time>2019-12-07T14:16:47Z</time>
      </trkpt>
      <trkpt lat="45.15155" lon="4.03934">
        <ele>868.9</ele>
        <time>2019-12-07T14:16:48Z</time>
      </trkpt>
      <trkpt lat="45.15155" lon="4.0394">
        <ele>869</ele>
        <time>2019-12-07T14:16:49Z</time>
      </trkpt>
      <trkpt lat="45.15154" lon="4.03945">
        <ele>869.1</ele>
        <time>2019-12-07T14:16:50Z</time>
      </trkpt>
      <trkpt lat="45.15153" lon="4.03947">
        <ele>869.1</ele>
        <time>2019-12-07T14:16:51Z</time>
      </trkpt>
      <trkpt lat="45.15153" lon="4.0395">
        <ele>869.2</ele>
        <time>2019-12-07T14:16:52Z</time>
      </trkpt>
      <trkpt lat="45.15153" lon="4.03953">
        <ele>869.1</ele>
        <time>2019-12-07T14:16:53Z</time>
      </trkpt>
      <trkpt lat="45.15152" lon="4.03958">
        <ele>869.1</ele>
        <time>2019-12-07T14:16:56Z</time>
      </trkpt>
      <trkpt lat="45.15151" lon="4.03957">
        <ele>869.1</ele>
        <time>2019-12-07T14:17:01Z</time>
      </trkpt>
      <trkpt lat="45.15144" lon="4.03949">
        <ele>869</ele>
        <time>2019-12-07T14:22:28Z</time>
      </trkpt>
      <trkpt lat="45.15143" lon="4.0395">
        <ele>869</ele>
        <time>2019-12-07T14:22:29Z</time>
      </trkpt>
      <trkpt lat="45.15143" lon="4.03951">
        <ele>869</ele>
        <time>2019-12-07T14:22:30Z</time>
      </trkpt>
      <trkpt lat="45.15144" lon="4.03951">
        <ele>869</ele>
        <time>2019-12-07T14:22:35Z</time>
      </trkpt>
      <trkpt lat="45.15157" lon="4.03939">
        <ele>868.8</ele>
        <time>2019-12-07T14:34:14Z</time>
      </trkpt>
      <trkpt lat="45.15157" lon="4.03937">
        <ele>868.8</ele>
        <time>2019-12-07T14:34:15Z</time>
      </trkpt>
      <trkpt lat="45.1516" lon="4.03915">
        <ele>868.5</ele>
        <time>2019-12-07T14:34:22Z</time>
      </trkpt>
      <trkpt lat="45.15162" lon="4.03913">
        <ele>868.4</ele>
        <time>2019-12-07T14:34:23Z</time>
      </trkpt>
      <trkpt lat="45.15164" lon="4.03912">
        <ele>867.4</ele>
        <time>2019-12-07T14:34:24Z</time>
      </trkpt>
      <trkpt lat="45.15167" lon="4.03911">
        <ele>867.1</ele>
        <time>2019-12-07T14:34:25Z</time>
      </trkpt>
      <trkpt lat="45.15169" lon="4.0391">
        <ele>866.8</ele>
        <time>2019-12-07T14:34:26Z</time>
      </trkpt>
      <trkpt lat="45.15172" lon="4.0391">
        <ele>866.5</ele>
        <time>2019-12-07T14:34:27Z</time>
      </trkpt>
      <trkpt lat="45.15175" lon="4.0391">
        <ele>866.3</ele>
        <time>2019-12-07T14:34:28Z</time>
      </trkpt>
      <trkpt lat="45.15201" lon="4.03899">
        <ele>864.4</ele>
        <time>2019-12-07T14:34:39Z</time>
      </trkpt>
      <trkpt lat="45.15213" lon="4.03881">
        <ele>863.2</ele>
        <time>2019-12-07T14:34:45Z</time>
      </trkpt>
      <trkpt lat="45.15229" lon="4.03858">
        <ele>860.7</ele>
        <time>2019-12-07T14:34:53Z</time>
      </trkpt>
      <trkpt lat="45.15238" lon="4.03846">
        <ele>859.5</ele>
        <time>2019-12-07T14:34:58Z</time>
      </trkpt>
      <trkpt lat="45.15264" lon="4.03841">
        <ele>857.8</ele>
        <time>2019-12-07T14:35:07Z</time>
      </trkpt>
      <trkpt lat="45.15305" lon="4.03892">
        <ele>855.3</ele>
        <time>2019-12-07T14:35:26Z</time>
      </trkpt>
      <trkpt lat="45.15308" lon="4.03892">
        <ele>854.8</ele>
        <time>2019-12-07T14:35:27Z</time>
      </trkpt>
      <trkpt lat="45.15311" lon="4.03891">
        <ele>854.4</ele>
        <time>2019-12-07T14:35:28Z</time>
      </trkpt>
      <trkpt lat="45.15314" lon="4.0389">
        <ele>854</ele>
        <time>2019-12-07T14:35:29Z</time>
      </trkpt>
      <trkpt lat="45.15317" lon="4.03888">
        <ele>853.6</ele>
        <time>2019-12-07T14:35:30Z</time>
      </trkpt>
      <trkpt lat="45.1532" lon="4.03887">
        <ele>853.2</ele>
        <time>2019-12-07T14:35:31Z</time>
      </trkpt>
      <trkpt lat="45.15345" lon="4.03882">
        <ele>850.2</ele>
        <time>2019-12-07T14:35:40Z</time>
      </trkpt>
      <trkpt lat="45.15376" lon="4.03889">
        <ele>847.1</ele>
        <time>2019-12-07T14:35:48Z</time>
      </trkpt>
      <trkpt lat="45.15395" lon="4.03906">
        <ele>846.1</ele>
        <time>2019-12-07T14:35:54Z</time>
      </trkpt>
      <trkpt lat="45.15422" lon="4.03951">
        <ele>843.9</ele>
        <time>2019-12-07T14:36:07Z</time>
      </trkpt>
      <trkpt lat="45.15436" lon="4.03974">
        <ele>843.7</ele>
        <time>2019-12-07T14:36:16Z</time>
      </trkpt>
      <trkpt lat="45.15486" lon="4.03999">
        <ele>843.5</ele>
        <time>2019-12-07T14:36:37Z</time>
      </trkpt>
      <trkpt lat="45.15519" lon="4.04004">
        <ele>842.4</ele>
        <time>2019-12-07T14:36:48Z</time>
      </trkpt>
      <trkpt lat="45.15576" lon="4.04013">
        <ele>837.5</ele>
        <time>2019-12-07T14:37:02Z</time>
      </trkpt>
      <trkpt lat="45.1559" lon="4.04014">
        <ele>836.7</ele>
        <time>2019-12-07T14:37:05Z</time>
      </trkpt>
      <trkpt lat="45.15595" lon="4.04016">
        <ele>836.6</ele>
        <time>2019-12-07T14:37:06Z</time>
      </trkpt>
      <trkpt lat="45.15604" lon="4.0402">
        <ele>836.2</ele>
        <time>2019-12-07T14:37:08Z</time>
      </trkpt>
      <trkpt lat="45.15614" lon="4.04025">
        <ele>835.7</ele>
        <time>2019-12-07T14:37:10Z</time>
      </trkpt>
      <trkpt lat="45.15664" lon="4.04046">
        <ele>834.3</ele>
        <time>2019-12-07T14:37:20Z</time>
      </trkpt>
      <trkpt lat="45.15691" lon="4.04061">
        <ele>834.2</ele>
        <time>2019-12-07T14:37:27Z</time>
      </trkpt>
      <trkpt lat="45.15734" lon="4.04096">
        <ele>834.2</ele>
        <time>2019-12-07T14:37:41Z</time>
      </trkpt>
      <trkpt lat="45.15765" lon="4.04101">
        <ele>834.1</ele>
        <time>2019-12-07T14:37:50Z</time>
      </trkpt>
      <trkpt lat="45.15779" lon="4.04097">
        <ele>832.8</ele>
        <time>2019-12-07T14:38:00Z</time>
      </trkpt>
      <trkpt lat="45.15781" lon="4.04097">
        <ele>832.6</ele>
        <time>2019-12-07T14:38:01Z</time>
      </trkpt>
      <trkpt lat="45.15783" lon="4.04096">
        <ele>832.4</ele>
        <time>2019-12-07T14:38:02Z</time>
      </trkpt>
      <trkpt lat="45.15784" lon="4.04096">
        <ele>832.2</ele>
        <time>2019-12-07T14:38:03Z</time>
      </trkpt>
      <trkpt lat="45.15786" lon="4.04095">
        <ele>832.1</ele>
        <time>2019-12-07T14:38:04Z</time>
      </trkpt>
      <trkpt lat="45.15841" lon="4.04082">
        <ele>828.1</ele>
        <time>2019-12-07T14:38:21Z</time>
      </trkpt>
      <trkpt lat="45.15865" lon="4.04077">
        <ele>825.5</ele>
        <time>2019-12-07T14:38:26Z</time>
      </trkpt>
      <trkpt lat="45.15895" lon="4.04073">
        <ele>823.3</ele>
        <time>2019-12-07T14:38:31Z</time>
      </trkpt>
      <trkpt lat="45.15903" lon="4.04072">
        <ele>822.7</ele>
        <time>2019-12-07T14:38:32Z</time>
      </trkpt>
      <trkpt lat="45.15911" lon="4.0407">
        <ele>822.2</ele>
        <time>2019-12-07T14:38:33Z</time>
      </trkpt>
      <trkpt lat="45.15927" lon="4.04066">
        <ele>821.4</ele>
        <time>2019-12-07T14:38:35Z</time>
      </trkpt>
      <trkpt lat="45.15934" lon="4.04069">
        <ele>821.2</ele>
        <time>2019-12-07T14:38:36Z</time>
      </trkpt>
      <trkpt lat="45.15941" lon="4.04073">
        <ele>821</ele>
        <time>2019-12-07T14:38:37Z</time>
      </trkpt>
      <trkpt lat="45.15948" lon="4.04079">
        <ele>820.7</ele>
        <time>2019-12-07T14:38:38Z</time>
      </trkpt>
      <trkpt lat="45.15955" lon="4.04086">
        <ele>820.5</ele>
        <time>2019-12-07T14:38:39Z</time>
      </trkpt>
      <trkpt lat="45.1596" lon="4.04093">
        <ele>820.2</ele>
        <time>2019-12-07T14:38:40Z</time>
      </trkpt>
      <trkpt lat="45.15993" lon="4.0413">
        <ele>818.9</ele>
        <time>2019-12-07T14:38:46Z</time>
      </trkpt>
      <trkpt lat="45.15998" lon="4.04135">
        <ele>818.7</ele>
        <time>2019-12-07T14:38:47Z</time>
      </trkpt>
      <trkpt lat="45.16002" lon="4.04141">
        <ele>818.6</ele>
        <time>2019-12-07T14:38:48Z</time>
      </trkpt>
      <trkpt lat="45.16045" lon="4.04199">
        <ele>818.6</ele>
        <time>2019-12-07T14:39:00Z</time>
      </trkpt>
      <trkpt lat="45.16086" lon="4.04236">
        <ele>815.1</ele>
        <time>2019-12-07T14:39:12Z</time>
      </trkpt>
      <trkpt lat="45.16113" lon="4.04265">
        <ele>813.4</ele>
        <time>2019-12-07T14:39:18Z</time>
      </trkpt>
      <trkpt lat="45.16121" lon="4.04273">
        <ele>813.2</ele>
        <time>2019-12-07T14:39:20Z</time>
      </trkpt>
      <trkpt lat="45.16126" lon="4.04276">
        <ele>813.1</ele>
        <time>2019-12-07T14:39:21Z</time>
      </trkpt>
      <trkpt lat="45.16132" lon="4.04278">
        <ele>812.9</ele>
        <time>2019-12-07T14:39:22Z</time>
      </trkpt>
      <trkpt lat="45.16137" lon="4.04278">
        <ele>812.6</ele>
        <time>2019-12-07T14:39:23Z</time>
      </trkpt>
      <trkpt lat="45.16143" lon="4.04279">
        <ele>812.1</ele>
        <time>2019-12-07T14:39:24Z</time>
      </trkpt>
      <trkpt lat="45.16173" lon="4.04282">
        <ele>809</ele>
        <time>2019-12-07T14:39:28Z</time>
      </trkpt>
      <trkpt lat="45.16189" lon="4.04288">
        <ele>808</ele>
        <time>2019-12-07T14:39:30Z</time>
      </trkpt>
      <trkpt lat="45.16197" lon="4.04292">
        <ele>807.8</ele>
        <time>2019-12-07T14:39:31Z</time>
      </trkpt>
      <trkpt lat="45.16203" lon="4.04297">
        <ele>807.7</ele>
        <time>2019-12-07T14:39:32Z</time>
      </trkpt>
      <trkpt lat="45.16208" lon="4.04305">
        <ele>807.4</ele>
        <time>2019-12-07T14:39:33Z</time>
      </trkpt>
      <trkpt lat="45.16213" lon="4.04313">
        <ele>806.9</ele>
        <time>2019-12-07T14:39:34Z</time>
      </trkpt>
      <trkpt lat="45.16219" lon="4.0432">
        <ele>806.1</ele>
        <time>2019-12-07T14:39:35Z</time>
      </trkpt>
      <trkpt lat="45.16224" lon="4.04326">
        <ele>805.2</ele>
        <time>2019-12-07T14:39:36Z</time>
      </trkpt>
      <trkpt lat="45.1623" lon="4.0433">
        <ele>804.2</ele>
        <time>2019-12-07T14:39:37Z</time>
      </trkpt>
      <trkpt lat="45.16237" lon="4.04329">
        <ele>803.2</ele>
        <time>2019-12-07T14:39:38Z</time>
      </trkpt>
      <trkpt lat="45.16244" lon="4.04325">
        <ele>802.1</ele>
        <time>2019-12-07T14:39:39Z</time>
      </trkpt>
      <trkpt lat="45.16251" lon="4.04319">
        <ele>801.1</ele>
        <time>2019-12-07T14:39:40Z</time>
      </trkpt>
      <trkpt lat="45.16257" lon="4.0431">
        <ele>800.1</ele>
        <time>2019-12-07T14:39:41Z</time>
      </trkpt>
      <trkpt lat="45.16263" lon="4.04301">
        <ele>798.9</ele>
        <time>2019-12-07T14:39:42Z</time>
      </trkpt>
      <trkpt lat="45.16275" lon="4.04282">
        <ele>797.3</ele>
        <time>2019-12-07T14:39:44Z</time>
      </trkpt>
      <trkpt lat="45.16282" lon="4.04276">
        <ele>796.9</ele>
        <time>2019-12-07T14:39:45Z</time>
      </trkpt>
      <trkpt lat="45.1629" lon="4.04273">
        <ele>796.8</ele>
        <time>2019-12-07T14:39:46Z</time>
      </trkpt>
      <trkpt lat="45.16297" lon="4.04273">
        <ele>797</ele>
        <time>2019-12-07T14:39:47Z</time>
      </trkpt>
      <trkpt lat="45.16303" lon="4.04278">
        <ele>797.4</ele>
        <time>2019-12-07T14:39:48Z</time>
      </trkpt>
      <trkpt lat="45.16307" lon="4.04285">
        <ele>797.9</ele>
        <time>2019-12-07T14:39:49Z</time>
      </trkpt>
      <trkpt lat="45.16311" lon="4.04291">
        <ele>798.6</ele>
        <time>2019-12-07T14:39:50Z</time>
      </trkpt>
      <trkpt lat="45.16315" lon="4.04302">
        <ele>800.1</ele>
        <time>2019-12-07T14:39:52Z</time>
      </trkpt>
      <trkpt lat="45.16319" lon="4.04308">
        <ele>801.1</ele>
        <time>2019-12-07T14:39:54Z</time>
      </trkpt>
      <trkpt lat="45.1632" lon="4.0431">
        <ele>801.4</ele>
        <time>2019-12-07T14:39:55Z</time>
      </trkpt>
      <trkpt lat="45.16325" lon="4.04313">
        <ele>801</ele>
        <time>2019-12-07T14:39:59Z</time>
      </trkpt>
      <trkpt lat="45.16325" lon="4.04314">
        <ele>800.8</ele>
        <time>2019-12-07T14:40:00Z</time>
      </trkpt>
      <trkpt lat="45.16326" lon="4.04315">
        <ele>800.8</ele>
        <time>2019-12-07T14:40:01Z</time>
      </trkpt>
      <trkpt lat="45.16326" lon="4.04317">
        <ele>800.6</ele>
        <time>2019-12-07T14:40:02Z</time>
      </trkpt>
      <trkpt lat="45.16327" lon="4.04318">
        <ele>800.5</ele>
        <time>2019-12-07T14:40:03Z</time>
      </trkpt>
      <trkpt lat="45.16327" lon="4.0432">
        <ele>800.4</ele>
        <time>2019-12-07T14:40:04Z</time>
      </trkpt>
      <trkpt lat="45.16341" lon="4.04382">
        <ele>796.7</ele>
        <time>2019-12-07T14:40:20Z</time>
      </trkpt>
      <trkpt lat="45.16346" lon="4.04403">
        <ele>795.6</ele>
        <time>2019-12-07T14:40:23Z</time>
      </trkpt>
      <trkpt lat="45.16365" lon="4.04467">
        <ele>791.5</ele>
        <time>2019-12-07T14:40:31Z</time>
      </trkpt>
      <trkpt lat="45.16367" lon="4.04476">
        <ele>791</ele>
        <time>2019-12-07T14:40:32Z</time>
      </trkpt>
      <trkpt lat="45.16373" lon="4.04503">
        <ele>789.3</ele>
        <time>2019-12-07T14:40:35Z</time>
      </trkpt>
      <trkpt lat="45.16377" lon="4.04529">
        <ele>787.9</ele>
        <time>2019-12-07T14:40:38Z</time>
      </trkpt>
      <trkpt lat="45.1638" lon="4.04535">
        <ele>787.8</ele>
        <time>2019-12-07T14:40:39Z</time>
      </trkpt>
      <trkpt lat="45.16385" lon="4.04539">
        <ele>787.6</ele>
        <time>2019-12-07T14:40:40Z</time>
      </trkpt>
      <trkpt lat="45.16389" lon="4.04542">
        <ele>787.5</ele>
        <time>2019-12-07T14:40:41Z</time>
      </trkpt>
      <trkpt lat="45.16394" lon="4.04545">
        <ele>787.4</ele>
        <time>2019-12-07T14:40:42Z</time>
      </trkpt>
      <trkpt lat="45.16398" lon="4.04549">
        <ele>787.4</ele>
        <time>2019-12-07T14:40:43Z</time>
      </trkpt>
      <trkpt lat="45.16402" lon="4.04553">
        <ele>787.4</ele>
        <time>2019-12-07T14:40:44Z</time>
      </trkpt>
      <trkpt lat="45.16406" lon="4.04558">
        <ele>787.4</ele>
        <time>2019-12-07T14:40:45Z</time>
      </trkpt>
      <trkpt lat="45.16408" lon="4.04564">
        <ele>787.4</ele>
        <time>2019-12-07T14:40:46Z</time>
      </trkpt>
      <trkpt lat="45.1641" lon="4.04572">
        <ele>787.4</ele>
        <time>2019-12-07T14:40:47Z</time>
      </trkpt>
      <trkpt lat="45.16411" lon="4.04579">
        <ele>787.4</ele>
        <time>2019-12-07T14:40:48Z</time>
      </trkpt>
      <trkpt lat="45.16411" lon="4.04586">
        <ele>787.5</ele>
        <time>2019-12-07T14:40:49Z</time>
      </trkpt>
      <trkpt lat="45.16411" lon="4.04591">
        <ele>787.5</ele>
        <time>2019-12-07T14:40:50Z</time>
      </trkpt>
      <trkpt lat="45.16411" lon="4.04593">
        <ele>787.5</ele>
        <time>2019-12-07T14:41:00Z</time>
      </trkpt>
      <trkpt lat="45.16413" lon="4.04597">
        <ele>787.5</ele>
        <time>2019-12-07T14:43:26Z</time>
      </trkpt>
      <trkpt lat="45.16415" lon="4.046">
        <ele>787.5</ele>
        <time>2019-12-07T14:43:27Z</time>
      </trkpt>
      <trkpt lat="45.16416" lon="4.04604">
        <ele>787.5</ele>
        <time>2019-12-07T14:43:28Z</time>
      </trkpt>
      <trkpt lat="45.16428" lon="4.04633">
        <ele>787.6</ele>
        <time>2019-12-07T14:43:36Z</time>
      </trkpt>
      <trkpt lat="45.16439" lon="4.04647">
        <ele>787.8</ele>
        <time>2019-12-07T14:43:41Z</time>
      </trkpt>
      <trkpt lat="45.16487" lon="4.04691">
        <ele>790</ele>
        <time>2019-12-07T14:44:05Z</time>
      </trkpt>
      <trkpt lat="45.165" lon="4.04702">
        <ele>790.5</ele>
        <time>2019-12-07T14:44:11Z</time>
      </trkpt>
      <trkpt lat="45.16505" lon="4.04708">
        <ele>790.6</ele>
        <time>2019-12-07T14:44:14Z</time>
      </trkpt>
      <trkpt lat="45.1651" lon="4.04713">
        <ele>790.8</ele>
        <time>2019-12-07T14:44:17Z</time>
      </trkpt>
      <trkpt lat="45.1652" lon="4.04726">
        <ele>791</ele>
        <time>2019-12-07T14:44:23Z</time>
      </trkpt>
      <trkpt lat="45.16527" lon="4.04739">
        <ele>791.4</ele>
        <time>2019-12-07T14:44:28Z</time>
      </trkpt>
      <trkpt lat="45.16532" lon="4.04747">
        <ele>791.7</ele>
        <time>2019-12-07T14:44:31Z</time>
      </trkpt>
      <trkpt lat="45.16546" lon="4.04769">
        <ele>792.7</ele>
        <time>2019-12-07T14:44:39Z</time>
      </trkpt>
      <trkpt lat="45.1659" lon="4.0482">
        <ele>793.8</ele>
        <time>2019-12-07T14:45:00Z</time>
      </trkpt>
      <trkpt lat="45.16606" lon="4.04833">
        <ele>793.8</ele>
        <time>2019-12-07T14:45:07Z</time>
      </trkpt>
      <trkpt lat="45.16615" lon="4.0484">
        <ele>793.7</ele>
        <time>2019-12-07T14:45:11Z</time>
      </trkpt>
      <trkpt lat="45.16624" lon="4.04846">
        <ele>793.6</ele>
        <time>2019-12-07T14:45:15Z</time>
      </trkpt>
      <trkpt lat="45.16631" lon="4.0485">
        <ele>793.5</ele>
        <time>2019-12-07T14:45:18Z</time>
      </trkpt>
      <trkpt lat="45.16636" lon="4.04853">
        <ele>793.4</ele>
        <time>2019-12-07T14:45:20Z</time>
      </trkpt>
      <trkpt lat="45.1665" lon="4.04864">
        <ele>793</ele>
        <time>2019-12-07T14:45:26Z</time>
      </trkpt>
      <trkpt lat="45.16673" lon="4.04877">
        <ele>792.8</ele>
        <time>2019-12-07T14:45:36Z</time>
      </trkpt>
      <trkpt lat="45.16698" lon="4.04881">
        <ele>792.8</ele>
        <time>2019-12-07T14:45:46Z</time>
      </trkpt>
      <trkpt lat="45.1675" lon="4.04881">
        <ele>791.4</ele>
        <time>2019-12-07T14:46:06Z</time>
      </trkpt>
      <trkpt lat="45.16788" lon="4.04902">
        <ele>788.4</ele>
        <time>2019-12-07T14:46:21Z</time>
      </trkpt>
      <trkpt lat="45.16801" lon="4.04911">
        <ele>787.4</ele>
        <time>2019-12-07T14:46:27Z</time>
      </trkpt>
      <trkpt lat="45.16801" lon="4.04914">
        <ele>787.3</ele>
        <time>2019-12-07T14:46:28Z</time>
      </trkpt>
      <trkpt lat="45.16801" lon="4.04917">
        <ele>787.1</ele>
        <time>2019-12-07T14:46:29Z</time>
      </trkpt>
      <trkpt lat="45.16801" lon="4.04921">
        <ele>786.9</ele>
        <time>2019-12-07T14:46:30Z</time>
      </trkpt>
      <trkpt lat="45.16801" lon="4.04926">
        <ele>786.8</ele>
        <time>2019-12-07T14:46:31Z</time>
      </trkpt>
      <trkpt lat="45.16798" lon="4.04979">
        <ele>786.3</ele>
        <time>2019-12-07T14:46:45Z</time>
      </trkpt>
      <trkpt lat="45.16801" lon="4.04989">
        <ele>786.3</ele>
        <time>2019-12-07T14:46:48Z</time>
      </trkpt>
      <trkpt lat="45.16805" lon="4.05001">
        <ele>787.3</ele>
        <time>2019-12-07T14:46:52Z</time>
      </trkpt>
      <trkpt lat="45.16809" lon="4.05014">
        <ele>788.1</ele>
        <time>2019-12-07T14:46:57Z</time>
      </trkpt>
      <trkpt lat="45.16814" lon="4.05025">
        <ele>789.3</ele>
        <time>2019-12-07T14:47:02Z</time>
      </trkpt>
      <trkpt lat="45.16817" lon="4.05032">
        <ele>789.8</ele>
        <time>2019-12-07T14:47:05Z</time>
      </trkpt>
      <trkpt lat="45.16821" lon="4.05038">
        <ele>790.2</ele>
        <time>2019-12-07T14:47:08Z</time>
      </trkpt>
      <trkpt lat="45.16824" lon="4.05051">
        <ele>791.3</ele>
        <time>2019-12-07T14:47:14Z</time>
      </trkpt>
      <trkpt lat="45.16825" lon="4.05062">
        <ele>791.9</ele>
        <time>2019-12-07T14:47:18Z</time>
      </trkpt>
      <trkpt lat="45.16825" lon="4.05073">
        <ele>792.5</ele>
        <time>2019-12-07T14:47:22Z</time>
      </trkpt>
      <trkpt lat="45.16822" lon="4.05089">
        <ele>793.4</ele>
        <time>2019-12-07T14:47:28Z</time>
      </trkpt>
      <trkpt lat="45.16821" lon="4.05099">
        <ele>793.8</ele>
        <time>2019-12-07T14:47:32Z</time>
      </trkpt>
      <trkpt lat="45.16819" lon="4.05122">
        <ele>794.6</ele>
        <time>2019-12-07T14:47:41Z</time>
      </trkpt>
      <trkpt lat="45.16818" lon="4.05124">
        <ele>794.6</ele>
        <time>2019-12-07T14:47:42Z</time>
      </trkpt>
      <trkpt lat="45.16817" lon="4.05126">
        <ele>794.7</ele>
        <time>2019-12-07T14:47:43Z</time>
      </trkpt>
      <trkpt lat="45.16815" lon="4.05129">
        <ele>794.7</ele>
        <time>2019-12-07T14:47:45Z</time>
      </trkpt>
      <trkpt lat="45.16812" lon="4.05135">
        <ele>794.8</ele>
        <time>2019-12-07T14:47:48Z</time>
      </trkpt>
      <trkpt lat="45.16805" lon="4.05153">
        <ele>794.8</ele>
        <time>2019-12-07T14:47:54Z</time>
      </trkpt>
      <trkpt lat="45.16803" lon="4.05172">
        <ele>795.8</ele>
        <time>2019-12-07T14:47:59Z</time>
      </trkpt>
      <trkpt lat="45.16804" lon="4.05182">
        <ele>796.4</ele>
        <time>2019-12-07T14:48:02Z</time>
      </trkpt>
      <trkpt lat="45.16803" lon="4.05191">
        <ele>796.4</ele>
        <time>2019-12-07T14:48:05Z</time>
      </trkpt>
      <trkpt lat="45.16799" lon="4.05206">
        <ele>796.5</ele>
        <time>2019-12-07T14:48:10Z</time>
      </trkpt>
      <trkpt lat="45.16798" lon="4.05209">
        <ele>796.6</ele>
        <time>2019-12-07T14:48:11Z</time>
      </trkpt>
      <trkpt lat="45.16796" lon="4.05219">
        <ele>796.8</ele>
        <time>2019-12-07T14:48:14Z</time>
      </trkpt>
      <trkpt lat="45.16789" lon="4.05253">
        <ele>797.2</ele>
        <time>2019-12-07T14:48:23Z</time>
      </trkpt>
      <trkpt lat="45.16786" lon="4.05272">
        <ele>797.3</ele>
        <time>2019-12-07T14:48:28Z</time>
      </trkpt>
      <trkpt lat="45.16785" lon="4.05279">
        <ele>797.4</ele>
        <time>2019-12-07T14:48:30Z</time>
      </trkpt>
      <trkpt lat="45.16785" lon="4.05286">
        <ele>797.4</ele>
        <time>2019-12-07T14:48:32Z</time>
      </trkpt>
      <trkpt lat="45.16785" lon="4.05296">
        <ele>797.5</ele>
        <time>2019-12-07T14:48:35Z</time>
      </trkpt>
      <trkpt lat="45.16789" lon="4.05316">
        <ele>798.4</ele>
        <time>2019-12-07T14:48:41Z</time>
      </trkpt>
      <trkpt lat="45.16794" lon="4.05348">
        <ele>799.9</ele>
        <time>2019-12-07T14:48:51Z</time>
      </trkpt>
      <trkpt lat="45.16797" lon="4.05359">
        <ele>800.4</ele>
        <time>2019-12-07T14:48:55Z</time>
      </trkpt>
      <trkpt lat="45.16802" lon="4.0537">
        <ele>801.2</ele>
        <time>2019-12-07T14:48:59Z</time>
      </trkpt>
      <trkpt lat="45.16808" lon="4.05392">
        <ele>803.8</ele>
        <time>2019-12-07T14:49:07Z</time>
      </trkpt>
      <trkpt lat="45.16817" lon="4.05426">
        <ele>806</ele>
        <time>2019-12-07T14:49:20Z</time>
      </trkpt>
      <trkpt lat="45.16821" lon="4.05441">
        <ele>807.2</ele>
        <time>2019-12-07T14:49:27Z</time>
      </trkpt>
      <trkpt lat="45.16822" lon="4.05444">
        <ele>807.1</ele>
        <time>2019-12-07T14:49:28Z</time>
      </trkpt>
      <trkpt lat="45.16822" lon="4.05446">
        <ele>806.9</ele>
        <time>2019-12-07T14:49:29Z</time>
      </trkpt>
      <trkpt lat="45.16823" lon="4.05449">
        <ele>806.8</ele>
        <time>2019-12-07T14:49:30Z</time>
      </trkpt>
      <trkpt lat="45.16823" lon="4.05452">
        <ele>806.6</ele>
        <time>2019-12-07T14:49:31Z</time>
      </trkpt>
      <trkpt lat="45.16835" lon="4.05518">
        <ele>809.8</ele>
        <time>2019-12-07T14:49:55Z</time>
      </trkpt>
      <trkpt lat="45.16836" lon="4.05521">
        <ele>809.5</ele>
        <time>2019-12-07T14:49:56Z</time>
      </trkpt>
      <trkpt lat="45.1685" lon="4.05588">
        <ele>811.9</ele>
        <time>2019-12-07T14:50:15Z</time>
      </trkpt>
      <trkpt lat="45.16852" lon="4.05594">
        <ele>812.2</ele>
        <time>2019-12-07T14:50:17Z</time>
      </trkpt>
      <trkpt lat="45.1686" lon="4.05639">
        <ele>811.2</ele>
        <time>2019-12-07T14:50:30Z</time>
      </trkpt>
      <trkpt lat="45.16861" lon="4.05645">
        <ele>811.4</ele>
        <time>2019-12-07T14:50:32Z</time>
      </trkpt>
      <trkpt lat="45.16862" lon="4.05648">
        <ele>811.3</ele>
        <time>2019-12-07T14:50:33Z</time>
      </trkpt>
      <trkpt lat="45.16863" lon="4.05652">
        <ele>810.8</ele>
        <time>2019-12-07T14:50:35Z</time>
      </trkpt>
      <trkpt lat="45.16867" lon="4.05662">
        <ele>811.4</ele>
        <time>2019-12-07T14:50:40Z</time>
      </trkpt>
      <trkpt lat="45.16883" lon="4.0569">
        <ele>811.9</ele>
        <time>2019-12-07T14:50:55Z</time>
      </trkpt>
      <trkpt lat="45.16884" lon="4.05693">
        <ele>811.2</ele>
        <time>2019-12-07T14:51:02Z</time>
      </trkpt>
      <trkpt lat="45.16884" lon="4.05698">
        <ele>810.5</ele>
        <time>2019-12-07T14:51:05Z</time>
      </trkpt>
      <trkpt lat="45.16884" lon="4.05701">
        <ele>809.7</ele>
        <time>2019-12-07T14:51:06Z</time>
      </trkpt>
      <trkpt lat="45.16884" lon="4.05703">
        <ele>809.6</ele>
        <time>2019-12-07T14:51:07Z</time>
      </trkpt>
      <trkpt lat="45.16885" lon="4.05707">
        <ele>809.5</ele>
        <time>2019-12-07T14:51:08Z</time>
      </trkpt>
      <trkpt lat="45.16885" lon="4.0571">
        <ele>808.7</ele>
        <time>2019-12-07T14:51:09Z</time>
      </trkpt>
      <trkpt lat="45.16886" lon="4.05713">
        <ele>808.5</ele>
        <time>2019-12-07T14:51:10Z</time>
      </trkpt>
      <trkpt lat="45.16889" lon="4.05723">
        <ele>807</ele>
        <time>2019-12-07T14:51:14Z</time>
      </trkpt>
      <trkpt lat="45.16891" lon="4.05726">
        <ele>806.8</ele>
        <time>2019-12-07T14:51:18Z</time>
      </trkpt>
      <trkpt lat="45.16891" lon="4.05726">
        <ele>805.9</ele>
        <time>2019-12-07T14:51:21Z</time>
      </trkpt>
      <trkpt lat="45.16894" lon="4.05736">
        <ele>805.9</ele>
        <time>2019-12-07T14:51:39Z</time>
      </trkpt>
      <trkpt lat="45.16894" lon="4.05738">
        <ele>805.8</ele>
        <time>2019-12-07T14:51:40Z</time>
      </trkpt>
      <trkpt lat="45.16897" lon="4.05746">
        <ele>804.4</ele>
        <time>2019-12-07T14:51:43Z</time>
      </trkpt>
      <trkpt lat="45.16898" lon="4.05754">
        <ele>803.7</ele>
        <time>2019-12-07T14:51:46Z</time>
      </trkpt>
      <trkpt lat="45.16907" lon="4.05789">
        <ele>800.4</ele>
        <time>2019-12-07T14:51:58Z</time>
      </trkpt>
      <trkpt lat="45.16909" lon="4.05802">
        <ele>799</ele>
        <time>2019-12-07T14:52:02Z</time>
      </trkpt>
      <trkpt lat="45.1691" lon="4.05804">
        <ele>798.2</ele>
        <time>2019-12-07T14:52:03Z</time>
      </trkpt>
      <trkpt lat="45.16911" lon="4.05807">
        <ele>798</ele>
        <time>2019-12-07T14:52:04Z</time>
      </trkpt>
      <trkpt lat="45.16916" lon="4.05836">
        <ele>794.7</ele>
        <time>2019-12-07T14:52:15Z</time>
      </trkpt>
      <trkpt lat="45.16919" lon="4.05846">
        <ele>794.2</ele>
        <time>2019-12-07T14:52:18Z</time>
      </trkpt>
      <trkpt lat="45.16921" lon="4.05864">
        <ele>791.4</ele>
        <time>2019-12-07T14:52:24Z</time>
      </trkpt>
      <trkpt lat="45.16922" lon="4.05881">
        <ele>790.2</ele>
        <time>2019-12-07T14:52:29Z</time>
      </trkpt>
      <trkpt lat="45.16923" lon="4.05884">
        <ele>790</ele>
        <time>2019-12-07T14:52:30Z</time>
      </trkpt>
      <trkpt lat="45.16923" lon="4.05888">
        <ele>789.4</ele>
        <time>2019-12-07T14:52:31Z</time>
      </trkpt>
      <trkpt lat="45.16923" lon="4.05892">
        <ele>788.8</ele>
        <time>2019-12-07T14:52:32Z</time>
      </trkpt>
      <trkpt lat="45.16923" lon="4.05895">
        <ele>788.1</ele>
        <time>2019-12-07T14:52:33Z</time>
      </trkpt>
      <trkpt lat="45.16923" lon="4.05905">
        <ele>787</ele>
        <time>2019-12-07T14:52:36Z</time>
      </trkpt>
      <trkpt lat="45.16928" lon="4.05925">
        <ele>785.6</ele>
        <time>2019-12-07T14:52:43Z</time>
      </trkpt>
      <trkpt lat="45.16936" lon="4.05937">
        <ele>785.6</ele>
        <time>2019-12-07T14:52:49Z</time>
      </trkpt>
      <trkpt lat="45.16951" lon="4.05966">
        <ele>784.6</ele>
        <time>2019-12-07T14:52:59Z</time>
      </trkpt>
      <trkpt lat="45.16961" lon="4.0599">
        <ele>782</ele>
        <time>2019-12-07T14:53:08Z</time>
      </trkpt>
      <trkpt lat="45.16962" lon="4.05992">
        <ele>781.8</ele>
        <time>2019-12-07T14:53:09Z</time>
      </trkpt>
      <trkpt lat="45.16963" lon="4.05994">
        <ele>781.1</ele>
        <time>2019-12-07T14:53:10Z</time>
      </trkpt>
      <trkpt lat="45.16968" lon="4.06011">
        <ele>779.4</ele>
        <time>2019-12-07T14:53:16Z</time>
      </trkpt>
      <trkpt lat="45.16969" lon="4.06014">
        <ele>778.7</ele>
        <time>2019-12-07T14:53:17Z</time>
      </trkpt>
      <trkpt lat="45.16969" lon="4.06016">
        <ele>778.5</ele>
        <time>2019-12-07T14:53:18Z</time>
      </trkpt>
      <trkpt lat="45.1697" lon="4.06018">
        <ele>778.1</ele>
        <time>2019-12-07T14:53:19Z</time>
      </trkpt>
      <trkpt lat="45.1697" lon="4.0602">
        <ele>778</ele>
        <time>2019-12-07T14:53:20Z</time>
      </trkpt>
      <trkpt lat="45.1697" lon="4.06023">
        <ele>777.3</ele>
        <time>2019-12-07T14:53:21Z</time>
      </trkpt>
      <trkpt lat="45.16974" lon="4.06034">
        <ele>776.1</ele>
        <time>2019-12-07T14:53:25Z</time>
      </trkpt>
      <trkpt lat="45.1699" lon="4.06063">
        <ele>772.5</ele>
        <time>2019-12-07T14:53:37Z</time>
      </trkpt>
      <trkpt lat="45.16993" lon="4.06068">
        <ele>771.9</ele>
        <time>2019-12-07T14:53:40Z</time>
      </trkpt>
      <trkpt lat="45.16995" lon="4.06073">
        <ele>771.2</ele>
        <time>2019-12-07T14:53:44Z</time>
      </trkpt>
      <trkpt lat="45.16995" lon="4.06074">
        <ele>770.4</ele>
        <time>2019-12-07T14:53:45Z</time>
      </trkpt>
      <trkpt lat="45.16997" lon="4.06079">
        <ele>769.6</ele>
        <time>2019-12-07T14:53:50Z</time>
      </trkpt>
      <trkpt lat="45.17003" lon="4.06089">
        <ele>768.5</ele>
        <time>2019-12-07T14:53:59Z</time>
      </trkpt>
      <trkpt lat="45.17004" lon="4.06091">
        <ele>768.3</ele>
        <time>2019-12-07T14:54:00Z</time>
      </trkpt>
      <trkpt lat="45.17005" lon="4.06093">
        <ele>767.6</ele>
        <time>2019-12-07T14:54:01Z</time>
      </trkpt>
      <trkpt lat="45.17005" lon="4.06095">
        <ele>766.9</ele>
        <time>2019-12-07T14:54:02Z</time>
      </trkpt>
      <trkpt lat="45.17008" lon="4.06098">
        <ele>766.7</ele>
        <time>2019-12-07T14:54:08Z</time>
      </trkpt>
      <trkpt lat="45.17008" lon="4.06103">
        <ele>766</ele>
        <time>2019-12-07T14:54:11Z</time>
      </trkpt>
      <trkpt lat="45.1701" lon="4.06107">
        <ele>765.4</ele>
        <time>2019-12-07T14:54:13Z</time>
      </trkpt>
      <trkpt lat="45.17016" lon="4.06133">
        <ele>762</ele>
        <time>2019-12-07T14:54:21Z</time>
      </trkpt>
      <trkpt lat="45.17018" lon="4.06152">
        <ele>759.5</ele>
        <time>2019-12-07T14:54:30Z</time>
      </trkpt>
      <trkpt lat="45.17018" lon="4.06153">
        <ele>759.4</ele>
        <time>2019-12-07T14:54:31Z</time>
      </trkpt>
      <trkpt lat="45.17028" lon="4.06162">
        <ele>758.4</ele>
        <time>2019-12-07T14:54:48Z</time>
      </trkpt>
      <trkpt lat="45.17026" lon="4.06168">
        <ele>757.8</ele>
        <time>2019-12-07T14:54:53Z</time>
      </trkpt>
      <trkpt lat="45.17022" lon="4.06218">
        <ele>753</ele>
        <time>2019-12-07T14:55:02Z</time>
      </trkpt>
      <trkpt lat="45.17024" lon="4.06254">
        <ele>749.4</ele>
        <time>2019-12-07T14:55:06Z</time>
      </trkpt>
      <trkpt lat="45.17023" lon="4.06263">
        <ele>748.6</ele>
        <time>2019-12-07T14:55:07Z</time>
      </trkpt>
      <trkpt lat="45.1702" lon="4.0627">
        <ele>748.2</ele>
        <time>2019-12-07T14:55:08Z</time>
      </trkpt>
      <trkpt lat="45.17014" lon="4.06285">
        <ele>746.8</ele>
        <time>2019-12-07T14:55:10Z</time>
      </trkpt>
      <trkpt lat="45.17011" lon="4.06293">
        <ele>746.2</ele>
        <time>2019-12-07T14:55:11Z</time>
      </trkpt>
      <trkpt lat="45.17005" lon="4.06307">
        <ele>745.6</ele>
        <time>2019-12-07T14:55:13Z</time>
      </trkpt>
      <trkpt lat="45.17007" lon="4.06359">
        <ele>744</ele>
        <time>2019-12-07T14:55:26Z</time>
      </trkpt>
      <trkpt lat="45.17011" lon="4.06363">
        <ele>743.7</ele>
        <time>2019-12-07T14:55:28Z</time>
      </trkpt>
      <trkpt lat="45.17018" lon="4.06371">
        <ele>743.3</ele>
        <time>2019-12-07T14:55:31Z</time>
      </trkpt>
      <trkpt lat="45.17022" lon="4.06377">
        <ele>743</ele>
        <time>2019-12-07T14:55:33Z</time>
      </trkpt>
      <trkpt lat="45.17026" lon="4.06382">
        <ele>742.8</ele>
        <time>2019-12-07T14:55:35Z</time>
      </trkpt>
      <trkpt lat="45.17028" lon="4.06384">
        <ele>742.7</ele>
        <time>2019-12-07T14:55:36Z</time>
      </trkpt>
      <trkpt lat="45.17032" lon="4.06389">
        <ele>742.6</ele>
        <time>2019-12-07T14:55:38Z</time>
      </trkpt>
      <trkpt lat="45.17036" lon="4.06398">
        <ele>742.3</ele>
        <time>2019-12-07T14:55:41Z</time>
      </trkpt>
      <trkpt lat="45.1705" lon="4.06424">
        <ele>741.6</ele>
        <time>2019-12-07T14:55:51Z</time>
      </trkpt>
      <trkpt lat="45.17068" lon="4.06466">
        <ele>740.2</ele>
        <time>2019-12-07T14:56:05Z</time>
      </trkpt>
      <trkpt lat="45.17075" lon="4.06498">
        <ele>739.1</ele>
        <time>2019-12-07T14:56:14Z</time>
      </trkpt>
      <trkpt lat="45.17073" lon="4.06556">
        <ele>736.8</ele>
        <time>2019-12-07T14:56:30Z</time>
      </trkpt>
      <trkpt lat="45.17076" lon="4.06622">
        <ele>734</ele>
        <time>2019-12-07T14:56:46Z</time>
      </trkpt>
      <trkpt lat="45.17076" lon="4.06648">
        <ele>732.9</ele>
        <time>2019-12-07T14:56:52Z</time>
      </trkpt>
      <trkpt lat="45.17068" lon="4.06707">
        <ele>731.1</ele>
        <time>2019-12-07T14:57:06Z</time>
      </trkpt>
      <trkpt lat="45.17035" lon="4.06769">
        <ele>729.6</ele>
        <time>2019-12-07T14:57:23Z</time>
      </trkpt>
      <trkpt lat="45.17006" lon="4.06814">
        <ele>728.7</ele>
        <time>2019-12-07T14:57:35Z</time>
      </trkpt>
      <trkpt lat="45.17004" lon="4.0682">
        <ele>728.6</ele>
        <time>2019-12-07T14:57:36Z</time>
      </trkpt>
      <trkpt lat="45.16996" lon="4.0685">
        <ele>728</ele>
        <time>2019-12-07T14:57:41Z</time>
      </trkpt>
      <trkpt lat="45.16996" lon="4.06857">
        <ele>727.9</ele>
        <time>2019-12-07T14:57:42Z</time>
      </trkpt>
      <trkpt lat="45.16996" lon="4.06863">
        <ele>727.8</ele>
        <time>2019-12-07T14:57:43Z</time>
      </trkpt>
      <trkpt lat="45.16997" lon="4.06869">
        <ele>727.8</ele>
        <time>2019-12-07T14:57:44Z</time>
      </trkpt>
      <trkpt lat="45.16998" lon="4.06875">
        <ele>727.7</ele>
        <time>2019-12-07T14:57:45Z</time>
      </trkpt>
      <trkpt lat="45.16999" lon="4.06881">
        <ele>727.6</ele>
        <time>2019-12-07T14:57:46Z</time>
      </trkpt>
      <trkpt lat="45.17001" lon="4.06887">
        <ele>727.5</ele>
        <time>2019-12-07T14:57:47Z</time>
      </trkpt>
      <trkpt lat="45.17002" lon="4.06893">
        <ele>727.5</ele>
        <time>2019-12-07T14:57:48Z</time>
      </trkpt>
      <trkpt lat="45.17034" lon="4.06967">
        <ele>726.2</ele>
        <time>2019-12-07T14:58:00Z</time>
      </trkpt>
      <trkpt lat="45.1706" lon="4.07042">
        <ele>726.7</ele>
        <time>2019-12-07T14:58:14Z</time>
      </trkpt>
      <trkpt lat="45.17082" lon="4.07113">
        <ele>725.1</ele>
        <time>2019-12-07T14:58:29Z</time>
      </trkpt>
      <trkpt lat="45.17098" lon="4.07184">
        <ele>724.8</ele>
        <time>2019-12-07T14:58:42Z</time>
      </trkpt>
      <trkpt lat="45.17105" lon="4.07208">
        <ele>725.4</ele>
        <time>2019-12-07T14:58:48Z</time>
      </trkpt>
      <trkpt lat="45.17107" lon="4.0721">
        <ele>725.3</ele>
        <time>2019-12-07T14:58:49Z</time>
      </trkpt>
      <trkpt lat="45.17109" lon="4.07213">
        <ele>725.3</ele>
        <time>2019-12-07T14:58:50Z</time>
      </trkpt>
      <trkpt lat="45.17111" lon="4.07217">
        <ele>725.2</ele>
        <time>2019-12-07T14:58:51Z</time>
      </trkpt>
      <trkpt lat="45.17111" lon="4.07221">
        <ele>725.1</ele>
        <time>2019-12-07T14:58:52Z</time>
      </trkpt>
      <trkpt lat="45.17111" lon="4.07225">
        <ele>725</ele>
        <time>2019-12-07T14:58:53Z</time>
      </trkpt>
      <trkpt lat="45.1711" lon="4.07228">
        <ele>725</ele>
        <time>2019-12-07T14:58:54Z</time>
      </trkpt>
      <trkpt lat="45.17111" lon="4.07231">
        <ele>724.9</ele>
        <time>2019-12-07T14:58:55Z</time>
      </trkpt>
      <trkpt lat="45.17112" lon="4.07233">
        <ele>724.9</ele>
        <time>2019-12-07T14:58:56Z</time>
      </trkpt>
      <trkpt lat="45.17114" lon="4.07234">
        <ele>724.8</ele>
        <time>2019-12-07T14:58:57Z</time>
      </trkpt>
      <trkpt lat="45.17116" lon="4.07236">
        <ele>724.7</ele>
        <time>2019-12-07T14:58:58Z</time>
      </trkpt>
      <trkpt lat="45.17118" lon="4.07237">
        <ele>724.7</ele>
        <time>2019-12-07T14:58:59Z</time>
      </trkpt>
      <trkpt lat="45.1712" lon="4.07238">
        <ele>724.6</ele>
        <time>2019-12-07T14:59:00Z</time>
      </trkpt>
      <trkpt lat="45.17136" lon="4.07236">
        <ele>723.8</ele>
        <time>2019-12-07T14:59:13Z</time>
      </trkpt>
      <trkpt lat="45.17135" lon="4.07234">
        <ele>723.9</ele>
        <time>2019-12-07T14:59:14Z</time>
      </trkpt>
      <trkpt lat="45.17134" lon="4.07233">
        <ele>724</ele>
        <time>2019-12-07T14:59:15Z</time>
      </trkpt>
      <trkpt lat="45.17132" lon="4.07233">
        <ele>724.1</ele>
        <time>2019-12-07T14:59:16Z</time>
      </trkpt>
      <trkpt lat="45.17131" lon="4.07233">
        <ele>724.1</ele>
        <time>2019-12-07T14:59:17Z</time>
      </trkpt>
      <trkpt lat="45.1713" lon="4.07232">
        <ele>724.2</ele>
        <time>2019-12-07T14:59:18Z</time>
      </trkpt>
      <trkpt lat="45.17128" lon="4.07232">
        <ele>724.3</ele>
        <time>2019-12-07T14:59:19Z</time>
      </trkpt>
      <trkpt lat="45.17122" lon="4.07231">
        <ele>724.6</ele>
        <time>2019-12-07T14:59:22Z</time>
      </trkpt>
      <trkpt lat="45.17109" lon="4.0723">
        <ele>725.2</ele>
        <time>2019-12-07T14:59:28Z</time>
      </trkpt>
      <trkpt lat="45.17105" lon="4.07235">
        <ele>725.4</ele>
        <time>2019-12-07T14:59:31Z</time>
      </trkpt>
      <trkpt lat="45.17104" lon="4.07237">
        <ele>725.5</ele>
        <time>2019-12-07T14:59:32Z</time>
      </trkpt>
      <trkpt lat="45.17109" lon="4.07248">
        <ele>725.6</ele>
        <time>2019-12-07T14:59:39Z</time>
      </trkpt>
      <trkpt lat="45.17138" lon="4.07259">
        <ele>725.2</ele>
        <time>2019-12-07T14:59:55Z</time>
      </trkpt>
      <trkpt lat="45.17146" lon="4.07262">
        <ele>725</ele>
        <time>2019-12-07T14:59:59Z</time>
      </trkpt>
      <trkpt lat="45.17158" lon="4.07266">
        <ele>724.7</ele>
        <time>2019-12-07T15:00:05Z</time>
      </trkpt>
      <trkpt lat="45.17182" lon="4.07279">
        <ele>724.5</ele>
        <time>2019-12-07T15:00:15Z</time>
      </trkpt>
      <trkpt lat="45.17205" lon="4.07289">
        <ele>724.6</ele>
        <time>2019-12-07T15:00:23Z</time>
      </trkpt>
      <trkpt lat="45.17212" lon="4.07294">
        <ele>724.6</ele>
        <time>2019-12-07T15:00:26Z</time>
      </trkpt>
      <trkpt lat="45.17226" lon="4.07302">
        <ele>724.6</ele>
        <time>2019-12-07T15:00:33Z</time>
      </trkpt>
      <trkpt lat="45.17234" lon="4.07306">
        <ele>724.8</ele>
        <time>2019-12-07T15:00:37Z</time>
      </trkpt>
      <trkpt lat="45.17242" lon="4.07313">
        <ele>725</ele>
        <time>2019-12-07T15:00:41Z</time>
      </trkpt>
      <trkpt lat="45.1725" lon="4.07321">
        <ele>725.2</ele>
        <time>2019-12-07T15:00:46Z</time>
      </trkpt>
      <trkpt lat="45.1727" lon="4.07347">
        <ele>726.7</ele>
        <time>2019-12-07T15:01:00Z</time>
      </trkpt>
      <trkpt lat="45.17301" lon="4.07386">
        <ele>729.5</ele>
        <time>2019-12-07T15:01:21Z</time>
      </trkpt>
      <trkpt lat="45.17304" lon="4.0739">
        <ele>729.7</ele>
        <time>2019-12-07T15:01:23Z</time>
      </trkpt>
      <trkpt lat="45.17332" lon="4.0742">
        <ele>731.7</ele>
        <time>2019-12-07T15:01:40Z</time>
      </trkpt>
      <trkpt lat="45.1735" lon="4.07443">
        <ele>733.4</ele>
        <time>2019-12-07T15:01:53Z</time>
      </trkpt>
      <trkpt lat="45.17358" lon="4.07452">
        <ele>733.6</ele>
        <time>2019-12-07T15:01:59Z</time>
      </trkpt>
      <trkpt lat="45.1736" lon="4.07453">
        <ele>733.6</ele>
        <time>2019-12-07T15:02:00Z</time>
      </trkpt>
      <trkpt lat="45.17372" lon="4.07472">
        <ele>735.4</ele>
        <time>2019-12-07T15:02:09Z</time>
      </trkpt>
      <trkpt lat="45.17374" lon="4.07474">
        <ele>735.6</ele>
        <time>2019-12-07T15:02:10Z</time>
      </trkpt>
      <trkpt lat="45.17375" lon="4.07475">
        <ele>735.8</ele>
        <time>2019-12-07T15:02:11Z</time>
      </trkpt>
      <trkpt lat="45.17378" lon="4.0748">
        <ele>736.2</ele>
        <time>2019-12-07T15:02:13Z</time>
      </trkpt>
      <trkpt lat="45.17384" lon="4.07488">
        <ele>736.9</ele>
        <time>2019-12-07T15:02:17Z</time>
      </trkpt>
      <trkpt lat="45.17398" lon="4.07514">
        <ele>739.1</ele>
        <time>2019-12-07T15:02:28Z</time>
      </trkpt>
      <trkpt lat="45.17412" lon="4.07538">
        <ele>740.9</ele>
        <time>2019-12-07T15:02:38Z</time>
      </trkpt>
      <trkpt lat="45.17426" lon="4.07559">
        <ele>742</ele>
        <time>2019-12-07T15:02:47Z</time>
      </trkpt>
      <trkpt lat="45.17453" lon="4.07602">
        <ele>745.8</ele>
        <time>2019-12-07T15:03:05Z</time>
      </trkpt>
      <trkpt lat="45.17486" lon="4.0765">
        <ele>751.1</ele>
        <time>2019-12-07T15:03:25Z</time>
      </trkpt>
      <trkpt lat="45.17489" lon="4.07654">
        <ele>751.8</ele>
        <time>2019-12-07T15:03:27Z</time>
      </trkpt>
      <trkpt lat="45.17505" lon="4.0767">
        <ele>754.4</ele>
        <time>2019-12-07T15:03:35Z</time>
      </trkpt>
      <trkpt lat="45.17528" lon="4.07689">
        <ele>757.1</ele>
        <time>2019-12-07T15:03:46Z</time>
      </trkpt>
      <trkpt lat="45.17549" lon="4.07706">
        <ele>759</ele>
        <time>2019-12-07T15:03:56Z</time>
      </trkpt>
      <trkpt lat="45.1756" lon="4.07714">
        <ele>760.3</ele>
        <time>2019-12-07T15:04:02Z</time>
      </trkpt>
      <trkpt lat="45.17583" lon="4.07732">
        <ele>761.1</ele>
        <time>2019-12-07T15:04:16Z</time>
      </trkpt>
      <trkpt lat="45.17597" lon="4.07744">
        <ele>761</ele>
        <time>2019-12-07T15:04:25Z</time>
      </trkpt>
      <trkpt lat="45.17604" lon="4.07751">
        <ele>761</ele>
        <time>2019-12-07T15:04:30Z</time>
      </trkpt>
      <trkpt lat="45.17612" lon="4.07759">
        <ele>761</ele>
        <time>2019-12-07T15:04:36Z</time>
      </trkpt>
      <trkpt lat="45.17614" lon="4.07766">
        <ele>761.1</ele>
        <time>2019-12-07T15:04:40Z</time>
      </trkpt>
      <trkpt lat="45.17615" lon="4.07767">
        <ele>761.2</ele>
        <time>2019-12-07T15:04:41Z</time>
      </trkpt>
      <trkpt lat="45.1762" lon="4.07769">
        <ele>761.1</ele>
        <time>2019-12-07T15:04:45Z</time>
      </trkpt>
      <trkpt lat="45.17623" lon="4.07771">
        <ele>761.1</ele>
        <time>2019-12-07T15:04:48Z</time>
      </trkpt>
      <trkpt lat="45.17624" lon="4.0777">
        <ele>761.1</ele>
        <time>2019-12-07T15:04:54Z</time>
      </trkpt>
      <trkpt lat="45.17623" lon="4.07764">
        <ele>761.1</ele>
        <time>2019-12-07T15:05:02Z</time>
      </trkpt>
      <trkpt lat="45.17622" lon="4.07763">
        <ele>761.1</ele>
        <time>2019-12-07T15:05:03Z</time>
      </trkpt>
      <trkpt lat="45.1762" lon="4.07763">
        <ele>761.1</ele>
        <time>2019-12-07T15:05:04Z</time>
      </trkpt>
      <trkpt lat="45.17619" lon="4.07764">
        <ele>761.1</ele>
        <time>2019-12-07T15:05:08Z</time>
      </trkpt>
      <trkpt lat="45.17621" lon="4.07774">
        <ele>761.1</ele>
        <time>2019-12-07T15:06:34Z</time>
      </trkpt>
      <trkpt lat="45.17623" lon="4.07776">
        <ele>761.1</ele>
        <time>2019-12-07T15:06:35Z</time>
      </trkpt>
      <trkpt lat="45.17625" lon="4.07777">
        <ele>761.1</ele>
        <time>2019-12-07T15:06:36Z</time>
      </trkpt>
      <trkpt lat="45.17634" lon="4.0778">
        <ele>761.1</ele>
        <time>2019-12-07T15:06:40Z</time>
      </trkpt>
      <trkpt lat="45.17688" lon="4.07783">
        <ele>761.2</ele>
        <time>2019-12-07T15:07:00Z</time>
      </trkpt>
      <trkpt lat="45.17735" lon="4.07787">
        <ele>761.5</ele>
        <time>2019-12-07T15:07:19Z</time>
      </trkpt>
      <trkpt lat="45.17758" lon="4.0779">
        <ele>761.7</ele>
        <time>2019-12-07T15:07:28Z</time>
      </trkpt>
      <trkpt lat="45.17814" lon="4.078">
        <ele>763.6</ele>
        <time>2019-12-07T15:07:48Z</time>
      </trkpt>
      <trkpt lat="45.17828" lon="4.07812">
        <ele>764.8</ele>
        <time>2019-12-07T15:07:53Z</time>
      </trkpt>
      <trkpt lat="45.17859" lon="4.07859">
        <ele>768.2</ele>
        <time>2019-12-07T15:08:07Z</time>
      </trkpt>
      <trkpt lat="45.17863" lon="4.07868">
        <ele>768.8</ele>
        <time>2019-12-07T15:08:10Z</time>
      </trkpt>
      <trkpt lat="45.17866" lon="4.0788">
        <ele>769.5</ele>
        <time>2019-12-07T15:08:14Z</time>
      </trkpt>
      <trkpt lat="45.17871" lon="4.07901">
        <ele>771</ele>
        <time>2019-12-07T15:08:21Z</time>
      </trkpt>
      <trkpt lat="45.17872" lon="4.07911">
        <ele>772</ele>
        <time>2019-12-07T15:08:24Z</time>
      </trkpt>
      <trkpt lat="45.17873" lon="4.0792">
        <ele>772.5</ele>
        <time>2019-12-07T15:08:27Z</time>
      </trkpt>
      <trkpt lat="45.17873" lon="4.07929">
        <ele>773</ele>
        <time>2019-12-07T15:08:30Z</time>
      </trkpt>
      <trkpt lat="45.17875" lon="4.07945">
        <ele>774</ele>
        <time>2019-12-07T15:08:35Z</time>
      </trkpt>
      <trkpt lat="45.17876" lon="4.07951">
        <ele>774.6</ele>
        <time>2019-12-07T15:08:37Z</time>
      </trkpt>
      <trkpt lat="45.17878" lon="4.07962">
        <ele>776.2</ele>
        <time>2019-12-07T15:08:41Z</time>
      </trkpt>
      <trkpt lat="45.17879" lon="4.07979">
        <ele>777.8</ele>
        <time>2019-12-07T15:08:47Z</time>
      </trkpt>
      <trkpt lat="45.1788" lon="4.07995">
        <ele>779.4</ele>
        <time>2019-12-07T15:08:53Z</time>
      </trkpt>
      <trkpt lat="45.17882" lon="4.08012">
        <ele>780.8</ele>
        <time>2019-12-07T15:09:00Z</time>
      </trkpt>
      <trkpt lat="45.17886" lon="4.08042">
        <ele>782.6</ele>
        <time>2019-12-07T15:09:12Z</time>
      </trkpt>
      <trkpt lat="45.17889" lon="4.08075">
        <ele>785.2</ele>
        <time>2019-12-07T15:09:25Z</time>
      </trkpt>
      <trkpt lat="45.1789" lon="4.08077">
        <ele>785.4</ele>
        <time>2019-12-07T15:09:26Z</time>
      </trkpt>
      <trkpt lat="45.1789" lon="4.0808">
        <ele>785.5</ele>
        <time>2019-12-07T15:09:27Z</time>
      </trkpt>
      <trkpt lat="45.17893" lon="4.08097">
        <ele>786.7</ele>
        <time>2019-12-07T15:09:34Z</time>
      </trkpt>
      <trkpt lat="45.17895" lon="4.08112">
        <ele>787.9</ele>
        <time>2019-12-07T15:09:40Z</time>
      </trkpt>
      <trkpt lat="45.17897" lon="4.08128">
        <ele>789</ele>
        <time>2019-12-07T15:09:46Z</time>
      </trkpt>
      <trkpt lat="45.17895" lon="4.08183">
        <ele>792.8</ele>
        <time>2019-12-07T15:10:06Z</time>
      </trkpt>
      <trkpt lat="45.17891" lon="4.08233">
        <ele>795</ele>
        <time>2019-12-07T15:10:22Z</time>
      </trkpt>
      <trkpt lat="45.17892" lon="4.08269">
        <ele>795.6</ele>
        <time>2019-12-07T15:10:34Z</time>
      </trkpt>
      <trkpt lat="45.17912" lon="4.08351">
        <ele>796</ele>
        <time>2019-12-07T15:10:53Z</time>
      </trkpt>
      <trkpt lat="45.17912" lon="4.08417">
        <ele>797.2</ele>
        <time>2019-12-07T15:11:08Z</time>
      </trkpt>
      <trkpt lat="45.17915" lon="4.08433">
        <ele>797.5</ele>
        <time>2019-12-07T15:11:12Z</time>
      </trkpt>
      <trkpt lat="45.17922" lon="4.08451">
        <ele>797.8</ele>
        <time>2019-12-07T15:11:17Z</time>
      </trkpt>
      <trkpt lat="45.1793" lon="4.08472">
        <ele>798</ele>
        <time>2019-12-07T15:11:23Z</time>
      </trkpt>
      <trkpt lat="45.17936" lon="4.08484">
        <ele>797.9</ele>
        <time>2019-12-07T15:11:27Z</time>
      </trkpt>
      <trkpt lat="45.17943" lon="4.08499">
        <ele>797.4</ele>
        <time>2019-12-07T15:11:34Z</time>
      </trkpt>
      <trkpt lat="45.17948" lon="4.08503">
        <ele>797.1</ele>
        <time>2019-12-07T15:11:44Z</time>
      </trkpt>
      <trkpt lat="45.17947" lon="4.08503">
        <ele>797.1</ele>
        <time>2019-12-07T15:11:46Z</time>
      </trkpt>
      <trkpt lat="45.17949" lon="4.08506">
        <ele>797</ele>
        <time>2019-12-07T15:13:11Z</time>
      </trkpt>
      <trkpt lat="45.17952" lon="4.08508">
        <ele>796.8</ele>
        <time>2019-12-07T15:13:12Z</time>
      </trkpt>
      <trkpt lat="45.17954" lon="4.0851">
        <ele>796.6</ele>
        <time>2019-12-07T15:13:13Z</time>
      </trkpt>
      <trkpt lat="45.17963" lon="4.0852">
        <ele>796</ele>
        <time>2019-12-07T15:13:17Z</time>
      </trkpt>
      <trkpt lat="45.17969" lon="4.08526">
        <ele>795.7</ele>
        <time>2019-12-07T15:13:20Z</time>
      </trkpt>
      <trkpt lat="45.17979" lon="4.08531">
        <ele>795.3</ele>
        <time>2019-12-07T15:13:24Z</time>
      </trkpt>
      <trkpt lat="45.18034" lon="4.08541">
        <ele>792.9</ele>
        <time>2019-12-07T15:13:42Z</time>
      </trkpt>
      <trkpt lat="45.18083" lon="4.08587">
        <ele>791.2</ele>
        <time>2019-12-07T15:13:59Z</time>
      </trkpt>
      <trkpt lat="45.18094" lon="4.08599">
        <ele>791.1</ele>
        <time>2019-12-07T15:14:03Z</time>
      </trkpt>
      <trkpt lat="45.18108" lon="4.08624">
        <ele>791.1</ele>
        <time>2019-12-07T15:14:10Z</time>
      </trkpt>
      <trkpt lat="45.1811" lon="4.08627">
        <ele>791</ele>
        <time>2019-12-07T15:14:11Z</time>
      </trkpt>
      <trkpt lat="45.18124" lon="4.08656">
        <ele>790.1</ele>
        <time>2019-12-07T15:14:18Z</time>
      </trkpt>
      <trkpt lat="45.18137" lon="4.08664">
        <ele>789.8</ele>
        <time>2019-12-07T15:14:22Z</time>
      </trkpt>
      <trkpt lat="45.18147" lon="4.08664">
        <ele>789.6</ele>
        <time>2019-12-07T15:14:24Z</time>
      </trkpt>
      <trkpt lat="45.18165" lon="4.08661">
        <ele>789.2</ele>
        <time>2019-12-07T15:14:28Z</time>
      </trkpt>
      <trkpt lat="45.1817" lon="4.08659">
        <ele>789.1</ele>
        <time>2019-12-07T15:14:29Z</time>
      </trkpt>
      <trkpt lat="45.18179" lon="4.08655">
        <ele>788.9</ele>
        <time>2019-12-07T15:14:31Z</time>
      </trkpt>
      <trkpt lat="45.18184" lon="4.08652">
        <ele>788.8</ele>
        <time>2019-12-07T15:14:32Z</time>
      </trkpt>
      <trkpt lat="45.18188" lon="4.08648">
        <ele>788.8</ele>
        <time>2019-12-07T15:14:33Z</time>
      </trkpt>
      <trkpt lat="45.18192" lon="4.08644">
        <ele>788.7</ele>
        <time>2019-12-07T15:14:34Z</time>
      </trkpt>
      <trkpt lat="45.18196" lon="4.0864">
        <ele>788.7</ele>
        <time>2019-12-07T15:14:35Z</time>
      </trkpt>
      <trkpt lat="45.18199" lon="4.08636">
        <ele>788.7</ele>
        <time>2019-12-07T15:14:36Z</time>
      </trkpt>
      <trkpt lat="45.18202" lon="4.08632">
        <ele>788.7</ele>
        <time>2019-12-07T15:14:37Z</time>
      </trkpt>
      <trkpt lat="45.1821" lon="4.08618">
        <ele>788.5</ele>
        <time>2019-12-07T15:14:40Z</time>
      </trkpt>
      <trkpt lat="45.18213" lon="4.08612">
        <ele>788.5</ele>
        <time>2019-12-07T15:14:41Z</time>
      </trkpt>
      <trkpt lat="45.18214" lon="4.08605">
        <ele>788.3</ele>
        <time>2019-12-07T15:14:42Z</time>
      </trkpt>
      <trkpt lat="45.18215" lon="4.08599">
        <ele>788.2</ele>
        <time>2019-12-07T15:14:43Z</time>
      </trkpt>
      <trkpt lat="45.18216" lon="4.08592">
        <ele>788.1</ele>
        <time>2019-12-07T15:14:44Z</time>
      </trkpt>
      <trkpt lat="45.18217" lon="4.08586">
        <ele>788</ele>
        <time>2019-12-07T15:14:45Z</time>
      </trkpt>
      <trkpt lat="45.18218" lon="4.08571">
        <ele>787.8</ele>
        <time>2019-12-07T15:14:47Z</time>
      </trkpt>
      <trkpt lat="45.1822" lon="4.08565">
        <ele>787.7</ele>
        <time>2019-12-07T15:14:48Z</time>
      </trkpt>
      <trkpt lat="45.18222" lon="4.08559">
        <ele>787.6</ele>
        <time>2019-12-07T15:14:49Z</time>
      </trkpt>
      <trkpt lat="45.18225" lon="4.08555">
        <ele>787.6</ele>
        <time>2019-12-07T15:14:50Z</time>
      </trkpt>
      <trkpt lat="45.18229" lon="4.08551">
        <ele>787.5</ele>
        <time>2019-12-07T15:14:51Z</time>
      </trkpt>
      <trkpt lat="45.18234" lon="4.0855">
        <ele>787.4</ele>
        <time>2019-12-07T15:14:52Z</time>
      </trkpt>
      <trkpt lat="45.18238" lon="4.08548">
        <ele>787.3</ele>
        <time>2019-12-07T15:14:53Z</time>
      </trkpt>
      <trkpt lat="45.18242" lon="4.08548">
        <ele>787.2</ele>
        <time>2019-12-07T15:14:54Z</time>
      </trkpt>
      <trkpt lat="45.18246" lon="4.08549">
        <ele>787</ele>
        <time>2019-12-07T15:14:55Z</time>
      </trkpt>
      <trkpt lat="45.18251" lon="4.08549">
        <ele>786.9</ele>
        <time>2019-12-07T15:14:56Z</time>
      </trkpt>
      <trkpt lat="45.18256" lon="4.08551">
        <ele>786.8</ele>
        <time>2019-12-07T15:14:57Z</time>
      </trkpt>
      <trkpt lat="45.1826" lon="4.08552">
        <ele>786.7</ele>
        <time>2019-12-07T15:14:58Z</time>
      </trkpt>
      <trkpt lat="45.18264" lon="4.08555">
        <ele>786.6</ele>
        <time>2019-12-07T15:14:59Z</time>
      </trkpt>
      <trkpt lat="45.18285" lon="4.08568">
        <ele>786.1</ele>
        <time>2019-12-07T15:15:04Z</time>
      </trkpt>
      <trkpt lat="45.18289" lon="4.08571">
        <ele>786</ele>
        <time>2019-12-07T15:15:05Z</time>
      </trkpt>
      <trkpt lat="45.18323" lon="4.08588">
        <ele>785.7</ele>
        <time>2019-12-07T15:15:13Z</time>
      </trkpt>
      <trkpt lat="45.18328" lon="4.0859">
        <ele>785.6</ele>
        <time>2019-12-07T15:15:14Z</time>
      </trkpt>
      <trkpt lat="45.18332" lon="4.08593">
        <ele>785.6</ele>
        <time>2019-12-07T15:15:15Z</time>
      </trkpt>
      <trkpt lat="45.18335" lon="4.08596">
        <ele>785.6</ele>
        <time>2019-12-07T15:15:16Z</time>
      </trkpt>
      <trkpt lat="45.18339" lon="4.086">
        <ele>785.6</ele>
        <time>2019-12-07T15:15:17Z</time>
      </trkpt>
      <trkpt lat="45.18362" lon="4.08621">
        <ele>785.6</ele>
        <time>2019-12-07T15:15:24Z</time>
      </trkpt>
      <trkpt lat="45.18393" lon="4.08688">
        <ele>782.4</ele>
        <time>2019-12-07T15:15:43Z</time>
      </trkpt>
      <trkpt lat="45.18402" lon="4.0871">
        <ele>780.8</ele>
        <time>2019-12-07T15:15:49Z</time>
      </trkpt>
      <trkpt lat="45.18408" lon="4.08723">
        <ele>779.9</ele>
        <time>2019-12-07T15:15:52Z</time>
      </trkpt>
      <trkpt lat="45.18419" lon="4.08742">
        <ele>778.5</ele>
        <time>2019-12-07T15:15:57Z</time>
      </trkpt>
      <trkpt lat="45.18438" lon="4.08762">
        <ele>777</ele>
        <time>2019-12-07T15:16:02Z</time>
      </trkpt>
      <trkpt lat="45.18444" lon="4.08766">
        <ele>776.6</ele>
        <time>2019-12-07T15:16:03Z</time>
      </trkpt>
      <trkpt lat="45.18449" lon="4.08769">
        <ele>776.3</ele>
        <time>2019-12-07T15:16:04Z</time>
      </trkpt>
      <trkpt lat="45.18454" lon="4.08771">
        <ele>776.1</ele>
        <time>2019-12-07T15:16:05Z</time>
      </trkpt>
      <trkpt lat="45.18459" lon="4.08774">
        <ele>775.9</ele>
        <time>2019-12-07T15:16:06Z</time>
      </trkpt>
      <trkpt lat="45.18463" lon="4.08776">
        <ele>775.7</ele>
        <time>2019-12-07T15:16:07Z</time>
      </trkpt>
      <trkpt lat="45.18468" lon="4.08777">
        <ele>775.6</ele>
        <time>2019-12-07T15:16:08Z</time>
      </trkpt>
      <trkpt lat="45.18472" lon="4.08778">
        <ele>775.6</ele>
        <time>2019-12-07T15:16:09Z</time>
      </trkpt>
      <trkpt lat="45.18476" lon="4.08779">
        <ele>775.7</ele>
        <time>2019-12-07T15:16:10Z</time>
      </trkpt>
      <trkpt lat="45.1848" lon="4.08781">
        <ele>775.7</ele>
        <time>2019-12-07T15:16:11Z</time>
      </trkpt>
      <trkpt lat="45.18482" lon="4.08782">
        <ele>775.7</ele>
        <time>2019-12-07T15:16:12Z</time>
      </trkpt>
      <trkpt lat="45.18487" lon="4.08785">
        <ele>775.7</ele>
        <time>2019-12-07T15:16:21Z</time>
      </trkpt>
      <trkpt lat="45.18493" lon="4.08797">
        <ele>773.4</ele>
        <time>2019-12-07T15:18:06Z</time>
      </trkpt>
      <trkpt lat="45.18494" lon="4.08798">
        <ele>773.2</ele>
        <time>2019-12-07T15:18:07Z</time>
      </trkpt>
      <trkpt lat="45.18495" lon="4.088">
        <ele>773</ele>
        <time>2019-12-07T15:18:08Z</time>
      </trkpt>
      <trkpt lat="45.18497" lon="4.08801">
        <ele>772.7</ele>
        <time>2019-12-07T15:18:09Z</time>
      </trkpt>
      <trkpt lat="45.18499" lon="4.08803">
        <ele>772.3</ele>
        <time>2019-12-07T15:18:10Z</time>
      </trkpt>
      <trkpt lat="45.18501" lon="4.08804">
        <ele>771.9</ele>
        <time>2019-12-07T15:18:11Z</time>
      </trkpt>
      <trkpt lat="45.18503" lon="4.08806">
        <ele>771.5</ele>
        <time>2019-12-07T15:18:12Z</time>
      </trkpt>
      <trkpt lat="45.18506" lon="4.08808">
        <ele>771</ele>
        <time>2019-12-07T15:18:13Z</time>
      </trkpt>
      <trkpt lat="45.18523" lon="4.08817">
        <ele>768.1</ele>
        <time>2019-12-07T15:18:18Z</time>
      </trkpt>
      <trkpt lat="45.18535" lon="4.08823">
        <ele>766.1</ele>
        <time>2019-12-07T15:18:21Z</time>
      </trkpt>
      <trkpt lat="45.18549" lon="4.08832">
        <ele>763.8</ele>
        <time>2019-12-07T15:18:24Z</time>
      </trkpt>
      <trkpt lat="45.1856" lon="4.08839">
        <ele>762</ele>
        <time>2019-12-07T15:18:26Z</time>
      </trkpt>
      <trkpt lat="45.18582" lon="4.08854">
        <ele>757.8</ele>
        <time>2019-12-07T15:18:30Z</time>
      </trkpt>
      <trkpt lat="45.18588" lon="4.08855">
        <ele>757.1</ele>
        <time>2019-12-07T15:18:31Z</time>
      </trkpt>
      <trkpt lat="45.18593" lon="4.08853">
        <ele>757.8</ele>
        <time>2019-12-07T15:18:32Z</time>
      </trkpt>
      <trkpt lat="45.18597" lon="4.08851">
        <ele>757.7</ele>
        <time>2019-12-07T15:18:33Z</time>
      </trkpt>
      <trkpt lat="45.186" lon="4.08849">
        <ele>758.5</ele>
        <time>2019-12-07T15:18:34Z</time>
      </trkpt>
      <trkpt lat="45.18603" lon="4.08848">
        <ele>758.5</ele>
        <time>2019-12-07T15:18:35Z</time>
      </trkpt>
      <trkpt lat="45.18606" lon="4.08849">
        <ele>758.5</ele>
        <time>2019-12-07T15:18:36Z</time>
      </trkpt>
      <trkpt lat="45.1861" lon="4.08849">
        <ele>758.5</ele>
        <time>2019-12-07T15:18:37Z</time>
      </trkpt>
      <trkpt lat="45.18625" lon="4.08855">
        <ele>756</ele>
        <time>2019-12-07T15:18:41Z</time>
      </trkpt>
      <trkpt lat="45.1867" lon="4.08866">
        <ele>751.1</ele>
        <time>2019-12-07T15:18:49Z</time>
      </trkpt>
      <trkpt lat="45.18685" lon="4.08865">
        <ele>750.1</ele>
        <time>2019-12-07T15:18:52Z</time>
      </trkpt>
      <trkpt lat="45.187" lon="4.08868">
        <ele>748.6</ele>
        <time>2019-12-07T15:18:56Z</time>
      </trkpt>
      <trkpt lat="45.18706" lon="4.08866">
        <ele>748.4</ele>
        <time>2019-12-07T15:18:58Z</time>
      </trkpt>
      <trkpt lat="45.18727" lon="4.08862">
        <ele>747.7</ele>
        <time>2019-12-07T15:19:04Z</time>
      </trkpt>
      <trkpt lat="45.18731" lon="4.08863">
        <ele>747.4</ele>
        <time>2019-12-07T15:19:05Z</time>
      </trkpt>
      <trkpt lat="45.18744" lon="4.08869">
        <ele>746.5</ele>
        <time>2019-12-07T15:19:08Z</time>
      </trkpt>
      <trkpt lat="45.18771" lon="4.08881">
        <ele>744.1</ele>
        <time>2019-12-07T15:19:14Z</time>
      </trkpt>
      <trkpt lat="45.1881" lon="4.08891">
        <ele>740.6</ele>
        <time>2019-12-07T15:19:20Z</time>
      </trkpt>
      <trkpt lat="45.18848" lon="4.08888">
        <ele>737.2</ele>
        <time>2019-12-07T15:19:25Z</time>
      </trkpt>
      <trkpt lat="45.18886" lon="4.08874">
        <ele>732.6</ele>
        <time>2019-12-07T15:19:29Z</time>
      </trkpt>
      <trkpt lat="45.18908" lon="4.08868">
        <ele>730.3</ele>
        <time>2019-12-07T15:19:31Z</time>
      </trkpt>
      <trkpt lat="45.18919" lon="4.08862">
        <ele>729.4</ele>
        <time>2019-12-07T15:19:32Z</time>
      </trkpt>
      <trkpt lat="45.1893" lon="4.08855">
        <ele>728.4</ele>
        <time>2019-12-07T15:19:33Z</time>
      </trkpt>
      <trkpt lat="45.18961" lon="4.08835">
        <ele>726.5</ele>
        <time>2019-12-07T15:19:36Z</time>
      </trkpt>
      <trkpt lat="45.18992" lon="4.08821">
        <ele>725.4</ele>
        <time>2019-12-07T15:19:39Z</time>
      </trkpt>
      <trkpt lat="45.19035" lon="4.08804">
        <ele>723.2</ele>
        <time>2019-12-07T15:19:44Z</time>
      </trkpt>
      <trkpt lat="45.19074" lon="4.08788">
        <ele>721.6</ele>
        <time>2019-12-07T15:19:50Z</time>
      </trkpt>
      <trkpt lat="45.19086" lon="4.08783">
        <ele>721.7</ele>
        <time>2019-12-07T15:19:52Z</time>
      </trkpt>
      <trkpt lat="45.19092" lon="4.08779">
        <ele>721.5</ele>
        <time>2019-12-07T15:19:53Z</time>
      </trkpt>
      <trkpt lat="45.19097" lon="4.08773">
        <ele>721.5</ele>
        <time>2019-12-07T15:19:54Z</time>
      </trkpt>
      <trkpt lat="45.191" lon="4.08767">
        <ele>721.4</ele>
        <time>2019-12-07T15:19:55Z</time>
      </trkpt>
      <trkpt lat="45.19104" lon="4.08761">
        <ele>721.4</ele>
        <time>2019-12-07T15:19:56Z</time>
      </trkpt>
      <trkpt lat="45.19119" lon="4.0874">
        <ele>721.7</ele>
        <time>2019-12-07T15:20:00Z</time>
      </trkpt>
      <trkpt lat="45.19123" lon="4.08736">
        <ele>721.7</ele>
        <time>2019-12-07T15:20:01Z</time>
      </trkpt>
      <trkpt lat="45.19127" lon="4.08733">
        <ele>721.7</ele>
        <time>2019-12-07T15:20:02Z</time>
      </trkpt>
      <trkpt lat="45.19137" lon="4.08729">
        <ele>721.8</ele>
        <time>2019-12-07T15:20:04Z</time>
      </trkpt>
      <trkpt lat="45.19142" lon="4.08728">
        <ele>721.8</ele>
        <time>2019-12-07T15:20:05Z</time>
      </trkpt>
      <trkpt lat="45.19147" lon="4.08727">
        <ele>721.8</ele>
        <time>2019-12-07T15:20:06Z</time>
      </trkpt>
      <trkpt lat="45.19169" lon="4.08727">
        <ele>721.9</ele>
        <time>2019-12-07T15:20:11Z</time>
      </trkpt>
      <trkpt lat="45.19208" lon="4.08736">
        <ele>722.8</ele>
        <time>2019-12-07T15:20:23Z</time>
      </trkpt>
      <trkpt lat="45.1922" lon="4.08738">
        <ele>722.9</ele>
        <time>2019-12-07T15:20:27Z</time>
      </trkpt>
      <trkpt lat="45.19238" lon="4.0874">
        <ele>723</ele>
        <time>2019-12-07T15:20:33Z</time>
      </trkpt>
      <trkpt lat="45.19253" lon="4.08725">
        <ele>723.3</ele>
        <time>2019-12-07T15:20:50Z</time>
      </trkpt>
      <trkpt lat="45.19251" lon="4.08723">
        <ele>723.3</ele>
        <time>2019-12-07T15:23:28Z</time>
      </trkpt>
      <trkpt lat="45.19253" lon="4.0872">
        <ele>723.3</ele>
        <time>2019-12-07T15:23:29Z</time>
      </trkpt>
      <trkpt lat="45.19254" lon="4.08718">
        <ele>723.3</ele>
        <time>2019-12-07T15:23:30Z</time>
      </trkpt>
      <trkpt lat="45.19256" lon="4.08715">
        <ele>723.3</ele>
        <time>2019-12-07T15:23:31Z</time>
      </trkpt>
      <trkpt lat="45.19257" lon="4.08712">
        <ele>723.3</ele>
        <time>2019-12-07T15:23:32Z</time>
      </trkpt>
      <trkpt lat="45.19259" lon="4.0871">
        <ele>723.2</ele>
        <time>2019-12-07T15:23:33Z</time>
      </trkpt>
      <trkpt lat="45.19261" lon="4.08707">
        <ele>723.2</ele>
        <time>2019-12-07T15:23:34Z</time>
      </trkpt>
      <trkpt lat="45.19263" lon="4.08705">
        <ele>723.1</ele>
        <time>2019-12-07T15:23:35Z</time>
      </trkpt>
      <trkpt lat="45.19269" lon="4.08694">
        <ele>722.9</ele>
        <time>2019-12-07T15:23:41Z</time>
      </trkpt>
      <trkpt lat="45.19274" lon="4.08686">
        <ele>722.8</ele>
        <time>2019-12-07T15:23:47Z</time>
      </trkpt>
      <trkpt lat="45.19313" lon="4.08651">
        <ele>721.6</ele>
        <time>2019-12-07T15:24:07Z</time>
      </trkpt>
      <trkpt lat="45.19325" lon="4.08642">
        <ele>721.3</ele>
        <time>2019-12-07T15:24:12Z</time>
      </trkpt>
      <trkpt lat="45.19369" lon="4.08592">
        <ele>719.8</ele>
        <time>2019-12-07T15:24:33Z</time>
      </trkpt>
      <trkpt lat="45.19392" lon="4.08571">
        <ele>719</ele>
        <time>2019-12-07T15:24:42Z</time>
      </trkpt>
      <trkpt lat="45.19443" lon="4.08538">
        <ele>717</ele>
        <time>2019-12-07T15:24:58Z</time>
      </trkpt>
      <trkpt lat="45.19472" lon="4.08518">
        <ele>715.3</ele>
        <time>2019-12-07T15:25:06Z</time>
      </trkpt>
      <trkpt lat="45.19476" lon="4.08515">
        <ele>715.1</ele>
        <time>2019-12-07T15:25:07Z</time>
      </trkpt>
      <trkpt lat="45.19525" lon="4.08485">
        <ele>711.9</ele>
        <time>2019-12-07T15:25:19Z</time>
      </trkpt>
      <trkpt lat="45.19568" lon="4.08456">
        <ele>710</ele>
        <time>2019-12-07T15:25:29Z</time>
      </trkpt>
      <trkpt lat="45.19608" lon="4.08437">
        <ele>708.7</ele>
        <time>2019-12-07T15:25:37Z</time>
      </trkpt>
      <trkpt lat="45.19622" lon="4.08429">
        <ele>708.2</ele>
        <time>2019-12-07T15:25:40Z</time>
      </trkpt>
      <trkpt lat="45.19627" lon="4.08426">
        <ele>708</ele>
        <time>2019-12-07T15:25:41Z</time>
      </trkpt>
      <trkpt lat="45.19649" lon="4.0841">
        <ele>707.3</ele>
        <time>2019-12-07T15:25:46Z</time>
      </trkpt>
      <trkpt lat="45.19662" lon="4.084">
        <ele>706.8</ele>
        <time>2019-12-07T15:25:49Z</time>
      </trkpt>
      <trkpt lat="45.19673" lon="4.0839">
        <ele>706.5</ele>
        <time>2019-12-07T15:25:52Z</time>
      </trkpt>
      <trkpt lat="45.1972" lon="4.08342">
        <ele>704.1</ele>
        <time>2019-12-07T15:26:07Z</time>
      </trkpt>
      <trkpt lat="45.19759" lon="4.08319">
        <ele>701.8</ele>
        <time>2019-12-07T15:26:25Z</time>
      </trkpt>
      <trkpt lat="45.19758" lon="4.0832">
        <ele>701.8</ele>
        <time>2019-12-07T15:26:32Z</time>
      </trkpt>
      <trkpt lat="45.19758" lon="4.08327">
        <ele>701.5</ele>
        <time>2019-12-07T15:27:28Z</time>
      </trkpt>
      <trkpt lat="45.19759" lon="4.0833">
        <ele>701.3</ele>
        <time>2019-12-07T15:27:29Z</time>
      </trkpt>
      <trkpt lat="45.19759" lon="4.08334">
        <ele>701.2</ele>
        <time>2019-12-07T15:27:30Z</time>
      </trkpt>
      <trkpt lat="45.19762" lon="4.08353">
        <ele>700.7</ele>
        <time>2019-12-07T15:27:35Z</time>
      </trkpt>
      <trkpt lat="45.19761" lon="4.08386">
        <ele>700.4</ele>
        <time>2019-12-07T15:27:44Z</time>
      </trkpt>
      <trkpt lat="45.19756" lon="4.08465">
        <ele>700.4</ele>
        <time>2019-12-07T15:28:07Z</time>
      </trkpt>
      <trkpt lat="45.19756" lon="4.08482">
        <ele>700.4</ele>
        <time>2019-12-07T15:28:12Z</time>
      </trkpt>
      <trkpt lat="45.19764" lon="4.08561">
        <ele>696.9</ele>
        <time>2019-12-07T15:28:36Z</time>
      </trkpt>
      <trkpt lat="45.1977" lon="4.08572">
        <ele>695.7</ele>
        <time>2019-12-07T15:28:41Z</time>
      </trkpt>
      <trkpt lat="45.19772" lon="4.08572">
        <ele>695.5</ele>
        <time>2019-12-07T15:28:42Z</time>
      </trkpt>
      <trkpt lat="45.19795" lon="4.08573">
        <ele>692.9</ele>
        <time>2019-12-07T15:28:51Z</time>
      </trkpt>
      <trkpt lat="45.1981" lon="4.08573">
        <ele>691.5</ele>
        <time>2019-12-07T15:28:56Z</time>
      </trkpt>
      <trkpt lat="45.19834" lon="4.08573">
        <ele>688.9</ele>
        <time>2019-12-07T15:29:04Z</time>
      </trkpt>
      <trkpt lat="45.19849" lon="4.0858">
        <ele>687.1</ele>
        <time>2019-12-07T15:29:11Z</time>
      </trkpt>
      <trkpt lat="45.19877" lon="4.08587">
        <ele>684.3</ele>
        <time>2019-12-07T15:29:23Z</time>
      </trkpt>
      <trkpt lat="45.19911" lon="4.08594">
        <ele>681.8</ele>
        <time>2019-12-07T15:29:32Z</time>
      </trkpt>
      <trkpt lat="45.19921" lon="4.08597">
        <ele>681</ele>
        <time>2019-12-07T15:29:34Z</time>
      </trkpt>
      <trkpt lat="45.1994" lon="4.08601">
        <ele>679.5</ele>
        <time>2019-12-07T15:29:37Z</time>
      </trkpt>
      <trkpt lat="45.19947" lon="4.08601">
        <ele>678.9</ele>
        <time>2019-12-07T15:29:38Z</time>
      </trkpt>
      <trkpt lat="45.19977" lon="4.08605">
        <ele>676.8</ele>
        <time>2019-12-07T15:29:42Z</time>
      </trkpt>
      <trkpt lat="45.2001" lon="4.08616">
        <ele>674.5</ele>
        <time>2019-12-07T15:29:46Z</time>
      </trkpt>
      <trkpt lat="45.20053" lon="4.08639">
        <ele>670.9</ele>
        <time>2019-12-07T15:29:51Z</time>
      </trkpt>
      <trkpt lat="45.20096" lon="4.08669">
        <ele>667.2</ele>
        <time>2019-12-07T15:29:56Z</time>
      </trkpt>
      <trkpt lat="45.20133" lon="4.08694">
        <ele>664.9</ele>
        <time>2019-12-07T15:30:00Z</time>
      </trkpt>
      <trkpt lat="45.20143" lon="4.08701">
        <ele>664.7</ele>
        <time>2019-12-07T15:30:01Z</time>
      </trkpt>
      <trkpt lat="45.20183" lon="4.08732">
        <ele>666.6</ele>
        <time>2019-12-07T15:30:06Z</time>
      </trkpt>
      <trkpt lat="45.2019" lon="4.08733">
        <ele>667.3</ele>
        <time>2019-12-07T15:30:07Z</time>
      </trkpt>
      <trkpt lat="45.20215" lon="4.08737">
        <ele>669.5</ele>
        <time>2019-12-07T15:30:13Z</time>
      </trkpt>
      <trkpt lat="45.20218" lon="4.0874">
        <ele>669.8</ele>
        <time>2019-12-07T15:30:15Z</time>
      </trkpt>
      <trkpt lat="45.2022" lon="4.0874">
        <ele>670</ele>
        <time>2019-12-07T15:30:16Z</time>
      </trkpt>
      <trkpt lat="45.20222" lon="4.0874">
        <ele>670.1</ele>
        <time>2019-12-07T15:30:17Z</time>
      </trkpt>
      <trkpt lat="45.20224" lon="4.08741">
        <ele>670.3</ele>
        <time>2019-12-07T15:30:18Z</time>
      </trkpt>
      <trkpt lat="45.20226" lon="4.08742">
        <ele>670.5</ele>
        <time>2019-12-07T15:30:19Z</time>
      </trkpt>
      <trkpt lat="45.20227" lon="4.08744">
        <ele>670.7</ele>
        <time>2019-12-07T15:30:20Z</time>
      </trkpt>
      <trkpt lat="45.20229" lon="4.08746">
        <ele>670.8</ele>
        <time>2019-12-07T15:30:21Z</time>
      </trkpt>
      <trkpt lat="45.2023" lon="4.08748">
        <ele>671</ele>
        <time>2019-12-07T15:30:22Z</time>
      </trkpt>
      <trkpt lat="45.20231" lon="4.0875">
        <ele>671.1</ele>
        <time>2019-12-07T15:30:23Z</time>
      </trkpt>
      <trkpt lat="45.20233" lon="4.08753">
        <ele>671.3</ele>
        <time>2019-12-07T15:30:24Z</time>
      </trkpt>
      <trkpt lat="45.20238" lon="4.08759">
        <ele>671.8</ele>
        <time>2019-12-07T15:30:27Z</time>
      </trkpt>
      <trkpt lat="45.20246" lon="4.08772">
        <ele>672.3</ele>
        <time>2019-12-07T15:30:33Z</time>
      </trkpt>
      <trkpt lat="45.20278" lon="4.08817">
        <ele>672.5</ele>
        <time>2019-12-07T15:30:57Z</time>
      </trkpt>
      <trkpt lat="45.2028" lon="4.08818">
        <ele>672.4</ele>
        <time>2019-12-07T15:30:58Z</time>
      </trkpt>
      <trkpt lat="45.20282" lon="4.0882">
        <ele>672.4</ele>
        <time>2019-12-07T15:30:59Z</time>
      </trkpt>
      <trkpt lat="45.20284" lon="4.08822">
        <ele>672.3</ele>
        <time>2019-12-07T15:31:00Z</time>
      </trkpt>
      <trkpt lat="45.20285" lon="4.08823">
        <ele>672.3</ele>
        <time>2019-12-07T15:31:01Z</time>
      </trkpt>
      <trkpt lat="45.20292" lon="4.08828">
        <ele>672.1</ele>
        <time>2019-12-07T15:31:04Z</time>
      </trkpt>
      <trkpt lat="45.20343" lon="4.08853">
        <ele>671.1</ele>
        <time>2019-12-07T15:31:26Z</time>
      </trkpt>
      <trkpt lat="45.20346" lon="4.08854">
        <ele>671</ele>
        <time>2019-12-07T15:31:27Z</time>
      </trkpt>
      <trkpt lat="45.20351" lon="4.08855">
        <ele>670.9</ele>
        <time>2019-12-07T15:31:29Z</time>
      </trkpt>
      <trkpt lat="45.20358" lon="4.08858">
        <ele>670.7</ele>
        <time>2019-12-07T15:31:32Z</time>
      </trkpt>
      <trkpt lat="45.20363" lon="4.0886">
        <ele>670.6</ele>
        <time>2019-12-07T15:31:34Z</time>
      </trkpt>
      <trkpt lat="45.20371" lon="4.08863">
        <ele>670.2</ele>
        <time>2019-12-07T15:31:37Z</time>
      </trkpt>
      <trkpt lat="45.2038" lon="4.08867">
        <ele>669.8</ele>
        <time>2019-12-07T15:31:40Z</time>
      </trkpt>
      <trkpt lat="45.20389" lon="4.08871">
        <ele>669.4</ele>
        <time>2019-12-07T15:31:43Z</time>
      </trkpt>
      <trkpt lat="45.20398" lon="4.08875">
        <ele>668.9</ele>
        <time>2019-12-07T15:31:46Z</time>
      </trkpt>
      <trkpt lat="45.20411" lon="4.08881">
        <ele>668.4</ele>
        <time>2019-12-07T15:31:50Z</time>
      </trkpt>
      <trkpt lat="45.20421" lon="4.08884">
        <ele>668.1</ele>
        <time>2019-12-07T15:31:53Z</time>
      </trkpt>
      <trkpt lat="45.20429" lon="4.08885">
        <ele>667.9</ele>
        <time>2019-12-07T15:31:56Z</time>
      </trkpt>
      <trkpt lat="45.20484" lon="4.08897">
        <ele>666.8</ele>
        <time>2019-12-07T15:32:19Z</time>
      </trkpt>
      <trkpt lat="45.20497" lon="4.089">
        <ele>666.5</ele>
        <time>2019-12-07T15:32:25Z</time>
      </trkpt>
      <trkpt lat="45.20507" lon="4.089">
        <ele>666.2</ele>
        <time>2019-12-07T15:32:29Z</time>
      </trkpt>
      <trkpt lat="45.20517" lon="4.089">
        <ele>666.1</ele>
        <time>2019-12-07T15:32:33Z</time>
      </trkpt>
      <trkpt lat="45.20536" lon="4.08898">
        <ele>666.3</ele>
        <time>2019-12-07T15:32:40Z</time>
      </trkpt>
      <trkpt lat="45.20586" lon="4.08922">
        <ele>666.9</ele>
        <time>2019-12-07T15:33:00Z</time>
      </trkpt>
      <trkpt lat="45.20597" lon="4.08928">
        <ele>667.2</ele>
        <time>2019-12-07T15:33:05Z</time>
      </trkpt>
      <trkpt lat="45.20608" lon="4.08933">
        <ele>667.6</ele>
        <time>2019-12-07T15:33:10Z</time>
      </trkpt>
      <trkpt lat="45.20621" lon="4.08925">
        <ele>668.5</ele>
        <time>2019-12-07T15:33:17Z</time>
      </trkpt>
      <trkpt lat="45.20635" lon="4.08916">
        <ele>669.6</ele>
        <time>2019-12-07T15:33:24Z</time>
      </trkpt>
      <trkpt lat="45.20646" lon="4.08919">
        <ele>670.2</ele>
        <time>2019-12-07T15:33:29Z</time>
      </trkpt>
      <trkpt lat="45.20653" lon="4.08942">
        <ele>671.4</ele>
        <time>2019-12-07T15:33:37Z</time>
      </trkpt>
      <trkpt lat="45.20657" lon="4.08955">
        <ele>673.1</ele>
        <time>2019-12-07T15:33:42Z</time>
      </trkpt>
      <trkpt lat="45.20668" lon="4.08979">
        <ele>676.1</ele>
        <time>2019-12-07T15:33:54Z</time>
      </trkpt>
      <trkpt lat="45.20669" lon="4.08982">
        <ele>676.3</ele>
        <time>2019-12-07T15:33:55Z</time>
      </trkpt>
      <trkpt lat="45.2067" lon="4.08986">
        <ele>676.7</ele>
        <time>2019-12-07T15:33:57Z</time>
      </trkpt>
      <trkpt lat="45.20691" lon="4.09037">
        <ele>681.9</ele>
        <time>2019-12-07T15:34:18Z</time>
      </trkpt>
      <trkpt lat="45.207" lon="4.09075">
        <ele>685.7</ele>
        <time>2019-12-07T15:34:32Z</time>
      </trkpt>
      <trkpt lat="45.20709" lon="4.09103">
        <ele>688.9</ele>
        <time>2019-12-07T15:34:44Z</time>
      </trkpt>
      <trkpt lat="45.20728" lon="4.09123">
        <ele>692.2</ele>
        <time>2019-12-07T15:34:57Z</time>
      </trkpt>
      <trkpt lat="45.20737" lon="4.09125">
        <ele>693.4</ele>
        <time>2019-12-07T15:35:02Z</time>
      </trkpt>
      <trkpt lat="45.20741" lon="4.09127">
        <ele>694</ele>
        <time>2019-12-07T15:35:04Z</time>
      </trkpt>
      <trkpt lat="45.20755" lon="4.09128">
        <ele>695.7</ele>
        <time>2019-12-07T15:35:12Z</time>
      </trkpt>
      <trkpt lat="45.20765" lon="4.09135">
        <ele>696.7</ele>
        <time>2019-12-07T15:35:18Z</time>
      </trkpt>
      <trkpt lat="45.20794" lon="4.09135">
        <ele>698.8</ele>
        <time>2019-12-07T15:35:32Z</time>
      </trkpt>
      <trkpt lat="45.20812" lon="4.09132">
        <ele>700.6</ele>
        <time>2019-12-07T15:35:42Z</time>
      </trkpt>
      <trkpt lat="45.20813" lon="4.09132">
        <ele>700.7</ele>
        <time>2019-12-07T15:35:43Z</time>
      </trkpt>
      <trkpt lat="45.20815" lon="4.09132">
        <ele>700.9</ele>
        <time>2019-12-07T15:35:44Z</time>
      </trkpt>
      <trkpt lat="45.20816" lon="4.09132">
        <ele>701</ele>
        <time>2019-12-07T15:35:45Z</time>
      </trkpt>
      <trkpt lat="45.20817" lon="4.09133">
        <ele>701.1</ele>
        <time>2019-12-07T15:35:52Z</time>
      </trkpt>
      <trkpt lat="45.20823" lon="4.09128">
        <ele>701.2</ele>
        <time>2019-12-07T15:36:41Z</time>
      </trkpt>
      <trkpt lat="45.20825" lon="4.09128">
        <ele>701.2</ele>
        <time>2019-12-07T15:36:42Z</time>
      </trkpt>
      <trkpt lat="45.20831" lon="4.09125">
        <ele>701.2</ele>
        <time>2019-12-07T15:36:45Z</time>
      </trkpt>
      <trkpt lat="45.20842" lon="4.09119">
        <ele>701.3</ele>
        <time>2019-12-07T15:36:50Z</time>
      </trkpt>
      <trkpt lat="45.20848" lon="4.09115">
        <ele>701.4</ele>
        <time>2019-12-07T15:36:53Z</time>
      </trkpt>
      <trkpt lat="45.20853" lon="4.09109">
        <ele>701</ele>
        <time>2019-12-07T15:36:56Z</time>
      </trkpt>
      <trkpt lat="45.2086" lon="4.091">
        <ele>700.9</ele>
        <time>2019-12-07T15:36:59Z</time>
      </trkpt>
      <trkpt lat="45.20901" lon="4.09071">
        <ele>700.4</ele>
        <time>2019-12-07T15:37:13Z</time>
      </trkpt>
      <trkpt lat="45.20927" lon="4.09063">
        <ele>700.3</ele>
        <time>2019-12-07T15:37:24Z</time>
      </trkpt>
      <trkpt lat="45.20927" lon="4.09064">
        <ele>700.3</ele>
        <time>2019-12-07T15:37:30Z</time>
      </trkpt>
      <trkpt lat="45.20922" lon="4.09059">
        <ele>700</ele>
        <time>2019-12-07T15:37:41Z</time>
      </trkpt>
      <trkpt lat="45.2092" lon="4.09059">
        <ele>699.9</ele>
        <time>2019-12-07T15:37:42Z</time>
      </trkpt>
      <trkpt lat="45.20918" lon="4.09058">
        <ele>699.7</ele>
        <time>2019-12-07T15:37:43Z</time>
      </trkpt>
      <trkpt lat="45.20917" lon="4.09055">
        <ele>699.5</ele>
        <time>2019-12-07T15:37:44Z</time>
      </trkpt>
      <trkpt lat="45.20917" lon="4.09051">
        <ele>699.2</ele>
        <time>2019-12-07T15:37:45Z</time>
      </trkpt>
      <trkpt lat="45.20917" lon="4.09046">
        <ele>698.9</ele>
        <time>2019-12-07T15:37:46Z</time>
      </trkpt>
      <trkpt lat="45.20916" lon="4.09041">
        <ele>698.6</ele>
        <time>2019-12-07T15:37:47Z</time>
      </trkpt>
      <trkpt lat="45.20915" lon="4.09036">
        <ele>698.2</ele>
        <time>2019-12-07T15:37:48Z</time>
      </trkpt>
      <trkpt lat="45.20909" lon="4.09019">
        <ele>696.9</ele>
        <time>2019-12-07T15:37:52Z</time>
      </trkpt>
      <trkpt lat="45.20901" lon="4.09001">
        <ele>695.3</ele>
        <time>2019-12-07T15:37:56Z</time>
      </trkpt>
      <trkpt lat="45.20886" lon="4.0897">
        <ele>692.1</ele>
        <time>2019-12-07T15:38:03Z</time>
      </trkpt>
      <trkpt lat="45.2088" lon="4.08964">
        <ele>692.9</ele>
        <time>2019-12-07T15:38:14Z</time>
      </trkpt>
      <trkpt lat="45.20881" lon="4.08967">
        <ele>693.1</ele>
        <time>2019-12-07T15:38:16Z</time>
      </trkpt>
      <trkpt lat="45.20882" lon="4.08969">
        <ele>693.3</ele>
        <time>2019-12-07T15:38:17Z</time>
      </trkpt>
      <trkpt lat="45.20883" lon="4.0897">
        <ele>693.4</ele>
        <time>2019-12-07T15:38:18Z</time>
      </trkpt>
      <trkpt lat="45.20889" lon="4.08982">
        <ele>694.4</ele>
        <time>2019-12-07T15:38:25Z</time>
      </trkpt>
      <trkpt lat="45.20899" lon="4.09002">
        <ele>696</ele>
        <time>2019-12-07T15:38:37Z</time>
      </trkpt>
      <trkpt lat="45.20903" lon="4.09009">
        <ele>696.6</ele>
        <time>2019-12-07T15:38:41Z</time>
      </trkpt>
      <trkpt lat="45.20905" lon="4.09014">
        <ele>697</ele>
        <time>2019-12-07T15:38:44Z</time>
      </trkpt>
      <trkpt lat="45.20907" lon="4.09022">
        <ele>697.5</ele>
        <time>2019-12-07T15:38:48Z</time>
      </trkpt>
      <trkpt lat="45.20907" lon="4.09023">
        <ele>697.6</ele>
        <time>2019-12-07T15:38:49Z</time>
      </trkpt>
      <trkpt lat="45.20908" lon="4.09025">
        <ele>697.7</ele>
        <time>2019-12-07T15:38:50Z</time>
      </trkpt>
      <trkpt lat="45.20909" lon="4.09027">
        <ele>697.9</ele>
        <time>2019-12-07T15:38:51Z</time>
      </trkpt>
      <trkpt lat="45.20909" lon="4.09029">
        <ele>698</ele>
        <time>2019-12-07T15:38:52Z</time>
      </trkpt>
      <trkpt lat="45.2091" lon="4.09031">
        <ele>698.1</ele>
        <time>2019-12-07T15:38:53Z</time>
      </trkpt>
      <trkpt lat="45.2091" lon="4.09033">
        <ele>698.3</ele>
        <time>2019-12-07T15:38:54Z</time>
      </trkpt>
      <trkpt lat="45.2091" lon="4.09036">
        <ele>698.4</ele>
        <time>2019-12-07T15:38:55Z</time>
      </trkpt>
      <trkpt lat="45.2091" lon="4.09038">
        <ele>698.6</ele>
        <time>2019-12-07T15:38:56Z</time>
      </trkpt>
      <trkpt lat="45.20918" lon="4.09055">
        <ele>699.7</ele>
        <time>2019-12-07T15:39:05Z</time>
      </trkpt>
      <trkpt lat="45.20918" lon="4.09057">
        <ele>699.8</ele>
        <time>2019-12-07T15:39:06Z</time>
      </trkpt>
      <trkpt lat="45.20919" lon="4.09059">
        <ele>699.9</ele>
        <time>2019-12-07T15:39:07Z</time>
      </trkpt>
      <trkpt lat="45.20919" lon="4.0906">
        <ele>700</ele>
        <time>2019-12-07T15:39:08Z</time>
      </trkpt>
      <trkpt lat="45.2092" lon="4.09062">
        <ele>700.3</ele>
        <time>2019-12-07T15:39:09Z</time>
      </trkpt>
      <trkpt lat="45.20921" lon="4.09063">
        <ele>700.3</ele>
        <time>2019-12-07T15:39:10Z</time>
      </trkpt>
      <trkpt lat="45.20922" lon="4.09064">
        <ele>700.3</ele>
        <time>2019-12-07T15:39:11Z</time>
      </trkpt>
      <trkpt lat="45.20923" lon="4.09065">
        <ele>700.3</ele>
        <time>2019-12-07T15:39:12Z</time>
      </trkpt>
      <trkpt lat="45.20925" lon="4.09065">
        <ele>700.3</ele>
        <time>2019-12-07T15:39:13Z</time>
      </trkpt>
      <trkpt lat="45.20926" lon="4.09065">
        <ele>700.3</ele>
        <time>2019-12-07T15:39:14Z</time>
      </trkpt>
      <trkpt lat="45.20927" lon="4.09065">
        <ele>700.2</ele>
        <time>2019-12-07T15:39:15Z</time>
      </trkpt>
      <trkpt lat="45.20928" lon="4.09065">
        <ele>700.2</ele>
        <time>2019-12-07T15:39:16Z</time>
      </trkpt>
      <trkpt lat="45.2093" lon="4.09063">
        <ele>700.2</ele>
        <time>2019-12-07T15:39:19Z</time>
      </trkpt>
      <trkpt lat="45.20931" lon="4.09062">
        <ele>700.2</ele>
        <time>2019-12-07T15:39:20Z</time>
      </trkpt>
      <trkpt lat="45.20958" lon="4.0905">
        <ele>699.7</ele>
        <time>2019-12-07T15:39:38Z</time>
      </trkpt>
      <trkpt lat="45.20968" lon="4.09049">
        <ele>699.1</ele>
        <time>2019-12-07T15:39:43Z</time>
      </trkpt>
      <trkpt lat="45.21002" lon="4.09039">
        <ele>697.4</ele>
        <time>2019-12-07T15:39:54Z</time>
      </trkpt>
      <trkpt lat="45.21013" lon="4.09034">
        <ele>696.4</ele>
        <time>2019-12-07T15:39:57Z</time>
      </trkpt>
      <trkpt lat="45.21018" lon="4.09029">
        <ele>696</ele>
        <time>2019-12-07T15:39:59Z</time>
      </trkpt>
      <trkpt lat="45.21025" lon="4.09022">
        <ele>695.6</ele>
        <time>2019-12-07T15:40:02Z</time>
      </trkpt>
      <trkpt lat="45.2103" lon="4.09015">
        <ele>695.3</ele>
        <time>2019-12-07T15:40:05Z</time>
      </trkpt>
      <trkpt lat="45.21035" lon="4.09009">
        <ele>694.8</ele>
        <time>2019-12-07T15:40:08Z</time>
      </trkpt>
      <trkpt lat="45.21046" lon="4.08995">
        <ele>693.6</ele>
        <time>2019-12-07T15:40:14Z</time>
      </trkpt>
      <trkpt lat="45.21075" lon="4.08972">
        <ele>691.8</ele>
        <time>2019-12-07T15:40:27Z</time>
      </trkpt>
      <trkpt lat="45.21092" lon="4.08968">
        <ele>691.4</ele>
        <time>2019-12-07T15:40:34Z</time>
      </trkpt>
      <trkpt lat="45.21119" lon="4.08958">
        <ele>690.8</ele>
        <time>2019-12-07T15:40:44Z</time>
      </trkpt>
      <trkpt lat="45.21173" lon="4.08936">
        <ele>687.5</ele>
        <time>2019-12-07T15:41:05Z</time>
      </trkpt>
      <trkpt lat="45.21187" lon="4.08934">
        <ele>686.2</ele>
        <time>2019-12-07T15:41:10Z</time>
      </trkpt>
      <trkpt lat="45.21227" lon="4.08918">
        <ele>683.8</ele>
        <time>2019-12-07T15:41:24Z</time>
      </trkpt>
      <trkpt lat="45.21238" lon="4.0888">
        <ele>681.4</ele>
        <time>2019-12-07T15:41:33Z</time>
      </trkpt>
      <trkpt lat="45.21228" lon="4.08822">
        <ele>678.7</ele>
        <time>2019-12-07T15:41:46Z</time>
      </trkpt>
      <trkpt lat="45.21222" lon="4.08757">
        <ele>674.7</ele>
        <time>2019-12-07T15:41:57Z</time>
      </trkpt>
      <trkpt lat="45.21223" lon="4.08751">
        <ele>674.3</ele>
        <time>2019-12-07T15:41:58Z</time>
      </trkpt>
      <trkpt lat="45.21224" lon="4.08745">
        <ele>673.7</ele>
        <time>2019-12-07T15:41:59Z</time>
      </trkpt>
      <trkpt lat="45.21229" lon="4.08726">
        <ele>672.4</ele>
        <time>2019-12-07T15:42:02Z</time>
      </trkpt>
      <trkpt lat="45.21232" lon="4.0872">
        <ele>672</ele>
        <time>2019-12-07T15:42:03Z</time>
      </trkpt>
      <trkpt lat="45.21234" lon="4.08714">
        <ele>671.7</ele>
        <time>2019-12-07T15:42:04Z</time>
      </trkpt>
      <trkpt lat="45.21243" lon="4.08697">
        <ele>670.5</ele>
        <time>2019-12-07T15:42:07Z</time>
      </trkpt>
      <trkpt lat="45.21267" lon="4.08667">
        <ele>668.3</ele>
        <time>2019-12-07T15:42:13Z</time>
      </trkpt>
      <trkpt lat="45.21272" lon="4.08663">
        <ele>667.9</ele>
        <time>2019-12-07T15:42:14Z</time>
      </trkpt>
      <trkpt lat="45.21288" lon="4.08652">
        <ele>666.6</ele>
        <time>2019-12-07T15:42:17Z</time>
      </trkpt>
      <trkpt lat="45.21294" lon="4.08649">
        <ele>666.2</ele>
        <time>2019-12-07T15:42:18Z</time>
      </trkpt>
      <trkpt lat="45.21301" lon="4.08647">
        <ele>665.9</ele>
        <time>2019-12-07T15:42:19Z</time>
      </trkpt>
      <trkpt lat="45.21307" lon="4.08645">
        <ele>665.3</ele>
        <time>2019-12-07T15:42:20Z</time>
      </trkpt>
      <trkpt lat="45.21335" lon="4.08643">
        <ele>663</ele>
        <time>2019-12-07T15:42:25Z</time>
      </trkpt>
      <trkpt lat="45.21341" lon="4.08645">
        <ele>662.4</ele>
        <time>2019-12-07T15:42:26Z</time>
      </trkpt>
      <trkpt lat="45.21348" lon="4.08645">
        <ele>661.7</ele>
        <time>2019-12-07T15:42:27Z</time>
      </trkpt>
      <trkpt lat="45.21354" lon="4.08643">
        <ele>661</ele>
        <time>2019-12-07T15:42:28Z</time>
      </trkpt>
      <trkpt lat="45.2136" lon="4.0864">
        <ele>660.3</ele>
        <time>2019-12-07T15:42:29Z</time>
      </trkpt>
      <trkpt lat="45.21365" lon="4.08636">
        <ele>659.5</ele>
        <time>2019-12-07T15:42:30Z</time>
      </trkpt>
      <trkpt lat="45.21369" lon="4.0863">
        <ele>658.8</ele>
        <time>2019-12-07T15:42:31Z</time>
      </trkpt>
      <trkpt lat="45.21373" lon="4.08622">
        <ele>657.8</ele>
        <time>2019-12-07T15:42:32Z</time>
      </trkpt>
      <trkpt lat="45.21382" lon="4.08607">
        <ele>655.4</ele>
        <time>2019-12-07T15:42:34Z</time>
      </trkpt>
      <trkpt lat="45.21388" lon="4.086">
        <ele>654.2</ele>
        <time>2019-12-07T15:42:35Z</time>
      </trkpt>
      <trkpt lat="45.21393" lon="4.08594">
        <ele>653.1</ele>
        <time>2019-12-07T15:42:36Z</time>
      </trkpt>
      <trkpt lat="45.21398" lon="4.08588">
        <ele>651.9</ele>
        <time>2019-12-07T15:42:37Z</time>
      </trkpt>
      <trkpt lat="45.21403" lon="4.08582">
        <ele>650.9</ele>
        <time>2019-12-07T15:42:38Z</time>
      </trkpt>
      <trkpt lat="45.21408" lon="4.08574">
        <ele>649.9</ele>
        <time>2019-12-07T15:42:39Z</time>
      </trkpt>
      <trkpt lat="45.21419" lon="4.08558">
        <ele>647.4</ele>
        <time>2019-12-07T15:42:41Z</time>
      </trkpt>
      <trkpt lat="45.21431" lon="4.08543">
        <ele>644.9</ele>
        <time>2019-12-07T15:42:43Z</time>
      </trkpt>
      <trkpt lat="45.21442" lon="4.08529">
        <ele>642.5</ele>
        <time>2019-12-07T15:42:46Z</time>
      </trkpt>
      <trkpt lat="45.21448" lon="4.08516">
        <ele>640.2</ele>
        <time>2019-12-07T15:42:49Z</time>
      </trkpt>
      <trkpt lat="45.21452" lon="4.08502">
        <ele>637.1</ele>
        <time>2019-12-07T15:42:52Z</time>
      </trkpt>
      <trkpt lat="45.21452" lon="4.08497">
        <ele>636.2</ele>
        <time>2019-12-07T15:42:53Z</time>
      </trkpt>
      <trkpt lat="45.21452" lon="4.08492">
        <ele>635.5</ele>
        <time>2019-12-07T15:42:54Z</time>
      </trkpt>
      <trkpt lat="45.21451" lon="4.08487">
        <ele>634.6</ele>
        <time>2019-12-07T15:42:55Z</time>
      </trkpt>
      <trkpt lat="45.21449" lon="4.08478">
        <ele>633</ele>
        <time>2019-12-07T15:42:57Z</time>
      </trkpt>
      <trkpt lat="45.21449" lon="4.0847">
        <ele>631.7</ele>
        <time>2019-12-07T15:43:00Z</time>
      </trkpt>
      <trkpt lat="45.2145" lon="4.0847">
        <ele>631.6</ele>
        <time>2019-12-07T15:43:03Z</time>
      </trkpt>
      <trkpt lat="45.2145" lon="4.0847">
        <ele>631.4</ele>
        <time>2019-12-07T15:43:07Z</time>
      </trkpt>
      <trkpt lat="45.2145" lon="4.08469">
        <ele>631.2</ele>
        <time>2019-12-07T15:43:10Z</time>
      </trkpt>
      <trkpt lat="45.2145" lon="4.08468">
        <ele>631.1</ele>
        <time>2019-12-07T15:43:12Z</time>
      </trkpt>
      <trkpt lat="45.21454" lon="4.08462">
        <ele>630</ele>
        <time>2019-12-07T15:45:02Z</time>
      </trkpt>
      <trkpt lat="45.21456" lon="4.0846">
        <ele>629.7</ele>
        <time>2019-12-07T15:45:03Z</time>
      </trkpt>
      <trkpt lat="45.21458" lon="4.08458">
        <ele>629.4</ele>
        <time>2019-12-07T15:45:04Z</time>
      </trkpt>
      <trkpt lat="45.21474" lon="4.08448">
        <ele>627.7</ele>
        <time>2019-12-07T15:45:10Z</time>
      </trkpt>
      <trkpt lat="45.21482" lon="4.08449">
        <ele>626.9</ele>
        <time>2019-12-07T15:45:13Z</time>
      </trkpt>
      <trkpt lat="45.21514" lon="4.08453">
        <ele>625.8</ele>
        <time>2019-12-07T15:45:23Z</time>
      </trkpt>
      <trkpt lat="45.21526" lon="4.08466">
        <ele>626.2</ele>
        <time>2019-12-07T15:45:28Z</time>
      </trkpt>
      <trkpt lat="45.2154" lon="4.08472">
        <ele>626.5</ele>
        <time>2019-12-07T15:45:34Z</time>
      </trkpt>
      <trkpt lat="45.21552" lon="4.08472">
        <ele>626.6</ele>
        <time>2019-12-07T15:45:39Z</time>
      </trkpt>
      <trkpt lat="45.21587" lon="4.08467">
        <ele>626.1</ele>
        <time>2019-12-07T15:45:52Z</time>
      </trkpt>
      <trkpt lat="45.21618" lon="4.08449">
        <ele>624.9</ele>
        <time>2019-12-07T15:46:01Z</time>
      </trkpt>
      <trkpt lat="45.21662" lon="4.08402">
        <ele>624.1</ele>
        <time>2019-12-07T15:46:19Z</time>
      </trkpt>
      <trkpt lat="45.21713" lon="4.08369">
        <ele>625.3</ele>
        <time>2019-12-07T15:46:43Z</time>
      </trkpt>
      <trkpt lat="45.21731" lon="4.0835">
        <ele>625.3</ele>
        <time>2019-12-07T15:46:51Z</time>
      </trkpt>
      <trkpt lat="45.21753" lon="4.08328">
        <ele>625.7</ele>
        <time>2019-12-07T15:47:00Z</time>
      </trkpt>
      <trkpt lat="45.21767" lon="4.08318">
        <ele>626.2</ele>
        <time>2019-12-07T15:47:05Z</time>
      </trkpt>
      <trkpt lat="45.21793" lon="4.08305">
        <ele>627.2</ele>
        <time>2019-12-07T15:47:14Z</time>
      </trkpt>
      <trkpt lat="45.21822" lon="4.08294">
        <ele>628.1</ele>
        <time>2019-12-07T15:47:24Z</time>
      </trkpt>
      <trkpt lat="45.21835" lon="4.08289">
        <ele>628.6</ele>
        <time>2019-12-07T15:47:28Z</time>
      </trkpt>
      <trkpt lat="45.21841" lon="4.08287">
        <ele>628.9</ele>
        <time>2019-12-07T15:47:30Z</time>
      </trkpt>
      <trkpt lat="45.21851" lon="4.08282">
        <ele>629.5</ele>
        <time>2019-12-07T15:47:33Z</time>
      </trkpt>
      <trkpt lat="45.21869" lon="4.08275">
        <ele>630.6</ele>
        <time>2019-12-07T15:47:39Z</time>
      </trkpt>
      <trkpt lat="45.21885" lon="4.08278">
        <ele>631.5</ele>
        <time>2019-12-07T15:47:44Z</time>
      </trkpt>
      <trkpt lat="45.21909" lon="4.08283">
        <ele>632.2</ele>
        <time>2019-12-07T15:47:52Z</time>
      </trkpt>
      <trkpt lat="45.2192" lon="4.08285">
        <ele>632</ele>
        <time>2019-12-07T15:47:55Z</time>
      </trkpt>
      <trkpt lat="45.21925" lon="4.08284">
        <ele>631.8</ele>
        <time>2019-12-07T15:47:56Z</time>
      </trkpt>
      <trkpt lat="45.21936" lon="4.08283">
        <ele>631.2</ele>
        <time>2019-12-07T15:47:58Z</time>
      </trkpt>
      <trkpt lat="45.21994" lon="4.08275">
        <ele>625.6</ele>
        <time>2019-12-07T15:48:07Z</time>
      </trkpt>
      <trkpt lat="45.22008" lon="4.08269">
        <ele>624</ele>
        <time>2019-12-07T15:48:09Z</time>
      </trkpt>
      <trkpt lat="45.22045" lon="4.0825">
        <ele>618.7</ele>
        <time>2019-12-07T15:48:14Z</time>
      </trkpt>
      <trkpt lat="45.22079" lon="4.08237">
        <ele>614</ele>
        <time>2019-12-07T15:48:18Z</time>
      </trkpt>
      <trkpt lat="45.22116" lon="4.08226">
        <ele>610.8</ele>
        <time>2019-12-07T15:48:23Z</time>
      </trkpt>
      <trkpt lat="45.22133" lon="4.08221">
        <ele>608.7</ele>
        <time>2019-12-07T15:48:26Z</time>
      </trkpt>
      <trkpt lat="45.22154" lon="4.08214">
        <ele>604.9</ele>
        <time>2019-12-07T15:48:30Z</time>
      </trkpt>
      <trkpt lat="45.22159" lon="4.08212">
        <ele>604.1</ele>
        <time>2019-12-07T15:48:31Z</time>
      </trkpt>
      <trkpt lat="45.22168" lon="4.08208">
        <ele>602.2</ele>
        <time>2019-12-07T15:48:33Z</time>
      </trkpt>
      <trkpt lat="45.22172" lon="4.08207">
        <ele>601.3</ele>
        <time>2019-12-07T15:48:34Z</time>
      </trkpt>
      <trkpt lat="45.22177" lon="4.08205">
        <ele>600.5</ele>
        <time>2019-12-07T15:48:35Z</time>
      </trkpt>
      <trkpt lat="45.22181" lon="4.08203">
        <ele>599.7</ele>
        <time>2019-12-07T15:48:36Z</time>
      </trkpt>
      <trkpt lat="45.22183" lon="4.08201">
        <ele>599</ele>
        <time>2019-12-07T15:48:37Z</time>
      </trkpt>
      <trkpt lat="45.22186" lon="4.082">
        <ele>598.4</ele>
        <time>2019-12-07T15:48:38Z</time>
      </trkpt>
      <trkpt lat="45.22188" lon="4.08201">
        <ele>598</ele>
        <time>2019-12-07T15:48:39Z</time>
      </trkpt>
      <trkpt lat="45.22189" lon="4.08202">
        <ele>597.8</ele>
        <time>2019-12-07T15:48:40Z</time>
      </trkpt>
      <trkpt lat="45.2219" lon="4.08202">
        <ele>597.6</ele>
        <time>2019-12-07T15:48:41Z</time>
      </trkpt>
      <trkpt lat="45.2219" lon="4.08203">
        <ele>597.5</ele>
        <time>2019-12-07T15:48:42Z</time>
      </trkpt>
      <trkpt lat="45.2219" lon="4.08205">
        <ele>597.3</ele>
        <time>2019-12-07T15:48:43Z</time>
      </trkpt>
      <trkpt lat="45.22191" lon="4.08208">
        <ele>597</ele>
        <time>2019-12-07T15:48:44Z</time>
      </trkpt>
      <trkpt lat="45.22191" lon="4.08211">
        <ele>596.5</ele>
        <time>2019-12-07T15:48:45Z</time>
      </trkpt>
      <trkpt lat="45.2219" lon="4.08216">
        <ele>596.1</ele>
        <time>2019-12-07T15:48:46Z</time>
      </trkpt>
      <trkpt lat="45.2219" lon="4.08222">
        <ele>595.6</ele>
        <time>2019-12-07T15:48:47Z</time>
      </trkpt>
      <trkpt lat="45.22189" lon="4.08254">
        <ele>593.5</ele>
        <time>2019-12-07T15:48:52Z</time>
      </trkpt>
      <trkpt lat="45.2219" lon="4.0826">
        <ele>593.1</ele>
        <time>2019-12-07T15:48:53Z</time>
      </trkpt>
      <trkpt lat="45.22192" lon="4.08264">
        <ele>592.8</ele>
        <time>2019-12-07T15:48:54Z</time>
      </trkpt>
      <trkpt lat="45.22195" lon="4.08268">
        <ele>592.5</ele>
        <time>2019-12-07T15:48:55Z</time>
      </trkpt>
      <trkpt lat="45.22198" lon="4.08272">
        <ele>592.2</ele>
        <time>2019-12-07T15:48:56Z</time>
      </trkpt>
      <trkpt lat="45.22203" lon="4.08274">
        <ele>591.8</ele>
        <time>2019-12-07T15:48:57Z</time>
      </trkpt>
      <trkpt lat="45.22208" lon="4.08274">
        <ele>591.3</ele>
        <time>2019-12-07T15:48:58Z</time>
      </trkpt>
      <trkpt lat="45.22212" lon="4.08275">
        <ele>590.9</ele>
        <time>2019-12-07T15:48:59Z</time>
      </trkpt>
      <trkpt lat="45.22217" lon="4.08276">
        <ele>590.2</ele>
        <time>2019-12-07T15:49:00Z</time>
      </trkpt>
      <trkpt lat="45.22223" lon="4.08278">
        <ele>589.6</ele>
        <time>2019-12-07T15:49:01Z</time>
      </trkpt>
      <trkpt lat="45.22239" lon="4.08282">
        <ele>587.3</ele>
        <time>2019-12-07T15:49:04Z</time>
      </trkpt>
      <trkpt lat="45.22244" lon="4.08283">
        <ele>586.5</ele>
        <time>2019-12-07T15:49:05Z</time>
      </trkpt>
      <trkpt lat="45.22249" lon="4.08281">
        <ele>585.6</ele>
        <time>2019-12-07T15:49:06Z</time>
      </trkpt>
      <trkpt lat="45.22255" lon="4.08279">
        <ele>584.7</ele>
        <time>2019-12-07T15:49:07Z</time>
      </trkpt>
      <trkpt lat="45.22259" lon="4.08277">
        <ele>583.9</ele>
        <time>2019-12-07T15:49:08Z</time>
      </trkpt>
      <trkpt lat="45.22263" lon="4.08274">
        <ele>583.2</ele>
        <time>2019-12-07T15:49:09Z</time>
      </trkpt>
      <trkpt lat="45.22285" lon="4.0827">
        <ele>579.2</ele>
        <time>2019-12-07T15:49:14Z</time>
      </trkpt>
      <trkpt lat="45.22296" lon="4.08269">
        <ele>577</ele>
        <time>2019-12-07T15:49:17Z</time>
      </trkpt>
      <trkpt lat="45.22315" lon="4.08272">
        <ele>573</ele>
        <time>2019-12-07T15:49:22Z</time>
      </trkpt>
      <trkpt lat="45.22327" lon="4.08285">
        <ele>569.5</ele>
        <time>2019-12-07T15:49:26Z</time>
      </trkpt>
      <trkpt lat="45.22331" lon="4.08288">
        <ele>568.4</ele>
        <time>2019-12-07T15:49:28Z</time>
      </trkpt>
      <trkpt lat="45.22335" lon="4.08286">
        <ele>567.5</ele>
        <time>2019-12-07T15:49:29Z</time>
      </trkpt>
      <trkpt lat="45.22338" lon="4.08283">
        <ele>566.7</ele>
        <time>2019-12-07T15:49:30Z</time>
      </trkpt>
      <trkpt lat="45.22339" lon="4.0828">
        <ele>566.1</ele>
        <time>2019-12-07T15:49:31Z</time>
      </trkpt>
      <trkpt lat="45.2234" lon="4.08276">
        <ele>565.4</ele>
        <time>2019-12-07T15:49:32Z</time>
      </trkpt>
      <trkpt lat="45.22342" lon="4.08272">
        <ele>564.6</ele>
        <time>2019-12-07T15:49:33Z</time>
      </trkpt>
      <trkpt lat="45.22349" lon="4.08264">
        <ele>562.8</ele>
        <time>2019-12-07T15:49:36Z</time>
      </trkpt>
      <trkpt lat="45.22352" lon="4.08266">
        <ele>562</ele>
        <time>2019-12-07T15:49:37Z</time>
      </trkpt>
      <trkpt lat="45.22356" lon="4.0827">
        <ele>561.3</ele>
        <time>2019-12-07T15:49:38Z</time>
      </trkpt>
      <trkpt lat="45.2236" lon="4.08273">
        <ele>560.8</ele>
        <time>2019-12-07T15:49:39Z</time>
      </trkpt>
      <trkpt lat="45.22364" lon="4.08276">
        <ele>560.2</ele>
        <time>2019-12-07T15:49:40Z</time>
      </trkpt>
      <trkpt lat="45.22367" lon="4.08277">
        <ele>559.6</ele>
        <time>2019-12-07T15:49:41Z</time>
      </trkpt>
      <trkpt lat="45.2237" lon="4.08278">
        <ele>559.1</ele>
        <time>2019-12-07T15:49:42Z</time>
      </trkpt>
      <trkpt lat="45.22373" lon="4.08279">
        <ele>558.5</ele>
        <time>2019-12-07T15:49:43Z</time>
      </trkpt>
      <trkpt lat="45.22376" lon="4.0828">
        <ele>557.8</ele>
        <time>2019-12-07T15:49:44Z</time>
      </trkpt>
      <trkpt lat="45.2238" lon="4.0828">
        <ele>556.9</ele>
        <time>2019-12-07T15:49:45Z</time>
      </trkpt>
      <trkpt lat="45.22384" lon="4.08279">
        <ele>555.9</ele>
        <time>2019-12-07T15:49:46Z</time>
      </trkpt>
      <trkpt lat="45.22389" lon="4.08277">
        <ele>554.9</ele>
        <time>2019-12-07T15:49:47Z</time>
      </trkpt>
      <trkpt lat="45.22402" lon="4.08278">
        <ele>551.7</ele>
        <time>2019-12-07T15:49:50Z</time>
      </trkpt>
      <trkpt lat="45.22407" lon="4.08282">
        <ele>550.4</ele>
        <time>2019-12-07T15:49:51Z</time>
      </trkpt>
      <trkpt lat="45.22421" lon="4.08296">
        <ele>546.4</ele>
        <time>2019-12-07T15:49:55Z</time>
      </trkpt>
      <trkpt lat="45.22436" lon="4.08313">
        <ele>542.4</ele>
        <time>2019-12-07T15:50:01Z</time>
      </trkpt>
      <trkpt lat="45.22453" lon="4.08333">
        <ele>538.7</ele>
        <time>2019-12-07T15:50:08Z</time>
      </trkpt>
      <trkpt lat="45.22462" lon="4.08345">
        <ele>536.7</ele>
        <time>2019-12-07T15:50:11Z</time>
      </trkpt>
      <trkpt lat="45.22476" lon="4.08363">
        <ele>533.1</ele>
        <time>2019-12-07T15:50:17Z</time>
      </trkpt>
      <trkpt lat="45.2249" lon="4.0838">
        <ele>529.5</ele>
        <time>2019-12-07T15:50:21Z</time>
      </trkpt>
      <trkpt lat="45.22495" lon="4.08384">
        <ele>528.5</ele>
        <time>2019-12-07T15:50:22Z</time>
      </trkpt>
      <trkpt lat="45.22517" lon="4.08404">
        <ele>526.3</ele>
        <time>2019-12-07T15:50:26Z</time>
      </trkpt>
      <trkpt lat="45.22522" lon="4.08406">
        <ele>526.2</ele>
        <time>2019-12-07T15:50:27Z</time>
      </trkpt>
      <trkpt lat="45.22526" lon="4.08407">
        <ele>526.1</ele>
        <time>2019-12-07T15:50:28Z</time>
      </trkpt>
      <trkpt lat="45.22529" lon="4.08407">
        <ele>526.1</ele>
        <time>2019-12-07T15:50:29Z</time>
      </trkpt>
      <trkpt lat="45.22532" lon="4.08407">
        <ele>526</ele>
        <time>2019-12-07T15:50:30Z</time>
      </trkpt>
      <trkpt lat="45.22534" lon="4.08407">
        <ele>526</ele>
        <time>2019-12-07T15:50:31Z</time>
      </trkpt>
      <trkpt lat="45.22535" lon="4.08407">
        <ele>526</ele>
        <time>2019-12-07T15:50:34Z</time>
      </trkpt>
      <trkpt lat="45.22535" lon="4.08407">
        <ele>526</ele>
        <time>2019-12-07T15:50:35Z</time>
      </trkpt>
      <trkpt lat="45.22536" lon="4.08407">
        <ele>526</ele>
        <time>2019-12-07T15:50:36Z</time>
      </trkpt>
      <trkpt lat="45.22536" lon="4.08407">
        <ele>526</ele>
        <time>2019-12-07T15:50:37Z</time>
      </trkpt>
      <trkpt lat="45.22537" lon="4.08407">
        <ele>526</ele>
        <time>2019-12-07T15:50:38Z</time>
      </trkpt>
      <trkpt lat="45.22537" lon="4.08407">
        <ele>526</ele>
        <time>2019-12-07T15:50:40Z</time>
      </trkpt>
      <trkpt lat="45.22537" lon="4.08407">
        <ele>526.1</ele>
        <time>2019-12-07T15:50:41Z</time>
      </trkpt>
      <trkpt lat="45.22546" lon="4.08405">
        <ele>526.1</ele>
        <time>2019-12-07T15:55:43Z</time>
      </trkpt>
      <trkpt lat="45.22547" lon="4.08405">
        <ele>526.2</ele>
        <time>2019-12-07T15:55:44Z</time>
      </trkpt>
      <trkpt lat="45.22549" lon="4.08405">
        <ele>526.2</ele>
        <time>2019-12-07T15:55:45Z</time>
      </trkpt>
      <trkpt lat="45.22566" lon="4.08407">
        <ele>526.3</ele>
        <time>2019-12-07T15:55:52Z</time>
      </trkpt>
      <trkpt lat="45.22624" lon="4.08409">
        <ele>525.4</ele>
        <time>2019-12-07T15:56:12Z</time>
      </trkpt>
      <trkpt lat="45.2268" lon="4.08427">
        <ele>524.3</ele>
        <time>2019-12-07T15:56:33Z</time>
      </trkpt>
      <trkpt lat="45.2269" lon="4.08434">
        <ele>524</ele>
        <time>2019-12-07T15:56:37Z</time>
      </trkpt>
      <trkpt lat="45.22706" lon="4.0845">
        <ele>523.1</ele>
        <time>2019-12-07T15:56:44Z</time>
      </trkpt>
      <trkpt lat="45.22747" lon="4.08507">
        <ele>522.1</ele>
        <time>2019-12-07T15:57:04Z</time>
      </trkpt>
      <trkpt lat="45.22759" lon="4.08523">
        <ele>522.1</ele>
        <time>2019-12-07T15:57:10Z</time>
      </trkpt>
      <trkpt lat="45.22802" lon="4.08571">
        <ele>518.1</ele>
        <time>2019-12-07T15:57:30Z</time>
      </trkpt>
      <trkpt lat="45.22804" lon="4.08573">
        <ele>517.9</ele>
        <time>2019-12-07T15:57:31Z</time>
      </trkpt>
      <trkpt lat="45.22832" lon="4.08597">
        <ele>514.5</ele>
        <time>2019-12-07T15:57:42Z</time>
      </trkpt>
      <trkpt lat="45.22858" lon="4.08616">
        <ele>511.5</ele>
        <time>2019-12-07T15:57:50Z</time>
      </trkpt>
      <trkpt lat="45.22866" lon="4.08627">
        <ele>510.3</ele>
        <time>2019-12-07T15:57:55Z</time>
      </trkpt>
      <trkpt lat="45.22872" lon="4.08648">
        <ele>509.1</ele>
        <time>2019-12-07T15:58:00Z</time>
      </trkpt>
      <trkpt lat="45.229" lon="4.08711">
        <ele>506.2</ele>
        <time>2019-12-07T15:58:15Z</time>
      </trkpt>
      <trkpt lat="45.22911" lon="4.08716">
        <ele>506.1</ele>
        <time>2019-12-07T15:58:18Z</time>
      </trkpt>
      <trkpt lat="45.22918" lon="4.0872">
        <ele>506.2</ele>
        <time>2019-12-07T15:58:20Z</time>
      </trkpt>
      <trkpt lat="45.22929" lon="4.08732">
        <ele>506.5</ele>
        <time>2019-12-07T15:58:24Z</time>
      </trkpt>
      <trkpt lat="45.22937" lon="4.08742">
        <ele>506.7</ele>
        <time>2019-12-07T15:58:27Z</time>
      </trkpt>
      <trkpt lat="45.22948" lon="4.08759">
        <ele>507.1</ele>
        <time>2019-12-07T15:58:32Z</time>
      </trkpt>
      <trkpt lat="45.22954" lon="4.08773">
        <ele>507.5</ele>
        <time>2019-12-07T15:58:36Z</time>
      </trkpt>
      <trkpt lat="45.2296" lon="4.08787">
        <ele>508.1</ele>
        <time>2019-12-07T15:58:40Z</time>
      </trkpt>
      <trkpt lat="45.22968" lon="4.08806">
        <ele>508.9</ele>
        <time>2019-12-07T15:58:46Z</time>
      </trkpt>
      <trkpt lat="45.22999" lon="4.08873">
        <ele>509.5</ele>
        <time>2019-12-07T15:59:03Z</time>
      </trkpt>
      <trkpt lat="45.23009" lon="4.08909">
        <ele>508.8</ele>
        <time>2019-12-07T15:59:10Z</time>
      </trkpt>
      <trkpt lat="45.23019" lon="4.08952">
        <ele>508.3</ele>
        <time>2019-12-07T15:59:18Z</time>
      </trkpt>
      <trkpt lat="45.2303" lon="4.08988">
        <ele>508.3</ele>
        <time>2019-12-07T15:59:25Z</time>
      </trkpt>
      <trkpt lat="45.2304" lon="4.09012">
        <ele>508.1</ele>
        <time>2019-12-07T15:59:30Z</time>
      </trkpt>
      <trkpt lat="45.2305" lon="4.09036">
        <ele>507.8</ele>
        <time>2019-12-07T15:59:35Z</time>
      </trkpt>
      <trkpt lat="45.2306" lon="4.09059">
        <ele>507.6</ele>
        <time>2019-12-07T15:59:40Z</time>
      </trkpt>
      <trkpt lat="45.23066" lon="4.0907">
        <ele>507.5</ele>
        <time>2019-12-07T15:59:43Z</time>
      </trkpt>
      <trkpt lat="45.23075" lon="4.09085">
        <ele>507</ele>
        <time>2019-12-07T15:59:47Z</time>
      </trkpt>
      <trkpt lat="45.23083" lon="4.09097">
        <ele>506.4</ele>
        <time>2019-12-07T15:59:50Z</time>
      </trkpt>
      <trkpt lat="45.2309" lon="4.0911">
        <ele>506</ele>
        <time>2019-12-07T15:59:53Z</time>
      </trkpt>
      <trkpt lat="45.231" lon="4.09127">
        <ele>505.6</ele>
        <time>2019-12-07T15:59:57Z</time>
      </trkpt>
      <trkpt lat="45.23115" lon="4.09154">
        <ele>505.2</ele>
        <time>2019-12-07T16:00:02Z</time>
      </trkpt>
      <trkpt lat="45.23126" lon="4.09176">
        <ele>505.1</ele>
        <time>2019-12-07T16:00:07Z</time>
      </trkpt>
      <trkpt lat="45.23135" lon="4.09189">
        <ele>505</ele>
        <time>2019-12-07T16:00:11Z</time>
      </trkpt>
      <trkpt lat="45.23168" lon="4.09231">
        <ele>503.8</ele>
        <time>2019-12-07T16:00:23Z</time>
      </trkpt>
      <trkpt lat="45.2317" lon="4.09236">
        <ele>503.6</ele>
        <time>2019-12-07T16:00:24Z</time>
      </trkpt>
      <trkpt lat="45.23172" lon="4.09237">
        <ele>503.4</ele>
        <time>2019-12-07T16:00:25Z</time>
      </trkpt>
      <trkpt lat="45.23175" lon="4.09236">
        <ele>503.2</ele>
        <time>2019-12-07T16:00:26Z</time>
      </trkpt>
      <trkpt lat="45.23177" lon="4.09234">
        <ele>503.1</ele>
        <time>2019-12-07T16:00:27Z</time>
      </trkpt>
      <trkpt lat="45.23179" lon="4.09233">
        <ele>503</ele>
        <time>2019-12-07T16:00:28Z</time>
      </trkpt>
      <trkpt lat="45.23182" lon="4.09233">
        <ele>502.9</ele>
        <time>2019-12-07T16:00:29Z</time>
      </trkpt>
      <trkpt lat="45.23185" lon="4.09232">
        <ele>502.7</ele>
        <time>2019-12-07T16:00:30Z</time>
      </trkpt>
      <trkpt lat="45.23188" lon="4.09231">
        <ele>502.5</ele>
        <time>2019-12-07T16:00:31Z</time>
      </trkpt>
      <trkpt lat="45.23205" lon="4.09229">
        <ele>501</ele>
        <time>2019-12-07T16:00:35Z</time>
      </trkpt>
      <trkpt lat="45.23214" lon="4.09231">
        <ele>500.1</ele>
        <time>2019-12-07T16:00:37Z</time>
      </trkpt>
      <trkpt lat="45.23219" lon="4.09233">
        <ele>499.6</ele>
        <time>2019-12-07T16:00:38Z</time>
      </trkpt>
      <trkpt lat="45.23224" lon="4.09237">
        <ele>499.1</ele>
        <time>2019-12-07T16:00:39Z</time>
      </trkpt>
      <trkpt lat="45.23245" lon="4.09253">
        <ele>496.5</ele>
        <time>2019-12-07T16:00:43Z</time>
      </trkpt>
      <trkpt lat="45.2325" lon="4.09258">
        <ele>495.7</ele>
        <time>2019-12-07T16:00:44Z</time>
      </trkpt>
      <trkpt lat="45.23255" lon="4.09262">
        <ele>495.1</ele>
        <time>2019-12-07T16:00:45Z</time>
      </trkpt>
      <trkpt lat="45.2326" lon="4.09267">
        <ele>494.7</ele>
        <time>2019-12-07T16:00:46Z</time>
      </trkpt>
      <trkpt lat="45.23264" lon="4.09271">
        <ele>494.5</ele>
        <time>2019-12-07T16:00:47Z</time>
      </trkpt>
      <trkpt lat="45.23275" lon="4.09285">
        <ele>494.6</ele>
        <time>2019-12-07T16:00:51Z</time>
      </trkpt>
      <trkpt lat="45.23286" lon="4.09302">
        <ele>493.9</ele>
        <time>2019-12-07T16:00:55Z</time>
      </trkpt>
      <trkpt lat="45.23289" lon="4.09307">
        <ele>493.6</ele>
        <time>2019-12-07T16:00:56Z</time>
      </trkpt>
      <trkpt lat="45.23326" lon="4.09368">
        <ele>488.9</ele>
        <time>2019-12-07T16:01:05Z</time>
      </trkpt>
      <trkpt lat="45.23345" lon="4.09393">
        <ele>486.6</ele>
        <time>2019-12-07T16:01:10Z</time>
      </trkpt>
      <trkpt lat="45.23347" lon="4.09397">
        <ele>486.2</ele>
        <time>2019-12-07T16:01:11Z</time>
      </trkpt>
      <trkpt lat="45.2335" lon="4.09399">
        <ele>485.7</ele>
        <time>2019-12-07T16:01:12Z</time>
      </trkpt>
      <trkpt lat="45.23353" lon="4.094">
        <ele>485.4</ele>
        <time>2019-12-07T16:01:13Z</time>
      </trkpt>
      <trkpt lat="45.23355" lon="4.09399">
        <ele>485.2</ele>
        <time>2019-12-07T16:01:14Z</time>
      </trkpt>
      <trkpt lat="45.23357" lon="4.094">
        <ele>485.1</ele>
        <time>2019-12-07T16:01:15Z</time>
      </trkpt>
      <trkpt lat="45.23359" lon="4.09401">
        <ele>484.9</ele>
        <time>2019-12-07T16:01:16Z</time>
      </trkpt>
      <trkpt lat="45.2336" lon="4.09403">
        <ele>484.7</ele>
        <time>2019-12-07T16:01:17Z</time>
      </trkpt>
      <trkpt lat="45.2336" lon="4.09405">
        <ele>484.6</ele>
        <time>2019-12-07T16:01:18Z</time>
      </trkpt>
      <trkpt lat="45.23362" lon="4.09405">
        <ele>484.5</ele>
        <time>2019-12-07T16:01:24Z</time>
      </trkpt>
      <trkpt lat="45.23367" lon="4.09416">
        <ele>483.6</ele>
        <time>2019-12-07T16:11:10Z</time>
      </trkpt>
      <trkpt lat="45.23369" lon="4.09419">
        <ele>483.4</ele>
        <time>2019-12-07T16:11:11Z</time>
      </trkpt>
      <trkpt lat="45.23371" lon="4.09421">
        <ele>483.2</ele>
        <time>2019-12-07T16:11:12Z</time>
      </trkpt>
      <trkpt lat="45.23373" lon="4.09424">
        <ele>482.6</ele>
        <time>2019-12-07T16:11:13Z</time>
      </trkpt>
      <trkpt lat="45.23376" lon="4.09427">
        <ele>482.5</ele>
        <time>2019-12-07T16:11:14Z</time>
      </trkpt>
      <trkpt lat="45.2338" lon="4.0943">
        <ele>482.3</ele>
        <time>2019-12-07T16:11:15Z</time>
      </trkpt>
      <trkpt lat="45.23383" lon="4.09433">
        <ele>482.1</ele>
        <time>2019-12-07T16:11:16Z</time>
      </trkpt>
      <trkpt lat="45.23387" lon="4.09435">
        <ele>481.9</ele>
        <time>2019-12-07T16:11:17Z</time>
      </trkpt>
      <trkpt lat="45.23391" lon="4.09436">
        <ele>481.7</ele>
        <time>2019-12-07T16:11:18Z</time>
      </trkpt>
      <trkpt lat="45.23396" lon="4.09437">
        <ele>481.7</ele>
        <time>2019-12-07T16:11:19Z</time>
      </trkpt>
      <trkpt lat="45.23441" lon="4.09442">
        <ele>482.3</ele>
        <time>2019-12-07T16:11:32Z</time>
      </trkpt>
      <trkpt lat="45.23485" lon="4.09447">
        <ele>482.5</ele>
        <time>2019-12-07T16:11:49Z</time>
      </trkpt>
      <trkpt lat="45.23499" lon="4.09449">
        <ele>483</ele>
        <time>2019-12-07T16:11:54Z</time>
      </trkpt>
      <trkpt lat="45.23555" lon="4.09456">
        <ele>487.7</ele>
        <time>2019-12-07T16:12:16Z</time>
      </trkpt>
      <trkpt lat="45.23611" lon="4.09463">
        <ele>491.2</ele>
        <time>2019-12-07T16:12:40Z</time>
      </trkpt>
      <trkpt lat="45.23629" lon="4.09463">
        <ele>491.9</ele>
        <time>2019-12-07T16:12:48Z</time>
      </trkpt>
      <trkpt lat="45.23646" lon="4.09465">
        <ele>492.5</ele>
        <time>2019-12-07T16:12:56Z</time>
      </trkpt>
      <trkpt lat="45.23656" lon="4.09467">
        <ele>492.8</ele>
        <time>2019-12-07T16:13:00Z</time>
      </trkpt>
      <trkpt lat="45.23662" lon="4.09468">
        <ele>492.9</ele>
        <time>2019-12-07T16:13:03Z</time>
      </trkpt>
      <trkpt lat="45.23714" lon="4.09473">
        <ele>494.7</ele>
        <time>2019-12-07T16:13:24Z</time>
      </trkpt>
      <trkpt lat="45.23771" lon="4.09479">
        <ele>497.7</ele>
        <time>2019-12-07T16:13:49Z</time>
      </trkpt>
      <trkpt lat="45.2378" lon="4.09481">
        <ele>498.3</ele>
        <time>2019-12-07T16:13:53Z</time>
      </trkpt>
      <trkpt lat="45.23797" lon="4.09484">
        <ele>499.2</ele>
        <time>2019-12-07T16:14:00Z</time>
      </trkpt>
      <trkpt lat="45.23804" lon="4.09486">
        <ele>499.5</ele>
        <time>2019-12-07T16:14:03Z</time>
      </trkpt>
      <trkpt lat="45.23832" lon="4.09481">
        <ele>502.6</ele>
        <time>2019-12-07T16:14:17Z</time>
      </trkpt>
      <trkpt lat="45.23851" lon="4.09474">
        <ele>504.8</ele>
        <time>2019-12-07T16:14:26Z</time>
      </trkpt>
      <trkpt lat="45.23864" lon="4.0947">
        <ele>506</ele>
        <time>2019-12-07T16:14:32Z</time>
      </trkpt>
      <trkpt lat="45.23902" lon="4.09448">
        <ele>510.1</ele>
        <time>2019-12-07T16:14:53Z</time>
      </trkpt>
      <trkpt lat="45.23907" lon="4.09444">
        <ele>510.6</ele>
        <time>2019-12-07T16:14:56Z</time>
      </trkpt>
      <trkpt lat="45.23915" lon="4.09437">
        <ele>511.6</ele>
        <time>2019-12-07T16:15:01Z</time>
      </trkpt>
      <trkpt lat="45.23931" lon="4.09426">
        <ele>514.1</ele>
        <time>2019-12-07T16:15:11Z</time>
      </trkpt>
      <trkpt lat="45.23948" lon="4.09419">
        <ele>515.8</ele>
        <time>2019-12-07T16:15:20Z</time>
      </trkpt>
      <trkpt lat="45.23979" lon="4.09416">
        <ele>519.9</ele>
        <time>2019-12-07T16:15:38Z</time>
      </trkpt>
      <trkpt lat="45.23993" lon="4.09417">
        <ele>521.1</ele>
        <time>2019-12-07T16:15:46Z</time>
      </trkpt>
      <trkpt lat="45.2401" lon="4.09415">
        <ele>522.4</ele>
        <time>2019-12-07T16:15:55Z</time>
      </trkpt>
      <trkpt lat="45.24026" lon="4.0941">
        <ele>523.7</ele>
        <time>2019-12-07T16:16:05Z</time>
      </trkpt>
      <trkpt lat="45.24027" lon="4.09409">
        <ele>523.8</ele>
        <time>2019-12-07T16:16:06Z</time>
      </trkpt>
      <trkpt lat="45.2403" lon="4.09408">
        <ele>524</ele>
        <time>2019-12-07T16:16:08Z</time>
      </trkpt>
      <trkpt lat="45.24052" lon="4.09404">
        <ele>525.6</ele>
        <time>2019-12-07T16:16:21Z</time>
      </trkpt>
      <trkpt lat="45.24087" lon="4.09397">
        <ele>528.4</ele>
        <time>2019-12-07T16:16:42Z</time>
      </trkpt>
      <trkpt lat="45.24112" lon="4.09375">
        <ele>531</ele>
        <time>2019-12-07T16:17:00Z</time>
      </trkpt>
      <trkpt lat="45.24145" lon="4.09368">
        <ele>534.7</ele>
        <time>2019-12-07T16:17:20Z</time>
      </trkpt>
      <trkpt lat="45.24178" lon="4.09373">
        <ele>538.3</ele>
        <time>2019-12-07T16:17:39Z</time>
      </trkpt>
      <trkpt lat="45.24181" lon="4.09373">
        <ele>538.6</ele>
        <time>2019-12-07T16:17:41Z</time>
      </trkpt>
      <trkpt lat="45.24183" lon="4.09373">
        <ele>538.8</ele>
        <time>2019-12-07T16:17:42Z</time>
      </trkpt>
      <trkpt lat="45.24224" lon="4.09375">
        <ele>542</ele>
        <time>2019-12-07T16:18:04Z</time>
      </trkpt>
      <trkpt lat="45.24236" lon="4.0938">
        <ele>542.9</ele>
        <time>2019-12-07T16:18:13Z</time>
      </trkpt>
      <trkpt lat="45.2426" lon="4.09379">
        <ele>544.4</ele>
        <time>2019-12-07T16:18:28Z</time>
      </trkpt>
      <trkpt lat="45.2427" lon="4.09379">
        <ele>545</ele>
        <time>2019-12-07T16:18:36Z</time>
      </trkpt>
      <trkpt lat="45.24285" lon="4.0938">
        <ele>545.8</ele>
        <time>2019-12-07T16:18:45Z</time>
      </trkpt>
      <trkpt lat="45.24291" lon="4.0938">
        <ele>546</ele>
        <time>2019-12-07T16:18:48Z</time>
      </trkpt>
      <trkpt lat="45.24295" lon="4.09381">
        <ele>546.2</ele>
        <time>2019-12-07T16:18:50Z</time>
      </trkpt>
      <trkpt lat="45.24298" lon="4.0938">
        <ele>546.4</ele>
        <time>2019-12-07T16:18:52Z</time>
      </trkpt>
      <trkpt lat="45.24305" lon="4.0938">
        <ele>546.7</ele>
        <time>2019-12-07T16:18:56Z</time>
      </trkpt>
      <trkpt lat="45.24337" lon="4.09385">
        <ele>548.3</ele>
        <time>2019-12-07T16:19:16Z</time>
      </trkpt>
      <trkpt lat="45.24369" lon="4.09389">
        <ele>550.4</ele>
        <time>2019-12-07T16:19:34Z</time>
      </trkpt>
      <trkpt lat="45.24393" lon="4.09403">
        <ele>552.3</ele>
        <time>2019-12-07T16:19:48Z</time>
      </trkpt>
      <trkpt lat="45.24411" lon="4.09427">
        <ele>554.5</ele>
        <time>2019-12-07T16:20:02Z</time>
      </trkpt>
      <trkpt lat="45.2441" lon="4.09433">
        <ele>555</ele>
        <time>2019-12-07T16:20:04Z</time>
      </trkpt>
      <trkpt lat="45.24408" lon="4.09435">
        <ele>555.3</ele>
        <time>2019-12-07T16:20:05Z</time>
      </trkpt>
      <trkpt lat="45.24405" lon="4.09436">
        <ele>555.6</ele>
        <time>2019-12-07T16:20:06Z</time>
      </trkpt>
      <trkpt lat="45.24402" lon="4.09437">
        <ele>555.9</ele>
        <time>2019-12-07T16:20:07Z</time>
      </trkpt>
      <trkpt lat="45.244" lon="4.09437">
        <ele>556.3</ele>
        <time>2019-12-07T16:20:08Z</time>
      </trkpt>
      <trkpt lat="45.24397" lon="4.09437">
        <ele>556.6</ele>
        <time>2019-12-07T16:20:09Z</time>
      </trkpt>
      <trkpt lat="45.24395" lon="4.09437">
        <ele>556.8</ele>
        <time>2019-12-07T16:20:10Z</time>
      </trkpt>
      <trkpt lat="45.24393" lon="4.09436">
        <ele>557</ele>
        <time>2019-12-07T16:20:11Z</time>
      </trkpt>
      <trkpt lat="45.2439" lon="4.09435">
        <ele>557.3</ele>
        <time>2019-12-07T16:20:12Z</time>
      </trkpt>
      <trkpt lat="45.24379" lon="4.0943">
        <ele>558.1</ele>
        <time>2019-12-07T16:20:18Z</time>
      </trkpt>
      <trkpt lat="45.24361" lon="4.09428">
        <ele>559.1</ele>
        <time>2019-12-07T16:20:29Z</time>
      </trkpt>
      <trkpt lat="45.24352" lon="4.0943">
        <ele>559.7</ele>
        <time>2019-12-07T16:20:34Z</time>
      </trkpt>
      <trkpt lat="45.24344" lon="4.09432">
        <ele>560.3</ele>
        <time>2019-12-07T16:20:39Z</time>
      </trkpt>
      <trkpt lat="45.24333" lon="4.0944">
        <ele>561.4</ele>
        <time>2019-12-07T16:20:46Z</time>
      </trkpt>
      <trkpt lat="45.24332" lon="4.09443">
        <ele>561.6</ele>
        <time>2019-12-07T16:20:47Z</time>
      </trkpt>
      <trkpt lat="45.24331" lon="4.09447">
        <ele>561.8</ele>
        <time>2019-12-07T16:20:48Z</time>
      </trkpt>
      <trkpt lat="45.24331" lon="4.0945">
        <ele>562.1</ele>
        <time>2019-12-07T16:20:49Z</time>
      </trkpt>
      <trkpt lat="45.24331" lon="4.09454">
        <ele>562.3</ele>
        <time>2019-12-07T16:20:50Z</time>
      </trkpt>
      <trkpt lat="45.24331" lon="4.09457">
        <ele>562.6</ele>
        <time>2019-12-07T16:20:51Z</time>
      </trkpt>
      <trkpt lat="45.24332" lon="4.0946">
        <ele>562.8</ele>
        <time>2019-12-07T16:20:52Z</time>
      </trkpt>
      <trkpt lat="45.24333" lon="4.09464">
        <ele>563.1</ele>
        <time>2019-12-07T16:20:53Z</time>
      </trkpt>
      <trkpt lat="45.24344" lon="4.09484">
        <ele>564.8</ele>
        <time>2019-12-07T16:21:00Z</time>
      </trkpt>
      <trkpt lat="45.24356" lon="4.09501">
        <ele>566.3</ele>
        <time>2019-12-07T16:21:07Z</time>
      </trkpt>
      <trkpt lat="45.24389" lon="4.09516">
        <ele>569.3</ele>
        <time>2019-12-07T16:21:22Z</time>
      </trkpt>
      <trkpt lat="45.24432" lon="4.09521">
        <ele>572.5</ele>
        <time>2019-12-07T16:21:39Z</time>
      </trkpt>
      <trkpt lat="45.24464" lon="4.09526">
        <ele>574.4</ele>
        <time>2019-12-07T16:21:51Z</time>
      </trkpt>
      <trkpt lat="45.24498" lon="4.0953">
        <ele>576</ele>
        <time>2019-12-07T16:22:04Z</time>
      </trkpt>
      <trkpt lat="45.24544" lon="4.09529">
        <ele>577.9</ele>
        <time>2019-12-07T16:22:19Z</time>
      </trkpt>
      <trkpt lat="45.24579" lon="4.09513">
        <ele>579.7</ele>
        <time>2019-12-07T16:22:30Z</time>
      </trkpt>
      <trkpt lat="45.24638" lon="4.09501">
        <ele>581.7</ele>
        <time>2019-12-07T16:22:46Z</time>
      </trkpt>
      <trkpt lat="45.24696" lon="4.095">
        <ele>583.7</ele>
        <time>2019-12-07T16:23:00Z</time>
      </trkpt>
      <trkpt lat="45.24746" lon="4.09509">
        <ele>584.9</ele>
        <time>2019-12-07T16:23:15Z</time>
      </trkpt>
      <trkpt lat="45.24753" lon="4.09512">
        <ele>585</ele>
        <time>2019-12-07T16:23:19Z</time>
      </trkpt>
      <trkpt lat="45.24796" lon="4.09545">
        <ele>586.3</ele>
        <time>2019-12-07T16:23:49Z</time>
      </trkpt>
      <trkpt lat="45.24801" lon="4.09549">
        <ele>586.7</ele>
        <time>2019-12-07T16:23:52Z</time>
      </trkpt>
      <trkpt lat="45.24809" lon="4.09553">
        <ele>587.4</ele>
        <time>2019-12-07T16:23:56Z</time>
      </trkpt>
      <trkpt lat="45.24818" lon="4.09559">
        <ele>588.3</ele>
        <time>2019-12-07T16:24:00Z</time>
      </trkpt>
      <trkpt lat="45.24826" lon="4.09566">
        <ele>589.3</ele>
        <time>2019-12-07T16:24:04Z</time>
      </trkpt>
      <trkpt lat="45.24842" lon="4.0958">
        <ele>590.8</ele>
        <time>2019-12-07T16:24:12Z</time>
      </trkpt>
      <trkpt lat="45.24869" lon="4.09601">
        <ele>592.5</ele>
        <time>2019-12-07T16:24:24Z</time>
      </trkpt>
      <trkpt lat="45.24901" lon="4.09616">
        <ele>593</ele>
        <time>2019-12-07T16:24:40Z</time>
      </trkpt>
      <trkpt lat="45.24903" lon="4.09616">
        <ele>593</ele>
        <time>2019-12-07T16:24:41Z</time>
      </trkpt>
      <trkpt lat="45.24909" lon="4.09619">
        <ele>593</ele>
        <time>2019-12-07T16:24:52Z</time>
      </trkpt>
      <trkpt lat="45.24913" lon="4.09622">
        <ele>593</ele>
        <time>2019-12-07T16:26:20Z</time>
      </trkpt>
      <trkpt lat="45.24915" lon="4.09623">
        <ele>593</ele>
        <time>2019-12-07T16:26:21Z</time>
      </trkpt>
      <trkpt lat="45.24917" lon="4.09624">
        <ele>593</ele>
        <time>2019-12-07T16:26:22Z</time>
      </trkpt>
      <trkpt lat="45.24926" lon="4.09657">
        <ele>593.2</ele>
        <time>2019-12-07T16:26:33Z</time>
      </trkpt>
      <trkpt lat="45.24933" lon="4.09696">
        <ele>593.7</ele>
        <time>2019-12-07T16:26:46Z</time>
      </trkpt>
      <trkpt lat="45.24951" lon="4.09772">
        <ele>594.4</ele>
        <time>2019-12-07T16:27:10Z</time>
      </trkpt>
      <trkpt lat="45.2496" lon="4.09816">
        <ele>594.3</ele>
        <time>2019-12-07T16:27:23Z</time>
      </trkpt>
      <trkpt lat="45.2497" lon="4.09884">
        <ele>594.3</ele>
        <time>2019-12-07T16:27:43Z</time>
      </trkpt>
      <trkpt lat="45.24982" lon="4.09961">
        <ele>595.2</ele>
        <time>2019-12-07T16:28:06Z</time>
      </trkpt>
      <trkpt lat="45.24996" lon="4.10038">
        <ele>595.1</ele>
        <time>2019-12-07T16:28:29Z</time>
      </trkpt>
      <trkpt lat="45.25" lon="4.10055">
        <ele>594.9</ele>
        <time>2019-12-07T16:28:34Z</time>
      </trkpt>
      <trkpt lat="45.25014" lon="4.10132">
        <ele>595.1</ele>
        <time>2019-12-07T16:28:58Z</time>
      </trkpt>
      <trkpt lat="45.25024" lon="4.10211">
        <ele>598.5</ele>
        <time>2019-12-07T16:29:23Z</time>
      </trkpt>
      <trkpt lat="45.25029" lon="4.10265">
        <ele>600.5</ele>
        <time>2019-12-07T16:29:40Z</time>
      </trkpt>
      <trkpt lat="45.2503" lon="4.10306">
        <ele>601.5</ele>
        <time>2019-12-07T16:29:53Z</time>
      </trkpt>
      <trkpt lat="45.25031" lon="4.10365">
        <ele>603.1</ele>
        <time>2019-12-07T16:30:12Z</time>
      </trkpt>
      <trkpt lat="45.25029" lon="4.10392">
        <ele>603.3</ele>
        <time>2019-12-07T16:30:20Z</time>
      </trkpt>
      <trkpt lat="45.2502" lon="4.1047">
        <ele>603.6</ele>
        <time>2019-12-07T16:30:45Z</time>
      </trkpt>
      <trkpt lat="45.25014" lon="4.10535">
        <ele>604.5</ele>
        <time>2019-12-07T16:31:05Z</time>
      </trkpt>
      <trkpt lat="45.25012" lon="4.10564">
        <ele>605.1</ele>
        <time>2019-12-07T16:31:14Z</time>
      </trkpt>
      <trkpt lat="45.25002" lon="4.10644">
        <ele>605.3</ele>
        <time>2019-12-07T16:31:39Z</time>
      </trkpt>
      <trkpt lat="45.2499" lon="4.10722">
        <ele>606.2</ele>
        <time>2019-12-07T16:32:04Z</time>
      </trkpt>
      <trkpt lat="45.24981" lon="4.10802">
        <ele>607.5</ele>
        <time>2019-12-07T16:32:29Z</time>
      </trkpt>
      <trkpt lat="45.24983" lon="4.10885">
        <ele>609.1</ele>
        <time>2019-12-07T16:32:54Z</time>
      </trkpt>
      <trkpt lat="45.24987" lon="4.10905">
        <ele>609.5</ele>
        <time>2019-12-07T16:33:00Z</time>
      </trkpt>
      <trkpt lat="45.24994" lon="4.10931">
        <ele>610</ele>
        <time>2019-12-07T16:33:08Z</time>
      </trkpt>
      <trkpt lat="45.24998" lon="4.10961">
        <ele>610.8</ele>
        <time>2019-12-07T16:33:18Z</time>
      </trkpt>
      <trkpt lat="45.25016" lon="4.11039">
        <ele>611.9</ele>
        <time>2019-12-07T16:33:41Z</time>
      </trkpt>
      <trkpt lat="45.25053" lon="4.11103">
        <ele>613.4</ele>
        <time>2019-12-07T16:34:04Z</time>
      </trkpt>
      <trkpt lat="45.25066" lon="4.11121">
        <ele>614.3</ele>
        <time>2019-12-07T16:34:11Z</time>
      </trkpt>
      <trkpt lat="45.25106" lon="4.11182">
        <ele>615.6</ele>
        <time>2019-12-07T16:34:37Z</time>
      </trkpt>
      <trkpt lat="45.25116" lon="4.11195">
        <ele>615.8</ele>
        <time>2019-12-07T16:34:42Z</time>
      </trkpt>
      <trkpt lat="45.25138" lon="4.11226">
        <ele>616.5</ele>
        <time>2019-12-07T16:34:55Z</time>
      </trkpt>
      <trkpt lat="45.2518" lon="4.11267">
        <ele>618</ele>
        <time>2019-12-07T16:35:15Z</time>
      </trkpt>
      <trkpt lat="45.25204" lon="4.11295">
        <ele>618.8</ele>
        <time>2019-12-07T16:35:28Z</time>
      </trkpt>
      <trkpt lat="45.25233" lon="4.11336">
        <ele>619.2</ele>
        <time>2019-12-07T16:35:46Z</time>
      </trkpt>
      <trkpt lat="45.25257" lon="4.11362">
        <ele>618.4</ele>
        <time>2019-12-07T16:35:56Z</time>
      </trkpt>
      <trkpt lat="45.25271" lon="4.11378">
        <ele>617.7</ele>
        <time>2019-12-07T16:36:01Z</time>
      </trkpt>
      <trkpt lat="45.25278" lon="4.11386">
        <ele>617.2</ele>
        <time>2019-12-07T16:36:03Z</time>
      </trkpt>
      <trkpt lat="45.25289" lon="4.11398">
        <ele>616.6</ele>
        <time>2019-12-07T16:36:06Z</time>
      </trkpt>
      <trkpt lat="45.25299" lon="4.11409">
        <ele>615.9</ele>
        <time>2019-12-07T16:36:09Z</time>
      </trkpt>
      <trkpt lat="45.25307" lon="4.11418">
        <ele>615.3</ele>
        <time>2019-12-07T16:36:11Z</time>
      </trkpt>
      <trkpt lat="45.25318" lon="4.11439">
        <ele>614.4</ele>
        <time>2019-12-07T16:36:15Z</time>
      </trkpt>
      <trkpt lat="45.2532" lon="4.11446">
        <ele>614.1</ele>
        <time>2019-12-07T16:36:16Z</time>
      </trkpt>
      <trkpt lat="45.25327" lon="4.11465">
        <ele>613.4</ele>
        <time>2019-12-07T16:36:19Z</time>
      </trkpt>
      <trkpt lat="45.25338" lon="4.11492">
        <ele>612.3</ele>
        <time>2019-12-07T16:36:23Z</time>
      </trkpt>
      <trkpt lat="45.25379" lon="4.11564">
        <ele>610.7</ele>
        <time>2019-12-07T16:36:41Z</time>
      </trkpt>
      <trkpt lat="45.25384" lon="4.11575">
        <ele>610.5</ele>
        <time>2019-12-07T16:36:53Z</time>
      </trkpt>
      <trkpt lat="45.25383" lon="4.1159">
        <ele>610.3</ele>
        <time>2019-12-07T16:37:41Z</time>
      </trkpt>
      <trkpt lat="45.25384" lon="4.11593">
        <ele>610.2</ele>
        <time>2019-12-07T16:37:42Z</time>
      </trkpt>
      <trkpt lat="45.2539" lon="4.11615">
        <ele>609.5</ele>
        <time>2019-12-07T16:37:48Z</time>
      </trkpt>
      <trkpt lat="45.25403" lon="4.11638">
        <ele>607</ele>
        <time>2019-12-07T16:37:56Z</time>
      </trkpt>
      <trkpt lat="45.25405" lon="4.11641">
        <ele>606.7</ele>
        <time>2019-12-07T16:37:57Z</time>
      </trkpt>
      <trkpt lat="45.25406" lon="4.11644">
        <ele>606.4</ele>
        <time>2019-12-07T16:37:58Z</time>
      </trkpt>
      <trkpt lat="45.25407" lon="4.11646">
        <ele>606.2</ele>
        <time>2019-12-07T16:37:59Z</time>
      </trkpt>
      <trkpt lat="45.25408" lon="4.11648">
        <ele>605.9</ele>
        <time>2019-12-07T16:38:00Z</time>
      </trkpt>
      <trkpt lat="45.25409" lon="4.11649">
        <ele>605.6</ele>
        <time>2019-12-07T16:38:01Z</time>
      </trkpt>
      <trkpt lat="45.2541" lon="4.11651">
        <ele>605.3</ele>
        <time>2019-12-07T16:38:02Z</time>
      </trkpt>
      <trkpt lat="45.25411" lon="4.11654">
        <ele>605</ele>
        <time>2019-12-07T16:38:03Z</time>
      </trkpt>
      <trkpt lat="45.25411" lon="4.11657">
        <ele>604.6</ele>
        <time>2019-12-07T16:38:04Z</time>
      </trkpt>
      <trkpt lat="45.25417" lon="4.11681">
        <ele>602.5</ele>
        <time>2019-12-07T16:38:09Z</time>
      </trkpt>
      <trkpt lat="45.25419" lon="4.11686">
        <ele>602.1</ele>
        <time>2019-12-07T16:38:10Z</time>
      </trkpt>
      <trkpt lat="45.25421" lon="4.11693">
        <ele>601.5</ele>
        <time>2019-12-07T16:38:11Z</time>
      </trkpt>
      <trkpt lat="45.25422" lon="4.11699">
        <ele>600.9</ele>
        <time>2019-12-07T16:38:12Z</time>
      </trkpt>
      <trkpt lat="45.25422" lon="4.11705">
        <ele>600.3</ele>
        <time>2019-12-07T16:38:13Z</time>
      </trkpt>
      <trkpt lat="45.25421" lon="4.1171">
        <ele>599.6</ele>
        <time>2019-12-07T16:38:14Z</time>
      </trkpt>
      <trkpt lat="45.25422" lon="4.11716">
        <ele>598.7</ele>
        <time>2019-12-07T16:38:15Z</time>
      </trkpt>
      <trkpt lat="45.25422" lon="4.11723">
        <ele>597.7</ele>
        <time>2019-12-07T16:38:16Z</time>
      </trkpt>
      <trkpt lat="45.25423" lon="4.1173">
        <ele>596.9</ele>
        <time>2019-12-07T16:38:17Z</time>
      </trkpt>
      <trkpt lat="45.25423" lon="4.11738">
        <ele>596.1</ele>
        <time>2019-12-07T16:38:18Z</time>
      </trkpt>
      <trkpt lat="45.25424" lon="4.11746">
        <ele>595</ele>
        <time>2019-12-07T16:38:19Z</time>
      </trkpt>
      <trkpt lat="45.25426" lon="4.11753">
        <ele>594</ele>
        <time>2019-12-07T16:38:20Z</time>
      </trkpt>
      <trkpt lat="45.25432" lon="4.11776">
        <ele>590.9</ele>
        <time>2019-12-07T16:38:24Z</time>
      </trkpt>
      <trkpt lat="45.25434" lon="4.11783">
        <ele>590.1</ele>
        <time>2019-12-07T16:38:25Z</time>
      </trkpt>
      <trkpt lat="45.25434" lon="4.1179">
        <ele>589.3</ele>
        <time>2019-12-07T16:38:26Z</time>
      </trkpt>
      <trkpt lat="45.25435" lon="4.11799">
        <ele>588.4</ele>
        <time>2019-12-07T16:38:27Z</time>
      </trkpt>
      <trkpt lat="45.25437" lon="4.11813">
        <ele>586.5</ele>
        <time>2019-12-07T16:38:29Z</time>
      </trkpt>
      <trkpt lat="45.2544" lon="4.1182">
        <ele>585.3</ele>
        <time>2019-12-07T16:38:30Z</time>
      </trkpt>
      <trkpt lat="45.25445" lon="4.1183">
        <ele>583.3</ele>
        <time>2019-12-07T16:38:32Z</time>
      </trkpt>
      <trkpt lat="45.25447" lon="4.11836">
        <ele>582.3</ele>
        <time>2019-12-07T16:38:33Z</time>
      </trkpt>
      <trkpt lat="45.25449" lon="4.11844">
        <ele>581.1</ele>
        <time>2019-12-07T16:38:34Z</time>
      </trkpt>
      <trkpt lat="45.25449" lon="4.11852">
        <ele>579.9</ele>
        <time>2019-12-07T16:38:35Z</time>
      </trkpt>
      <trkpt lat="45.2545" lon="4.11859">
        <ele>578.9</ele>
        <time>2019-12-07T16:38:36Z</time>
      </trkpt>
      <trkpt lat="45.25455" lon="4.11875">
        <ele>576.6</ele>
        <time>2019-12-07T16:38:39Z</time>
      </trkpt>
      <trkpt lat="45.25464" lon="4.11895">
        <ele>573.5</ele>
        <time>2019-12-07T16:38:46Z</time>
      </trkpt>
      <trkpt lat="45.25466" lon="4.11899">
        <ele>573</ele>
        <time>2019-12-07T16:38:47Z</time>
      </trkpt>
      <trkpt lat="45.25474" lon="4.11921">
        <ele>570.3</ele>
        <time>2019-12-07T16:38:52Z</time>
      </trkpt>
      <trkpt lat="45.25481" lon="4.1194">
        <ele>567.9</ele>
        <time>2019-12-07T16:38:58Z</time>
      </trkpt>
      <trkpt lat="45.25481" lon="4.11943">
        <ele>567.6</ele>
        <time>2019-12-07T16:38:59Z</time>
      </trkpt>
      <trkpt lat="45.25482" lon="4.11947">
        <ele>567.3</ele>
        <time>2019-12-07T16:39:00Z</time>
      </trkpt>
      <trkpt lat="45.25483" lon="4.11952">
        <ele>567</ele>
        <time>2019-12-07T16:39:01Z</time>
      </trkpt>
      <trkpt lat="45.25484" lon="4.11955">
        <ele>561.2</ele>
        <time>2019-12-07T16:39:02Z</time>
      </trkpt>
      <trkpt lat="45.25484" lon="4.11955">
        <ele>561.2</ele>
        <time>2019-12-07T16:39:04Z</time>
      </trkpt>
      <trkpt lat="45.25485" lon="4.11957">
        <ele>561.1</ele>
        <time>2019-12-07T16:39:06Z</time>
      </trkpt>
      <trkpt lat="45.25485" lon="4.11959">
        <ele>561.1</ele>
        <time>2019-12-07T16:39:10Z</time>
      </trkpt>
      <trkpt lat="45.25484" lon="4.11958">
        <ele>561</ele>
        <time>2019-12-07T16:39:13Z</time>
      </trkpt>
      <trkpt lat="45.2548" lon="4.11966">
        <ele>560.7</ele>
        <time>2019-12-07T16:40:57Z</time>
      </trkpt>
      <trkpt lat="45.25478" lon="4.11965">
        <ele>560.6</ele>
        <time>2019-12-07T16:40:58Z</time>
      </trkpt>
      <trkpt lat="45.25476" lon="4.11965">
        <ele>560.5</ele>
        <time>2019-12-07T16:40:59Z</time>
      </trkpt>
      <trkpt lat="45.25453" lon="4.11952">
        <ele>559.4</ele>
        <time>2019-12-07T16:41:09Z</time>
      </trkpt>
      <trkpt lat="45.25444" lon="4.11947">
        <ele>559.1</ele>
        <time>2019-12-07T16:41:13Z</time>
      </trkpt>
      <trkpt lat="45.25406" lon="4.11911">
        <ele>558.3</ele>
        <time>2019-12-07T16:41:29Z</time>
      </trkpt>
      <trkpt lat="45.25373" lon="4.11874">
        <ele>557.1</ele>
        <time>2019-12-07T16:41:43Z</time>
      </trkpt>
      <trkpt lat="45.25372" lon="4.11871">
        <ele>557</ele>
        <time>2019-12-07T16:41:44Z</time>
      </trkpt>
      <trkpt lat="45.25372" lon="4.11869">
        <ele>556.8</ele>
        <time>2019-12-07T16:41:45Z</time>
      </trkpt>
      <trkpt lat="45.25371" lon="4.11867">
        <ele>557.1</ele>
        <time>2019-12-07T16:41:46Z</time>
      </trkpt>
      <trkpt lat="45.25369" lon="4.11866">
        <ele>557.1</ele>
        <time>2019-12-07T16:41:47Z</time>
      </trkpt>
      <trkpt lat="45.25368" lon="4.11865">
        <ele>556.5</ele>
        <time>2019-12-07T16:41:48Z</time>
      </trkpt>
      <trkpt lat="45.25366" lon="4.11864">
        <ele>556.6</ele>
        <time>2019-12-07T16:41:49Z</time>
      </trkpt>
      <trkpt lat="45.25364" lon="4.11862">
        <ele>556.7</ele>
        <time>2019-12-07T16:41:50Z</time>
      </trkpt>
      <trkpt lat="45.25363" lon="4.11861">
        <ele>556.7</ele>
        <time>2019-12-07T16:41:51Z</time>
      </trkpt>
      <trkpt lat="45.25362" lon="4.1186">
        <ele>556.1</ele>
        <time>2019-12-07T16:41:52Z</time>
      </trkpt>
      <trkpt lat="45.25362" lon="4.11858">
        <ele>557.5</ele>
        <time>2019-12-07T16:42:00Z</time>
      </trkpt>
      <trkpt lat="45.25357" lon="4.11857">
        <ele>556.3</ele>
        <time>2019-12-07T16:42:03Z</time>
      </trkpt>
      <trkpt lat="45.25351" lon="4.11854">
        <ele>556</ele>
        <time>2019-12-07T16:42:06Z</time>
      </trkpt>
      <trkpt lat="45.25337" lon="4.11835">
        <ele>556.7</ele>
        <time>2019-12-07T16:42:14Z</time>
      </trkpt>
      <trkpt lat="45.25316" lon="4.11804">
        <ele>560.1</ele>
        <time>2019-12-07T16:42:25Z</time>
      </trkpt>
      <trkpt lat="45.25306" lon="4.1179">
        <ele>562</ele>
        <time>2019-12-07T16:42:30Z</time>
      </trkpt>
      <trkpt lat="45.25269" lon="4.11755">
        <ele>566.1</ele>
        <time>2019-12-07T16:42:45Z</time>
      </trkpt>
      <trkpt lat="45.25251" lon="4.11738">
        <ele>568.2</ele>
        <time>2019-12-07T16:42:52Z</time>
      </trkpt>
      <trkpt lat="45.25231" lon="4.11729">
        <ele>568.4</ele>
        <time>2019-12-07T16:43:00Z</time>
      </trkpt>
      <trkpt lat="45.25212" lon="4.11733">
        <ele>566.3</ele>
        <time>2019-12-07T16:43:06Z</time>
      </trkpt>
      <trkpt lat="45.25168" lon="4.11745">
        <ele>562</ele>
        <time>2019-12-07T16:43:14Z</time>
      </trkpt>
      <trkpt lat="45.25145" lon="4.11745">
        <ele>561.8</ele>
        <time>2019-12-07T16:43:18Z</time>
      </trkpt>
      <trkpt lat="45.25125" lon="4.11752">
        <ele>559.5</ele>
        <time>2019-12-07T16:43:22Z</time>
      </trkpt>
      <trkpt lat="45.2507" lon="4.11775">
        <ele>556.2</ele>
        <time>2019-12-07T16:43:33Z</time>
      </trkpt>
      <trkpt lat="45.25067" lon="4.11778">
        <ele>555.3</ele>
        <time>2019-12-07T16:43:34Z</time>
      </trkpt>
      <trkpt lat="45.25063" lon="4.11781">
        <ele>555.6</ele>
        <time>2019-12-07T16:43:35Z</time>
      </trkpt>
      <trkpt lat="45.25023" lon="4.11812">
        <ele>550</ele>
        <time>2019-12-07T16:43:44Z</time>
      </trkpt>
      <trkpt lat="45.25018" lon="4.11815">
        <ele>550.1</ele>
        <time>2019-12-07T16:43:45Z</time>
      </trkpt>
      <trkpt lat="45.25014" lon="4.11819">
        <ele>549.7</ele>
        <time>2019-12-07T16:43:46Z</time>
      </trkpt>
      <trkpt lat="45.24994" lon="4.11828">
        <ele>549</ele>
        <time>2019-12-07T16:43:54Z</time>
      </trkpt>
      <trkpt lat="45.24994" lon="4.1183">
        <ele>548.2</ele>
        <time>2019-12-07T16:43:57Z</time>
      </trkpt>
      <trkpt lat="45.24995" lon="4.11828">
        <ele>549</ele>
        <time>2019-12-07T16:44:02Z</time>
      </trkpt>
      <trkpt lat="45.24991" lon="4.11832">
        <ele>548.4</ele>
        <time>2019-12-07T16:45:05Z</time>
      </trkpt>
      <trkpt lat="45.24991" lon="4.11831">
        <ele>548.4</ele>
        <time>2019-12-07T16:45:06Z</time>
      </trkpt>
      <trkpt lat="45.24991" lon="4.11832">
        <ele>548.4</ele>
        <time>2019-12-07T16:45:07Z</time>
      </trkpt>
      <trkpt lat="45.24991" lon="4.11833">
        <ele>547.6</ele>
        <time>2019-12-07T16:45:08Z</time>
      </trkpt>
      <trkpt lat="45.24987" lon="4.11837">
        <ele>547.1</ele>
        <time>2019-12-07T16:45:15Z</time>
      </trkpt>
      <trkpt lat="45.24985" lon="4.1184">
        <ele>547.1</ele>
        <time>2019-12-07T16:45:16Z</time>
      </trkpt>
      <trkpt lat="45.24964" lon="4.11863">
        <ele>544.8</ele>
        <time>2019-12-07T16:45:28Z</time>
      </trkpt>
      <trkpt lat="45.24943" lon="4.1189">
        <ele>541.3</ele>
        <time>2019-12-07T16:45:39Z</time>
      </trkpt>
      <trkpt lat="45.24927" lon="4.11911">
        <ele>539.4</ele>
        <time>2019-12-07T16:45:48Z</time>
      </trkpt>
      <trkpt lat="45.24891" lon="4.1197">
        <ele>535.2</ele>
        <time>2019-12-07T16:46:12Z</time>
      </trkpt>
      <trkpt lat="45.24871" lon="4.12026">
        <ele>529.5</ele>
        <time>2019-12-07T16:46:30Z</time>
      </trkpt>
      <trkpt lat="45.24842" lon="4.12094">
        <ele>519.3</ele>
        <time>2019-12-07T16:46:54Z</time>
      </trkpt>
      <trkpt lat="45.24837" lon="4.12105">
        <ele>517.5</ele>
        <time>2019-12-07T16:46:58Z</time>
      </trkpt>
      <trkpt lat="45.24831" lon="4.12126">
        <ele>514.4</ele>
        <time>2019-12-07T16:47:07Z</time>
      </trkpt>
      <trkpt lat="45.2483" lon="4.12127">
        <ele>513.7</ele>
        <time>2019-12-07T16:47:08Z</time>
      </trkpt>
      <trkpt lat="45.24824" lon="4.12138">
        <ele>511.9</ele>
        <time>2019-12-07T16:47:15Z</time>
      </trkpt>
      <trkpt lat="45.24822" lon="4.12144">
        <ele>510.7</ele>
        <time>2019-12-07T16:47:20Z</time>
      </trkpt>
      <trkpt lat="45.24816" lon="4.12161">
        <ele>507.9</ele>
        <time>2019-12-07T16:47:30Z</time>
      </trkpt>
      <trkpt lat="45.24809" lon="4.12171">
        <ele>504.7</ele>
        <time>2019-12-07T16:47:37Z</time>
      </trkpt>
      <trkpt lat="45.24808" lon="4.12173">
        <ele>504.5</ele>
        <time>2019-12-07T16:47:38Z</time>
      </trkpt>
      <trkpt lat="45.24808" lon="4.12175">
        <ele>504.5</ele>
        <time>2019-12-07T16:47:39Z</time>
      </trkpt>
      <trkpt lat="45.24807" lon="4.12176">
        <ele>504.3</ele>
        <time>2019-12-07T16:47:40Z</time>
      </trkpt>
      <trkpt lat="45.24806" lon="4.12178">
        <ele>503.3</ele>
        <time>2019-12-07T16:47:41Z</time>
      </trkpt>
      <trkpt lat="45.24805" lon="4.12179">
        <ele>503.3</ele>
        <time>2019-12-07T16:47:42Z</time>
      </trkpt>
      <trkpt lat="45.24804" lon="4.1218">
        <ele>503.3</ele>
        <time>2019-12-07T16:47:43Z</time>
      </trkpt>
      <trkpt lat="45.24802" lon="4.1218">
        <ele>502.3</ele>
        <time>2019-12-07T16:47:44Z</time>
      </trkpt>
      <trkpt lat="45.24801" lon="4.1218">
        <ele>502.3</ele>
        <time>2019-12-07T16:47:45Z</time>
      </trkpt>
      <trkpt lat="45.248" lon="4.12181">
        <ele>501.1</ele>
        <time>2019-12-07T16:47:46Z</time>
      </trkpt>
      <trkpt lat="45.24799" lon="4.12181">
        <ele>501.2</ele>
        <time>2019-12-07T16:47:47Z</time>
      </trkpt>
      <trkpt lat="45.24798" lon="4.12182">
        <ele>501.2</ele>
        <time>2019-12-07T16:47:48Z</time>
      </trkpt>
      <trkpt lat="45.24797" lon="4.12184">
        <ele>500.2</ele>
        <time>2019-12-07T16:47:49Z</time>
      </trkpt>
      <trkpt lat="45.24796" lon="4.12185">
        <ele>500.1</ele>
        <time>2019-12-07T16:47:50Z</time>
      </trkpt>
      <trkpt lat="45.2479" lon="4.12208">
        <ele>497.7</ele>
        <time>2019-12-07T16:48:00Z</time>
      </trkpt>
      <trkpt lat="45.24789" lon="4.12214">
        <ele>497.7</ele>
        <time>2019-12-07T16:48:03Z</time>
      </trkpt>
      <trkpt lat="45.24789" lon="4.12216">
        <ele>497.6</ele>
        <time>2019-12-07T16:48:04Z</time>
      </trkpt>
      <trkpt lat="45.24788" lon="4.12218">
        <ele>497.7</ele>
        <time>2019-12-07T16:48:05Z</time>
      </trkpt>
      <trkpt lat="45.24788" lon="4.1222">
        <ele>496.7</ele>
        <time>2019-12-07T16:48:06Z</time>
      </trkpt>
      <trkpt lat="45.24789" lon="4.12221">
        <ele>497.7</ele>
        <time>2019-12-07T16:48:10Z</time>
      </trkpt>
      <trkpt lat="45.24789" lon="4.12221">
        <ele>497.7</ele>
        <time>2019-12-07T16:48:12Z</time>
      </trkpt>
      <trkpt lat="45.24786" lon="4.12231">
        <ele>496.6</ele>
        <time>2019-12-07T16:48:19Z</time>
      </trkpt>
      <trkpt lat="45.24786" lon="4.12232">
        <ele>496.6</ele>
        <time>2019-12-07T16:48:20Z</time>
      </trkpt>
      <trkpt lat="45.24783" lon="4.12245">
        <ele>495.5</ele>
        <time>2019-12-07T16:48:25Z</time>
      </trkpt>
      <trkpt lat="45.24782" lon="4.12248">
        <ele>494.5</ele>
        <time>2019-12-07T16:48:26Z</time>
      </trkpt>
      <trkpt lat="45.24781" lon="4.12251">
        <ele>494.5</ele>
        <time>2019-12-07T16:48:27Z</time>
      </trkpt>
      <trkpt lat="45.24781" lon="4.12253">
        <ele>494.5</ele>
        <time>2019-12-07T16:48:28Z</time>
      </trkpt>
      <trkpt lat="45.24781" lon="4.12255">
        <ele>494.5</ele>
        <time>2019-12-07T16:48:29Z</time>
      </trkpt>
      <trkpt lat="45.24781" lon="4.12257">
        <ele>494.5</ele>
        <time>2019-12-07T16:48:30Z</time>
      </trkpt>
      <trkpt lat="45.24783" lon="4.123">
        <ele>494.3</ele>
        <time>2019-12-07T16:48:51Z</time>
      </trkpt>
      <trkpt lat="45.24783" lon="4.12302">
        <ele>494.2</ele>
        <time>2019-12-07T16:48:55Z</time>
      </trkpt>
      <trkpt lat="45.24783" lon="4.12323">
        <ele>493.9</ele>
        <time>2019-12-07T16:49:21Z</time>
      </trkpt>
      <trkpt lat="45.24782" lon="4.12325">
        <ele>493.9</ele>
        <time>2019-12-07T16:49:22Z</time>
      </trkpt>
      <trkpt lat="45.24782" lon="4.12328">
        <ele>493</ele>
        <time>2019-12-07T16:49:23Z</time>
      </trkpt>
      <trkpt lat="45.24781" lon="4.1233">
        <ele>493</ele>
        <time>2019-12-07T16:49:24Z</time>
      </trkpt>
      <trkpt lat="45.24781" lon="4.12332">
        <ele>493</ele>
        <time>2019-12-07T16:49:25Z</time>
      </trkpt>
      <trkpt lat="45.24781" lon="4.12335">
        <ele>493</ele>
        <time>2019-12-07T16:49:26Z</time>
      </trkpt>
      <trkpt lat="45.24784" lon="4.12362">
        <ele>493.9</ele>
        <time>2019-12-07T16:49:34Z</time>
      </trkpt>
      <trkpt lat="45.24791" lon="4.12377">
        <ele>496.1</ele>
        <time>2019-12-07T16:49:40Z</time>
      </trkpt>
      <trkpt lat="45.24792" lon="4.12379">
        <ele>496.1</ele>
        <time>2019-12-07T16:49:41Z</time>
      </trkpt>
      <trkpt lat="45.24793" lon="4.12382">
        <ele>496.1</ele>
        <time>2019-12-07T16:49:42Z</time>
      </trkpt>
      <trkpt lat="45.24793" lon="4.12384">
        <ele>496.1</ele>
        <time>2019-12-07T16:49:43Z</time>
      </trkpt>
      <trkpt lat="45.24796" lon="4.12392">
        <ele>496.7</ele>
        <time>2019-12-07T16:49:46Z</time>
      </trkpt>
      <trkpt lat="45.24798" lon="4.12394">
        <ele>497.5</ele>
        <time>2019-12-07T16:49:47Z</time>
      </trkpt>
      <trkpt lat="45.24799" lon="4.12395">
        <ele>497.5</ele>
        <time>2019-12-07T16:49:48Z</time>
      </trkpt>
      <trkpt lat="45.24799" lon="4.12396">
        <ele>497.4</ele>
        <time>2019-12-07T16:49:49Z</time>
      </trkpt>
      <trkpt lat="45.24799" lon="4.12398">
        <ele>497.5</ele>
        <time>2019-12-07T16:49:50Z</time>
      </trkpt>
      <trkpt lat="45.24799" lon="4.124">
        <ele>497.4</ele>
        <time>2019-12-07T16:49:51Z</time>
      </trkpt>
      <trkpt lat="45.248" lon="4.12401">
        <ele>497.4</ele>
        <time>2019-12-07T16:49:52Z</time>
      </trkpt>
      <trkpt lat="45.248" lon="4.12403">
        <ele>497.5</ele>
        <time>2019-12-07T16:49:53Z</time>
      </trkpt>
      <trkpt lat="45.248" lon="4.12405">
        <ele>497.4</ele>
        <time>2019-12-07T16:49:54Z</time>
      </trkpt>
      <trkpt lat="45.248" lon="4.12406">
        <ele>497.4</ele>
        <time>2019-12-07T16:49:55Z</time>
      </trkpt>
      <trkpt lat="45.24803" lon="4.12433">
        <ele>497.3</ele>
        <time>2019-12-07T16:50:05Z</time>
      </trkpt>
      <trkpt lat="45.24803" lon="4.12437">
        <ele>497.1</ele>
        <time>2019-12-07T16:50:06Z</time>
      </trkpt>
      <trkpt lat="45.24803" lon="4.1244">
        <ele>497.7</ele>
        <time>2019-12-07T16:50:07Z</time>
      </trkpt>
      <trkpt lat="45.24804" lon="4.12447">
        <ele>497.3</ele>
        <time>2019-12-07T16:50:10Z</time>
      </trkpt>
      <trkpt lat="45.24804" lon="4.12484">
        <ele>496.1</ele>
        <time>2019-12-07T16:50:25Z</time>
      </trkpt>
      <trkpt lat="45.24802" lon="4.12493">
        <ele>495.1</ele>
        <time>2019-12-07T16:50:31Z</time>
      </trkpt>
      <trkpt lat="45.24802" lon="4.12495">
        <ele>495</ele>
        <time>2019-12-07T16:50:32Z</time>
      </trkpt>
      <trkpt lat="45.24801" lon="4.12497">
        <ele>495</ele>
        <time>2019-12-07T16:50:34Z</time>
      </trkpt>
      <trkpt lat="45.24792" lon="4.12505">
        <ele>492.6</ele>
        <time>2019-12-07T16:50:47Z</time>
      </trkpt>
      <trkpt lat="45.24792" lon="4.12508">
        <ele>492.4</ele>
        <time>2019-12-07T16:50:49Z</time>
      </trkpt>
      <trkpt lat="45.24791" lon="4.12511">
        <ele>492.4</ele>
        <time>2019-12-07T16:50:50Z</time>
      </trkpt>
      <trkpt lat="45.24791" lon="4.12513">
        <ele>491.5</ele>
        <time>2019-12-07T16:50:51Z</time>
      </trkpt>
      <trkpt lat="45.24791" lon="4.12516">
        <ele>491.2</ele>
        <time>2019-12-07T16:50:52Z</time>
      </trkpt>
      <trkpt lat="45.2479" lon="4.12519">
        <ele>491.2</ele>
        <time>2019-12-07T16:50:53Z</time>
      </trkpt>
      <trkpt lat="45.24789" lon="4.12521">
        <ele>490.9</ele>
        <time>2019-12-07T16:50:54Z</time>
      </trkpt>
      <trkpt lat="45.24789" lon="4.12523">
        <ele>491</ele>
        <time>2019-12-07T16:50:55Z</time>
      </trkpt>
      <trkpt lat="45.24788" lon="4.12525">
        <ele>490.1</ele>
        <time>2019-12-07T16:50:56Z</time>
      </trkpt>
      <trkpt lat="45.24788" lon="4.12528">
        <ele>490.1</ele>
        <time>2019-12-07T16:50:57Z</time>
      </trkpt>
      <trkpt lat="45.24788" lon="4.12531">
        <ele>489.8</ele>
        <time>2019-12-07T16:50:58Z</time>
      </trkpt>
      <trkpt lat="45.24792" lon="4.12559">
        <ele>488.6</ele>
        <time>2019-12-07T16:51:08Z</time>
      </trkpt>
      <trkpt lat="45.24791" lon="4.12562">
        <ele>488.1</ele>
        <time>2019-12-07T16:51:09Z</time>
      </trkpt>
      <trkpt lat="45.2479" lon="4.12569">
        <ele>487.6</ele>
        <time>2019-12-07T16:51:12Z</time>
      </trkpt>
      <trkpt lat="45.24792" lon="4.12574">
        <ele>488</ele>
        <time>2019-12-07T16:51:18Z</time>
      </trkpt>
      <trkpt lat="45.24792" lon="4.12576">
        <ele>487.8</ele>
        <time>2019-12-07T16:51:19Z</time>
      </trkpt>
      <trkpt lat="45.24793" lon="4.12579">
        <ele>487.8</ele>
        <time>2019-12-07T16:51:20Z</time>
      </trkpt>
      <trkpt lat="45.24793" lon="4.12582">
        <ele>487.7</ele>
        <time>2019-12-07T16:51:21Z</time>
      </trkpt>
      <trkpt lat="45.24794" lon="4.12585">
        <ele>487.5</ele>
        <time>2019-12-07T16:51:22Z</time>
      </trkpt>
      <trkpt lat="45.24794" lon="4.12588">
        <ele>487.8</ele>
        <time>2019-12-07T16:51:23Z</time>
      </trkpt>
      <trkpt lat="45.24796" lon="4.12595">
        <ele>487.6</ele>
        <time>2019-12-07T16:51:25Z</time>
      </trkpt>
      <trkpt lat="45.24798" lon="4.126">
        <ele>487.8</ele>
        <time>2019-12-07T16:51:27Z</time>
      </trkpt>
      <trkpt lat="45.248" lon="4.12602">
        <ele>487.5</ele>
        <time>2019-12-07T16:51:28Z</time>
      </trkpt>
      <trkpt lat="45.24801" lon="4.12605">
        <ele>487.9</ele>
        <time>2019-12-07T16:51:29Z</time>
      </trkpt>
      <trkpt lat="45.24807" lon="4.1262">
        <ele>487.2</ele>
        <time>2019-12-07T16:51:34Z</time>
      </trkpt>
      <trkpt lat="45.24828" lon="4.12675">
        <ele>485.3</ele>
        <time>2019-12-07T16:51:57Z</time>
      </trkpt>
      <trkpt lat="45.24834" lon="4.1268">
        <ele>485.5</ele>
        <time>2019-12-07T16:52:03Z</time>
      </trkpt>
      <trkpt lat="45.24835" lon="4.1268">
        <ele>485.5</ele>
        <time>2019-12-07T16:52:04Z</time>
      </trkpt>
      <trkpt lat="45.24842" lon="4.12684">
        <ele>485.7</ele>
        <time>2019-12-07T16:52:15Z</time>
      </trkpt>
      <trkpt lat="45.24838" lon="4.12691">
        <ele>484.9</ele>
        <time>2019-12-07T16:52:24Z</time>
      </trkpt>
      <trkpt lat="45.24837" lon="4.12693">
        <ele>485</ele>
        <time>2019-12-07T16:52:25Z</time>
      </trkpt>
      <trkpt lat="45.24836" lon="4.12695">
        <ele>484.8</ele>
        <time>2019-12-07T16:52:26Z</time>
      </trkpt>
      <trkpt lat="45.24831" lon="4.12701">
        <ele>484.1</ele>
        <time>2019-12-07T16:52:30Z</time>
      </trkpt>
      <trkpt lat="45.2483" lon="4.12703">
        <ele>483.8</ele>
        <time>2019-12-07T16:52:31Z</time>
      </trkpt>
      <trkpt lat="45.24829" lon="4.12706">
        <ele>483.6</ele>
        <time>2019-12-07T16:52:32Z</time>
      </trkpt>
      <trkpt lat="45.24828" lon="4.12708">
        <ele>483.4</ele>
        <time>2019-12-07T16:52:33Z</time>
      </trkpt>
      <trkpt lat="45.24827" lon="4.12711">
        <ele>483.2</ele>
        <time>2019-12-07T16:52:34Z</time>
      </trkpt>
      <trkpt lat="45.24828" lon="4.12715">
        <ele>483.2</ele>
        <time>2019-12-07T16:52:35Z</time>
      </trkpt>
      <trkpt lat="45.24829" lon="4.12718">
        <ele>482.9</ele>
        <time>2019-12-07T16:52:36Z</time>
      </trkpt>
      <trkpt lat="45.24831" lon="4.12721">
        <ele>483.2</ele>
        <time>2019-12-07T16:52:37Z</time>
      </trkpt>
      <trkpt lat="45.24834" lon="4.12725">
        <ele>483.1</ele>
        <time>2019-12-07T16:52:38Z</time>
      </trkpt>
      <trkpt lat="45.24852" lon="4.12746">
        <ele>483.1</ele>
        <time>2019-12-07T16:52:47Z</time>
      </trkpt>
      <trkpt lat="45.24852" lon="4.12749">
        <ele>482.9</ele>
        <time>2019-12-07T16:52:48Z</time>
      </trkpt>
      <trkpt lat="45.24851" lon="4.12751">
        <ele>482.7</ele>
        <time>2019-12-07T16:52:49Z</time>
      </trkpt>
      <trkpt lat="45.2485" lon="4.12752">
        <ele>482.5</ele>
        <time>2019-12-07T16:52:50Z</time>
      </trkpt>
      <trkpt lat="45.24848" lon="4.12753">
        <ele>482.3</ele>
        <time>2019-12-07T16:52:51Z</time>
      </trkpt>
      <trkpt lat="45.24847" lon="4.12754">
        <ele>482.3</ele>
        <time>2019-12-07T16:52:52Z</time>
      </trkpt>
      <trkpt lat="45.24844" lon="4.12756">
        <ele>481.9</ele>
        <time>2019-12-07T16:52:54Z</time>
      </trkpt>
      <trkpt lat="45.24843" lon="4.12758">
        <ele>481.9</ele>
        <time>2019-12-07T16:52:55Z</time>
      </trkpt>
      <trkpt lat="45.24842" lon="4.1276">
        <ele>481.5</ele>
        <time>2019-12-07T16:52:56Z</time>
      </trkpt>
      <trkpt lat="45.2484" lon="4.12762">
        <ele>481.5</ele>
        <time>2019-12-07T16:52:57Z</time>
      </trkpt>
      <trkpt lat="45.24839" lon="4.12764">
        <ele>481.3</ele>
        <time>2019-12-07T16:52:58Z</time>
      </trkpt>
      <trkpt lat="45.24838" lon="4.12765">
        <ele>481.1</ele>
        <time>2019-12-07T16:52:59Z</time>
      </trkpt>
      <trkpt lat="45.24837" lon="4.12766">
        <ele>481.1</ele>
        <time>2019-12-07T16:53:00Z</time>
      </trkpt>
      <trkpt lat="45.24834" lon="4.12767">
        <ele>480.9</ele>
        <time>2019-12-07T16:53:02Z</time>
      </trkpt>
      <trkpt lat="45.2483" lon="4.12767">
        <ele>480.4</ele>
        <time>2019-12-07T16:53:06Z</time>
      </trkpt>
      <trkpt lat="45.24825" lon="4.12766">
        <ele>480.2</ele>
        <time>2019-12-07T16:53:10Z</time>
      </trkpt>
      <trkpt lat="45.2482" lon="4.12765">
        <ele>479.9</ele>
        <time>2019-12-07T16:53:15Z</time>
      </trkpt>
      <trkpt lat="45.24817" lon="4.12763">
        <ele>480</ele>
        <time>2019-12-07T16:53:20Z</time>
      </trkpt>
      <trkpt lat="45.2481" lon="4.12771">
        <ele>479.2</ele>
        <time>2019-12-07T16:53:32Z</time>
      </trkpt>
      <trkpt lat="45.2481" lon="4.12773">
        <ele>478.9</ele>
        <time>2019-12-07T16:53:33Z</time>
      </trkpt>
      <trkpt lat="45.24809" lon="4.12776">
        <ele>478.8</ele>
        <time>2019-12-07T16:53:34Z</time>
      </trkpt>
      <trkpt lat="45.24808" lon="4.12778">
        <ele>478.5</ele>
        <time>2019-12-07T16:53:35Z</time>
      </trkpt>
      <trkpt lat="45.24807" lon="4.12781">
        <ele>478.5</ele>
        <time>2019-12-07T16:53:36Z</time>
      </trkpt>
      <trkpt lat="45.24806" lon="4.12784">
        <ele>478.1</ele>
        <time>2019-12-07T16:53:37Z</time>
      </trkpt>
      <trkpt lat="45.24805" lon="4.12786">
        <ele>477.8</ele>
        <time>2019-12-07T16:53:38Z</time>
      </trkpt>
      <trkpt lat="45.24802" lon="4.12792">
        <ele>477.4</ele>
        <time>2019-12-07T16:53:40Z</time>
      </trkpt>
      <trkpt lat="45.24802" lon="4.12795">
        <ele>477.1</ele>
        <time>2019-12-07T16:53:41Z</time>
      </trkpt>
      <trkpt lat="45.24802" lon="4.12834">
        <ele>475.6</ele>
        <time>2019-12-07T16:53:52Z</time>
      </trkpt>
      <trkpt lat="45.24813" lon="4.12854">
        <ele>475.2</ele>
        <time>2019-12-07T16:53:58Z</time>
      </trkpt>
      <trkpt lat="45.24834" lon="4.12876">
        <ele>475.1</ele>
        <time>2019-12-07T16:54:08Z</time>
      </trkpt>
      <trkpt lat="45.24854" lon="4.12904">
        <ele>475</ele>
        <time>2019-12-07T16:54:19Z</time>
      </trkpt>
      <trkpt lat="45.24872" lon="4.12935">
        <ele>474</ele>
        <time>2019-12-07T16:54:29Z</time>
      </trkpt>
      <trkpt lat="45.24879" lon="4.12951">
        <ele>473.2</ele>
        <time>2019-12-07T16:54:34Z</time>
      </trkpt>
      <trkpt lat="45.24924" lon="4.12998">
        <ele>474.3</ele>
        <time>2019-12-07T16:54:54Z</time>
      </trkpt>
      <trkpt lat="45.24974" lon="4.13017">
        <ele>476.1</ele>
        <time>2019-12-07T16:55:17Z</time>
      </trkpt>
      <trkpt lat="45.25029" lon="4.13035">
        <ele>476.9</ele>
        <time>2019-12-07T16:55:39Z</time>
      </trkpt>
      <trkpt lat="45.25084" lon="4.1302">
        <ele>476.1</ele>
        <time>2019-12-07T16:56:05Z</time>
      </trkpt>
      <trkpt lat="45.25115" lon="4.13009">
        <ele>475.9</ele>
        <time>2019-12-07T16:56:20Z</time>
      </trkpt>
      <trkpt lat="45.25155" lon="4.13015">
        <ele>474.6</ele>
        <time>2019-12-07T16:56:36Z</time>
      </trkpt>
      <trkpt lat="45.25167" lon="4.13014">
        <ele>474.3</ele>
        <time>2019-12-07T16:56:41Z</time>
      </trkpt>
      <trkpt lat="45.25219" lon="4.13018">
        <ele>474.1</ele>
        <time>2019-12-07T16:57:03Z</time>
      </trkpt>
      <trkpt lat="45.25274" lon="4.13036">
        <ele>474.8</ele>
        <time>2019-12-07T16:57:27Z</time>
      </trkpt>
      <trkpt lat="45.2533" lon="4.13044">
        <ele>477.3</ele>
        <time>2019-12-07T16:57:50Z</time>
      </trkpt>
      <trkpt lat="45.25341" lon="4.13041">
        <ele>478.1</ele>
        <time>2019-12-07T16:57:55Z</time>
      </trkpt>
      <trkpt lat="45.25354" lon="4.13038">
        <ele>479</ele>
        <time>2019-12-07T16:58:02Z</time>
      </trkpt>
      <trkpt lat="45.25382" lon="4.1304">
        <ele>480.8</ele>
        <time>2019-12-07T16:58:11Z</time>
      </trkpt>
      <trkpt lat="45.25399" lon="4.13038">
        <ele>481.5</ele>
        <time>2019-12-07T16:58:17Z</time>
      </trkpt>
      <trkpt lat="45.25409" lon="4.13035">
        <ele>482.1</ele>
        <time>2019-12-07T16:58:21Z</time>
      </trkpt>
      <trkpt lat="45.25416" lon="4.13036">
        <ele>482.7</ele>
        <time>2019-12-07T16:58:25Z</time>
      </trkpt>
      <trkpt lat="45.25417" lon="4.13035">
        <ele>482.8</ele>
        <time>2019-12-07T16:58:26Z</time>
      </trkpt>
      <trkpt lat="45.2542" lon="4.13034">
        <ele>483.1</ele>
        <time>2019-12-07T16:58:35Z</time>
      </trkpt>
      <trkpt lat="45.25428" lon="4.13032">
        <ele>483</ele>
        <time>2019-12-07T16:59:28Z</time>
      </trkpt>
      <trkpt lat="45.25429" lon="4.13033">
        <ele>482.9</ele>
        <time>2019-12-07T16:59:29Z</time>
      </trkpt>
      <trkpt lat="45.25431" lon="4.13034">
        <ele>482.8</ele>
        <time>2019-12-07T16:59:30Z</time>
      </trkpt>
      <trkpt lat="45.25452" lon="4.13046">
        <ele>481.1</ele>
        <time>2019-12-07T16:59:41Z</time>
      </trkpt>
      <trkpt lat="45.25466" lon="4.13053">
        <ele>480.2</ele>
        <time>2019-12-07T16:59:47Z</time>
      </trkpt>
      <trkpt lat="45.25471" lon="4.13055">
        <ele>479.9</ele>
        <time>2019-12-07T16:59:49Z</time>
      </trkpt>
      <trkpt lat="45.25477" lon="4.13056">
        <ele>479.5</ele>
        <time>2019-12-07T16:59:51Z</time>
      </trkpt>
      <trkpt lat="45.2553" lon="4.13089">
        <ele>476.3</ele>
        <time>2019-12-07T17:00:09Z</time>
      </trkpt>
      <trkpt lat="45.25578" lon="4.13122">
        <ele>476.3</ele>
        <time>2019-12-07T17:00:24Z</time>
      </trkpt>
      <trkpt lat="45.25609" lon="4.13147">
        <ele>477.6</ele>
        <time>2019-12-07T17:00:34Z</time>
      </trkpt>
      <trkpt lat="45.2562" lon="4.1316">
        <ele>478.1</ele>
        <time>2019-12-07T17:00:38Z</time>
      </trkpt>
      <trkpt lat="45.25626" lon="4.13169">
        <ele>478.5</ele>
        <time>2019-12-07T17:00:41Z</time>
      </trkpt>
      <trkpt lat="45.25633" lon="4.13179">
        <ele>478.9</ele>
        <time>2019-12-07T17:00:44Z</time>
      </trkpt>
      <trkpt lat="45.25638" lon="4.13185">
        <ele>479.1</ele>
        <time>2019-12-07T17:00:46Z</time>
      </trkpt>
      <trkpt lat="45.25645" lon="4.13196">
        <ele>479.3</ele>
        <time>2019-12-07T17:00:49Z</time>
      </trkpt>
      <trkpt lat="45.25651" lon="4.13207">
        <ele>479.3</ele>
        <time>2019-12-07T17:00:52Z</time>
      </trkpt>
      <trkpt lat="45.25663" lon="4.13234">
        <ele>479.4</ele>
        <time>2019-12-07T17:00:58Z</time>
      </trkpt>
      <trkpt lat="45.2567" lon="4.13251">
        <ele>479.7</ele>
        <time>2019-12-07T17:01:02Z</time>
      </trkpt>
      <trkpt lat="45.25677" lon="4.1327">
        <ele>480.1</ele>
        <time>2019-12-07T17:01:07Z</time>
      </trkpt>
      <trkpt lat="45.25682" lon="4.13283">
        <ele>480.6</ele>
        <time>2019-12-07T17:01:11Z</time>
      </trkpt>
      <trkpt lat="45.25698" lon="4.13353">
        <ele>482.8</ele>
        <time>2019-12-07T17:01:30Z</time>
      </trkpt>
      <trkpt lat="45.25705" lon="4.13418">
        <ele>484.3</ele>
        <time>2019-12-07T17:01:46Z</time>
      </trkpt>
      <trkpt lat="45.25714" lon="4.13499">
        <ele>484.6</ele>
        <time>2019-12-07T17:02:04Z</time>
      </trkpt>
      <trkpt lat="45.25711" lon="4.13532">
        <ele>485.1</ele>
        <time>2019-12-07T17:02:11Z</time>
      </trkpt>
      <trkpt lat="45.25715" lon="4.1355">
        <ele>485.2</ele>
        <time>2019-12-07T17:02:17Z</time>
      </trkpt>
      <trkpt lat="45.25718" lon="4.13556">
        <ele>485.2</ele>
        <time>2019-12-07T17:02:21Z</time>
      </trkpt>
      <trkpt lat="45.25719" lon="4.13555">
        <ele>485.2</ele>
        <time>2019-12-07T17:02:25Z</time>
      </trkpt>
      <trkpt lat="45.25719" lon="4.13555">
        <ele>485.2</ele>
        <time>2019-12-07T17:02:28Z</time>
      </trkpt>
      <trkpt lat="45.25722" lon="4.13556">
        <ele>485.2</ele>
        <time>2019-12-07T17:03:21Z</time>
      </trkpt>
      <trkpt lat="45.25724" lon="4.13557">
        <ele>485.2</ele>
        <time>2019-12-07T17:03:22Z</time>
      </trkpt>
      <trkpt lat="45.25726" lon="4.13558">
        <ele>485.2</ele>
        <time>2019-12-07T17:03:23Z</time>
      </trkpt>
      <trkpt lat="45.25733" lon="4.13565">
        <ele>485.1</ele>
        <time>2019-12-07T17:03:26Z</time>
      </trkpt>
      <trkpt lat="45.25734" lon="4.13569">
        <ele>485.1</ele>
        <time>2019-12-07T17:03:27Z</time>
      </trkpt>
      <trkpt lat="45.25734" lon="4.13573">
        <ele>485.1</ele>
        <time>2019-12-07T17:03:28Z</time>
      </trkpt>
      <trkpt lat="45.25735" lon="4.13578">
        <ele>480.9</ele>
        <time>2019-12-07T17:03:29Z</time>
      </trkpt>
      <trkpt lat="45.25735" lon="4.13583">
        <ele>480.4</ele>
        <time>2019-12-07T17:03:30Z</time>
      </trkpt>
      <trkpt lat="45.25735" lon="4.13587">
        <ele>480</ele>
        <time>2019-12-07T17:03:31Z</time>
      </trkpt>
      <trkpt lat="45.25734" lon="4.1359">
        <ele>479.6</ele>
        <time>2019-12-07T17:03:32Z</time>
      </trkpt>
      <trkpt lat="45.25731" lon="4.13591">
        <ele>479.2</ele>
        <time>2019-12-07T17:03:33Z</time>
      </trkpt>
      <trkpt lat="45.25728" lon="4.1359">
        <ele>478.8</ele>
        <time>2019-12-07T17:03:34Z</time>
      </trkpt>
      <trkpt lat="45.25724" lon="4.1359">
        <ele>478.2</ele>
        <time>2019-12-07T17:03:35Z</time>
      </trkpt>
      <trkpt lat="45.25719" lon="4.13588">
        <ele>477.8</ele>
        <time>2019-12-07T17:03:36Z</time>
      </trkpt>
      <trkpt lat="45.25714" lon="4.13585">
        <ele>477.6</ele>
        <time>2019-12-07T17:03:37Z</time>
      </trkpt>
      <trkpt lat="45.2571" lon="4.13583">
        <ele>477.2</ele>
        <time>2019-12-07T17:03:38Z</time>
      </trkpt>
      <trkpt lat="45.25707" lon="4.13582">
        <ele>476.6</ele>
        <time>2019-12-07T17:03:39Z</time>
      </trkpt>
      <trkpt lat="45.25703" lon="4.13582">
        <ele>476</ele>
        <time>2019-12-07T17:03:40Z</time>
      </trkpt>
      <trkpt lat="45.257" lon="4.13583">
        <ele>475.5</ele>
        <time>2019-12-07T17:03:41Z</time>
      </trkpt>
      <trkpt lat="45.25697" lon="4.13584">
        <ele>474.9</ele>
        <time>2019-12-07T17:03:42Z</time>
      </trkpt>
      <trkpt lat="45.25693" lon="4.13584">
        <ele>474.6</ele>
        <time>2019-12-07T17:03:43Z</time>
      </trkpt>
      <trkpt lat="45.25684" lon="4.13592">
        <ele>473.6</ele>
        <time>2019-12-07T17:03:46Z</time>
      </trkpt>
      <trkpt lat="45.25678" lon="4.13602">
        <ele>472.6</ele>
        <time>2019-12-07T17:03:48Z</time>
      </trkpt>
      <trkpt lat="45.25671" lon="4.13619">
        <ele>471.8</ele>
        <time>2019-12-07T17:03:51Z</time>
      </trkpt>
      <trkpt lat="45.25659" lon="4.13702">
        <ele>464.7</ele>
        <time>2019-12-07T17:04:11Z</time>
      </trkpt>
      <trkpt lat="45.25655" lon="4.13748">
        <ele>462.4</ele>
        <time>2019-12-07T17:04:23Z</time>
      </trkpt>
      <trkpt lat="45.25658" lon="4.13759">
        <ele>462.2</ele>
        <time>2019-12-07T17:04:28Z</time>
      </trkpt>
      <trkpt lat="45.25662" lon="4.13761">
        <ele>462.1</ele>
        <time>2019-12-07T17:04:31Z</time>
      </trkpt>
      <trkpt lat="45.25664" lon="4.13762">
        <ele>462.1</ele>
        <time>2019-12-07T17:04:32Z</time>
      </trkpt>
      <trkpt lat="45.25669" lon="4.13762">
        <ele>462.2</ele>
        <time>2019-12-07T17:04:35Z</time>
      </trkpt>
      <trkpt lat="45.25675" lon="4.13766">
        <ele>462.5</ele>
        <time>2019-12-07T17:04:39Z</time>
      </trkpt>
      <trkpt lat="45.25679" lon="4.13769">
        <ele>462.8</ele>
        <time>2019-12-07T17:04:42Z</time>
      </trkpt>
      <trkpt lat="45.25684" lon="4.13778">
        <ele>463.2</ele>
        <time>2019-12-07T17:04:47Z</time>
      </trkpt>
      <trkpt lat="45.25696" lon="4.138">
        <ele>464.9</ele>
        <time>2019-12-07T17:04:58Z</time>
      </trkpt>
      <trkpt lat="45.25707" lon="4.13825">
        <ele>466.3</ele>
        <time>2019-12-07T17:05:08Z</time>
      </trkpt>
      <trkpt lat="45.25746" lon="4.13883">
        <ele>469</ele>
        <time>2019-12-07T17:05:29Z</time>
      </trkpt>
      <trkpt lat="45.25759" lon="4.13893">
        <ele>469.6</ele>
        <time>2019-12-07T17:05:34Z</time>
      </trkpt>
      <trkpt lat="45.25772" lon="4.13902">
        <ele>469.8</ele>
        <time>2019-12-07T17:05:39Z</time>
      </trkpt>
      <trkpt lat="45.25783" lon="4.13908">
        <ele>469.9</ele>
        <time>2019-12-07T17:05:44Z</time>
      </trkpt>
      <trkpt lat="45.25787" lon="4.13919">
        <ele>469.5</ele>
        <time>2019-12-07T17:05:49Z</time>
      </trkpt>
      <trkpt lat="45.25787" lon="4.13922">
        <ele>469.4</ele>
        <time>2019-12-07T17:05:57Z</time>
      </trkpt>
      <trkpt lat="45.2579" lon="4.13928">
        <ele>469.1</ele>
        <time>2019-12-07T17:06:34Z</time>
      </trkpt>
      <trkpt lat="45.25791" lon="4.1393">
        <ele>469</ele>
        <time>2019-12-07T17:06:35Z</time>
      </trkpt>
      <trkpt lat="45.25792" lon="4.13934">
        <ele>468.9</ele>
        <time>2019-12-07T17:06:36Z</time>
      </trkpt>
      <trkpt lat="45.25799" lon="4.13969">
        <ele>467.7</ele>
        <time>2019-12-07T17:06:45Z</time>
      </trkpt>
      <trkpt lat="45.25801" lon="4.13976">
        <ele>467.5</ele>
        <time>2019-12-07T17:06:47Z</time>
      </trkpt>
      <trkpt lat="45.25803" lon="4.13987">
        <ele>467.1</ele>
        <time>2019-12-07T17:06:50Z</time>
      </trkpt>
      <trkpt lat="45.25819" lon="4.14066">
        <ele>465.4</ele>
        <time>2019-12-07T17:07:11Z</time>
      </trkpt>
      <trkpt lat="45.25823" lon="4.14088">
        <ele>465.7</ele>
        <time>2019-12-07T17:07:17Z</time>
      </trkpt>
      <trkpt lat="45.25825" lon="4.14103">
        <ele>466</ele>
        <time>2019-12-07T17:07:21Z</time>
      </trkpt>
      <trkpt lat="45.25839" lon="4.1418">
        <ele>467.9</ele>
        <time>2019-12-07T17:07:43Z</time>
      </trkpt>
      <trkpt lat="45.25843" lon="4.1421">
        <ele>468.8</ele>
        <time>2019-12-07T17:07:51Z</time>
      </trkpt>
      <trkpt lat="45.25844" lon="4.14229">
        <ele>468.9</ele>
        <time>2019-12-07T17:07:55Z</time>
      </trkpt>
      <trkpt lat="45.25844" lon="4.14241">
        <ele>468.8</ele>
        <time>2019-12-07T17:07:58Z</time>
      </trkpt>
      <trkpt lat="45.25843" lon="4.14263">
        <ele>468.3</ele>
        <time>2019-12-07T17:08:03Z</time>
      </trkpt>
      <trkpt lat="45.2584" lon="4.14279">
        <ele>467.7</ele>
        <time>2019-12-07T17:08:07Z</time>
      </trkpt>
      <trkpt lat="45.25837" lon="4.14294">
        <ele>466.9</ele>
        <time>2019-12-07T17:08:11Z</time>
      </trkpt>
      <trkpt lat="45.25834" lon="4.14309">
        <ele>465.9</ele>
        <time>2019-12-07T17:08:15Z</time>
      </trkpt>
      <trkpt lat="45.2583" lon="4.14324">
        <ele>465</ele>
        <time>2019-12-07T17:08:19Z</time>
      </trkpt>
      <trkpt lat="45.25827" lon="4.14336">
        <ele>464.7</ele>
        <time>2019-12-07T17:08:22Z</time>
      </trkpt>
      <trkpt lat="45.25821" lon="4.14358">
        <ele>465.9</ele>
        <time>2019-12-07T17:08:27Z</time>
      </trkpt>
      <trkpt lat="45.25798" lon="4.14433">
        <ele>469.8</ele>
        <time>2019-12-07T17:08:43Z</time>
      </trkpt>
      <trkpt lat="45.25788" lon="4.14473">
        <ele>471.3</ele>
        <time>2019-12-07T17:08:50Z</time>
      </trkpt>
      <trkpt lat="45.25788" lon="4.14479">
        <ele>471.5</ele>
        <time>2019-12-07T17:08:51Z</time>
      </trkpt>
      <trkpt lat="45.25788" lon="4.14484">
        <ele>471.7</ele>
        <time>2019-12-07T17:08:52Z</time>
      </trkpt>
      <trkpt lat="45.25788" lon="4.14509">
        <ele>473</ele>
        <time>2019-12-07T17:08:58Z</time>
      </trkpt>
      <trkpt lat="45.2578" lon="4.14544">
        <ele>474.9</ele>
        <time>2019-12-07T17:09:06Z</time>
      </trkpt>
      <trkpt lat="45.25775" lon="4.14558">
        <ele>475.4</ele>
        <time>2019-12-07T17:09:10Z</time>
      </trkpt>
      <trkpt lat="45.25771" lon="4.14567">
        <ele>475.7</ele>
        <time>2019-12-07T17:09:13Z</time>
      </trkpt>
      <trkpt lat="45.25767" lon="4.14573">
        <ele>475.9</ele>
        <time>2019-12-07T17:09:17Z</time>
      </trkpt>
      <trkpt lat="45.25767" lon="4.14573">
        <ele>475.9</ele>
        <time>2019-12-07T17:09:23Z</time>
      </trkpt>
      <trkpt lat="45.25767" lon="4.1458">
        <ele>476.1</ele>
        <time>2019-12-07T17:09:52Z</time>
      </trkpt>
      <trkpt lat="45.25766" lon="4.14582">
        <ele>476.1</ele>
        <time>2019-12-07T17:09:53Z</time>
      </trkpt>
      <trkpt lat="45.25765" lon="4.14583">
        <ele>476.2</ele>
        <time>2019-12-07T17:09:54Z</time>
      </trkpt>
      <trkpt lat="45.25765" lon="4.14585">
        <ele>476.2</ele>
        <time>2019-12-07T17:09:55Z</time>
      </trkpt>
      <trkpt lat="45.25759" lon="4.14608">
        <ele>476.9</ele>
        <time>2019-12-07T17:10:03Z</time>
      </trkpt>
      <trkpt lat="45.25755" lon="4.14623">
        <ele>477.6</ele>
        <time>2019-12-07T17:10:08Z</time>
      </trkpt>
      <trkpt lat="45.25738" lon="4.14663">
        <ele>480.5</ele>
        <time>2019-12-07T17:10:22Z</time>
      </trkpt>
      <trkpt lat="45.2571" lon="4.14733">
        <ele>481.3</ele>
        <time>2019-12-07T17:10:47Z</time>
      </trkpt>
      <trkpt lat="45.2568" lon="4.14803">
        <ele>481.5</ele>
        <time>2019-12-07T17:11:10Z</time>
      </trkpt>
      <trkpt lat="45.25667" lon="4.14851">
        <ele>482.3</ele>
        <time>2019-12-07T17:11:24Z</time>
      </trkpt>
      <trkpt lat="45.25641" lon="4.14923">
        <ele>484.3</ele>
        <time>2019-12-07T17:11:46Z</time>
      </trkpt>
      <trkpt lat="45.25613" lon="4.14992">
        <ele>485.8</ele>
        <time>2019-12-07T17:12:10Z</time>
      </trkpt>
      <trkpt lat="45.2559" lon="4.15064">
        <ele>482.9</ele>
        <time>2019-12-07T17:12:35Z</time>
      </trkpt>
      <trkpt lat="45.25581" lon="4.15084">
        <ele>483.4</ele>
        <time>2019-12-07T17:12:43Z</time>
      </trkpt>
      <trkpt lat="45.25576" lon="4.15096">
        <ele>483.9</ele>
        <time>2019-12-07T17:12:48Z</time>
      </trkpt>
      <trkpt lat="45.25571" lon="4.15111">
        <ele>484.6</ele>
        <time>2019-12-07T17:12:54Z</time>
      </trkpt>
      <trkpt lat="45.25564" lon="4.15124">
        <ele>485.2</ele>
        <time>2019-12-07T17:13:00Z</time>
      </trkpt>
      <trkpt lat="45.25555" lon="4.15136">
        <ele>486</ele>
        <time>2019-12-07T17:13:06Z</time>
      </trkpt>
      <trkpt lat="45.25503" lon="4.15165">
        <ele>490.3</ele>
        <time>2019-12-07T17:13:32Z</time>
      </trkpt>
      <trkpt lat="45.25493" lon="4.15163">
        <ele>491.3</ele>
        <time>2019-12-07T17:13:37Z</time>
      </trkpt>
      <trkpt lat="45.2548" lon="4.1516">
        <ele>492.2</ele>
        <time>2019-12-07T17:13:43Z</time>
      </trkpt>
      <trkpt lat="45.25466" lon="4.15157">
        <ele>493</ele>
        <time>2019-12-07T17:13:49Z</time>
      </trkpt>
      <trkpt lat="45.25443" lon="4.15152">
        <ele>494.5</ele>
        <time>2019-12-07T17:13:59Z</time>
      </trkpt>
      <trkpt lat="45.25426" lon="4.15149">
        <ele>495.6</ele>
        <time>2019-12-07T17:14:06Z</time>
      </trkpt>
      <trkpt lat="45.25395" lon="4.15141">
        <ele>498</ele>
        <time>2019-12-07T17:14:19Z</time>
      </trkpt>
      <trkpt lat="45.2538" lon="4.15135">
        <ele>498.9</ele>
        <time>2019-12-07T17:14:25Z</time>
      </trkpt>
      <trkpt lat="45.25343" lon="4.15122">
        <ele>501.8</ele>
        <time>2019-12-07T17:14:41Z</time>
      </trkpt>
      <trkpt lat="45.25313" lon="4.15122">
        <ele>503.9</ele>
        <time>2019-12-07T17:14:53Z</time>
      </trkpt>
      <trkpt lat="45.25276" lon="4.1512">
        <ele>506.7</ele>
        <time>2019-12-07T17:15:08Z</time>
      </trkpt>
      <trkpt lat="45.25222" lon="4.15084">
        <ele>510.3</ele>
        <time>2019-12-07T17:15:32Z</time>
      </trkpt>
      <trkpt lat="45.25173" lon="4.15039">
        <ele>509.2</ele>
        <time>2019-12-07T17:15:57Z</time>
      </trkpt>
      <trkpt lat="45.25133" lon="4.14986">
        <ele>512.3</ele>
        <time>2019-12-07T17:16:21Z</time>
      </trkpt>
      <trkpt lat="45.25105" lon="4.1494">
        <ele>514.9</ele>
        <time>2019-12-07T17:16:39Z</time>
      </trkpt>
      <trkpt lat="45.25081" lon="4.14892">
        <ele>518.7</ele>
        <time>2019-12-07T17:16:57Z</time>
      </trkpt>
      <trkpt lat="45.2506" lon="4.1486">
        <ele>520.4</ele>
        <time>2019-12-07T17:17:10Z</time>
      </trkpt>
      <trkpt lat="45.25033" lon="4.14802">
        <ele>522.9</ele>
        <time>2019-12-07T17:17:31Z</time>
      </trkpt>
      <trkpt lat="45.24991" lon="4.14749">
        <ele>519.1</ele>
        <time>2019-12-07T17:17:55Z</time>
      </trkpt>
      <trkpt lat="45.2501" lon="4.14674">
        <ele>520</ele>
        <time>2019-12-07T17:18:18Z</time>
      </trkpt>
      <trkpt lat="45.25028" lon="4.14597">
        <ele>518.5</ele>
        <time>2019-12-07T17:18:42Z</time>
      </trkpt>
      <trkpt lat="45.25033" lon="4.14519">
        <ele>514.4</ele>
        <time>2019-12-07T17:19:06Z</time>
      </trkpt>
      <trkpt lat="45.25015" lon="4.14442">
        <ele>507.3</ele>
        <time>2019-12-07T17:19:30Z</time>
      </trkpt>
      <trkpt lat="45.24976" lon="4.14384">
        <ele>504.8</ele>
        <time>2019-12-07T17:19:55Z</time>
      </trkpt>
      <trkpt lat="45.24933" lon="4.14334">
        <ele>508.3</ele>
        <time>2019-12-07T17:20:19Z</time>
      </trkpt>
      <trkpt lat="45.24883" lon="4.14296">
        <ele>515.7</ele>
        <time>2019-12-07T17:20:44Z</time>
      </trkpt>
      <trkpt lat="45.24827" lon="4.14283">
        <ele>521.2</ele>
        <time>2019-12-07T17:21:08Z</time>
      </trkpt>
      <trkpt lat="45.24806" lon="4.14284">
        <ele>520.5</ele>
        <time>2019-12-07T17:21:17Z</time>
      </trkpt>
      <trkpt lat="45.24751" lon="4.14311">
        <ele>514</ele>
        <time>2019-12-07T17:21:42Z</time>
      </trkpt>
      <trkpt lat="45.2471" lon="4.14344">
        <ele>509.5</ele>
        <time>2019-12-07T17:22:01Z</time>
      </trkpt>
      <trkpt lat="45.24671" lon="4.14402">
        <ele>506.6</ele>
        <time>2019-12-07T17:22:24Z</time>
      </trkpt>
      <trkpt lat="45.24656" lon="4.1443">
        <ele>506.3</ele>
        <time>2019-12-07T17:22:35Z</time>
      </trkpt>
      <trkpt lat="45.24636" lon="4.1447">
        <ele>507.1</ele>
        <time>2019-12-07T17:22:51Z</time>
      </trkpt>
      <trkpt lat="45.24627" lon="4.14504">
        <ele>506.3</ele>
        <time>2019-12-07T17:23:02Z</time>
      </trkpt>
      <trkpt lat="45.24624" lon="4.14582">
        <ele>504.5</ele>
        <time>2019-12-07T17:23:26Z</time>
      </trkpt>
      <trkpt lat="45.24624" lon="4.14599">
        <ele>504.5</ele>
        <time>2019-12-07T17:23:34Z</time>
      </trkpt>
    </trkseg>
  </trk>
</gpx>